<?xml version='1.0' encoding='UTF-8'?><gpx version="1.1" creator="JPX - https://github.com/jenetics/jpx" xmlns="http://www.topografix.com/GPX/1/1"><trk><trkseg><trkpt lat="39.1589053" lon="16.9020605"><ele>232.0</ele><time>2026-04-19T07:17:09.261Z</time></trkpt><trkpt lat="39.1479513" lon="16.90962"><ele>207.0</ele><time>2026-04-19T07:17:15.755Z</time></trkpt><trkpt lat="39.152083" lon="16.9103352"><ele>169.0</ele><time>2026-04-19T07:17:28.867Z</time></trkpt><trkpt lat="39.1588667" lon="16.9019217"><ele>169.0</ele><time>2026-04-19T07:18:03.823Z</time></trkpt><trkpt lat="39.1588967" lon="16.9017967"><ele>169.0</ele><time>2026-04-19T07:24:13.522Z</time></trkpt><trkpt lat="39.158935" lon="16.901725"><ele>169.0</ele><time>2026-04-19T07:24:15.523Z</time></trkpt><trkpt lat="39.1589833" lon="16.9016533"><ele>169.0</ele><time>2026-04-19T07:24:17.522Z</time></trkpt><trkpt lat="39.1590133" lon="16.9015633"><ele>169.0</ele><time>2026-04-19T07:24:20.522Z</time></trkpt><trkpt lat="39.1589017" lon="16.9015067"><ele>169.0</ele><time>2026-04-19T07:24:22.523Z</time></trkpt><trkpt lat="39.15877" lon="16.90148"><ele>170.33333333333334</ele><time>2026-04-19T07:24:24.522Z</time></trkpt><trkpt lat="39.15868" lon="16.9014633"><ele>171.66666666666669</ele><time>2026-04-19T07:24:25.522Z</time></trkpt><trkpt lat="39.1585817" lon="16.9014417"><ele>173.0</ele><time>2026-04-19T07:24:26.522Z</time></trkpt><trkpt lat="39.15849" lon="16.90143"><ele>174.33333333333334</ele><time>2026-04-19T07:24:27.522Z</time></trkpt><trkpt lat="39.15841" lon="16.9014233"><ele>175.66666666666666</ele><time>2026-04-19T07:24:28.523Z</time></trkpt><trkpt lat="39.1583267" lon="16.90142"><ele>177.0</ele><time>2026-04-19T07:24:29.522Z</time></trkpt><trkpt lat="39.1582417" lon="16.901425"><ele>177.0</ele><time>2026-04-19T07:24:30.522Z</time></trkpt><trkpt lat="39.1581633" lon="16.901455"><ele>177.0</ele><time>2026-04-19T07:24:31.523Z</time></trkpt><trkpt lat="39.1580833" lon="16.9015183"><ele>177.0</ele><time>2026-04-19T07:24:32.522Z</time></trkpt><trkpt lat="39.158015" lon="16.901595"><ele>177.0</ele><time>2026-04-19T07:24:33.523Z</time></trkpt><trkpt lat="39.1579633" lon="16.901675"><ele>177.0</ele><time>2026-04-19T07:24:34.522Z</time></trkpt><trkpt lat="39.1579183" lon="16.9017517"><ele>177.0</ele><time>2026-04-19T07:24:35.522Z</time></trkpt><trkpt lat="39.1578817" lon="16.9018267"><ele>175.66666666666666</ele><time>2026-04-19T07:24:36.522Z</time></trkpt><trkpt lat="39.157825" lon="16.9019417"><ele>174.33333333333334</ele><time>2026-04-19T07:24:38.522Z</time></trkpt><trkpt lat="39.157785" lon="16.9020283"><ele>173.0</ele><time>2026-04-19T07:24:40.523Z</time></trkpt><trkpt lat="39.15774" lon="16.90213"><ele>171.66666666666669</ele><time>2026-04-19T07:24:42.522Z</time></trkpt><trkpt lat="39.1577067" lon="16.9022017"><ele>170.33333333333334</ele><time>2026-04-19T07:24:43.522Z</time></trkpt><trkpt lat="39.157665" lon="16.9022783"><ele>169.0</ele><time>2026-04-19T07:24:44.522Z</time></trkpt><trkpt lat="39.15762" lon="16.902365"><ele>169.0</ele><time>2026-04-19T07:24:45.522Z</time></trkpt><trkpt lat="39.1575633" lon="16.9024633"><ele>169.0</ele><time>2026-04-19T07:24:46.522Z</time></trkpt><trkpt lat="39.1575117" lon="16.902565"><ele>169.0</ele><time>2026-04-19T07:24:47.523Z</time></trkpt><trkpt lat="39.1574583" lon="16.9026683"><ele>169.0</ele><time>2026-04-19T07:24:48.522Z</time></trkpt><trkpt lat="39.157405" lon="16.9027867"><ele>169.0</ele><time>2026-04-19T07:24:49.522Z</time></trkpt><trkpt lat="39.1573517" lon="16.9029067"><ele>165.5</ele><time>2026-04-19T07:24:50.522Z</time></trkpt><trkpt lat="39.1573033" lon="16.9030317"><ele>162.0</ele><time>2026-04-19T07:24:51.522Z</time></trkpt><trkpt lat="39.1572617" lon="16.9031717"><ele>158.5</ele><time>2026-04-19T07:24:52.522Z</time></trkpt><trkpt lat="39.1572333" lon="16.9033283"><ele>155.0</ele><time>2026-04-19T07:24:53.523Z</time></trkpt><trkpt lat="39.15723" lon="16.9034917"><ele>154.0</ele><time>2026-04-19T07:24:54.522Z</time></trkpt><trkpt lat="39.1572683" lon="16.9036267"><ele>153.0</ele><time>2026-04-19T07:24:55.523Z</time></trkpt><trkpt lat="39.15735" lon="16.9037533"><ele>152.0</ele><time>2026-04-19T07:24:56.523Z</time></trkpt><trkpt lat="39.1574367" lon="16.9038683"><ele>151.0</ele><time>2026-04-19T07:24:57.522Z</time></trkpt><trkpt lat="39.1575117" lon="16.9039833"><ele>150.6</ele><time>2026-04-19T07:24:58.522Z</time></trkpt><trkpt lat="39.1575633" lon="16.9041"><ele>150.2</ele><time>2026-04-19T07:24:59.522Z</time></trkpt><trkpt lat="39.1575883" lon="16.90422"><ele>149.8</ele><time>2026-04-19T07:25:00.522Z</time></trkpt><trkpt lat="39.157575" lon="16.9043367"><ele>149.4</ele><time>2026-04-19T07:25:01.522Z</time></trkpt><trkpt lat="39.157535" lon="16.9044467"><ele>149.0</ele><time>2026-04-19T07:25:02.522Z</time></trkpt><trkpt lat="39.1574517" lon="16.9045317"><ele>146.6</ele><time>2026-04-19T07:25:03.522Z</time></trkpt><trkpt lat="39.1573667" lon="16.9045917"><ele>144.2</ele><time>2026-04-19T07:25:04.522Z</time></trkpt><trkpt lat="39.1572733" lon="16.90461"><ele>141.79999999999998</ele><time>2026-04-19T07:25:05.522Z</time></trkpt><trkpt lat="39.1571683" lon="16.9045717"><ele>139.4</ele><time>2026-04-19T07:25:06.522Z</time></trkpt><trkpt lat="39.1570783" lon="16.9045017"><ele>137.0</ele><time>2026-04-19T07:25:07.522Z</time></trkpt><trkpt lat="39.1570117" lon="16.90438"><ele>140.5</ele><time>2026-04-19T07:25:08.522Z</time></trkpt><trkpt lat="39.1569833" lon="16.9042383"><ele>144.0</ele><time>2026-04-19T07:25:09.522Z</time></trkpt><trkpt lat="39.1569883" lon="16.904085"><ele>147.5</ele><time>2026-04-19T07:25:10.522Z</time></trkpt><trkpt lat="39.1569883" lon="16.9039233"><ele>151.0</ele><time>2026-04-19T07:25:11.522Z</time></trkpt><trkpt lat="39.1569817" lon="16.903765"><ele>151.0</ele><time>2026-04-19T07:25:12.522Z</time></trkpt><trkpt lat="39.156975" lon="16.903605"><ele>151.0</ele><time>2026-04-19T07:25:13.522Z</time></trkpt><trkpt lat="39.1569717" lon="16.9034417"><ele>151.0</ele><time>2026-04-19T07:25:14.523Z</time></trkpt><trkpt lat="39.1569617" lon="16.9032917"><ele>151.0</ele><time>2026-04-19T07:25:15.522Z</time></trkpt><trkpt lat="39.1569517" lon="16.90315"><ele>151.8</ele><time>2026-04-19T07:25:16.523Z</time></trkpt><trkpt lat="39.156945" lon="16.9030067"><ele>152.6</ele><time>2026-04-19T07:25:17.523Z</time></trkpt><trkpt lat="39.1569333" lon="16.90288"><ele>153.4</ele><time>2026-04-19T07:25:18.522Z</time></trkpt><trkpt lat="39.1569117" lon="16.90276"><ele>154.2</ele><time>2026-04-19T07:25:19.522Z</time></trkpt><trkpt lat="39.15688" lon="16.9026617"><ele>155.0</ele><time>2026-04-19T07:25:20.522Z</time></trkpt><trkpt lat="39.156815" lon="16.9025867"><ele>156.2</ele><time>2026-04-19T07:25:21.522Z</time></trkpt><trkpt lat="39.1567233" lon="16.9025467"><ele>157.4</ele><time>2026-04-19T07:25:22.522Z</time></trkpt><trkpt lat="39.1566233" lon="16.9025567"><ele>158.60000000000002</ele><time>2026-04-19T07:25:23.522Z</time></trkpt><trkpt lat="39.15653" lon="16.9026217"><ele>159.8</ele><time>2026-04-19T07:25:24.522Z</time></trkpt><trkpt lat="39.156445" lon="16.90271"><ele>161.0</ele><time>2026-04-19T07:25:25.522Z</time></trkpt><trkpt lat="39.1563567" lon="16.9027867"><ele>158.20000000000002</ele><time>2026-04-19T07:25:26.522Z</time></trkpt><trkpt lat="39.1562622" lon="16.9028526"><ele>155.4</ele><time>2026-04-19T07:25:27.522Z</time></trkpt><trkpt lat="39.1561605" lon="16.9028986"><ele>152.6</ele><time>2026-04-19T07:25:28.523Z</time></trkpt><trkpt lat="39.156048" lon="16.902909"><ele>149.8</ele><time>2026-04-19T07:25:29.523Z</time></trkpt><trkpt lat="39.1559343" lon="16.902888"><ele>147.0</ele><time>2026-04-19T07:25:30.523Z</time></trkpt><trkpt lat="39.1558261" lon="16.9028472"><ele>147.0</ele><time>2026-04-19T07:25:31.522Z</time></trkpt><trkpt lat="39.1557219" lon="16.9027622"><ele>147.0</ele><time>2026-04-19T07:25:32.522Z</time></trkpt><trkpt lat="39.1556131" lon="16.9027143"><ele>147.0</ele><time>2026-04-19T07:25:33.522Z</time></trkpt><trkpt lat="39.1554914" lon="16.9027147"><ele>147.0</ele><time>2026-04-19T07:25:34.523Z</time></trkpt><trkpt lat="39.155367" lon="16.9027356"><ele>144.75</ele><time>2026-04-19T07:25:35.522Z</time></trkpt><trkpt lat="39.15523" lon="16.9027797"><ele>142.5</ele><time>2026-04-19T07:25:36.522Z</time></trkpt><trkpt lat="39.1550894" lon="16.9028258"><ele>140.25</ele><time>2026-04-19T07:25:37.522Z</time></trkpt><trkpt lat="39.15495" lon="16.9028713"><ele>138.0</ele><time>2026-04-19T07:25:38.522Z</time></trkpt><trkpt lat="39.1548128" lon="16.9029096"><ele>136.25</ele><time>2026-04-19T07:25:39.523Z</time></trkpt><trkpt lat="39.1546816" lon="16.9029213"><ele>134.5</ele><time>2026-04-19T07:25:40.522Z</time></trkpt><trkpt lat="39.1545699" lon="16.9029032"><ele>132.75</ele><time>2026-04-19T07:25:41.522Z</time></trkpt><trkpt lat="39.1544752" lon="16.9028453"><ele>131.0</ele><time>2026-04-19T07:25:42.522Z</time></trkpt><trkpt lat="39.1543986" lon="16.9027481"><ele>131.0</ele><time>2026-04-19T07:25:43.522Z</time></trkpt><trkpt lat="39.1543256" lon="16.9026356"><ele>131.0</ele><time>2026-04-19T07:25:44.522Z</time></trkpt><trkpt lat="39.154264" lon="16.9024876"><ele>131.0</ele><time>2026-04-19T07:25:45.522Z</time></trkpt><trkpt lat="39.1541945" lon="16.902334"><ele>131.0</ele><time>2026-04-19T07:25:46.522Z</time></trkpt><trkpt lat="39.1541122" lon="16.9021855"><ele>131.8</ele><time>2026-04-19T07:25:47.522Z</time></trkpt><trkpt lat="39.1540232" lon="16.9020703"><ele>132.6</ele><time>2026-04-19T07:25:48.523Z</time></trkpt><trkpt lat="39.1539352" lon="16.9019856"><ele>133.4</ele><time>2026-04-19T07:25:49.522Z</time></trkpt><trkpt lat="39.1538498" lon="16.9019357"><ele>134.2</ele><time>2026-04-19T07:25:50.523Z</time></trkpt><trkpt lat="39.1537572" lon="16.9019323"><ele>135.0</ele><time>2026-04-19T07:25:51.522Z</time></trkpt><trkpt lat="39.1536686" lon="16.9019467"><ele>135.0</ele><time>2026-04-19T07:25:52.522Z</time></trkpt><trkpt lat="39.1535771" lon="16.9020057"><ele>135.0</ele><time>2026-04-19T07:25:53.522Z</time></trkpt><trkpt lat="39.1534755" lon="16.9020757"><ele>135.0</ele><time>2026-04-19T07:25:54.522Z</time></trkpt><trkpt lat="39.1533637" lon="16.9021359"><ele>135.0</ele><time>2026-04-19T07:25:55.522Z</time></trkpt><trkpt lat="39.1532394" lon="16.9021789"><ele>137.0</ele><time>2026-04-19T07:25:56.522Z</time></trkpt><trkpt lat="39.15312" lon="16.9022121"><ele>139.0</ele><time>2026-04-19T07:25:57.522Z</time></trkpt><trkpt lat="39.1530002" lon="16.9022378"><ele>141.0</ele><time>2026-04-19T07:25:58.522Z</time></trkpt><trkpt lat="39.1528924" lon="16.902265"><ele>143.0</ele><time>2026-04-19T07:25:59.522Z</time></trkpt><trkpt lat="39.1528009" lon="16.9023147"><ele>143.0</ele><time>2026-04-19T07:26:00.522Z</time></trkpt><trkpt lat="39.1527274" lon="16.9023858"><ele>143.0</ele><time>2026-04-19T07:26:01.523Z</time></trkpt><trkpt lat="39.1526775" lon="16.9024925"><ele>143.0</ele><time>2026-04-19T07:26:02.522Z</time></trkpt><trkpt lat="39.152669" lon="16.9026181"><ele>143.0</ele><time>2026-04-19T07:26:03.523Z</time></trkpt><trkpt lat="39.1526788" lon="16.9027437"><ele>143.0</ele><time>2026-04-19T07:26:04.523Z</time></trkpt><trkpt lat="39.1527207" lon="16.9028871"><ele>142.75</ele><time>2026-04-19T07:26:05.522Z</time></trkpt><trkpt lat="39.1527745" lon="16.9030395"><ele>142.5</ele><time>2026-04-19T07:26:06.522Z</time></trkpt><trkpt lat="39.1528195" lon="16.9031877"><ele>142.25</ele><time>2026-04-19T07:26:07.522Z</time></trkpt><trkpt lat="39.1528501" lon="16.9033279"><ele>142.0</ele><time>2026-04-19T07:26:08.523Z</time></trkpt><trkpt lat="39.1528484" lon="16.9034474"><ele>141.79999999999998</ele><time>2026-04-19T07:26:09.522Z</time></trkpt><trkpt lat="39.1528261" lon="16.9035572"><ele>141.6</ele><time>2026-04-19T07:26:10.522Z</time></trkpt><trkpt lat="39.1527735" lon="16.9036617"><ele>141.39999999999998</ele><time>2026-04-19T07:26:11.522Z</time></trkpt><trkpt lat="39.1527033" lon="16.9037679"><ele>141.2</ele><time>2026-04-19T07:26:12.522Z</time></trkpt><trkpt lat="39.1526121" lon="16.9038711"><ele>141.0</ele><time>2026-04-19T07:26:13.522Z</time></trkpt><trkpt lat="39.1525268" lon="16.9039498"><ele>141.0</ele><time>2026-04-19T07:26:14.522Z</time></trkpt><trkpt lat="39.1524268" lon="16.9040084"><ele>141.0</ele><time>2026-04-19T07:26:15.522Z</time></trkpt><trkpt lat="39.1523211" lon="16.9040306"><ele>141.0</ele><time>2026-04-19T07:26:16.522Z</time></trkpt><trkpt lat="39.1522091" lon="16.9040265"><ele>141.0</ele><time>2026-04-19T07:26:17.523Z</time></trkpt><trkpt lat="39.1520992" lon="16.904005"><ele>141.0</ele><time>2026-04-19T07:26:18.522Z</time></trkpt><trkpt lat="39.1519826" lon="16.9039504"><ele>141.5</ele><time>2026-04-19T07:26:19.523Z</time></trkpt><trkpt lat="39.1518708" lon="16.9038869"><ele>142.0</ele><time>2026-04-19T07:26:20.522Z</time></trkpt><trkpt lat="39.1517676" lon="16.9038078"><ele>142.5</ele><time>2026-04-19T07:26:21.522Z</time></trkpt><trkpt lat="39.1516707" lon="16.9037104"><ele>143.0</ele><time>2026-04-19T07:26:22.522Z</time></trkpt><trkpt lat="39.151581" lon="16.9035946"><ele>144.0</ele><time>2026-04-19T07:26:23.523Z</time></trkpt><trkpt lat="39.1514903" lon="16.903473"><ele>145.0</ele><time>2026-04-19T07:26:24.523Z</time></trkpt><trkpt lat="39.1513836" lon="16.9033887"><ele>146.0</ele><time>2026-04-19T07:26:25.522Z</time></trkpt><trkpt lat="39.1512639" lon="16.9033359"><ele>147.0</ele><time>2026-04-19T07:26:26.522Z</time></trkpt><trkpt lat="39.1511421" lon="16.9033095"><ele>148.0</ele><time>2026-04-19T07:26:27.523Z</time></trkpt><trkpt lat="39.1510051" lon="16.9033124"><ele>149.0</ele><time>2026-04-19T07:26:28.523Z</time></trkpt><trkpt lat="39.150858" lon="16.9033275"><ele>150.0</ele><time>2026-04-19T07:26:29.522Z</time></trkpt><trkpt lat="39.1507075" lon="16.9033478"><ele>151.0</ele><time>2026-04-19T07:26:30.522Z</time></trkpt><trkpt lat="39.1505635" lon="16.9033729"><ele>152.25</ele><time>2026-04-19T07:26:31.522Z</time></trkpt><trkpt lat="39.1504263" lon="16.903409"><ele>153.5</ele><time>2026-04-19T07:26:32.522Z</time></trkpt><trkpt lat="39.1503061" lon="16.9034679"><ele>154.75</ele><time>2026-04-19T07:26:33.523Z</time></trkpt><trkpt lat="39.1502134" lon="16.9035448"><ele>156.0</ele><time>2026-04-19T07:26:34.523Z</time></trkpt><trkpt lat="39.1501467" lon="16.9036415"><ele>156.0</ele><time>2026-04-19T07:26:35.522Z</time></trkpt><trkpt lat="39.1501065" lon="16.9037684"><ele>156.0</ele><time>2026-04-19T07:26:36.522Z</time></trkpt><trkpt lat="39.1500952" lon="16.9039009"><ele>156.0</ele><time>2026-04-19T07:26:37.521Z</time></trkpt><trkpt lat="39.1501218" lon="16.9040307"><ele>156.0</ele><time>2026-04-19T07:26:38.521Z</time></trkpt><trkpt lat="39.150188" lon="16.9041443"><ele>156.0</ele><time>2026-04-19T07:26:39.522Z</time></trkpt><trkpt lat="39.150254" lon="16.9042396"><ele>158.0</ele><time>2026-04-19T07:26:40.521Z</time></trkpt><trkpt lat="39.1503617" lon="16.9043182"><ele>160.0</ele><time>2026-04-19T07:26:41.521Z</time></trkpt><trkpt lat="39.1505015" lon="16.9043985"><ele>162.0</ele><time>2026-04-19T07:26:42.521Z</time></trkpt><trkpt lat="39.1506033" lon="16.9044967"><ele>164.0</ele><time>2026-04-19T07:26:43.521Z</time></trkpt><trkpt lat="39.150691" lon="16.9046213"><ele>161.75</ele><time>2026-04-19T07:26:44.521Z</time></trkpt><trkpt lat="39.1507582" lon="16.9047691"><ele>159.5</ele><time>2026-04-19T07:26:45.521Z</time></trkpt><trkpt lat="39.1507999" lon="16.904932"><ele>157.25</ele><time>2026-04-19T07:26:46.521Z</time></trkpt><trkpt lat="39.1508134" lon="16.9050954"><ele>155.0</ele><time>2026-04-19T07:26:47.521Z</time></trkpt><trkpt lat="39.1508127" lon="16.9052496"><ele>155.0</ele><time>2026-04-19T07:26:48.521Z</time></trkpt><trkpt lat="39.1507953" lon="16.9054028"><ele>155.0</ele><time>2026-04-19T07:26:49.522Z</time></trkpt><trkpt lat="39.150761" lon="16.9055447"><ele>155.0</ele><time>2026-04-19T07:26:50.521Z</time></trkpt><trkpt lat="39.150709" lon="16.9056726"><ele>155.0</ele><time>2026-04-19T07:26:51.522Z</time></trkpt><trkpt lat="39.15064" lon="16.905789"><ele>158.0</ele><time>2026-04-19T07:26:52.521Z</time></trkpt><trkpt lat="39.1505707" lon="16.9059015"><ele>161.0</ele><time>2026-04-19T07:26:53.521Z</time></trkpt><trkpt lat="39.1504859" lon="16.9059999"><ele>164.0</ele><time>2026-04-19T07:26:54.521Z</time></trkpt><trkpt lat="39.150388" lon="16.9060905"><ele>167.0</ele><time>2026-04-19T07:26:55.522Z</time></trkpt><trkpt lat="39.1502891" lon="16.9061803"><ele>167.39999999999998</ele><time>2026-04-19T07:26:56.521Z</time></trkpt><trkpt lat="39.1501932" lon="16.9062722"><ele>167.79999999999998</ele><time>2026-04-19T07:26:57.522Z</time></trkpt><trkpt lat="39.1501014" lon="16.9063678"><ele>168.2</ele><time>2026-04-19T07:26:58.521Z</time></trkpt><trkpt lat="39.1500159" lon="16.9064634"><ele>168.6</ele><time>2026-04-19T07:26:59.521Z</time></trkpt><trkpt lat="39.1499583" lon="16.9065533"><ele>169.0</ele><time>2026-04-19T07:27:00.521Z</time></trkpt><trkpt lat="39.1499233" lon="16.90667"><ele>171.79999999999998</ele><time>2026-04-19T07:27:01.522Z</time></trkpt><trkpt lat="39.149935" lon="16.9067833"><ele>174.6</ele><time>2026-04-19T07:27:02.521Z</time></trkpt><trkpt lat="39.14997" lon="16.906875"><ele>177.4</ele><time>2026-04-19T07:27:03.521Z</time></trkpt><trkpt lat="39.1500467" lon="16.9069333"><ele>180.2</ele><time>2026-04-19T07:27:04.521Z</time></trkpt><trkpt lat="39.1501567" lon="16.9069567"><ele>183.0</ele><time>2026-04-19T07:27:05.521Z</time></trkpt><trkpt lat="39.1502783" lon="16.90696"><ele>183.0</ele><time>2026-04-19T07:27:06.521Z</time></trkpt><trkpt lat="39.1504083" lon="16.9069567"><ele>183.0</ele><time>2026-04-19T07:27:07.522Z</time></trkpt><trkpt lat="39.1505267" lon="16.9069717"><ele>183.0</ele><time>2026-04-19T07:27:08.521Z</time></trkpt><trkpt lat="39.1506267" lon="16.907"><ele>183.0</ele><time>2026-04-19T07:27:09.521Z</time></trkpt><trkpt lat="39.150715" lon="16.9070633"><ele>181.5</ele><time>2026-04-19T07:27:10.522Z</time></trkpt><trkpt lat="39.1508033" lon="16.9071583"><ele>180.0</ele><time>2026-04-19T07:27:11.521Z</time></trkpt><trkpt lat="39.1508733" lon="16.9072833"><ele>178.5</ele><time>2026-04-19T07:27:12.521Z</time></trkpt><trkpt lat="39.1509383" lon="16.90743"><ele>177.0</ele><time>2026-04-19T07:27:13.521Z</time></trkpt><trkpt lat="39.1510083" lon="16.9075567"><ele>181.0</ele><time>2026-04-19T07:27:14.522Z</time></trkpt><trkpt lat="39.1510883" lon="16.90767"><ele>185.0</ele><time>2026-04-19T07:27:15.521Z</time></trkpt><trkpt lat="39.1511917" lon="16.9077467"><ele>189.0</ele><time>2026-04-19T07:27:16.521Z</time></trkpt><trkpt lat="39.1513117" lon="16.9078383"><ele>193.0</ele><time>2026-04-19T07:27:17.521Z</time></trkpt><trkpt lat="39.1514383" lon="16.9078933"><ele>191.0</ele><time>2026-04-19T07:27:18.521Z</time></trkpt><trkpt lat="39.15158" lon="16.9078883"><ele>189.0</ele><time>2026-04-19T07:27:19.521Z</time></trkpt><trkpt lat="39.151715" lon="16.9078633"><ele>187.0</ele><time>2026-04-19T07:27:20.522Z</time></trkpt><trkpt lat="39.1518483" lon="16.9078433"><ele>185.0</ele><time>2026-04-19T07:27:21.521Z</time></trkpt><trkpt lat="39.151975" lon="16.907815"><ele>185.0</ele><time>2026-04-19T07:27:22.522Z</time></trkpt><trkpt lat="39.15209" lon="16.9077967"><ele>185.0</ele><time>2026-04-19T07:27:23.521Z</time></trkpt><trkpt lat="39.152195" lon="16.9077833"><ele>185.0</ele><time>2026-04-19T07:27:24.521Z</time></trkpt><trkpt lat="39.152295" lon="16.9078017"><ele>185.0</ele><time>2026-04-19T07:27:25.521Z</time></trkpt><trkpt lat="39.1523867" lon="16.907845"><ele>185.0</ele><time>2026-04-19T07:27:26.522Z</time></trkpt><trkpt lat="39.1524617" lon="16.9079317"><ele>184.25</ele><time>2026-04-19T07:27:27.522Z</time></trkpt><trkpt lat="39.1525133" lon="16.9080633"><ele>183.5</ele><time>2026-04-19T07:27:28.521Z</time></trkpt><trkpt lat="39.1525267" lon="16.908215"><ele>182.75</ele><time>2026-04-19T07:27:29.521Z</time></trkpt><trkpt lat="39.1524967" lon="16.9083733"><ele>182.0</ele><time>2026-04-19T07:27:30.521Z</time></trkpt><trkpt lat="39.1524417" lon="16.908515"><ele>185.75</ele><time>2026-04-19T07:27:31.521Z</time></trkpt><trkpt lat="39.1523533" lon="16.9086217"><ele>189.5</ele><time>2026-04-19T07:27:32.521Z</time></trkpt><trkpt lat="39.152235" lon="16.908685"><ele>193.25</ele><time>2026-04-19T07:27:33.521Z</time></trkpt><trkpt lat="39.15209" lon="16.9087267"><ele>197.0</ele><time>2026-04-19T07:27:34.521Z</time></trkpt><trkpt lat="39.1519483" lon="16.908745"><ele>197.0</ele><time>2026-04-19T07:27:35.521Z</time></trkpt><trkpt lat="39.151805" lon="16.9087533"><ele>197.0</ele><time>2026-04-19T07:27:36.521Z</time></trkpt><trkpt lat="39.151655" lon="16.9087417"><ele>197.0</ele><time>2026-04-19T07:27:37.521Z</time></trkpt><trkpt lat="39.1515" lon="16.9086867"><ele>196.0</ele><time>2026-04-19T07:27:38.521Z</time></trkpt><trkpt lat="39.1513667" lon="16.9086183"><ele>195.0</ele><time>2026-04-19T07:27:39.521Z</time></trkpt><trkpt lat="39.1512517" lon="16.9085283"><ele>194.0</ele><time>2026-04-19T07:27:40.521Z</time></trkpt><trkpt lat="39.1511483" lon="16.908435"><ele>193.0</ele><time>2026-04-19T07:27:41.521Z</time></trkpt><trkpt lat="39.1510483" lon="16.9083333"><ele>193.0</ele><time>2026-04-19T07:27:42.522Z</time></trkpt><trkpt lat="39.15095" lon="16.9082367"><ele>193.0</ele><time>2026-04-19T07:27:43.521Z</time></trkpt><trkpt lat="39.1508567" lon="16.9081317"><ele>193.0</ele><time>2026-04-19T07:27:44.521Z</time></trkpt><trkpt lat="39.1507467" lon="16.90805"><ele>193.0</ele><time>2026-04-19T07:27:45.521Z</time></trkpt><trkpt lat="39.1506233" lon="16.9080067"><ele>193.5</ele><time>2026-04-19T07:27:46.522Z</time></trkpt><trkpt lat="39.15049" lon="16.9080033"><ele>194.0</ele><time>2026-04-19T07:27:47.521Z</time></trkpt><trkpt lat="39.1503383" lon="16.9080317"><ele>194.5</ele><time>2026-04-19T07:27:48.522Z</time></trkpt><trkpt lat="39.15021" lon="16.9080767"><ele>195.0</ele><time>2026-04-19T07:27:49.521Z</time></trkpt><trkpt lat="39.15009" lon="16.908145"><ele>195.0</ele><time>2026-04-19T07:27:50.522Z</time></trkpt><trkpt lat="39.1499733" lon="16.9082083"><ele>195.0</ele><time>2026-04-19T07:27:51.521Z</time></trkpt><trkpt lat="39.1498867" lon="16.9083017"><ele>195.0</ele><time>2026-04-19T07:27:52.521Z</time></trkpt><trkpt lat="39.1498217" lon="16.908405"><ele>195.0</ele><time>2026-04-19T07:27:53.521Z</time></trkpt><trkpt lat="39.149785" lon="16.90852"><ele>195.0</ele><time>2026-04-19T07:27:54.521Z</time></trkpt><trkpt lat="39.149785" lon="16.9086533"><ele>198.4</ele><time>2026-04-19T07:27:55.522Z</time></trkpt><trkpt lat="39.149815" lon="16.9087967"><ele>201.8</ele><time>2026-04-19T07:27:56.521Z</time></trkpt><trkpt lat="39.1498783" lon="16.908925"><ele>205.2</ele><time>2026-04-19T07:27:57.521Z</time></trkpt><trkpt lat="39.1499517" lon="16.90902"><ele>208.6</ele><time>2026-04-19T07:27:58.521Z</time></trkpt><trkpt lat="39.1500567" lon="16.9090683"><ele>212.0</ele><time>2026-04-19T07:27:59.521Z</time></trkpt><trkpt lat="39.1501883" lon="16.909055"><ele>212.0</ele><time>2026-04-19T07:28:00.521Z</time></trkpt><trkpt lat="39.1503283" lon="16.9089983"><ele>212.0</ele><time>2026-04-19T07:28:01.521Z</time></trkpt><trkpt lat="39.1504633" lon="16.90894"><ele>212.0</ele><time>2026-04-19T07:28:02.521Z</time></trkpt><trkpt lat="39.1505917" lon="16.908875"><ele>212.0</ele><time>2026-04-19T07:28:03.521Z</time></trkpt><trkpt lat="39.15071" lon="16.9088167"><ele>212.0</ele><time>2026-04-19T07:28:04.521Z</time></trkpt><trkpt lat="39.15083" lon="16.9087817"><ele>212.0</ele><time>2026-04-19T07:28:05.521Z</time></trkpt><trkpt lat="39.1509517" lon="16.908795"><ele>212.0</ele><time>2026-04-19T07:28:06.521Z</time></trkpt><trkpt lat="39.1510583" lon="16.908855"><ele>212.0</ele><time>2026-04-19T07:28:07.521Z</time></trkpt><trkpt lat="39.1511633" lon="16.9089533"><ele>212.0</ele><time>2026-04-19T07:28:08.521Z</time></trkpt><trkpt lat="39.1512417" lon="16.9090717"><ele>212.0</ele><time>2026-04-19T07:28:09.522Z</time></trkpt><trkpt lat="39.1513233" lon="16.90922"><ele>212.0</ele><time>2026-04-19T07:28:10.521Z</time></trkpt><trkpt lat="39.1514117" lon="16.9093733"><ele>212.0</ele><time>2026-04-19T07:28:11.521Z</time></trkpt><trkpt lat="39.1515033" lon="16.9095333"><ele>211.33333333333334</ele><time>2026-04-19T07:28:12.521Z</time></trkpt><trkpt lat="39.1516117" lon="16.9096767"><ele>210.66666666666669</ele><time>2026-04-19T07:28:13.521Z</time></trkpt><trkpt lat="39.1517183" lon="16.9098167"><ele>210.0</ele><time>2026-04-19T07:28:14.521Z</time></trkpt><trkpt lat="39.1518267" lon="16.909985"><ele>209.25</ele><time>2026-04-19T07:28:15.521Z</time></trkpt><trkpt lat="39.151915" lon="16.9101367"><ele>208.5</ele><time>2026-04-19T07:28:16.521Z</time></trkpt><trkpt lat="39.1519917" lon="16.9102567"><ele>207.75</ele><time>2026-04-19T07:28:17.521Z</time></trkpt><trkpt lat="39.1520633" lon="16.9103633"><ele>207.0</ele><time>2026-04-19T07:28:18.521Z</time></trkpt><trkpt lat="39.15212" lon="16.91045"><ele>207.0</ele><time>2026-04-19T07:28:19.521Z</time></trkpt><trkpt lat="39.1521517" lon="16.9105433"><ele>207.0</ele><time>2026-04-19T07:28:20.521Z</time></trkpt><trkpt lat="39.152145" lon="16.910655"><ele>207.0</ele><time>2026-04-19T07:28:21.521Z</time></trkpt><trkpt lat="39.152115" lon="16.9107617"><ele>207.0</ele><time>2026-04-19T07:28:22.521Z</time></trkpt><trkpt lat="39.1520467" lon="16.9108517"><ele>207.0</ele><time>2026-04-19T07:28:23.521Z</time></trkpt><trkpt lat="39.1519567" lon="16.9109183"><ele>207.0</ele><time>2026-04-19T07:28:24.522Z</time></trkpt><trkpt lat="39.1518433" lon="16.9109467"><ele>207.0</ele><time>2026-04-19T07:28:25.521Z</time></trkpt><trkpt lat="39.15172" lon="16.91095"><ele>207.0</ele><time>2026-04-19T07:28:26.522Z</time></trkpt><trkpt lat="39.151595" lon="16.9109167"><ele>207.0</ele><time>2026-04-19T07:28:27.521Z</time></trkpt><trkpt lat="39.1514633" lon="16.9108533"><ele>207.0</ele><time>2026-04-19T07:28:28.521Z</time></trkpt><trkpt lat="39.1513383" lon="16.910755"><ele>207.0</ele><time>2026-04-19T07:28:29.521Z</time></trkpt><trkpt lat="39.1512067" lon="16.91066"><ele>207.0</ele><time>2026-04-19T07:28:30.521Z</time></trkpt><trkpt lat="39.1510917" lon="16.910555"><ele>207.0</ele><time>2026-04-19T07:28:31.521Z</time></trkpt><trkpt lat="39.1509583" lon="16.9104967"><ele>207.0</ele><time>2026-04-19T07:28:32.521Z</time></trkpt><trkpt lat="39.15082" lon="16.9104783"><ele>207.0</ele><time>2026-04-19T07:28:33.521Z</time></trkpt><trkpt lat="39.1506767" lon="16.91048"><ele>207.0</ele><time>2026-04-19T07:28:34.522Z</time></trkpt><trkpt lat="39.15053" lon="16.91048"><ele>207.0</ele><time>2026-04-19T07:28:35.521Z</time></trkpt><trkpt lat="39.1503983" lon="16.9104717"><ele>206.5</ele><time>2026-04-19T07:28:36.521Z</time></trkpt><trkpt lat="39.15027" lon="16.9104683"><ele>206.0</ele><time>2026-04-19T07:28:37.521Z</time></trkpt><trkpt lat="39.1501483" lon="16.9104417"><ele>205.5</ele><time>2026-04-19T07:28:38.521Z</time></trkpt><trkpt lat="39.150035" lon="16.9104033"><ele>205.0</ele><time>2026-04-19T07:28:39.521Z</time></trkpt><trkpt lat="39.1499417" lon="16.9103233"><ele>204.5</ele><time>2026-04-19T07:28:40.521Z</time></trkpt><trkpt lat="39.149845" lon="16.910225"><ele>204.0</ele><time>2026-04-19T07:28:41.521Z</time></trkpt><trkpt lat="39.1497417" lon="16.9101417"><ele>203.5</ele><time>2026-04-19T07:28:42.522Z</time></trkpt><trkpt lat="39.149635" lon="16.9100617"><ele>203.0</ele><time>2026-04-19T07:28:43.521Z</time></trkpt><trkpt lat="39.1495367" lon="16.9099817"><ele>204.83333333333334</ele><time>2026-04-19T07:28:44.521Z</time></trkpt><trkpt lat="39.1494483" lon="16.9099133"><ele>206.66666666666669</ele><time>2026-04-19T07:28:45.521Z</time></trkpt><trkpt lat="39.1493817" lon="16.9098467"><ele>208.5</ele><time>2026-04-19T07:28:46.522Z</time></trkpt><trkpt lat="39.1493133" lon="16.9097867"><ele>210.33333333333331</ele><time>2026-04-19T07:28:47.521Z</time></trkpt><trkpt lat="39.1492467" lon="16.9097317"><ele>212.16666666666666</ele><time>2026-04-19T07:28:48.521Z</time></trkpt><trkpt lat="39.1491783" lon="16.909675"><ele>214.0</ele><time>2026-04-19T07:28:49.521Z</time></trkpt><trkpt lat="39.1491" lon="16.9096383"><ele>215.6</ele><time>2026-04-19T07:28:50.522Z</time></trkpt><trkpt lat="39.1490167" lon="16.9096267"><ele>217.2</ele><time>2026-04-19T07:28:51.522Z</time></trkpt><trkpt lat="39.148915" lon="16.909655"><ele>218.79999999999998</ele><time>2026-04-19T07:28:52.521Z</time></trkpt><trkpt lat="39.14881" lon="16.9097017"><ele>220.39999999999998</ele><time>2026-04-19T07:28:53.522Z</time></trkpt><trkpt lat="39.1487167" lon="16.909755"><ele>222.0</ele><time>2026-04-19T07:28:54.522Z</time></trkpt><trkpt lat="39.1486267" lon="16.9098"><ele>222.0</ele><time>2026-04-19T07:28:55.521Z</time></trkpt><trkpt lat="39.1485383" lon="16.9098283"><ele>222.0</ele><time>2026-04-19T07:28:56.521Z</time></trkpt><trkpt lat="39.148445" lon="16.9098333"><ele>222.0</ele><time>2026-04-19T07:28:57.522Z</time></trkpt><trkpt lat="39.1483517" lon="16.9098217"><ele>222.0</ele><time>2026-04-19T07:28:58.521Z</time></trkpt><trkpt lat="39.14826" lon="16.9097967"><ele>222.0</ele><time>2026-04-19T07:28:59.522Z</time></trkpt><trkpt lat="39.1481767" lon="16.9097433"><ele>223.39999999999998</ele><time>2026-04-19T07:29:00.521Z</time></trkpt><trkpt lat="39.1481017" lon="16.9096583"><ele>224.79999999999998</ele><time>2026-04-19T07:29:01.522Z</time></trkpt><trkpt lat="39.1480283" lon="16.909565"><ele>226.2</ele><time>2026-04-19T07:29:02.521Z</time></trkpt><trkpt lat="39.14795" lon="16.9094683"><ele>227.6</ele><time>2026-04-19T07:29:03.521Z</time></trkpt><trkpt lat="39.1478983" lon="16.9093417"><ele>229.0</ele><time>2026-04-19T07:29:04.521Z</time></trkpt><trkpt lat="39.147845" lon="16.9092133"><ele>229.0</ele><time>2026-04-19T07:29:05.521Z</time></trkpt><trkpt lat="39.1477767" lon="16.9090867"><ele>228.99999999999997</ele><time>2026-04-19T07:29:06.522Z</time></trkpt><trkpt lat="39.147705" lon="16.9089767"><ele>228.99999999999997</ele><time>2026-04-19T07:29:07.521Z</time></trkpt><trkpt lat="39.1476283" lon="16.9088833"><ele>229.0</ele><time>2026-04-19T07:29:08.521Z</time></trkpt><trkpt lat="39.147545" lon="16.908825"><ele>229.0</ele><time>2026-04-19T07:29:09.522Z</time></trkpt><trkpt lat="39.1474533" lon="16.9088083"><ele>232.2</ele><time>2026-04-19T07:29:10.522Z</time></trkpt><trkpt lat="39.1473617" lon="16.9088433"><ele>235.39999999999998</ele><time>2026-04-19T07:29:11.522Z</time></trkpt><trkpt lat="39.1472917" lon="16.9089133"><ele>238.6</ele><time>2026-04-19T07:29:12.521Z</time></trkpt><trkpt lat="39.14724" lon="16.9090083"><ele>241.8</ele><time>2026-04-19T07:29:13.521Z</time></trkpt><trkpt lat="39.1471933" lon="16.909165"><ele>245.0</ele><time>2026-04-19T07:29:14.521Z</time></trkpt><trkpt lat="39.1471567" lon="16.9093217"><ele>245.75</ele><time>2026-04-19T07:29:15.522Z</time></trkpt><trkpt lat="39.1471367" lon="16.9094917"><ele>246.5</ele><time>2026-04-19T07:29:16.521Z</time></trkpt><trkpt lat="39.1471283" lon="16.909645"><ele>247.25</ele><time>2026-04-19T07:29:17.521Z</time></trkpt><trkpt lat="39.1471233" lon="16.909785"><ele>248.0</ele><time>2026-04-19T07:29:18.521Z</time></trkpt><trkpt lat="39.14713" lon="16.9099167"><ele>248.0</ele><time>2026-04-19T07:29:19.522Z</time></trkpt><trkpt lat="39.1471333" lon="16.9100483"><ele>248.0</ele><time>2026-04-19T07:29:20.521Z</time></trkpt><trkpt lat="39.1471317" lon="16.9101817"><ele>248.0</ele><time>2026-04-19T07:29:21.522Z</time></trkpt><trkpt lat="39.1471217" lon="16.9103133"><ele>248.0</ele><time>2026-04-19T07:29:22.521Z</time></trkpt><trkpt lat="39.147095" lon="16.91045"><ele>248.0</ele><time>2026-04-19T07:29:23.521Z</time></trkpt><trkpt lat="39.1470383" lon="16.9105733"><ele>247.0</ele><time>2026-04-19T07:29:24.521Z</time></trkpt><trkpt lat="39.1469567" lon="16.910695"><ele>246.0</ele><time>2026-04-19T07:29:25.521Z</time></trkpt><trkpt lat="39.1468917" lon="16.910825"><ele>245.0</ele><time>2026-04-19T07:29:26.521Z</time></trkpt><trkpt lat="39.1468217" lon="16.9109517"><ele>244.0</ele><time>2026-04-19T07:29:27.521Z</time></trkpt><trkpt lat="39.146755" lon="16.9110817"><ele>244.0</ele><time>2026-04-19T07:29:28.521Z</time></trkpt><trkpt lat="39.146675" lon="16.911185"><ele>243.99999999999997</ele><time>2026-04-19T07:29:29.521Z</time></trkpt><trkpt lat="39.1465783" lon="16.9112483"><ele>243.99999999999997</ele><time>2026-04-19T07:29:30.521Z</time></trkpt><trkpt lat="39.146475" lon="16.9112817"><ele>244.0</ele><time>2026-04-19T07:29:31.521Z</time></trkpt><trkpt lat="39.1463817" lon="16.9112867"><ele>244.0</ele><time>2026-04-19T07:29:32.521Z</time></trkpt><trkpt lat="39.146295" lon="16.9112767"><ele>242.66666666666666</ele><time>2026-04-19T07:29:33.521Z</time></trkpt><trkpt lat="39.1462267" lon="16.9112733"><ele>241.33333333333331</ele><time>2026-04-19T07:29:34.521Z</time></trkpt><trkpt lat="39.1461433" lon="16.91132"><ele>240.0</ele><time>2026-04-19T07:29:36.521Z</time></trkpt><trkpt lat="39.146135" lon="16.91143"><ele>238.66666666666669</ele><time>2026-04-19T07:29:38.521Z</time></trkpt><trkpt lat="39.1461583" lon="16.911515"><ele>237.33333333333334</ele><time>2026-04-19T07:29:39.522Z</time></trkpt><trkpt lat="39.1461883" lon="16.911615"><ele>236.0</ele><time>2026-04-19T07:29:40.521Z</time></trkpt><trkpt lat="39.1462383" lon="16.911695"><ele>236.00000000000003</ele><time>2026-04-19T07:29:41.521Z</time></trkpt><trkpt lat="39.146295" lon="16.9117483"><ele>236.0</ele><time>2026-04-19T07:29:42.521Z</time></trkpt><trkpt lat="39.1463617" lon="16.9117783"><ele>236.0</ele><time>2026-04-19T07:29:43.521Z</time></trkpt><trkpt lat="39.1464483" lon="16.9117583"><ele>236.0</ele><time>2026-04-19T07:29:44.521Z</time></trkpt><trkpt lat="39.1465417" lon="16.9117083"><ele>236.00000000000003</ele><time>2026-04-19T07:29:45.521Z</time></trkpt><trkpt lat="39.1466517" lon="16.9116617"><ele>236.0</ele><time>2026-04-19T07:29:46.521Z</time></trkpt><trkpt lat="39.1467517" lon="16.9116467"><ele>237.60000000000002</ele><time>2026-04-19T07:29:47.522Z</time></trkpt><trkpt lat="39.146845" lon="16.9116667"><ele>239.20000000000002</ele><time>2026-04-19T07:29:48.521Z</time></trkpt><trkpt lat="39.1469017" lon="16.9117467"><ele>240.79999999999998</ele><time>2026-04-19T07:29:49.522Z</time></trkpt><trkpt lat="39.1469367" lon="16.9118617"><ele>242.39999999999998</ele><time>2026-04-19T07:29:50.521Z</time></trkpt><trkpt lat="39.1469633" lon="16.91198"><ele>244.0</ele><time>2026-04-19T07:29:51.522Z</time></trkpt><trkpt lat="39.14699" lon="16.9121067"><ele>245.0</ele><time>2026-04-19T07:29:52.522Z</time></trkpt><trkpt lat="39.1470067" lon="16.9122717"><ele>245.99999999999997</ele><time>2026-04-19T07:29:53.521Z</time></trkpt><trkpt lat="39.14701" lon="16.91242"><ele>246.99999999999997</ele><time>2026-04-19T07:29:54.521Z</time></trkpt><trkpt lat="39.14702" lon="16.9125467"><ele>248.0</ele><time>2026-04-19T07:29:55.521Z</time></trkpt><trkpt lat="39.1470317" lon="16.9126283"><ele>249.0</ele><time>2026-04-19T07:29:56.521Z</time></trkpt><trkpt lat="39.1470967" lon="16.9126733"><ele>249.0</ele><time>2026-04-19T07:29:58.522Z</time></trkpt><trkpt lat="39.147145" lon="16.9125217"><ele>248.99999999999997</ele><time>2026-04-19T07:30:00.521Z</time></trkpt><trkpt lat="39.14714" lon="16.91239"><ele>248.99999999999997</ele><time>2026-04-19T07:30:01.521Z</time></trkpt><trkpt lat="39.1471367" lon="16.9122683"><ele>249.0</ele><time>2026-04-19T07:30:02.521Z</time></trkpt><trkpt lat="39.147175" lon="16.91215"><ele>249.0</ele><time>2026-04-19T07:30:04.521Z</time></trkpt><trkpt lat="39.1472317" lon="16.91227"><ele>249.0</ele><time>2026-04-19T07:30:07.521Z</time></trkpt><trkpt lat="39.1472433" lon="16.9123933"><ele>249.0</ele><time>2026-04-19T07:30:08.521Z</time></trkpt><trkpt lat="39.1472583" lon="16.9125517"><ele>249.0</ele><time>2026-04-19T07:30:09.521Z</time></trkpt><trkpt lat="39.1472617" lon="16.9127117"><ele>249.0</ele><time>2026-04-19T07:30:10.522Z</time></trkpt><trkpt lat="39.1472633" lon="16.9128733"><ele>252.6</ele><time>2026-04-19T07:30:11.521Z</time></trkpt><trkpt lat="39.1472767" lon="16.91303"><ele>256.2</ele><time>2026-04-19T07:30:12.521Z</time></trkpt><trkpt lat="39.1472933" lon="16.913175"><ele>259.79999999999995</ele><time>2026-04-19T07:30:13.521Z</time></trkpt><trkpt lat="39.147315" lon="16.9133033"><ele>263.4</ele><time>2026-04-19T07:30:14.521Z</time></trkpt><trkpt lat="39.1473283" lon="16.9134033"><ele>267.0</ele><time>2026-04-19T07:30:15.521Z</time></trkpt><trkpt lat="39.147335" lon="16.9134917"><ele>267.0</ele><time>2026-04-19T07:30:16.522Z</time></trkpt><trkpt lat="39.1473183" lon="16.9135883"><ele>267.0</ele><time>2026-04-19T07:30:18.522Z</time></trkpt><trkpt lat="39.1472717" lon="16.9134367"><ele>267.0</ele><time>2026-04-19T07:30:20.521Z</time></trkpt><trkpt lat="39.14724" lon="16.9133117"><ele>267.0</ele><time>2026-04-19T07:30:21.522Z</time></trkpt><trkpt lat="39.1472067" lon="16.9131883"><ele>267.0</ele><time>2026-04-19T07:30:22.521Z</time></trkpt><trkpt lat="39.1471733" lon="16.9130983"><ele>267.0</ele><time>2026-04-19T07:30:23.521Z</time></trkpt><trkpt lat="39.1470767" lon="16.9130033"><ele>267.0</ele><time>2026-04-19T07:30:25.521Z</time></trkpt><trkpt lat="39.1469783" lon="16.9130383"><ele>267.0</ele><time>2026-04-19T07:30:27.521Z</time></trkpt><trkpt lat="39.1469417" lon="16.913115"><ele>267.0</ele><time>2026-04-19T07:30:28.521Z</time></trkpt><trkpt lat="39.146915" lon="16.91324"><ele>267.0</ele><time>2026-04-19T07:30:29.521Z</time></trkpt><trkpt lat="39.1468883" lon="16.9133767"><ele>277.0</ele><time>2026-04-19T07:30:30.521Z</time></trkpt><trkpt lat="39.1468567" lon="16.9135217"><ele>287.0</ele><time>2026-04-19T07:30:31.521Z</time></trkpt><trkpt lat="39.1468" lon="16.9136417"><ele>297.0</ele><time>2026-04-19T07:30:32.521Z</time></trkpt><trkpt lat="39.14671" lon="16.9137333"><ele>307.0</ele><time>2026-04-19T07:30:33.522Z</time></trkpt><trkpt lat="39.1465933" lon="16.9137967"><ele>306.66666666666663</ele><time>2026-04-19T07:30:34.521Z</time></trkpt><trkpt lat="39.146445" lon="16.91381"><ele>306.3333333333333</ele><time>2026-04-19T07:30:35.521Z</time></trkpt><trkpt lat="39.1462983" lon="16.9138367"><ele>306.0</ele><time>2026-04-19T07:30:36.522Z</time></trkpt><trkpt lat="39.1461367" lon="16.913865"><ele>306.0</ele><time>2026-04-19T07:30:37.521Z</time></trkpt><trkpt lat="39.145975" lon="16.9138583"><ele>306.0</ele><time>2026-04-19T07:30:38.521Z</time></trkpt><trkpt lat="39.1458133" lon="16.9138333"><ele>306.0</ele><time>2026-04-19T07:30:39.521Z</time></trkpt><trkpt lat="39.1456617" lon="16.9138317"><ele>298.0</ele><time>2026-04-19T07:30:40.521Z</time></trkpt><trkpt lat="39.1455317" lon="16.913815"><ele>290.0</ele><time>2026-04-19T07:30:41.521Z</time></trkpt><trkpt lat="39.1454183" lon="16.91381"><ele>282.0</ele><time>2026-04-19T07:30:42.522Z</time></trkpt><trkpt lat="39.1453283" lon="16.9138133"><ele>274.0</ele><time>2026-04-19T07:30:43.521Z</time></trkpt><trkpt lat="39.14525" lon="16.9138617"><ele>266.0</ele><time>2026-04-19T07:30:44.521Z</time></trkpt><trkpt lat="39.14519" lon="16.9139283"><ele>266.0</ele><time>2026-04-19T07:30:45.521Z</time></trkpt><trkpt lat="39.1451433" lon="16.9140067"><ele>266.0</ele><time>2026-04-19T07:30:46.521Z</time></trkpt><trkpt lat="39.145125" lon="16.91412"><ele>266.0</ele><time>2026-04-19T07:30:47.521Z</time></trkpt><trkpt lat="39.1451083" lon="16.9142317"><ele>266.0</ele><time>2026-04-19T07:30:48.521Z</time></trkpt><trkpt lat="39.14514" lon="16.9143583"><ele>266.0</ele><time>2026-04-19T07:30:49.521Z</time></trkpt><trkpt lat="39.1452117" lon="16.9145083"><ele>260.33333333333337</ele><time>2026-04-19T07:30:50.521Z</time></trkpt><trkpt lat="39.1453833" lon="16.9146833"><ele>254.66666666666669</ele><time>2026-04-19T07:30:51.521Z</time></trkpt><trkpt lat="39.1455617" lon="16.9148333"><ele>249.0</ele><time>2026-04-19T07:30:52.521Z</time></trkpt><trkpt lat="39.14573" lon="16.9149367"><ele>248.75</ele><time>2026-04-19T07:30:53.521Z</time></trkpt><trkpt lat="39.1458617" lon="16.9150217"><ele>248.5</ele><time>2026-04-19T07:30:54.521Z</time></trkpt><trkpt lat="39.145975" lon="16.91509"><ele>248.25</ele><time>2026-04-19T07:30:55.521Z</time></trkpt><trkpt lat="39.1460767" lon="16.9151517"><ele>248.0</ele><time>2026-04-19T07:30:56.521Z</time></trkpt><trkpt lat="39.1461783" lon="16.9152083"><ele>248.0</ele><time>2026-04-19T07:30:57.521Z</time></trkpt><trkpt lat="39.14628" lon="16.9152617"><ele>248.0</ele><time>2026-04-19T07:30:58.522Z</time></trkpt><trkpt lat="39.1463833" lon="16.9153"><ele>248.0</ele><time>2026-04-19T07:30:59.522Z</time></trkpt><trkpt lat="39.1464733" lon="16.9153433"><ele>248.0</ele><time>2026-04-19T07:31:00.521Z</time></trkpt><trkpt lat="39.1465617" lon="16.9153683"><ele>248.0</ele><time>2026-04-19T07:31:01.521Z</time></trkpt><trkpt lat="39.1466517" lon="16.9154083"><ele>255.83333333333334</ele><time>2026-04-19T07:31:02.521Z</time></trkpt><trkpt lat="39.1467383" lon="16.9154333"><ele>263.6666666666667</ele><time>2026-04-19T07:31:03.521Z</time></trkpt><trkpt lat="39.1468233" lon="16.9154517"><ele>271.5</ele><time>2026-04-19T07:31:04.521Z</time></trkpt><trkpt lat="39.1469" lon="16.91547"><ele>279.3333333333333</ele><time>2026-04-19T07:31:05.521Z</time></trkpt><trkpt lat="39.1469667" lon="16.9154833"><ele>287.16666666666663</ele><time>2026-04-19T07:31:06.521Z</time></trkpt><trkpt lat="39.14706" lon="16.91547"><ele>295.0</ele><time>2026-04-19T07:31:08.521Z</time></trkpt><trkpt lat="39.1471283" lon="16.9154683"><ele>295.0</ele><time>2026-04-19T07:31:10.521Z</time></trkpt><trkpt lat="39.14718" lon="16.91552"><ele>295.0</ele><time>2026-04-19T07:31:12.521Z</time></trkpt><trkpt lat="39.1472683" lon="16.9155767"><ele>295.0</ele><time>2026-04-19T07:31:14.522Z</time></trkpt><trkpt lat="39.1473317" lon="16.9156133"><ele>295.0</ele><time>2026-04-19T07:31:15.522Z</time></trkpt><trkpt lat="39.1473933" lon="16.9156583"><ele>295.0</ele><time>2026-04-19T07:31:16.521Z</time></trkpt><trkpt lat="39.1474533" lon="16.9156983"><ele>295.0</ele><time>2026-04-19T07:31:17.521Z</time></trkpt><trkpt lat="39.1475533" lon="16.9157817"><ele>293.2</ele><time>2026-04-19T07:31:19.521Z</time></trkpt><trkpt lat="39.147655" lon="16.91584"><ele>291.4</ele><time>2026-04-19T07:31:21.521Z</time></trkpt><trkpt lat="39.1477633" lon="16.915875"><ele>289.6</ele><time>2026-04-19T07:31:23.521Z</time></trkpt><trkpt lat="39.147865" lon="16.9158933"><ele>287.8</ele><time>2026-04-19T07:31:25.521Z</time></trkpt><trkpt lat="39.1479567" lon="16.9159183"><ele>286.0</ele><time>2026-04-19T07:31:27.521Z</time></trkpt><trkpt lat="39.1480217" lon="16.915885"><ele>290.5</ele><time>2026-04-19T07:31:29.521Z</time></trkpt><trkpt lat="39.1479967" lon="16.915775"><ele>295.0</ele><time>2026-04-19T07:31:32.521Z</time></trkpt><trkpt lat="39.1479267" lon="16.9157083"><ele>299.5</ele><time>2026-04-19T07:31:34.521Z</time></trkpt><trkpt lat="39.1478683" lon="16.9156283"><ele>304.0</ele><time>2026-04-19T07:31:36.521Z</time></trkpt><trkpt lat="39.1478183" lon="16.915535"><ele>308.5</ele><time>2026-04-19T07:31:38.521Z</time></trkpt><trkpt lat="39.1478" lon="16.91544"><ele>313.0</ele><time>2026-04-19T07:31:40.522Z</time></trkpt><trkpt lat="39.147805" lon="16.9153383"><ele>313.0</ele><time>2026-04-19T07:31:42.522Z</time></trkpt><trkpt lat="39.14779" lon="16.9152433"><ele>313.0</ele><time>2026-04-19T07:31:45.521Z</time></trkpt><trkpt lat="39.1478067" lon="16.9151467"><ele>313.0</ele><time>2026-04-19T07:31:50.521Z</time></trkpt><trkpt lat="39.1478867" lon="16.91517"><ele>313.0</ele><time>2026-04-19T07:31:55.521Z</time></trkpt><trkpt lat="39.147885" lon="16.9152617"><ele>313.0</ele><time>2026-04-19T07:31:59.521Z</time></trkpt><trkpt lat="39.1478767" lon="16.915175"><ele>313.0</ele><time>2026-04-19T07:32:40.521Z</time></trkpt><trkpt lat="39.14782" lon="16.9150967"><ele>313.0</ele><time>2026-04-19T07:32:43.521Z</time></trkpt><trkpt lat="39.1477267" lon="16.915075"><ele>313.0</ele><time>2026-04-19T07:32:45.521Z</time></trkpt><trkpt lat="39.14762" lon="16.9150817"><ele>313.0</ele><time>2026-04-19T07:32:47.521Z</time></trkpt><trkpt lat="39.14754" lon="16.9150717"><ele>313.0</ele><time>2026-04-19T07:32:49.521Z</time></trkpt><trkpt lat="39.1474617" lon="16.9150533"><ele>313.0</ele><time>2026-04-19T07:32:52.521Z</time></trkpt><trkpt lat="39.1473917" lon="16.91506"><ele>313.0</ele><time>2026-04-19T07:32:56.521Z</time></trkpt><trkpt lat="39.1472933" lon="16.915045"><ele>313.0</ele><time>2026-04-19T07:32:59.522Z</time></trkpt><trkpt lat="39.1472133" lon="16.9150483"><ele>313.0</ele><time>2026-04-19T07:33:02.521Z</time></trkpt><trkpt lat="39.147235" lon="16.9149417"><ele>313.0</ele><time>2026-04-19T08:10:08.522Z</time></trkpt><trkpt lat="39.1471933" lon="16.91504"><ele>313.0</ele><time>2026-04-19T08:25:47.521Z</time></trkpt><trkpt lat="39.147275" lon="16.9150633"><ele>313.0</ele><time>2026-04-19T08:28:55.52Z</time></trkpt><trkpt lat="39.1473583" lon="16.91509"><ele>313.0</ele><time>2026-04-19T08:28:58.52Z</time></trkpt><trkpt lat="39.1474433" lon="16.9151083"><ele>313.0</ele><time>2026-04-19T08:29:01.52Z</time></trkpt><trkpt lat="39.147515" lon="16.9151"><ele>313.0</ele><time>2026-04-19T08:29:03.521Z</time></trkpt><trkpt lat="39.1476" lon="16.9151017"><ele>313.0</ele><time>2026-04-19T08:29:05.52Z</time></trkpt><trkpt lat="39.14769" lon="16.9151233"><ele>313.0</ele><time>2026-04-19T08:29:07.521Z</time></trkpt><trkpt lat="39.1477567" lon="16.9152117"><ele>313.0</ele><time>2026-04-19T08:29:09.52Z</time></trkpt><trkpt lat="39.1477917" lon="16.915315"><ele>313.0</ele><time>2026-04-19T08:29:11.52Z</time></trkpt><trkpt lat="39.1478167" lon="16.9154467"><ele>313.0</ele><time>2026-04-19T08:29:13.52Z</time></trkpt><trkpt lat="39.1478333" lon="16.9155717"><ele>313.0</ele><time>2026-04-19T08:29:15.52Z</time></trkpt><trkpt lat="39.1478517" lon="16.9156567"><ele>313.0</ele><time>2026-04-19T08:29:17.52Z</time></trkpt><trkpt lat="39.14787" lon="16.9157417"><ele>313.0</ele><time>2026-04-19T08:29:20.52Z</time></trkpt><trkpt lat="39.1479167" lon="16.9158333"><ele>313.0</ele><time>2026-04-19T08:29:24.52Z</time></trkpt><trkpt lat="39.14787" lon="16.9159183"><ele>313.0</ele><time>2026-04-19T08:29:28.52Z</time></trkpt><trkpt lat="39.1478033" lon="16.915915"><ele>313.0</ele><time>2026-04-19T08:29:30.52Z</time></trkpt><trkpt lat="39.1476867" lon="16.9158417"><ele>313.0</ele><time>2026-04-19T08:29:32.52Z</time></trkpt><trkpt lat="39.1476233" lon="16.91581"><ele>313.0</ele><time>2026-04-19T08:29:33.521Z</time></trkpt><trkpt lat="39.1475633" lon="16.9157733"><ele>313.0</ele><time>2026-04-19T08:29:34.52Z</time></trkpt><trkpt lat="39.1475083" lon="16.9157217"><ele>313.0</ele><time>2026-04-19T08:29:35.52Z</time></trkpt><trkpt lat="39.14745" lon="16.9156633"><ele>313.0</ele><time>2026-04-19T08:29:36.52Z</time></trkpt><trkpt lat="39.14739" lon="16.9156083"><ele>310.0</ele><time>2026-04-19T08:29:37.52Z</time></trkpt><trkpt lat="39.1473283" lon="16.915555"><ele>307.0</ele><time>2026-04-19T08:29:38.52Z</time></trkpt><trkpt lat="39.147265" lon="16.9155067"><ele>304.0</ele><time>2026-04-19T08:29:39.521Z</time></trkpt><trkpt lat="39.14719" lon="16.91545"><ele>301.0</ele><time>2026-04-19T08:29:40.52Z</time></trkpt><trkpt lat="39.1471167" lon="16.9154017"><ele>298.0</ele><time>2026-04-19T08:29:41.521Z</time></trkpt><trkpt lat="39.1470433" lon="16.91536"><ele>295.0</ele><time>2026-04-19T08:29:42.52Z</time></trkpt><trkpt lat="39.1469617" lon="16.9153317"><ele>295.0</ele><time>2026-04-19T08:29:43.52Z</time></trkpt><trkpt lat="39.14689" lon="16.9153167"><ele>295.0</ele><time>2026-04-19T08:29:44.52Z</time></trkpt><trkpt lat="39.146805" lon="16.9152983"><ele>295.0</ele><time>2026-04-19T08:29:45.52Z</time></trkpt><trkpt lat="39.146715" lon="16.9152767"><ele>295.0</ele><time>2026-04-19T08:29:46.52Z</time></trkpt><trkpt lat="39.1466267" lon="16.915255"><ele>295.0</ele><time>2026-04-19T08:29:47.521Z</time></trkpt><trkpt lat="39.14655" lon="16.9152283"><ele>295.0</ele><time>2026-04-19T08:29:48.52Z</time></trkpt><trkpt lat="39.1464733" lon="16.9151967"><ele>296.16666666666663</ele><time>2026-04-19T08:29:49.52Z</time></trkpt><trkpt lat="39.146395" lon="16.91516"><ele>297.3333333333333</ele><time>2026-04-19T08:29:50.52Z</time></trkpt><trkpt lat="39.1463183" lon="16.91513"><ele>298.5</ele><time>2026-04-19T08:29:51.521Z</time></trkpt><trkpt lat="39.1462583" lon="16.915105"><ele>299.6666666666667</ele><time>2026-04-19T08:29:52.52Z</time></trkpt><trkpt lat="39.14619" lon="16.9150617"><ele>300.83333333333337</ele><time>2026-04-19T08:29:53.521Z</time></trkpt><trkpt lat="39.146115" lon="16.91502"><ele>302.0</ele><time>2026-04-19T08:29:54.52Z</time></trkpt><trkpt lat="39.1460367" lon="16.9149817"><ele>302.0</ele><time>2026-04-19T08:29:55.52Z</time></trkpt><trkpt lat="39.14596" lon="16.91496"><ele>302.0</ele><time>2026-04-19T08:29:56.52Z</time></trkpt><trkpt lat="39.145885" lon="16.9149167"><ele>302.0</ele><time>2026-04-19T08:29:57.52Z</time></trkpt><trkpt lat="39.1458133" lon="16.9148817"><ele>302.0</ele><time>2026-04-19T08:29:58.52Z</time></trkpt><trkpt lat="39.1457417" lon="16.9148383"><ele>302.0</ele><time>2026-04-19T08:29:59.521Z</time></trkpt><trkpt lat="39.1456833" lon="16.9147783"><ele>302.0</ele><time>2026-04-19T08:30:00.52Z</time></trkpt><trkpt lat="39.1456333" lon="16.9147083"><ele>296.0</ele><time>2026-04-19T08:30:01.52Z</time></trkpt><trkpt lat="39.1455783" lon="16.9146333"><ele>290.0</ele><time>2026-04-19T08:30:02.52Z</time></trkpt><trkpt lat="39.145525" lon="16.9145483"><ele>284.0</ele><time>2026-04-19T08:30:03.521Z</time></trkpt><trkpt lat="39.14547" lon="16.9144733"><ele>278.0</ele><time>2026-04-19T08:30:04.52Z</time></trkpt><trkpt lat="39.1454217" lon="16.91439"><ele>272.0</ele><time>2026-04-19T08:30:05.52Z</time></trkpt><trkpt lat="39.14538" lon="16.9143033"><ele>266.0</ele><time>2026-04-19T08:30:06.52Z</time></trkpt><trkpt lat="39.1453483" lon="16.91421"><ele>266.0</ele><time>2026-04-19T08:30:07.52Z</time></trkpt><trkpt lat="39.1453167" lon="16.9141267"><ele>266.0</ele><time>2026-04-19T08:30:08.521Z</time></trkpt><trkpt lat="39.14529" lon="16.9140383"><ele>266.0</ele><time>2026-04-19T08:30:09.52Z</time></trkpt><trkpt lat="39.1452767" lon="16.91395"><ele>266.0</ele><time>2026-04-19T08:30:10.52Z</time></trkpt><trkpt lat="39.145325" lon="16.9138117"><ele>266.0</ele><time>2026-04-19T08:30:12.52Z</time></trkpt><trkpt lat="39.14539" lon="16.9137767"><ele>266.0</ele><time>2026-04-19T08:30:13.521Z</time></trkpt><trkpt lat="39.1454717" lon="16.9137567"><ele>266.0</ele><time>2026-04-19T08:30:14.52Z</time></trkpt><trkpt lat="39.1455733" lon="16.9137617"><ele>266.0</ele><time>2026-04-19T08:30:15.521Z</time></trkpt><trkpt lat="39.1456817" lon="16.9137767"><ele>266.0</ele><time>2026-04-19T08:30:16.52Z</time></trkpt><trkpt lat="39.1457933" lon="16.9137817"><ele>266.0</ele><time>2026-04-19T08:30:17.521Z</time></trkpt><trkpt lat="39.1459033" lon="16.9137933"><ele>266.0</ele><time>2026-04-19T08:30:18.52Z</time></trkpt><trkpt lat="39.1460183" lon="16.9138117"><ele>274.0</ele><time>2026-04-19T08:30:19.52Z</time></trkpt><trkpt lat="39.14613" lon="16.91382"><ele>282.0</ele><time>2026-04-19T08:30:20.521Z</time></trkpt><trkpt lat="39.1462367" lon="16.9138167"><ele>290.0</ele><time>2026-04-19T08:30:21.52Z</time></trkpt><trkpt lat="39.1463383" lon="16.9137967"><ele>298.0</ele><time>2026-04-19T08:30:22.521Z</time></trkpt><trkpt lat="39.1464317" lon="16.9137767"><ele>306.0</ele><time>2026-04-19T08:30:23.52Z</time></trkpt><trkpt lat="39.1465183" lon="16.913755"><ele>306.1666666666667</ele><time>2026-04-19T08:30:24.52Z</time></trkpt><trkpt lat="39.146605" lon="16.9137267"><ele>306.3333333333333</ele><time>2026-04-19T08:30:25.52Z</time></trkpt><trkpt lat="39.1466933" lon="16.913705"><ele>306.5</ele><time>2026-04-19T08:30:26.52Z</time></trkpt><trkpt lat="39.14678" lon="16.91368"><ele>306.66666666666663</ele><time>2026-04-19T08:30:27.52Z</time></trkpt><trkpt lat="39.1468633" lon="16.9136517"><ele>306.8333333333333</ele><time>2026-04-19T08:30:28.52Z</time></trkpt><trkpt lat="39.146935" lon="16.9135867"><ele>307.0</ele><time>2026-04-19T08:30:29.52Z</time></trkpt><trkpt lat="39.1469917" lon="16.9134983"><ele>307.0</ele><time>2026-04-19T08:30:30.521Z</time></trkpt><trkpt lat="39.1470317" lon="16.9134117"><ele>307.0</ele><time>2026-04-19T08:30:31.521Z</time></trkpt><trkpt lat="39.147065" lon="16.913315"><ele>307.0</ele><time>2026-04-19T08:30:32.521Z</time></trkpt><trkpt lat="39.1470733" lon="16.9132183"><ele>307.0</ele><time>2026-04-19T08:30:33.521Z</time></trkpt><trkpt lat="39.1470717" lon="16.9131267"><ele>307.0</ele><time>2026-04-19T08:30:34.52Z</time></trkpt><trkpt lat="39.1471217" lon="16.9130283"><ele>307.0</ele><time>2026-04-19T08:30:36.52Z</time></trkpt><trkpt lat="39.147205" lon="16.9131383"><ele>307.0</ele><time>2026-04-19T08:30:38.52Z</time></trkpt><trkpt lat="39.1472183" lon="16.9132517"><ele>307.0</ele><time>2026-04-19T08:30:39.52Z</time></trkpt><trkpt lat="39.14723" lon="16.9133533"><ele>307.0</ele><time>2026-04-19T08:30:40.52Z</time></trkpt><trkpt lat="39.1472483" lon="16.9134383"><ele>307.0</ele><time>2026-04-19T08:30:41.52Z</time></trkpt><trkpt lat="39.1473117" lon="16.91352"><ele>307.0</ele><time>2026-04-19T08:30:43.52Z</time></trkpt><trkpt lat="39.1473767" lon="16.9134167"><ele>307.0</ele><time>2026-04-19T08:30:45.519Z</time></trkpt><trkpt lat="39.1473767" lon="16.9133067"><ele>299.0</ele><time>2026-04-19T08:30:46.52Z</time></trkpt><trkpt lat="39.1473567" lon="16.91319"><ele>291.0</ele><time>2026-04-19T08:30:47.519Z</time></trkpt><trkpt lat="39.1473383" lon="16.9130617"><ele>283.0</ele><time>2026-04-19T08:30:48.519Z</time></trkpt><trkpt lat="39.1473267" lon="16.9129333"><ele>275.0</ele><time>2026-04-19T08:30:49.519Z</time></trkpt><trkpt lat="39.147305" lon="16.9128"><ele>267.0</ele><time>2026-04-19T08:30:50.52Z</time></trkpt><trkpt lat="39.1472833" lon="16.9126633"><ele>263.4</ele><time>2026-04-19T08:30:51.519Z</time></trkpt><trkpt lat="39.147265" lon="16.9125183"><ele>259.79999999999995</ele><time>2026-04-19T08:30:52.52Z</time></trkpt><trkpt lat="39.1472483" lon="16.9123883"><ele>256.2</ele><time>2026-04-19T08:30:53.519Z</time></trkpt><trkpt lat="39.14724" lon="16.91227"><ele>252.6</ele><time>2026-04-19T08:30:54.519Z</time></trkpt><trkpt lat="39.1472283" lon="16.9121683"><ele>249.0</ele><time>2026-04-19T08:30:55.519Z</time></trkpt><trkpt lat="39.147215" lon="16.9120817"><ele>249.0</ele><time>2026-04-19T08:30:56.519Z</time></trkpt><trkpt lat="39.1471183" lon="16.9120733"><ele>249.0</ele><time>2026-04-19T08:30:58.52Z</time></trkpt><trkpt lat="39.14708" lon="16.9122267"><ele>249.0</ele><time>2026-04-19T08:31:00.52Z</time></trkpt><trkpt lat="39.1470867" lon="16.9123333"><ele>249.0</ele><time>2026-04-19T08:31:01.52Z</time></trkpt><trkpt lat="39.1471017" lon="16.91243"><ele>249.0</ele><time>2026-04-19T08:31:02.519Z</time></trkpt><trkpt lat="39.1471017" lon="16.9125167"><ele>249.0</ele><time>2026-04-19T08:31:03.519Z</time></trkpt><trkpt lat="39.1470617" lon="16.9126067"><ele>249.0</ele><time>2026-04-19T08:31:05.519Z</time></trkpt><trkpt lat="39.1470067" lon="16.9124717"><ele>248.99999999999997</ele><time>2026-04-19T08:31:08.519Z</time></trkpt><trkpt lat="39.1469933" lon="16.9123617"><ele>248.99999999999997</ele><time>2026-04-19T08:31:09.519Z</time></trkpt><trkpt lat="39.1469833" lon="16.9122333"><ele>249.0</ele><time>2026-04-19T08:31:10.52Z</time></trkpt><trkpt lat="39.1469633" lon="16.9120967"><ele>249.0</ele><time>2026-04-19T08:31:11.519Z</time></trkpt><trkpt lat="39.14695" lon="16.911955"><ele>249.0</ele><time>2026-04-19T08:31:12.52Z</time></trkpt><trkpt lat="39.1469367" lon="16.911815"><ele>249.0</ele><time>2026-04-19T08:31:13.519Z</time></trkpt><trkpt lat="39.146915" lon="16.9117033"><ele>249.0</ele><time>2026-04-19T08:31:14.519Z</time></trkpt><trkpt lat="39.1468817" lon="16.911615"><ele>249.0</ele><time>2026-04-19T08:31:15.52Z</time></trkpt><trkpt lat="39.1468217" lon="16.9115583"><ele>249.0</ele><time>2026-04-19T08:31:16.519Z</time></trkpt><trkpt lat="39.1467467" lon="16.911545"><ele>249.0</ele><time>2026-04-19T08:31:17.519Z</time></trkpt><trkpt lat="39.14667" lon="16.9115683"><ele>248.16666666666666</ele><time>2026-04-19T08:31:18.519Z</time></trkpt><trkpt lat="39.146595" lon="16.911605"><ele>247.33333333333331</ele><time>2026-04-19T08:31:19.519Z</time></trkpt><trkpt lat="39.146525" lon="16.9116417"><ele>246.5</ele><time>2026-04-19T08:31:20.519Z</time></trkpt><trkpt lat="39.1464583" lon="16.9116767"><ele>245.66666666666666</ele><time>2026-04-19T08:31:21.519Z</time></trkpt><trkpt lat="39.14639" lon="16.9116883"><ele>244.83333333333331</ele><time>2026-04-19T08:31:22.52Z</time></trkpt><trkpt lat="39.1462783" lon="16.91161"><ele>244.0</ele><time>2026-04-19T08:31:24.52Z</time></trkpt><trkpt lat="39.1462467" lon="16.9114783"><ele>243.99999999999997</ele><time>2026-04-19T08:31:26.519Z</time></trkpt><trkpt lat="39.1462783" lon="16.9113717"><ele>244.0</ele><time>2026-04-19T08:31:28.519Z</time></trkpt><trkpt lat="39.1463383" lon="16.9113117"><ele>244.0</ele><time>2026-04-19T08:31:30.519Z</time></trkpt><trkpt lat="39.1464083" lon="16.911285"><ele>244.0</ele><time>2026-04-19T08:31:32.519Z</time></trkpt><trkpt lat="39.1465" lon="16.9112983"><ele>243.99999999999997</ele><time>2026-04-19T08:31:39.519Z</time></trkpt><trkpt lat="39.1465833" lon="16.9112117"><ele>244.0</ele><time>2026-04-19T08:31:47.519Z</time></trkpt><trkpt lat="39.14669" lon="16.91111"><ele>243.99999999999997</ele><time>2026-04-19T08:31:49.519Z</time></trkpt><trkpt lat="39.146745" lon="16.9110517"><ele>244.0</ele><time>2026-04-19T08:31:50.519Z</time></trkpt><trkpt lat="39.1468067" lon="16.9109683"><ele>244.0</ele><time>2026-04-19T08:31:51.519Z</time></trkpt><trkpt lat="39.1468583" lon="16.9108767"><ele>244.0</ele><time>2026-04-19T08:31:52.52Z</time></trkpt><trkpt lat="39.14691" lon="16.9107767"><ele>243.99999999999997</ele><time>2026-04-19T08:31:53.519Z</time></trkpt><trkpt lat="39.1469667" lon="16.9106683"><ele>244.0</ele><time>2026-04-19T08:31:54.519Z</time></trkpt><trkpt lat="39.1470317" lon="16.9105583"><ele>243.6</ele><time>2026-04-19T08:31:55.519Z</time></trkpt><trkpt lat="39.1470817" lon="16.9104567"><ele>243.2</ele><time>2026-04-19T08:31:56.519Z</time></trkpt><trkpt lat="39.1471283" lon="16.9103383"><ele>242.79999999999998</ele><time>2026-04-19T08:31:57.519Z</time></trkpt><trkpt lat="39.1471667" lon="16.9102167"><ele>242.39999999999998</ele><time>2026-04-19T08:31:58.519Z</time></trkpt><trkpt lat="39.14719" lon="16.9100867"><ele>242.0</ele><time>2026-04-19T08:31:59.52Z</time></trkpt><trkpt lat="39.1472033" lon="16.9099567"><ele>243.2</ele><time>2026-04-19T08:32:00.519Z</time></trkpt><trkpt lat="39.1472083" lon="16.90982"><ele>244.39999999999998</ele><time>2026-04-19T08:32:01.519Z</time></trkpt><trkpt lat="39.1472033" lon="16.9096933"><ele>245.60000000000002</ele><time>2026-04-19T08:32:02.519Z</time></trkpt><trkpt lat="39.1472033" lon="16.9095567"><ele>246.8</ele><time>2026-04-19T08:32:03.52Z</time></trkpt><trkpt lat="39.1472083" lon="16.9094067"><ele>248.0</ele><time>2026-04-19T08:32:04.519Z</time></trkpt><trkpt lat="39.1472217" lon="16.9092683"><ele>247.4</ele><time>2026-04-19T08:32:05.519Z</time></trkpt><trkpt lat="39.1472517" lon="16.909135"><ele>246.8</ele><time>2026-04-19T08:32:06.519Z</time></trkpt><trkpt lat="39.1472783" lon="16.90901"><ele>246.2</ele><time>2026-04-19T08:32:07.519Z</time></trkpt><trkpt lat="39.14733" lon="16.9088983"><ele>245.6</ele><time>2026-04-19T08:32:08.519Z</time></trkpt><trkpt lat="39.1473917" lon="16.90882"><ele>245.0</ele><time>2026-04-19T08:32:09.519Z</time></trkpt><trkpt lat="39.1474717" lon="16.908795"><ele>241.8</ele><time>2026-04-19T08:32:10.52Z</time></trkpt><trkpt lat="39.14755" lon="16.90879"><ele>238.6</ele><time>2026-04-19T08:32:11.52Z</time></trkpt><trkpt lat="39.1476317" lon="16.9088317"><ele>235.39999999999998</ele><time>2026-04-19T08:32:12.519Z</time></trkpt><trkpt lat="39.147715" lon="16.9089083"><ele>232.2</ele><time>2026-04-19T08:32:13.52Z</time></trkpt><trkpt lat="39.1477983" lon="16.90901"><ele>229.0</ele><time>2026-04-19T08:32:14.519Z</time></trkpt><trkpt lat="39.1478767" lon="16.90913"><ele>229.75</ele><time>2026-04-19T08:32:15.52Z</time></trkpt><trkpt lat="39.14794" lon="16.9092783"><ele>230.5</ele><time>2026-04-19T08:32:16.519Z</time></trkpt><trkpt lat="39.1480033" lon="16.9094283"><ele>231.25</ele><time>2026-04-19T08:32:17.519Z</time></trkpt><trkpt lat="39.1480767" lon="16.9095667"><ele>232.0</ele><time>2026-04-19T08:32:18.519Z</time></trkpt><trkpt lat="39.14816" lon="16.90969"><ele>229.5</ele><time>2026-04-19T08:32:19.519Z</time></trkpt><trkpt lat="39.1482533" lon="16.90979"><ele>227.0</ele><time>2026-04-19T08:32:20.519Z</time></trkpt><trkpt lat="39.1483583" lon="16.90987"><ele>224.5</ele><time>2026-04-19T08:32:21.519Z</time></trkpt><trkpt lat="39.14847" lon="16.909905"><ele>222.0</ele><time>2026-04-19T08:32:22.519Z</time></trkpt><trkpt lat="39.14859" lon="16.9099133"><ele>222.0</ele><time>2026-04-19T08:32:23.52Z</time></trkpt><trkpt lat="39.1486917" lon="16.9098917"><ele>222.0</ele><time>2026-04-19T08:32:24.52Z</time></trkpt><trkpt lat="39.1487867" lon="16.9098483"><ele>222.0</ele><time>2026-04-19T08:32:25.519Z</time></trkpt><trkpt lat="39.1488867" lon="16.9098017"><ele>222.0</ele><time>2026-04-19T08:32:26.519Z</time></trkpt><trkpt lat="39.1489867" lon="16.9097433"><ele>222.0</ele><time>2026-04-19T08:32:27.519Z</time></trkpt><trkpt lat="39.1490883" lon="16.909715"><ele>220.39999999999998</ele><time>2026-04-19T08:32:28.519Z</time></trkpt><trkpt lat="39.14918" lon="16.9097417"><ele>218.79999999999998</ele><time>2026-04-19T08:32:29.519Z</time></trkpt><trkpt lat="39.1492667" lon="16.9098133"><ele>217.2</ele><time>2026-04-19T08:32:30.52Z</time></trkpt><trkpt lat="39.1493417" lon="16.9098867"><ele>215.6</ele><time>2026-04-19T08:32:31.519Z</time></trkpt><trkpt lat="39.1494117" lon="16.9099533"><ele>214.0</ele><time>2026-04-19T08:32:32.519Z</time></trkpt><trkpt lat="39.1494933" lon="16.9100133"><ele>211.75</ele><time>2026-04-19T08:32:33.519Z</time></trkpt><trkpt lat="39.14958" lon="16.9100783"><ele>209.5</ele><time>2026-04-19T08:32:34.519Z</time></trkpt><trkpt lat="39.1496767" lon="16.9101517"><ele>207.25</ele><time>2026-04-19T08:32:35.519Z</time></trkpt><trkpt lat="39.1497783" lon="16.910235"><ele>205.0</ele><time>2026-04-19T08:32:36.519Z</time></trkpt><trkpt lat="39.1498833" lon="16.91034"><ele>205.0</ele><time>2026-04-19T08:32:37.519Z</time></trkpt><trkpt lat="39.14999" lon="16.910455"><ele>205.0</ele><time>2026-04-19T08:32:38.519Z</time></trkpt><trkpt lat="39.150105" lon="16.910525"><ele>205.0</ele><time>2026-04-19T08:32:39.519Z</time></trkpt><trkpt lat="39.1502267" lon="16.9105617"><ele>205.0</ele><time>2026-04-19T08:32:40.519Z</time></trkpt><trkpt lat="39.150355" lon="16.9105683"><ele>205.0</ele><time>2026-04-19T08:32:41.52Z</time></trkpt><trkpt lat="39.1504817" lon="16.9105583"><ele>205.0</ele><time>2026-04-19T08:32:42.519Z</time></trkpt><trkpt lat="39.1506083" lon="16.9105483"><ele>205.0</ele><time>2026-04-19T08:32:43.519Z</time></trkpt><trkpt lat="39.1507433" lon="16.9105383"><ele>205.0</ele><time>2026-04-19T08:32:44.519Z</time></trkpt><trkpt lat="39.1508767" lon="16.910525"><ele>205.5</ele><time>2026-04-19T08:32:45.519Z</time></trkpt><trkpt lat="39.15101" lon="16.91053"><ele>206.0</ele><time>2026-04-19T08:32:46.519Z</time></trkpt><trkpt lat="39.1511217" lon="16.91059"><ele>206.5</ele><time>2026-04-19T08:32:47.519Z</time></trkpt><trkpt lat="39.15124" lon="16.91066"><ele>207.0</ele><time>2026-04-19T08:32:48.519Z</time></trkpt><trkpt lat="39.1513567" lon="16.91073"><ele>207.0</ele><time>2026-04-19T08:32:49.519Z</time></trkpt><trkpt lat="39.151475" lon="16.910795"><ele>207.0</ele><time>2026-04-19T08:32:50.519Z</time></trkpt><trkpt lat="39.1515983" lon="16.910845"><ele>207.0</ele><time>2026-04-19T08:32:51.519Z</time></trkpt><trkpt lat="39.1517" lon="16.9109167"><ele>207.0</ele><time>2026-04-19T08:32:52.519Z</time></trkpt><trkpt lat="39.1518133" lon="16.91092"><ele>207.0</ele><time>2026-04-19T08:32:53.519Z</time></trkpt><trkpt lat="39.15192" lon="16.9109017"><ele>207.0</ele><time>2026-04-19T08:32:54.52Z</time></trkpt><trkpt lat="39.1520167" lon="16.9108333"><ele>207.0</ele><time>2026-04-19T08:32:55.519Z</time></trkpt><trkpt lat="39.15208" lon="16.9107417"><ele>207.0</ele><time>2026-04-19T08:32:56.519Z</time></trkpt><trkpt lat="39.1521217" lon="16.9106233"><ele>207.0</ele><time>2026-04-19T08:32:57.519Z</time></trkpt><trkpt lat="39.15214" lon="16.91051"><ele>207.0</ele><time>2026-04-19T08:32:58.519Z</time></trkpt><trkpt lat="39.1521317" lon="16.9103883"><ele>207.0</ele><time>2026-04-19T08:32:59.52Z</time></trkpt><trkpt lat="39.15209" lon="16.910265"><ele>207.0</ele><time>2026-04-19T08:33:00.52Z</time></trkpt><trkpt lat="39.15202" lon="16.910145"><ele>207.0</ele><time>2026-04-19T08:33:01.519Z</time></trkpt><trkpt lat="39.1519467" lon="16.91003"><ele>207.0</ele><time>2026-04-19T08:33:02.519Z</time></trkpt><trkpt lat="39.151855" lon="16.9099233"><ele>207.75</ele><time>2026-04-19T08:33:03.519Z</time></trkpt><trkpt lat="39.1517617" lon="16.9097867"><ele>208.5</ele><time>2026-04-19T08:33:04.519Z</time></trkpt><trkpt lat="39.1516683" lon="16.9096467"><ele>209.25</ele><time>2026-04-19T08:33:05.519Z</time></trkpt><trkpt lat="39.1515717" lon="16.9095083"><ele>210.0</ele><time>2026-04-19T08:33:06.519Z</time></trkpt><trkpt lat="39.1514667" lon="16.9093733"><ele>210.5</ele><time>2026-04-19T08:33:07.519Z</time></trkpt><trkpt lat="39.1513683" lon="16.9092333"><ele>211.0</ele><time>2026-04-19T08:33:08.52Z</time></trkpt><trkpt lat="39.15128" lon="16.9091083"><ele>211.5</ele><time>2026-04-19T08:33:09.519Z</time></trkpt><trkpt lat="39.1511933" lon="16.9089867"><ele>212.0</ele><time>2026-04-19T08:33:10.52Z</time></trkpt><trkpt lat="39.1510967" lon="16.90887"><ele>212.0</ele><time>2026-04-19T08:33:11.519Z</time></trkpt><trkpt lat="39.15099" lon="16.9087767"><ele>212.0</ele><time>2026-04-19T08:33:12.519Z</time></trkpt><trkpt lat="39.1508783" lon="16.90872"><ele>212.0</ele><time>2026-04-19T08:33:13.519Z</time></trkpt><trkpt lat="39.150765" lon="16.90871"><ele>212.0</ele><time>2026-04-19T08:33:14.519Z</time></trkpt><trkpt lat="39.15064" lon="16.9087317"><ele>212.0</ele><time>2026-04-19T08:33:15.519Z</time></trkpt><trkpt lat="39.1504833" lon="16.90879"><ele>212.0</ele><time>2026-04-19T08:33:16.519Z</time></trkpt><trkpt lat="39.1503617" lon="16.9088567"><ele>212.0</ele><time>2026-04-19T08:33:17.519Z</time></trkpt><trkpt lat="39.1502433" lon="16.9089183"><ele>212.0</ele><time>2026-04-19T08:33:18.519Z</time></trkpt><trkpt lat="39.150125" lon="16.9089633"><ele>212.0</ele><time>2026-04-19T08:33:19.52Z</time></trkpt><trkpt lat="39.150015" lon="16.9089683"><ele>212.0</ele><time>2026-04-19T08:33:20.52Z</time></trkpt><trkpt lat="39.149905" lon="16.90891"><ele>212.0</ele><time>2026-04-19T08:33:21.519Z</time></trkpt><trkpt lat="39.149825" lon="16.9088133"><ele>212.0</ele><time>2026-04-19T08:33:22.519Z</time></trkpt><trkpt lat="39.1497817" lon="16.908695"><ele>212.0</ele><time>2026-04-19T08:33:23.519Z</time></trkpt><trkpt lat="39.149775" lon="16.908555"><ele>208.25</ele><time>2026-04-19T08:33:24.519Z</time></trkpt><trkpt lat="39.1498167" lon="16.9084067"><ele>204.5</ele><time>2026-04-19T08:33:25.519Z</time></trkpt><trkpt lat="39.1499183" lon="16.908265"><ele>200.75</ele><time>2026-04-19T08:33:26.52Z</time></trkpt><trkpt lat="39.150035" lon="16.9081533"><ele>197.0</ele><time>2026-04-19T08:33:27.519Z</time></trkpt><trkpt lat="39.1501833" lon="16.9080733"><ele>196.33333333333334</ele><time>2026-04-19T08:33:28.519Z</time></trkpt><trkpt lat="39.15038" lon="16.9080367"><ele>195.66666666666669</ele><time>2026-04-19T08:33:29.519Z</time></trkpt><trkpt lat="39.1505517" lon="16.9080367"><ele>195.0</ele><time>2026-04-19T08:33:30.519Z</time></trkpt><trkpt lat="39.1507067" lon="16.9080633"><ele>194.5</ele><time>2026-04-19T08:33:31.52Z</time></trkpt><trkpt lat="39.1508433" lon="16.9081"><ele>194.0</ele><time>2026-04-19T08:33:32.52Z</time></trkpt><trkpt lat="39.1509783" lon="16.9081783"><ele>193.5</ele><time>2026-04-19T08:33:33.519Z</time></trkpt><trkpt lat="39.1510933" lon="16.9082867"><ele>193.0</ele><time>2026-04-19T08:33:34.519Z</time></trkpt><trkpt lat="39.1512117" lon="16.9084067"><ele>194.0</ele><time>2026-04-19T08:33:35.519Z</time></trkpt><trkpt lat="39.15132" lon="16.90853"><ele>195.0</ele><time>2026-04-19T08:33:36.519Z</time></trkpt><trkpt lat="39.151435" lon="16.9086167"><ele>196.0</ele><time>2026-04-19T08:33:37.519Z</time></trkpt><trkpt lat="39.151545" lon="16.908695"><ele>197.0</ele><time>2026-04-19T08:33:38.519Z</time></trkpt><trkpt lat="39.1516667" lon="16.9087467"><ele>197.0</ele><time>2026-04-19T08:33:39.519Z</time></trkpt><trkpt lat="39.151785" lon="16.9087717"><ele>197.0</ele><time>2026-04-19T08:33:40.519Z</time></trkpt><trkpt lat="39.1519" lon="16.9087717"><ele>197.0</ele><time>2026-04-19T08:33:41.519Z</time></trkpt><trkpt lat="39.152025" lon="16.9087433"><ele>197.0</ele><time>2026-04-19T08:33:42.519Z</time></trkpt><trkpt lat="39.1521483" lon="16.908705"><ele>197.0</ele><time>2026-04-19T08:33:43.519Z</time></trkpt><trkpt lat="39.15226" lon="16.90866"><ele>197.0</ele><time>2026-04-19T08:33:44.519Z</time></trkpt><trkpt lat="39.1523683" lon="16.90859"><ele>197.0</ele><time>2026-04-19T08:33:45.52Z</time></trkpt><trkpt lat="39.1524567" lon="16.9085"><ele>197.0</ele><time>2026-04-19T08:33:46.519Z</time></trkpt><trkpt lat="39.1525083" lon="16.908385"><ele>194.6</ele><time>2026-04-19T08:33:47.519Z</time></trkpt><trkpt lat="39.15253" lon="16.9082667"><ele>192.2</ele><time>2026-04-19T08:33:48.519Z</time></trkpt><trkpt lat="39.152525" lon="16.9081433"><ele>189.8</ele><time>2026-04-19T08:33:49.519Z</time></trkpt><trkpt lat="39.1524833" lon="16.9080117"><ele>187.4</ele><time>2026-04-19T08:33:50.519Z</time></trkpt><trkpt lat="39.1524217" lon="16.9078883"><ele>185.0</ele><time>2026-04-19T08:33:51.52Z</time></trkpt><trkpt lat="39.1523433" lon="16.9077883"><ele>185.0</ele><time>2026-04-19T08:33:52.519Z</time></trkpt><trkpt lat="39.1522417" lon="16.9077267"><ele>185.0</ele><time>2026-04-19T08:33:53.519Z</time></trkpt><trkpt lat="39.1521267" lon="16.9077067"><ele>185.0</ele><time>2026-04-19T08:33:54.519Z</time></trkpt><trkpt lat="39.151995" lon="16.9077183"><ele>185.0</ele><time>2026-04-19T08:33:55.519Z</time></trkpt><trkpt lat="39.1518567" lon="16.907745"><ele>185.0</ele><time>2026-04-19T08:33:56.52Z</time></trkpt><trkpt lat="39.1516717" lon="16.9078133"><ele>185.0</ele><time>2026-04-19T08:33:57.519Z</time></trkpt><trkpt lat="39.1514967" lon="16.90786"><ele>185.0</ele><time>2026-04-19T08:33:58.519Z</time></trkpt><trkpt lat="39.1513617" lon="16.907865"><ele>187.0</ele><time>2026-04-19T08:33:59.519Z</time></trkpt><trkpt lat="39.1512317" lon="16.9078233"><ele>189.0</ele><time>2026-04-19T08:34:00.519Z</time></trkpt><trkpt lat="39.15112" lon="16.9077383"><ele>191.0</ele><time>2026-04-19T08:34:01.519Z</time></trkpt><trkpt lat="39.1510117" lon="16.9076533"><ele>193.0</ele><time>2026-04-19T08:34:02.52Z</time></trkpt><trkpt lat="39.1509383" lon="16.9075433"><ele>190.5</ele><time>2026-04-19T08:34:03.52Z</time></trkpt><trkpt lat="39.1508633" lon="16.9074033"><ele>188.0</ele><time>2026-04-19T08:34:04.519Z</time></trkpt><trkpt lat="39.1508083" lon="16.9072683"><ele>185.5</ele><time>2026-04-19T08:34:05.519Z</time></trkpt><trkpt lat="39.1507483" lon="16.90714"><ele>183.0</ele><time>2026-04-19T08:34:06.519Z</time></trkpt><trkpt lat="39.1506817" lon="16.9070333"><ele>183.0</ele><time>2026-04-19T08:34:07.519Z</time></trkpt><trkpt lat="39.1506" lon="16.9069533"><ele>183.0</ele><time>2026-04-19T08:34:08.519Z</time></trkpt><trkpt lat="39.1505" lon="16.9069167"><ele>183.0</ele><time>2026-04-19T08:34:09.52Z</time></trkpt><trkpt lat="39.1503933" lon="16.9069117"><ele>183.0</ele><time>2026-04-19T08:34:10.519Z</time></trkpt><trkpt lat="39.1502783" lon="16.906905"><ele>183.0</ele><time>2026-04-19T08:34:11.519Z</time></trkpt><trkpt lat="39.1501683" lon="16.906895"><ele>183.0</ele><time>2026-04-19T08:34:12.519Z</time></trkpt><trkpt lat="39.1500617" lon="16.90688"><ele>183.0</ele><time>2026-04-19T08:34:13.52Z</time></trkpt><trkpt lat="39.1499733" lon="16.9068183"><ele>183.0</ele><time>2026-04-19T08:34:14.519Z</time></trkpt><trkpt lat="39.1499267" lon="16.9067183"><ele>183.0</ele><time>2026-04-19T08:34:15.519Z</time></trkpt><trkpt lat="39.1499183" lon="16.9065983"><ele>183.0</ele><time>2026-04-19T08:34:16.519Z</time></trkpt><trkpt lat="39.1499533" lon="16.906485"><ele>179.5</ele><time>2026-04-19T08:34:17.52Z</time></trkpt><trkpt lat="39.1500317" lon="16.9063833"><ele>176.0</ele><time>2026-04-19T08:34:18.52Z</time></trkpt><trkpt lat="39.15014" lon="16.9062817"><ele>172.5</ele><time>2026-04-19T08:34:19.519Z</time></trkpt><trkpt lat="39.150255" lon="16.90617"><ele>169.0</ele><time>2026-04-19T08:34:20.52Z</time></trkpt><trkpt lat="39.1503633" lon="16.906055"><ele>169.0</ele><time>2026-04-19T08:34:21.52Z</time></trkpt><trkpt lat="39.15047" lon="16.905935"><ele>169.0</ele><time>2026-04-19T08:34:22.519Z</time></trkpt><trkpt lat="39.1505683" lon="16.9058317"><ele>169.0</ele><time>2026-04-19T08:34:23.519Z</time></trkpt><trkpt lat="39.1506667" lon="16.905715"><ele>169.0</ele><time>2026-04-19T08:34:24.52Z</time></trkpt><trkpt lat="39.15074" lon="16.90558"><ele>165.5</ele><time>2026-04-19T08:34:25.519Z</time></trkpt><trkpt lat="39.1507917" lon="16.9054233"><ele>162.0</ele><time>2026-04-19T08:34:26.519Z</time></trkpt><trkpt lat="39.1508183" lon="16.9052617"><ele>158.5</ele><time>2026-04-19T08:34:27.519Z</time></trkpt><trkpt lat="39.1508367" lon="16.9051"><ele>155.0</ele><time>2026-04-19T08:34:28.52Z</time></trkpt><trkpt lat="39.150825" lon="16.904935"><ele>154.75</ele><time>2026-04-19T08:34:29.52Z</time></trkpt><trkpt lat="39.150795" lon="16.9047683"><ele>154.5</ele><time>2026-04-19T08:34:30.519Z</time></trkpt><trkpt lat="39.1507267" lon="16.904605"><ele>154.25</ele><time>2026-04-19T08:34:31.519Z</time></trkpt><trkpt lat="39.1506367" lon="16.9044717"><ele>154.0</ele><time>2026-04-19T08:34:32.519Z</time></trkpt><trkpt lat="39.150535" lon="16.9043517"><ele>154.5</ele><time>2026-04-19T08:34:33.519Z</time></trkpt><trkpt lat="39.1504167" lon="16.904245"><ele>155.0</ele><time>2026-04-19T08:34:34.519Z</time></trkpt><trkpt lat="39.15031" lon="16.90416"><ele>155.5</ele><time>2026-04-19T08:34:35.519Z</time></trkpt><trkpt lat="39.1502167" lon="16.90408"><ele>156.0</ele><time>2026-04-19T08:34:36.52Z</time></trkpt><trkpt lat="39.15016" lon="16.903975"><ele>156.0</ele><time>2026-04-19T08:34:37.519Z</time></trkpt><trkpt lat="39.1501417" lon="16.90385"><ele>156.0</ele><time>2026-04-19T08:34:38.519Z</time></trkpt><trkpt lat="39.1501533" lon="16.903715"><ele>156.0</ele><time>2026-04-19T08:34:39.519Z</time></trkpt><trkpt lat="39.1501967" lon="16.9035883"><ele>156.0</ele><time>2026-04-19T08:34:40.519Z</time></trkpt><trkpt lat="39.1502733" lon="16.9034867"><ele>156.0</ele><time>2026-04-19T08:34:41.52Z</time></trkpt><trkpt lat="39.150385" lon="16.9034183"><ele>156.33333333333334</ele><time>2026-04-19T08:34:42.519Z</time></trkpt><trkpt lat="39.1505217" lon="16.9033817"><ele>156.66666666666669</ele><time>2026-04-19T08:34:43.519Z</time></trkpt><trkpt lat="39.1506867" lon="16.9033583"><ele>157.0</ele><time>2026-04-19T08:34:44.52Z</time></trkpt><trkpt lat="39.1508767" lon="16.90335"><ele>155.0</ele><time>2026-04-19T08:34:45.52Z</time></trkpt><trkpt lat="39.1510467" lon="16.9033533"><ele>153.0</ele><time>2026-04-19T08:34:46.519Z</time></trkpt><trkpt lat="39.1512067" lon="16.9033683"><ele>151.0</ele><time>2026-04-19T08:34:47.519Z</time></trkpt><trkpt lat="39.15135" lon="16.9033983"><ele>150.0</ele><time>2026-04-19T08:34:48.519Z</time></trkpt><trkpt lat="39.15147" lon="16.9034583"><ele>149.0</ele><time>2026-04-19T08:34:49.519Z</time></trkpt><trkpt lat="39.1515717" lon="16.9035633"><ele>148.0</ele><time>2026-04-19T08:34:50.519Z</time></trkpt><trkpt lat="39.1516783" lon="16.903685"><ele>147.0</ele><time>2026-04-19T08:34:51.52Z</time></trkpt><trkpt lat="39.1517783" lon="16.903815"><ele>146.0</ele><time>2026-04-19T08:34:52.519Z</time></trkpt><trkpt lat="39.1518967" lon="16.903915"><ele>145.0</ele><time>2026-04-19T08:34:53.519Z</time></trkpt><trkpt lat="39.1520283" lon="16.9039833"><ele>144.0</ele><time>2026-04-19T08:34:54.519Z</time></trkpt><trkpt lat="39.15215" lon="16.90403"><ele>143.0</ele><time>2026-04-19T08:34:55.52Z</time></trkpt><trkpt lat="39.1522783" lon="16.9040617"><ele>142.5</ele><time>2026-04-19T08:34:56.519Z</time></trkpt><trkpt lat="39.152395" lon="16.904055"><ele>142.0</ele><time>2026-04-19T08:34:57.52Z</time></trkpt><trkpt lat="39.1524983" lon="16.904015"><ele>141.5</ele><time>2026-04-19T08:34:58.52Z</time></trkpt><trkpt lat="39.1525917" lon="16.90394"><ele>141.0</ele><time>2026-04-19T08:34:59.52Z</time></trkpt><trkpt lat="39.15268" lon="16.90384"><ele>141.0</ele><time>2026-04-19T08:35:00.519Z</time></trkpt><trkpt lat="39.152755" lon="16.9037133"><ele>141.0</ele><time>2026-04-19T08:35:01.52Z</time></trkpt><trkpt lat="39.1528167" lon="16.9035717"><ele>141.0</ele><time>2026-04-19T08:35:02.519Z</time></trkpt><trkpt lat="39.15287" lon="16.90344"><ele>141.0</ele><time>2026-04-19T08:35:03.519Z</time></trkpt><trkpt lat="39.1528917" lon="16.9033067"><ele>141.25</ele><time>2026-04-19T08:35:04.519Z</time></trkpt><trkpt lat="39.1528917" lon="16.903165"><ele>141.5</ele><time>2026-04-19T08:35:05.519Z</time></trkpt><trkpt lat="39.1528617" lon="16.9030167"><ele>141.75</ele><time>2026-04-19T08:35:06.519Z</time></trkpt><trkpt lat="39.1528117" lon="16.9028717"><ele>142.0</ele><time>2026-04-19T08:35:07.519Z</time></trkpt><trkpt lat="39.1527667" lon="16.9027283"><ele>142.0</ele><time>2026-04-19T08:35:08.519Z</time></trkpt><trkpt lat="39.1527467" lon="16.9025983"><ele>142.0</ele><time>2026-04-19T08:35:09.519Z</time></trkpt><trkpt lat="39.1527533" lon="16.90247"><ele>142.0</ele><time>2026-04-19T08:35:10.519Z</time></trkpt><trkpt lat="39.152785" lon="16.9023617"><ele>142.0</ele><time>2026-04-19T08:35:11.519Z</time></trkpt><trkpt lat="39.1528567" lon="16.9023"><ele>142.0</ele><time>2026-04-19T08:35:12.519Z</time></trkpt><trkpt lat="39.15296" lon="16.90227"><ele>142.25</ele><time>2026-04-19T08:35:13.519Z</time></trkpt><trkpt lat="39.1530733" lon="16.902245"><ele>142.5</ele><time>2026-04-19T08:35:14.52Z</time></trkpt><trkpt lat="39.1531933" lon="16.9022217"><ele>142.75</ele><time>2026-04-19T08:35:15.519Z</time></trkpt><trkpt lat="39.1533183" lon="16.9021933"><ele>143.0</ele><time>2026-04-19T08:35:16.519Z</time></trkpt><trkpt lat="39.1534433" lon="16.902155"><ele>141.0</ele><time>2026-04-19T08:35:17.52Z</time></trkpt><trkpt lat="39.1535633" lon="16.9021017"><ele>139.0</ele><time>2026-04-19T08:35:18.519Z</time></trkpt><trkpt lat="39.1536733" lon="16.9020383"><ele>137.0</ele><time>2026-04-19T08:35:19.519Z</time></trkpt><trkpt lat="39.1537767" lon="16.9019833"><ele>135.0</ele><time>2026-04-19T08:35:20.52Z</time></trkpt><trkpt lat="39.153865" lon="16.9019533"><ele>135.0</ele><time>2026-04-19T08:35:21.519Z</time></trkpt><trkpt lat="39.1539533" lon="16.901975"><ele>135.0</ele><time>2026-04-19T08:35:22.519Z</time></trkpt><trkpt lat="39.1540417" lon="16.902045"><ele>135.0</ele><time>2026-04-19T08:35:23.52Z</time></trkpt><trkpt lat="39.15412" lon="16.90214"><ele>135.0</ele><time>2026-04-19T08:35:24.519Z</time></trkpt><trkpt lat="39.1541967" lon="16.902255"><ele>135.0</ele><time>2026-04-19T08:35:25.519Z</time></trkpt><trkpt lat="39.1542733" lon="16.9023933"><ele>134.0</ele><time>2026-04-19T08:35:26.519Z</time></trkpt><trkpt lat="39.1543517" lon="16.9025617"><ele>133.0</ele><time>2026-04-19T08:35:27.52Z</time></trkpt><trkpt lat="39.15442" lon="16.90269"><ele>132.0</ele><time>2026-04-19T08:35:28.52Z</time></trkpt><trkpt lat="39.1544917" lon="16.9028017"><ele>131.0</ele><time>2026-04-19T08:35:29.519Z</time></trkpt><trkpt lat="39.154575" lon="16.9029067"><ele>131.0</ele><time>2026-04-19T08:35:30.519Z</time></trkpt><trkpt lat="39.154675" lon="16.9029567"><ele>131.0</ele><time>2026-04-19T08:35:31.519Z</time></trkpt><trkpt lat="39.154785" lon="16.9029583"><ele>131.0</ele><time>2026-04-19T08:35:32.519Z</time></trkpt><trkpt lat="39.1549133" lon="16.902925"><ele>131.0</ele><time>2026-04-19T08:35:33.519Z</time></trkpt><trkpt lat="39.1550467" lon="16.90289"><ele>132.75</ele><time>2026-04-19T08:35:34.519Z</time></trkpt><trkpt lat="39.15518" lon="16.9028517"><ele>134.5</ele><time>2026-04-19T08:35:35.52Z</time></trkpt><trkpt lat="39.1553233" lon="16.9027867"><ele>136.25</ele><time>2026-04-19T08:35:36.519Z</time></trkpt><trkpt lat="39.1554533" lon="16.902745"><ele>138.0</ele><time>2026-04-19T08:35:37.519Z</time></trkpt><trkpt lat="39.15557" lon="16.9027183"><ele>138.0</ele><time>2026-04-19T08:35:38.519Z</time></trkpt><trkpt lat="39.15568" lon="16.9027317"><ele>138.0</ele><time>2026-04-19T08:35:39.52Z</time></trkpt><trkpt lat="39.15578" lon="16.90277"><ele>138.0</ele><time>2026-04-19T08:35:40.519Z</time></trkpt><trkpt lat="39.1558733" lon="16.9028317"><ele>138.0</ele><time>2026-04-19T08:35:41.519Z</time></trkpt><trkpt lat="39.1559783" lon="16.9028817"><ele>138.0</ele><time>2026-04-19T08:35:42.519Z</time></trkpt><trkpt lat="39.1560983" lon="16.9029183"><ele>140.25</ele><time>2026-04-19T08:35:43.519Z</time></trkpt><trkpt lat="39.1562217" lon="16.902905"><ele>142.5</ele><time>2026-04-19T08:35:44.519Z</time></trkpt><trkpt lat="39.156335" lon="16.9028567"><ele>144.75</ele><time>2026-04-19T08:35:45.519Z</time></trkpt><trkpt lat="39.1564483" lon="16.90278"><ele>147.0</ele><time>2026-04-19T08:35:46.52Z</time></trkpt><trkpt lat="39.156545" lon="16.9027"><ele>148.6</ele><time>2026-04-19T08:35:47.519Z</time></trkpt><trkpt lat="39.1566383" lon="16.90264"><ele>150.2</ele><time>2026-04-19T08:35:48.52Z</time></trkpt><trkpt lat="39.1567283" lon="16.9026167"><ele>151.8</ele><time>2026-04-19T08:35:49.519Z</time></trkpt><trkpt lat="39.1568167" lon="16.9026567"><ele>153.4</ele><time>2026-04-19T08:35:50.519Z</time></trkpt><trkpt lat="39.156895" lon="16.902755"><ele>155.0</ele><time>2026-04-19T08:35:51.519Z</time></trkpt><trkpt lat="39.1569433" lon="16.9028917"><ele>155.0</ele><time>2026-04-19T08:35:52.519Z</time></trkpt><trkpt lat="39.1569483" lon="16.9030517"><ele>155.0</ele><time>2026-04-19T08:35:53.52Z</time></trkpt><trkpt lat="39.15694" lon="16.9032317"><ele>155.0</ele><time>2026-04-19T08:35:54.52Z</time></trkpt><trkpt lat="39.156945" lon="16.90342"><ele>155.0</ele><time>2026-04-19T08:35:55.519Z</time></trkpt><trkpt lat="39.156955" lon="16.9036133"><ele>154.0</ele><time>2026-04-19T08:35:56.519Z</time></trkpt><trkpt lat="39.1569633" lon="16.9038067"><ele>153.0</ele><time>2026-04-19T08:35:57.519Z</time></trkpt><trkpt lat="39.1569617" lon="16.9040083"><ele>152.0</ele><time>2026-04-19T08:35:58.519Z</time></trkpt><trkpt lat="39.1569533" lon="16.9041817"><ele>151.0</ele><time>2026-04-19T08:35:59.519Z</time></trkpt><trkpt lat="39.1569617" lon="16.904335"><ele>150.6</ele><time>2026-04-19T08:36:00.52Z</time></trkpt><trkpt lat="39.1569967" lon="16.9044583"><ele>150.2</ele><time>2026-04-19T08:36:01.519Z</time></trkpt><trkpt lat="39.1570517" lon="16.9045617"><ele>149.8</ele><time>2026-04-19T08:36:02.519Z</time></trkpt><trkpt lat="39.1571417" lon="16.90463"><ele>149.4</ele><time>2026-04-19T08:36:03.519Z</time></trkpt><trkpt lat="39.1572583" lon="16.9046533"><ele>149.0</ele><time>2026-04-19T08:36:04.519Z</time></trkpt><trkpt lat="39.1573833" lon="16.9046233"><ele>149.0</ele><time>2026-04-19T08:36:05.519Z</time></trkpt><trkpt lat="39.1574883" lon="16.9045517"><ele>149.0</ele><time>2026-04-19T08:36:06.519Z</time></trkpt><trkpt lat="39.15757" lon="16.9044383"><ele>149.0</ele><time>2026-04-19T08:36:07.519Z</time></trkpt><trkpt lat="39.1576117" lon="16.9042933"><ele>149.0</ele><time>2026-04-19T08:36:08.519Z</time></trkpt><trkpt lat="39.15761" lon="16.9041417"><ele>149.5</ele><time>2026-04-19T08:36:09.519Z</time></trkpt><trkpt lat="39.1575767" lon="16.9039917"><ele>150.0</ele><time>2026-04-19T08:36:10.519Z</time></trkpt><trkpt lat="39.1575083" lon="16.9038533"><ele>150.5</ele><time>2026-04-19T08:36:11.52Z</time></trkpt><trkpt lat="39.1574317" lon="16.9037233"><ele>151.0</ele><time>2026-04-19T08:36:12.52Z</time></trkpt><trkpt lat="39.1573433" lon="16.9035883"><ele>151.0</ele><time>2026-04-19T08:36:13.519Z</time></trkpt><trkpt lat="39.1572817" lon="16.90346"><ele>151.0</ele><time>2026-04-19T08:36:14.519Z</time></trkpt><trkpt lat="39.1572683" lon="16.9033167"><ele>151.0</ele><time>2026-04-19T08:36:15.52Z</time></trkpt><trkpt lat="39.1572917" lon="16.9031567"><ele>151.0</ele><time>2026-04-19T08:36:16.519Z</time></trkpt><trkpt lat="39.1573383" lon="16.903005"><ele>154.25</ele><time>2026-04-19T08:36:17.519Z</time></trkpt><trkpt lat="39.15739" lon="16.9028533"><ele>157.5</ele><time>2026-04-19T08:36:18.519Z</time></trkpt><trkpt lat="39.1574533" lon="16.902705"><ele>160.75</ele><time>2026-04-19T08:36:19.519Z</time></trkpt><trkpt lat="39.1575217" lon="16.9025783"><ele>164.0</ele><time>2026-04-19T08:36:20.52Z</time></trkpt><trkpt lat="39.157585" lon="16.9024617"><ele>164.83333333333331</ele><time>2026-04-19T08:36:21.519Z</time></trkpt><trkpt lat="39.1576433" lon="16.902355"><ele>165.66666666666666</ele><time>2026-04-19T08:36:22.519Z</time></trkpt><trkpt lat="39.1576867" lon="16.90226"><ele>166.5</ele><time>2026-04-19T08:36:23.519Z</time></trkpt><trkpt lat="39.15771" lon="16.9021733"><ele>167.33333333333334</ele><time>2026-04-19T08:36:24.519Z</time></trkpt><trkpt lat="39.15767" lon="16.90204"><ele>168.16666666666669</ele><time>2026-04-19T08:36:26.519Z</time></trkpt><trkpt lat="39.1576017" lon="16.9019867"><ele>169.0</ele><time>2026-04-19T08:36:27.519Z</time></trkpt><trkpt lat="39.1575083" lon="16.9019333"><ele>169.0</ele><time>2026-04-19T08:36:28.519Z</time></trkpt><trkpt lat="39.1573967" lon="16.9018733"><ele>169.0</ele><time>2026-04-19T08:36:29.519Z</time></trkpt><trkpt lat="39.1572817" lon="16.9017983"><ele>169.0</ele><time>2026-04-19T08:36:30.519Z</time></trkpt><trkpt lat="39.1571517" lon="16.9017083"><ele>169.0</ele><time>2026-04-19T08:36:31.519Z</time></trkpt><trkpt lat="39.1570283" lon="16.90162"><ele>168.75</ele><time>2026-04-19T08:36:32.52Z</time></trkpt><trkpt lat="39.1568967" lon="16.9015367"><ele>168.5</ele><time>2026-04-19T08:36:33.519Z</time></trkpt><trkpt lat="39.1567683" lon="16.901445"><ele>168.25</ele><time>2026-04-19T08:36:34.52Z</time></trkpt><trkpt lat="39.1566417" lon="16.901345"><ele>168.0</ele><time>2026-04-19T08:36:35.519Z</time></trkpt><trkpt lat="39.1565117" lon="16.9012317"><ele>168.0</ele><time>2026-04-19T08:36:36.519Z</time></trkpt><trkpt lat="39.1563933" lon="16.9011017"><ele>168.0</ele><time>2026-04-19T08:36:37.519Z</time></trkpt><trkpt lat="39.15628" lon="16.9009617"><ele>168.0</ele><time>2026-04-19T08:36:38.519Z</time></trkpt><trkpt lat="39.1561783" lon="16.9008183"><ele>169.25</ele><time>2026-04-19T08:36:39.519Z</time></trkpt><trkpt lat="39.1560767" lon="16.9006683"><ele>170.5</ele><time>2026-04-19T08:36:40.519Z</time></trkpt><trkpt lat="39.1559833" lon="16.900535"><ele>171.75</ele><time>2026-04-19T08:36:41.519Z</time></trkpt><trkpt lat="39.1558833" lon="16.9004167"><ele>173.0</ele><time>2026-04-19T08:36:42.519Z</time></trkpt><trkpt lat="39.1558" lon="16.9002967"><ele>173.0</ele><time>2026-04-19T08:36:43.519Z</time></trkpt><trkpt lat="39.1557383" lon="16.9001667"><ele>173.0</ele><time>2026-04-19T08:36:44.519Z</time></trkpt><trkpt lat="39.1556867" lon="16.9000183"><ele>173.0</ele><time>2026-04-19T08:36:45.52Z</time></trkpt><trkpt lat="39.15563" lon="16.8998617"><ele>173.0</ele><time>2026-04-19T08:36:46.519Z</time></trkpt><trkpt lat="39.155575" lon="16.899685"><ele>173.0</ele><time>2026-04-19T08:36:47.52Z</time></trkpt><trkpt lat="39.155515" lon="16.899515"><ele>173.0</ele><time>2026-04-19T08:36:48.519Z</time></trkpt><trkpt lat="39.1554567" lon="16.8993517"><ele>173.0</ele><time>2026-04-19T08:36:49.519Z</time></trkpt><trkpt lat="39.155385" lon="16.8992067"><ele>173.0</ele><time>2026-04-19T08:36:50.52Z</time></trkpt><trkpt lat="39.1552983" lon="16.89907"><ele>178.33333333333331</ele><time>2026-04-19T08:36:51.52Z</time></trkpt><trkpt lat="39.15519" lon="16.898945"><ele>183.66666666666666</ele><time>2026-04-19T08:36:52.519Z</time></trkpt><trkpt lat="39.1550683" lon="16.8988367"><ele>189.0</ele><time>2026-04-19T08:36:53.519Z</time></trkpt><trkpt lat="39.1549283" lon="16.8987267"><ele>187.0</ele><time>2026-04-19T08:36:54.519Z</time></trkpt><trkpt lat="39.15478" lon="16.8986183"><ele>185.0</ele><time>2026-04-19T08:36:55.519Z</time></trkpt><trkpt lat="39.1546367" lon="16.8985117"><ele>183.0</ele><time>2026-04-19T08:36:56.519Z</time></trkpt><trkpt lat="39.1544933" lon="16.8984033"><ele>186.5</ele><time>2026-04-19T08:36:57.519Z</time></trkpt><trkpt lat="39.15436" lon="16.8983233"><ele>190.0</ele><time>2026-04-19T08:36:58.519Z</time></trkpt><trkpt lat="39.1542433" lon="16.8982317"><ele>193.5</ele><time>2026-04-19T08:36:59.519Z</time></trkpt><trkpt lat="39.15413" lon="16.8981433"><ele>197.0</ele><time>2026-04-19T08:37:00.519Z</time></trkpt><trkpt lat="39.154025" lon="16.89807"><ele>199.6</ele><time>2026-04-19T08:37:01.519Z</time></trkpt><trkpt lat="39.1539183" lon="16.8980367"><ele>202.2</ele><time>2026-04-19T08:37:02.519Z</time></trkpt><trkpt lat="39.1538117" lon="16.8980233"><ele>204.8</ele><time>2026-04-19T08:37:03.519Z</time></trkpt><trkpt lat="39.1537017" lon="16.8980433"><ele>207.4</ele><time>2026-04-19T08:37:04.519Z</time></trkpt><trkpt lat="39.1536" lon="16.8980983"><ele>210.0</ele><time>2026-04-19T08:37:05.519Z</time></trkpt><trkpt lat="39.1535017" lon="16.89819"><ele>210.0</ele><time>2026-04-19T08:37:06.519Z</time></trkpt><trkpt lat="39.153415" lon="16.8983033"><ele>210.0</ele><time>2026-04-19T08:37:07.519Z</time></trkpt><trkpt lat="39.1533417" lon="16.8984283"><ele>210.0</ele><time>2026-04-19T08:37:08.52Z</time></trkpt><trkpt lat="39.1532883" lon="16.898565"><ele>210.0</ele><time>2026-04-19T08:37:09.519Z</time></trkpt><trkpt lat="39.15328" lon="16.898695"><ele>210.25</ele><time>2026-04-19T08:37:10.519Z</time></trkpt><trkpt lat="39.153315" lon="16.8988317"><ele>210.5</ele><time>2026-04-19T08:37:11.519Z</time></trkpt><trkpt lat="39.15337" lon="16.898975"><ele>210.75</ele><time>2026-04-19T08:37:12.519Z</time></trkpt><trkpt lat="39.1534233" lon="16.8991233"><ele>211.0</ele><time>2026-04-19T08:37:13.519Z</time></trkpt><trkpt lat="39.1534583" lon="16.8992767"><ele>210.25</ele><time>2026-04-19T08:37:14.52Z</time></trkpt><trkpt lat="39.1534633" lon="16.8994367"><ele>209.5</ele><time>2026-04-19T08:37:15.519Z</time></trkpt><trkpt lat="39.153435" lon="16.89957"><ele>208.75</ele><time>2026-04-19T08:37:16.52Z</time></trkpt><trkpt lat="39.153365" lon="16.8996933"><ele>208.0</ele><time>2026-04-19T08:37:17.519Z</time></trkpt><trkpt lat="39.15326" lon="16.8997783"><ele>204.8</ele><time>2026-04-19T08:37:18.519Z</time></trkpt><trkpt lat="39.1531483" lon="16.8998133"><ele>201.60000000000002</ele><time>2026-04-19T08:37:19.519Z</time></trkpt><trkpt lat="39.1530433" lon="16.8997833"><ele>198.39999999999998</ele><time>2026-04-19T08:37:20.519Z</time></trkpt><trkpt lat="39.1529467" lon="16.8997117"><ele>195.2</ele><time>2026-04-19T08:37:21.519Z</time></trkpt><trkpt lat="39.1528767" lon="16.899605"><ele>192.0</ele><time>2026-04-19T08:37:22.519Z</time></trkpt><trkpt lat="39.15284" lon="16.89948"><ele>192.0</ele><time>2026-04-19T08:37:23.519Z</time></trkpt><trkpt lat="39.152845" lon="16.8993333"><ele>192.0</ele><time>2026-04-19T08:37:24.519Z</time></trkpt><trkpt lat="39.15287" lon="16.89918"><ele>192.0</ele><time>2026-04-19T08:37:25.519Z</time></trkpt><trkpt lat="39.152875" lon="16.8990167"><ele>192.0</ele><time>2026-04-19T08:37:26.52Z</time></trkpt><trkpt lat="39.1528683" lon="16.898825"><ele>196.0</ele><time>2026-04-19T08:37:27.519Z</time></trkpt><trkpt lat="39.1528483" lon="16.8986417"><ele>200.0</ele><time>2026-04-19T08:37:28.518Z</time></trkpt><trkpt lat="39.1528167" lon="16.8984517"><ele>204.0</ele><time>2026-04-19T08:37:29.518Z</time></trkpt><trkpt lat="39.1527817" lon="16.8982633"><ele>208.0</ele><time>2026-04-19T08:37:30.519Z</time></trkpt><trkpt lat="39.152735" lon="16.89809"><ele>209.5</ele><time>2026-04-19T08:37:31.518Z</time></trkpt><trkpt lat="39.1526983" lon="16.897915"><ele>211.0</ele><time>2026-04-19T08:37:32.518Z</time></trkpt><trkpt lat="39.1526567" lon="16.8977433"><ele>212.5</ele><time>2026-04-19T08:37:33.518Z</time></trkpt><trkpt lat="39.1525883" lon="16.8975883"><ele>214.0</ele><time>2026-04-19T08:37:34.518Z</time></trkpt><trkpt lat="39.1524883" lon="16.8974567"><ele>213.2</ele><time>2026-04-19T08:37:35.519Z</time></trkpt><trkpt lat="39.1523867" lon="16.8973567"><ele>212.39999999999998</ele><time>2026-04-19T08:37:36.518Z</time></trkpt><trkpt lat="39.1523067" lon="16.8972567"><ele>211.6</ele><time>2026-04-19T08:37:37.518Z</time></trkpt><trkpt lat="39.15226" lon="16.8971467"><ele>210.8</ele><time>2026-04-19T08:37:38.518Z</time></trkpt><trkpt lat="39.1522283" lon="16.89703"><ele>210.0</ele><time>2026-04-19T08:37:39.518Z</time></trkpt><trkpt lat="39.1522017" lon="16.8968983"><ele>210.0</ele><time>2026-04-19T08:37:40.518Z</time></trkpt><trkpt lat="39.152165" lon="16.89677"><ele>210.0</ele><time>2026-04-19T08:37:41.518Z</time></trkpt><trkpt lat="39.1521033" lon="16.896655"><ele>210.0</ele><time>2026-04-19T08:37:42.518Z</time></trkpt><trkpt lat="39.1520083" lon="16.8965583"><ele>210.0</ele><time>2026-04-19T08:37:43.518Z</time></trkpt><trkpt lat="39.1518767" lon="16.896505"><ele>208.25</ele><time>2026-04-19T08:37:44.518Z</time></trkpt><trkpt lat="39.151755" lon="16.896485"><ele>206.5</ele><time>2026-04-19T08:37:45.518Z</time></trkpt><trkpt lat="39.1516367" lon="16.89651"><ele>204.75</ele><time>2026-04-19T08:37:46.519Z</time></trkpt><trkpt lat="39.1515183" lon="16.89655"><ele>203.0</ele><time>2026-04-19T08:37:47.518Z</time></trkpt><trkpt lat="39.1514083" lon="16.8965733"><ele>203.0</ele><time>2026-04-19T08:37:48.518Z</time></trkpt><trkpt lat="39.1513117" lon="16.89655"><ele>203.0</ele><time>2026-04-19T08:37:49.518Z</time></trkpt><trkpt lat="39.1512567" lon="16.8964617"><ele>203.0</ele><time>2026-04-19T08:37:50.519Z</time></trkpt><trkpt lat="39.1512383" lon="16.8963417"><ele>203.0</ele><time>2026-04-19T08:37:51.519Z</time></trkpt><trkpt lat="39.1512617" lon="16.8961933"><ele>203.0</ele><time>2026-04-19T08:37:52.519Z</time></trkpt><trkpt lat="39.1513117" lon="16.8960617"><ele>203.0</ele><time>2026-04-19T08:37:53.518Z</time></trkpt><trkpt lat="39.151385" lon="16.895955"><ele>203.0</ele><time>2026-04-19T08:37:54.518Z</time></trkpt><trkpt lat="39.1514583" lon="16.8958533"><ele>203.0</ele><time>2026-04-19T08:37:55.518Z</time></trkpt><trkpt lat="39.1515233" lon="16.89573"><ele>203.0</ele><time>2026-04-19T08:37:56.518Z</time></trkpt><trkpt lat="39.1515583" lon="16.8955683"><ele>211.75</ele><time>2026-04-19T08:37:57.519Z</time></trkpt><trkpt lat="39.1515833" lon="16.895395"><ele>220.5</ele><time>2026-04-19T08:37:58.519Z</time></trkpt><trkpt lat="39.151605" lon="16.8952083"><ele>229.25</ele><time>2026-04-19T08:37:59.518Z</time></trkpt><trkpt lat="39.1516383" lon="16.8950233"><ele>238.0</ele><time>2026-04-19T08:38:00.518Z</time></trkpt><trkpt lat="39.1517017" lon="16.89487"><ele>238.0</ele><time>2026-04-19T08:38:01.518Z</time></trkpt><trkpt lat="39.1517683" lon="16.8947283"><ele>238.0</ele><time>2026-04-19T08:38:02.519Z</time></trkpt><trkpt lat="39.1518133" lon="16.8945967"><ele>238.0</ele><time>2026-04-19T08:38:03.518Z</time></trkpt><trkpt lat="39.151815" lon="16.89447"><ele>238.0</ele><time>2026-04-19T08:38:04.518Z</time></trkpt><trkpt lat="39.1517683" lon="16.8943417"><ele>238.0</ele><time>2026-04-19T08:38:05.518Z</time></trkpt><trkpt lat="39.1516883" lon="16.8942"><ele>236.5</ele><time>2026-04-19T08:38:06.518Z</time></trkpt><trkpt lat="39.15161" lon="16.89404"><ele>235.0</ele><time>2026-04-19T08:38:07.519Z</time></trkpt><trkpt lat="39.1515233" lon="16.893905"><ele>233.5</ele><time>2026-04-19T08:38:08.519Z</time></trkpt><trkpt lat="39.1514233" lon="16.8938167"><ele>232.0</ele><time>2026-04-19T08:38:09.518Z</time></trkpt><trkpt lat="39.151305" lon="16.8937783"><ele>232.0</ele><time>2026-04-19T08:38:10.518Z</time></trkpt><trkpt lat="39.1511833" lon="16.8937867"><ele>232.0</ele><time>2026-04-19T08:38:11.518Z</time></trkpt><trkpt lat="39.151045" lon="16.8938217"><ele>232.0</ele><time>2026-04-19T08:38:12.519Z</time></trkpt><trkpt lat="39.1509117" lon="16.89385"><ele>232.0</ele><time>2026-04-19T08:38:13.518Z</time></trkpt><trkpt lat="39.1507733" lon="16.8938617"><ele>231.25</ele><time>2026-04-19T08:38:14.519Z</time></trkpt><trkpt lat="39.1506433" lon="16.8938083"><ele>230.5</ele><time>2026-04-19T08:38:15.519Z</time></trkpt><trkpt lat="39.15051" lon="16.893725"><ele>229.75</ele><time>2026-04-19T08:38:16.518Z</time></trkpt><trkpt lat="39.1503867" lon="16.8936383"><ele>229.0</ele><time>2026-04-19T08:38:17.519Z</time></trkpt><trkpt lat="39.1502917" lon="16.8935333"><ele>231.0</ele><time>2026-04-19T08:38:18.518Z</time></trkpt><trkpt lat="39.1502483" lon="16.893405"><ele>233.0</ele><time>2026-04-19T08:38:19.519Z</time></trkpt><trkpt lat="39.1502217" lon="16.8932667"><ele>235.0</ele><time>2026-04-19T08:38:20.518Z</time></trkpt><trkpt lat="39.15021" lon="16.8931117"><ele>237.0</ele><time>2026-04-19T08:38:21.518Z</time></trkpt><trkpt lat="39.1502217" lon="16.892945"><ele>237.0</ele><time>2026-04-19T08:38:22.518Z</time></trkpt><trkpt lat="39.1502583" lon="16.8927833"><ele>237.0</ele><time>2026-04-19T08:38:23.519Z</time></trkpt><trkpt lat="39.15031" lon="16.89263"><ele>237.0</ele><time>2026-04-19T08:38:24.518Z</time></trkpt><trkpt lat="39.1503917" lon="16.8925"><ele>237.0</ele><time>2026-04-19T08:38:25.518Z</time></trkpt><trkpt lat="39.150485" lon="16.8923833"><ele>237.6</ele><time>2026-04-19T08:38:26.518Z</time></trkpt><trkpt lat="39.1505667" lon="16.8922717"><ele>238.2</ele><time>2026-04-19T08:38:27.519Z</time></trkpt><trkpt lat="39.1506333" lon="16.89216"><ele>238.8</ele><time>2026-04-19T08:38:28.518Z</time></trkpt><trkpt lat="39.15066" lon="16.8920333"><ele>239.4</ele><time>2026-04-19T08:38:29.518Z</time></trkpt><trkpt lat="39.150655" lon="16.8918917"><ele>240.0</ele><time>2026-04-19T08:38:30.518Z</time></trkpt><trkpt lat="39.1506267" lon="16.891745"><ele>240.0</ele><time>2026-04-19T08:38:31.518Z</time></trkpt><trkpt lat="39.15059" lon="16.8915967"><ele>240.0</ele><time>2026-04-19T08:38:32.519Z</time></trkpt><trkpt lat="39.15053" lon="16.8914367"><ele>240.0</ele><time>2026-04-19T08:38:33.518Z</time></trkpt><trkpt lat="39.1504583" lon="16.8912783"><ele>240.0</ele><time>2026-04-19T08:38:34.518Z</time></trkpt><trkpt lat="39.1503783" lon="16.89114"><ele>240.0</ele><time>2026-04-19T08:38:35.518Z</time></trkpt><trkpt lat="39.1502933" lon="16.891015"><ele>240.0</ele><time>2026-04-19T08:38:36.518Z</time></trkpt><trkpt lat="39.1501933" lon="16.890905"><ele>240.0</ele><time>2026-04-19T08:38:37.518Z</time></trkpt><trkpt lat="39.1501033" lon="16.8907833"><ele>240.0</ele><time>2026-04-19T08:38:38.518Z</time></trkpt><trkpt lat="39.15003" lon="16.8906533"><ele>243.5</ele><time>2026-04-19T08:38:39.518Z</time></trkpt><trkpt lat="39.1499683" lon="16.8905133"><ele>247.0</ele><time>2026-04-19T08:38:40.518Z</time></trkpt><trkpt lat="39.14992" lon="16.8903617"><ele>250.5</ele><time>2026-04-19T08:38:41.518Z</time></trkpt><trkpt lat="39.14989" lon="16.890195"><ele>254.0</ele><time>2026-04-19T08:38:42.518Z</time></trkpt><trkpt lat="39.1498783" lon="16.8900317"><ele>255.75</ele><time>2026-04-19T08:38:43.518Z</time></trkpt><trkpt lat="39.14988" lon="16.8898583"><ele>257.5</ele><time>2026-04-19T08:38:44.518Z</time></trkpt><trkpt lat="39.1498933" lon="16.88969"><ele>259.25</ele><time>2026-04-19T08:38:45.518Z</time></trkpt><trkpt lat="39.1498867" lon="16.8895317"><ele>261.0</ele><time>2026-04-19T08:38:46.518Z</time></trkpt><trkpt lat="39.1498767" lon="16.8893767"><ele>259.40000000000003</ele><time>2026-04-19T08:38:47.518Z</time></trkpt><trkpt lat="39.1498517" lon="16.889245"><ele>257.8</ele><time>2026-04-19T08:38:48.519Z</time></trkpt><trkpt lat="39.1498417" lon="16.88912"><ele>256.20000000000005</ele><time>2026-04-19T08:38:49.518Z</time></trkpt><trkpt lat="39.1498567" lon="16.8889983"><ele>254.60000000000002</ele><time>2026-04-19T08:38:50.518Z</time></trkpt><trkpt lat="39.1499133" lon="16.888885"><ele>253.0</ele><time>2026-04-19T08:38:51.518Z</time></trkpt><trkpt lat="39.14997" lon="16.8887867"><ele>252.99999999999997</ele><time>2026-04-19T08:38:52.518Z</time></trkpt><trkpt lat="39.1500217" lon="16.888685"><ele>253.0</ele><time>2026-04-19T08:38:53.518Z</time></trkpt><trkpt lat="39.150065" lon="16.888585"><ele>253.0</ele><time>2026-04-19T08:38:54.518Z</time></trkpt><trkpt lat="39.1500817" lon="16.8884767"><ele>253.0</ele><time>2026-04-19T08:38:55.518Z</time></trkpt><trkpt lat="39.1500633" lon="16.88838"><ele>252.99999999999997</ele><time>2026-04-19T08:38:56.518Z</time></trkpt><trkpt lat="39.15002" lon="16.8882917"><ele>253.0</ele><time>2026-04-19T08:38:57.519Z</time></trkpt><trkpt lat="39.1499667" lon="16.8882083"><ele>251.83333333333331</ele><time>2026-04-19T08:38:58.518Z</time></trkpt><trkpt lat="39.1499117" lon="16.8881217"><ele>250.66666666666666</ele><time>2026-04-19T08:38:59.518Z</time></trkpt><trkpt lat="39.1498483" lon="16.888065"><ele>249.5</ele><time>2026-04-19T08:39:00.518Z</time></trkpt><trkpt lat="39.1497633" lon="16.8880483"><ele>248.33333333333331</ele><time>2026-04-19T08:39:01.519Z</time></trkpt><trkpt lat="39.1496767" lon="16.8880567"><ele>247.16666666666666</ele><time>2026-04-19T08:39:02.518Z</time></trkpt><trkpt lat="39.149575" lon="16.8880633"><ele>246.0</ele><time>2026-04-19T08:39:03.518Z</time></trkpt><trkpt lat="39.149475" lon="16.8880367"><ele>245.0</ele><time>2026-04-19T08:39:04.519Z</time></trkpt><trkpt lat="39.1493883" lon="16.8879683"><ele>244.00000000000003</ele><time>2026-04-19T08:39:05.518Z</time></trkpt><trkpt lat="39.1493133" lon="16.8878667"><ele>243.00000000000003</ele><time>2026-04-19T08:39:06.518Z</time></trkpt><trkpt lat="39.149255" lon="16.8877433"><ele>242.0</ele><time>2026-04-19T08:39:07.518Z</time></trkpt><trkpt lat="39.1492067" lon="16.8876117"><ele>241.0</ele><time>2026-04-19T08:39:08.518Z</time></trkpt><trkpt lat="39.1491617" lon="16.88747"><ele>241.0</ele><time>2026-04-19T08:39:09.518Z</time></trkpt><trkpt lat="39.1491067" lon="16.8873267"><ele>241.0</ele><time>2026-04-19T08:39:10.518Z</time></trkpt><trkpt lat="39.1490283" lon="16.8872083"><ele>241.0</ele><time>2026-04-19T08:39:11.518Z</time></trkpt><trkpt lat="39.14894" lon="16.8871283"><ele>241.0</ele><time>2026-04-19T08:39:12.518Z</time></trkpt><trkpt lat="39.14884" lon="16.8870783"><ele>240.66666666666666</ele><time>2026-04-19T08:39:13.518Z</time></trkpt><trkpt lat="39.1487467" lon="16.8870417"><ele>240.33333333333331</ele><time>2026-04-19T08:39:14.518Z</time></trkpt><trkpt lat="39.1486667" lon="16.88699"><ele>240.0</ele><time>2026-04-19T08:39:15.518Z</time></trkpt><trkpt lat="39.1486167" lon="16.8869133"><ele>239.66666666666669</ele><time>2026-04-19T08:39:16.518Z</time></trkpt><trkpt lat="39.1486017" lon="16.8868183"><ele>239.33333333333334</ele><time>2026-04-19T08:39:17.519Z</time></trkpt><trkpt lat="39.148605" lon="16.8867133"><ele>239.0</ele><time>2026-04-19T08:39:18.518Z</time></trkpt><trkpt lat="39.1486283" lon="16.8865917"><ele>239.0</ele><time>2026-04-19T08:39:19.519Z</time></trkpt><trkpt lat="39.1486717" lon="16.8864633"><ele>239.0</ele><time>2026-04-19T08:39:20.519Z</time></trkpt><trkpt lat="39.1487283" lon="16.8863367"><ele>239.0</ele><time>2026-04-19T08:39:21.519Z</time></trkpt><trkpt lat="39.1488017" lon="16.88621"><ele>239.0</ele><time>2026-04-19T08:39:22.518Z</time></trkpt><trkpt lat="39.1488767" lon="16.8860817"><ele>239.0</ele><time>2026-04-19T08:39:23.519Z</time></trkpt><trkpt lat="39.1489383" lon="16.88595"><ele>239.0</ele><time>2026-04-19T08:39:24.518Z</time></trkpt><trkpt lat="39.148985" lon="16.885805"><ele>239.0</ele><time>2026-04-19T08:39:25.518Z</time></trkpt><trkpt lat="39.1490183" lon="16.8856767"><ele>239.0</ele><time>2026-04-19T08:39:26.518Z</time></trkpt><trkpt lat="39.1490367" lon="16.885545"><ele>237.2</ele><time>2026-04-19T08:39:27.519Z</time></trkpt><trkpt lat="39.149035" lon="16.8854217"><ele>235.39999999999998</ele><time>2026-04-19T08:39:28.518Z</time></trkpt><trkpt lat="39.14901" lon="16.885305"><ele>233.6</ele><time>2026-04-19T08:39:29.518Z</time></trkpt><trkpt lat="39.1489667" lon="16.8851933"><ele>231.8</ele><time>2026-04-19T08:39:30.518Z</time></trkpt><trkpt lat="39.14891" lon="16.885095"><ele>230.0</ele><time>2026-04-19T08:39:31.518Z</time></trkpt><trkpt lat="39.1488533" lon="16.8849933"><ele>228.8</ele><time>2026-04-19T08:39:32.518Z</time></trkpt><trkpt lat="39.1487983" lon="16.8848833"><ele>227.6</ele><time>2026-04-19T08:39:33.518Z</time></trkpt><trkpt lat="39.14876" lon="16.8847633"><ele>226.39999999999998</ele><time>2026-04-19T08:39:34.519Z</time></trkpt><trkpt lat="39.1487283" lon="16.8846333"><ele>225.2</ele><time>2026-04-19T08:39:35.518Z</time></trkpt><trkpt lat="39.1487167" lon="16.8844983"><ele>224.0</ele><time>2026-04-19T08:39:36.519Z</time></trkpt><trkpt lat="39.1487333" lon="16.884355"><ele>223.39999999999998</ele><time>2026-04-19T08:39:37.518Z</time></trkpt><trkpt lat="39.1487683" lon="16.8842233"><ele>222.79999999999998</ele><time>2026-04-19T08:39:38.519Z</time></trkpt><trkpt lat="39.1488333" lon="16.8841233"><ele>222.20000000000002</ele><time>2026-04-19T08:39:39.518Z</time></trkpt><trkpt lat="39.1489233" lon="16.8840433"><ele>221.60000000000002</ele><time>2026-04-19T08:39:40.519Z</time></trkpt><trkpt lat="39.14901" lon="16.8839717"><ele>221.0</ele><time>2026-04-19T08:39:41.518Z</time></trkpt><trkpt lat="39.1490833" lon="16.883875"><ele>222.0</ele><time>2026-04-19T08:39:42.518Z</time></trkpt><trkpt lat="39.1491433" lon="16.8837567"><ele>223.0</ele><time>2026-04-19T08:39:43.518Z</time></trkpt><trkpt lat="39.1491867" lon="16.8836183"><ele>224.0</ele><time>2026-04-19T08:39:44.518Z</time></trkpt><trkpt lat="39.1492133" lon="16.8834683"><ele>225.0</ele><time>2026-04-19T08:39:45.518Z</time></trkpt><trkpt lat="39.14923" lon="16.8833183"><ele>225.0</ele><time>2026-04-19T08:39:46.518Z</time></trkpt><trkpt lat="39.1492483" lon="16.88317"><ele>225.0</ele><time>2026-04-19T08:39:47.519Z</time></trkpt><trkpt lat="39.1492717" lon="16.883015"><ele>225.0</ele><time>2026-04-19T08:39:48.519Z</time></trkpt><trkpt lat="39.1492983" lon="16.88287"><ele>225.0</ele><time>2026-04-19T08:39:49.518Z</time></trkpt><trkpt lat="39.1493283" lon="16.8827367"><ele>225.0</ele><time>2026-04-19T08:39:50.518Z</time></trkpt><trkpt lat="39.1493683" lon="16.8826167"><ele>225.0</ele><time>2026-04-19T08:39:51.519Z</time></trkpt><trkpt lat="39.1494217" lon="16.8824983"><ele>225.0</ele><time>2026-04-19T08:39:52.518Z</time></trkpt><trkpt lat="39.1494917" lon="16.88239"><ele>225.0</ele><time>2026-04-19T08:39:53.518Z</time></trkpt><trkpt lat="39.1495717" lon="16.8822867"><ele>225.0</ele><time>2026-04-19T08:39:54.518Z</time></trkpt><trkpt lat="39.1496617" lon="16.8821983"><ele>224.5</ele><time>2026-04-19T08:39:55.518Z</time></trkpt><trkpt lat="39.1497567" lon="16.882115"><ele>224.0</ele><time>2026-04-19T08:39:56.518Z</time></trkpt><trkpt lat="39.1498633" lon="16.88204"><ele>223.5</ele><time>2026-04-19T08:39:57.518Z</time></trkpt><trkpt lat="39.14997" lon="16.8819833"><ele>223.0</ele><time>2026-04-19T08:39:58.518Z</time></trkpt><trkpt lat="39.1500767" lon="16.8819283"><ele>223.0</ele><time>2026-04-19T08:39:59.518Z</time></trkpt><trkpt lat="39.1501833" lon="16.881875"><ele>223.0</ele><time>2026-04-19T08:40:00.518Z</time></trkpt><trkpt lat="39.150305" lon="16.8818317"><ele>223.0</ele><time>2026-04-19T08:40:01.519Z</time></trkpt><trkpt lat="39.1504283" lon="16.8818017"><ele>223.0</ele><time>2026-04-19T08:40:02.518Z</time></trkpt><trkpt lat="39.15056" lon="16.88178"><ele>220.75</ele><time>2026-04-19T08:40:03.518Z</time></trkpt><trkpt lat="39.1506833" lon="16.8817583"><ele>218.5</ele><time>2026-04-19T08:40:04.518Z</time></trkpt><trkpt lat="39.1508067" lon="16.8817583"><ele>216.25</ele><time>2026-04-19T08:40:05.518Z</time></trkpt><trkpt lat="39.1509267" lon="16.8817383"><ele>214.0</ele><time>2026-04-19T08:40:06.519Z</time></trkpt><trkpt lat="39.1510367" lon="16.881695"><ele>213.83333333333331</ele><time>2026-04-19T08:40:07.518Z</time></trkpt><trkpt lat="39.15112" lon="16.881635"><ele>213.66666666666666</ele><time>2026-04-19T08:40:08.518Z</time></trkpt><trkpt lat="39.151175" lon="16.8815467"><ele>213.5</ele><time>2026-04-19T08:40:09.519Z</time></trkpt><trkpt lat="39.1512117" lon="16.8814467"><ele>213.33333333333331</ele><time>2026-04-19T08:40:10.518Z</time></trkpt><trkpt lat="39.1512083" lon="16.8813583"><ele>213.16666666666666</ele><time>2026-04-19T08:40:11.518Z</time></trkpt><trkpt lat="39.151175" lon="16.8812833"><ele>213.0</ele><time>2026-04-19T08:40:12.519Z</time></trkpt><trkpt lat="39.1510967" lon="16.8812567"><ele>213.0</ele><time>2026-04-19T08:40:13.518Z</time></trkpt><trkpt lat="39.15101" lon="16.8812483"><ele>213.0</ele><time>2026-04-19T08:40:14.519Z</time></trkpt><trkpt lat="39.1509133" lon="16.8812517"><ele>213.0</ele><time>2026-04-19T08:40:15.519Z</time></trkpt><trkpt lat="39.1508117" lon="16.88127"><ele>213.0</ele><time>2026-04-19T08:40:16.518Z</time></trkpt><trkpt lat="39.1507067" lon="16.88128"><ele>213.0</ele><time>2026-04-19T08:40:17.518Z</time></trkpt><trkpt lat="39.150595" lon="16.8812867"><ele>213.2</ele><time>2026-04-19T08:40:18.519Z</time></trkpt><trkpt lat="39.1504817" lon="16.881295"><ele>213.4</ele><time>2026-04-19T08:40:19.518Z</time></trkpt><trkpt lat="39.1503733" lon="16.8812967"><ele>213.59999999999997</ele><time>2026-04-19T08:40:20.518Z</time></trkpt><trkpt lat="39.15026" lon="16.8813017"><ele>213.79999999999998</ele><time>2026-04-19T08:40:21.518Z</time></trkpt><trkpt lat="39.1501483" lon="16.8812967"><ele>214.0</ele><time>2026-04-19T08:40:22.519Z</time></trkpt><trkpt lat="39.15004" lon="16.8812983"><ele>214.0</ele><time>2026-04-19T08:40:23.518Z</time></trkpt><trkpt lat="39.1499267" lon="16.881305"><ele>213.99999999999997</ele><time>2026-04-19T08:40:24.518Z</time></trkpt><trkpt lat="39.14982" lon="16.88131"><ele>213.99999999999997</ele><time>2026-04-19T08:40:25.518Z</time></trkpt><trkpt lat="39.149705" lon="16.8813133"><ele>214.0</ele><time>2026-04-19T08:40:26.519Z</time></trkpt><trkpt lat="39.1496017" lon="16.8813283"><ele>214.0</ele><time>2026-04-19T08:40:27.519Z</time></trkpt><trkpt lat="39.149505" lon="16.881355"><ele>212.79999999999998</ele><time>2026-04-19T08:40:28.518Z</time></trkpt><trkpt lat="39.1494117" lon="16.881385"><ele>211.59999999999997</ele><time>2026-04-19T08:40:29.519Z</time></trkpt><trkpt lat="39.149315" lon="16.88141"><ele>210.4</ele><time>2026-04-19T08:40:30.518Z</time></trkpt><trkpt lat="39.1492217" lon="16.88144"><ele>209.2</ele><time>2026-04-19T08:40:31.518Z</time></trkpt><trkpt lat="39.1491367" lon="16.8814783"><ele>208.0</ele><time>2026-04-19T08:40:32.518Z</time></trkpt><trkpt lat="39.1490433" lon="16.88152"><ele>205.60000000000002</ele><time>2026-04-19T08:40:33.518Z</time></trkpt><trkpt lat="39.148955" lon="16.88156"><ele>203.20000000000002</ele><time>2026-04-19T08:40:34.518Z</time></trkpt><trkpt lat="39.148855" lon="16.881605"><ele>200.8</ele><time>2026-04-19T08:40:35.518Z</time></trkpt><trkpt lat="39.148755" lon="16.8816517"><ele>198.4</ele><time>2026-04-19T08:40:36.518Z</time></trkpt><trkpt lat="39.14865" lon="16.8816967"><ele>196.0</ele><time>2026-04-19T08:40:37.518Z</time></trkpt><trkpt lat="39.1485417" lon="16.8817583"><ele>196.0</ele><time>2026-04-19T08:40:38.518Z</time></trkpt><trkpt lat="39.1484333" lon="16.8818317"><ele>196.0</ele><time>2026-04-19T08:40:39.518Z</time></trkpt><trkpt lat="39.14833" lon="16.8819183"><ele>196.0</ele><time>2026-04-19T08:40:40.518Z</time></trkpt><trkpt lat="39.1482217" lon="16.88201"><ele>196.0</ele><time>2026-04-19T08:40:41.519Z</time></trkpt><trkpt lat="39.1481083" lon="16.8821133"><ele>196.0</ele><time>2026-04-19T08:40:42.518Z</time></trkpt><trkpt lat="39.1480033" lon="16.8822217"><ele>196.0</ele><time>2026-04-19T08:40:43.518Z</time></trkpt><trkpt lat="39.1478917" lon="16.8823183"><ele>196.0</ele><time>2026-04-19T08:40:44.519Z</time></trkpt><trkpt lat="39.1477783" lon="16.88241"><ele>196.0</ele><time>2026-04-19T08:40:45.518Z</time></trkpt><trkpt lat="39.14765" lon="16.8824817"><ele>196.0</ele><time>2026-04-19T08:40:46.518Z</time></trkpt><trkpt lat="39.1475167" lon="16.8825383"><ele>196.0</ele><time>2026-04-19T08:40:47.518Z</time></trkpt><trkpt lat="39.14739" lon="16.8825733"><ele>196.0</ele><time>2026-04-19T08:40:48.518Z</time></trkpt><trkpt lat="39.1472467" lon="16.882595"><ele>196.0</ele><time>2026-04-19T08:40:49.519Z</time></trkpt><trkpt lat="39.14711" lon="16.8826067"><ele>194.5</ele><time>2026-04-19T08:40:50.518Z</time></trkpt><trkpt lat="39.1469717" lon="16.8825867"><ele>193.0</ele><time>2026-04-19T08:40:51.518Z</time></trkpt><trkpt lat="39.1468333" lon="16.882545"><ele>191.5</ele><time>2026-04-19T08:40:52.518Z</time></trkpt><trkpt lat="39.1466917" lon="16.8824767"><ele>190.0</ele><time>2026-04-19T08:40:53.518Z</time></trkpt><trkpt lat="39.146555" lon="16.88237"><ele>192.0</ele><time>2026-04-19T08:40:54.518Z</time></trkpt><trkpt lat="39.146415" lon="16.8822617"><ele>194.0</ele><time>2026-04-19T08:40:55.518Z</time></trkpt><trkpt lat="39.1462833" lon="16.8821533"><ele>196.0</ele><time>2026-04-19T08:40:56.518Z</time></trkpt><trkpt lat="39.1461667" lon="16.8820467"><ele>196.0</ele><time>2026-04-19T08:40:57.518Z</time></trkpt><trkpt lat="39.1460533" lon="16.88194"><ele>196.0</ele><time>2026-04-19T08:40:58.519Z</time></trkpt><trkpt lat="39.1459417" lon="16.8818133"><ele>196.0</ele><time>2026-04-19T08:40:59.519Z</time></trkpt><trkpt lat="39.1458433" lon="16.8816717"><ele>196.0</ele><time>2026-04-19T08:41:00.518Z</time></trkpt><trkpt lat="39.1457583" lon="16.8815067"><ele>195.0</ele><time>2026-04-19T08:41:01.519Z</time></trkpt><trkpt lat="39.14567" lon="16.88134"><ele>194.0</ele><time>2026-04-19T08:41:02.519Z</time></trkpt><trkpt lat="39.14559" lon="16.8811783"><ele>193.0</ele><time>2026-04-19T08:41:03.518Z</time></trkpt><trkpt lat="39.1455133" lon="16.8810233"><ele>192.0</ele><time>2026-04-19T08:41:04.518Z</time></trkpt><trkpt lat="39.1454333" lon="16.88088"><ele>191.0</ele><time>2026-04-19T08:41:05.518Z</time></trkpt><trkpt lat="39.1453483" lon="16.8807317"><ele>190.0</ele><time>2026-04-19T08:41:06.519Z</time></trkpt><trkpt lat="39.1452767" lon="16.8805933"><ele>189.0</ele><time>2026-04-19T08:41:07.518Z</time></trkpt><trkpt lat="39.1451967" lon="16.8804583"><ele>188.0</ele><time>2026-04-19T08:41:08.518Z</time></trkpt><trkpt lat="39.1451167" lon="16.8803233"><ele>188.0</ele><time>2026-04-19T08:41:09.518Z</time></trkpt><trkpt lat="39.1450333" lon="16.88019"><ele>188.0</ele><time>2026-04-19T08:41:10.519Z</time></trkpt><trkpt lat="39.14494" lon="16.8800467"><ele>188.0</ele><time>2026-04-19T08:41:11.518Z</time></trkpt><trkpt lat="39.1448333" lon="16.8799017"><ele>188.0</ele><time>2026-04-19T08:41:12.519Z</time></trkpt><trkpt lat="39.1447117" lon="16.87976"><ele>185.0</ele><time>2026-04-19T08:41:13.518Z</time></trkpt><trkpt lat="39.14461" lon="16.8796217"><ele>182.0</ele><time>2026-04-19T08:41:14.519Z</time></trkpt><trkpt lat="39.1444967" lon="16.8794733"><ele>179.0</ele><time>2026-04-19T08:41:15.518Z</time></trkpt><trkpt lat="39.1443817" lon="16.87932"><ele>178.33333333333331</ele><time>2026-04-19T08:41:16.518Z</time></trkpt><trkpt lat="39.14426" lon="16.8791467"><ele>177.66666666666666</ele><time>2026-04-19T08:41:17.518Z</time></trkpt><trkpt lat="39.1441383" lon="16.8789767"><ele>177.0</ele><time>2026-04-19T08:41:18.518Z</time></trkpt><trkpt lat="39.1440133" lon="16.8788117"><ele>177.0</ele><time>2026-04-19T08:41:19.519Z</time></trkpt><trkpt lat="39.1438917" lon="16.8786483"><ele>177.0</ele><time>2026-04-19T08:41:20.519Z</time></trkpt><trkpt lat="39.1437617" lon="16.8785017"><ele>177.0</ele><time>2026-04-19T08:41:21.518Z</time></trkpt><trkpt lat="39.1436217" lon="16.87838"><ele>177.0</ele><time>2026-04-19T08:41:22.518Z</time></trkpt><trkpt lat="39.143455" lon="16.8782883"><ele>177.0</ele><time>2026-04-19T08:41:23.518Z</time></trkpt><trkpt lat="39.1432783" lon="16.8782267"><ele>177.0</ele><time>2026-04-19T08:41:24.518Z</time></trkpt><trkpt lat="39.143095" lon="16.8781683"><ele>177.0</ele><time>2026-04-19T08:41:25.518Z</time></trkpt><trkpt lat="39.1429217" lon="16.8781017"><ele>177.0</ele><time>2026-04-19T08:41:26.519Z</time></trkpt><trkpt lat="39.1427533" lon="16.8780333"><ele>177.0</ele><time>2026-04-19T08:41:27.518Z</time></trkpt><trkpt lat="39.142585" lon="16.8779867"><ele>177.0</ele><time>2026-04-19T08:41:28.519Z</time></trkpt><trkpt lat="39.1424317" lon="16.8779183"><ele>177.0</ele><time>2026-04-19T08:41:29.518Z</time></trkpt><trkpt lat="39.1422967" lon="16.877845"><ele>177.0</ele><time>2026-04-19T08:41:30.519Z</time></trkpt><trkpt lat="39.14217" lon="16.87774"><ele>177.0</ele><time>2026-04-19T08:41:31.518Z</time></trkpt><trkpt lat="39.14207" lon="16.87759"><ele>177.0</ele><time>2026-04-19T08:41:32.518Z</time></trkpt><trkpt lat="39.1419883" lon="16.87742"><ele>177.0</ele><time>2026-04-19T08:41:33.519Z</time></trkpt><trkpt lat="39.1419117" lon="16.8772417"><ele>177.0</ele><time>2026-04-19T08:41:34.518Z</time></trkpt><trkpt lat="39.1418367" lon="16.87707"><ele>177.0</ele><time>2026-04-19T08:41:35.518Z</time></trkpt><trkpt lat="39.1417583" lon="16.87691"><ele>177.0</ele><time>2026-04-19T08:41:36.518Z</time></trkpt><trkpt lat="39.1416683" lon="16.8767733"><ele>177.0</ele><time>2026-04-19T08:41:37.518Z</time></trkpt><trkpt lat="39.141555" lon="16.8766883"><ele>175.5</ele><time>2026-04-19T08:41:38.518Z</time></trkpt><trkpt lat="39.1414267" lon="16.8766467"><ele>174.0</ele><time>2026-04-19T08:41:39.518Z</time></trkpt><trkpt lat="39.141285" lon="16.8766167"><ele>172.5</ele><time>2026-04-19T08:41:40.518Z</time></trkpt><trkpt lat="39.1411483" lon="16.87659"><ele>171.0</ele><time>2026-04-19T08:41:41.518Z</time></trkpt><trkpt lat="39.1410333" lon="16.8765583"><ele>171.0</ele><time>2026-04-19T08:41:42.518Z</time></trkpt><trkpt lat="39.1409333" lon="16.8765333"><ele>171.0</ele><time>2026-04-19T08:41:43.519Z</time></trkpt><trkpt lat="39.1408317" lon="16.8765033"><ele>171.0</ele><time>2026-04-19T08:41:44.519Z</time></trkpt><trkpt lat="39.1407433" lon="16.87648"><ele>171.0</ele><time>2026-04-19T08:41:45.518Z</time></trkpt><trkpt lat="39.1406567" lon="16.876455"><ele>171.0</ele><time>2026-04-19T08:41:46.518Z</time></trkpt><trkpt lat="39.14057" lon="16.8764267"><ele>171.20000000000002</ele><time>2026-04-19T08:41:47.518Z</time></trkpt><trkpt lat="39.140475" lon="16.876395"><ele>171.4</ele><time>2026-04-19T08:41:48.519Z</time></trkpt><trkpt lat="39.1403783" lon="16.8763683"><ele>171.6</ele><time>2026-04-19T08:41:49.518Z</time></trkpt><trkpt lat="39.14028" lon="16.8763317"><ele>171.8</ele><time>2026-04-19T08:41:50.518Z</time></trkpt><trkpt lat="39.1401817" lon="16.87631"><ele>172.0</ele><time>2026-04-19T08:41:51.518Z</time></trkpt><trkpt lat="39.1400767" lon="16.8762817"><ele>172.0</ele><time>2026-04-19T08:41:52.519Z</time></trkpt><trkpt lat="39.1399717" lon="16.8762467"><ele>172.0</ele><time>2026-04-19T08:41:53.518Z</time></trkpt><trkpt lat="39.139875" lon="16.87621"><ele>172.0</ele><time>2026-04-19T08:41:54.518Z</time></trkpt><trkpt lat="39.139775" lon="16.8761733"><ele>172.0</ele><time>2026-04-19T08:41:55.519Z</time></trkpt><trkpt lat="39.1396783" lon="16.8761233"><ele>172.0</ele><time>2026-04-19T08:41:56.518Z</time></trkpt><trkpt lat="39.1395867" lon="16.8760683"><ele>171.8</ele><time>2026-04-19T08:41:57.518Z</time></trkpt><trkpt lat="39.1394967" lon="16.8760183"><ele>171.6</ele><time>2026-04-19T08:41:58.518Z</time></trkpt><trkpt lat="39.139405" lon="16.8759667"><ele>171.4</ele><time>2026-04-19T08:41:59.518Z</time></trkpt><trkpt lat="39.1393167" lon="16.8759017"><ele>171.20000000000002</ele><time>2026-04-19T08:42:00.518Z</time></trkpt><trkpt lat="39.1392217" lon="16.8758433"><ele>171.0</ele><time>2026-04-19T08:42:01.518Z</time></trkpt><trkpt lat="39.1391283" lon="16.8757983"><ele>171.8</ele><time>2026-04-19T08:42:02.518Z</time></trkpt><trkpt lat="39.1390183" lon="16.8757683"><ele>172.60000000000002</ele><time>2026-04-19T08:42:03.519Z</time></trkpt><trkpt lat="39.1389083" lon="16.87575"><ele>173.4</ele><time>2026-04-19T08:42:04.518Z</time></trkpt><trkpt lat="39.1387983" lon="16.8757317"><ele>174.2</ele><time>2026-04-19T08:42:05.518Z</time></trkpt><trkpt lat="39.1386867" lon="16.8757117"><ele>175.0</ele><time>2026-04-19T08:42:06.518Z</time></trkpt><trkpt lat="39.1385767" lon="16.8756817"><ele>175.0</ele><time>2026-04-19T08:42:07.518Z</time></trkpt><trkpt lat="39.138465" lon="16.8756517"><ele>175.0</ele><time>2026-04-19T08:42:08.519Z</time></trkpt><trkpt lat="39.13836" lon="16.8756067"><ele>175.0</ele><time>2026-04-19T08:42:09.519Z</time></trkpt><trkpt lat="39.1382583" lon="16.8755417"><ele>175.0</ele><time>2026-04-19T08:42:10.518Z</time></trkpt><trkpt lat="39.1381633" lon="16.8754633"><ele>177.2</ele><time>2026-04-19T08:42:11.518Z</time></trkpt><trkpt lat="39.1380583" lon="16.8754033"><ele>179.4</ele><time>2026-04-19T08:42:12.518Z</time></trkpt><trkpt lat="39.137955" lon="16.87536"><ele>181.60000000000002</ele><time>2026-04-19T08:42:13.518Z</time></trkpt><trkpt lat="39.13785" lon="16.8753233"><ele>183.8</ele><time>2026-04-19T08:42:14.518Z</time></trkpt><trkpt lat="39.1377433" lon="16.87528"><ele>186.0</ele><time>2026-04-19T08:42:15.518Z</time></trkpt><trkpt lat="39.1376433" lon="16.875215"><ele>186.0</ele><time>2026-04-19T08:42:16.519Z</time></trkpt><trkpt lat="39.1375567" lon="16.87514"><ele>186.0</ele><time>2026-04-19T08:42:17.518Z</time></trkpt><trkpt lat="39.1374883" lon="16.8750417"><ele>186.0</ele><time>2026-04-19T08:42:18.519Z</time></trkpt><trkpt lat="39.137455" lon="16.8749217"><ele>186.0</ele><time>2026-04-19T08:42:19.518Z</time></trkpt><trkpt lat="39.1374433" lon="16.874795"><ele>186.0</ele><time>2026-04-19T08:42:20.519Z</time></trkpt><trkpt lat="39.1374533" lon="16.874675"><ele>185.5</ele><time>2026-04-19T08:42:21.518Z</time></trkpt><trkpt lat="39.137485" lon="16.874575"><ele>185.0</ele><time>2026-04-19T08:42:22.518Z</time></trkpt><trkpt lat="39.1374933" lon="16.8744733"><ele>184.5</ele><time>2026-04-19T08:42:23.518Z</time></trkpt><trkpt lat="39.13743" lon="16.8743567"><ele>184.0</ele><time>2026-04-19T08:42:24.518Z</time></trkpt><trkpt lat="39.1373867" lon="16.8742683"><ele>183.5</ele><time>2026-04-19T08:42:25.518Z</time></trkpt><trkpt lat="39.1373367" lon="16.8741867"><ele>183.0</ele><time>2026-04-19T08:42:26.518Z</time></trkpt><trkpt lat="39.13728" lon="16.8741167"><ele>182.83333333333334</ele><time>2026-04-19T08:42:27.518Z</time></trkpt><trkpt lat="39.1372133" lon="16.8740583"><ele>182.66666666666666</ele><time>2026-04-19T08:42:28.519Z</time></trkpt><trkpt lat="39.13715" lon="16.874"><ele>182.5</ele><time>2026-04-19T08:42:29.518Z</time></trkpt><trkpt lat="39.1370817" lon="16.8739567"><ele>182.33333333333331</ele><time>2026-04-19T08:42:30.518Z</time></trkpt><trkpt lat="39.137015" lon="16.8739333"><ele>182.16666666666666</ele><time>2026-04-19T08:42:31.518Z</time></trkpt><trkpt lat="39.1369333" lon="16.87394"><ele>182.0</ele><time>2026-04-19T08:42:32.518Z</time></trkpt><trkpt lat="39.136855" lon="16.8739617"><ele>182.0</ele><time>2026-04-19T08:42:33.518Z</time></trkpt><trkpt lat="39.1367817" lon="16.8740017"><ele>182.0</ele><time>2026-04-19T08:42:34.518Z</time></trkpt><trkpt lat="39.1367033" lon="16.87404"><ele>182.0</ele><time>2026-04-19T08:42:35.518Z</time></trkpt><trkpt lat="39.13662" lon="16.874075"><ele>182.0</ele><time>2026-04-19T08:42:36.518Z</time></trkpt><trkpt lat="39.13654" lon="16.8740983"><ele>182.0</ele><time>2026-04-19T08:42:37.518Z</time></trkpt><trkpt lat="39.13647" lon="16.874105"><ele>182.0</ele><time>2026-04-19T08:42:38.518Z</time></trkpt><trkpt lat="39.1363433" lon="16.8740983"><ele>181.85714285714286</ele><time>2026-04-19T08:42:40.518Z</time></trkpt><trkpt lat="39.136275" lon="16.8740883"><ele>181.71428571428572</ele><time>2026-04-19T08:42:41.518Z</time></trkpt><trkpt lat="39.13621" lon="16.8740645"><ele>181.57142857142856</ele><time>2026-04-19T08:42:42.518Z</time></trkpt><trkpt lat="39.1361471" lon="16.8740437"><ele>181.42857142857144</ele><time>2026-04-19T08:42:43.518Z</time></trkpt><trkpt lat="39.1360852" lon="16.8740187"><ele>181.28571428571428</ele><time>2026-04-19T08:42:44.518Z</time></trkpt><trkpt lat="39.1360227" lon="16.87399"><ele>181.14285714285714</ele><time>2026-04-19T08:42:45.518Z</time></trkpt><trkpt lat="39.1359528" lon="16.873962"><ele>181.0</ele><time>2026-04-19T08:42:46.518Z</time></trkpt><trkpt lat="39.135881" lon="16.8739332"><ele>181.0</ele><time>2026-04-19T08:42:47.519Z</time></trkpt><trkpt lat="39.1358104" lon="16.8738957"><ele>181.0</ele><time>2026-04-19T08:42:48.518Z</time></trkpt><trkpt lat="39.1357417" lon="16.873841"><ele>181.0</ele><time>2026-04-19T08:42:49.518Z</time></trkpt><trkpt lat="39.1356741" lon="16.8737583"><ele>181.0</ele><time>2026-04-19T08:42:50.518Z</time></trkpt><trkpt lat="39.1356016" lon="16.8736548"><ele>181.0</ele><time>2026-04-19T08:42:51.518Z</time></trkpt><trkpt lat="39.1355186" lon="16.8735418"><ele>180.25</ele><time>2026-04-19T08:42:52.518Z</time></trkpt><trkpt lat="39.1354293" lon="16.873413"><ele>179.5</ele><time>2026-04-19T08:42:53.518Z</time></trkpt><trkpt lat="39.1353268" lon="16.8732491"><ele>178.75</ele><time>2026-04-19T08:42:54.518Z</time></trkpt><trkpt lat="39.1352243" lon="16.873113"><ele>178.0</ele><time>2026-04-19T08:42:55.518Z</time></trkpt><trkpt lat="39.135121" lon="16.8729671"><ele>178.0</ele><time>2026-04-19T08:42:56.518Z</time></trkpt><trkpt lat="39.135013" lon="16.8728179"><ele>178.0</ele><time>2026-04-19T08:42:57.518Z</time></trkpt><trkpt lat="39.1349007" lon="16.8726674"><ele>178.0</ele><time>2026-04-19T08:42:58.518Z</time></trkpt><trkpt lat="39.1347849" lon="16.8725147"><ele>175.33333333333334</ele><time>2026-04-19T08:42:59.518Z</time></trkpt><trkpt lat="39.1346699" lon="16.8723645"><ele>172.66666666666666</ele><time>2026-04-19T08:43:00.518Z</time></trkpt><trkpt lat="39.1345586" lon="16.8722177"><ele>170.0</ele><time>2026-04-19T08:43:01.518Z</time></trkpt><trkpt lat="39.1344563" lon="16.872075"><ele>170.0</ele><time>2026-04-19T08:43:02.518Z</time></trkpt><trkpt lat="39.1343561" lon="16.871934"><ele>170.0</ele><time>2026-04-19T08:43:03.518Z</time></trkpt><trkpt lat="39.1342566" lon="16.8717979"><ele>170.0</ele><time>2026-04-19T08:43:04.519Z</time></trkpt><trkpt lat="39.134154" lon="16.8716651"><ele>170.0</ele><time>2026-04-19T08:43:05.518Z</time></trkpt><trkpt lat="39.1340483" lon="16.8715317"><ele>168.0</ele><time>2026-04-19T08:43:06.518Z</time></trkpt><trkpt lat="39.1339467" lon="16.8713917"><ele>166.0</ele><time>2026-04-19T08:43:07.519Z</time></trkpt><trkpt lat="39.1338433" lon="16.8712417"><ele>164.0</ele><time>2026-04-19T08:43:08.518Z</time></trkpt><trkpt lat="39.13374" lon="16.8710917"><ele>164.0</ele><time>2026-04-19T08:43:09.518Z</time></trkpt><trkpt lat="39.1336333" lon="16.8709483"><ele>164.0</ele><time>2026-04-19T08:43:10.518Z</time></trkpt><trkpt lat="39.1335267" lon="16.8708133"><ele>164.0</ele><time>2026-04-19T08:43:11.518Z</time></trkpt><trkpt lat="39.1334183" lon="16.87069"><ele>164.0</ele><time>2026-04-19T08:43:12.518Z</time></trkpt><trkpt lat="39.1333217" lon="16.8705533"><ele>163.5</ele><time>2026-04-19T08:43:13.518Z</time></trkpt><trkpt lat="39.133225" lon="16.87042"><ele>163.0</ele><time>2026-04-19T08:43:14.519Z</time></trkpt><trkpt lat="39.1331317" lon="16.8702983"><ele>162.5</ele><time>2026-04-19T08:43:15.519Z</time></trkpt><trkpt lat="39.1330483" lon="16.8701733"><ele>162.0</ele><time>2026-04-19T08:43:16.518Z</time></trkpt><trkpt lat="39.13299" lon="16.8700517"><ele>162.0</ele><time>2026-04-19T08:43:17.518Z</time></trkpt><trkpt lat="39.1329367" lon="16.8699417"><ele>162.0</ele><time>2026-04-19T08:43:18.519Z</time></trkpt><trkpt lat="39.132885" lon="16.86982"><ele>162.0</ele><time>2026-04-19T08:43:19.519Z</time></trkpt><trkpt lat="39.1328383" lon="16.8697083"><ele>162.0</ele><time>2026-04-19T08:43:20.519Z</time></trkpt><trkpt lat="39.13279" lon="16.8696"><ele>162.0</ele><time>2026-04-19T08:43:21.518Z</time></trkpt><trkpt lat="39.1327383" lon="16.8694917"><ele>162.0</ele><time>2026-04-19T08:43:22.518Z</time></trkpt><trkpt lat="39.1326783" lon="16.8693783"><ele>162.0</ele><time>2026-04-19T08:43:23.518Z</time></trkpt><trkpt lat="39.1326083" lon="16.8692533"><ele>162.0</ele><time>2026-04-19T08:43:24.519Z</time></trkpt><trkpt lat="39.1325517" lon="16.8691083"><ele>162.0</ele><time>2026-04-19T08:43:25.518Z</time></trkpt><trkpt lat="39.1324933" lon="16.868965"><ele>163.5</ele><time>2026-04-19T08:43:26.518Z</time></trkpt><trkpt lat="39.13244" lon="16.8688183"><ele>165.0</ele><time>2026-04-19T08:43:27.518Z</time></trkpt><trkpt lat="39.1323917" lon="16.86867"><ele>166.5</ele><time>2026-04-19T08:43:28.518Z</time></trkpt><trkpt lat="39.1323383" lon="16.86853"><ele>168.0</ele><time>2026-04-19T08:43:29.519Z</time></trkpt><trkpt lat="39.1322917" lon="16.8684"><ele>165.4</ele><time>2026-04-19T08:43:30.518Z</time></trkpt><trkpt lat="39.13225" lon="16.868285"><ele>162.8</ele><time>2026-04-19T08:43:31.518Z</time></trkpt><trkpt lat="39.132215" lon="16.8681733"><ele>160.2</ele><time>2026-04-19T08:43:32.518Z</time></trkpt><trkpt lat="39.1322017" lon="16.8680817"><ele>157.6</ele><time>2026-04-19T08:43:33.518Z</time></trkpt><trkpt lat="39.1322517" lon="16.8679383"><ele>155.0</ele><time>2026-04-19T08:43:35.519Z</time></trkpt><trkpt lat="39.13231" lon="16.867905"><ele>155.0</ele><time>2026-04-19T08:43:36.518Z</time></trkpt><trkpt lat="39.132375" lon="16.8679167"><ele>155.0</ele><time>2026-04-19T08:43:37.518Z</time></trkpt><trkpt lat="39.1324467" lon="16.8679833"><ele>155.0</ele><time>2026-04-19T08:43:38.518Z</time></trkpt><trkpt lat="39.1325133" lon="16.86806"><ele>155.0</ele><time>2026-04-19T08:43:39.518Z</time></trkpt><trkpt lat="39.1325833" lon="16.8681283"><ele>155.0</ele><time>2026-04-19T08:43:40.519Z</time></trkpt><trkpt lat="39.1326567" lon="16.8681867"><ele>155.0</ele><time>2026-04-19T08:43:41.519Z</time></trkpt><trkpt lat="39.1327317" lon="16.8682117"><ele>158.75</ele><time>2026-04-19T08:43:42.519Z</time></trkpt><trkpt lat="39.1328517" lon="16.8681167"><ele>162.5</ele><time>2026-04-19T08:43:44.518Z</time></trkpt><trkpt lat="39.1328717" lon="16.8680117"><ele>166.25</ele><time>2026-04-19T08:43:45.518Z</time></trkpt><trkpt lat="39.1328483" lon="16.8678583"><ele>170.0</ele><time>2026-04-19T08:43:46.518Z</time></trkpt><trkpt lat="39.1328283" lon="16.8676983"><ele>167.0</ele><time>2026-04-19T08:43:47.518Z</time></trkpt><trkpt lat="39.1328033" lon="16.8674883"><ele>164.0</ele><time>2026-04-19T08:43:48.518Z</time></trkpt><trkpt lat="39.132775" lon="16.8672417"><ele>161.0</ele><time>2026-04-19T08:43:49.518Z</time></trkpt><trkpt lat="39.132755" lon="16.867015"><ele>161.0</ele><time>2026-04-19T08:43:50.518Z</time></trkpt><trkpt lat="39.1327233" lon="16.8668283"><ele>161.0</ele><time>2026-04-19T08:43:51.518Z</time></trkpt><trkpt lat="39.1327083" lon="16.866655"><ele>161.0</ele><time>2026-04-19T08:43:52.519Z</time></trkpt><trkpt lat="39.1326883" lon="16.8664967"><ele>161.0</ele><time>2026-04-19T08:43:53.518Z</time></trkpt><trkpt lat="39.1326633" lon="16.86634"><ele>160.0</ele><time>2026-04-19T08:43:54.519Z</time></trkpt><trkpt lat="39.1326133" lon="16.8661983"><ele>159.0</ele><time>2026-04-19T08:43:55.519Z</time></trkpt><trkpt lat="39.1325417" lon="16.8660783"><ele>158.0</ele><time>2026-04-19T08:43:56.518Z</time></trkpt><trkpt lat="39.1324467" lon="16.8659683"><ele>157.0</ele><time>2026-04-19T08:43:57.518Z</time></trkpt><trkpt lat="39.13236" lon="16.865885"><ele>156.4</ele><time>2026-04-19T08:43:58.518Z</time></trkpt><trkpt lat="39.1322833" lon="16.8657833"><ele>155.79999999999998</ele><time>2026-04-19T08:43:59.518Z</time></trkpt><trkpt lat="39.1322667" lon="16.8656667"><ele>155.2</ele><time>2026-04-19T08:44:00.519Z</time></trkpt><trkpt lat="39.13231" lon="16.8655683"><ele>154.6</ele><time>2026-04-19T08:44:01.518Z</time></trkpt><trkpt lat="39.132355" lon="16.8654717"><ele>154.0</ele><time>2026-04-19T08:44:02.518Z</time></trkpt><trkpt lat="39.1323933" lon="16.8653683"><ele>154.0</ele><time>2026-04-19T08:44:03.519Z</time></trkpt><trkpt lat="39.132405" lon="16.8652433"><ele>154.0</ele><time>2026-04-19T08:44:04.518Z</time></trkpt><trkpt lat="39.1323983" lon="16.865135"><ele>154.0</ele><time>2026-04-19T08:44:05.518Z</time></trkpt><trkpt lat="39.1323683" lon="16.8650283"><ele>154.0</ele><time>2026-04-19T08:44:06.518Z</time></trkpt><trkpt lat="39.13231" lon="16.86493"><ele>154.0</ele><time>2026-04-19T08:44:07.518Z</time></trkpt><trkpt lat="39.132245" lon="16.8648183"><ele>150.25</ele><time>2026-04-19T08:44:08.518Z</time></trkpt><trkpt lat="39.1321917" lon="16.8646683"><ele>146.5</ele><time>2026-04-19T08:44:09.519Z</time></trkpt><trkpt lat="39.1321417" lon="16.8645033"><ele>142.75</ele><time>2026-04-19T08:44:10.518Z</time></trkpt><trkpt lat="39.1320733" lon="16.8643367"><ele>139.0</ele><time>2026-04-19T08:44:11.518Z</time></trkpt><trkpt lat="39.1320067" lon="16.8641717"><ele>139.0</ele><time>2026-04-19T08:44:12.518Z</time></trkpt><trkpt lat="39.1319283" lon="16.8640083"><ele>139.0</ele><time>2026-04-19T08:44:13.518Z</time></trkpt><trkpt lat="39.131855" lon="16.8638383"><ele>139.0</ele><time>2026-04-19T08:44:14.518Z</time></trkpt><trkpt lat="39.1317683" lon="16.86367"><ele>139.0</ele><time>2026-04-19T08:44:15.519Z</time></trkpt><trkpt lat="39.13169" lon="16.8635133"><ele>139.0</ele><time>2026-04-19T08:44:16.519Z</time></trkpt><trkpt lat="39.1316083" lon="16.8633717"><ele>139.0</ele><time>2026-04-19T08:44:17.518Z</time></trkpt><trkpt lat="39.1315517" lon="16.863255"><ele>139.0</ele><time>2026-04-19T08:44:18.518Z</time></trkpt><trkpt lat="39.1315167" lon="16.863145"><ele>138.8</ele><time>2026-04-19T08:44:19.518Z</time></trkpt><trkpt lat="39.131525" lon="16.863035"><ele>138.60000000000002</ele><time>2026-04-19T08:44:20.518Z</time></trkpt><trkpt lat="39.1315733" lon="16.8629267"><ele>138.4</ele><time>2026-04-19T08:44:21.518Z</time></trkpt><trkpt lat="39.1316533" lon="16.8628283"><ele>138.20000000000002</ele><time>2026-04-19T08:44:22.518Z</time></trkpt><trkpt lat="39.1317483" lon="16.8627333"><ele>138.0</ele><time>2026-04-19T08:44:23.518Z</time></trkpt><trkpt lat="39.1318283" lon="16.8626083"><ele>136.6</ele><time>2026-04-19T08:44:24.519Z</time></trkpt><trkpt lat="39.13189" lon="16.86248"><ele>135.20000000000002</ele><time>2026-04-19T08:44:25.518Z</time></trkpt><trkpt lat="39.131935" lon="16.8623333"><ele>133.8</ele><time>2026-04-19T08:44:26.518Z</time></trkpt><trkpt lat="39.1319383" lon="16.8621983"><ele>132.4</ele><time>2026-04-19T08:44:27.518Z</time></trkpt><trkpt lat="39.1319117" lon="16.8620767"><ele>131.0</ele><time>2026-04-19T08:44:28.518Z</time></trkpt><trkpt lat="39.1318633" lon="16.8619683"><ele>131.0</ele><time>2026-04-19T08:44:29.518Z</time></trkpt><trkpt lat="39.131805" lon="16.8618833"><ele>131.0</ele><time>2026-04-19T08:44:30.518Z</time></trkpt><trkpt lat="39.13176" lon="16.861815"><ele>131.0</ele><time>2026-04-19T08:44:31.518Z</time></trkpt><trkpt lat="39.13172" lon="16.8616667"><ele>131.0</ele><time>2026-04-19T08:44:33.519Z</time></trkpt><trkpt lat="39.1317167" lon="16.861565"><ele>131.0</ele><time>2026-04-19T08:44:34.518Z</time></trkpt><trkpt lat="39.13171" lon="16.8614483"><ele>131.0</ele><time>2026-04-19T08:44:35.518Z</time></trkpt><trkpt lat="39.1317083" lon="16.8613083"><ele>131.0</ele><time>2026-04-19T08:44:36.518Z</time></trkpt><trkpt lat="39.1317167" lon="16.8611517"><ele>131.0</ele><time>2026-04-19T08:44:37.518Z</time></trkpt><trkpt lat="39.13173" lon="16.8609867"><ele>131.0</ele><time>2026-04-19T08:44:38.519Z</time></trkpt><trkpt lat="39.1317383" lon="16.860815"><ele>131.0</ele><time>2026-04-19T08:44:39.519Z</time></trkpt><trkpt lat="39.1317467" lon="16.860645"><ele>131.0</ele><time>2026-04-19T08:44:40.518Z</time></trkpt><trkpt lat="39.1317517" lon="16.8604683"><ele>131.0</ele><time>2026-04-19T08:44:41.518Z</time></trkpt><trkpt lat="39.1317767" lon="16.8602767"><ele>131.0</ele><time>2026-04-19T08:44:42.519Z</time></trkpt><trkpt lat="39.1317933" lon="16.8600933"><ele>131.0</ele><time>2026-04-19T08:44:43.518Z</time></trkpt><trkpt lat="39.1317867" lon="16.8599167"><ele>130.5</ele><time>2026-04-19T08:44:44.518Z</time></trkpt><trkpt lat="39.1317783" lon="16.8597383"><ele>130.0</ele><time>2026-04-19T08:44:45.518Z</time></trkpt><trkpt lat="39.131745" lon="16.8595583"><ele>129.5</ele><time>2026-04-19T08:44:46.518Z</time></trkpt><trkpt lat="39.1316967" lon="16.8593717"><ele>129.0</ele><time>2026-04-19T08:44:47.518Z</time></trkpt><trkpt lat="39.1316267" lon="16.8592083"><ele>128.25</ele><time>2026-04-19T08:44:48.519Z</time></trkpt><trkpt lat="39.1315633" lon="16.8590367"><ele>127.5</ele><time>2026-04-19T08:44:49.518Z</time></trkpt><trkpt lat="39.1315117" lon="16.8588617"><ele>126.75</ele><time>2026-04-19T08:44:50.519Z</time></trkpt><trkpt lat="39.1314633" lon="16.85869"><ele>126.0</ele><time>2026-04-19T08:44:51.518Z</time></trkpt><trkpt lat="39.13141" lon="16.85852"><ele>125.5</ele><time>2026-04-19T08:44:52.518Z</time></trkpt><trkpt lat="39.13136" lon="16.858335"><ele>125.0</ele><time>2026-04-19T08:44:53.518Z</time></trkpt><trkpt lat="39.1313317" lon="16.8581583"><ele>124.5</ele><time>2026-04-19T08:44:54.518Z</time></trkpt><trkpt lat="39.1313083" lon="16.8579733"><ele>124.0</ele><time>2026-04-19T08:44:55.518Z</time></trkpt><trkpt lat="39.13131" lon="16.8577633"><ele>124.0</ele><time>2026-04-19T08:44:56.518Z</time></trkpt><trkpt lat="39.13133" lon="16.85755"><ele>124.0</ele><time>2026-04-19T08:44:57.518Z</time></trkpt><trkpt lat="39.13136" lon="16.8573417"><ele>124.0</ele><time>2026-04-19T08:44:58.519Z</time></trkpt><trkpt lat="39.1314083" lon="16.85714"><ele>124.0</ele><time>2026-04-19T08:44:59.518Z</time></trkpt><trkpt lat="39.1314667" lon="16.8569467"><ele>124.0</ele><time>2026-04-19T08:45:00.519Z</time></trkpt><trkpt lat="39.1315483" lon="16.8567533"><ele>124.0</ele><time>2026-04-19T08:45:01.518Z</time></trkpt><trkpt lat="39.1316317" lon="16.8565567"><ele>125.33333333333334</ele><time>2026-04-19T08:45:02.518Z</time></trkpt><trkpt lat="39.13171" lon="16.8563633"><ele>126.66666666666666</ele><time>2026-04-19T08:45:03.518Z</time></trkpt><trkpt lat="39.1317917" lon="16.85616"><ele>128.0</ele><time>2026-04-19T08:45:04.519Z</time></trkpt><trkpt lat="39.1318717" lon="16.85597"><ele>128.0</ele><time>2026-04-19T08:45:05.518Z</time></trkpt><trkpt lat="39.1319517" lon="16.8557617"><ele>128.0</ele><time>2026-04-19T08:45:06.518Z</time></trkpt><trkpt lat="39.132025" lon="16.8555517"><ele>128.0</ele><time>2026-04-19T08:45:07.518Z</time></trkpt><trkpt lat="39.1321183" lon="16.8553583"><ele>128.0</ele><time>2026-04-19T08:45:08.518Z</time></trkpt><trkpt lat="39.1322" lon="16.8551633"><ele>128.0</ele><time>2026-04-19T08:45:09.518Z</time></trkpt><trkpt lat="39.1322767" lon="16.8549617"><ele>128.0</ele><time>2026-04-19T08:45:10.518Z</time></trkpt><trkpt lat="39.1323567" lon="16.8547717"><ele>129.0</ele><time>2026-04-19T08:45:11.519Z</time></trkpt><trkpt lat="39.1324283" lon="16.8545833"><ele>130.0</ele><time>2026-04-19T08:45:12.518Z</time></trkpt><trkpt lat="39.1325033" lon="16.8543967"><ele>131.0</ele><time>2026-04-19T08:45:13.518Z</time></trkpt><trkpt lat="39.132575" lon="16.8541983"><ele>131.66666666666666</ele><time>2026-04-19T08:45:14.518Z</time></trkpt><trkpt lat="39.1326517" lon="16.8540083"><ele>132.33333333333334</ele><time>2026-04-19T08:45:15.518Z</time></trkpt><trkpt lat="39.1327367" lon="16.853815"><ele>133.0</ele><time>2026-04-19T08:45:16.518Z</time></trkpt><trkpt lat="39.1328267" lon="16.8536167"><ele>134.0</ele><time>2026-04-19T08:45:17.519Z</time></trkpt><trkpt lat="39.132905" lon="16.8534117"><ele>135.0</ele><time>2026-04-19T08:45:18.518Z</time></trkpt><trkpt lat="39.13299" lon="16.853225"><ele>136.0</ele><time>2026-04-19T08:45:19.518Z</time></trkpt><trkpt lat="39.13307" lon="16.85304"><ele>136.0</ele><time>2026-04-19T08:45:20.518Z</time></trkpt><trkpt lat="39.133145" lon="16.8528467"><ele>136.0</ele><time>2026-04-19T08:45:21.518Z</time></trkpt><trkpt lat="39.1332267" lon="16.85266"><ele>136.0</ele><time>2026-04-19T08:45:22.515Z</time></trkpt><trkpt lat="39.1333033" lon="16.85247"><ele>136.0</ele><time>2026-04-19T08:45:23.518Z</time></trkpt><trkpt lat="39.1333783" lon="16.8522967"><ele>136.0</ele><time>2026-04-19T08:45:24.518Z</time></trkpt><trkpt lat="39.1334517" lon="16.85213"><ele>136.0</ele><time>2026-04-19T08:45:25.518Z</time></trkpt><trkpt lat="39.1335183" lon="16.8519667"><ele>136.0</ele><time>2026-04-19T08:45:26.518Z</time></trkpt><trkpt lat="39.1335783" lon="16.8518283"><ele>136.8</ele><time>2026-04-19T08:45:27.518Z</time></trkpt><trkpt lat="39.1336217" lon="16.8517083"><ele>137.6</ele><time>2026-04-19T08:45:28.518Z</time></trkpt><trkpt lat="39.13367" lon="16.8515883"><ele>138.4</ele><time>2026-04-19T08:45:29.518Z</time></trkpt><trkpt lat="39.1337233" lon="16.85146"><ele>139.2</ele><time>2026-04-19T08:45:30.519Z</time></trkpt><trkpt lat="39.13378" lon="16.8513317"><ele>140.0</ele><time>2026-04-19T08:45:31.518Z</time></trkpt><trkpt lat="39.1338383" lon="16.8511833"><ele>140.0</ele><time>2026-04-19T08:45:32.518Z</time></trkpt><trkpt lat="39.13391" lon="16.85102"><ele>140.0</ele><time>2026-04-19T08:45:33.518Z</time></trkpt><trkpt lat="39.1339817" lon="16.8508517"><ele>140.0</ele><time>2026-04-19T08:45:34.519Z</time></trkpt><trkpt lat="39.13405" lon="16.850675"><ele>140.0</ele><time>2026-04-19T08:45:35.518Z</time></trkpt><trkpt lat="39.134125" lon="16.8504883"><ele>140.0</ele><time>2026-04-19T08:45:36.518Z</time></trkpt><trkpt lat="39.1341933" lon="16.8503"><ele>140.0</ele><time>2026-04-19T08:45:37.519Z</time></trkpt><trkpt lat="39.1342667" lon="16.8501133"><ele>140.0</ele><time>2026-04-19T08:45:38.518Z</time></trkpt><trkpt lat="39.1343333" lon="16.8499417"><ele>140.25</ele><time>2026-04-19T08:45:39.518Z</time></trkpt><trkpt lat="39.134425" lon="16.8497917"><ele>140.5</ele><time>2026-04-19T08:45:40.519Z</time></trkpt><trkpt lat="39.1345167" lon="16.8496683"><ele>140.75</ele><time>2026-04-19T08:45:41.518Z</time></trkpt><trkpt lat="39.1346283" lon="16.849585"><ele>141.0</ele><time>2026-04-19T08:45:42.518Z</time></trkpt><trkpt lat="39.13473" lon="16.8495067"><ele>141.0</ele><time>2026-04-19T08:45:43.519Z</time></trkpt><trkpt lat="39.1347967" lon="16.8494133"><ele>141.0</ele><time>2026-04-19T08:45:44.519Z</time></trkpt><trkpt lat="39.1348317" lon="16.84926"><ele>141.0</ele><time>2026-04-19T08:45:45.518Z</time></trkpt><trkpt lat="39.1348417" lon="16.8490683"><ele>141.0</ele><time>2026-04-19T08:45:46.518Z</time></trkpt><trkpt lat="39.1348367" lon="16.8488517"><ele>142.0</ele><time>2026-04-19T08:45:47.518Z</time></trkpt><trkpt lat="39.134835" lon="16.8486117"><ele>143.0</ele><time>2026-04-19T08:45:48.519Z</time></trkpt><trkpt lat="39.1348483" lon="16.8483517"><ele>144.0</ele><time>2026-04-19T08:45:49.518Z</time></trkpt><trkpt lat="39.134855" lon="16.8480883"><ele>144.33333333333334</ele><time>2026-04-19T08:45:50.519Z</time></trkpt><trkpt lat="39.1348583" lon="16.8478133"><ele>144.66666666666669</ele><time>2026-04-19T08:45:51.518Z</time></trkpt><trkpt lat="39.1348533" lon="16.8475367"><ele>145.0</ele><time>2026-04-19T08:45:52.518Z</time></trkpt><trkpt lat="39.13485" lon="16.8472667"><ele>146.66666666666669</ele><time>2026-04-19T08:45:53.518Z</time></trkpt><trkpt lat="39.1348383" lon="16.84701"><ele>148.33333333333334</ele><time>2026-04-19T08:45:54.519Z</time></trkpt><trkpt lat="39.1348433" lon="16.84676"><ele>150.0</ele><time>2026-04-19T08:45:55.518Z</time></trkpt><trkpt lat="39.13484" lon="16.8465133"><ele>150.66666666666666</ele><time>2026-04-19T08:45:56.518Z</time></trkpt><trkpt lat="39.134805" lon="16.84626"><ele>151.33333333333331</ele><time>2026-04-19T08:45:57.518Z</time></trkpt><trkpt lat="39.13475" lon="16.84601"><ele>152.0</ele><time>2026-04-19T08:45:58.519Z</time></trkpt><trkpt lat="39.13468" lon="16.8457567"><ele>153.0</ele><time>2026-04-19T08:45:59.519Z</time></trkpt><trkpt lat="39.1346183" lon="16.8455"><ele>154.0</ele><time>2026-04-19T08:46:00.519Z</time></trkpt><trkpt lat="39.1345683" lon="16.8452333"><ele>155.0</ele><time>2026-04-19T08:46:01.518Z</time></trkpt><trkpt lat="39.1345183" lon="16.8449733"><ele>155.33333333333331</ele><time>2026-04-19T08:46:02.518Z</time></trkpt><trkpt lat="39.134465" lon="16.8447317"><ele>155.66666666666666</ele><time>2026-04-19T08:46:03.518Z</time></trkpt><trkpt lat="39.1344083" lon="16.8445"><ele>156.0</ele><time>2026-04-19T08:46:04.518Z</time></trkpt><trkpt lat="39.1343783" lon="16.84426"><ele>156.66666666666666</ele><time>2026-04-19T08:46:05.518Z</time></trkpt><trkpt lat="39.134355" lon="16.84402"><ele>157.33333333333331</ele><time>2026-04-19T08:46:06.518Z</time></trkpt><trkpt lat="39.1343667" lon="16.8437767"><ele>158.0</ele><time>2026-04-19T08:46:07.518Z</time></trkpt><trkpt lat="39.1344017" lon="16.8435333"><ele>158.66666666666666</ele><time>2026-04-19T08:46:08.518Z</time></trkpt><trkpt lat="39.13444" lon="16.8432867"><ele>159.33333333333334</ele><time>2026-04-19T08:46:09.518Z</time></trkpt><trkpt lat="39.1344833" lon="16.8430433"><ele>160.0</ele><time>2026-04-19T08:46:10.518Z</time></trkpt><trkpt lat="39.13451" lon="16.8427983"><ele>160.66666666666669</ele><time>2026-04-19T08:46:11.518Z</time></trkpt><trkpt lat="39.1345433" lon="16.8425733"><ele>161.33333333333334</ele><time>2026-04-19T08:46:12.518Z</time></trkpt><trkpt lat="39.1345733" lon="16.8423483"><ele>162.0</ele><time>2026-04-19T08:46:13.519Z</time></trkpt><trkpt lat="39.1346" lon="16.8421433"><ele>162.0</ele><time>2026-04-19T08:46:14.518Z</time></trkpt><trkpt lat="39.1346417" lon="16.8419567"><ele>162.0</ele><time>2026-04-19T08:46:15.519Z</time></trkpt><trkpt lat="39.1346983" lon="16.8417983"><ele>162.0</ele><time>2026-04-19T08:46:16.518Z</time></trkpt><trkpt lat="39.1347917" lon="16.8416683"><ele>162.0</ele><time>2026-04-19T08:46:17.519Z</time></trkpt><trkpt lat="39.134915" lon="16.841585"><ele>165.33333333333334</ele><time>2026-04-19T08:46:18.518Z</time></trkpt><trkpt lat="39.135065" lon="16.8415367"><ele>168.66666666666669</ele><time>2026-04-19T08:46:19.518Z</time></trkpt><trkpt lat="39.1352183" lon="16.8414917"><ele>172.0</ele><time>2026-04-19T08:46:20.518Z</time></trkpt><trkpt lat="39.1353583" lon="16.8414417"><ele>172.0</ele><time>2026-04-19T08:46:21.518Z</time></trkpt><trkpt lat="39.1354983" lon="16.841345"><ele>172.0</ele><time>2026-04-19T08:46:22.518Z</time></trkpt><trkpt lat="39.1356083" lon="16.84121"><ele>172.0</ele><time>2026-04-19T08:46:23.519Z</time></trkpt><trkpt lat="39.1356983" lon="16.8410417"><ele>176.66666666666669</ele><time>2026-04-19T08:46:24.518Z</time></trkpt><trkpt lat="39.13577" lon="16.8408417"><ele>181.33333333333334</ele><time>2026-04-19T08:46:25.518Z</time></trkpt><trkpt lat="39.1358283" lon="16.840635"><ele>186.0</ele><time>2026-04-19T08:46:26.518Z</time></trkpt><trkpt lat="39.1358867" lon="16.8404233"><ele>186.0</ele><time>2026-04-19T08:46:27.518Z</time></trkpt><trkpt lat="39.1359533" lon="16.8402133"><ele>186.0</ele><time>2026-04-19T08:46:28.518Z</time></trkpt><trkpt lat="39.13601" lon="16.8400017"><ele>186.0</ele><time>2026-04-19T08:46:29.518Z</time></trkpt><trkpt lat="39.13606" lon="16.83978"><ele>187.0</ele><time>2026-04-19T08:46:30.518Z</time></trkpt><trkpt lat="39.1360917" lon="16.8395433"><ele>188.0</ele><time>2026-04-19T08:46:31.519Z</time></trkpt><trkpt lat="39.1361167" lon="16.8392967"><ele>189.0</ele><time>2026-04-19T08:46:32.518Z</time></trkpt><trkpt lat="39.136145" lon="16.839065"><ele>190.66666666666669</ele><time>2026-04-19T08:46:33.518Z</time></trkpt><trkpt lat="39.136175" lon="16.8388433"><ele>192.33333333333334</ele><time>2026-04-19T08:46:34.518Z</time></trkpt><trkpt lat="39.1361983" lon="16.8386267"><ele>194.0</ele><time>2026-04-19T08:46:35.519Z</time></trkpt><trkpt lat="39.1362183" lon="16.8384067"><ele>194.66666666666669</ele><time>2026-04-19T08:46:36.519Z</time></trkpt><trkpt lat="39.1362117" lon="16.83819"><ele>195.33333333333331</ele><time>2026-04-19T08:46:37.518Z</time></trkpt><trkpt lat="39.1361833" lon="16.8379583"><ele>196.0</ele><time>2026-04-19T08:46:38.518Z</time></trkpt><trkpt lat="39.1361417" lon="16.8377217"><ele>197.0</ele><time>2026-04-19T08:46:39.518Z</time></trkpt><trkpt lat="39.136095" lon="16.8374883"><ele>198.0</ele><time>2026-04-19T08:46:40.518Z</time></trkpt><trkpt lat="39.13605" lon="16.8372633"><ele>199.0</ele><time>2026-04-19T08:46:41.518Z</time></trkpt><trkpt lat="39.1359967" lon="16.8370383"><ele>199.0</ele><time>2026-04-19T08:46:42.518Z</time></trkpt><trkpt lat="39.135935" lon="16.8368467"><ele>199.0</ele><time>2026-04-19T08:46:43.519Z</time></trkpt><trkpt lat="39.135855" lon="16.8366783"><ele>199.0</ele><time>2026-04-19T08:46:44.518Z</time></trkpt><trkpt lat="39.13575" lon="16.8365617"><ele>201.33333333333331</ele><time>2026-04-19T08:46:45.518Z</time></trkpt><trkpt lat="39.1356133" lon="16.8364717"><ele>203.66666666666669</ele><time>2026-04-19T08:46:46.518Z</time></trkpt><trkpt lat="39.135465" lon="16.8364033"><ele>206.0</ele><time>2026-04-19T08:46:47.519Z</time></trkpt><trkpt lat="39.1353117" lon="16.8363533"><ele>206.0</ele><time>2026-04-19T08:46:48.519Z</time></trkpt><trkpt lat="39.13514" lon="16.8362867"><ele>206.0</ele><time>2026-04-19T08:46:49.519Z</time></trkpt><trkpt lat="39.1349683" lon="16.836215"><ele>206.0</ele><time>2026-04-19T08:46:50.518Z</time></trkpt><trkpt lat="39.1347983" lon="16.8361517"><ele>207.0</ele><time>2026-04-19T08:46:51.518Z</time></trkpt><trkpt lat="39.13463" lon="16.8360783"><ele>208.0</ele><time>2026-04-19T08:46:52.518Z</time></trkpt><trkpt lat="39.1344567" lon="16.8360167"><ele>209.0</ele><time>2026-04-19T08:46:53.519Z</time></trkpt><trkpt lat="39.1342833" lon="16.8359433"><ele>209.0</ele><time>2026-04-19T08:46:54.518Z</time></trkpt><trkpt lat="39.1341083" lon="16.83588"><ele>209.0</ele><time>2026-04-19T08:46:55.518Z</time></trkpt><trkpt lat="39.1339383" lon="16.8358133"><ele>209.0</ele><time>2026-04-19T08:46:56.518Z</time></trkpt><trkpt lat="39.133775" lon="16.8357333"><ele>208.0</ele><time>2026-04-19T08:46:57.518Z</time></trkpt><trkpt lat="39.1336183" lon="16.83565"><ele>207.0</ele><time>2026-04-19T08:46:58.518Z</time></trkpt><trkpt lat="39.1334733" lon="16.83555"><ele>206.0</ele><time>2026-04-19T08:46:59.519Z</time></trkpt><trkpt lat="39.1333517" lon="16.835415"><ele>206.0</ele><time>2026-04-19T08:47:00.519Z</time></trkpt><trkpt lat="39.13325" lon="16.8352383"><ele>206.0</ele><time>2026-04-19T08:47:01.518Z</time></trkpt><trkpt lat="39.1331783" lon="16.8350283"><ele>206.0</ele><time>2026-04-19T08:47:02.518Z</time></trkpt><trkpt lat="39.13311" lon="16.8348083"><ele>204.0</ele><time>2026-04-19T08:47:03.518Z</time></trkpt><trkpt lat="39.1330333" lon="16.834595"><ele>202.0</ele><time>2026-04-19T08:47:04.518Z</time></trkpt><trkpt lat="39.1329717" lon="16.834385"><ele>200.0</ele><time>2026-04-19T08:47:05.519Z</time></trkpt><trkpt lat="39.1329233" lon="16.8341733"><ele>200.0</ele><time>2026-04-19T08:47:06.519Z</time></trkpt><trkpt lat="39.1329117" lon="16.8339533"><ele>200.0</ele><time>2026-04-19T08:47:07.518Z</time></trkpt><trkpt lat="39.1329533" lon="16.8337267"><ele>200.0</ele><time>2026-04-19T08:47:08.518Z</time></trkpt><trkpt lat="39.1330167" lon="16.8334833"><ele>199.66666666666669</ele><time>2026-04-19T08:47:09.519Z</time></trkpt><trkpt lat="39.1330767" lon="16.8332417"><ele>199.33333333333331</ele><time>2026-04-19T08:47:10.518Z</time></trkpt><trkpt lat="39.13313" lon="16.8330017"><ele>199.0</ele><time>2026-04-19T08:47:11.518Z</time></trkpt><trkpt lat="39.1331833" lon="16.832755"><ele>205.0</ele><time>2026-04-19T08:47:12.519Z</time></trkpt><trkpt lat="39.13324" lon="16.8325017"><ele>211.0</ele><time>2026-04-19T08:47:13.518Z</time></trkpt><trkpt lat="39.1332967" lon="16.8322483"><ele>217.0</ele><time>2026-04-19T08:47:14.518Z</time></trkpt><trkpt lat="39.1333583" lon="16.831995"><ele>217.33333333333331</ele><time>2026-04-19T08:47:15.518Z</time></trkpt><trkpt lat="39.1334233" lon="16.83174"><ele>217.66666666666669</ele><time>2026-04-19T08:47:16.518Z</time></trkpt><trkpt lat="39.1334883" lon="16.8314933"><ele>218.0</ele><time>2026-04-19T08:47:17.518Z</time></trkpt><trkpt lat="39.1335583" lon="16.8312383"><ele>218.0</ele><time>2026-04-19T08:47:18.519Z</time></trkpt><trkpt lat="39.133615" lon="16.83098"><ele>218.0</ele><time>2026-04-19T08:47:19.518Z</time></trkpt><trkpt lat="39.1336667" lon="16.8307133"><ele>218.0</ele><time>2026-04-19T08:47:20.518Z</time></trkpt><trkpt lat="39.13371" lon="16.83044"><ele>218.66666666666669</ele><time>2026-04-19T08:47:21.518Z</time></trkpt><trkpt lat="39.133725" lon="16.83016"><ele>219.33333333333331</ele><time>2026-04-19T08:47:22.519Z</time></trkpt><trkpt lat="39.1337233" lon="16.8298817"><ele>220.0</ele><time>2026-04-19T08:47:23.518Z</time></trkpt><trkpt lat="39.1336983" lon="16.8296017"><ele>221.33333333333331</ele><time>2026-04-19T08:47:24.518Z</time></trkpt><trkpt lat="39.1336667" lon="16.8293267"><ele>222.66666666666669</ele><time>2026-04-19T08:47:25.518Z</time></trkpt><trkpt lat="39.1336283" lon="16.8290517"><ele>224.0</ele><time>2026-04-19T08:47:26.518Z</time></trkpt><trkpt lat="39.1335933" lon="16.8287733"><ele>225.0</ele><time>2026-04-19T08:47:27.518Z</time></trkpt><trkpt lat="39.1335633" lon="16.8284833"><ele>226.0</ele><time>2026-04-19T08:47:28.518Z</time></trkpt><trkpt lat="39.133535" lon="16.8281967"><ele>227.0</ele><time>2026-04-19T08:47:29.518Z</time></trkpt><trkpt lat="39.1335033" lon="16.8279067"><ele>228.0</ele><time>2026-04-19T08:47:30.519Z</time></trkpt><trkpt lat="39.1334683" lon="16.8276117"><ele>229.0</ele><time>2026-04-19T08:47:31.518Z</time></trkpt><trkpt lat="39.1334383" lon="16.82732"><ele>230.0</ele><time>2026-04-19T08:47:32.519Z</time></trkpt><trkpt lat="39.1334033" lon="16.8270283"><ele>232.5</ele><time>2026-04-19T08:47:33.518Z</time></trkpt><trkpt lat="39.1333683" lon="16.8267383"><ele>235.0</ele><time>2026-04-19T08:47:34.518Z</time></trkpt><trkpt lat="39.1333367" lon="16.82645"><ele>235.0</ele><time>2026-04-19T08:47:35.519Z</time></trkpt><trkpt lat="39.1332967" lon="16.8261633"><ele>235.0</ele><time>2026-04-19T08:47:36.519Z</time></trkpt><trkpt lat="39.1332483" lon="16.8258817"><ele>232.0</ele><time>2026-04-19T08:47:37.518Z</time></trkpt><trkpt lat="39.1331833" lon="16.8256117"><ele>229.0</ele><time>2026-04-19T08:47:38.518Z</time></trkpt><trkpt lat="39.1331067" lon="16.82534"><ele>226.0</ele><time>2026-04-19T08:47:39.518Z</time></trkpt><trkpt lat="39.1330117" lon="16.8250733"><ele>226.0</ele><time>2026-04-19T08:47:40.518Z</time></trkpt><trkpt lat="39.1329017" lon="16.824815"><ele>226.0</ele><time>2026-04-19T08:47:41.518Z</time></trkpt><trkpt lat="39.1327967" lon="16.8245567"><ele>232.0</ele><time>2026-04-19T08:47:42.518Z</time></trkpt><trkpt lat="39.13269" lon="16.8242967"><ele>238.0</ele><time>2026-04-19T08:47:43.518Z</time></trkpt><trkpt lat="39.1325833" lon="16.8240283"><ele>238.0</ele><time>2026-04-19T08:47:44.518Z</time></trkpt><trkpt lat="39.13247" lon="16.82376"><ele>238.0</ele><time>2026-04-19T08:47:45.518Z</time></trkpt><trkpt lat="39.1323667" lon="16.8234967"><ele>238.5</ele><time>2026-04-19T08:47:46.518Z</time></trkpt><trkpt lat="39.1322583" lon="16.8232317"><ele>239.0</ele><time>2026-04-19T08:47:47.518Z</time></trkpt><trkpt lat="39.13214" lon="16.82297"><ele>239.0</ele><time>2026-04-19T08:47:48.518Z</time></trkpt><trkpt lat="39.1320267" lon="16.8227033"><ele>239.0</ele><time>2026-04-19T08:47:49.518Z</time></trkpt><trkpt lat="39.1319183" lon="16.8224433"><ele>240.0</ele><time>2026-04-19T08:47:50.518Z</time></trkpt><trkpt lat="39.1318133" lon="16.8221867"><ele>241.0</ele><time>2026-04-19T08:47:51.518Z</time></trkpt><trkpt lat="39.1316983" lon="16.8219283"><ele>241.5</ele><time>2026-04-19T08:47:52.518Z</time></trkpt><trkpt lat="39.1315917" lon="16.8216717"><ele>242.0</ele><time>2026-04-19T08:47:53.518Z</time></trkpt><trkpt lat="39.1314883" lon="16.821405"><ele>242.0</ele><time>2026-04-19T08:47:54.518Z</time></trkpt><trkpt lat="39.1313833" lon="16.82114"><ele>242.0</ele><time>2026-04-19T08:47:55.518Z</time></trkpt><trkpt lat="39.131275" lon="16.82088"><ele>244.0</ele><time>2026-04-19T08:47:56.518Z</time></trkpt><trkpt lat="39.1311633" lon="16.820625"><ele>246.0</ele><time>2026-04-19T08:47:57.518Z</time></trkpt><trkpt lat="39.1310517" lon="16.82037"><ele>247.0</ele><time>2026-04-19T08:47:58.519Z</time></trkpt><trkpt lat="39.13095" lon="16.82011"><ele>248.0</ele><time>2026-04-19T08:47:59.518Z</time></trkpt><trkpt lat="39.130845" lon="16.8198533"><ele>248.0</ele><time>2026-04-19T08:48:00.518Z</time></trkpt><trkpt lat="39.1307467" lon="16.8196"><ele>248.0</ele><time>2026-04-19T08:48:01.518Z</time></trkpt><trkpt lat="39.1306567" lon="16.8193367"><ele>248.0</ele><time>2026-04-19T08:48:02.518Z</time></trkpt><trkpt lat="39.1305783" lon="16.819065"><ele>248.0</ele><time>2026-04-19T08:48:03.518Z</time></trkpt><trkpt lat="39.1305233" lon="16.818785"><ele>248.0</ele><time>2026-04-19T08:48:04.518Z</time></trkpt><trkpt lat="39.13048" lon="16.8184967"><ele>249.5</ele><time>2026-04-19T08:48:05.518Z</time></trkpt><trkpt lat="39.130445" lon="16.8182017"><ele>251.0</ele><time>2026-04-19T08:48:06.518Z</time></trkpt><trkpt lat="39.1304233" lon="16.8178933"><ele>252.5</ele><time>2026-04-19T08:48:07.519Z</time></trkpt><trkpt lat="39.1303967" lon="16.8175917"><ele>254.0</ele><time>2026-04-19T08:48:08.518Z</time></trkpt><trkpt lat="39.1303667" lon="16.8172933"><ele>254.0</ele><time>2026-04-19T08:48:09.518Z</time></trkpt><trkpt lat="39.1303383" lon="16.81699"><ele>254.0</ele><time>2026-04-19T08:48:10.518Z</time></trkpt><trkpt lat="39.130315" lon="16.8166833"><ele>256.0</ele><time>2026-04-19T08:48:11.519Z</time></trkpt><trkpt lat="39.13029" lon="16.8163867"><ele>258.0</ele><time>2026-04-19T08:48:12.518Z</time></trkpt><trkpt lat="39.1302617" lon="16.8160883"><ele>258.5</ele><time>2026-04-19T08:48:13.518Z</time></trkpt><trkpt lat="39.1302317" lon="16.8157983"><ele>259.0</ele><time>2026-04-19T08:48:14.518Z</time></trkpt><trkpt lat="39.13021" lon="16.8155017"><ele>259.0</ele><time>2026-04-19T08:48:15.518Z</time></trkpt><trkpt lat="39.130185" lon="16.8152017"><ele>259.0</ele><time>2026-04-19T08:48:16.518Z</time></trkpt><trkpt lat="39.130155" lon="16.8149033"><ele>260.5</ele><time>2026-04-19T08:48:17.518Z</time></trkpt><trkpt lat="39.130125" lon="16.8146033"><ele>262.0</ele><time>2026-04-19T08:48:18.518Z</time></trkpt><trkpt lat="39.130095" lon="16.8143133"><ele>262.5</ele><time>2026-04-19T08:48:19.518Z</time></trkpt><trkpt lat="39.1300667" lon="16.8140267"><ele>263.0</ele><time>2026-04-19T08:48:20.517Z</time></trkpt><trkpt lat="39.1300333" lon="16.8137383"><ele>264.0</ele><time>2026-04-19T08:48:21.518Z</time></trkpt><trkpt lat="39.1300033" lon="16.8134467"><ele>265.0</ele><time>2026-04-19T08:48:22.517Z</time></trkpt><trkpt lat="39.129975" lon="16.8131583"><ele>265.0</ele><time>2026-04-19T08:48:23.517Z</time></trkpt><trkpt lat="39.1299517" lon="16.812865"><ele>265.0</ele><time>2026-04-19T08:48:24.518Z</time></trkpt><trkpt lat="39.1299317" lon="16.8125767"><ele>265.3333333333333</ele><time>2026-04-19T08:48:25.517Z</time></trkpt><trkpt lat="39.1299067" lon="16.8122967"><ele>265.6666666666667</ele><time>2026-04-19T08:48:26.517Z</time></trkpt><trkpt lat="39.1298783" lon="16.8120267"><ele>266.0</ele><time>2026-04-19T08:48:27.517Z</time></trkpt><trkpt lat="39.129875" lon="16.811755"><ele>266.33333333333337</ele><time>2026-04-19T08:48:28.517Z</time></trkpt><trkpt lat="39.1298833" lon="16.81149"><ele>266.6666666666667</ele><time>2026-04-19T08:48:29.518Z</time></trkpt><trkpt lat="39.1299033" lon="16.8112283"><ele>267.0</ele><time>2026-04-19T08:48:30.518Z</time></trkpt><trkpt lat="39.1299417" lon="16.810955"><ele>269.5</ele><time>2026-04-19T08:48:31.517Z</time></trkpt><trkpt lat="39.13" lon="16.8106683"><ele>272.0</ele><time>2026-04-19T08:48:32.517Z</time></trkpt><trkpt lat="39.13007" lon="16.81039"><ele>273.0</ele><time>2026-04-19T08:48:33.517Z</time></trkpt><trkpt lat="39.1301383" lon="16.8101217"><ele>274.0</ele><time>2026-04-19T08:48:34.517Z</time></trkpt><trkpt lat="39.130205" lon="16.80984"><ele>275.0</ele><time>2026-04-19T08:48:35.518Z</time></trkpt><trkpt lat="39.1302583" lon="16.8095483"><ele>276.5</ele><time>2026-04-19T08:48:36.517Z</time></trkpt><trkpt lat="39.1302917" lon="16.8092583"><ele>278.0</ele><time>2026-04-19T08:48:37.517Z</time></trkpt><trkpt lat="39.1303083" lon="16.8089633"><ele>278.0</ele><time>2026-04-19T08:48:38.517Z</time></trkpt><trkpt lat="39.130305" lon="16.8086617"><ele>278.0</ele><time>2026-04-19T08:48:39.517Z</time></trkpt><trkpt lat="39.130285" lon="16.808375"><ele>278.33333333333337</ele><time>2026-04-19T08:48:40.517Z</time></trkpt><trkpt lat="39.130255" lon="16.8080917"><ele>278.6666666666667</ele><time>2026-04-19T08:48:41.517Z</time></trkpt><trkpt lat="39.1302283" lon="16.8078133"><ele>279.0</ele><time>2026-04-19T08:48:42.517Z</time></trkpt><trkpt lat="39.1302233" lon="16.8075367"><ele>280.0</ele><time>2026-04-19T08:48:43.517Z</time></trkpt><trkpt lat="39.1302317" lon="16.8072617"><ele>281.0</ele><time>2026-04-19T08:48:44.517Z</time></trkpt><trkpt lat="39.1302683" lon="16.8069883"><ele>282.0</ele><time>2026-04-19T08:48:45.517Z</time></trkpt><trkpt lat="39.13033" lon="16.8067233"><ele>283.0</ele><time>2026-04-19T08:48:46.517Z</time></trkpt><trkpt lat="39.130405" lon="16.80645"><ele>284.0</ele><time>2026-04-19T08:48:47.517Z</time></trkpt><trkpt lat="39.13049" lon="16.8061767"><ele>286.0</ele><time>2026-04-19T08:48:48.517Z</time></trkpt><trkpt lat="39.1305717" lon="16.8058933"><ele>288.0</ele><time>2026-04-19T08:48:49.518Z</time></trkpt><trkpt lat="39.1306483" lon="16.8056283"><ele>288.0</ele><time>2026-04-19T08:48:50.517Z</time></trkpt><trkpt lat="39.1307317" lon="16.8053517"><ele>288.0</ele><time>2026-04-19T08:48:51.517Z</time></trkpt><trkpt lat="39.1308133" lon="16.8050817"><ele>288.0</ele><time>2026-04-19T08:48:52.517Z</time></trkpt><trkpt lat="39.1308933" lon="16.8048233"><ele>288.0</ele><time>2026-04-19T08:48:53.517Z</time></trkpt><trkpt lat="39.1309767" lon="16.804555"><ele>288.0</ele><time>2026-04-19T08:48:54.517Z</time></trkpt><trkpt lat="39.131055" lon="16.8042867"><ele>289.0</ele><time>2026-04-19T08:48:55.517Z</time></trkpt><trkpt lat="39.1311267" lon="16.80403"><ele>290.0</ele><time>2026-04-19T08:48:56.517Z</time></trkpt><trkpt lat="39.1312017" lon="16.8037933"><ele>291.0</ele><time>2026-04-19T08:48:57.517Z</time></trkpt><trkpt lat="39.13127" lon="16.803575"><ele>292.6666666666667</ele><time>2026-04-19T08:48:58.517Z</time></trkpt><trkpt lat="39.1313183" lon="16.803355"><ele>294.33333333333337</ele><time>2026-04-19T08:48:59.517Z</time></trkpt><trkpt lat="39.1313533" lon="16.80314"><ele>296.0</ele><time>2026-04-19T08:49:00.517Z</time></trkpt><trkpt lat="39.1313667" lon="16.8029217"><ele>296.0</ele><time>2026-04-19T08:49:01.517Z</time></trkpt><trkpt lat="39.1313567" lon="16.8027267"><ele>296.0</ele><time>2026-04-19T08:49:02.517Z</time></trkpt><trkpt lat="39.1313517" lon="16.8025717"><ele>296.0</ele><time>2026-04-19T08:49:03.517Z</time></trkpt><trkpt lat="39.1313317" lon="16.8024467"><ele>296.0</ele><time>2026-04-19T08:49:04.518Z</time></trkpt><trkpt lat="39.1313133" lon="16.8023417"><ele>297.0</ele><time>2026-04-19T08:49:06.517Z</time></trkpt><trkpt lat="39.13123" lon="16.8023283"><ele>298.0</ele><time>2026-04-19T08:49:13.517Z</time></trkpt><trkpt lat="39.13112" lon="16.8024033"><ele>299.0</ele><time>2026-04-19T08:49:15.517Z</time></trkpt><trkpt lat="39.1310567" lon="16.8024583"><ele>300.0</ele><time>2026-04-19T08:49:16.517Z</time></trkpt><trkpt lat="39.1309867" lon="16.8025433"><ele>301.0</ele><time>2026-04-19T08:49:17.517Z</time></trkpt><trkpt lat="39.1309167" lon="16.8026567"><ele>299.75</ele><time>2026-04-19T08:49:18.517Z</time></trkpt><trkpt lat="39.1308517" lon="16.8027933"><ele>298.5</ele><time>2026-04-19T08:49:19.517Z</time></trkpt><trkpt lat="39.1307867" lon="16.8029417"><ele>297.25</ele><time>2026-04-19T08:49:20.517Z</time></trkpt><trkpt lat="39.1307167" lon="16.803095"><ele>296.0</ele><time>2026-04-19T08:49:21.517Z</time></trkpt><trkpt lat="39.1306417" lon="16.8032517"><ele>298.0</ele><time>2026-04-19T08:49:22.518Z</time></trkpt><trkpt lat="39.1305567" lon="16.8034083"><ele>300.0</ele><time>2026-04-19T08:49:23.517Z</time></trkpt><trkpt lat="39.130475" lon="16.8035833"><ele>302.0</ele><time>2026-04-19T08:49:24.517Z</time></trkpt><trkpt lat="39.1303883" lon="16.8037583"><ele>302.0</ele><time>2026-04-19T08:49:25.518Z</time></trkpt><trkpt lat="39.1302983" lon="16.80395"><ele>302.0</ele><time>2026-04-19T08:49:26.517Z</time></trkpt><trkpt lat="39.1302083" lon="16.804145"><ele>302.0</ele><time>2026-04-19T08:49:27.517Z</time></trkpt><trkpt lat="39.1301133" lon="16.80434"><ele>302.0</ele><time>2026-04-19T08:49:28.518Z</time></trkpt><trkpt lat="39.13001" lon="16.804525"><ele>302.0</ele><time>2026-04-19T08:49:29.517Z</time></trkpt><trkpt lat="39.12987" lon="16.804695"><ele>302.0</ele><time>2026-04-19T08:49:30.518Z</time></trkpt><trkpt lat="39.1297017" lon="16.8048383"><ele>302.0</ele><time>2026-04-19T08:49:31.517Z</time></trkpt><trkpt lat="39.1295133" lon="16.8049583"><ele>302.0</ele><time>2026-04-19T08:49:32.518Z</time></trkpt><trkpt lat="39.12932" lon="16.8050417"><ele>302.0</ele><time>2026-04-19T08:49:33.517Z</time></trkpt><trkpt lat="39.1291133" lon="16.8050883"><ele>302.33333333333337</ele><time>2026-04-19T08:49:34.517Z</time></trkpt><trkpt lat="39.128895" lon="16.8051083"><ele>302.6666666666667</ele><time>2026-04-19T08:49:35.518Z</time></trkpt><trkpt lat="39.12867" lon="16.8050983"><ele>303.0</ele><time>2026-04-19T08:49:36.517Z</time></trkpt><trkpt lat="39.128445" lon="16.80505"><ele>303.0</ele><time>2026-04-19T08:49:37.517Z</time></trkpt><trkpt lat="39.1282267" lon="16.8049967"><ele>303.0</ele><time>2026-04-19T08:49:38.517Z</time></trkpt><trkpt lat="39.1280067" lon="16.8049567"><ele>303.0</ele><time>2026-04-19T08:49:39.518Z</time></trkpt><trkpt lat="39.1277833" lon="16.804925"><ele>304.3333333333333</ele><time>2026-04-19T08:49:40.517Z</time></trkpt><trkpt lat="39.127575" lon="16.804895"><ele>305.66666666666663</ele><time>2026-04-19T08:49:41.517Z</time></trkpt><trkpt lat="39.127375" lon="16.8048667"><ele>307.0</ele><time>2026-04-19T08:49:42.517Z</time></trkpt><trkpt lat="39.1271733" lon="16.8048267"><ele>307.0</ele><time>2026-04-19T08:49:43.517Z</time></trkpt><trkpt lat="39.126965" lon="16.8047717"><ele>307.0</ele><time>2026-04-19T08:49:44.517Z</time></trkpt><trkpt lat="39.1267667" lon="16.8047183"><ele>307.0</ele><time>2026-04-19T08:49:45.518Z</time></trkpt><trkpt lat="39.1265667" lon="16.8046583"><ele>307.0</ele><time>2026-04-19T08:49:46.517Z</time></trkpt><trkpt lat="39.1263817" lon="16.8045967"><ele>307.0</ele><time>2026-04-19T08:49:47.517Z</time></trkpt><trkpt lat="39.1261917" lon="16.8045433"><ele>307.0</ele><time>2026-04-19T08:49:48.518Z</time></trkpt><trkpt lat="39.1260117" lon="16.80447"><ele>307.0</ele><time>2026-04-19T08:49:49.517Z</time></trkpt><trkpt lat="39.12584" lon="16.80438"><ele>307.0</ele><time>2026-04-19T08:49:50.517Z</time></trkpt><trkpt lat="39.1256633" lon="16.8042767"><ele>307.0</ele><time>2026-04-19T08:49:51.518Z</time></trkpt><trkpt lat="39.1254833" lon="16.8041633"><ele>308.0</ele><time>2026-04-19T08:49:52.517Z</time></trkpt><trkpt lat="39.1253" lon="16.8040367"><ele>309.0</ele><time>2026-04-19T08:49:53.517Z</time></trkpt><trkpt lat="39.1251233" lon="16.8039183"><ele>310.0</ele><time>2026-04-19T08:49:54.517Z</time></trkpt><trkpt lat="39.1249633" lon="16.80381"><ele>311.0</ele><time>2026-04-19T08:49:55.517Z</time></trkpt><trkpt lat="39.124815" lon="16.8037133"><ele>312.0</ele><time>2026-04-19T08:49:56.518Z</time></trkpt><trkpt lat="39.1246717" lon="16.803655"><ele>313.0</ele><time>2026-04-19T08:49:57.517Z</time></trkpt><trkpt lat="39.1245417" lon="16.8036483"><ele>314.0</ele><time>2026-04-19T08:49:58.517Z</time></trkpt><trkpt lat="39.12439" lon="16.8036783"><ele>314.0</ele><time>2026-04-19T08:49:59.517Z</time></trkpt><trkpt lat="39.12424" lon="16.8037583"><ele>314.0</ele><time>2026-04-19T08:50:00.517Z</time></trkpt><trkpt lat="39.1240967" lon="16.8038883"><ele>314.0</ele><time>2026-04-19T08:50:01.518Z</time></trkpt><trkpt lat="39.1239817" lon="16.80406"><ele>315.0</ele><time>2026-04-19T08:50:02.517Z</time></trkpt><trkpt lat="39.1238833" lon="16.8042517"><ele>316.0</ele><time>2026-04-19T08:50:03.517Z</time></trkpt><trkpt lat="39.12379" lon="16.8044367"><ele>317.0</ele><time>2026-04-19T08:50:04.517Z</time></trkpt><trkpt lat="39.1236967" lon="16.804605"><ele>317.0</ele><time>2026-04-19T08:50:05.517Z</time></trkpt><trkpt lat="39.123595" lon="16.8047333"><ele>317.0</ele><time>2026-04-19T08:50:06.517Z</time></trkpt><trkpt lat="39.1234717" lon="16.804825"><ele>317.0</ele><time>2026-04-19T08:50:07.517Z</time></trkpt><trkpt lat="39.1233367" lon="16.804855"><ele>317.0</ele><time>2026-04-19T08:50:08.517Z</time></trkpt><trkpt lat="39.1232067" lon="16.8047883"><ele>312.6666666666667</ele><time>2026-04-19T08:50:09.518Z</time></trkpt><trkpt lat="39.12309" lon="16.804665"><ele>308.3333333333333</ele><time>2026-04-19T08:50:10.517Z</time></trkpt><trkpt lat="39.122975" lon="16.8045217"><ele>304.0</ele><time>2026-04-19T08:50:11.518Z</time></trkpt><trkpt lat="39.1228617" lon="16.80438"><ele>307.75</ele><time>2026-04-19T08:50:12.518Z</time></trkpt><trkpt lat="39.1227483" lon="16.8042617"><ele>311.5</ele><time>2026-04-19T08:50:13.518Z</time></trkpt><trkpt lat="39.1226233" lon="16.80416"><ele>315.25</ele><time>2026-04-19T08:50:14.518Z</time></trkpt><trkpt lat="39.1224933" lon="16.804095"><ele>319.0</ele><time>2026-04-19T08:50:15.517Z</time></trkpt><trkpt lat="39.1223517" lon="16.8040833"><ele>323.0</ele><time>2026-04-19T08:50:16.517Z</time></trkpt><trkpt lat="39.1221883" lon="16.8041367"><ele>327.0</ele><time>2026-04-19T08:50:17.517Z</time></trkpt><trkpt lat="39.1220233" lon="16.80422"><ele>331.0</ele><time>2026-04-19T08:50:18.517Z</time></trkpt><trkpt lat="39.1218383" lon="16.804295"><ele>326.3333333333333</ele><time>2026-04-19T08:50:19.517Z</time></trkpt><trkpt lat="39.1216383" lon="16.8043483"><ele>321.6666666666667</ele><time>2026-04-19T08:50:20.517Z</time></trkpt><trkpt lat="39.1214283" lon="16.80441"><ele>317.0</ele><time>2026-04-19T08:50:21.517Z</time></trkpt><trkpt lat="39.121235" lon="16.8044583"><ele>317.0</ele><time>2026-04-19T08:50:22.517Z</time></trkpt><trkpt lat="39.121035" lon="16.804545"><ele>317.0</ele><time>2026-04-19T08:50:23.517Z</time></trkpt><trkpt lat="39.1208267" lon="16.804655"><ele>317.0</ele><time>2026-04-19T08:50:24.517Z</time></trkpt><trkpt lat="39.1206167" lon="16.80478"><ele>322.0</ele><time>2026-04-19T08:50:25.517Z</time></trkpt><trkpt lat="39.1204083" lon="16.8048933"><ele>327.0</ele><time>2026-04-19T08:50:26.518Z</time></trkpt><trkpt lat="39.1201983" lon="16.8050033"><ele>327.0</ele><time>2026-04-19T08:50:27.517Z</time></trkpt><trkpt lat="39.119995" lon="16.8051033"><ele>327.0</ele><time>2026-04-19T08:50:28.517Z</time></trkpt><trkpt lat="39.119795" lon="16.8052033"><ele>327.0</ele><time>2026-04-19T08:50:29.517Z</time></trkpt><trkpt lat="39.119605" lon="16.8053017"><ele>324.0</ele><time>2026-04-19T08:50:30.517Z</time></trkpt><trkpt lat="39.1194183" lon="16.8053733"><ele>321.0</ele><time>2026-04-19T08:50:31.517Z</time></trkpt><trkpt lat="39.1192367" lon="16.8053983"><ele>318.0</ele><time>2026-04-19T08:50:32.517Z</time></trkpt><trkpt lat="39.1190517" lon="16.8053817"><ele>319.0</ele><time>2026-04-19T08:50:33.517Z</time></trkpt><trkpt lat="39.118885" lon="16.805335"><ele>320.0</ele><time>2026-04-19T08:50:34.518Z</time></trkpt><trkpt lat="39.11873" lon="16.80525"><ele>321.0</ele><time>2026-04-19T08:50:35.517Z</time></trkpt><trkpt lat="39.118585" lon="16.805135"><ele>321.0</ele><time>2026-04-19T08:50:36.517Z</time></trkpt><trkpt lat="39.1184533" lon="16.80498"><ele>321.0</ele><time>2026-04-19T08:50:37.518Z</time></trkpt><trkpt lat="39.1183267" lon="16.8048033"><ele>321.0</ele><time>2026-04-19T08:50:38.517Z</time></trkpt><trkpt lat="39.1182033" lon="16.8046317"><ele>317.3333333333333</ele><time>2026-04-19T08:50:39.517Z</time></trkpt><trkpt lat="39.1180867" lon="16.804465"><ele>313.66666666666663</ele><time>2026-04-19T08:50:40.517Z</time></trkpt><trkpt lat="39.117985" lon="16.8043"><ele>310.0</ele><time>2026-04-19T08:50:41.518Z</time></trkpt><trkpt lat="39.117885" lon="16.804145"><ele>310.0</ele><time>2026-04-19T08:50:42.517Z</time></trkpt><trkpt lat="39.1177817" lon="16.8040017"><ele>310.0</ele><time>2026-04-19T08:50:43.517Z</time></trkpt><trkpt lat="39.1176917" lon="16.803855"><ele>310.0</ele><time>2026-04-19T08:50:44.517Z</time></trkpt><trkpt lat="39.1176083" lon="16.8037083"><ele>310.0</ele><time>2026-04-19T08:50:45.517Z</time></trkpt><trkpt lat="39.1175333" lon="16.80356"><ele>311.75</ele><time>2026-04-19T08:50:46.517Z</time></trkpt><trkpt lat="39.1174733" lon="16.8034"><ele>313.5</ele><time>2026-04-19T08:50:47.518Z</time></trkpt><trkpt lat="39.1174283" lon="16.803235"><ele>315.25</ele><time>2026-04-19T08:50:48.517Z</time></trkpt><trkpt lat="39.1173833" lon="16.8030667"><ele>317.0</ele><time>2026-04-19T08:50:49.517Z</time></trkpt><trkpt lat="39.11734" lon="16.802895"><ele>313.0</ele><time>2026-04-19T08:50:50.517Z</time></trkpt><trkpt lat="39.1172733" lon="16.8027283"><ele>309.0</ele><time>2026-04-19T08:50:51.517Z</time></trkpt><trkpt lat="39.1171933" lon="16.8025567"><ele>305.0</ele><time>2026-04-19T08:50:52.517Z</time></trkpt><trkpt lat="39.1171017" lon="16.80239"><ele>305.0</ele><time>2026-04-19T08:50:53.518Z</time></trkpt><trkpt lat="39.1170117" lon="16.8022183"><ele>305.0</ele><time>2026-04-19T08:50:54.517Z</time></trkpt><trkpt lat="39.1169333" lon="16.802035"><ele>305.0</ele><time>2026-04-19T08:50:55.517Z</time></trkpt><trkpt lat="39.1168783" lon="16.8018517"><ele>306.33333333333337</ele><time>2026-04-19T08:50:56.517Z</time></trkpt><trkpt lat="39.1168233" lon="16.801665"><ele>307.6666666666667</ele><time>2026-04-19T08:50:57.517Z</time></trkpt><trkpt lat="39.1167633" lon="16.8014783"><ele>309.0</ele><time>2026-04-19T08:50:58.517Z</time></trkpt><trkpt lat="39.1167183" lon="16.8012983"><ele>309.0</ele><time>2026-04-19T08:50:59.518Z</time></trkpt><trkpt lat="39.1166583" lon="16.8011117"><ele>309.0</ele><time>2026-04-19T08:51:00.517Z</time></trkpt><trkpt lat="39.1165883" lon="16.8009283"><ele>309.0</ele><time>2026-04-19T08:51:01.517Z</time></trkpt><trkpt lat="39.1165183" lon="16.8007433"><ele>305.6666666666667</ele><time>2026-04-19T08:51:02.517Z</time></trkpt><trkpt lat="39.11643" lon="16.8005583"><ele>302.33333333333337</ele><time>2026-04-19T08:51:03.517Z</time></trkpt><trkpt lat="39.1163317" lon="16.8003733"><ele>299.0</ele><time>2026-04-19T08:51:04.517Z</time></trkpt><trkpt lat="39.1162217" lon="16.80019"><ele>301.0</ele><time>2026-04-19T08:51:05.517Z</time></trkpt><trkpt lat="39.1161067" lon="16.8000017"><ele>303.0</ele><time>2026-04-19T08:51:06.518Z</time></trkpt><trkpt lat="39.115995" lon="16.79981"><ele>305.0</ele><time>2026-04-19T08:51:07.517Z</time></trkpt><trkpt lat="39.11589" lon="16.799615"><ele>305.0</ele><time>2026-04-19T08:51:08.517Z</time></trkpt><trkpt lat="39.1157883" lon="16.7994283"><ele>305.0</ele><time>2026-04-19T08:51:09.517Z</time></trkpt><trkpt lat="39.11569" lon="16.7992367"><ele>305.0</ele><time>2026-04-19T08:51:10.518Z</time></trkpt><trkpt lat="39.1155933" lon="16.7990483"><ele>302.33333333333337</ele><time>2026-04-19T08:51:11.517Z</time></trkpt><trkpt lat="39.1154883" lon="16.7988783"><ele>299.6666666666667</ele><time>2026-04-19T08:51:12.517Z</time></trkpt><trkpt lat="39.1153933" lon="16.7987167"><ele>297.0</ele><time>2026-04-19T08:51:13.517Z</time></trkpt><trkpt lat="39.1153233" lon="16.79854"><ele>296.75</ele><time>2026-04-19T08:51:14.518Z</time></trkpt><trkpt lat="39.11525" lon="16.7983667"><ele>296.5</ele><time>2026-04-19T08:51:15.517Z</time></trkpt><trkpt lat="39.1151967" lon="16.7981917"><ele>296.25</ele><time>2026-04-19T08:51:16.517Z</time></trkpt><trkpt lat="39.115165" lon="16.7980183"><ele>296.0</ele><time>2026-04-19T08:51:17.517Z</time></trkpt><trkpt lat="39.1151367" lon="16.7978333"><ele>294.6666666666667</ele><time>2026-04-19T08:51:18.517Z</time></trkpt><trkpt lat="39.1151233" lon="16.79764"><ele>293.3333333333333</ele><time>2026-04-19T08:51:19.517Z</time></trkpt><trkpt lat="39.1151083" lon="16.7974467"><ele>292.0</ele><time>2026-04-19T08:51:20.517Z</time></trkpt><trkpt lat="39.1151017" lon="16.7972467"><ele>292.0</ele><time>2026-04-19T08:51:21.517Z</time></trkpt><trkpt lat="39.115095" lon="16.797045"><ele>292.0</ele><time>2026-04-19T08:51:22.517Z</time></trkpt><trkpt lat="39.115085" lon="16.7968367"><ele>292.0</ele><time>2026-04-19T08:51:23.517Z</time></trkpt><trkpt lat="39.115075" lon="16.7966333"><ele>292.25</ele><time>2026-04-19T08:51:24.517Z</time></trkpt><trkpt lat="39.1150617" lon="16.796435"><ele>292.5</ele><time>2026-04-19T08:51:25.517Z</time></trkpt><trkpt lat="39.11506" lon="16.7962533"><ele>292.75</ele><time>2026-04-19T08:51:26.517Z</time></trkpt><trkpt lat="39.1150533" lon="16.79609"><ele>293.0</ele><time>2026-04-19T08:51:27.517Z</time></trkpt><trkpt lat="39.1150467" lon="16.795935"><ele>293.0</ele><time>2026-04-19T08:51:28.517Z</time></trkpt><trkpt lat="39.1150167" lon="16.795805"><ele>293.0</ele><time>2026-04-19T08:51:29.518Z</time></trkpt><trkpt lat="39.1149617" lon="16.7956867"><ele>293.0</ele><time>2026-04-19T08:51:30.517Z</time></trkpt><trkpt lat="39.11487" lon="16.7955967"><ele>293.0</ele><time>2026-04-19T08:51:31.517Z</time></trkpt><trkpt lat="39.114755" lon="16.7955117"><ele>289.25</ele><time>2026-04-19T08:51:32.517Z</time></trkpt><trkpt lat="39.1146533" lon="16.7954"><ele>285.5</ele><time>2026-04-19T08:51:33.517Z</time></trkpt><trkpt lat="39.11458" lon="16.7952683"><ele>281.75</ele><time>2026-04-19T08:51:34.517Z</time></trkpt><trkpt lat="39.1145567" lon="16.7951183"><ele>278.0</ele><time>2026-04-19T08:51:35.517Z</time></trkpt><trkpt lat="39.1145633" lon="16.7949583"><ele>278.0</ele><time>2026-04-19T08:51:36.518Z</time></trkpt><trkpt lat="39.1145933" lon="16.7947933"><ele>278.0</ele><time>2026-04-19T08:51:37.517Z</time></trkpt><trkpt lat="39.1146083" lon="16.794635"><ele>278.0</ele><time>2026-04-19T08:51:38.517Z</time></trkpt><trkpt lat="39.114615" lon="16.7944883"><ele>278.0</ele><time>2026-04-19T08:51:39.517Z</time></trkpt><trkpt lat="39.11458" lon="16.7943517"><ele>278.25</ele><time>2026-04-19T08:51:40.518Z</time></trkpt><trkpt lat="39.1145067" lon="16.794235"><ele>278.5</ele><time>2026-04-19T08:51:41.517Z</time></trkpt><trkpt lat="39.1144067" lon="16.7941617"><ele>278.75</ele><time>2026-04-19T08:51:42.517Z</time></trkpt><trkpt lat="39.1142867" lon="16.7940833"><ele>279.0</ele><time>2026-04-19T08:51:43.518Z</time></trkpt><trkpt lat="39.11417" lon="16.7940183"><ele>284.0</ele><time>2026-04-19T08:51:44.517Z</time></trkpt><trkpt lat="39.11406" lon="16.7939767"><ele>289.0</ele><time>2026-04-19T08:51:45.518Z</time></trkpt><trkpt lat="39.1139467" lon="16.7939733"><ele>294.0</ele><time>2026-04-19T08:51:46.518Z</time></trkpt><trkpt lat="39.1138417" lon="16.7940233"><ele>299.0</ele><time>2026-04-19T08:51:47.517Z</time></trkpt><trkpt lat="39.1137417" lon="16.794125"><ele>299.0</ele><time>2026-04-19T08:51:48.517Z</time></trkpt><trkpt lat="39.1136317" lon="16.7942567"><ele>299.0</ele><time>2026-04-19T08:51:49.517Z</time></trkpt><trkpt lat="39.11352" lon="16.7943883"><ele>299.0</ele><time>2026-04-19T08:51:50.518Z</time></trkpt><trkpt lat="39.1133867" lon="16.7944817"><ele>298.5</ele><time>2026-04-19T08:51:51.517Z</time></trkpt><trkpt lat="39.1132467" lon="16.794535"><ele>298.0</ele><time>2026-04-19T08:51:52.517Z</time></trkpt><trkpt lat="39.11311" lon="16.7945667"><ele>297.5</ele><time>2026-04-19T08:51:53.518Z</time></trkpt><trkpt lat="39.1129583" lon="16.79464"><ele>297.0</ele><time>2026-04-19T08:51:54.517Z</time></trkpt><trkpt lat="39.112805" lon="16.794725"><ele>297.0</ele><time>2026-04-19T08:51:55.517Z</time></trkpt><trkpt lat="39.11266" lon="16.794835"><ele>297.0</ele><time>2026-04-19T08:51:56.517Z</time></trkpt><trkpt lat="39.112515" lon="16.7949317"><ele>297.0</ele><time>2026-04-19T08:51:57.517Z</time></trkpt><trkpt lat="39.11237" lon="16.7950183"><ele>296.6666666666667</ele><time>2026-04-19T08:51:58.517Z</time></trkpt><trkpt lat="39.1122167" lon="16.7951"><ele>296.33333333333337</ele><time>2026-04-19T08:51:59.517Z</time></trkpt><trkpt lat="39.1120717" lon="16.7951983"><ele>296.0</ele><time>2026-04-19T08:52:00.517Z</time></trkpt><trkpt lat="39.1119533" lon="16.795325"><ele>296.0</ele><time>2026-04-19T08:52:01.517Z</time></trkpt><trkpt lat="39.111845" lon="16.7954633"><ele>296.0</ele><time>2026-04-19T08:52:02.518Z</time></trkpt><trkpt lat="39.1117317" lon="16.7955683"><ele>296.0</ele><time>2026-04-19T08:52:03.517Z</time></trkpt><trkpt lat="39.1115883" lon="16.795625"><ele>296.0</ele><time>2026-04-19T08:52:04.517Z</time></trkpt><trkpt lat="39.111445" lon="16.7956433"><ele>304.0</ele><time>2026-04-19T08:52:05.517Z</time></trkpt><trkpt lat="39.111305" lon="16.7956667"><ele>312.0</ele><time>2026-04-19T08:52:06.517Z</time></trkpt><trkpt lat="39.11116" lon="16.7957267"><ele>320.0</ele><time>2026-04-19T08:52:07.518Z</time></trkpt><trkpt lat="39.1110167" lon="16.7958133"><ele>320.0</ele><time>2026-04-19T08:52:08.517Z</time></trkpt><trkpt lat="39.1108633" lon="16.795905"><ele>320.0</ele><time>2026-04-19T08:52:09.518Z</time></trkpt><trkpt lat="39.110715" lon="16.7960167"><ele>320.0</ele><time>2026-04-19T08:52:10.517Z</time></trkpt><trkpt lat="39.1106" lon="16.7961517"><ele>319.0</ele><time>2026-04-19T08:52:11.517Z</time></trkpt><trkpt lat="39.1105167" lon="16.7963317"><ele>318.0</ele><time>2026-04-19T08:52:12.518Z</time></trkpt><trkpt lat="39.11045" lon="16.7965133"><ele>317.0</ele><time>2026-04-19T08:52:13.517Z</time></trkpt><trkpt lat="39.1104" lon="16.79669"><ele>315.2</ele><time>2026-04-19T08:52:14.517Z</time></trkpt><trkpt lat="39.11034" lon="16.7968367"><ele>313.4</ele><time>2026-04-19T08:52:15.517Z</time></trkpt><trkpt lat="39.110265" lon="16.7969517"><ele>311.6</ele><time>2026-04-19T08:52:16.517Z</time></trkpt><trkpt lat="39.1101883" lon="16.7970317"><ele>309.8</ele><time>2026-04-19T08:52:17.517Z</time></trkpt><trkpt lat="39.1100983" lon="16.7970633"><ele>308.0</ele><time>2026-04-19T08:52:18.518Z</time></trkpt><trkpt lat="39.1100233" lon="16.7970233"><ele>308.0</ele><time>2026-04-19T08:52:19.517Z</time></trkpt><trkpt lat="39.109975" lon="16.7969517"><ele>308.0</ele><time>2026-04-19T08:52:20.517Z</time></trkpt><trkpt lat="39.1099417" lon="16.7968433"><ele>308.0</ele><time>2026-04-19T08:52:21.517Z</time></trkpt><trkpt lat="39.1099267" lon="16.7967217"><ele>308.0</ele><time>2026-04-19T08:52:22.517Z</time></trkpt><trkpt lat="39.109895" lon="16.79661"><ele>308.0</ele><time>2026-04-19T08:52:23.518Z</time></trkpt><trkpt lat="39.1098533" lon="16.7965017"><ele>308.0</ele><time>2026-04-19T08:52:24.517Z</time></trkpt><trkpt lat="39.1098017" lon="16.7963917"><ele>307.4</ele><time>2026-04-19T08:52:25.518Z</time></trkpt><trkpt lat="39.1097483" lon="16.7962817"><ele>306.8</ele><time>2026-04-19T08:52:26.517Z</time></trkpt><trkpt lat="39.1096967" lon="16.7961667"><ele>306.2</ele><time>2026-04-19T08:52:27.517Z</time></trkpt><trkpt lat="39.109655" lon="16.7960433"><ele>305.6</ele><time>2026-04-19T08:52:28.517Z</time></trkpt><trkpt lat="39.1096183" lon="16.795915"><ele>305.0</ele><time>2026-04-19T08:52:29.517Z</time></trkpt><trkpt lat="39.1095967" lon="16.7957933"><ele>305.0</ele><time>2026-04-19T08:52:30.517Z</time></trkpt><trkpt lat="39.109595" lon="16.7956783"><ele>305.0</ele><time>2026-04-19T08:52:31.517Z</time></trkpt><trkpt lat="39.1096117" lon="16.7955867"><ele>305.0</ele><time>2026-04-19T08:52:32.517Z</time></trkpt><trkpt lat="39.1096533" lon="16.7955"><ele>305.0</ele><time>2026-04-19T08:52:33.518Z</time></trkpt><trkpt lat="39.1097117" lon="16.7954117"><ele>305.0</ele><time>2026-04-19T08:52:34.517Z</time></trkpt><trkpt lat="39.1097717" lon="16.795315"><ele>305.0</ele><time>2026-04-19T08:52:35.517Z</time></trkpt><trkpt lat="39.1098333" lon="16.7952233"><ele>307.0</ele><time>2026-04-19T08:52:36.518Z</time></trkpt><trkpt lat="39.109895" lon="16.7951417"><ele>309.0</ele><time>2026-04-19T08:52:37.518Z</time></trkpt><trkpt lat="39.1099617" lon="16.7950633"><ele>311.0</ele><time>2026-04-19T08:52:38.517Z</time></trkpt><trkpt lat="39.1100317" lon="16.795005"><ele>313.0</ele><time>2026-04-19T08:52:39.517Z</time></trkpt><trkpt lat="39.1100983" lon="16.7949983"><ele>315.0</ele><time>2026-04-19T08:52:40.517Z</time></trkpt><trkpt lat="39.1102017" lon="16.7950833"><ele>317.1666666666667</ele><time>2026-04-19T08:52:42.517Z</time></trkpt><trkpt lat="39.1102083" lon="16.79517"><ele>319.3333333333333</ele><time>2026-04-19T08:52:43.517Z</time></trkpt><trkpt lat="39.1101817" lon="16.7952833"><ele>321.5</ele><time>2026-04-19T08:52:44.517Z</time></trkpt><trkpt lat="39.110145" lon="16.7953917"><ele>323.66666666666663</ele><time>2026-04-19T08:52:45.517Z</time></trkpt><trkpt lat="39.1101267" lon="16.7955"><ele>325.8333333333333</ele><time>2026-04-19T08:52:47.517Z</time></trkpt><trkpt lat="39.1101933" lon="16.795415"><ele>328.0</ele><time>2026-04-19T08:52:52.517Z</time></trkpt><trkpt lat="39.1102167" lon="16.7952733"><ele>329.3333333333333</ele><time>2026-04-19T08:52:54.517Z</time></trkpt><trkpt lat="39.1102017" lon="16.7951567"><ele>330.66666666666663</ele><time>2026-04-19T08:52:55.517Z</time></trkpt><trkpt lat="39.1101817" lon="16.7950617"><ele>332.0</ele><time>2026-04-19T08:52:56.517Z</time></trkpt><trkpt lat="39.1101433" lon="16.7949867"><ele>333.3333333333333</ele><time>2026-04-19T08:52:57.517Z</time></trkpt><trkpt lat="39.1100833" lon="16.794945"><ele>334.6666666666667</ele><time>2026-04-19T08:52:58.518Z</time></trkpt><trkpt lat="39.11001" lon="16.794965"><ele>336.0</ele><time>2026-04-19T08:52:59.517Z</time></trkpt><trkpt lat="39.109945" lon="16.7950333"><ele>330.75</ele><time>2026-04-19T08:53:00.517Z</time></trkpt><trkpt lat="39.1098667" lon="16.795135"><ele>325.5</ele><time>2026-04-19T08:53:01.518Z</time></trkpt><trkpt lat="39.109765" lon="16.7952583"><ele>320.25</ele><time>2026-04-19T08:53:02.518Z</time></trkpt><trkpt lat="39.1096717" lon="16.7953833"><ele>315.0</ele><time>2026-04-19T08:53:03.517Z</time></trkpt><trkpt lat="39.10962" lon="16.795535"><ele>312.5</ele><time>2026-04-19T08:53:04.517Z</time></trkpt><trkpt lat="39.1096033" lon="16.7957"><ele>310.0</ele><time>2026-04-19T08:53:05.517Z</time></trkpt><trkpt lat="39.1096267" lon="16.7958867"><ele>307.5</ele><time>2026-04-19T08:53:06.518Z</time></trkpt><trkpt lat="39.1096733" lon="16.7960683"><ele>305.0</ele><time>2026-04-19T08:53:07.517Z</time></trkpt><trkpt lat="39.10973" lon="16.7962117"><ele>305.6</ele><time>2026-04-19T08:53:08.517Z</time></trkpt><trkpt lat="39.1097817" lon="16.7963633"><ele>306.2</ele><time>2026-04-19T08:53:09.517Z</time></trkpt><trkpt lat="39.1098333" lon="16.7965017"><ele>306.8</ele><time>2026-04-19T08:53:10.517Z</time></trkpt><trkpt lat="39.1098817" lon="16.7966133"><ele>307.4</ele><time>2026-04-19T08:53:11.517Z</time></trkpt><trkpt lat="39.1099267" lon="16.7967117"><ele>308.0</ele><time>2026-04-19T08:53:12.517Z</time></trkpt><trkpt lat="39.110015" lon="16.7968833"><ele>308.0</ele><time>2026-04-19T08:53:14.517Z</time></trkpt><trkpt lat="39.1100067" lon="16.796975"><ele>308.0</ele><time>2026-04-19T08:53:16.517Z</time></trkpt><trkpt lat="39.1099317" lon="16.7969333"><ele>308.0</ele><time>2026-04-19T08:53:18.517Z</time></trkpt><trkpt lat="39.109895" lon="16.7968617"><ele>308.0</ele><time>2026-04-19T08:53:19.517Z</time></trkpt><trkpt lat="39.1098533" lon="16.796765"><ele>308.0</ele><time>2026-04-19T08:53:20.517Z</time></trkpt><trkpt lat="39.1098133" lon="16.7966567"><ele>308.0</ele><time>2026-04-19T08:53:21.517Z</time></trkpt><trkpt lat="39.1097667" lon="16.7965417"><ele>305.5</ele><time>2026-04-19T08:53:22.517Z</time></trkpt><trkpt lat="39.1097083" lon="16.7964183"><ele>303.0</ele><time>2026-04-19T08:53:23.517Z</time></trkpt><trkpt lat="39.1096417" lon="16.796295"><ele>300.5</ele><time>2026-04-19T08:53:24.517Z</time></trkpt><trkpt lat="39.1095667" lon="16.7961683"><ele>298.0</ele><time>2026-04-19T08:53:25.517Z</time></trkpt><trkpt lat="39.1094883" lon="16.796035"><ele>299.75</ele><time>2026-04-19T08:53:26.518Z</time></trkpt><trkpt lat="39.10942" lon="16.7958967"><ele>301.5</ele><time>2026-04-19T08:53:27.517Z</time></trkpt><trkpt lat="39.1093583" lon="16.7957583"><ele>303.25</ele><time>2026-04-19T08:53:28.517Z</time></trkpt><trkpt lat="39.1093167" lon="16.7956167"><ele>305.0</ele><time>2026-04-19T08:53:29.518Z</time></trkpt><trkpt lat="39.1092933" lon="16.7954683"><ele>305.0</ele><time>2026-04-19T08:53:30.517Z</time></trkpt><trkpt lat="39.1092817" lon="16.7953133"><ele>305.0</ele><time>2026-04-19T08:53:31.517Z</time></trkpt><trkpt lat="39.1092767" lon="16.795155"><ele>305.0</ele><time>2026-04-19T08:53:32.517Z</time></trkpt><trkpt lat="39.1092683" lon="16.7950017"><ele>305.0</ele><time>2026-04-19T08:53:33.518Z</time></trkpt><trkpt lat="39.1092367" lon="16.7948517"><ele>307.5</ele><time>2026-04-19T08:53:34.517Z</time></trkpt><trkpt lat="39.1091667" lon="16.7947433"><ele>310.0</ele><time>2026-04-19T08:53:35.517Z</time></trkpt><trkpt lat="39.1090567" lon="16.7946683"><ele>312.5</ele><time>2026-04-19T08:53:36.517Z</time></trkpt><trkpt lat="39.10892" lon="16.794615"><ele>315.0</ele><time>2026-04-19T08:53:37.517Z</time></trkpt><trkpt lat="39.1087667" lon="16.79458"><ele>309.0</ele><time>2026-04-19T08:53:38.517Z</time></trkpt><trkpt lat="39.1086117" lon="16.7945717"><ele>303.0</ele><time>2026-04-19T08:53:39.517Z</time></trkpt><trkpt lat="39.1084717" lon="16.7945367"><ele>297.0</ele><time>2026-04-19T08:53:40.518Z</time></trkpt><trkpt lat="39.1083467" lon="16.7945083"><ele>291.0</ele><time>2026-04-19T08:53:41.517Z</time></trkpt><trkpt lat="39.1082267" lon="16.7944483"><ele>288.75</ele><time>2026-04-19T08:53:42.517Z</time></trkpt><trkpt lat="39.108115" lon="16.7943467"><ele>286.5</ele><time>2026-04-19T08:53:43.518Z</time></trkpt><trkpt lat="39.1080233" lon="16.7942167"><ele>284.25</ele><time>2026-04-19T08:53:44.517Z</time></trkpt><trkpt lat="39.10793" lon="16.7940683"><ele>282.0</ele><time>2026-04-19T08:53:45.517Z</time></trkpt><trkpt lat="39.10785" lon="16.7939117"><ele>282.0</ele><time>2026-04-19T08:53:46.517Z</time></trkpt><trkpt lat="39.107775" lon="16.7937517"><ele>282.0</ele><time>2026-04-19T08:53:47.517Z</time></trkpt><trkpt lat="39.1077183" lon="16.7935917"><ele>282.0</ele><time>2026-04-19T08:53:48.517Z</time></trkpt><trkpt lat="39.1077" lon="16.7934133"><ele>282.0</ele><time>2026-04-19T08:53:49.517Z</time></trkpt><trkpt lat="39.107715" lon="16.7932333"><ele>282.0</ele><time>2026-04-19T08:53:50.517Z</time></trkpt><trkpt lat="39.1077233" lon="16.793045"><ele>282.0</ele><time>2026-04-19T08:53:51.517Z</time></trkpt><trkpt lat="39.1077233" lon="16.792865"><ele>282.0</ele><time>2026-04-19T08:53:52.517Z</time></trkpt><trkpt lat="39.1077283" lon="16.7926917"><ele>282.0</ele><time>2026-04-19T08:53:53.517Z</time></trkpt><trkpt lat="39.107765" lon="16.7925317"><ele>282.0</ele><time>2026-04-19T08:53:54.517Z</time></trkpt><trkpt lat="39.1078267" lon="16.792385"><ele>282.0</ele><time>2026-04-19T08:53:55.517Z</time></trkpt><trkpt lat="39.1079133" lon="16.7922783"><ele>282.0</ele><time>2026-04-19T08:53:56.517Z</time></trkpt><trkpt lat="39.107985" lon="16.7921817"><ele>282.0</ele><time>2026-04-19T08:53:57.518Z</time></trkpt><trkpt lat="39.108025" lon="16.7920683"><ele>282.0</ele><time>2026-04-19T08:53:58.517Z</time></trkpt><trkpt lat="39.1080267" lon="16.79194"><ele>282.0</ele><time>2026-04-19T08:53:59.517Z</time></trkpt><trkpt lat="39.1080183" lon="16.7917983"><ele>282.0</ele><time>2026-04-19T08:54:00.518Z</time></trkpt><trkpt lat="39.107985" lon="16.791655"><ele>282.0</ele><time>2026-04-19T08:54:01.518Z</time></trkpt><trkpt lat="39.107925" lon="16.79153"><ele>282.0</ele><time>2026-04-19T08:54:02.517Z</time></trkpt><trkpt lat="39.107845" lon="16.7914083"><ele>282.0</ele><time>2026-04-19T08:54:03.518Z</time></trkpt><trkpt lat="39.107755" lon="16.7912833"><ele>282.0</ele><time>2026-04-19T08:54:04.517Z</time></trkpt><trkpt lat="39.1076717" lon="16.791165"><ele>282.0</ele><time>2026-04-19T08:54:05.517Z</time></trkpt><trkpt lat="39.1076" lon="16.7910483"><ele>282.0</ele><time>2026-04-19T08:54:06.517Z</time></trkpt><trkpt lat="39.1075283" lon="16.79093"><ele>282.0</ele><time>2026-04-19T08:54:07.517Z</time></trkpt><trkpt lat="39.107475" lon="16.7908117"><ele>282.0</ele><time>2026-04-19T08:54:08.517Z</time></trkpt><trkpt lat="39.107435" lon="16.79069"><ele>282.0</ele><time>2026-04-19T08:54:09.517Z</time></trkpt><trkpt lat="39.107405" lon="16.7905233"><ele>282.0</ele><time>2026-04-19T08:54:10.518Z</time></trkpt><trkpt lat="39.1074017" lon="16.79035"><ele>282.5</ele><time>2026-04-19T08:54:11.517Z</time></trkpt><trkpt lat="39.107415" lon="16.7901683"><ele>283.0</ele><time>2026-04-19T08:54:12.517Z</time></trkpt><trkpt lat="39.107435" lon="16.7899683"><ele>283.5</ele><time>2026-04-19T08:54:13.517Z</time></trkpt><trkpt lat="39.1074517" lon="16.7897783"><ele>284.0</ele><time>2026-04-19T08:54:14.517Z</time></trkpt><trkpt lat="39.10746" lon="16.7895967"><ele>284.0</ele><time>2026-04-19T08:54:15.518Z</time></trkpt><trkpt lat="39.107455" lon="16.7894267"><ele>284.0</ele><time>2026-04-19T08:54:16.517Z</time></trkpt><trkpt lat="39.1074233" lon="16.7892633"><ele>284.0</ele><time>2026-04-19T08:54:17.517Z</time></trkpt><trkpt lat="39.1073617" lon="16.7891167"><ele>284.0</ele><time>2026-04-19T08:54:18.518Z</time></trkpt><trkpt lat="39.107265" lon="16.7889933"><ele>280.25</ele><time>2026-04-19T08:54:19.518Z</time></trkpt><trkpt lat="39.1071517" lon="16.7889167"><ele>276.5</ele><time>2026-04-19T08:54:20.517Z</time></trkpt><trkpt lat="39.1070167" lon="16.78884"><ele>272.75</ele><time>2026-04-19T08:54:21.517Z</time></trkpt><trkpt lat="39.1068817" lon="16.78879"><ele>269.0</ele><time>2026-04-19T08:54:22.517Z</time></trkpt><trkpt lat="39.1067367" lon="16.7887767"><ele>269.0</ele><time>2026-04-19T08:54:23.518Z</time></trkpt><trkpt lat="39.106595" lon="16.7888283"><ele>269.0</ele><time>2026-04-19T08:54:24.517Z</time></trkpt><trkpt lat="39.106485" lon="16.7889417"><ele>269.0</ele><time>2026-04-19T08:54:25.517Z</time></trkpt><trkpt lat="39.1063867" lon="16.7890917"><ele>269.0</ele><time>2026-04-19T08:54:26.517Z</time></trkpt><trkpt lat="39.1062817" lon="16.7892617"><ele>272.0</ele><time>2026-04-19T08:54:27.517Z</time></trkpt><trkpt lat="39.1061733" lon="16.789425"><ele>275.0</ele><time>2026-04-19T08:54:28.518Z</time></trkpt><trkpt lat="39.1060633" lon="16.7895883"><ele>278.0</ele><time>2026-04-19T08:54:29.517Z</time></trkpt><trkpt lat="39.1059433" lon="16.7897733"><ele>278.0</ele><time>2026-04-19T08:54:30.517Z</time></trkpt><trkpt lat="39.1058333" lon="16.7899617"><ele>278.0</ele><time>2026-04-19T08:54:31.517Z</time></trkpt><trkpt lat="39.1057333" lon="16.79016"><ele>278.0</ele><time>2026-04-19T08:54:32.517Z</time></trkpt><trkpt lat="39.105655" lon="16.7903617"><ele>282.6666666666667</ele><time>2026-04-19T08:54:33.517Z</time></trkpt><trkpt lat="39.1055867" lon="16.7905617"><ele>287.3333333333333</ele><time>2026-04-19T08:54:34.517Z</time></trkpt><trkpt lat="39.105515" lon="16.7907467"><ele>292.0</ele><time>2026-04-19T08:54:35.517Z</time></trkpt><trkpt lat="39.1054333" lon="16.7909317"><ele>291.25</ele><time>2026-04-19T08:54:36.518Z</time></trkpt><trkpt lat="39.105355" lon="16.7911033"><ele>290.5</ele><time>2026-04-19T08:54:37.517Z</time></trkpt><trkpt lat="39.1053" lon="16.79128"><ele>289.75</ele><time>2026-04-19T08:54:38.517Z</time></trkpt><trkpt lat="39.1052767" lon="16.7914667"><ele>289.0</ele><time>2026-04-19T08:54:39.518Z</time></trkpt><trkpt lat="39.1052733" lon="16.79163"><ele>289.0</ele><time>2026-04-19T08:54:40.518Z</time></trkpt><trkpt lat="39.10524" lon="16.79178"><ele>289.0</ele><time>2026-04-19T08:54:41.518Z</time></trkpt><trkpt lat="39.1051767" lon="16.7918883"><ele>289.0</ele><time>2026-04-19T08:54:42.517Z</time></trkpt><trkpt lat="39.105085" lon="16.79195"><ele>289.0</ele><time>2026-04-19T08:54:43.517Z</time></trkpt><trkpt lat="39.1049717" lon="16.791965"><ele>289.0</ele><time>2026-04-19T08:54:44.518Z</time></trkpt><trkpt lat="39.10485" lon="16.791965"><ele>290.0</ele><time>2026-04-19T08:54:45.517Z</time></trkpt><trkpt lat="39.10472" lon="16.79197"><ele>291.0</ele><time>2026-04-19T08:54:46.517Z</time></trkpt><trkpt lat="39.1045983" lon="16.7920017"><ele>292.0</ele><time>2026-04-19T08:54:47.518Z</time></trkpt><trkpt lat="39.1044883" lon="16.7920783"><ele>293.0</ele><time>2026-04-19T08:54:48.518Z</time></trkpt><trkpt lat="39.1044033" lon="16.792215"><ele>293.0</ele><time>2026-04-19T08:54:49.518Z</time></trkpt><trkpt lat="39.1043383" lon="16.7923767"><ele>293.0</ele><time>2026-04-19T08:54:50.517Z</time></trkpt><trkpt lat="39.1042767" lon="16.7925383"><ele>293.0</ele><time>2026-04-19T08:54:51.517Z</time></trkpt><trkpt lat="39.104215" lon="16.7927067"><ele>293.0</ele><time>2026-04-19T08:54:52.517Z</time></trkpt><trkpt lat="39.1041367" lon="16.7928767"><ele>296.6666666666667</ele><time>2026-04-19T08:54:53.517Z</time></trkpt><trkpt lat="39.10405" lon="16.7930383"><ele>300.3333333333333</ele><time>2026-04-19T08:54:54.518Z</time></trkpt><trkpt lat="39.10395" lon="16.7932033"><ele>304.0</ele><time>2026-04-19T08:54:55.518Z</time></trkpt><trkpt lat="39.1038517" lon="16.7933667"><ele>300.75</ele><time>2026-04-19T08:54:56.517Z</time></trkpt><trkpt lat="39.103765" lon="16.79352"><ele>297.5</ele><time>2026-04-19T08:54:57.517Z</time></trkpt><trkpt lat="39.1036733" lon="16.79367"><ele>294.25</ele><time>2026-04-19T08:54:58.518Z</time></trkpt><trkpt lat="39.1035783" lon="16.7937867"><ele>291.0</ele><time>2026-04-19T08:54:59.517Z</time></trkpt><trkpt lat="39.103475" lon="16.79386"><ele>291.0</ele><time>2026-04-19T08:55:00.517Z</time></trkpt><trkpt lat="39.1033733" lon="16.7938917"><ele>291.0</ele><time>2026-04-19T08:55:01.518Z</time></trkpt><trkpt lat="39.1032817" lon="16.793915"><ele>291.0</ele><time>2026-04-19T08:55:02.517Z</time></trkpt><trkpt lat="39.1032067" lon="16.793965"><ele>291.0</ele><time>2026-04-19T08:55:03.517Z</time></trkpt><trkpt lat="39.10315" lon="16.7940617"><ele>291.0</ele><time>2026-04-19T08:55:04.517Z</time></trkpt><trkpt lat="39.1031217" lon="16.7941833"><ele>295.0</ele><time>2026-04-19T08:55:05.517Z</time></trkpt><trkpt lat="39.1031367" lon="16.7943333"><ele>299.0</ele><time>2026-04-19T08:55:06.517Z</time></trkpt><trkpt lat="39.1031617" lon="16.79447"><ele>303.0</ele><time>2026-04-19T08:55:07.517Z</time></trkpt><trkpt lat="39.103195" lon="16.7945983"><ele>307.0</ele><time>2026-04-19T08:55:08.517Z</time></trkpt><trkpt lat="39.1032183" lon="16.794725"><ele>311.0</ele><time>2026-04-19T08:55:09.518Z</time></trkpt><trkpt lat="39.103235" lon="16.7948433"><ele>311.0</ele><time>2026-04-19T08:55:10.517Z</time></trkpt><trkpt lat="39.1032233" lon="16.794965"><ele>311.0</ele><time>2026-04-19T08:55:11.517Z</time></trkpt><trkpt lat="39.1031883" lon="16.795085"><ele>311.0</ele><time>2026-04-19T08:55:12.517Z</time></trkpt><trkpt lat="39.1031517" lon="16.7952"><ele>311.0</ele><time>2026-04-19T08:55:13.517Z</time></trkpt><trkpt lat="39.1031067" lon="16.7953117"><ele>311.0</ele><time>2026-04-19T08:55:14.517Z</time></trkpt><trkpt lat="39.1030583" lon="16.7954167"><ele>309.2</ele><time>2026-04-19T08:55:15.517Z</time></trkpt><trkpt lat="39.1029983" lon="16.795505"><ele>307.40000000000003</ele><time>2026-04-19T08:55:16.517Z</time></trkpt><trkpt lat="39.1029233" lon="16.79557"><ele>305.6</ele><time>2026-04-19T08:55:17.517Z</time></trkpt><trkpt lat="39.1028233" lon="16.79562"><ele>303.8</ele><time>2026-04-19T08:55:18.517Z</time></trkpt><trkpt lat="39.1027233" lon="16.7956283"><ele>302.0</ele><time>2026-04-19T08:55:19.517Z</time></trkpt><trkpt lat="39.10263" lon="16.795605"><ele>302.0</ele><time>2026-04-19T08:55:20.518Z</time></trkpt><trkpt lat="39.1025333" lon="16.7955783"><ele>302.0</ele><time>2026-04-19T08:55:21.518Z</time></trkpt><trkpt lat="39.102445" lon="16.7955817"><ele>302.0</ele><time>2026-04-19T08:55:22.518Z</time></trkpt><trkpt lat="39.102365" lon="16.7956133"><ele>302.0</ele><time>2026-04-19T08:55:23.518Z</time></trkpt><trkpt lat="39.1022933" lon="16.7956633"><ele>302.0</ele><time>2026-04-19T08:55:24.517Z</time></trkpt><trkpt lat="39.1022267" lon="16.795735"><ele>302.0</ele><time>2026-04-19T08:55:25.517Z</time></trkpt><trkpt lat="39.1021667" lon="16.7958233"><ele>305.0</ele><time>2026-04-19T08:55:26.517Z</time></trkpt><trkpt lat="39.10213" lon="16.7959367"><ele>308.0</ele><time>2026-04-19T08:55:27.517Z</time></trkpt><trkpt lat="39.1021083" lon="16.7960833"><ele>311.0</ele><time>2026-04-19T08:55:28.517Z</time></trkpt><trkpt lat="39.1020883" lon="16.79626"><ele>314.0</ele><time>2026-04-19T08:55:29.517Z</time></trkpt><trkpt lat="39.1020567" lon="16.7964467"><ele>314.0</ele><time>2026-04-19T08:55:30.518Z</time></trkpt><trkpt lat="39.1020117" lon="16.7966383"><ele>314.0</ele><time>2026-04-19T08:55:31.517Z</time></trkpt><trkpt lat="39.1019733" lon="16.7968217"><ele>314.0</ele><time>2026-04-19T08:55:32.517Z</time></trkpt><trkpt lat="39.1019483" lon="16.7970083"><ele>314.0</ele><time>2026-04-19T08:55:33.517Z</time></trkpt><trkpt lat="39.1019317" lon="16.7972117"><ele>314.0</ele><time>2026-04-19T08:55:34.517Z</time></trkpt><trkpt lat="39.1018933" lon="16.7974167"><ele>314.0</ele><time>2026-04-19T08:55:35.517Z</time></trkpt><trkpt lat="39.1018733" lon="16.7976117"><ele>315.5</ele><time>2026-04-19T08:55:36.518Z</time></trkpt><trkpt lat="39.101885" lon="16.797795"><ele>317.0</ele><time>2026-04-19T08:55:37.518Z</time></trkpt><trkpt lat="39.10193" lon="16.7979567"><ele>318.5</ele><time>2026-04-19T08:55:38.517Z</time></trkpt><trkpt lat="39.1019933" lon="16.7980867"><ele>320.0</ele><time>2026-04-19T08:55:39.517Z</time></trkpt><trkpt lat="39.1020733" lon="16.798215"><ele>320.0</ele><time>2026-04-19T08:55:40.517Z</time></trkpt><trkpt lat="39.1021433" lon="16.79834"><ele>320.0</ele><time>2026-04-19T08:55:41.517Z</time></trkpt><trkpt lat="39.1022" lon="16.798455"><ele>320.0</ele><time>2026-04-19T08:55:42.517Z</time></trkpt><trkpt lat="39.1022433" lon="16.7985683"><ele>320.0</ele><time>2026-04-19T08:55:43.517Z</time></trkpt><trkpt lat="39.1022733" lon="16.79868"><ele>320.0</ele><time>2026-04-19T08:55:44.517Z</time></trkpt><trkpt lat="39.102275" lon="16.7987883"><ele>320.4</ele><time>2026-04-19T08:55:45.517Z</time></trkpt><trkpt lat="39.1022417" lon="16.7988933"><ele>320.8</ele><time>2026-04-19T08:55:46.517Z</time></trkpt><trkpt lat="39.1021833" lon="16.7990033"><ele>321.20000000000005</ele><time>2026-04-19T08:55:47.518Z</time></trkpt><trkpt lat="39.102125" lon="16.7991117"><ele>321.6</ele><time>2026-04-19T08:55:48.517Z</time></trkpt><trkpt lat="39.1020683" lon="16.79922"><ele>322.0</ele><time>2026-04-19T08:55:49.517Z</time></trkpt><trkpt lat="39.1020167" lon="16.799335"><ele>322.0</ele><time>2026-04-19T08:55:50.517Z</time></trkpt><trkpt lat="39.1019633" lon="16.79946"><ele>322.0</ele><time>2026-04-19T08:55:51.518Z</time></trkpt><trkpt lat="39.1019033" lon="16.79959"><ele>322.0</ele><time>2026-04-19T08:55:52.518Z</time></trkpt><trkpt lat="39.101825" lon="16.7997317"><ele>322.0</ele><time>2026-04-19T08:55:53.517Z</time></trkpt><trkpt lat="39.1017217" lon="16.7998867"><ele>322.0</ele><time>2026-04-19T08:55:54.517Z</time></trkpt><trkpt lat="39.1016" lon="16.8000367"><ele>322.0</ele><time>2026-04-19T08:55:55.517Z</time></trkpt><trkpt lat="39.1014867" lon="16.8001967"><ele>322.0</ele><time>2026-04-19T08:55:56.517Z</time></trkpt><trkpt lat="39.1014017" lon="16.8003617"><ele>326.3333333333333</ele><time>2026-04-19T08:55:57.517Z</time></trkpt><trkpt lat="39.10136" lon="16.80055"><ele>330.6666666666667</ele><time>2026-04-19T08:55:58.518Z</time></trkpt><trkpt lat="39.1013333" lon="16.8007517"><ele>335.0</ele><time>2026-04-19T08:55:59.517Z</time></trkpt><trkpt lat="39.1013017" lon="16.8009567"><ele>334.0</ele><time>2026-04-19T08:56:00.517Z</time></trkpt><trkpt lat="39.10126" lon="16.801165"><ele>333.0</ele><time>2026-04-19T08:56:01.517Z</time></trkpt><trkpt lat="39.1012017" lon="16.8013783"><ele>332.0</ele><time>2026-04-19T08:56:02.518Z</time></trkpt><trkpt lat="39.10113" lon="16.8016"><ele>332.0</ele><time>2026-04-19T08:56:03.517Z</time></trkpt><trkpt lat="39.101055" lon="16.8018217"><ele>332.0</ele><time>2026-04-19T08:56:04.517Z</time></trkpt><trkpt lat="39.1009833" lon="16.80203"><ele>332.0</ele><time>2026-04-19T08:56:05.517Z</time></trkpt><trkpt lat="39.10091" lon="16.802205"><ele>332.5</ele><time>2026-04-19T08:56:06.518Z</time></trkpt><trkpt lat="39.1008283" lon="16.8023217"><ele>333.0</ele><time>2026-04-19T08:56:07.517Z</time></trkpt><trkpt lat="39.10072" lon="16.80238"><ele>333.5</ele><time>2026-04-19T08:56:08.518Z</time></trkpt><trkpt lat="39.1005883" lon="16.8023833"><ele>334.0</ele><time>2026-04-19T08:56:09.517Z</time></trkpt><trkpt lat="39.1004417" lon="16.80233"><ele>334.0</ele><time>2026-04-19T08:56:10.517Z</time></trkpt><trkpt lat="39.1002817" lon="16.8022383"><ele>334.0</ele><time>2026-04-19T08:56:11.518Z</time></trkpt><trkpt lat="39.10011" lon="16.802125"><ele>334.0</ele><time>2026-04-19T08:56:12.518Z</time></trkpt><trkpt lat="39.099935" lon="16.8020067"><ele>333.66666666666663</ele><time>2026-04-19T08:56:13.517Z</time></trkpt><trkpt lat="39.0997683" lon="16.8019017"><ele>333.3333333333333</ele><time>2026-04-19T08:56:14.517Z</time></trkpt><trkpt lat="39.0996117" lon="16.80183"><ele>333.0</ele><time>2026-04-19T08:56:15.517Z</time></trkpt><trkpt lat="39.0995067" lon="16.8017567"><ele>333.0</ele><time>2026-04-19T08:56:16.517Z</time></trkpt><trkpt lat="39.099385" lon="16.8017383"><ele>333.0</ele><time>2026-04-19T08:56:17.517Z</time></trkpt><trkpt lat="39.09927" lon="16.8017933"><ele>333.0</ele><time>2026-04-19T08:56:18.517Z</time></trkpt><trkpt lat="39.099145" lon="16.8018783"><ele>333.0</ele><time>2026-04-19T08:56:19.517Z</time></trkpt><trkpt lat="39.0990333" lon="16.8019817"><ele>333.79999999999995</ele><time>2026-04-19T08:56:20.517Z</time></trkpt><trkpt lat="39.0989683" lon="16.8021133"><ele>334.6</ele><time>2026-04-19T08:56:21.518Z</time></trkpt><trkpt lat="39.09892" lon="16.8022583"><ele>335.4</ele><time>2026-04-19T08:56:22.517Z</time></trkpt><trkpt lat="39.09889" lon="16.8023883"><ele>336.20000000000005</ele><time>2026-04-19T08:56:23.517Z</time></trkpt><trkpt lat="39.09886" lon="16.802495"><ele>337.0</ele><time>2026-04-19T08:56:24.517Z</time></trkpt><trkpt lat="39.0988267" lon="16.802575"><ele>337.0</ele><time>2026-04-19T08:56:25.518Z</time></trkpt><trkpt lat="39.0987417" lon="16.8026417"><ele>337.0</ele><time>2026-04-19T08:56:27.518Z</time></trkpt><trkpt lat="39.09865" lon="16.8026567"><ele>337.0</ele><time>2026-04-19T08:56:29.518Z</time></trkpt><trkpt lat="39.0985433" lon="16.8026817"><ele>337.0</ele><time>2026-04-19T08:56:31.517Z</time></trkpt><trkpt lat="39.0984667" lon="16.8026883"><ele>337.0</ele><time>2026-04-19T08:56:32.517Z</time></trkpt><trkpt lat="39.0983717" lon="16.8026833"><ele>337.5</ele><time>2026-04-19T08:56:33.517Z</time></trkpt><trkpt lat="39.09826" lon="16.8026867"><ele>338.0</ele><time>2026-04-19T08:56:34.517Z</time></trkpt><trkpt lat="39.098125" lon="16.8026817"><ele>338.5</ele><time>2026-04-19T08:56:35.517Z</time></trkpt><trkpt lat="39.0979467" lon="16.8027533"><ele>339.0</ele><time>2026-04-19T08:56:36.517Z</time></trkpt><trkpt lat="39.0977917" lon="16.8027517"><ele>339.0</ele><time>2026-04-19T08:56:37.517Z</time></trkpt><trkpt lat="39.0976117" lon="16.8027717"><ele>339.0</ele><time>2026-04-19T08:56:38.517Z</time></trkpt><trkpt lat="39.097445" lon="16.802785"><ele>339.0</ele><time>2026-04-19T08:56:39.517Z</time></trkpt><trkpt lat="39.097295" lon="16.802795"><ele>343.0</ele><time>2026-04-19T08:56:40.517Z</time></trkpt><trkpt lat="39.097145" lon="16.8028433"><ele>347.0</ele><time>2026-04-19T08:56:41.517Z</time></trkpt><trkpt lat="39.09701" lon="16.802965"><ele>351.0</ele><time>2026-04-19T08:56:42.517Z</time></trkpt><trkpt lat="39.0968833" lon="16.8031317"><ele>351.0</ele><time>2026-04-19T08:56:43.517Z</time></trkpt><trkpt lat="39.0967967" lon="16.803345"><ele>351.0</ele><time>2026-04-19T08:56:44.517Z</time></trkpt><trkpt lat="39.0967533" lon="16.8035533"><ele>351.0</ele><time>2026-04-19T08:56:45.517Z</time></trkpt><trkpt lat="39.0967367" lon="16.8037317"><ele>351.6666666666667</ele><time>2026-04-19T08:56:46.518Z</time></trkpt><trkpt lat="39.09675" lon="16.803875"><ele>352.3333333333333</ele><time>2026-04-19T08:56:47.517Z</time></trkpt><trkpt lat="39.0967733" lon="16.803975"><ele>353.0</ele><time>2026-04-19T08:56:48.517Z</time></trkpt><trkpt lat="39.0967883" lon="16.8040633"><ele>353.66666666666663</ele><time>2026-04-19T08:56:50.517Z</time></trkpt><trkpt lat="39.09674" lon="16.804"><ele>354.3333333333333</ele><time>2026-04-19T08:56:58.517Z</time></trkpt><trkpt lat="39.0967133" lon="16.80392"><ele>355.0</ele><time>2026-04-19T08:57:01.517Z</time></trkpt><trkpt lat="39.0966533" lon="16.8038633"><ele>357.5</ele><time>2026-04-19T08:57:04.518Z</time></trkpt><trkpt lat="39.0964483" lon="16.8038667"><ele>360.0</ele><time>2026-04-19T08:57:19.517Z</time></trkpt><trkpt lat="39.0963817" lon="16.8038783"><ele>362.5</ele><time>2026-04-19T08:57:23.518Z</time></trkpt><trkpt lat="39.0965" lon="16.80388"><ele>365.0</ele><time>2026-04-19T08:57:28.518Z</time></trkpt><trkpt lat="39.096555" lon="16.803955"><ele>362.5</ele><time>2026-04-19T08:57:37.517Z</time></trkpt><trkpt lat="39.0967483" lon="16.8039733"><ele>360.0</ele><time>2026-04-19T08:57:44.518Z</time></trkpt><trkpt lat="39.0968133" lon="16.804065"><ele>357.5</ele><time>2026-04-19T08:57:46.517Z</time></trkpt><trkpt lat="39.0968733" lon="16.804135"><ele>355.0</ele><time>2026-04-19T08:57:48.517Z</time></trkpt><trkpt lat="39.09699" lon="16.80418"><ele>355.0</ele><time>2026-04-19T08:57:50.517Z</time></trkpt><trkpt lat="39.0970617" lon="16.8042183"><ele>355.0</ele><time>2026-04-19T08:57:51.517Z</time></trkpt><trkpt lat="39.0971217" lon="16.80427"><ele>355.0</ele><time>2026-04-19T08:57:52.517Z</time></trkpt><trkpt lat="39.0971733" lon="16.8043217"><ele>355.0</ele><time>2026-04-19T08:57:53.517Z</time></trkpt><trkpt lat="39.0972233" lon="16.8043917"><ele>355.0</ele><time>2026-04-19T08:57:54.517Z</time></trkpt><trkpt lat="39.097255" lon="16.8044867"><ele>355.0</ele><time>2026-04-19T08:57:55.517Z</time></trkpt><trkpt lat="39.0972333" lon="16.8046083"><ele>356.5</ele><time>2026-04-19T08:57:56.518Z</time></trkpt><trkpt lat="39.09717" lon="16.8047333"><ele>358.0</ele><time>2026-04-19T08:57:57.517Z</time></trkpt><trkpt lat="39.0970783" lon="16.8048417"><ele>359.5</ele><time>2026-04-19T08:57:58.518Z</time></trkpt><trkpt lat="39.096975" lon="16.8049383"><ele>361.0</ele><time>2026-04-19T08:57:59.517Z</time></trkpt><trkpt lat="39.0968817" lon="16.8050533"><ele>359.6</ele><time>2026-04-19T08:58:00.517Z</time></trkpt><trkpt lat="39.0968083" lon="16.8051783"><ele>358.20000000000005</ele><time>2026-04-19T08:58:01.517Z</time></trkpt><trkpt lat="39.0967583" lon="16.805305"><ele>356.79999999999995</ele><time>2026-04-19T08:58:02.517Z</time></trkpt><trkpt lat="39.09672" lon="16.805425"><ele>355.4</ele><time>2026-04-19T08:58:03.518Z</time></trkpt><trkpt lat="39.096685" lon="16.80554"><ele>354.0</ele><time>2026-04-19T08:58:04.517Z</time></trkpt><trkpt lat="39.0966317" lon="16.80565"><ele>358.0</ele><time>2026-04-19T08:58:05.517Z</time></trkpt><trkpt lat="39.0965667" lon="16.805745"><ele>362.0</ele><time>2026-04-19T08:58:06.517Z</time></trkpt><trkpt lat="39.0965067" lon="16.8058333"><ele>366.0</ele><time>2026-04-19T08:58:07.517Z</time></trkpt><trkpt lat="39.0964433" lon="16.8059283"><ele>370.0</ele><time>2026-04-19T08:58:08.518Z</time></trkpt><trkpt lat="39.0963967" lon="16.8060383"><ele>374.0</ele><time>2026-04-19T08:58:09.518Z</time></trkpt><trkpt lat="39.0963667" lon="16.8061517"><ele>374.0</ele><time>2026-04-19T08:58:10.517Z</time></trkpt><trkpt lat="39.0963383" lon="16.8062717"><ele>374.0</ele><time>2026-04-19T08:58:11.518Z</time></trkpt><trkpt lat="39.0963" lon="16.8063967"><ele>374.0</ele><time>2026-04-19T08:58:12.517Z</time></trkpt><trkpt lat="39.0962467" lon="16.806525"><ele>374.0</ele><time>2026-04-19T08:58:13.517Z</time></trkpt><trkpt lat="39.09617" lon="16.806675"><ele>367.6666666666667</ele><time>2026-04-19T08:58:14.518Z</time></trkpt><trkpt lat="39.09605" lon="16.8068417"><ele>361.3333333333333</ele><time>2026-04-19T08:58:15.517Z</time></trkpt><trkpt lat="39.09592" lon="16.807015"><ele>355.0</ele><time>2026-04-19T08:58:16.517Z</time></trkpt><trkpt lat="39.0957967" lon="16.80717"><ele>357.75</ele><time>2026-04-19T08:58:17.517Z</time></trkpt><trkpt lat="39.095675" lon="16.8072967"><ele>360.5</ele><time>2026-04-19T08:58:18.517Z</time></trkpt><trkpt lat="39.0955567" lon="16.80738"><ele>363.25</ele><time>2026-04-19T08:58:19.517Z</time></trkpt><trkpt lat="39.0954333" lon="16.8074217"><ele>366.0</ele><time>2026-04-19T08:58:20.517Z</time></trkpt><trkpt lat="39.0953" lon="16.8074367"><ele>366.0</ele><time>2026-04-19T08:58:21.518Z</time></trkpt><trkpt lat="39.0951517" lon="16.8074267"><ele>366.0</ele><time>2026-04-19T08:58:22.518Z</time></trkpt><trkpt lat="39.0950067" lon="16.807425"><ele>366.0</ele><time>2026-04-19T08:58:23.518Z</time></trkpt><trkpt lat="39.094875" lon="16.8074017"><ele>366.0</ele><time>2026-04-19T08:58:24.517Z</time></trkpt><trkpt lat="39.0947533" lon="16.8073367"><ele>366.75</ele><time>2026-04-19T08:58:25.517Z</time></trkpt><trkpt lat="39.0946467" lon="16.8072317"><ele>367.5</ele><time>2026-04-19T08:58:26.517Z</time></trkpt><trkpt lat="39.0945717" lon="16.8070833"><ele>368.25</ele><time>2026-04-19T08:58:27.518Z</time></trkpt><trkpt lat="39.0945383" lon="16.8069017"><ele>369.0</ele><time>2026-04-19T08:58:28.517Z</time></trkpt><trkpt lat="39.094545" lon="16.8067033"><ele>369.0</ele><time>2026-04-19T08:58:29.517Z</time></trkpt><trkpt lat="39.094585" lon="16.8065067"><ele>369.0</ele><time>2026-04-19T08:58:30.517Z</time></trkpt><trkpt lat="39.094645" lon="16.80631"><ele>369.0</ele><time>2026-04-19T08:58:31.518Z</time></trkpt><trkpt lat="39.0947" lon="16.8061233"><ele>371.25</ele><time>2026-04-19T08:58:32.517Z</time></trkpt><trkpt lat="39.0947467" lon="16.8059517"><ele>373.5</ele><time>2026-04-19T08:58:33.517Z</time></trkpt><trkpt lat="39.094785" lon="16.8057933"><ele>375.75</ele><time>2026-04-19T08:58:34.517Z</time></trkpt><trkpt lat="39.0948067" lon="16.805655"><ele>378.0</ele><time>2026-04-19T08:58:35.517Z</time></trkpt><trkpt lat="39.0948083" lon="16.8055117"><ele>378.0</ele><time>2026-04-19T08:58:36.517Z</time></trkpt><trkpt lat="39.0947867" lon="16.80539"><ele>378.0</ele><time>2026-04-19T08:58:37.517Z</time></trkpt><trkpt lat="39.0947517" lon="16.80527"><ele>378.0</ele><time>2026-04-19T08:58:38.517Z</time></trkpt><trkpt lat="39.0946883" lon="16.8051567"><ele>378.0</ele><time>2026-04-19T08:58:39.517Z</time></trkpt><trkpt lat="39.0946133" lon="16.80507"><ele>378.0</ele><time>2026-04-19T08:58:40.517Z</time></trkpt><trkpt lat="39.0945183" lon="16.805025"><ele>378.0</ele><time>2026-04-19T08:58:41.517Z</time></trkpt><trkpt lat="39.0944083" lon="16.8050417"><ele>378.0</ele><time>2026-04-19T08:58:42.517Z</time></trkpt><trkpt lat="39.09431" lon="16.805105"><ele>378.0</ele><time>2026-04-19T08:58:43.517Z</time></trkpt><trkpt lat="39.0942233" lon="16.8051933"><ele>378.0</ele><time>2026-04-19T08:58:44.517Z</time></trkpt><trkpt lat="39.09414" lon="16.8052933"><ele>378.0</ele><time>2026-04-19T08:58:45.518Z</time></trkpt><trkpt lat="39.0940483" lon="16.8053983"><ele>378.59999999999997</ele><time>2026-04-19T08:58:46.517Z</time></trkpt><trkpt lat="39.09394" lon="16.8054983"><ele>379.2</ele><time>2026-04-19T08:58:47.517Z</time></trkpt><trkpt lat="39.0938333" lon="16.80555"><ele>379.8</ele><time>2026-04-19T08:58:48.517Z</time></trkpt><trkpt lat="39.09373" lon="16.80557"><ele>380.4</ele><time>2026-04-19T08:58:49.517Z</time></trkpt><trkpt lat="39.0936383" lon="16.80554"><ele>381.0</ele><time>2026-04-19T08:58:50.517Z</time></trkpt><trkpt lat="39.0935667" lon="16.8054533"><ele>381.0</ele><time>2026-04-19T08:58:51.518Z</time></trkpt><trkpt lat="39.0934917" lon="16.8053083"><ele>381.0</ele><time>2026-04-19T08:58:52.517Z</time></trkpt><trkpt lat="39.0933967" lon="16.8051233"><ele>381.0</ele><time>2026-04-19T08:58:53.517Z</time></trkpt><trkpt lat="39.0932717" lon="16.8049967"><ele>387.0</ele><time>2026-04-19T08:58:54.518Z</time></trkpt><trkpt lat="39.0931317" lon="16.8049567"><ele>393.0</ele><time>2026-04-19T08:58:55.517Z</time></trkpt><trkpt lat="39.0929633" lon="16.8049417"><ele>399.0</ele><time>2026-04-19T08:58:56.517Z</time></trkpt><trkpt lat="39.0927867" lon="16.804945"><ele>399.0</ele><time>2026-04-19T08:58:57.518Z</time></trkpt><trkpt lat="39.0926083" lon="16.8049467"><ele>399.0</ele><time>2026-04-19T08:58:58.518Z</time></trkpt><trkpt lat="39.0924333" lon="16.8049517"><ele>399.0</ele><time>2026-04-19T08:58:59.517Z</time></trkpt><trkpt lat="39.092285" lon="16.8049317"><ele>398.33333333333337</ele><time>2026-04-19T08:59:00.517Z</time></trkpt><trkpt lat="39.092135" lon="16.80487"><ele>397.6666666666667</ele><time>2026-04-19T08:59:01.517Z</time></trkpt><trkpt lat="39.091995" lon="16.8047617"><ele>397.0</ele><time>2026-04-19T08:59:02.517Z</time></trkpt><trkpt lat="39.091865" lon="16.8046117"><ele>397.0</ele><time>2026-04-19T08:59:03.517Z</time></trkpt><trkpt lat="39.0917383" lon="16.8044417"><ele>397.0</ele><time>2026-04-19T08:59:04.517Z</time></trkpt><trkpt lat="39.0916167" lon="16.804295"><ele>397.0</ele><time>2026-04-19T08:59:05.517Z</time></trkpt><trkpt lat="39.0914917" lon="16.80419"><ele>401.25</ele><time>2026-04-19T08:59:06.517Z</time></trkpt><trkpt lat="39.0913667" lon="16.8041483"><ele>405.5</ele><time>2026-04-19T08:59:07.517Z</time></trkpt><trkpt lat="39.0912317" lon="16.804175"><ele>409.75</ele><time>2026-04-19T08:59:08.517Z</time></trkpt><trkpt lat="39.09109" lon="16.804225"><ele>414.0</ele><time>2026-04-19T08:59:09.517Z</time></trkpt><trkpt lat="39.0909483" lon="16.80428"><ele>414.0</ele><time>2026-04-19T08:59:10.517Z</time></trkpt><trkpt lat="39.09081" lon="16.8043067"><ele>414.0</ele><time>2026-04-19T08:59:11.517Z</time></trkpt><trkpt lat="39.0906833" lon="16.8043067"><ele>414.0</ele><time>2026-04-19T08:59:12.517Z</time></trkpt><trkpt lat="39.09058" lon="16.8042733"><ele>414.0</ele><time>2026-04-19T08:59:13.517Z</time></trkpt><trkpt lat="39.0904933" lon="16.8042133"><ele>415.5</ele><time>2026-04-19T08:59:14.517Z</time></trkpt><trkpt lat="39.0904017" lon="16.8041383"><ele>417.0</ele><time>2026-04-19T08:59:15.517Z</time></trkpt><trkpt lat="39.0903133" lon="16.8040467"><ele>418.5</ele><time>2026-04-19T08:59:16.517Z</time></trkpt><trkpt lat="39.0902217" lon="16.8039433"><ele>420.0</ele><time>2026-04-19T08:59:17.517Z</time></trkpt><trkpt lat="39.0901283" lon="16.8038417"><ele>420.0</ele><time>2026-04-19T08:59:18.517Z</time></trkpt><trkpt lat="39.0900367" lon="16.80375"><ele>420.0</ele><time>2026-04-19T08:59:19.518Z</time></trkpt><trkpt lat="39.0899683" lon="16.803655"><ele>420.0</ele><time>2026-04-19T08:59:20.517Z</time></trkpt><trkpt lat="39.0899417" lon="16.8035433"><ele>420.0</ele><time>2026-04-19T08:59:21.517Z</time></trkpt><trkpt lat="39.089935" lon="16.8034417"><ele>420.0</ele><time>2026-04-19T08:59:22.517Z</time></trkpt><trkpt lat="39.089955" lon="16.803325"><ele>419.5</ele><time>2026-04-19T08:59:23.517Z</time></trkpt><trkpt lat="39.0900017" lon="16.803195"><ele>419.0</ele><time>2026-04-19T08:59:24.518Z</time></trkpt><trkpt lat="39.0900667" lon="16.8030467"><ele>418.5</ele><time>2026-04-19T08:59:25.517Z</time></trkpt><trkpt lat="39.0901433" lon="16.8028917"><ele>418.0</ele><time>2026-04-19T08:59:26.517Z</time></trkpt><trkpt lat="39.0902167" lon="16.802725"><ele>417.25</ele><time>2026-04-19T08:59:27.517Z</time></trkpt><trkpt lat="39.0902817" lon="16.80255"><ele>416.5</ele><time>2026-04-19T08:59:28.517Z</time></trkpt><trkpt lat="39.0903467" lon="16.8023817"><ele>415.75</ele><time>2026-04-19T08:59:29.517Z</time></trkpt><trkpt lat="39.0903917" lon="16.8022067"><ele>415.0</ele><time>2026-04-19T08:59:30.517Z</time></trkpt><trkpt lat="39.09042" lon="16.8020167"><ele>416.0</ele><time>2026-04-19T08:59:31.517Z</time></trkpt><trkpt lat="39.0904467" lon="16.8018233"><ele>417.0</ele><time>2026-04-19T08:59:32.517Z</time></trkpt><trkpt lat="39.0904617" lon="16.80163"><ele>418.0</ele><time>2026-04-19T08:59:33.517Z</time></trkpt><trkpt lat="39.0904633" lon="16.8014483"><ele>419.0</ele><time>2026-04-19T08:59:34.518Z</time></trkpt><trkpt lat="39.0904717" lon="16.8012717"><ele>419.0</ele><time>2026-04-19T08:59:35.517Z</time></trkpt><trkpt lat="39.0904717" lon="16.8011017"><ele>419.0</ele><time>2026-04-19T08:59:36.517Z</time></trkpt><trkpt lat="39.0904833" lon="16.8009383"><ele>419.0</ele><time>2026-04-19T08:59:37.517Z</time></trkpt><trkpt lat="39.090475" lon="16.8007817"><ele>419.0</ele><time>2026-04-19T08:59:38.518Z</time></trkpt><trkpt lat="39.0904367" lon="16.8006417"><ele>420.75</ele><time>2026-04-19T08:59:39.518Z</time></trkpt><trkpt lat="39.0903817" lon="16.8005133"><ele>422.5</ele><time>2026-04-19T08:59:40.517Z</time></trkpt><trkpt lat="39.0903183" lon="16.8003867"><ele>424.25</ele><time>2026-04-19T08:59:41.517Z</time></trkpt><trkpt lat="39.090255" lon="16.8002667"><ele>426.0</ele><time>2026-04-19T08:59:42.517Z</time></trkpt><trkpt lat="39.0901867" lon="16.80016"><ele>427.4</ele><time>2026-04-19T08:59:43.517Z</time></trkpt><trkpt lat="39.0901083" lon="16.800065"><ele>428.8</ele><time>2026-04-19T08:59:44.517Z</time></trkpt><trkpt lat="39.0900233" lon="16.799985"><ele>430.19999999999993</ele><time>2026-04-19T08:59:45.518Z</time></trkpt><trkpt lat="39.0899133" lon="16.7999333"><ele>431.59999999999997</ele><time>2026-04-19T08:59:46.518Z</time></trkpt><trkpt lat="39.0897983" lon="16.7999083"><ele>433.0</ele><time>2026-04-19T08:59:47.517Z</time></trkpt><trkpt lat="39.0896817" lon="16.7998917"><ele>431.5</ele><time>2026-04-19T08:59:48.517Z</time></trkpt><trkpt lat="39.0895583" lon="16.799905"><ele>430.0</ele><time>2026-04-19T08:59:49.517Z</time></trkpt><trkpt lat="39.0894367" lon="16.79997"><ele>428.5</ele><time>2026-04-19T08:59:50.517Z</time></trkpt><trkpt lat="39.0893067" lon="16.800075"><ele>427.0</ele><time>2026-04-19T08:59:51.517Z</time></trkpt><trkpt lat="39.08918" lon="16.80019"><ele>429.25</ele><time>2026-04-19T08:59:52.517Z</time></trkpt><trkpt lat="39.08905" lon="16.8002867"><ele>431.5</ele><time>2026-04-19T08:59:53.517Z</time></trkpt><trkpt lat="39.08891" lon="16.8003883"><ele>433.75</ele><time>2026-04-19T08:59:54.518Z</time></trkpt><trkpt lat="39.0887783" lon="16.8004317"><ele>436.0</ele><time>2026-04-19T08:59:55.517Z</time></trkpt><trkpt lat="39.0886467" lon="16.8004217"><ele>436.0</ele><time>2026-04-19T08:59:56.517Z</time></trkpt><trkpt lat="39.0885183" lon="16.800365"><ele>436.0</ele><time>2026-04-19T08:59:57.517Z</time></trkpt><trkpt lat="39.0883833" lon="16.8002933"><ele>436.0</ele><time>2026-04-19T08:59:58.517Z</time></trkpt><trkpt lat="39.0882817" lon="16.80018"><ele>436.0</ele><time>2026-04-19T08:59:59.518Z</time></trkpt><trkpt lat="39.0881883" lon="16.8000683"><ele>436.75</ele><time>2026-04-19T09:00:00.517Z</time></trkpt><trkpt lat="39.0881017" lon="16.7999267"><ele>437.5</ele><time>2026-04-19T09:00:01.518Z</time></trkpt><trkpt lat="39.0880267" lon="16.799775"><ele>438.25</ele><time>2026-04-19T09:00:02.517Z</time></trkpt><trkpt lat="39.0879517" lon="16.7996267"><ele>439.0</ele><time>2026-04-19T09:00:03.517Z</time></trkpt><trkpt lat="39.08789" lon="16.79947"><ele>439.75</ele><time>2026-04-19T09:00:04.517Z</time></trkpt><trkpt lat="39.08783" lon="16.7993067"><ele>440.5</ele><time>2026-04-19T09:00:05.517Z</time></trkpt><trkpt lat="39.087785" lon="16.7991333"><ele>441.25</ele><time>2026-04-19T09:00:06.518Z</time></trkpt><trkpt lat="39.0877417" lon="16.7989567"><ele>442.0</ele><time>2026-04-19T09:00:07.518Z</time></trkpt><trkpt lat="39.0877033" lon="16.7987883"><ele>442.0</ele><time>2026-04-19T09:00:08.517Z</time></trkpt><trkpt lat="39.0876767" lon="16.7986183"><ele>442.0</ele><time>2026-04-19T09:00:09.517Z</time></trkpt><trkpt lat="39.08768" lon="16.79844"><ele>442.0</ele><time>2026-04-19T09:00:10.517Z</time></trkpt><trkpt lat="39.0876917" lon="16.7982583"><ele>442.0</ele><time>2026-04-19T09:00:11.517Z</time></trkpt><trkpt lat="39.0877067" lon="16.79809"><ele>441.40000000000003</ele><time>2026-04-19T09:00:12.517Z</time></trkpt><trkpt lat="39.0877183" lon="16.797935"><ele>440.80000000000007</ele><time>2026-04-19T09:00:13.517Z</time></trkpt><trkpt lat="39.0877467" lon="16.7978133"><ele>440.2</ele><time>2026-04-19T09:00:14.517Z</time></trkpt><trkpt lat="39.0877967" lon="16.7977183"><ele>439.6</ele><time>2026-04-19T09:00:15.518Z</time></trkpt><trkpt lat="39.0878667" lon="16.7976833"><ele>439.0</ele><time>2026-04-19T09:00:16.517Z</time></trkpt><trkpt lat="39.0879483" lon="16.7977033"><ele>439.0</ele><time>2026-04-19T09:00:17.518Z</time></trkpt><trkpt lat="39.08804" lon="16.7977633"><ele>439.0</ele><time>2026-04-19T09:00:18.517Z</time></trkpt><trkpt lat="39.08813" lon="16.7978567"><ele>439.0</ele><time>2026-04-19T09:00:19.517Z</time></trkpt><trkpt lat="39.0882067" lon="16.7979467"><ele>439.0</ele><time>2026-04-19T09:00:20.517Z</time></trkpt><trkpt lat="39.0882817" lon="16.7980183"><ele>439.0</ele><time>2026-04-19T09:00:21.517Z</time></trkpt><trkpt lat="39.0883567" lon="16.798065"><ele>440.50000000000006</ele><time>2026-04-19T09:00:22.517Z</time></trkpt><trkpt lat="39.08843" lon="16.79811"><ele>442.0</ele><time>2026-04-19T09:00:23.517Z</time></trkpt><trkpt lat="39.0885083" lon="16.79816"><ele>443.5</ele><time>2026-04-19T09:00:24.517Z</time></trkpt><trkpt lat="39.0885967" lon="16.7982017"><ele>445.0</ele><time>2026-04-19T09:00:25.517Z</time></trkpt><trkpt lat="39.08868" lon="16.798215"><ele>446.50000000000006</ele><time>2026-04-19T09:00:26.518Z</time></trkpt><trkpt lat="39.08877" lon="16.7981833"><ele>448.0</ele><time>2026-04-19T09:00:27.518Z</time></trkpt><trkpt lat="39.0888517" lon="16.798125"><ele>448.0</ele><time>2026-04-19T09:00:28.518Z</time></trkpt><trkpt lat="39.088925" lon="16.7980483"><ele>447.99999999999994</ele><time>2026-04-19T09:00:29.517Z</time></trkpt><trkpt lat="39.088995" lon="16.797965"><ele>447.99999999999994</ele><time>2026-04-19T09:00:30.517Z</time></trkpt><trkpt lat="39.08907" lon="16.7978617"><ele>448.0</ele><time>2026-04-19T09:00:31.517Z</time></trkpt><trkpt lat="39.0891233" lon="16.79775"><ele>448.0</ele><time>2026-04-19T09:00:32.518Z</time></trkpt><trkpt lat="39.0891633" lon="16.7976233"><ele>448.25</ele><time>2026-04-19T09:00:33.517Z</time></trkpt><trkpt lat="39.089195" lon="16.797485"><ele>448.5</ele><time>2026-04-19T09:00:34.517Z</time></trkpt><trkpt lat="39.089225" lon="16.7973317"><ele>448.75</ele><time>2026-04-19T09:00:35.518Z</time></trkpt><trkpt lat="39.089265" lon="16.7971817"><ele>449.0</ele><time>2026-04-19T09:00:36.517Z</time></trkpt><trkpt lat="39.0893083" lon="16.79704"><ele>449.0</ele><time>2026-04-19T09:00:37.517Z</time></trkpt><trkpt lat="39.0893533" lon="16.7968933"><ele>449.0</ele><time>2026-04-19T09:00:38.518Z</time></trkpt><trkpt lat="39.0893917" lon="16.7967483"><ele>449.0</ele><time>2026-04-19T09:00:39.517Z</time></trkpt><trkpt lat="39.0894267" lon="16.7966067"><ele>449.0</ele><time>2026-04-19T09:00:40.518Z</time></trkpt><trkpt lat="39.0894583" lon="16.796465"><ele>449.0</ele><time>2026-04-19T09:00:41.517Z</time></trkpt><trkpt lat="39.08948" lon="16.79631"><ele>449.0</ele><time>2026-04-19T09:00:42.517Z</time></trkpt><trkpt lat="39.0894867" lon="16.79614"><ele>449.0</ele><time>2026-04-19T09:00:43.517Z</time></trkpt><trkpt lat="39.0894733" lon="16.7959733"><ele>449.0</ele><time>2026-04-19T09:00:44.517Z</time></trkpt><trkpt lat="39.0894233" lon="16.7958117"><ele>449.0</ele><time>2026-04-19T09:00:45.517Z</time></trkpt><trkpt lat="39.0893633" lon="16.79567"><ele>449.0</ele><time>2026-04-19T09:00:46.517Z</time></trkpt><trkpt lat="39.089315" lon="16.7955333"><ele>449.0</ele><time>2026-04-19T09:00:47.517Z</time></trkpt><trkpt lat="39.0892867" lon="16.795395"><ele>449.0</ele><time>2026-04-19T09:00:48.517Z</time></trkpt><trkpt lat="39.0892667" lon="16.7952633"><ele>448.4</ele><time>2026-04-19T09:00:49.518Z</time></trkpt><trkpt lat="39.08926" lon="16.795125"><ele>447.79999999999995</ele><time>2026-04-19T09:00:50.517Z</time></trkpt><trkpt lat="39.0892533" lon="16.794985"><ele>447.20000000000005</ele><time>2026-04-19T09:00:51.517Z</time></trkpt><trkpt lat="39.0892633" lon="16.7948417"><ele>446.6</ele><time>2026-04-19T09:00:52.517Z</time></trkpt><trkpt lat="39.0892767" lon="16.79472"><ele>446.0</ele><time>2026-04-19T09:00:53.517Z</time></trkpt><trkpt lat="39.0893233" lon="16.7946083"><ele>446.0</ele><time>2026-04-19T09:00:54.517Z</time></trkpt><trkpt lat="39.089395" lon="16.7944983"><ele>446.0</ele><time>2026-04-19T09:00:55.517Z</time></trkpt><trkpt lat="39.08946" lon="16.794375"><ele>446.0</ele><time>2026-04-19T09:00:56.517Z</time></trkpt><trkpt lat="39.089535" lon="16.7942317"><ele>446.0</ele><time>2026-04-19T09:00:57.518Z</time></trkpt><trkpt lat="39.0896133" lon="16.7940933"><ele>447.75</ele><time>2026-04-19T09:00:58.517Z</time></trkpt><trkpt lat="39.089695" lon="16.7939583"><ele>449.5</ele><time>2026-04-19T09:00:59.518Z</time></trkpt><trkpt lat="39.08978" lon="16.79382"><ele>451.25</ele><time>2026-04-19T09:01:00.517Z</time></trkpt><trkpt lat="39.08987" lon="16.7936933"><ele>453.0</ele><time>2026-04-19T09:01:01.518Z</time></trkpt><trkpt lat="39.0899417" lon="16.793575"><ele>451.5</ele><time>2026-04-19T09:01:02.517Z</time></trkpt><trkpt lat="39.0899967" lon="16.79343"><ele>450.0</ele><time>2026-04-19T09:01:03.517Z</time></trkpt><trkpt lat="39.0900233" lon="16.7932833"><ele>448.5</ele><time>2026-04-19T09:01:04.517Z</time></trkpt><trkpt lat="39.090035" lon="16.7931333"><ele>447.0</ele><time>2026-04-19T09:01:05.517Z</time></trkpt><trkpt lat="39.0900367" lon="16.792975"><ele>447.0</ele><time>2026-04-19T09:01:06.517Z</time></trkpt><trkpt lat="39.0900333" lon="16.7927983"><ele>447.0</ele><time>2026-04-19T09:01:07.517Z</time></trkpt><trkpt lat="39.0900367" lon="16.79263"><ele>447.0</ele><time>2026-04-19T09:01:08.517Z</time></trkpt><trkpt lat="39.090035" lon="16.7924567"><ele>447.0</ele><time>2026-04-19T09:01:09.517Z</time></trkpt><trkpt lat="39.0900233" lon="16.792295"><ele>448.0</ele><time>2026-04-19T09:01:10.517Z</time></trkpt><trkpt lat="39.08999" lon="16.792145"><ele>449.0</ele><time>2026-04-19T09:01:11.518Z</time></trkpt><trkpt lat="39.0899267" lon="16.7920217"><ele>450.0</ele><time>2026-04-19T09:01:12.517Z</time></trkpt><trkpt lat="39.089825" lon="16.7919217"><ele>451.0</ele><time>2026-04-19T09:01:13.517Z</time></trkpt><trkpt lat="39.0896967" lon="16.7918617"><ele>453.0</ele><time>2026-04-19T09:01:14.517Z</time></trkpt><trkpt lat="39.0895483" lon="16.7918367"><ele>455.0</ele><time>2026-04-19T09:01:15.517Z</time></trkpt><trkpt lat="39.0894183" lon="16.791815"><ele>457.0</ele><time>2026-04-19T09:01:16.518Z</time></trkpt><trkpt lat="39.0892933" lon="16.7918383"><ele>459.0</ele><time>2026-04-19T09:01:17.518Z</time></trkpt><trkpt lat="39.0891967" lon="16.791915"><ele>455.25</ele><time>2026-04-19T09:01:18.517Z</time></trkpt><trkpt lat="39.089125" lon="16.792035"><ele>451.5</ele><time>2026-04-19T09:01:19.517Z</time></trkpt><trkpt lat="39.0890717" lon="16.79216"><ele>447.75</ele><time>2026-04-19T09:01:20.518Z</time></trkpt><trkpt lat="39.0890167" lon="16.7922883"><ele>444.0</ele><time>2026-04-19T09:01:21.517Z</time></trkpt><trkpt lat="39.088925" lon="16.792395"><ele>444.0</ele><time>2026-04-19T09:01:22.517Z</time></trkpt><trkpt lat="39.088815" lon="16.7924767"><ele>444.0</ele><time>2026-04-19T09:01:23.517Z</time></trkpt><trkpt lat="39.0886883" lon="16.7925517"><ele>444.0</ele><time>2026-04-19T09:01:24.517Z</time></trkpt><trkpt lat="39.088555" lon="16.79262"><ele>444.0</ele><time>2026-04-19T09:01:25.518Z</time></trkpt><trkpt lat="39.0884367" lon="16.79266"><ele>440.2</ele><time>2026-04-19T09:01:26.517Z</time></trkpt><trkpt lat="39.0883267" lon="16.792675"><ele>436.4</ele><time>2026-04-19T09:01:27.518Z</time></trkpt><trkpt lat="39.0882233" lon="16.7926483"><ele>432.6</ele><time>2026-04-19T09:01:28.517Z</time></trkpt><trkpt lat="39.0881433" lon="16.7925567"><ele>428.8</ele><time>2026-04-19T09:01:29.517Z</time></trkpt><trkpt lat="39.088095" lon="16.792435"><ele>425.0</ele><time>2026-04-19T09:01:30.517Z</time></trkpt><trkpt lat="39.0880483" lon="16.7922867"><ele>425.0</ele><time>2026-04-19T09:01:31.518Z</time></trkpt><trkpt lat="39.0879917" lon="16.7921267"><ele>425.0</ele><time>2026-04-19T09:01:32.517Z</time></trkpt><trkpt lat="39.08791" lon="16.7919833"><ele>425.0</ele><time>2026-04-19T09:01:33.517Z</time></trkpt><trkpt lat="39.08781" lon="16.7918433"><ele>425.0</ele><time>2026-04-19T09:01:34.517Z</time></trkpt><trkpt lat="39.0877067" lon="16.7916983"><ele>421.75</ele><time>2026-04-19T09:01:35.517Z</time></trkpt><trkpt lat="39.0876283" lon="16.791545"><ele>418.5</ele><time>2026-04-19T09:01:36.517Z</time></trkpt><trkpt lat="39.0875417" lon="16.7914033"><ele>415.25</ele><time>2026-04-19T09:01:37.517Z</time></trkpt><trkpt lat="39.08747" lon="16.791235"><ele>412.0</ele><time>2026-04-19T09:01:38.518Z</time></trkpt><trkpt lat="39.0874217" lon="16.7910483"><ele>413.0</ele><time>2026-04-19T09:01:39.517Z</time></trkpt><trkpt lat="39.0873917" lon="16.790865"><ele>414.0</ele><time>2026-04-19T09:01:40.517Z</time></trkpt><trkpt lat="39.0873633" lon="16.7906967"><ele>415.0</ele><time>2026-04-19T09:01:41.517Z</time></trkpt><trkpt lat="39.0873583" lon="16.7905283"><ele>416.0</ele><time>2026-04-19T09:01:42.518Z</time></trkpt><trkpt lat="39.087375" lon="16.79035"><ele>416.0</ele><time>2026-04-19T09:01:43.517Z</time></trkpt><trkpt lat="39.0873917" lon="16.79017"><ele>416.0</ele><time>2026-04-19T09:01:44.517Z</time></trkpt><trkpt lat="39.0873967" lon="16.7899967"><ele>416.0</ele><time>2026-04-19T09:01:45.517Z</time></trkpt><trkpt lat="39.0874133" lon="16.78984"><ele>416.0</ele><time>2026-04-19T09:01:46.517Z</time></trkpt><trkpt lat="39.0874117" lon="16.7896933"><ele>420.5</ele><time>2026-04-19T09:01:47.518Z</time></trkpt><trkpt lat="39.0874283" lon="16.7895517"><ele>425.0</ele><time>2026-04-19T09:01:48.517Z</time></trkpt><trkpt lat="39.0874767" lon="16.7893983"><ele>429.5</ele><time>2026-04-19T09:01:49.517Z</time></trkpt><trkpt lat="39.08754" lon="16.7892383"><ele>434.0</ele><time>2026-04-19T09:01:50.517Z</time></trkpt><trkpt lat="39.0876133" lon="16.78907"><ele>434.0</ele><time>2026-04-19T09:01:51.517Z</time></trkpt><trkpt lat="39.08768" lon="16.7889133"><ele>434.0</ele><time>2026-04-19T09:01:52.517Z</time></trkpt><trkpt lat="39.08774" lon="16.7887683"><ele>434.0</ele><time>2026-04-19T09:01:53.517Z</time></trkpt><trkpt lat="39.0878167" lon="16.7886383"><ele>434.0</ele><time>2026-04-19T09:01:54.518Z</time></trkpt><trkpt lat="39.0879117" lon="16.7885367"><ele>432.0</ele><time>2026-04-19T09:01:55.518Z</time></trkpt><trkpt lat="39.0880067" lon="16.78845"><ele>430.0</ele><time>2026-04-19T09:01:56.518Z</time></trkpt><trkpt lat="39.0880683" lon="16.78834"><ele>428.0</ele><time>2026-04-19T09:01:57.518Z</time></trkpt><trkpt lat="39.08811" lon="16.78825"><ele>426.0</ele><time>2026-04-19T09:01:58.516Z</time></trkpt><trkpt lat="39.08809" lon="16.7881417"><ele>424.0</ele><time>2026-04-19T09:01:59.516Z</time></trkpt><trkpt lat="39.0880383" lon="16.788025"><ele>424.0</ele><time>2026-04-19T09:02:00.516Z</time></trkpt><trkpt lat="39.0879467" lon="16.7879267"><ele>424.0</ele><time>2026-04-19T09:02:01.516Z</time></trkpt><trkpt lat="39.0878083" lon="16.7878583"><ele>424.0</ele><time>2026-04-19T09:02:02.516Z</time></trkpt><trkpt lat="39.0877283" lon="16.7877583"><ele>424.0</ele><time>2026-04-19T09:02:03.516Z</time></trkpt><trkpt lat="39.0876717" lon="16.787635"><ele>423.0</ele><time>2026-04-19T09:02:04.516Z</time></trkpt><trkpt lat="39.0876467" lon="16.7875117"><ele>422.0</ele><time>2026-04-19T09:02:05.516Z</time></trkpt><trkpt lat="39.08766" lon="16.787365"><ele>421.0</ele><time>2026-04-19T09:02:06.516Z</time></trkpt><trkpt lat="39.087695" lon="16.787205"><ele>420.0</ele><time>2026-04-19T09:02:07.516Z</time></trkpt><trkpt lat="39.0877483" lon="16.7870467"><ele>420.0</ele><time>2026-04-19T09:02:08.516Z</time></trkpt><trkpt lat="39.0878267" lon="16.7869067"><ele>420.0</ele><time>2026-04-19T09:02:09.516Z</time></trkpt><trkpt lat="39.08791" lon="16.786775"><ele>420.0</ele><time>2026-04-19T09:02:10.516Z</time></trkpt><trkpt lat="39.0880183" lon="16.7866767"><ele>420.0</ele><time>2026-04-19T09:02:11.517Z</time></trkpt><trkpt lat="39.08808" lon="16.7865517"><ele>420.4</ele><time>2026-04-19T09:02:12.516Z</time></trkpt><trkpt lat="39.0881217" lon="16.786415"><ele>420.8</ele><time>2026-04-19T09:02:13.516Z</time></trkpt><trkpt lat="39.0881133" lon="16.7862783"><ele>421.20000000000005</ele><time>2026-04-19T09:02:14.517Z</time></trkpt><trkpt lat="39.08805" lon="16.7861883"><ele>421.6</ele><time>2026-04-19T09:02:15.516Z</time></trkpt><trkpt lat="39.0879633" lon="16.7861617"><ele>422.0</ele><time>2026-04-19T09:02:16.516Z</time></trkpt><trkpt lat="39.08784" lon="16.7861733"><ele>422.0</ele><time>2026-04-19T09:02:17.516Z</time></trkpt><trkpt lat="39.0877067" lon="16.7862317"><ele>422.0</ele><time>2026-04-19T09:02:18.517Z</time></trkpt><trkpt lat="39.0875733" lon="16.7862883"><ele>422.0</ele><time>2026-04-19T09:02:19.516Z</time></trkpt><trkpt lat="39.0874417" lon="16.7863167"><ele>422.0</ele><time>2026-04-19T09:02:20.517Z</time></trkpt><trkpt lat="39.087335" lon="16.7863067"><ele>420.8</ele><time>2026-04-19T09:02:21.516Z</time></trkpt><trkpt lat="39.0872467" lon="16.786255"><ele>419.6</ele><time>2026-04-19T09:02:22.516Z</time></trkpt><trkpt lat="39.0872" lon="16.786165"><ele>418.40000000000003</ele><time>2026-04-19T09:02:23.517Z</time></trkpt><trkpt lat="39.0871883" lon="16.7860467"><ele>417.20000000000005</ele><time>2026-04-19T09:02:24.516Z</time></trkpt><trkpt lat="39.0872217" lon="16.7859217"><ele>416.0</ele><time>2026-04-19T09:02:25.516Z</time></trkpt><trkpt lat="39.0872867" lon="16.78577"><ele>416.0</ele><time>2026-04-19T09:02:26.517Z</time></trkpt><trkpt lat="39.08736" lon="16.7856033"><ele>416.0</ele><time>2026-04-19T09:02:27.516Z</time></trkpt><trkpt lat="39.08743" lon="16.78545"><ele>416.0</ele><time>2026-04-19T09:02:28.516Z</time></trkpt><trkpt lat="39.0874967" lon="16.78532"><ele>416.0</ele><time>2026-04-19T09:02:29.516Z</time></trkpt><trkpt lat="39.0875567" lon="16.7852017"><ele>417.0</ele><time>2026-04-19T09:02:30.516Z</time></trkpt><trkpt lat="39.0875733" lon="16.7850817"><ele>418.0</ele><time>2026-04-19T09:02:31.516Z</time></trkpt><trkpt lat="39.0875567" lon="16.7849767"><ele>419.0</ele><time>2026-04-19T09:02:32.517Z</time></trkpt><trkpt lat="39.0875017" lon="16.7849083"><ele>420.0</ele><time>2026-04-19T09:02:33.517Z</time></trkpt><trkpt lat="39.0874" lon="16.7848633"><ele>421.0</ele><time>2026-04-19T09:02:34.517Z</time></trkpt><trkpt lat="39.087295" lon="16.78483"><ele>421.0</ele><time>2026-04-19T09:02:35.516Z</time></trkpt><trkpt lat="39.087185" lon="16.7848267"><ele>421.0</ele><time>2026-04-19T09:02:36.516Z</time></trkpt><trkpt lat="39.087085" lon="16.78486"><ele>421.0</ele><time>2026-04-19T09:02:37.516Z</time></trkpt><trkpt lat="39.086995" lon="16.78494"><ele>421.0</ele><time>2026-04-19T09:02:38.517Z</time></trkpt><trkpt lat="39.0869217" lon="16.78504"><ele>421.0</ele><time>2026-04-19T09:02:39.516Z</time></trkpt><trkpt lat="39.08684" lon="16.7851217"><ele>420.8</ele><time>2026-04-19T09:02:40.516Z</time></trkpt><trkpt lat="39.0867717" lon="16.78521"><ele>420.6</ele><time>2026-04-19T09:02:41.516Z</time></trkpt><trkpt lat="39.0867083" lon="16.7853017"><ele>420.4</ele><time>2026-04-19T09:02:42.517Z</time></trkpt><trkpt lat="39.08664" lon="16.7853867"><ele>420.2</ele><time>2026-04-19T09:02:43.516Z</time></trkpt><trkpt lat="39.0865717" lon="16.78547"><ele>420.0</ele><time>2026-04-19T09:02:44.516Z</time></trkpt><trkpt lat="39.086505" lon="16.7855517"><ele>420.0</ele><time>2026-04-19T09:02:45.517Z</time></trkpt><trkpt lat="39.08644" lon="16.7856333"><ele>420.0</ele><time>2026-04-19T09:02:46.516Z</time></trkpt><trkpt lat="39.0863683" lon="16.7856917"><ele>420.0</ele><time>2026-04-19T09:02:47.516Z</time></trkpt><trkpt lat="39.0862933" lon="16.7857283"><ele>420.0</ele><time>2026-04-19T09:02:48.517Z</time></trkpt><trkpt lat="39.0862" lon="16.7857117"><ele>420.0</ele><time>2026-04-19T09:02:49.516Z</time></trkpt><trkpt lat="39.0861" lon="16.785665"><ele>420.0</ele><time>2026-04-19T09:02:50.516Z</time></trkpt><trkpt lat="39.085995" lon="16.7856067"><ele>420.0</ele><time>2026-04-19T09:02:51.516Z</time></trkpt><trkpt lat="39.0858917" lon="16.7855483"><ele>420.0</ele><time>2026-04-19T09:02:52.516Z</time></trkpt><trkpt lat="39.0857883" lon="16.7854883"><ele>420.0</ele><time>2026-04-19T09:02:53.516Z</time></trkpt><trkpt lat="39.085675" lon="16.7854433"><ele>423.2</ele><time>2026-04-19T09:02:54.516Z</time></trkpt><trkpt lat="39.0855683" lon="16.7854217"><ele>426.4</ele><time>2026-04-19T09:02:55.516Z</time></trkpt><trkpt lat="39.085475" lon="16.7854133"><ele>429.6</ele><time>2026-04-19T09:02:56.517Z</time></trkpt><trkpt lat="39.08538" lon="16.7854367"><ele>432.8</ele><time>2026-04-19T09:02:57.517Z</time></trkpt><trkpt lat="39.085295" lon="16.7854833"><ele>436.0</ele><time>2026-04-19T09:02:58.516Z</time></trkpt><trkpt lat="39.0852117" lon="16.7855717"><ele>436.0</ele><time>2026-04-19T09:02:59.516Z</time></trkpt><trkpt lat="39.0851483" lon="16.78569"><ele>436.0</ele><time>2026-04-19T09:03:00.516Z</time></trkpt><trkpt lat="39.0851017" lon="16.7858217"><ele>436.0</ele><time>2026-04-19T09:03:01.516Z</time></trkpt><trkpt lat="39.0850633" lon="16.78594"><ele>436.0</ele><time>2026-04-19T09:03:02.516Z</time></trkpt><trkpt lat="39.0850233" lon="16.7860417"><ele>436.0</ele><time>2026-04-19T09:03:03.516Z</time></trkpt><trkpt lat="39.0849767" lon="16.78613"><ele>435.20000000000005</ele><time>2026-04-19T09:03:04.516Z</time></trkpt><trkpt lat="39.08492" lon="16.786195"><ele>434.40000000000003</ele><time>2026-04-19T09:03:05.516Z</time></trkpt><trkpt lat="39.0848317" lon="16.7862517"><ele>433.6</ele><time>2026-04-19T09:03:07.516Z</time></trkpt><trkpt lat="39.0847433" lon="16.7863067"><ele>432.8</ele><time>2026-04-19T09:03:09.516Z</time></trkpt><trkpt lat="39.0846533" lon="16.7863683"><ele>432.0</ele><time>2026-04-19T09:03:11.516Z</time></trkpt><trkpt lat="39.0845567" lon="16.786455"><ele>432.0</ele><time>2026-04-19T09:03:13.517Z</time></trkpt><trkpt lat="39.08451" lon="16.7865233"><ele>432.00000000000006</ele><time>2026-04-19T09:03:14.516Z</time></trkpt><trkpt lat="39.0844667" lon="16.7866083"><ele>432.00000000000006</ele><time>2026-04-19T09:03:15.516Z</time></trkpt><trkpt lat="39.0844133" lon="16.78675"><ele>432.0</ele><time>2026-04-19T09:03:17.516Z</time></trkpt><trkpt lat="39.084375" lon="16.7868683"><ele>432.0</ele><time>2026-04-19T09:03:19.516Z</time></trkpt><trkpt lat="39.0843533" lon="16.786975"><ele>430.8</ele><time>2026-04-19T09:03:21.516Z</time></trkpt><trkpt lat="39.084325" lon="16.7870733"><ele>429.6</ele><time>2026-04-19T09:03:23.516Z</time></trkpt><trkpt lat="39.0842567" lon="16.7871467"><ele>428.40000000000003</ele><time>2026-04-19T09:03:25.516Z</time></trkpt><trkpt lat="39.0841483" lon="16.7871867"><ele>427.20000000000005</ele><time>2026-04-19T09:03:27.517Z</time></trkpt><trkpt lat="39.0840317" lon="16.7872033"><ele>426.0</ele><time>2026-04-19T09:03:29.516Z</time></trkpt><trkpt lat="39.0839183" lon="16.787235"><ele>426.0</ele><time>2026-04-19T09:03:31.516Z</time></trkpt><trkpt lat="39.083855" lon="16.787345"><ele>426.0</ele><time>2026-04-19T09:03:33.516Z</time></trkpt><trkpt lat="39.0838383" lon="16.7874783"><ele>426.0</ele><time>2026-04-19T09:03:35.517Z</time></trkpt><trkpt lat="39.083805" lon="16.787585"><ele>426.0</ele><time>2026-04-19T09:03:37.516Z</time></trkpt><trkpt lat="39.0837133" lon="16.78764"><ele>426.0</ele><time>2026-04-19T09:03:39.516Z</time></trkpt><trkpt lat="39.0836283" lon="16.7876667"><ele>425.6666666666667</ele><time>2026-04-19T09:03:41.516Z</time></trkpt><trkpt lat="39.083555" lon="16.7877117"><ele>425.33333333333337</ele><time>2026-04-19T09:03:45.516Z</time></trkpt><trkpt lat="39.0834833" lon="16.7877317"><ele>425.0</ele><time>2026-04-19T09:03:47.516Z</time></trkpt><trkpt lat="39.08339" lon="16.7877333"><ele>424.6666666666667</ele><time>2026-04-19T09:03:49.516Z</time></trkpt><trkpt lat="39.083315" lon="16.78769"><ele>424.33333333333337</ele><time>2026-04-19T09:03:50.517Z</time></trkpt><trkpt lat="39.0832333" lon="16.787635"><ele>424.0</ele><time>2026-04-19T09:03:51.517Z</time></trkpt><trkpt lat="39.083165" lon="16.7875933"><ele>424.00000000000006</ele><time>2026-04-19T09:03:52.516Z</time></trkpt><trkpt lat="39.083095" lon="16.78755"><ele>424.0</ele><time>2026-04-19T09:03:53.516Z</time></trkpt><trkpt lat="39.0830217" lon="16.78752"><ele>424.0</ele><time>2026-04-19T09:03:54.516Z</time></trkpt><trkpt lat="39.082955" lon="16.7875083"><ele>424.0</ele><time>2026-04-19T09:03:55.516Z</time></trkpt><trkpt lat="39.0828817" lon="16.78752"><ele>424.00000000000006</ele><time>2026-04-19T09:03:56.516Z</time></trkpt><trkpt lat="39.0827967" lon="16.787565"><ele>424.0</ele><time>2026-04-19T09:03:57.516Z</time></trkpt><trkpt lat="39.08272" lon="16.787625"><ele>423.33333333333337</ele><time>2026-04-19T09:03:58.516Z</time></trkpt><trkpt lat="39.08266" lon="16.78768"><ele>422.6666666666667</ele><time>2026-04-19T09:03:59.516Z</time></trkpt><trkpt lat="39.0826017" lon="16.7877217"><ele>422.0</ele><time>2026-04-19T09:04:00.516Z</time></trkpt><trkpt lat="39.082535" lon="16.7877533"><ele>421.33333333333337</ele><time>2026-04-19T09:04:01.516Z</time></trkpt><trkpt lat="39.082465" lon="16.7877717"><ele>420.6666666666667</ele><time>2026-04-19T09:04:02.517Z</time></trkpt><trkpt lat="39.0823933" lon="16.78779"><ele>420.0</ele><time>2026-04-19T09:04:03.516Z</time></trkpt><trkpt lat="39.082275" lon="16.7878083"><ele>418.0</ele><time>2026-04-19T09:04:05.515Z</time></trkpt><trkpt lat="39.0821533" lon="16.7877633"><ele>416.0</ele><time>2026-04-19T09:04:07.516Z</time></trkpt><trkpt lat="39.0820533" lon="16.7877433"><ele>414.0</ele><time>2026-04-19T09:04:09.516Z</time></trkpt><trkpt lat="39.0819533" lon="16.78772"><ele>412.0</ele><time>2026-04-19T09:04:11.516Z</time></trkpt><trkpt lat="39.0818333" lon="16.787655"><ele>412.00000000000006</ele><time>2026-04-19T09:04:13.516Z</time></trkpt><trkpt lat="39.0817467" lon="16.7875617"><ele>412.0</ele><time>2026-04-19T09:04:15.516Z</time></trkpt><trkpt lat="39.0817" lon="16.7874583"><ele>412.0</ele><time>2026-04-19T09:04:17.516Z</time></trkpt><trkpt lat="39.0816833" lon="16.7873583"><ele>412.0</ele><time>2026-04-19T09:04:19.516Z</time></trkpt><trkpt lat="39.0816633" lon="16.787265"><ele>412.00000000000006</ele><time>2026-04-19T09:04:21.516Z</time></trkpt><trkpt lat="39.0816433" lon="16.7871617"><ele>412.0</ele><time>2026-04-19T09:04:23.517Z</time></trkpt><trkpt lat="39.0816183" lon="16.7870567"><ele>412.33333333333337</ele><time>2026-04-19T09:04:25.516Z</time></trkpt><trkpt lat="39.0815933" lon="16.7869483"><ele>412.6666666666667</ele><time>2026-04-19T09:04:27.517Z</time></trkpt><trkpt lat="39.081585" lon="16.786835"><ele>413.0</ele><time>2026-04-19T09:04:29.516Z</time></trkpt><trkpt lat="39.0815867" lon="16.7867417"><ele>413.33333333333337</ele><time>2026-04-19T09:04:31.517Z</time></trkpt><trkpt lat="39.0815817" lon="16.78666"><ele>413.6666666666667</ele><time>2026-04-19T09:04:34.517Z</time></trkpt><trkpt lat="39.081555" lon="16.78656"><ele>414.0</ele><time>2026-04-19T09:04:38.516Z</time></trkpt><trkpt lat="39.0814833" lon="16.786475"><ele>414.0</ele><time>2026-04-19T09:04:41.516Z</time></trkpt><trkpt lat="39.0814133" lon="16.7863867"><ele>414.0</ele><time>2026-04-19T09:04:43.516Z</time></trkpt><trkpt lat="39.0813283" lon="16.7863"><ele>414.0</ele><time>2026-04-19T09:04:45.516Z</time></trkpt><trkpt lat="39.0812167" lon="16.7862217"><ele>414.0</ele><time>2026-04-19T09:04:47.516Z</time></trkpt><trkpt lat="39.08115" lon="16.7861917"><ele>414.0</ele><time>2026-04-19T09:04:48.516Z</time></trkpt><trkpt lat="39.0810883" lon="16.786165"><ele>414.0</ele><time>2026-04-19T09:04:49.516Z</time></trkpt><trkpt lat="39.0809717" lon="16.7861483"><ele>414.0</ele><time>2026-04-19T09:04:51.516Z</time></trkpt><trkpt lat="39.0808533" lon="16.786215"><ele>414.0</ele><time>2026-04-19T09:04:53.516Z</time></trkpt><trkpt lat="39.0808017" lon="16.7862717"><ele>414.0</ele><time>2026-04-19T09:04:54.516Z</time></trkpt><trkpt lat="39.0807483" lon="16.78635"><ele>414.0</ele><time>2026-04-19T09:04:55.516Z</time></trkpt><trkpt lat="39.0807033" lon="16.786445"><ele>415.42857142857144</ele><time>2026-04-19T09:04:56.516Z</time></trkpt><trkpt lat="39.0806683" lon="16.7865433"><ele>416.8571428571429</ele><time>2026-04-19T09:04:57.517Z</time></trkpt><trkpt lat="39.0806367" lon="16.7866367"><ele>418.28571428571433</ele><time>2026-04-19T09:04:58.516Z</time></trkpt><trkpt lat="39.0806067" lon="16.78673"><ele>419.7142857142857</ele><time>2026-04-19T09:04:59.516Z</time></trkpt><trkpt lat="39.0805783" lon="16.7868167"><ele>421.1428571428571</ele><time>2026-04-19T09:05:00.516Z</time></trkpt><trkpt lat="39.0805567" lon="16.7869017"><ele>422.5714285714286</ele><time>2026-04-19T09:05:01.517Z</time></trkpt><trkpt lat="39.0805383" lon="16.7869817"><ele>424.0</ele><time>2026-04-19T09:05:02.517Z</time></trkpt><trkpt lat="39.08052" lon="16.787065"><ele>424.0</ele><time>2026-04-19T09:05:03.516Z</time></trkpt><trkpt lat="39.0804617" lon="16.7871883"><ele>424.0</ele><time>2026-04-19T09:05:05.516Z</time></trkpt><trkpt lat="39.08036" lon="16.7872967"><ele>424.0</ele><time>2026-04-19T09:05:07.516Z</time></trkpt><trkpt lat="39.0802867" lon="16.78736"><ele>424.0</ele><time>2026-04-19T09:05:08.516Z</time></trkpt><trkpt lat="39.0801983" lon="16.787425"><ele>424.0</ele><time>2026-04-19T09:05:09.516Z</time></trkpt><trkpt lat="39.080105" lon="16.7874983"><ele>424.0</ele><time>2026-04-19T09:05:10.517Z</time></trkpt><trkpt lat="39.0800183" lon="16.7875633"><ele>424.0</ele><time>2026-04-19T09:05:11.516Z</time></trkpt><trkpt lat="39.07994" lon="16.7876383"><ele>424.0</ele><time>2026-04-19T09:05:12.516Z</time></trkpt><trkpt lat="39.0798633" lon="16.7877183"><ele>424.0</ele><time>2026-04-19T09:05:13.517Z</time></trkpt><trkpt lat="39.0797917" lon="16.7877767"><ele>424.0</ele><time>2026-04-19T09:05:14.516Z</time></trkpt><trkpt lat="39.079725" lon="16.7878333"><ele>424.50000000000006</ele><time>2026-04-19T09:05:15.516Z</time></trkpt><trkpt lat="39.0796617" lon="16.7878817"><ele>425.0</ele><time>2026-04-19T09:05:16.517Z</time></trkpt><trkpt lat="39.079565" lon="16.7879183"><ele>425.5</ele><time>2026-04-19T09:05:18.517Z</time></trkpt><trkpt lat="39.0796283" lon="16.7879333"><ele>426.0</ele><time>2026-04-19T09:05:27.516Z</time></trkpt><trkpt lat="39.0796833" lon="16.7878883"><ele>426.50000000000006</ele><time>2026-04-19T09:05:28.516Z</time></trkpt><trkpt lat="39.0797483" lon="16.7878317"><ele>427.0</ele><time>2026-04-19T09:05:29.516Z</time></trkpt><trkpt lat="39.079825" lon="16.7877667"><ele>427.0</ele><time>2026-04-19T09:05:30.516Z</time></trkpt><trkpt lat="39.0799083" lon="16.7876917"><ele>427.00000000000006</ele><time>2026-04-19T09:05:31.516Z</time></trkpt><trkpt lat="39.0799867" lon="16.7876117"><ele>427.00000000000006</ele><time>2026-04-19T09:05:32.516Z</time></trkpt><trkpt lat="39.0800567" lon="16.7875317"><ele>427.0</ele><time>2026-04-19T09:05:33.516Z</time></trkpt><trkpt lat="39.0801267" lon="16.7874517"><ele>427.0</ele><time>2026-04-19T09:05:34.516Z</time></trkpt><trkpt lat="39.0802067" lon="16.7873667"><ele>426.40000000000003</ele><time>2026-04-19T09:05:35.516Z</time></trkpt><trkpt lat="39.0802867" lon="16.7872867"><ele>425.80000000000007</ele><time>2026-04-19T09:05:36.516Z</time></trkpt><trkpt lat="39.0803717" lon="16.7872017"><ele>425.2</ele><time>2026-04-19T09:05:37.516Z</time></trkpt><trkpt lat="39.0804517" lon="16.7871233"><ele>424.6</ele><time>2026-04-19T09:05:38.516Z</time></trkpt><trkpt lat="39.0805383" lon="16.7870383"><ele>424.0</ele><time>2026-04-19T09:05:39.516Z</time></trkpt><trkpt lat="39.0806083" lon="16.7869133"><ele>421.5</ele><time>2026-04-19T09:05:40.516Z</time></trkpt><trkpt lat="39.08067" lon="16.7867717"><ele>419.0</ele><time>2026-04-19T09:05:41.516Z</time></trkpt><trkpt lat="39.0807233" lon="16.7866317"><ele>416.5</ele><time>2026-04-19T09:05:42.516Z</time></trkpt><trkpt lat="39.0807883" lon="16.7864967"><ele>414.0</ele><time>2026-04-19T09:05:43.516Z</time></trkpt><trkpt lat="39.080845" lon="16.7863667"><ele>414.0</ele><time>2026-04-19T09:05:44.516Z</time></trkpt><trkpt lat="39.08091" lon="16.7862517"><ele>414.0</ele><time>2026-04-19T09:05:45.516Z</time></trkpt><trkpt lat="39.0809833" lon="16.7861683"><ele>414.0</ele><time>2026-04-19T09:05:46.516Z</time></trkpt><trkpt lat="39.0810533" lon="16.7861183"><ele>414.0</ele><time>2026-04-19T09:05:47.516Z</time></trkpt><trkpt lat="39.0811317" lon="16.7860967"><ele>414.0</ele><time>2026-04-19T09:05:48.516Z</time></trkpt><trkpt lat="39.0812017" lon="16.786145"><ele>414.0</ele><time>2026-04-19T09:05:49.516Z</time></trkpt><trkpt lat="39.0812733" lon="16.786215"><ele>414.0</ele><time>2026-04-19T09:05:50.516Z</time></trkpt><trkpt lat="39.08133" lon="16.78628"><ele>414.0</ele><time>2026-04-19T09:05:51.516Z</time></trkpt><trkpt lat="39.0813983" lon="16.786335"><ele>414.0</ele><time>2026-04-19T09:05:53.516Z</time></trkpt><trkpt lat="39.0814017" lon="16.7864617"><ele>414.0</ele><time>2026-04-19T09:05:56.516Z</time></trkpt><trkpt lat="39.0813633" lon="16.7865267"><ele>414.0</ele><time>2026-04-19T09:05:57.516Z</time></trkpt><trkpt lat="39.0813033" lon="16.786595"><ele>414.0</ele><time>2026-04-19T09:05:58.516Z</time></trkpt><trkpt lat="39.081265" lon="16.7866933"><ele>414.0</ele><time>2026-04-19T09:05:59.516Z</time></trkpt><trkpt lat="39.0812433" lon="16.78681"><ele>414.0</ele><time>2026-04-19T09:06:00.516Z</time></trkpt><trkpt lat="39.0812267" lon="16.7869117"><ele>414.0</ele><time>2026-04-19T09:06:01.517Z</time></trkpt><trkpt lat="39.0812233" lon="16.7870017"><ele>414.0</ele><time>2026-04-19T09:06:02.517Z</time></trkpt><trkpt lat="39.0812217" lon="16.7871567"><ele>414.0</ele><time>2026-04-19T09:06:04.516Z</time></trkpt><trkpt lat="39.0811983" lon="16.78728"><ele>410.75</ele><time>2026-04-19T09:06:06.516Z</time></trkpt><trkpt lat="39.0811733" lon="16.7873683"><ele>407.5</ele><time>2026-04-19T09:06:08.517Z</time></trkpt><trkpt lat="39.08118" lon="16.7875983"><ele>404.25</ele><time>2026-04-19T09:06:53.517Z</time></trkpt><trkpt lat="39.0811633" lon="16.7877017"><ele>401.0</ele><time>2026-04-19T09:06:55.516Z</time></trkpt><trkpt lat="39.08115" lon="16.7879017"><ele>398.8333333333333</ele><time>2026-04-19T09:06:59.517Z</time></trkpt><trkpt lat="39.0811333" lon="16.7880217"><ele>396.66666666666663</ele><time>2026-04-19T09:07:02.516Z</time></trkpt><trkpt lat="39.0811167" lon="16.7881333"><ele>394.5</ele><time>2026-04-19T09:07:05.517Z</time></trkpt><trkpt lat="39.081075" lon="16.7882267"><ele>392.33333333333337</ele><time>2026-04-19T09:07:08.516Z</time></trkpt><trkpt lat="39.0810717" lon="16.7883183"><ele>390.1666666666667</ele><time>2026-04-19T09:07:10.516Z</time></trkpt><trkpt lat="39.08108" lon="16.7884233"><ele>388.0</ele><time>2026-04-19T09:07:13.516Z</time></trkpt><trkpt lat="39.0810683" lon="16.7885717"><ele>387.83333333333337</ele><time>2026-04-19T09:07:21.516Z</time></trkpt><trkpt lat="39.081045" lon="16.7886767"><ele>387.6666666666667</ele><time>2026-04-19T09:07:23.517Z</time></trkpt><trkpt lat="39.08104" lon="16.7887667"><ele>387.5</ele><time>2026-04-19T09:07:28.517Z</time></trkpt><trkpt lat="39.0810383" lon="16.7888933"><ele>387.33333333333337</ele><time>2026-04-19T09:08:26.516Z</time></trkpt><trkpt lat="39.0810267" lon="16.7889867"><ele>387.1666666666667</ele><time>2026-04-19T09:08:30.516Z</time></trkpt><trkpt lat="39.080935" lon="16.78896"><ele>387.0</ele><time>2026-04-19T09:08:35.516Z</time></trkpt><trkpt lat="39.0808583" lon="16.78893"><ele>387.0</ele><time>2026-04-19T09:08:39.517Z</time></trkpt><trkpt lat="39.080775" lon="16.7889317"><ele>387.0</ele><time>2026-04-19T09:08:42.516Z</time></trkpt><trkpt lat="39.0808283" lon="16.7889767"><ele>387.0</ele><time>2026-04-19T09:09:40.517Z</time></trkpt><trkpt lat="39.0808333" lon="16.7890933"><ele>387.0</ele><time>2026-04-19T09:10:48.516Z</time></trkpt><trkpt lat="39.0809717" lon="16.789035"><ele>387.0</ele><time>2026-04-19T09:13:45.516Z</time></trkpt><trkpt lat="39.081085" lon="16.789"><ele>387.0</ele><time>2026-04-19T09:13:57.515Z</time></trkpt><trkpt lat="39.08114" lon="16.788925"><ele>387.0</ele><time>2026-04-19T09:13:59.515Z</time></trkpt><trkpt lat="39.0811883" lon="16.788825"><ele>387.0</ele><time>2026-04-19T09:14:01.515Z</time></trkpt><trkpt lat="39.0812317" lon="16.7887133"><ele>387.0</ele><time>2026-04-19T09:14:04.515Z</time></trkpt><trkpt lat="39.08123" lon="16.7886267"><ele>387.0</ele><time>2026-04-19T09:14:07.515Z</time></trkpt><trkpt lat="39.0812633" lon="16.7885317"><ele>387.0</ele><time>2026-04-19T09:14:28.516Z</time></trkpt><trkpt lat="39.0813317" lon="16.788495"><ele>387.0</ele><time>2026-04-19T09:14:30.515Z</time></trkpt><trkpt lat="39.08141" lon="16.7884683"><ele>387.0</ele><time>2026-04-19T09:14:32.515Z</time></trkpt><trkpt lat="39.08149" lon="16.7885533"><ele>387.0</ele><time>2026-04-19T09:14:35.515Z</time></trkpt><trkpt lat="39.0815267" lon="16.7886617"><ele>387.0</ele><time>2026-04-19T09:14:37.515Z</time></trkpt><trkpt lat="39.081595" lon="16.788725"><ele>387.0</ele><time>2026-04-19T09:14:40.515Z</time></trkpt><trkpt lat="39.0817833" lon="16.78872"><ele>389.6666666666667</ele><time>2026-04-19T09:14:44.515Z</time></trkpt><trkpt lat="39.0818933" lon="16.788675"><ele>392.33333333333337</ele><time>2026-04-19T09:14:46.516Z</time></trkpt><trkpt lat="39.0819617" lon="16.7886417"><ele>395.0</ele><time>2026-04-19T09:14:47.515Z</time></trkpt><trkpt lat="39.082045" lon="16.7885933"><ele>397.6666666666667</ele><time>2026-04-19T09:14:48.516Z</time></trkpt><trkpt lat="39.08212" lon="16.788555"><ele>400.33333333333337</ele><time>2026-04-19T09:14:49.516Z</time></trkpt><trkpt lat="39.08218" lon="16.7885183"><ele>403.0</ele><time>2026-04-19T09:14:50.515Z</time></trkpt><trkpt lat="39.08228" lon="16.78844"><ele>403.6666666666667</ele><time>2026-04-19T09:14:52.515Z</time></trkpt><trkpt lat="39.0823483" lon="16.78833"><ele>404.33333333333337</ele><time>2026-04-19T09:14:54.516Z</time></trkpt><trkpt lat="39.08239" lon="16.7882417"><ele>405.0</ele><time>2026-04-19T09:14:56.515Z</time></trkpt><trkpt lat="39.0824533" lon="16.7882433"><ele>405.66666666666663</ele><time>2026-04-19T09:15:02.516Z</time></trkpt><trkpt lat="39.0825167" lon="16.788165"><ele>406.3333333333333</ele><time>2026-04-19T09:15:04.515Z</time></trkpt><trkpt lat="39.0825633" lon="16.7881017"><ele>407.0</ele><time>2026-04-19T09:15:05.516Z</time></trkpt><trkpt lat="39.08262" lon="16.7880217"><ele>409.16666666666663</ele><time>2026-04-19T09:15:06.515Z</time></trkpt><trkpt lat="39.082675" lon="16.7879367"><ele>411.3333333333333</ele><time>2026-04-19T09:15:07.516Z</time></trkpt><trkpt lat="39.082755" lon="16.7878217"><ele>413.5</ele><time>2026-04-19T09:15:09.515Z</time></trkpt><trkpt lat="39.08281" lon="16.787765"><ele>415.66666666666663</ele><time>2026-04-19T09:15:11.515Z</time></trkpt><trkpt lat="39.082735" lon="16.787675"><ele>417.8333333333333</ele><time>2026-04-19T09:15:36.515Z</time></trkpt><trkpt lat="39.08268" lon="16.7877317"><ele>420.0</ele><time>2026-04-19T09:15:38.516Z</time></trkpt><trkpt lat="39.08263" lon="16.78785"><ele>420.0</ele><time>2026-04-19T09:15:40.515Z</time></trkpt><trkpt lat="39.08258" lon="16.787985"><ele>420.0</ele><time>2026-04-19T09:15:42.515Z</time></trkpt><trkpt lat="39.082565" lon="16.7880667"><ele>420.0</ele><time>2026-04-19T09:15:43.515Z</time></trkpt><trkpt lat="39.082525" lon="16.7881467"><ele>420.0</ele><time>2026-04-19T09:15:44.516Z</time></trkpt><trkpt lat="39.0824433" lon="16.7882767"><ele>420.0</ele><time>2026-04-19T09:15:46.515Z</time></trkpt><trkpt lat="39.0823783" lon="16.78839"><ele>417.8333333333333</ele><time>2026-04-19T09:15:48.515Z</time></trkpt><trkpt lat="39.0823233" lon="16.7885017"><ele>415.66666666666663</ele><time>2026-04-19T09:15:50.515Z</time></trkpt><trkpt lat="39.0822667" lon="16.7886"><ele>413.5</ele><time>2026-04-19T09:15:52.515Z</time></trkpt><trkpt lat="39.08221" lon="16.7886883"><ele>411.3333333333333</ele><time>2026-04-19T09:15:54.515Z</time></trkpt><trkpt lat="39.082155" lon="16.7887633"><ele>409.16666666666663</ele><time>2026-04-19T09:15:55.516Z</time></trkpt><trkpt lat="39.082095" lon="16.788825"><ele>407.0</ele><time>2026-04-19T09:15:57.515Z</time></trkpt><trkpt lat="39.0821817" lon="16.7889683"><ele>406.3333333333333</ele><time>2026-04-19T09:16:22.515Z</time></trkpt><trkpt lat="39.0822167" lon="16.7890467"><ele>405.66666666666663</ele><time>2026-04-19T09:16:26.516Z</time></trkpt><trkpt lat="39.0822933" lon="16.7891533"><ele>405.0</ele><time>2026-04-19T09:16:28.515Z</time></trkpt><trkpt lat="39.0823633" lon="16.789195"><ele>404.33333333333337</ele><time>2026-04-19T09:16:29.516Z</time></trkpt><trkpt lat="39.082425" lon="16.7892433"><ele>403.6666666666667</ele><time>2026-04-19T09:16:30.516Z</time></trkpt><trkpt lat="39.0825117" lon="16.789295"><ele>403.0</ele><time>2026-04-19T09:16:32.515Z</time></trkpt><trkpt lat="39.082575" lon="16.7892617"><ele>403.00000000000006</ele><time>2026-04-19T09:16:34.515Z</time></trkpt><trkpt lat="39.0825867" lon="16.7891533"><ele>403.0</ele><time>2026-04-19T09:16:37.515Z</time></trkpt><trkpt lat="39.0825517" lon="16.789045"><ele>403.0</ele><time>2026-04-19T09:16:39.515Z</time></trkpt><trkpt lat="39.0825417" lon="16.7889567"><ele>403.0</ele><time>2026-04-19T09:16:42.515Z</time></trkpt><trkpt lat="39.08246" lon="16.7890183"><ele>403.00000000000006</ele><time>2026-04-19T09:16:57.515Z</time></trkpt><trkpt lat="39.0824017" lon="16.7889783"><ele>403.0</ele><time>2026-04-19T09:17:00.515Z</time></trkpt><trkpt lat="39.0824767" lon="16.78905"><ele>405.6666666666667</ele><time>2026-04-19T09:28:23.512Z</time></trkpt><trkpt lat="39.0825467" lon="16.7891233"><ele>408.33333333333337</ele><time>2026-04-19T09:28:51.512Z</time></trkpt><trkpt lat="39.08259" lon="16.789205"><ele>411.0</ele><time>2026-04-19T09:28:53.512Z</time></trkpt><trkpt lat="39.0826167" lon="16.7891033"><ele>413.66666666666663</ele><time>2026-04-19T09:28:59.512Z</time></trkpt><trkpt lat="39.0825783" lon="16.7890217"><ele>416.3333333333333</ele><time>2026-04-19T09:29:02.512Z</time></trkpt><trkpt lat="39.0825417" lon="16.7889467"><ele>419.0</ele><time>2026-04-19T09:29:04.512Z</time></trkpt><trkpt lat="39.082495" lon="16.7888883"><ele>415.79999999999995</ele><time>2026-04-19T09:29:05.512Z</time></trkpt><trkpt lat="39.0823567" lon="16.7889"><ele>412.59999999999997</ele><time>2026-04-19T09:29:06.512Z</time></trkpt><trkpt lat="39.0822883" lon="16.7889017"><ele>409.4</ele><time>2026-04-19T09:29:08.512Z</time></trkpt><trkpt lat="39.0822267" lon="16.7889283"><ele>406.2</ele><time>2026-04-19T09:29:10.513Z</time></trkpt><trkpt lat="39.0821267" lon="16.7889333"><ele>403.0</ele><time>2026-04-19T09:29:12.512Z</time></trkpt><trkpt lat="39.082015" lon="16.7889383"><ele>403.0</ele><time>2026-04-19T09:29:14.512Z</time></trkpt><trkpt lat="39.0819183" lon="16.7889183"><ele>403.0</ele><time>2026-04-19T09:29:16.512Z</time></trkpt><trkpt lat="39.0818367" lon="16.7888433"><ele>403.0</ele><time>2026-04-19T09:29:18.512Z</time></trkpt><trkpt lat="39.0817717" lon="16.7888167"><ele>403.0</ele><time>2026-04-19T09:29:22.512Z</time></trkpt><trkpt lat="39.0818583" lon="16.78886"><ele>403.0</ele><time>2026-04-19T09:29:27.512Z</time></trkpt><trkpt lat="39.0819733" lon="16.78887"><ele>403.0</ele><time>2026-04-19T09:29:29.512Z</time></trkpt><trkpt lat="39.082165" lon="16.7887017"><ele>403.0</ele><time>2026-04-19T09:29:30.512Z</time></trkpt><trkpt lat="39.0822467" lon="16.7886317"><ele>403.0</ele><time>2026-04-19T09:29:31.512Z</time></trkpt><trkpt lat="39.082325" lon="16.78856"><ele>403.0</ele><time>2026-04-19T09:29:32.513Z</time></trkpt><trkpt lat="39.0823817" lon="16.7884967"><ele>403.6666666666667</ele><time>2026-04-19T09:29:33.512Z</time></trkpt><trkpt lat="39.082415" lon="16.7883933"><ele>404.33333333333337</ele><time>2026-04-19T09:29:34.512Z</time></trkpt><trkpt lat="39.08242" lon="16.7882917"><ele>405.0</ele><time>2026-04-19T09:29:35.513Z</time></trkpt><trkpt lat="39.0824067" lon="16.7882117"><ele>405.66666666666663</ele><time>2026-04-19T09:29:37.512Z</time></trkpt><trkpt lat="39.08243" lon="16.7881167"><ele>406.3333333333333</ele><time>2026-04-19T09:29:46.513Z</time></trkpt><trkpt lat="39.0824533" lon="16.7880383"><ele>407.0</ele><time>2026-04-19T09:29:48.512Z</time></trkpt><trkpt lat="39.0824733" lon="16.7879383"><ele>406.99999999999994</ele><time>2026-04-19T09:29:51.512Z</time></trkpt><trkpt lat="39.0824617" lon="16.787845"><ele>407.0</ele><time>2026-04-19T09:29:53.512Z</time></trkpt><trkpt lat="39.082375" lon="16.7878083"><ele>407.0</ele><time>2026-04-19T09:29:56.512Z</time></trkpt><trkpt lat="39.0823117" lon="16.7878167"><ele>407.0</ele><time>2026-04-19T09:29:57.512Z</time></trkpt><trkpt lat="39.0822317" lon="16.787825"><ele>406.99999999999994</ele><time>2026-04-19T09:29:58.512Z</time></trkpt><trkpt lat="39.0821483" lon="16.7878267"><ele>407.0</ele><time>2026-04-19T09:29:59.513Z</time></trkpt><trkpt lat="39.08206" lon="16.7878333"><ele>407.0</ele><time>2026-04-19T09:30:00.512Z</time></trkpt><trkpt lat="39.0819767" lon="16.7878133"><ele>407.0</ele><time>2026-04-19T09:30:01.512Z</time></trkpt><trkpt lat="39.081885" lon="16.7877783"><ele>407.0</ele><time>2026-04-19T09:30:02.513Z</time></trkpt><trkpt lat="39.0817783" lon="16.7876883"><ele>407.0</ele><time>2026-04-19T09:30:03.512Z</time></trkpt><trkpt lat="39.08169" lon="16.7876117"><ele>407.0</ele><time>2026-04-19T09:30:04.512Z</time></trkpt><trkpt lat="39.0816067" lon="16.78752"><ele>405.5</ele><time>2026-04-19T09:30:05.512Z</time></trkpt><trkpt lat="39.08154" lon="16.7873917"><ele>404.0</ele><time>2026-04-19T09:30:06.513Z</time></trkpt><trkpt lat="39.0814917" lon="16.7872283"><ele>402.5</ele><time>2026-04-19T09:30:07.512Z</time></trkpt><trkpt lat="39.081435" lon="16.787095"><ele>401.0</ele><time>2026-04-19T09:30:08.513Z</time></trkpt><trkpt lat="39.0813883" lon="16.786965"><ele>401.0</ele><time>2026-04-19T09:30:09.512Z</time></trkpt><trkpt lat="39.0813433" lon="16.78686"><ele>401.0</ele><time>2026-04-19T09:30:10.512Z</time></trkpt><trkpt lat="39.0813433" lon="16.7867067"><ele>401.0</ele><time>2026-04-19T09:30:11.512Z</time></trkpt><trkpt lat="39.081365" lon="16.7865633"><ele>401.0</ele><time>2026-04-19T09:30:12.513Z</time></trkpt><trkpt lat="39.0813783" lon="16.78647"><ele>401.0</ele><time>2026-04-19T09:30:13.512Z</time></trkpt><trkpt lat="39.0813933" lon="16.7863733"><ele>403.6</ele><time>2026-04-19T09:30:16.512Z</time></trkpt><trkpt lat="39.0813117" lon="16.7862833"><ele>406.20000000000005</ele><time>2026-04-19T09:30:18.513Z</time></trkpt><trkpt lat="39.0812317" lon="16.7862267"><ele>408.79999999999995</ele><time>2026-04-19T09:30:19.512Z</time></trkpt><trkpt lat="39.0811433" lon="16.7861833"><ele>411.4</ele><time>2026-04-19T09:30:20.512Z</time></trkpt><trkpt lat="39.08104" lon="16.7861567"><ele>414.0</ele><time>2026-04-19T09:30:21.512Z</time></trkpt><trkpt lat="39.08094" lon="16.786155"><ele>414.0</ele><time>2026-04-19T09:30:22.512Z</time></trkpt><trkpt lat="39.0808433" lon="16.7861683"><ele>414.0</ele><time>2026-04-19T09:30:23.513Z</time></trkpt><trkpt lat="39.08074" lon="16.7862083"><ele>414.0</ele><time>2026-04-19T09:30:24.512Z</time></trkpt><trkpt lat="39.0806367" lon="16.7863133"><ele>414.0</ele><time>2026-04-19T09:30:25.512Z</time></trkpt><trkpt lat="39.08056" lon="16.78649"><ele>417.33333333333337</ele><time>2026-04-19T09:30:26.512Z</time></trkpt><trkpt lat="39.0804983" lon="16.7867567"><ele>420.6666666666667</ele><time>2026-04-19T09:30:27.512Z</time></trkpt><trkpt lat="39.0804467" lon="16.786975"><ele>424.0</ele><time>2026-04-19T09:30:28.512Z</time></trkpt><trkpt lat="39.0803917" lon="16.7871283"><ele>424.0</ele><time>2026-04-19T09:30:29.513Z</time></trkpt><trkpt lat="39.0803233" lon="16.7872483"><ele>424.0</ele><time>2026-04-19T09:30:30.512Z</time></trkpt><trkpt lat="39.0802617" lon="16.7873583"><ele>424.0</ele><time>2026-04-19T09:30:31.512Z</time></trkpt><trkpt lat="39.080175" lon="16.7874567"><ele>424.0</ele><time>2026-04-19T09:30:32.512Z</time></trkpt><trkpt lat="39.0800733" lon="16.78757"><ele>424.75</ele><time>2026-04-19T09:30:33.512Z</time></trkpt><trkpt lat="39.0799733" lon="16.78769"><ele>425.5</ele><time>2026-04-19T09:30:34.513Z</time></trkpt><trkpt lat="39.0798533" lon="16.78779"><ele>426.25</ele><time>2026-04-19T09:30:35.513Z</time></trkpt><trkpt lat="39.079725" lon="16.7878733"><ele>427.0</ele><time>2026-04-19T09:30:36.512Z</time></trkpt><trkpt lat="39.0795983" lon="16.7879667"><ele>427.0</ele><time>2026-04-19T09:30:37.512Z</time></trkpt><trkpt lat="39.07948" lon="16.78804"><ele>427.0</ele><time>2026-04-19T09:30:38.512Z</time></trkpt><trkpt lat="39.0793733" lon="16.7881283"><ele>427.0</ele><time>2026-04-19T09:30:39.513Z</time></trkpt><trkpt lat="39.0792683" lon="16.788245"><ele>427.0</ele><time>2026-04-19T09:30:40.512Z</time></trkpt><trkpt lat="39.0791817" lon="16.7883617"><ele>431.0</ele><time>2026-04-19T09:30:41.512Z</time></trkpt><trkpt lat="39.079095" lon="16.7884883"><ele>435.0</ele><time>2026-04-19T09:30:42.512Z</time></trkpt><trkpt lat="39.07902" lon="16.7886383"><ele>439.0</ele><time>2026-04-19T09:30:43.512Z</time></trkpt><trkpt lat="39.0789617" lon="16.7888283"><ele>443.0</ele><time>2026-04-19T09:30:44.512Z</time></trkpt><trkpt lat="39.0789167" lon="16.7890067"><ele>443.0</ele><time>2026-04-19T09:30:45.512Z</time></trkpt><trkpt lat="39.07888" lon="16.7891633"><ele>443.0</ele><time>2026-04-19T09:30:46.512Z</time></trkpt><trkpt lat="39.0788533" lon="16.7893133"><ele>443.0</ele><time>2026-04-19T09:30:47.512Z</time></trkpt><trkpt lat="39.078835" lon="16.789455"><ele>443.0</ele><time>2026-04-19T09:30:48.512Z</time></trkpt><trkpt lat="39.0788133" lon="16.789595"><ele>440.59999999999997</ele><time>2026-04-19T09:30:49.512Z</time></trkpt><trkpt lat="39.0787783" lon="16.7897133"><ele>438.19999999999993</ele><time>2026-04-19T09:30:50.512Z</time></trkpt><trkpt lat="39.078735" lon="16.7898217"><ele>435.8</ele><time>2026-04-19T09:30:51.513Z</time></trkpt><trkpt lat="39.078685" lon="16.7899133"><ele>433.4</ele><time>2026-04-19T09:30:52.512Z</time></trkpt><trkpt lat="39.0786167" lon="16.78999"><ele>431.0</ele><time>2026-04-19T09:30:53.512Z</time></trkpt><trkpt lat="39.07855" lon="16.79006"><ele>431.0</ele><time>2026-04-19T09:30:54.512Z</time></trkpt><trkpt lat="39.07849" lon="16.7901267"><ele>431.0</ele><time>2026-04-19T09:30:55.513Z</time></trkpt><trkpt lat="39.07844" lon="16.7901967"><ele>431.0</ele><time>2026-04-19T09:30:56.512Z</time></trkpt><trkpt lat="39.0783917" lon="16.7902733"><ele>431.0</ele><time>2026-04-19T09:30:57.512Z</time></trkpt><trkpt lat="39.0783517" lon="16.79035"><ele>431.0</ele><time>2026-04-19T09:30:58.512Z</time></trkpt><trkpt lat="39.0783067" lon="16.7904283"><ele>431.0</ele><time>2026-04-19T09:30:59.513Z</time></trkpt><trkpt lat="39.07826" lon="16.7904967"><ele>431.0</ele><time>2026-04-19T09:31:00.513Z</time></trkpt><trkpt lat="39.0782" lon="16.79054"><ele>429.8</ele><time>2026-04-19T09:31:01.512Z</time></trkpt><trkpt lat="39.0781183" lon="16.7905933"><ele>428.6</ele><time>2026-04-19T09:31:03.513Z</time></trkpt><trkpt lat="39.0780417" lon="16.7906083"><ele>427.4</ele><time>2026-04-19T09:31:06.512Z</time></trkpt><trkpt lat="39.077945" lon="16.790605"><ele>426.2</ele><time>2026-04-19T09:31:13.512Z</time></trkpt><trkpt lat="39.077825" lon="16.7906033"><ele>425.0</ele><time>2026-04-19T09:31:15.512Z</time></trkpt><trkpt lat="39.0777533" lon="16.79061"><ele>425.0</ele><time>2026-04-19T09:31:16.513Z</time></trkpt><trkpt lat="39.07765" lon="16.79061"><ele>425.0</ele><time>2026-04-19T09:31:17.512Z</time></trkpt><trkpt lat="39.0775133" lon="16.7906117"><ele>425.0</ele><time>2026-04-19T09:31:18.512Z</time></trkpt><trkpt lat="39.0773467" lon="16.7906383"><ele>425.0</ele><time>2026-04-19T09:31:19.512Z</time></trkpt><trkpt lat="39.0771967" lon="16.79065"><ele>425.5</ele><time>2026-04-19T09:31:20.513Z</time></trkpt><trkpt lat="39.077065" lon="16.7906583"><ele>426.0</ele><time>2026-04-19T09:31:21.512Z</time></trkpt><trkpt lat="39.0769467" lon="16.7905883"><ele>426.5</ele><time>2026-04-19T09:31:22.512Z</time></trkpt><trkpt lat="39.0768383" lon="16.790505"><ele>427.0</ele><time>2026-04-19T09:31:23.512Z</time></trkpt><trkpt lat="39.0767317" lon="16.7904133"><ele>427.0</ele><time>2026-04-19T09:31:24.512Z</time></trkpt><trkpt lat="39.07662" lon="16.790335"><ele>427.0</ele><time>2026-04-19T09:31:25.512Z</time></trkpt><trkpt lat="39.076495" lon="16.790255"><ele>427.0</ele><time>2026-04-19T09:31:26.512Z</time></trkpt><trkpt lat="39.0763717" lon="16.7901767"><ele>427.0</ele><time>2026-04-19T09:31:27.512Z</time></trkpt><trkpt lat="39.0762633" lon="16.7901"><ele>430.50000000000006</ele><time>2026-04-19T09:31:28.512Z</time></trkpt><trkpt lat="39.0761717" lon="16.7900467"><ele>434.0</ele><time>2026-04-19T09:31:29.512Z</time></trkpt><trkpt lat="39.0760867" lon="16.79001"><ele>437.5</ele><time>2026-04-19T09:31:30.513Z</time></trkpt><trkpt lat="39.0760133" lon="16.7899567"><ele>441.0</ele><time>2026-04-19T09:31:31.512Z</time></trkpt><trkpt lat="39.0759533" lon="16.789915"><ele>444.50000000000006</ele><time>2026-04-19T09:31:32.513Z</time></trkpt><trkpt lat="39.0758883" lon="16.789875"><ele>448.0</ele><time>2026-04-19T09:31:33.512Z</time></trkpt><trkpt lat="39.0758183" lon="16.7898633"><ele>450.2</ele><time>2026-04-19T09:31:34.512Z</time></trkpt><trkpt lat="39.0757467" lon="16.7898717"><ele>452.4</ele><time>2026-04-19T09:31:35.512Z</time></trkpt><trkpt lat="39.0756817" lon="16.78991"><ele>454.59999999999997</ele><time>2026-04-19T09:31:36.512Z</time></trkpt><trkpt lat="39.07564" lon="16.7900067"><ele>456.79999999999995</ele><time>2026-04-19T09:31:37.512Z</time></trkpt><trkpt lat="39.0756333" lon="16.7901367"><ele>459.0</ele><time>2026-04-19T09:31:38.512Z</time></trkpt><trkpt lat="39.0756733" lon="16.790295"><ele>459.0</ele><time>2026-04-19T09:31:39.512Z</time></trkpt><trkpt lat="39.07572" lon="16.7904383"><ele>459.0</ele><time>2026-04-19T09:31:40.512Z</time></trkpt><trkpt lat="39.0757567" lon="16.790555"><ele>459.0</ele><time>2026-04-19T09:31:41.512Z</time></trkpt><trkpt lat="39.0757717" lon="16.7906517"><ele>459.0</ele><time>2026-04-19T09:31:42.513Z</time></trkpt><trkpt lat="39.0757917" lon="16.7907383"><ele>459.0</ele><time>2026-04-19T09:31:43.512Z</time></trkpt><trkpt lat="39.07581" lon="16.7908283"><ele>459.0</ele><time>2026-04-19T09:31:44.512Z</time></trkpt><trkpt lat="39.0758083" lon="16.7909217"><ele>456.8333333333333</ele><time>2026-04-19T09:31:45.512Z</time></trkpt><trkpt lat="39.0757967" lon="16.7910183"><ele>454.66666666666663</ele><time>2026-04-19T09:31:46.512Z</time></trkpt><trkpt lat="39.0757733" lon="16.7911233"><ele>452.5</ele><time>2026-04-19T09:31:47.512Z</time></trkpt><trkpt lat="39.075735" lon="16.7912133"><ele>450.3333333333333</ele><time>2026-04-19T09:31:48.513Z</time></trkpt><trkpt lat="39.0756833" lon="16.7912967"><ele>448.16666666666663</ele><time>2026-04-19T09:31:49.512Z</time></trkpt><trkpt lat="39.0756233" lon="16.7913383"><ele>446.0</ele><time>2026-04-19T09:31:50.512Z</time></trkpt><trkpt lat="39.0755667" lon="16.791375"><ele>446.0</ele><time>2026-04-19T09:31:51.512Z</time></trkpt><trkpt lat="39.0754883" lon="16.791405"><ele>446.0</ele><time>2026-04-19T09:31:52.512Z</time></trkpt><trkpt lat="39.0753933" lon="16.791425"><ele>446.0</ele><time>2026-04-19T09:31:53.512Z</time></trkpt><trkpt lat="39.075285" lon="16.7914517"><ele>446.0</ele><time>2026-04-19T09:31:54.512Z</time></trkpt><trkpt lat="39.0751683" lon="16.7914733"><ele>446.0</ele><time>2026-04-19T09:31:55.512Z</time></trkpt><trkpt lat="39.0750533" lon="16.7914767"><ele>446.0</ele><time>2026-04-19T09:31:56.512Z</time></trkpt><trkpt lat="39.074945" lon="16.7914817"><ele>446.0</ele><time>2026-04-19T09:31:57.512Z</time></trkpt><trkpt lat="39.07483" lon="16.7914717"><ele>446.0</ele><time>2026-04-19T09:31:58.512Z</time></trkpt><trkpt lat="39.074715" lon="16.7914217"><ele>446.0</ele><time>2026-04-19T09:31:59.513Z</time></trkpt><trkpt lat="39.07461" lon="16.7913583"><ele>445.75</ele><time>2026-04-19T09:32:00.512Z</time></trkpt><trkpt lat="39.0745133" lon="16.7912483"><ele>445.5</ele><time>2026-04-19T09:32:01.512Z</time></trkpt><trkpt lat="39.074435" lon="16.79108"><ele>445.25</ele><time>2026-04-19T09:32:02.513Z</time></trkpt><trkpt lat="39.0743567" lon="16.790895"><ele>445.0</ele><time>2026-04-19T09:32:03.513Z</time></trkpt><trkpt lat="39.0742817" lon="16.7906917"><ele>443.6666666666667</ele><time>2026-04-19T09:32:04.513Z</time></trkpt><trkpt lat="39.0741917" lon="16.790515"><ele>442.33333333333337</ele><time>2026-04-19T09:32:05.512Z</time></trkpt><trkpt lat="39.0740883" lon="16.7903567"><ele>441.0</ele><time>2026-04-19T09:32:06.512Z</time></trkpt><trkpt lat="39.07401" lon="16.7901967"><ele>443.0</ele><time>2026-04-19T09:32:07.512Z</time></trkpt><trkpt lat="39.0739967" lon="16.7900283"><ele>445.0</ele><time>2026-04-19T09:32:08.513Z</time></trkpt><trkpt lat="39.0739967" lon="16.7898617"><ele>447.0</ele><time>2026-04-19T09:32:09.513Z</time></trkpt><trkpt lat="39.0740267" lon="16.7897017"><ele>449.0</ele><time>2026-04-19T09:32:10.513Z</time></trkpt><trkpt lat="39.0740917" lon="16.7895483"><ele>451.75</ele><time>2026-04-19T09:32:11.512Z</time></trkpt><trkpt lat="39.074175" lon="16.7894"><ele>454.5</ele><time>2026-04-19T09:32:12.512Z</time></trkpt><trkpt lat="39.0742483" lon="16.7892767"><ele>457.25</ele><time>2026-04-19T09:32:13.512Z</time></trkpt><trkpt lat="39.07433" lon="16.7891717"><ele>460.0</ele><time>2026-04-19T09:32:14.512Z</time></trkpt><trkpt lat="39.0744383" lon="16.7890733"><ele>460.0</ele><time>2026-04-19T09:32:15.512Z</time></trkpt><trkpt lat="39.0745283" lon="16.7889817"><ele>460.0</ele><time>2026-04-19T09:32:16.512Z</time></trkpt><trkpt lat="39.0746" lon="16.7888567"><ele>460.0</ele><time>2026-04-19T09:32:17.512Z</time></trkpt><trkpt lat="39.0746617" lon="16.7887333"><ele>460.0</ele><time>2026-04-19T09:32:18.512Z</time></trkpt><trkpt lat="39.0747417" lon="16.7886233"><ele>460.00000000000006</ele><time>2026-04-19T09:32:19.513Z</time></trkpt><trkpt lat="39.0748017" lon="16.7885133"><ele>460.0</ele><time>2026-04-19T09:32:20.513Z</time></trkpt><trkpt lat="39.0748767" lon="16.7884233"><ele>460.0</ele><time>2026-04-19T09:32:21.512Z</time></trkpt><trkpt lat="39.0749467" lon="16.78835"><ele>460.0</ele><time>2026-04-19T09:32:22.512Z</time></trkpt><trkpt lat="39.0749817" lon="16.7882767"><ele>460.00000000000006</ele><time>2026-04-19T09:32:23.512Z</time></trkpt><trkpt lat="39.0749567" lon="16.7881717"><ele>460.0</ele><time>2026-04-19T09:32:25.513Z</time></trkpt><trkpt lat="39.0748783" lon="16.7880667"><ele>460.83333333333337</ele><time>2026-04-19T09:32:27.513Z</time></trkpt><trkpt lat="39.07483" lon="16.7879767"><ele>461.6666666666667</ele><time>2026-04-19T09:32:28.512Z</time></trkpt><trkpt lat="39.0747883" lon="16.7878833"><ele>462.5</ele><time>2026-04-19T09:32:29.512Z</time></trkpt><trkpt lat="39.0747483" lon="16.7877833"><ele>463.33333333333337</ele><time>2026-04-19T09:32:30.512Z</time></trkpt><trkpt lat="39.0747067" lon="16.78767"><ele>464.1666666666667</ele><time>2026-04-19T09:32:31.512Z</time></trkpt><trkpt lat="39.0746683" lon="16.7875717"><ele>465.0</ele><time>2026-04-19T09:32:32.512Z</time></trkpt><trkpt lat="39.0746167" lon="16.7874733"><ele>465.6</ele><time>2026-04-19T09:32:33.512Z</time></trkpt><trkpt lat="39.074555" lon="16.7873583"><ele>466.2</ele><time>2026-04-19T09:32:34.512Z</time></trkpt><trkpt lat="39.0744983" lon="16.7872417"><ele>466.79999999999995</ele><time>2026-04-19T09:32:35.512Z</time></trkpt><trkpt lat="39.0744383" lon="16.78713"><ele>467.4</ele><time>2026-04-19T09:32:36.512Z</time></trkpt><trkpt lat="39.0743833" lon="16.7870167"><ele>468.0</ele><time>2026-04-19T09:32:37.513Z</time></trkpt><trkpt lat="39.0743333" lon="16.7869"><ele>469.0</ele><time>2026-04-19T09:32:38.513Z</time></trkpt><trkpt lat="39.07429" lon="16.7867983"><ele>469.99999999999994</ele><time>2026-04-19T09:32:39.512Z</time></trkpt><trkpt lat="39.0742667" lon="16.786685"><ele>470.99999999999994</ele><time>2026-04-19T09:32:40.513Z</time></trkpt><trkpt lat="39.0742617" lon="16.7865667"><ele>472.0</ele><time>2026-04-19T09:32:41.512Z</time></trkpt><trkpt lat="39.0742617" lon="16.786445"><ele>473.0</ele><time>2026-04-19T09:32:42.512Z</time></trkpt><trkpt lat="39.0743017" lon="16.7863017"><ele>473.0</ele><time>2026-04-19T09:32:43.513Z</time></trkpt><trkpt lat="39.0743483" lon="16.78614"><ele>473.0</ele><time>2026-04-19T09:32:44.512Z</time></trkpt><trkpt lat="39.0744467" lon="16.7859667"><ele>473.0</ele><time>2026-04-19T09:32:45.512Z</time></trkpt><trkpt lat="39.07453" lon="16.7858"><ele>474.0</ele><time>2026-04-19T09:32:46.512Z</time></trkpt><trkpt lat="39.074605" lon="16.7856383"><ele>475.0</ele><time>2026-04-19T09:32:47.513Z</time></trkpt><trkpt lat="39.0746717" lon="16.78549"><ele>476.0</ele><time>2026-04-19T09:32:48.512Z</time></trkpt><trkpt lat="39.074725" lon="16.7853667"><ele>477.0</ele><time>2026-04-19T09:32:49.512Z</time></trkpt><trkpt lat="39.074785" lon="16.7852817"><ele>477.0</ele><time>2026-04-19T09:32:50.512Z</time></trkpt><trkpt lat="39.0748167" lon="16.7852083"><ele>477.0</ele><time>2026-04-19T09:32:51.512Z</time></trkpt><trkpt lat="39.07478" lon="16.78509"><ele>477.0</ele><time>2026-04-19T09:32:53.513Z</time></trkpt><trkpt lat="39.0747483" lon="16.7850067"><ele>477.0</ele><time>2026-04-19T09:32:54.512Z</time></trkpt><trkpt lat="39.0747333" lon="16.7849067"><ele>477.0</ele><time>2026-04-19T09:32:55.512Z</time></trkpt><trkpt lat="39.0747033" lon="16.7848017"><ele>477.0</ele><time>2026-04-19T09:32:56.512Z</time></trkpt><trkpt lat="39.0746567" lon="16.7847083"><ele>479.0</ele><time>2026-04-19T09:32:57.512Z</time></trkpt><trkpt lat="39.074595" lon="16.7846483"><ele>481.00000000000006</ele><time>2026-04-19T09:32:58.513Z</time></trkpt><trkpt lat="39.0745183" lon="16.78461"><ele>483.00000000000006</ele><time>2026-04-19T09:32:59.512Z</time></trkpt><trkpt lat="39.0744233" lon="16.7846217"><ele>485.0</ele><time>2026-04-19T09:33:00.513Z</time></trkpt><trkpt lat="39.0743267" lon="16.7846367"><ele>487.0</ele><time>2026-04-19T09:33:01.513Z</time></trkpt><trkpt lat="39.0742233" lon="16.78471"><ele>487.0</ele><time>2026-04-19T09:33:02.512Z</time></trkpt><trkpt lat="39.0741317" lon="16.78477"><ele>487.00000000000006</ele><time>2026-04-19T09:33:03.512Z</time></trkpt><trkpt lat="39.0740617" lon="16.78483"><ele>487.00000000000006</ele><time>2026-04-19T09:33:04.513Z</time></trkpt><trkpt lat="39.07399" lon="16.7848917"><ele>487.0</ele><time>2026-04-19T09:33:05.512Z</time></trkpt><trkpt lat="39.0739183" lon="16.78491"><ele>487.0</ele><time>2026-04-19T09:33:06.512Z</time></trkpt><trkpt lat="39.0738067" lon="16.784805"><ele>486.0</ele><time>2026-04-19T09:33:08.512Z</time></trkpt><trkpt lat="39.0737733" lon="16.7846783"><ele>485.0</ele><time>2026-04-19T09:33:09.512Z</time></trkpt><trkpt lat="39.07376" lon="16.7845083"><ele>484.0</ele><time>2026-04-19T09:33:10.512Z</time></trkpt><trkpt lat="39.0737467" lon="16.7842767"><ele>483.0</ele><time>2026-04-19T09:33:11.512Z</time></trkpt><trkpt lat="39.0737767" lon="16.7839867"><ele>483.0</ele><time>2026-04-19T09:33:12.512Z</time></trkpt><trkpt lat="39.0737833" lon="16.7837283"><ele>483.0</ele><time>2026-04-19T09:33:13.513Z</time></trkpt><trkpt lat="39.07377" lon="16.7835183"><ele>483.0</ele><time>2026-04-19T09:33:14.512Z</time></trkpt><trkpt lat="39.0737783" lon="16.7833267"><ele>486.0</ele><time>2026-04-19T09:33:15.512Z</time></trkpt><trkpt lat="39.0737983" lon="16.783155"><ele>488.99999999999994</ele><time>2026-04-19T09:33:16.512Z</time></trkpt><trkpt lat="39.0738033" lon="16.7830083"><ele>491.99999999999994</ele><time>2026-04-19T09:33:17.513Z</time></trkpt><trkpt lat="39.0737917" lon="16.7829067"><ele>495.0</ele><time>2026-04-19T09:33:18.512Z</time></trkpt><trkpt lat="39.0737283" lon="16.7828133"><ele>498.0</ele><time>2026-04-19T09:33:19.513Z</time></trkpt><trkpt lat="39.0736667" lon="16.78275"><ele>498.0</ele><time>2026-04-19T09:33:20.512Z</time></trkpt><trkpt lat="39.0735833" lon="16.7827517"><ele>497.99999999999994</ele><time>2026-04-19T09:33:21.512Z</time></trkpt><trkpt lat="39.07349" lon="16.7827983"><ele>497.99999999999994</ele><time>2026-04-19T09:33:22.513Z</time></trkpt><trkpt lat="39.0733817" lon="16.7828967"><ele>498.0</ele><time>2026-04-19T09:33:23.512Z</time></trkpt><trkpt lat="39.0732783" lon="16.78297"><ele>498.0</ele><time>2026-04-19T09:33:24.512Z</time></trkpt><trkpt lat="39.07319" lon="16.7830283"><ele>498.6666666666667</ele><time>2026-04-19T09:33:25.512Z</time></trkpt><trkpt lat="39.0731133" lon="16.7830417"><ele>499.33333333333337</ele><time>2026-04-19T09:33:26.512Z</time></trkpt><trkpt lat="39.07305" lon="16.7829967"><ele>500.0</ele><time>2026-04-19T09:33:27.512Z</time></trkpt><trkpt lat="39.0729883" lon="16.7829133"><ele>500.6666666666667</ele><time>2026-04-19T09:33:28.512Z</time></trkpt><trkpt lat="39.0729367" lon="16.782795"><ele>501.33333333333337</ele><time>2026-04-19T09:33:29.512Z</time></trkpt><trkpt lat="39.072885" lon="16.7826933"><ele>502.0</ele><time>2026-04-19T09:33:30.512Z</time></trkpt><trkpt lat="39.0728217" lon="16.7826033"><ele>503.50000000000006</ele><time>2026-04-19T09:33:31.513Z</time></trkpt><trkpt lat="39.07276" lon="16.7825367"><ele>505.0</ele><time>2026-04-19T09:33:32.512Z</time></trkpt><trkpt lat="39.0726983" lon="16.78249"><ele>506.5</ele><time>2026-04-19T09:33:33.512Z</time></trkpt><trkpt lat="39.0726233" lon="16.7824717"><ele>508.0</ele><time>2026-04-19T09:33:34.513Z</time></trkpt><trkpt lat="39.07254" lon="16.7824633"><ele>509.50000000000006</ele><time>2026-04-19T09:33:35.513Z</time></trkpt><trkpt lat="39.072455" lon="16.782485"><ele>511.0</ele><time>2026-04-19T09:33:36.512Z</time></trkpt><trkpt lat="39.072365" lon="16.7825217"><ele>512.5</ele><time>2026-04-19T09:33:37.512Z</time></trkpt><trkpt lat="39.0722733" lon="16.782585"><ele>514.0</ele><time>2026-04-19T09:33:38.512Z</time></trkpt><trkpt lat="39.07218" lon="16.7826917"><ele>515.5</ele><time>2026-04-19T09:33:39.512Z</time></trkpt><trkpt lat="39.072085" lon="16.7828467"><ele>517.0</ele><time>2026-04-19T09:33:40.512Z</time></trkpt><trkpt lat="39.0720133" lon="16.7830383"><ele>517.0</ele><time>2026-04-19T09:33:41.512Z</time></trkpt><trkpt lat="39.0719267" lon="16.78318"><ele>517.0</ele><time>2026-04-19T09:33:42.513Z</time></trkpt><trkpt lat="39.0718667" lon="16.7833917"><ele>517.0</ele><time>2026-04-19T09:33:43.512Z</time></trkpt><trkpt lat="39.0717917" lon="16.783555"><ele>516.75</ele><time>2026-04-19T09:33:44.512Z</time></trkpt><trkpt lat="39.0717117" lon="16.7836867"><ele>516.5</ele><time>2026-04-19T09:33:45.512Z</time></trkpt><trkpt lat="39.071645" lon="16.7838183"><ele>516.25</ele><time>2026-04-19T09:33:46.512Z</time></trkpt><trkpt lat="39.0715917" lon="16.7839783"><ele>516.0</ele><time>2026-04-19T09:33:47.512Z</time></trkpt><trkpt lat="39.0715433" lon="16.78413"><ele>516.0</ele><time>2026-04-19T09:33:48.512Z</time></trkpt><trkpt lat="39.071495" lon="16.784265"><ele>516.0</ele><time>2026-04-19T09:33:49.512Z</time></trkpt><trkpt lat="39.0714483" lon="16.7843667"><ele>516.0</ele><time>2026-04-19T09:33:50.512Z</time></trkpt><trkpt lat="39.0713783" lon="16.7844283"><ele>516.0</ele><time>2026-04-19T09:33:51.513Z</time></trkpt><trkpt lat="39.07129" lon="16.7844467"><ele>516.0</ele><time>2026-04-19T09:33:52.512Z</time></trkpt><trkpt lat="39.0711917" lon="16.7844133"><ele>516.0</ele><time>2026-04-19T09:33:53.512Z</time></trkpt><trkpt lat="39.071075" lon="16.7843417"><ele>516.0</ele><time>2026-04-19T09:33:54.512Z</time></trkpt><trkpt lat="39.0709367" lon="16.7842583"><ele>516.0</ele><time>2026-04-19T09:33:55.512Z</time></trkpt><trkpt lat="39.070795" lon="16.7842017"><ele>516.0</ele><time>2026-04-19T09:33:56.512Z</time></trkpt><trkpt lat="39.070655" lon="16.784165"><ele>514.25</ele><time>2026-04-19T09:33:57.512Z</time></trkpt><trkpt lat="39.070525" lon="16.78413"><ele>512.5</ele><time>2026-04-19T09:33:58.512Z</time></trkpt><trkpt lat="39.0704083" lon="16.7840717"><ele>510.75</ele><time>2026-04-19T09:33:59.513Z</time></trkpt><trkpt lat="39.0702917" lon="16.783985"><ele>509.0</ele><time>2026-04-19T09:34:00.512Z</time></trkpt><trkpt lat="39.0701883" lon="16.783885"><ele>509.0</ele><time>2026-04-19T09:34:01.512Z</time></trkpt><trkpt lat="39.07008" lon="16.7837833"><ele>509.0</ele><time>2026-04-19T09:34:02.512Z</time></trkpt><trkpt lat="39.0699783" lon="16.7837033"><ele>509.0</ele><time>2026-04-19T09:34:03.512Z</time></trkpt><trkpt lat="39.069865" lon="16.783655"><ele>509.0</ele><time>2026-04-19T09:34:04.513Z</time></trkpt><trkpt lat="39.06974" lon="16.7836517"><ele>507.6</ele><time>2026-04-19T09:34:05.513Z</time></trkpt><trkpt lat="39.0696217" lon="16.783655"><ele>506.2</ele><time>2026-04-19T09:34:06.512Z</time></trkpt><trkpt lat="39.0695133" lon="16.78365"><ele>504.80000000000007</ele><time>2026-04-19T09:34:07.512Z</time></trkpt><trkpt lat="39.069415" lon="16.7836167"><ele>503.40000000000003</ele><time>2026-04-19T09:34:08.512Z</time></trkpt><trkpt lat="39.069325" lon="16.7835367"><ele>502.0</ele><time>2026-04-19T09:34:09.512Z</time></trkpt><trkpt lat="39.06925" lon="16.7834233"><ele>506.0</ele><time>2026-04-19T09:34:10.512Z</time></trkpt><trkpt lat="39.0692033" lon="16.783275"><ele>510.0</ele><time>2026-04-19T09:34:11.512Z</time></trkpt><trkpt lat="39.06917" lon="16.7831117"><ele>514.0</ele><time>2026-04-19T09:34:12.511Z</time></trkpt><trkpt lat="39.06914" lon="16.7829533"><ele>518.0</ele><time>2026-04-19T09:34:13.511Z</time></trkpt><trkpt lat="39.0690933" lon="16.7828283"><ele>518.0</ele><time>2026-04-19T09:34:14.511Z</time></trkpt><trkpt lat="39.0690367" lon="16.7827217"><ele>518.0</ele><time>2026-04-19T09:34:15.511Z</time></trkpt><trkpt lat="39.0689567" lon="16.78267"><ele>518.0</ele><time>2026-04-19T09:34:16.511Z</time></trkpt><trkpt lat="39.068875" lon="16.78265"><ele>518.0</ele><time>2026-04-19T09:34:17.511Z</time></trkpt><trkpt lat="39.068785" lon="16.7826767"><ele>518.0</ele><time>2026-04-19T09:34:18.511Z</time></trkpt><trkpt lat="39.0686883" lon="16.782745"><ele>518.0</ele><time>2026-04-19T09:34:19.512Z</time></trkpt><trkpt lat="39.0685717" lon="16.782845"><ele>518.0</ele><time>2026-04-19T09:34:20.511Z</time></trkpt><trkpt lat="39.0684333" lon="16.7829383"><ele>518.0</ele><time>2026-04-19T09:34:21.511Z</time></trkpt><trkpt lat="39.0682983" lon="16.783"><ele>518.0</ele><time>2026-04-19T09:34:22.512Z</time></trkpt><trkpt lat="39.0681633" lon="16.78309"><ele>521.75</ele><time>2026-04-19T09:34:23.511Z</time></trkpt><trkpt lat="39.0680317" lon="16.7831883"><ele>525.5</ele><time>2026-04-19T09:34:24.511Z</time></trkpt><trkpt lat="39.067915" lon="16.7832983"><ele>529.25</ele><time>2026-04-19T09:34:25.511Z</time></trkpt><trkpt lat="39.0678217" lon="16.7834233"><ele>533.0</ele><time>2026-04-19T09:34:26.512Z</time></trkpt><trkpt lat="39.0677467" lon="16.783525"><ele>534.0</ele><time>2026-04-19T09:34:27.511Z</time></trkpt><trkpt lat="39.0676517" lon="16.7835783"><ele>535.0</ele><time>2026-04-19T09:34:28.512Z</time></trkpt><trkpt lat="39.0675833" lon="16.7835983"><ele>536.0</ele><time>2026-04-19T09:34:29.512Z</time></trkpt><trkpt lat="39.0675" lon="16.783595"><ele>537.0</ele><time>2026-04-19T09:34:30.511Z</time></trkpt><trkpt lat="39.0674067" lon="16.78356"><ele>538.0</ele><time>2026-04-19T09:34:31.511Z</time></trkpt><trkpt lat="39.0673083" lon="16.78351"><ele>538.0</ele><time>2026-04-19T09:34:32.511Z</time></trkpt><trkpt lat="39.0672033" lon="16.78347"><ele>538.0</ele><time>2026-04-19T09:34:33.511Z</time></trkpt><trkpt lat="39.0671033" lon="16.7834133"><ele>538.0</ele><time>2026-04-19T09:34:34.511Z</time></trkpt><trkpt lat="39.06701" lon="16.783425"><ele>538.0</ele><time>2026-04-19T09:34:35.511Z</time></trkpt><trkpt lat="39.066925" lon="16.7834883"><ele>538.0</ele><time>2026-04-19T09:34:36.511Z</time></trkpt><trkpt lat="39.0668533" lon="16.783585"><ele>533.0</ele><time>2026-04-19T09:34:37.511Z</time></trkpt><trkpt lat="39.0668117" lon="16.7837133"><ele>528.0</ele><time>2026-04-19T09:34:38.511Z</time></trkpt><trkpt lat="39.0667483" lon="16.78382"><ele>523.0</ele><time>2026-04-19T09:34:39.511Z</time></trkpt><trkpt lat="39.06667" lon="16.7839133"><ele>518.0</ele><time>2026-04-19T09:34:40.512Z</time></trkpt><trkpt lat="39.066565" lon="16.7839717"><ele>513.0</ele><time>2026-04-19T09:34:41.511Z</time></trkpt><trkpt lat="39.0664517" lon="16.7839933"><ele>511.75</ele><time>2026-04-19T09:34:42.511Z</time></trkpt><trkpt lat="39.0663433" lon="16.7839767"><ele>510.5</ele><time>2026-04-19T09:34:43.511Z</time></trkpt><trkpt lat="39.06624" lon="16.7839117"><ele>509.25</ele><time>2026-04-19T09:34:44.512Z</time></trkpt><trkpt lat="39.066135" lon="16.7838283"><ele>508.0</ele><time>2026-04-19T09:34:45.511Z</time></trkpt><trkpt lat="39.0660283" lon="16.78371"><ele>508.0</ele><time>2026-04-19T09:34:46.511Z</time></trkpt><trkpt lat="39.0659017" lon="16.7836483"><ele>508.0</ele><time>2026-04-19T09:34:47.512Z</time></trkpt><trkpt lat="39.0657667" lon="16.7836167"><ele>508.0</ele><time>2026-04-19T09:34:48.511Z</time></trkpt><trkpt lat="39.0656233" lon="16.783605"><ele>508.0</ele><time>2026-04-19T09:34:49.511Z</time></trkpt><trkpt lat="39.0654917" lon="16.7835833"><ele>508.79999999999995</ele><time>2026-04-19T09:34:50.511Z</time></trkpt><trkpt lat="39.0653717" lon="16.7835483"><ele>509.59999999999997</ele><time>2026-04-19T09:34:51.512Z</time></trkpt><trkpt lat="39.0652733" lon="16.7835267"><ele>510.40000000000003</ele><time>2026-04-19T09:34:52.512Z</time></trkpt><trkpt lat="39.0652" lon="16.783465"><ele>511.20000000000005</ele><time>2026-04-19T09:34:53.512Z</time></trkpt><trkpt lat="39.0651517" lon="16.783365"><ele>512.0</ele><time>2026-04-19T09:34:54.512Z</time></trkpt><trkpt lat="39.0651233" lon="16.7832533"><ele>511.99999999999994</ele><time>2026-04-19T09:34:55.511Z</time></trkpt><trkpt lat="39.0651083" lon="16.78314"><ele>512.0</ele><time>2026-04-19T09:34:56.511Z</time></trkpt><trkpt lat="39.065085" lon="16.7830567"><ele>512.0</ele><time>2026-04-19T09:34:57.511Z</time></trkpt><trkpt lat="39.0650483" lon="16.782985"><ele>512.0</ele><time>2026-04-19T09:34:58.511Z</time></trkpt><trkpt lat="39.0649883" lon="16.7829267"><ele>511.99999999999994</ele><time>2026-04-19T09:34:59.511Z</time></trkpt><trkpt lat="39.0649117" lon="16.7828883"><ele>512.0</ele><time>2026-04-19T09:35:00.511Z</time></trkpt><trkpt lat="39.0648167" lon="16.7828817"><ele>510.8</ele><time>2026-04-19T09:35:01.511Z</time></trkpt><trkpt lat="39.064715" lon="16.78291"><ele>509.6</ele><time>2026-04-19T09:35:02.511Z</time></trkpt><trkpt lat="39.064615" lon="16.78297"><ele>508.40000000000003</ele><time>2026-04-19T09:35:03.511Z</time></trkpt><trkpt lat="39.0645267" lon="16.7830717"><ele>507.20000000000005</ele><time>2026-04-19T09:35:04.511Z</time></trkpt><trkpt lat="39.0644517" lon="16.78316"><ele>506.0</ele><time>2026-04-19T09:35:05.511Z</time></trkpt><trkpt lat="39.0643683" lon="16.78318"><ele>506.0</ele><time>2026-04-19T09:35:06.511Z</time></trkpt><trkpt lat="39.0642683" lon="16.7831367"><ele>506.0</ele><time>2026-04-19T09:35:07.511Z</time></trkpt><trkpt lat="39.0641733" lon="16.7830383"><ele>506.0</ele><time>2026-04-19T09:35:08.511Z</time></trkpt><trkpt lat="39.0641" lon="16.7829067"><ele>506.0</ele><time>2026-04-19T09:35:09.511Z</time></trkpt><trkpt lat="39.0640517" lon="16.7827617"><ele>511.0</ele><time>2026-04-19T09:35:10.511Z</time></trkpt><trkpt lat="39.0640183" lon="16.78261"><ele>516.0</ele><time>2026-04-19T09:35:11.511Z</time></trkpt><trkpt lat="39.0639733" lon="16.782485"><ele>521.0</ele><time>2026-04-19T09:35:12.512Z</time></trkpt><trkpt lat="39.06392" lon="16.782395"><ele>526.0</ele><time>2026-04-19T09:35:13.511Z</time></trkpt><trkpt lat="39.063835" lon="16.78234"><ele>531.0</ele><time>2026-04-19T09:35:14.512Z</time></trkpt><trkpt lat="39.0637433" lon="16.7823233"><ele>531.0</ele><time>2026-04-19T09:35:15.511Z</time></trkpt><trkpt lat="39.0636483" lon="16.7823233"><ele>531.0</ele><time>2026-04-19T09:35:16.511Z</time></trkpt><trkpt lat="39.063555" lon="16.7823667"><ele>531.0</ele><time>2026-04-19T09:35:17.511Z</time></trkpt><trkpt lat="39.0634617" lon="16.7824617"><ele>531.0</ele><time>2026-04-19T09:35:18.511Z</time></trkpt><trkpt lat="39.06337" lon="16.782565"><ele>531.0</ele><time>2026-04-19T09:35:19.511Z</time></trkpt><trkpt lat="39.0632517" lon="16.78258"><ele>527.75</ele><time>2026-04-19T09:35:20.511Z</time></trkpt><trkpt lat="39.0631417" lon="16.782575"><ele>524.5</ele><time>2026-04-19T09:35:21.511Z</time></trkpt><trkpt lat="39.0630183" lon="16.7825817"><ele>521.25</ele><time>2026-04-19T09:35:22.511Z</time></trkpt><trkpt lat="39.0629083" lon="16.7825633"><ele>518.0</ele><time>2026-04-19T09:35:23.511Z</time></trkpt><trkpt lat="39.0627967" lon="16.7825483"><ele>518.0</ele><time>2026-04-19T09:35:24.511Z</time></trkpt><trkpt lat="39.062695" lon="16.7825283"><ele>518.0</ele><time>2026-04-19T09:35:25.512Z</time></trkpt><trkpt lat="39.0626233" lon="16.78243"><ele>518.0</ele><time>2026-04-19T09:35:26.511Z</time></trkpt><trkpt lat="39.0625867" lon="16.7823083"><ele>518.0</ele><time>2026-04-19T09:35:27.511Z</time></trkpt><trkpt lat="39.0625783" lon="16.7821867"><ele>518.0</ele><time>2026-04-19T09:35:28.511Z</time></trkpt><trkpt lat="39.0625583" lon="16.7820633"><ele>518.0</ele><time>2026-04-19T09:35:29.511Z</time></trkpt><trkpt lat="39.0625267" lon="16.7819667"><ele>518.0</ele><time>2026-04-19T09:35:30.511Z</time></trkpt><trkpt lat="39.0624633" lon="16.7819083"><ele>518.0</ele><time>2026-04-19T09:35:31.511Z</time></trkpt><trkpt lat="39.0623733" lon="16.7818817"><ele>518.0</ele><time>2026-04-19T09:35:32.511Z</time></trkpt><trkpt lat="39.0622617" lon="16.7818767"><ele>518.0</ele><time>2026-04-19T09:35:33.511Z</time></trkpt><trkpt lat="39.0621267" lon="16.7819133"><ele>516.75</ele><time>2026-04-19T09:35:34.512Z</time></trkpt><trkpt lat="39.06199" lon="16.7819217"><ele>515.5</ele><time>2026-04-19T09:35:35.511Z</time></trkpt><trkpt lat="39.0618583" lon="16.78189"><ele>514.25</ele><time>2026-04-19T09:35:36.512Z</time></trkpt><trkpt lat="39.0617267" lon="16.781835"><ele>513.0</ele><time>2026-04-19T09:35:37.511Z</time></trkpt><trkpt lat="39.0616" lon="16.7817633"><ele>513.0</ele><time>2026-04-19T09:35:38.511Z</time></trkpt><trkpt lat="39.0614733" lon="16.7816317"><ele>513.0</ele><time>2026-04-19T09:35:39.511Z</time></trkpt><trkpt lat="39.0613533" lon="16.7815667"><ele>513.0</ele><time>2026-04-19T09:35:40.511Z</time></trkpt><trkpt lat="39.0612383" lon="16.781535"><ele>513.0</ele><time>2026-04-19T09:35:41.511Z</time></trkpt><trkpt lat="39.0611383" lon="16.7815183"><ele>513.0</ele><time>2026-04-19T09:35:42.512Z</time></trkpt><trkpt lat="39.0610533" lon="16.7814717"><ele>513.0</ele><time>2026-04-19T09:35:43.512Z</time></trkpt><trkpt lat="39.0609917" lon="16.7814"><ele>513.0</ele><time>2026-04-19T09:35:44.512Z</time></trkpt><trkpt lat="39.0609717" lon="16.7813117"><ele>513.0</ele><time>2026-04-19T09:35:45.511Z</time></trkpt><trkpt lat="39.0609567" lon="16.7812183"><ele>513.0</ele><time>2026-04-19T09:35:46.511Z</time></trkpt><trkpt lat="39.0609317" lon="16.7811267"><ele>513.0</ele><time>2026-04-19T09:35:47.511Z</time></trkpt><trkpt lat="39.06088" lon="16.7810567"><ele>511.79999999999995</ele><time>2026-04-19T09:35:48.511Z</time></trkpt><trkpt lat="39.0608033" lon="16.78101"><ele>510.59999999999997</ele><time>2026-04-19T09:35:49.511Z</time></trkpt><trkpt lat="39.0607183" lon="16.7809967"><ele>509.40000000000003</ele><time>2026-04-19T09:35:50.511Z</time></trkpt><trkpt lat="39.0606183" lon="16.7810183"><ele>508.20000000000005</ele><time>2026-04-19T09:35:51.511Z</time></trkpt><trkpt lat="39.06051" lon="16.78109"><ele>507.0</ele><time>2026-04-19T09:35:52.511Z</time></trkpt><trkpt lat="39.0603917" lon="16.7811717"><ele>507.0</ele><time>2026-04-19T09:35:53.511Z</time></trkpt><trkpt lat="39.06028" lon="16.78119"><ele>507.0</ele><time>2026-04-19T09:35:54.511Z</time></trkpt><trkpt lat="39.060165" lon="16.7811733"><ele>507.0</ele><time>2026-04-19T09:35:55.511Z</time></trkpt><trkpt lat="39.0600533" lon="16.78112"><ele>507.0</ele><time>2026-04-19T09:35:56.511Z</time></trkpt><trkpt lat="39.059945" lon="16.7810317"><ele>509.75</ele><time>2026-04-19T09:35:57.511Z</time></trkpt><trkpt lat="39.0598483" lon="16.7809417"><ele>512.5</ele><time>2026-04-19T09:35:58.511Z</time></trkpt><trkpt lat="39.0597517" lon="16.780835"><ele>515.25</ele><time>2026-04-19T09:35:59.512Z</time></trkpt><trkpt lat="39.0596533" lon="16.78075"><ele>518.0</ele><time>2026-04-19T09:36:00.511Z</time></trkpt><trkpt lat="39.0595483" lon="16.7807117"><ele>518.0</ele><time>2026-04-19T09:36:01.511Z</time></trkpt><trkpt lat="39.059445" lon="16.7807167"><ele>518.0</ele><time>2026-04-19T09:36:02.512Z</time></trkpt><trkpt lat="39.059335" lon="16.78074"><ele>518.0</ele><time>2026-04-19T09:36:03.511Z</time></trkpt><trkpt lat="39.0592283" lon="16.7807283"><ele>518.0</ele><time>2026-04-19T09:36:04.512Z</time></trkpt><trkpt lat="39.0591417" lon="16.7806833"><ele>518.0</ele><time>2026-04-19T09:36:05.511Z</time></trkpt><trkpt lat="39.0590817" lon="16.7805767"><ele>513.6</ele><time>2026-04-19T09:36:06.511Z</time></trkpt><trkpt lat="39.05902" lon="16.7804883"><ele>509.19999999999993</ele><time>2026-04-19T09:36:07.511Z</time></trkpt><trkpt lat="39.0589367" lon="16.7804233"><ele>504.8</ele><time>2026-04-19T09:36:08.511Z</time></trkpt><trkpt lat="39.0588333" lon="16.7804"><ele>500.4</ele><time>2026-04-19T09:36:09.512Z</time></trkpt><trkpt lat="39.058745" lon="16.7803133"><ele>496.0</ele><time>2026-04-19T09:36:10.511Z</time></trkpt><trkpt lat="39.058685" lon="16.7801983"><ele>502.4</ele><time>2026-04-19T09:36:11.512Z</time></trkpt><trkpt lat="39.0586583" lon="16.780055"><ele>508.8</ele><time>2026-04-19T09:36:12.512Z</time></trkpt><trkpt lat="39.0586383" lon="16.77991"><ele>515.1999999999999</ele><time>2026-04-19T09:36:13.512Z</time></trkpt><trkpt lat="39.0586033" lon="16.779775"><ele>521.6</ele><time>2026-04-19T09:36:14.511Z</time></trkpt><trkpt lat="39.05854" lon="16.77968"><ele>528.0</ele><time>2026-04-19T09:36:15.512Z</time></trkpt><trkpt lat="39.05846" lon="16.7796333"><ele>528.0</ele><time>2026-04-19T09:36:16.511Z</time></trkpt><trkpt lat="39.0583683" lon="16.7796233"><ele>528.0</ele><time>2026-04-19T09:36:17.512Z</time></trkpt><trkpt lat="39.05825" lon="16.7796483"><ele>528.0</ele><time>2026-04-19T09:36:18.511Z</time></trkpt><trkpt lat="39.058135" lon="16.77972"><ele>528.0</ele><time>2026-04-19T09:36:19.511Z</time></trkpt><trkpt lat="39.0580117" lon="16.77983"><ele>522.4</ele><time>2026-04-19T09:36:20.511Z</time></trkpt><trkpt lat="39.0579033" lon="16.77989"><ele>516.8</ele><time>2026-04-19T09:36:21.511Z</time></trkpt><trkpt lat="39.057815" lon="16.7799133"><ele>511.2</ele><time>2026-04-19T09:36:22.512Z</time></trkpt><trkpt lat="39.05774" lon="16.7798483"><ele>505.6</ele><time>2026-04-19T09:36:23.512Z</time></trkpt><trkpt lat="39.0576717" lon="16.7797517"><ele>500.0</ele><time>2026-04-19T09:36:24.511Z</time></trkpt><trkpt lat="39.0576317" lon="16.7795867"><ele>500.0</ele><time>2026-04-19T09:36:25.512Z</time></trkpt><trkpt lat="39.0576017" lon="16.7794183"><ele>500.0</ele><time>2026-04-19T09:36:26.512Z</time></trkpt><trkpt lat="39.0576033" lon="16.7791917"><ele>500.0</ele><time>2026-04-19T09:36:27.512Z</time></trkpt><trkpt lat="39.0575933" lon="16.779"><ele>503.75</ele><time>2026-04-19T09:36:28.512Z</time></trkpt><trkpt lat="39.0575883" lon="16.7788283"><ele>507.5</ele><time>2026-04-19T09:36:29.511Z</time></trkpt><trkpt lat="39.0575733" lon="16.7786733"><ele>511.25</ele><time>2026-04-19T09:36:30.511Z</time></trkpt><trkpt lat="39.0575367" lon="16.7785333"><ele>515.0</ele><time>2026-04-19T09:36:31.511Z</time></trkpt><trkpt lat="39.0574683" lon="16.7783883"><ele>507.6</ele><time>2026-04-19T09:36:32.511Z</time></trkpt><trkpt lat="39.057425" lon="16.77826"><ele>500.2</ele><time>2026-04-19T09:36:33.511Z</time></trkpt><trkpt lat="39.057415" lon="16.7781317"><ele>492.79999999999995</ele><time>2026-04-19T09:36:34.512Z</time></trkpt><trkpt lat="39.05742" lon="16.777985"><ele>485.4</ele><time>2026-04-19T09:36:35.511Z</time></trkpt><trkpt lat="39.0574117" lon="16.77784"><ele>478.0</ele><time>2026-04-19T09:36:36.511Z</time></trkpt><trkpt lat="39.0573783" lon="16.7776933"><ele>482.79999999999995</ele><time>2026-04-19T09:36:37.511Z</time></trkpt><trkpt lat="39.057315" lon="16.7775667"><ele>487.59999999999997</ele><time>2026-04-19T09:36:38.511Z</time></trkpt><trkpt lat="39.0572167" lon="16.7774917"><ele>492.40000000000003</ele><time>2026-04-19T09:36:39.511Z</time></trkpt><trkpt lat="39.0571317" lon="16.7774067"><ele>497.20000000000005</ele><time>2026-04-19T09:36:40.511Z</time></trkpt><trkpt lat="39.0570617" lon="16.7773117"><ele>502.0</ele><time>2026-04-19T09:36:41.511Z</time></trkpt><trkpt lat="39.057015" lon="16.7771783"><ele>502.0</ele><time>2026-04-19T09:36:42.511Z</time></trkpt><trkpt lat="39.05698" lon="16.7770283"><ele>502.0</ele><time>2026-04-19T09:36:43.511Z</time></trkpt><trkpt lat="39.056955" lon="16.7768833"><ele>502.0</ele><time>2026-04-19T09:36:44.511Z</time></trkpt><trkpt lat="39.0569433" lon="16.7767317"><ele>502.0</ele><time>2026-04-19T09:36:45.511Z</time></trkpt><trkpt lat="39.0569417" lon="16.7765983"><ele>504.6</ele><time>2026-04-19T09:36:46.512Z</time></trkpt><trkpt lat="39.056915" lon="16.7764717"><ele>507.20000000000005</ele><time>2026-04-19T09:36:47.511Z</time></trkpt><trkpt lat="39.05686" lon="16.7763717"><ele>509.8</ele><time>2026-04-19T09:36:48.511Z</time></trkpt><trkpt lat="39.0567767" lon="16.776265"><ele>512.4</ele><time>2026-04-19T09:36:49.511Z</time></trkpt><trkpt lat="39.056695" lon="16.776165"><ele>515.0</ele><time>2026-04-19T09:36:50.511Z</time></trkpt><trkpt lat="39.056615" lon="16.776045"><ele>506.0</ele><time>2026-04-19T09:36:51.511Z</time></trkpt><trkpt lat="39.0565433" lon="16.7758967"><ele>497.0</ele><time>2026-04-19T09:36:52.511Z</time></trkpt><trkpt lat="39.056495" lon="16.77574"><ele>488.0</ele><time>2026-04-19T09:36:53.511Z</time></trkpt><trkpt lat="39.056455" lon="16.7755767"><ele>479.0</ele><time>2026-04-19T09:36:54.511Z</time></trkpt><trkpt lat="39.0564333" lon="16.7754017"><ele>479.0</ele><time>2026-04-19T09:36:55.511Z</time></trkpt><trkpt lat="39.0564283" lon="16.7752333"><ele>479.0</ele><time>2026-04-19T09:36:56.511Z</time></trkpt><trkpt lat="39.0564417" lon="16.7750717"><ele>479.0</ele><time>2026-04-19T09:36:57.511Z</time></trkpt><trkpt lat="39.0564767" lon="16.774925"><ele>479.0</ele><time>2026-04-19T09:36:58.511Z</time></trkpt><trkpt lat="39.05652" lon="16.7747767"><ele>483.25</ele><time>2026-04-19T09:36:59.511Z</time></trkpt><trkpt lat="39.0565617" lon="16.7746317"><ele>487.5</ele><time>2026-04-19T09:37:00.511Z</time></trkpt><trkpt lat="39.0565783" lon="16.774485"><ele>491.75</ele><time>2026-04-19T09:37:01.511Z</time></trkpt><trkpt lat="39.0565917" lon="16.7743367"><ele>496.0</ele><time>2026-04-19T09:37:02.511Z</time></trkpt><trkpt lat="39.05662" lon="16.7741967"><ele>503.6</ele><time>2026-04-19T09:37:03.511Z</time></trkpt><trkpt lat="39.0566617" lon="16.7740733"><ele>511.20000000000005</ele><time>2026-04-19T09:37:04.511Z</time></trkpt><trkpt lat="39.05671" lon="16.773955"><ele>518.8</ele><time>2026-04-19T09:37:05.511Z</time></trkpt><trkpt lat="39.0567483" lon="16.7738433"><ele>526.4</ele><time>2026-04-19T09:37:06.512Z</time></trkpt><trkpt lat="39.0567733" lon="16.7737417"><ele>534.0</ele><time>2026-04-19T09:37:07.511Z</time></trkpt><trkpt lat="39.0567683" lon="16.7736333"><ele>534.0</ele><time>2026-04-19T09:37:08.511Z</time></trkpt><trkpt lat="39.056755" lon="16.77353"><ele>534.0</ele><time>2026-04-19T09:37:09.512Z</time></trkpt><trkpt lat="39.056745" lon="16.7734483"><ele>534.0</ele><time>2026-04-19T09:37:10.511Z</time></trkpt><trkpt lat="39.0567017" lon="16.7733667"><ele>534.0</ele><time>2026-04-19T09:37:11.511Z</time></trkpt><trkpt lat="39.0566467" lon="16.7732933"><ele>534.0</ele><time>2026-04-19T09:37:12.511Z</time></trkpt><trkpt lat="39.0565667" lon="16.7732567"><ele>534.0</ele><time>2026-04-19T09:37:13.512Z</time></trkpt><trkpt lat="39.0564667" lon="16.77326"><ele>535.0</ele><time>2026-04-19T09:37:14.511Z</time></trkpt><trkpt lat="39.05635" lon="16.7733017"><ele>536.0</ele><time>2026-04-19T09:37:15.511Z</time></trkpt><trkpt lat="39.0562133" lon="16.7734183"><ele>537.0</ele><time>2026-04-19T09:37:16.511Z</time></trkpt><trkpt lat="39.0560867" lon="16.7736267"><ele>530.25</ele><time>2026-04-19T09:37:17.512Z</time></trkpt><trkpt lat="39.05596" lon="16.7737783"><ele>523.5</ele><time>2026-04-19T09:37:18.511Z</time></trkpt><trkpt lat="39.055845" lon="16.773865"><ele>516.75</ele><time>2026-04-19T09:37:19.511Z</time></trkpt><trkpt lat="39.055745" lon="16.7739217"><ele>510.0</ele><time>2026-04-19T09:37:20.511Z</time></trkpt><trkpt lat="39.055675" lon="16.7738967"><ele>509.25</ele><time>2026-04-19T09:37:21.511Z</time></trkpt><trkpt lat="39.05561" lon="16.7738233"><ele>508.5</ele><time>2026-04-19T09:37:22.51Z</time></trkpt><trkpt lat="39.0555317" lon="16.7736983"><ele>507.75</ele><time>2026-04-19T09:37:23.511Z</time></trkpt><trkpt lat="39.0554583" lon="16.7735283"><ele>507.0</ele><time>2026-04-19T09:37:24.512Z</time></trkpt><trkpt lat="39.055375" lon="16.773385"><ele>507.0</ele><time>2026-04-19T09:37:25.511Z</time></trkpt><trkpt lat="39.0552983" lon="16.773285"><ele>507.00000000000006</ele><time>2026-04-19T09:37:26.511Z</time></trkpt><trkpt lat="39.0552383" lon="16.7732167"><ele>507.00000000000006</ele><time>2026-04-19T09:37:27.512Z</time></trkpt><trkpt lat="39.0551583" lon="16.7731467"><ele>507.0</ele><time>2026-04-19T09:37:29.511Z</time></trkpt><trkpt lat="39.0551033" lon="16.7730917"><ele>507.0</ele><time>2026-04-19T09:37:31.511Z</time></trkpt><trkpt lat="39.0550883" lon="16.7729483"><ele>507.0</ele><time>2026-04-19T09:37:33.511Z</time></trkpt><trkpt lat="39.0550983" lon="16.7728483"><ele>507.00000000000006</ele><time>2026-04-19T09:37:34.511Z</time></trkpt><trkpt lat="39.0551217" lon="16.7727433"><ele>507.00000000000006</ele><time>2026-04-19T09:37:35.511Z</time></trkpt><trkpt lat="39.0551667" lon="16.7726333"><ele>507.0</ele><time>2026-04-19T09:37:36.511Z</time></trkpt><trkpt lat="39.05521" lon="16.772515"><ele>507.0</ele><time>2026-04-19T09:37:37.511Z</time></trkpt><trkpt lat="39.0552367" lon="16.772365"><ele>509.0</ele><time>2026-04-19T09:37:38.511Z</time></trkpt><trkpt lat="39.0552367" lon="16.7722133"><ele>511.0</ele><time>2026-04-19T09:37:39.511Z</time></trkpt><trkpt lat="39.0552233" lon="16.77206"><ele>513.0</ele><time>2026-04-19T09:37:40.511Z</time></trkpt><trkpt lat="39.0551983" lon="16.7719117"><ele>515.0</ele><time>2026-04-19T09:37:41.511Z</time></trkpt><trkpt lat="39.0551633" lon="16.7717767"><ele>518.0</ele><time>2026-04-19T09:37:42.511Z</time></trkpt><trkpt lat="39.0550867" lon="16.7716367"><ele>521.0</ele><time>2026-04-19T09:37:43.511Z</time></trkpt><trkpt lat="39.05499" lon="16.771515"><ele>524.0</ele><time>2026-04-19T09:37:44.511Z</time></trkpt><trkpt lat="39.0549" lon="16.7714"><ele>527.0</ele><time>2026-04-19T09:37:45.512Z</time></trkpt><trkpt lat="39.0548" lon="16.7712783"><ele>522.5</ele><time>2026-04-19T09:37:46.512Z</time></trkpt><trkpt lat="39.054715" lon="16.7711717"><ele>518.0</ele><time>2026-04-19T09:37:47.511Z</time></trkpt><trkpt lat="39.054645" lon="16.7710517"><ele>513.5</ele><time>2026-04-19T09:37:48.512Z</time></trkpt><trkpt lat="39.0545833" lon="16.7709017"><ele>509.0</ele><time>2026-04-19T09:37:49.511Z</time></trkpt><trkpt lat="39.05454" lon="16.770745"><ele>509.0</ele><time>2026-04-19T09:37:50.511Z</time></trkpt><trkpt lat="39.0544967" lon="16.7705867"><ele>509.0</ele><time>2026-04-19T09:37:51.511Z</time></trkpt><trkpt lat="39.0544417" lon="16.7704433"><ele>509.0</ele><time>2026-04-19T09:37:52.511Z</time></trkpt><trkpt lat="39.0543767" lon="16.7703167"><ele>509.0</ele><time>2026-04-19T09:37:53.511Z</time></trkpt><trkpt lat="39.0542817" lon="16.7702267"><ele>510.6</ele><time>2026-04-19T09:37:54.511Z</time></trkpt><trkpt lat="39.0541783" lon="16.7701867"><ele>512.2</ele><time>2026-04-19T09:37:55.512Z</time></trkpt><trkpt lat="39.0540667" lon="16.77021"><ele>513.8000000000001</ele><time>2026-04-19T09:37:56.511Z</time></trkpt><trkpt lat="39.0539583" lon="16.77026"><ele>515.4</ele><time>2026-04-19T09:37:57.512Z</time></trkpt><trkpt lat="39.0538583" lon="16.770325"><ele>517.0</ele><time>2026-04-19T09:37:58.511Z</time></trkpt><trkpt lat="39.0537883" lon="16.7704"><ele>520.6</ele><time>2026-04-19T09:37:59.512Z</time></trkpt><trkpt lat="39.0537417" lon="16.770505"><ele>524.2</ele><time>2026-04-19T09:38:00.511Z</time></trkpt><trkpt lat="39.0537083" lon="16.7706217"><ele>527.8</ele><time>2026-04-19T09:38:01.511Z</time></trkpt><trkpt lat="39.0536817" lon="16.77075"><ele>531.4</ele><time>2026-04-19T09:38:02.511Z</time></trkpt><trkpt lat="39.0536483" lon="16.7709"><ele>535.0</ele><time>2026-04-19T09:38:03.511Z</time></trkpt><trkpt lat="39.0536167" lon="16.7710633"><ele>535.25</ele><time>2026-04-19T09:38:04.512Z</time></trkpt><trkpt lat="39.05361" lon="16.7712367"><ele>535.5</ele><time>2026-04-19T09:38:05.511Z</time></trkpt><trkpt lat="39.0536167" lon="16.771415"><ele>535.75</ele><time>2026-04-19T09:38:06.512Z</time></trkpt><trkpt lat="39.0536317" lon="16.771595"><ele>536.0</ele><time>2026-04-19T09:38:07.511Z</time></trkpt><trkpt lat="39.05363" lon="16.77176"><ele>534.0</ele><time>2026-04-19T09:38:08.511Z</time></trkpt><trkpt lat="39.0536333" lon="16.7719183"><ele>532.0</ele><time>2026-04-19T09:38:09.512Z</time></trkpt><trkpt lat="39.0536217" lon="16.7720717"><ele>530.0</ele><time>2026-04-19T09:38:10.511Z</time></trkpt><trkpt lat="39.0535817" lon="16.7722033"><ele>528.0</ele><time>2026-04-19T09:38:11.511Z</time></trkpt><trkpt lat="39.05353" lon="16.7723283"><ele>528.0</ele><time>2026-04-19T09:38:12.511Z</time></trkpt><trkpt lat="39.0534433" lon="16.7724317"><ele>528.0</ele><time>2026-04-19T09:38:13.511Z</time></trkpt><trkpt lat="39.053345" lon="16.77253"><ele>528.0</ele><time>2026-04-19T09:38:14.512Z</time></trkpt><trkpt lat="39.05325" lon="16.7726317"><ele>528.0</ele><time>2026-04-19T09:38:15.511Z</time></trkpt><trkpt lat="39.053155" lon="16.7727533"><ele>533.8</ele><time>2026-04-19T09:38:16.511Z</time></trkpt><trkpt lat="39.053065" lon="16.7728683"><ele>539.5999999999999</ele><time>2026-04-19T09:38:17.511Z</time></trkpt><trkpt lat="39.0529983" lon="16.772965"><ele>545.4000000000001</ele><time>2026-04-19T09:38:18.511Z</time></trkpt><trkpt lat="39.05294" lon="16.7730617"><ele>551.2</ele><time>2026-04-19T09:38:19.511Z</time></trkpt><trkpt lat="39.0528683" lon="16.773135"><ele>557.0</ele><time>2026-04-19T09:38:20.512Z</time></trkpt><trkpt lat="39.052775" lon="16.7731917"><ele>557.0</ele><time>2026-04-19T09:38:21.511Z</time></trkpt><trkpt lat="39.0527033" lon="16.773255"><ele>557.0</ele><time>2026-04-19T09:38:22.511Z</time></trkpt><trkpt lat="39.0526517" lon="16.7733317"><ele>557.0</ele><time>2026-04-19T09:38:23.511Z</time></trkpt><trkpt lat="39.052625" lon="16.77342"><ele>557.0</ele><time>2026-04-19T09:38:24.511Z</time></trkpt><trkpt lat="39.0526117" lon="16.7735183"><ele>557.0</ele><time>2026-04-19T09:38:25.512Z</time></trkpt><trkpt lat="39.052625" lon="16.773655"><ele>557.0</ele><time>2026-04-19T09:38:26.511Z</time></trkpt><trkpt lat="39.0526417" lon="16.773805"><ele>555.6</ele><time>2026-04-19T09:38:27.512Z</time></trkpt><trkpt lat="39.05263" lon="16.7739533"><ele>554.2</ele><time>2026-04-19T09:38:28.511Z</time></trkpt><trkpt lat="39.0526183" lon="16.77411"><ele>552.8</ele><time>2026-04-19T09:38:29.511Z</time></trkpt><trkpt lat="39.0526167" lon="16.7742567"><ele>551.4</ele><time>2026-04-19T09:38:30.511Z</time></trkpt><trkpt lat="39.05259" lon="16.774375"><ele>550.0</ele><time>2026-04-19T09:38:31.511Z</time></trkpt><trkpt lat="39.052525" lon="16.7744733"><ele>552.8</ele><time>2026-04-19T09:38:32.512Z</time></trkpt><trkpt lat="39.0524633" lon="16.7745833"><ele>555.6</ele><time>2026-04-19T09:38:33.511Z</time></trkpt><trkpt lat="39.0524033" lon="16.7746917"><ele>558.4</ele><time>2026-04-19T09:38:34.511Z</time></trkpt><trkpt lat="39.0523667" lon="16.7747967"><ele>561.2</ele><time>2026-04-19T09:38:35.511Z</time></trkpt><trkpt lat="39.05231" lon="16.7748733"><ele>564.0</ele><time>2026-04-19T09:38:36.511Z</time></trkpt><trkpt lat="39.0522183" lon="16.7749133"><ele>564.0</ele><time>2026-04-19T09:38:37.512Z</time></trkpt><trkpt lat="39.052105" lon="16.774925"><ele>564.0</ele><time>2026-04-19T09:38:38.511Z</time></trkpt><trkpt lat="39.052" lon="16.774935"><ele>564.0</ele><time>2026-04-19T09:38:39.511Z</time></trkpt><trkpt lat="39.0518967" lon="16.7749383"><ele>564.0</ele><time>2026-04-19T09:38:40.512Z</time></trkpt><trkpt lat="39.0518133" lon="16.77499"><ele>564.0</ele><time>2026-04-19T09:38:41.512Z</time></trkpt><trkpt lat="39.0517417" lon="16.7750433"><ele>564.0</ele><time>2026-04-19T09:38:42.511Z</time></trkpt><trkpt lat="39.0516917" lon="16.7751317"><ele>564.0</ele><time>2026-04-19T09:38:43.511Z</time></trkpt><trkpt lat="39.05164" lon="16.7751983"><ele>564.0</ele><time>2026-04-19T09:38:44.511Z</time></trkpt><trkpt lat="39.05166" lon="16.7753267"><ele>564.0</ele><time>2026-04-19T09:38:45.511Z</time></trkpt><trkpt lat="39.051735" lon="16.775465"><ele>564.0</ele><time>2026-04-19T09:38:46.511Z</time></trkpt><trkpt lat="39.051815" lon="16.7755883"><ele>567.0</ele><time>2026-04-19T09:38:47.511Z</time></trkpt><trkpt lat="39.0518483" lon="16.7757183"><ele>570.0</ele><time>2026-04-19T09:38:48.511Z</time></trkpt><trkpt lat="39.051905" lon="16.7758317"><ele>573.0</ele><time>2026-04-19T09:38:49.512Z</time></trkpt><trkpt lat="39.0520267" lon="16.7759183"><ele>576.0</ele><time>2026-04-19T09:38:50.511Z</time></trkpt><trkpt lat="39.0521867" lon="16.775955"><ele>576.0</ele><time>2026-04-19T09:38:51.511Z</time></trkpt><trkpt lat="39.0523333" lon="16.7760017"><ele>576.0</ele><time>2026-04-19T09:38:52.511Z</time></trkpt><trkpt lat="39.0524767" lon="16.7760583"><ele>576.0</ele><time>2026-04-19T09:38:53.511Z</time></trkpt><trkpt lat="39.05262" lon="16.77612"><ele>575.25</ele><time>2026-04-19T09:38:54.511Z</time></trkpt><trkpt lat="39.052755" lon="16.7761783"><ele>574.5</ele><time>2026-04-19T09:38:55.511Z</time></trkpt><trkpt lat="39.0528733" lon="16.776245"><ele>573.75</ele><time>2026-04-19T09:38:56.511Z</time></trkpt><trkpt lat="39.0529733" lon="16.7763133"><ele>573.0</ele><time>2026-04-19T09:38:57.511Z</time></trkpt><trkpt lat="39.05306" lon="16.7764"><ele>573.0</ele><time>2026-04-19T09:38:58.511Z</time></trkpt><trkpt lat="39.0531367" lon="16.776495"><ele>573.0</ele><time>2026-04-19T09:38:59.512Z</time></trkpt><trkpt lat="39.053185" lon="16.7766333"><ele>573.0</ele><time>2026-04-19T09:39:00.511Z</time></trkpt><trkpt lat="39.0532083" lon="16.7767833"><ele>573.0</ele><time>2026-04-19T09:39:01.511Z</time></trkpt><trkpt lat="39.0532283" lon="16.776925"><ele>573.4</ele><time>2026-04-19T09:39:02.512Z</time></trkpt><trkpt lat="39.053235" lon="16.77706"><ele>573.8</ele><time>2026-04-19T09:39:03.511Z</time></trkpt><trkpt lat="39.0532317" lon="16.7771883"><ele>574.2</ele><time>2026-04-19T09:39:04.511Z</time></trkpt><trkpt lat="39.05318" lon="16.7773033"><ele>574.6</ele><time>2026-04-19T09:39:05.511Z</time></trkpt><trkpt lat="39.0531" lon="16.7773933"><ele>575.0</ele><time>2026-04-19T09:39:06.512Z</time></trkpt><trkpt lat="39.0529967" lon="16.777475"><ele>575.0</ele><time>2026-04-19T09:39:07.511Z</time></trkpt><trkpt lat="39.052895" lon="16.7775517"><ele>575.0</ele><time>2026-04-19T09:39:08.511Z</time></trkpt><trkpt lat="39.0527967" lon="16.7776367"><ele>575.0</ele><time>2026-04-19T09:39:09.512Z</time></trkpt><trkpt lat="39.05271" lon="16.7777367"><ele>575.0</ele><time>2026-04-19T09:39:10.512Z</time></trkpt><trkpt lat="39.0526467" lon="16.777855"><ele>571.5</ele><time>2026-04-19T09:39:11.511Z</time></trkpt><trkpt lat="39.05259" lon="16.7780033"><ele>568.0</ele><time>2026-04-19T09:39:12.512Z</time></trkpt><trkpt lat="39.0525617" lon="16.7781683"><ele>564.5</ele><time>2026-04-19T09:39:13.511Z</time></trkpt><trkpt lat="39.0525467" lon="16.7783317"><ele>561.0</ele><time>2026-04-19T09:39:14.512Z</time></trkpt><trkpt lat="39.0525267" lon="16.778495"><ele>559.25</ele><time>2026-04-19T09:39:15.512Z</time></trkpt><trkpt lat="39.0525333" lon="16.778655"><ele>557.5</ele><time>2026-04-19T09:39:16.511Z</time></trkpt><trkpt lat="39.052525" lon="16.77881"><ele>555.75</ele><time>2026-04-19T09:39:17.512Z</time></trkpt><trkpt lat="39.0525033" lon="16.7789617"><ele>554.0</ele><time>2026-04-19T09:39:18.511Z</time></trkpt><trkpt lat="39.0524667" lon="16.7791017"><ele>551.0</ele><time>2026-04-19T09:39:19.511Z</time></trkpt><trkpt lat="39.052395" lon="16.7792317"><ele>548.0</ele><time>2026-04-19T09:39:20.511Z</time></trkpt><trkpt lat="39.0523067" lon="16.779345"><ele>545.0</ele><time>2026-04-19T09:39:21.511Z</time></trkpt><trkpt lat="39.0521933" lon="16.7794517"><ele>542.0</ele><time>2026-04-19T09:39:22.511Z</time></trkpt><trkpt lat="39.0520917" lon="16.7795433"><ele>542.0</ele><time>2026-04-19T09:39:23.511Z</time></trkpt><trkpt lat="39.0519883" lon="16.7796067"><ele>542.0</ele><time>2026-04-19T09:39:24.511Z</time></trkpt><trkpt lat="39.051875" lon="16.779625"><ele>542.0</ele><time>2026-04-19T09:39:25.511Z</time></trkpt><trkpt lat="39.051755" lon="16.7795917"><ele>542.0</ele><time>2026-04-19T09:39:26.511Z</time></trkpt><trkpt lat="39.0516433" lon="16.779525"><ele>542.75</ele><time>2026-04-19T09:39:27.511Z</time></trkpt><trkpt lat="39.0515233" lon="16.7794733"><ele>543.5</ele><time>2026-04-19T09:39:28.511Z</time></trkpt><trkpt lat="39.0513883" lon="16.7794567"><ele>544.25</ele><time>2026-04-19T09:39:29.512Z</time></trkpt><trkpt lat="39.0512633" lon="16.7794467"><ele>545.0</ele><time>2026-04-19T09:39:30.511Z</time></trkpt><trkpt lat="39.0511367" lon="16.77947"><ele>545.0</ele><time>2026-04-19T09:39:31.511Z</time></trkpt><trkpt lat="39.05101" lon="16.7795117"><ele>545.0</ele><time>2026-04-19T09:39:32.511Z</time></trkpt><trkpt lat="39.0508983" lon="16.779535"><ele>545.0</ele><time>2026-04-19T09:39:33.511Z</time></trkpt><trkpt lat="39.0508" lon="16.7795367"><ele>545.0</ele><time>2026-04-19T09:39:34.511Z</time></trkpt><trkpt lat="39.0507167" lon="16.77951"><ele>545.0</ele><time>2026-04-19T09:39:35.511Z</time></trkpt><trkpt lat="39.05066" lon="16.7794367"><ele>546.6</ele><time>2026-04-19T09:39:36.511Z</time></trkpt><trkpt lat="39.0506067" lon="16.77933"><ele>548.2</ele><time>2026-04-19T09:39:37.512Z</time></trkpt><trkpt lat="39.0505433" lon="16.779235"><ele>549.8</ele><time>2026-04-19T09:39:38.511Z</time></trkpt><trkpt lat="39.0504483" lon="16.77918"><ele>551.4</ele><time>2026-04-19T09:39:39.512Z</time></trkpt><trkpt lat="39.0503533" lon="16.7791017"><ele>553.0</ele><time>2026-04-19T09:39:40.512Z</time></trkpt><trkpt lat="39.0502767" lon="16.778985"><ele>553.0</ele><time>2026-04-19T09:39:41.511Z</time></trkpt><trkpt lat="39.0502067" lon="16.77885"><ele>553.0</ele><time>2026-04-19T09:39:42.511Z</time></trkpt><trkpt lat="39.0501383" lon="16.7787217"><ele>553.0</ele><time>2026-04-19T09:39:43.511Z</time></trkpt><trkpt lat="39.050075" lon="16.77859"><ele>553.0</ele><time>2026-04-19T09:39:44.511Z</time></trkpt><trkpt lat="39.0500133" lon="16.778465"><ele>557.0</ele><time>2026-04-19T09:39:45.512Z</time></trkpt><trkpt lat="39.04994" lon="16.77837"><ele>561.0</ele><time>2026-04-19T09:39:46.511Z</time></trkpt><trkpt lat="39.0498533" lon="16.7782867"><ele>565.0</ele><time>2026-04-19T09:39:47.511Z</time></trkpt><trkpt lat="39.04975" lon="16.7782333"><ele>569.0</ele><time>2026-04-19T09:39:48.511Z</time></trkpt><trkpt lat="39.04963" lon="16.7782467"><ele>573.0</ele><time>2026-04-19T09:39:49.512Z</time></trkpt><trkpt lat="39.049505" lon="16.7782467"><ele>573.0</ele><time>2026-04-19T09:39:50.511Z</time></trkpt><trkpt lat="39.049375" lon="16.77823"><ele>573.0</ele><time>2026-04-19T09:39:51.511Z</time></trkpt><trkpt lat="39.0492433" lon="16.77821"><ele>573.0</ele><time>2026-04-19T09:39:52.512Z</time></trkpt><trkpt lat="39.04912" lon="16.778185"><ele>573.0</ele><time>2026-04-19T09:39:53.511Z</time></trkpt><trkpt lat="39.0489883" lon="16.7782067"><ele>574.5</ele><time>2026-04-19T09:39:54.511Z</time></trkpt><trkpt lat="39.0488667" lon="16.77824"><ele>576.0</ele><time>2026-04-19T09:39:55.511Z</time></trkpt><trkpt lat="39.04873" lon="16.7782633"><ele>577.5</ele><time>2026-04-19T09:39:56.511Z</time></trkpt><trkpt lat="39.048605" lon="16.7782417"><ele>579.0</ele><time>2026-04-19T09:39:57.511Z</time></trkpt><trkpt lat="39.0484633" lon="16.7782417"><ele>579.0</ele><time>2026-04-19T09:39:58.511Z</time></trkpt><trkpt lat="39.0483317" lon="16.7782167"><ele>579.0</ele><time>2026-04-19T09:39:59.511Z</time></trkpt><trkpt lat="39.0482083" lon="16.7781917"><ele>579.0</ele><time>2026-04-19T09:40:00.511Z</time></trkpt><trkpt lat="39.0480883" lon="16.77816"><ele>579.0</ele><time>2026-04-19T09:40:01.511Z</time></trkpt><trkpt lat="39.0479767" lon="16.7781383"><ele>582.0</ele><time>2026-04-19T09:40:02.512Z</time></trkpt><trkpt lat="39.047875" lon="16.7781183"><ele>585.0</ele><time>2026-04-19T09:40:03.512Z</time></trkpt><trkpt lat="39.04778" lon="16.77813"><ele>588.0</ele><time>2026-04-19T09:40:04.511Z</time></trkpt><trkpt lat="39.04769" lon="16.778155"><ele>591.0</ele><time>2026-04-19T09:40:05.511Z</time></trkpt><trkpt lat="39.0476033" lon="16.778225"><ele>594.0</ele><time>2026-04-19T09:40:06.511Z</time></trkpt><trkpt lat="39.047525" lon="16.7783067"><ele>604.4</ele><time>2026-04-19T09:40:07.511Z</time></trkpt><trkpt lat="39.0474567" lon="16.7784067"><ele>614.8</ele><time>2026-04-19T09:40:08.511Z</time></trkpt><trkpt lat="39.0474" lon="16.77853"><ele>625.1999999999999</ele><time>2026-04-19T09:40:09.511Z</time></trkpt><trkpt lat="39.0473767" lon="16.7786467"><ele>635.5999999999999</ele><time>2026-04-19T09:40:10.511Z</time></trkpt><trkpt lat="39.0473767" lon="16.7787783"><ele>646.0</ele><time>2026-04-19T09:40:11.511Z</time></trkpt><trkpt lat="39.04742" lon="16.7788817"><ele>637.0</ele><time>2026-04-19T09:40:12.511Z</time></trkpt><trkpt lat="39.047495" lon="16.7789583"><ele>628.0</ele><time>2026-04-19T09:40:13.512Z</time></trkpt><trkpt lat="39.0476033" lon="16.7790183"><ele>619.0</ele><time>2026-04-19T09:40:14.511Z</time></trkpt><trkpt lat="39.04772" lon="16.77908"><ele>610.0</ele><time>2026-04-19T09:40:15.511Z</time></trkpt><trkpt lat="39.047815" lon="16.7791567"><ele>610.0</ele><time>2026-04-19T09:40:16.511Z</time></trkpt><trkpt lat="39.0478917" lon="16.7792583"><ele>610.0</ele><time>2026-04-19T09:40:17.511Z</time></trkpt><trkpt lat="39.0479583" lon="16.7793717"><ele>610.0</ele><time>2026-04-19T09:40:18.512Z</time></trkpt><trkpt lat="39.0480283" lon="16.77949"><ele>610.0</ele><time>2026-04-19T09:40:19.511Z</time></trkpt><trkpt lat="39.0480833" lon="16.77961"><ele>610.0</ele><time>2026-04-19T09:40:20.512Z</time></trkpt><trkpt lat="39.048125" lon="16.7797317"><ele>611.0</ele><time>2026-04-19T09:40:21.511Z</time></trkpt><trkpt lat="39.0481617" lon="16.7798517"><ele>612.0</ele><time>2026-04-19T09:40:22.511Z</time></trkpt><trkpt lat="39.0481833" lon="16.77998"><ele>613.0</ele><time>2026-04-19T09:40:23.511Z</time></trkpt><trkpt lat="39.0481883" lon="16.7801067"><ele>614.0</ele><time>2026-04-19T09:40:24.511Z</time></trkpt><trkpt lat="39.04816" lon="16.7802133"><ele>615.0</ele><time>2026-04-19T09:40:25.511Z</time></trkpt><trkpt lat="39.0481167" lon="16.7803083"><ele>615.0</ele><time>2026-04-19T09:40:26.512Z</time></trkpt><trkpt lat="39.0480617" lon="16.7804033"><ele>615.0</ele><time>2026-04-19T09:40:27.511Z</time></trkpt><trkpt lat="39.0480283" lon="16.78052"><ele>615.0</ele><time>2026-04-19T09:40:28.511Z</time></trkpt><trkpt lat="39.0480033" lon="16.7806567"><ele>615.0</ele><time>2026-04-19T09:40:29.512Z</time></trkpt><trkpt lat="39.0479933" lon="16.7808017"><ele>615.0</ele><time>2026-04-19T09:40:30.511Z</time></trkpt><trkpt lat="39.04797" lon="16.78095"><ele>611.4</ele><time>2026-04-19T09:40:31.511Z</time></trkpt><trkpt lat="39.04795" lon="16.7810933"><ele>607.8</ele><time>2026-04-19T09:40:32.511Z</time></trkpt><trkpt lat="39.047915" lon="16.78123"><ele>604.2</ele><time>2026-04-19T09:40:33.512Z</time></trkpt><trkpt lat="39.0478683" lon="16.7813467"><ele>600.6</ele><time>2026-04-19T09:40:34.511Z</time></trkpt><trkpt lat="39.0478217" lon="16.7814467"><ele>597.0</ele><time>2026-04-19T09:40:35.511Z</time></trkpt><trkpt lat="39.0477533" lon="16.7815367"><ele>597.0</ele><time>2026-04-19T09:40:36.511Z</time></trkpt><trkpt lat="39.0476667" lon="16.7816017"><ele>597.0</ele><time>2026-04-19T09:40:37.512Z</time></trkpt><trkpt lat="39.047585" lon="16.78163"><ele>597.0</ele><time>2026-04-19T09:40:38.511Z</time></trkpt><trkpt lat="39.0475" lon="16.7816233"><ele>597.0</ele><time>2026-04-19T09:40:39.511Z</time></trkpt><trkpt lat="39.047415" lon="16.781615"><ele>597.0</ele><time>2026-04-19T09:40:40.512Z</time></trkpt><trkpt lat="39.047335" lon="16.7816483"><ele>597.0</ele><time>2026-04-19T09:40:41.511Z</time></trkpt><trkpt lat="39.0472567" lon="16.7817217"><ele>595.6</ele><time>2026-04-19T09:40:42.511Z</time></trkpt><trkpt lat="39.0471917" lon="16.781825"><ele>594.2</ele><time>2026-04-19T09:40:43.512Z</time></trkpt><trkpt lat="39.0471417" lon="16.781935"><ele>592.8</ele><time>2026-04-19T09:40:44.512Z</time></trkpt><trkpt lat="39.0470733" lon="16.7820283"><ele>591.4</ele><time>2026-04-19T09:40:45.511Z</time></trkpt><trkpt lat="39.0469883" lon="16.7821067"><ele>590.0</ele><time>2026-04-19T09:40:46.511Z</time></trkpt><trkpt lat="39.04689" lon="16.7821667"><ele>590.0</ele><time>2026-04-19T09:40:47.511Z</time></trkpt><trkpt lat="39.046795" lon="16.78221"><ele>590.0</ele><time>2026-04-19T09:40:48.512Z</time></trkpt><trkpt lat="39.0467017" lon="16.782205"><ele>590.0</ele><time>2026-04-19T09:40:49.511Z</time></trkpt><trkpt lat="39.0466117" lon="16.7821633"><ele>590.0</ele><time>2026-04-19T09:40:50.512Z</time></trkpt><trkpt lat="39.0465283" lon="16.78209"><ele>590.0</ele><time>2026-04-19T09:40:51.511Z</time></trkpt><trkpt lat="39.046435" lon="16.78201"><ele>591.8</ele><time>2026-04-19T09:40:52.512Z</time></trkpt><trkpt lat="39.046325" lon="16.78198"><ele>593.6</ele><time>2026-04-19T09:40:53.511Z</time></trkpt><trkpt lat="39.0462167" lon="16.7820067"><ele>595.4</ele><time>2026-04-19T09:40:54.512Z</time></trkpt><trkpt lat="39.04613" lon="16.78208"><ele>597.2</ele><time>2026-04-19T09:40:55.512Z</time></trkpt><trkpt lat="39.0460467" lon="16.7821683"><ele>599.0</ele><time>2026-04-19T09:40:56.511Z</time></trkpt><trkpt lat="39.0459517" lon="16.782235"><ele>599.0</ele><time>2026-04-19T09:40:57.511Z</time></trkpt><trkpt lat="39.045845" lon="16.78226"><ele>599.0</ele><time>2026-04-19T09:40:58.511Z</time></trkpt><trkpt lat="39.0457383" lon="16.7822817"><ele>599.0</ele><time>2026-04-19T09:40:59.511Z</time></trkpt><trkpt lat="39.0456283" lon="16.7823133"><ele>599.0</ele><time>2026-04-19T09:41:00.511Z</time></trkpt><trkpt lat="39.0455217" lon="16.78238"><ele>599.0</ele><time>2026-04-19T09:41:01.511Z</time></trkpt><trkpt lat="39.0454167" lon="16.782435"><ele>597.75</ele><time>2026-04-19T09:41:02.511Z</time></trkpt><trkpt lat="39.0453033" lon="16.7824833"><ele>596.5</ele><time>2026-04-19T09:41:03.512Z</time></trkpt><trkpt lat="39.04521" lon="16.7825517"><ele>595.25</ele><time>2026-04-19T09:41:04.511Z</time></trkpt><trkpt lat="39.04514" lon="16.782665"><ele>594.0</ele><time>2026-04-19T09:41:05.511Z</time></trkpt><trkpt lat="39.04509" lon="16.7827983"><ele>594.0</ele><time>2026-04-19T09:41:06.511Z</time></trkpt><trkpt lat="39.045025" lon="16.7829167"><ele>594.0</ele><time>2026-04-19T09:41:07.511Z</time></trkpt><trkpt lat="39.0449433" lon="16.7830033"><ele>594.0</ele><time>2026-04-19T09:41:08.511Z</time></trkpt><trkpt lat="39.044845" lon="16.7830333"><ele>594.0</ele><time>2026-04-19T09:41:09.511Z</time></trkpt><trkpt lat="39.04475" lon="16.7830217"><ele>594.0</ele><time>2026-04-19T09:41:10.512Z</time></trkpt><trkpt lat="39.04465" lon="16.78296"><ele>595.0</ele><time>2026-04-19T09:41:11.511Z</time></trkpt><trkpt lat="39.04455" lon="16.78288"><ele>596.0</ele><time>2026-04-19T09:41:12.512Z</time></trkpt><trkpt lat="39.0444417" lon="16.7828267"><ele>597.0</ele><time>2026-04-19T09:41:13.511Z</time></trkpt><trkpt lat="39.0443283" lon="16.7828283"><ele>598.0</ele><time>2026-04-19T09:41:14.511Z</time></trkpt><trkpt lat="39.044215" lon="16.782865"><ele>599.6</ele><time>2026-04-19T09:41:15.511Z</time></trkpt><trkpt lat="39.0441083" lon="16.7828917"><ele>601.1999999999999</ele><time>2026-04-19T09:41:16.511Z</time></trkpt><trkpt lat="39.0440083" lon="16.78287"><ele>602.8</ele><time>2026-04-19T09:41:17.512Z</time></trkpt><trkpt lat="39.0439183" lon="16.7828083"><ele>604.4</ele><time>2026-04-19T09:41:18.511Z</time></trkpt><trkpt lat="39.0438233" lon="16.7827217"><ele>606.0</ele><time>2026-04-19T09:41:19.512Z</time></trkpt><trkpt lat="39.0437217" lon="16.7826433"><ele>608.25</ele><time>2026-04-19T09:41:20.511Z</time></trkpt><trkpt lat="39.04361" lon="16.7825867"><ele>610.5</ele><time>2026-04-19T09:41:21.512Z</time></trkpt><trkpt lat="39.043495" lon="16.7825717"><ele>612.75</ele><time>2026-04-19T09:41:22.511Z</time></trkpt><trkpt lat="39.0433767" lon="16.7826"><ele>615.0</ele><time>2026-04-19T09:41:23.511Z</time></trkpt><trkpt lat="39.043275" lon="16.7826933"><ele>615.0</ele><time>2026-04-19T09:41:24.511Z</time></trkpt><trkpt lat="39.04319" lon="16.7828067"><ele>615.0</ele><time>2026-04-19T09:41:25.511Z</time></trkpt><trkpt lat="39.043105" lon="16.7829033"><ele>615.0</ele><time>2026-04-19T09:41:26.511Z</time></trkpt><trkpt lat="39.0429983" lon="16.782965"><ele>615.0</ele><time>2026-04-19T09:41:27.511Z</time></trkpt><trkpt lat="39.0428717" lon="16.783"><ele>615.0</ele><time>2026-04-19T09:41:28.511Z</time></trkpt><trkpt lat="39.042755" lon="16.7829983"><ele>615.0</ele><time>2026-04-19T09:41:29.511Z</time></trkpt><trkpt lat="39.0426483" lon="16.7829517"><ele>615.0</ele><time>2026-04-19T09:41:30.511Z</time></trkpt><trkpt lat="39.04255" lon="16.78288"><ele>615.0</ele><time>2026-04-19T09:41:31.511Z</time></trkpt><trkpt lat="39.0424417" lon="16.7828117"><ele>619.25</ele><time>2026-04-19T09:41:32.511Z</time></trkpt><trkpt lat="39.0423267" lon="16.7827433"><ele>623.5</ele><time>2026-04-19T09:41:33.512Z</time></trkpt><trkpt lat="39.0422117" lon="16.78267"><ele>627.75</ele><time>2026-04-19T09:41:34.511Z</time></trkpt><trkpt lat="39.0421033" lon="16.78259"><ele>632.0</ele><time>2026-04-19T09:41:35.511Z</time></trkpt><trkpt lat="39.042005" lon="16.7825017"><ele>633.6</ele><time>2026-04-19T09:41:36.512Z</time></trkpt><trkpt lat="39.04191" lon="16.7824517"><ele>635.2</ele><time>2026-04-19T09:41:37.511Z</time></trkpt><trkpt lat="39.0418133" lon="16.7824567"><ele>636.8</ele><time>2026-04-19T09:41:38.511Z</time></trkpt><trkpt lat="39.0417283" lon="16.78251"><ele>638.4</ele><time>2026-04-19T09:41:39.511Z</time></trkpt><trkpt lat="39.0416567" lon="16.7825933"><ele>640.0</ele><time>2026-04-19T09:41:40.511Z</time></trkpt><trkpt lat="39.0415967" lon="16.7827117"><ele>640.0</ele><time>2026-04-19T09:41:41.511Z</time></trkpt><trkpt lat="39.0415633" lon="16.7828533"><ele>640.0</ele><time>2026-04-19T09:41:42.511Z</time></trkpt><trkpt lat="39.0415517" lon="16.7830183"><ele>640.0</ele><time>2026-04-19T09:41:43.511Z</time></trkpt><trkpt lat="39.0415483" lon="16.7832033"><ele>640.0</ele><time>2026-04-19T09:41:44.511Z</time></trkpt><trkpt lat="39.0415383" lon="16.7833617"><ele>640.0</ele><time>2026-04-19T09:41:45.511Z</time></trkpt><trkpt lat="39.04151" lon="16.7834967"><ele>640.0</ele><time>2026-04-19T09:41:46.511Z</time></trkpt><trkpt lat="39.041455" lon="16.7836183"><ele>640.0</ele><time>2026-04-19T09:41:47.511Z</time></trkpt><trkpt lat="39.0413933" lon="16.7837317"><ele>640.0</ele><time>2026-04-19T09:41:48.511Z</time></trkpt><trkpt lat="39.0413233" lon="16.78384"><ele>640.0</ele><time>2026-04-19T09:41:49.511Z</time></trkpt><trkpt lat="39.0412333" lon="16.7839383"><ele>637.8</ele><time>2026-04-19T09:41:50.511Z</time></trkpt><trkpt lat="39.0411483" lon="16.78402"><ele>635.6</ele><time>2026-04-19T09:41:51.511Z</time></trkpt><trkpt lat="39.041035" lon="16.7840483"><ele>633.4</ele><time>2026-04-19T09:41:52.512Z</time></trkpt><trkpt lat="39.0409267" lon="16.7840383"><ele>631.2</ele><time>2026-04-19T09:41:53.511Z</time></trkpt><trkpt lat="39.0408333" lon="16.7839633"><ele>629.0</ele><time>2026-04-19T09:41:54.511Z</time></trkpt><trkpt lat="39.0407733" lon="16.783845"><ele>621.75</ele><time>2026-04-19T09:41:55.511Z</time></trkpt><trkpt lat="39.0407483" lon="16.783695"><ele>614.5</ele><time>2026-04-19T09:41:56.511Z</time></trkpt><trkpt lat="39.0407517" lon="16.7835383"><ele>607.25</ele><time>2026-04-19T09:41:57.511Z</time></trkpt><trkpt lat="39.0407783" lon="16.783365"><ele>600.0</ele><time>2026-04-19T09:41:58.511Z</time></trkpt><trkpt lat="39.0407967" lon="16.7831983"><ele>610.0</ele><time>2026-04-19T09:41:59.511Z</time></trkpt><trkpt lat="39.0408083" lon="16.7830267"><ele>620.0</ele><time>2026-04-19T09:42:00.511Z</time></trkpt><trkpt lat="39.0408167" lon="16.7828533"><ele>630.0</ele><time>2026-04-19T09:42:01.511Z</time></trkpt><trkpt lat="39.0408133" lon="16.7826817"><ele>640.0</ele><time>2026-04-19T09:42:02.511Z</time></trkpt><trkpt lat="39.0408083" lon="16.7825267"><ele>640.75</ele><time>2026-04-19T09:42:03.511Z</time></trkpt><trkpt lat="39.0408117" lon="16.782385"><ele>641.5</ele><time>2026-04-19T09:42:04.511Z</time></trkpt><trkpt lat="39.0408467" lon="16.7822433"><ele>642.25</ele><time>2026-04-19T09:42:05.511Z</time></trkpt><trkpt lat="39.0409117" lon="16.7821233"><ele>643.0</ele><time>2026-04-19T09:42:06.511Z</time></trkpt><trkpt lat="39.0409983" lon="16.7820067"><ele>643.0</ele><time>2026-04-19T09:42:07.511Z</time></trkpt><trkpt lat="39.04109" lon="16.78189"><ele>643.0</ele><time>2026-04-19T09:42:08.511Z</time></trkpt><trkpt lat="39.0411517" lon="16.7817567"><ele>643.0</ele><time>2026-04-19T09:42:09.511Z</time></trkpt><trkpt lat="39.0412033" lon="16.7816167"><ele>643.0</ele><time>2026-04-19T09:42:10.511Z</time></trkpt><trkpt lat="39.041255" lon="16.7814967"><ele>643.4</ele><time>2026-04-19T09:42:11.511Z</time></trkpt><trkpt lat="39.0413283" lon="16.7814183"><ele>643.8</ele><time>2026-04-19T09:42:12.511Z</time></trkpt><trkpt lat="39.0414267" lon="16.7814083"><ele>644.2</ele><time>2026-04-19T09:42:13.511Z</time></trkpt><trkpt lat="39.041515" lon="16.7814617"><ele>644.6</ele><time>2026-04-19T09:42:14.511Z</time></trkpt><trkpt lat="39.0415867" lon="16.7815367"><ele>645.0</ele><time>2026-04-19T09:42:15.511Z</time></trkpt><trkpt lat="39.0416667" lon="16.781645"><ele>644.25</ele><time>2026-04-19T09:42:16.511Z</time></trkpt><trkpt lat="39.0417667" lon="16.781725"><ele>643.5</ele><time>2026-04-19T09:42:17.511Z</time></trkpt><trkpt lat="39.0418817" lon="16.7817717"><ele>642.75</ele><time>2026-04-19T09:42:18.511Z</time></trkpt><trkpt lat="39.0419967" lon="16.7818267"><ele>642.0</ele><time>2026-04-19T09:42:19.512Z</time></trkpt><trkpt lat="39.0420933" lon="16.7819133"><ele>642.0</ele><time>2026-04-19T09:42:20.511Z</time></trkpt><trkpt lat="39.0421833" lon="16.7819983"><ele>642.0</ele><time>2026-04-19T09:42:21.511Z</time></trkpt><trkpt lat="39.042285" lon="16.7820333"><ele>642.0</ele><time>2026-04-19T09:42:22.512Z</time></trkpt><trkpt lat="39.042385" lon="16.7820083"><ele>642.0</ele><time>2026-04-19T09:42:23.511Z</time></trkpt><trkpt lat="39.04248" lon="16.7819333"><ele>642.0</ele><time>2026-04-19T09:42:24.511Z</time></trkpt><trkpt lat="39.0425683" lon="16.7818167"><ele>647.75</ele><time>2026-04-19T09:42:25.511Z</time></trkpt><trkpt lat="39.042635" lon="16.7816717"><ele>653.5</ele><time>2026-04-19T09:42:26.512Z</time></trkpt><trkpt lat="39.0426967" lon="16.7815233"><ele>659.25</ele><time>2026-04-19T09:42:27.511Z</time></trkpt><trkpt lat="39.0427733" lon="16.781385"><ele>665.0</ele><time>2026-04-19T09:42:28.511Z</time></trkpt><trkpt lat="39.0428683" lon="16.78127"><ele>665.0</ele><time>2026-04-19T09:42:29.511Z</time></trkpt><trkpt lat="39.0429583" lon="16.7811567"><ele>665.0</ele><time>2026-04-19T09:42:30.511Z</time></trkpt><trkpt lat="39.043035" lon="16.78104"><ele>665.0</ele><time>2026-04-19T09:42:31.511Z</time></trkpt><trkpt lat="39.043105" lon="16.7809133"><ele>665.0</ele><time>2026-04-19T09:42:32.511Z</time></trkpt><trkpt lat="39.04318" lon="16.7808133"><ele>666.75</ele><time>2026-04-19T09:42:33.511Z</time></trkpt><trkpt lat="39.0432733" lon="16.7807383"><ele>668.5</ele><time>2026-04-19T09:42:34.511Z</time></trkpt><trkpt lat="39.0433933" lon="16.7807117"><ele>670.25</ele><time>2026-04-19T09:42:35.511Z</time></trkpt><trkpt lat="39.0435167" lon="16.780745"><ele>672.0</ele><time>2026-04-19T09:42:36.511Z</time></trkpt><trkpt lat="39.0436417" lon="16.7807767"><ele>672.0</ele><time>2026-04-19T09:42:37.511Z</time></trkpt><trkpt lat="39.043765" lon="16.7807733"><ele>672.0</ele><time>2026-04-19T09:42:38.511Z</time></trkpt><trkpt lat="39.0438833" lon="16.78074"><ele>672.0</ele><time>2026-04-19T09:42:39.511Z</time></trkpt><trkpt lat="39.0439917" lon="16.7806817"><ele>672.0</ele><time>2026-04-19T09:42:40.512Z</time></trkpt><trkpt lat="39.0440883" lon="16.78057"><ele>670.25</ele><time>2026-04-19T09:42:41.511Z</time></trkpt><trkpt lat="39.0441783" lon="16.7804483"><ele>668.5</ele><time>2026-04-19T09:42:42.511Z</time></trkpt><trkpt lat="39.044255" lon="16.7803183"><ele>666.75</ele><time>2026-04-19T09:42:43.511Z</time></trkpt><trkpt lat="39.0443183" lon="16.7802217"><ele>665.0</ele><time>2026-04-19T09:42:44.511Z</time></trkpt><trkpt lat="39.044405" lon="16.7801567"><ele>670.0</ele><time>2026-04-19T09:42:45.511Z</time></trkpt><trkpt lat="39.0444983" lon="16.7801433"><ele>675.0</ele><time>2026-04-19T09:42:46.511Z</time></trkpt><trkpt lat="39.0445917" lon="16.7801283"><ele>680.0</ele><time>2026-04-19T09:42:47.511Z</time></trkpt><trkpt lat="39.0446767" lon="16.7800933"><ele>685.0</ele><time>2026-04-19T09:42:48.511Z</time></trkpt><trkpt lat="39.0447417" lon="16.78002"><ele>690.0</ele><time>2026-04-19T09:42:49.511Z</time></trkpt><trkpt lat="39.0447933" lon="16.779905"><ele>690.0</ele><time>2026-04-19T09:42:50.511Z</time></trkpt><trkpt lat="39.0448333" lon="16.7797667"><ele>690.0</ele><time>2026-04-19T09:42:51.511Z</time></trkpt><trkpt lat="39.0448917" lon="16.7796383"><ele>690.0</ele><time>2026-04-19T09:42:52.511Z</time></trkpt><trkpt lat="39.0449667" lon="16.77952"><ele>690.0</ele><time>2026-04-19T09:42:53.511Z</time></trkpt><trkpt lat="39.0450467" lon="16.779415"><ele>691.0</ele><time>2026-04-19T09:42:54.511Z</time></trkpt><trkpt lat="39.045135" lon="16.7793133"><ele>692.0</ele><time>2026-04-19T09:42:55.511Z</time></trkpt><trkpt lat="39.04522" lon="16.7791933"><ele>693.0</ele><time>2026-04-19T09:42:56.511Z</time></trkpt><trkpt lat="39.0453067" lon="16.7790817"><ele>694.0</ele><time>2026-04-19T09:42:57.512Z</time></trkpt><trkpt lat="39.0454133" lon="16.77899"><ele>694.0</ele><time>2026-04-19T09:42:58.511Z</time></trkpt><trkpt lat="39.045515" lon="16.7789333"><ele>694.0</ele><time>2026-04-19T09:42:59.511Z</time></trkpt><trkpt lat="39.045655" lon="16.77888"><ele>694.0</ele><time>2026-04-19T09:43:00.511Z</time></trkpt><trkpt lat="39.04578" lon="16.7788233"><ele>694.0</ele><time>2026-04-19T09:43:01.511Z</time></trkpt><trkpt lat="39.0458867" lon="16.7787633"><ele>692.8000000000001</ele><time>2026-04-19T09:43:02.511Z</time></trkpt><trkpt lat="39.0459683" lon="16.7786733"><ele>691.6</ele><time>2026-04-19T09:43:03.511Z</time></trkpt><trkpt lat="39.0460333" lon="16.778555"><ele>690.4</ele><time>2026-04-19T09:43:04.512Z</time></trkpt><trkpt lat="39.046055" lon="16.7784183"><ele>689.2</ele><time>2026-04-19T09:43:05.511Z</time></trkpt><trkpt lat="39.0460517" lon="16.7782767"><ele>688.0</ele><time>2026-04-19T09:43:06.512Z</time></trkpt><trkpt lat="39.0460083" lon="16.77815"><ele>688.0</ele><time>2026-04-19T09:43:07.511Z</time></trkpt><trkpt lat="39.0459467" lon="16.77803"><ele>688.0</ele><time>2026-04-19T09:43:08.511Z</time></trkpt><trkpt lat="39.045845" lon="16.77794"><ele>688.0</ele><time>2026-04-19T09:43:09.512Z</time></trkpt><trkpt lat="39.0457167" lon="16.7778883"><ele>688.0</ele><time>2026-04-19T09:43:10.511Z</time></trkpt><trkpt lat="39.04558" lon="16.777865"><ele>692.0</ele><time>2026-04-19T09:43:11.512Z</time></trkpt><trkpt lat="39.0454333" lon="16.777865"><ele>696.0</ele><time>2026-04-19T09:43:12.511Z</time></trkpt><trkpt lat="39.045285" lon="16.7778517"><ele>700.0</ele><time>2026-04-19T09:43:13.511Z</time></trkpt><trkpt lat="39.04515" lon="16.7778233"><ele>704.0</ele><time>2026-04-19T09:43:14.512Z</time></trkpt><trkpt lat="39.045015" lon="16.7777833"><ele>705.25</ele><time>2026-04-19T09:43:15.511Z</time></trkpt><trkpt lat="39.04489" lon="16.7777317"><ele>706.5</ele><time>2026-04-19T09:43:16.511Z</time></trkpt><trkpt lat="39.044775" lon="16.7776567"><ele>707.75</ele><time>2026-04-19T09:43:17.511Z</time></trkpt><trkpt lat="39.0446733" lon="16.7775667"><ele>709.0</ele><time>2026-04-19T09:43:18.512Z</time></trkpt><trkpt lat="39.0445783" lon="16.777475"><ele>709.0</ele><time>2026-04-19T09:43:19.511Z</time></trkpt><trkpt lat="39.0444967" lon="16.77739"><ele>709.0</ele><time>2026-04-19T09:43:20.511Z</time></trkpt><trkpt lat="39.0444017" lon="16.7773283"><ele>709.0</ele><time>2026-04-19T09:43:21.512Z</time></trkpt><trkpt lat="39.0442933" lon="16.7773017"><ele>709.0</ele><time>2026-04-19T09:43:22.511Z</time></trkpt><trkpt lat="39.0441833" lon="16.7772717"><ele>709.0</ele><time>2026-04-19T09:43:23.511Z</time></trkpt><trkpt lat="39.0440767" lon="16.7772333"><ele>713.4000000000001</ele><time>2026-04-19T09:43:24.512Z</time></trkpt><trkpt lat="39.04397" lon="16.77719"><ele>717.8</ele><time>2026-04-19T09:43:25.512Z</time></trkpt><trkpt lat="39.043865" lon="16.77714"><ele>722.2</ele><time>2026-04-19T09:43:26.511Z</time></trkpt><trkpt lat="39.0437633" lon="16.77707"><ele>726.5999999999999</ele><time>2026-04-19T09:43:27.511Z</time></trkpt><trkpt lat="39.04369" lon="16.776985"><ele>731.0</ele><time>2026-04-19T09:43:28.511Z</time></trkpt><trkpt lat="39.0436017" lon="16.7768867"><ele>731.5</ele><time>2026-04-19T09:43:29.511Z</time></trkpt><trkpt lat="39.0435217" lon="16.7767717"><ele>732.0</ele><time>2026-04-19T09:43:30.511Z</time></trkpt><trkpt lat="39.0434467" lon="16.7766617"><ele>732.5</ele><time>2026-04-19T09:43:31.512Z</time></trkpt><trkpt lat="39.0433633" lon="16.7765617"><ele>733.0</ele><time>2026-04-19T09:43:32.511Z</time></trkpt><trkpt lat="39.04327" lon="16.776475"><ele>733.0</ele><time>2026-04-19T09:43:33.511Z</time></trkpt><trkpt lat="39.0431867" lon="16.776385"><ele>733.0</ele><time>2026-04-19T09:43:34.511Z</time></trkpt><trkpt lat="39.0431183" lon="16.7762983"><ele>733.0</ele><time>2026-04-19T09:43:35.511Z</time></trkpt><trkpt lat="39.0430617" lon="16.7761983"><ele>733.0</ele><time>2026-04-19T09:43:36.512Z</time></trkpt><trkpt lat="39.0430433" lon="16.776065"><ele>733.0</ele><time>2026-04-19T09:43:37.511Z</time></trkpt><trkpt lat="39.04305" lon="16.7759233"><ele>733.5999999999999</ele><time>2026-04-19T09:43:38.511Z</time></trkpt><trkpt lat="39.0430517" lon="16.7757783"><ele>734.1999999999999</ele><time>2026-04-19T09:43:39.511Z</time></trkpt><trkpt lat="39.0430483" lon="16.7756333"><ele>734.8</ele><time>2026-04-19T09:43:40.511Z</time></trkpt><trkpt lat="39.043045" lon="16.7754917"><ele>735.4</ele><time>2026-04-19T09:43:41.511Z</time></trkpt><trkpt lat="39.04302" lon="16.775355"><ele>736.0</ele><time>2026-04-19T09:43:42.512Z</time></trkpt><trkpt lat="39.0429733" lon="16.77523"><ele>733.25</ele><time>2026-04-19T09:43:43.511Z</time></trkpt><trkpt lat="39.0429217" lon="16.7751033"><ele>730.5</ele><time>2026-04-19T09:43:44.511Z</time></trkpt><trkpt lat="39.0428633" lon="16.774975"><ele>727.75</ele><time>2026-04-19T09:43:45.511Z</time></trkpt><trkpt lat="39.042805" lon="16.7748517"><ele>725.0</ele><time>2026-04-19T09:43:46.512Z</time></trkpt><trkpt lat="39.04273" lon="16.7747433"><ele>725.0</ele><time>2026-04-19T09:43:47.512Z</time></trkpt><trkpt lat="39.042635" lon="16.774675"><ele>725.0</ele><time>2026-04-19T09:43:48.512Z</time></trkpt><trkpt lat="39.0425333" lon="16.7746467"><ele>725.0</ele><time>2026-04-19T09:43:49.511Z</time></trkpt><trkpt lat="39.042435" lon="16.77465"><ele>725.0</ele><time>2026-04-19T09:43:50.511Z</time></trkpt><trkpt lat="39.0423317" lon="16.7746733"><ele>725.0</ele><time>2026-04-19T09:43:51.511Z</time></trkpt><trkpt lat="39.0422117" lon="16.774725"><ele>726.4</ele><time>2026-04-19T09:43:52.511Z</time></trkpt><trkpt lat="39.0421033" lon="16.7747517"><ele>727.8</ele><time>2026-04-19T09:43:53.511Z</time></trkpt><trkpt lat="39.0420067" lon="16.7747317"><ele>729.2</ele><time>2026-04-19T09:43:54.512Z</time></trkpt><trkpt lat="39.0419217" lon="16.7746583"><ele>730.6</ele><time>2026-04-19T09:43:55.511Z</time></trkpt><trkpt lat="39.0418433" lon="16.77456"><ele>732.0</ele><time>2026-04-19T09:43:56.511Z</time></trkpt><trkpt lat="39.0417633" lon="16.7744467"><ele>732.75</ele><time>2026-04-19T09:43:57.511Z</time></trkpt><trkpt lat="39.0416817" lon="16.7743383"><ele>733.5</ele><time>2026-04-19T09:43:58.511Z</time></trkpt><trkpt lat="39.0415783" lon="16.7742633"><ele>734.25</ele><time>2026-04-19T09:43:59.511Z</time></trkpt><trkpt lat="39.0414817" lon="16.77421"><ele>735.0</ele><time>2026-04-19T09:44:00.511Z</time></trkpt><trkpt lat="39.0413567" lon="16.7742033"><ele>735.0</ele><time>2026-04-19T09:44:01.511Z</time></trkpt><trkpt lat="39.041245" lon="16.7742033"><ele>735.0</ele><time>2026-04-19T09:44:02.511Z</time></trkpt><trkpt lat="39.0411433" lon="16.7741967"><ele>735.0</ele><time>2026-04-19T09:44:03.511Z</time></trkpt><trkpt lat="39.0410517" lon="16.7741433"><ele>735.0</ele><time>2026-04-19T09:44:04.511Z</time></trkpt><trkpt lat="39.0409867" lon="16.774055"><ele>735.0</ele><time>2026-04-19T09:44:05.511Z</time></trkpt><trkpt lat="39.0409517" lon="16.77393"><ele>735.0</ele><time>2026-04-19T09:44:06.511Z</time></trkpt><trkpt lat="39.0409433" lon="16.77379"><ele>735.0</ele><time>2026-04-19T09:44:07.511Z</time></trkpt><trkpt lat="39.04097" lon="16.7736633"><ele>735.0</ele><time>2026-04-19T09:44:08.512Z</time></trkpt><trkpt lat="39.0410283" lon="16.77355"><ele>735.0</ele><time>2026-04-19T09:44:09.511Z</time></trkpt><trkpt lat="39.04111" lon="16.773455"><ele>735.0</ele><time>2026-04-19T09:44:10.511Z</time></trkpt><trkpt lat="39.0412" lon="16.7733567"><ele>737.5</ele><time>2026-04-19T09:44:11.511Z</time></trkpt><trkpt lat="39.04129" lon="16.7732417"><ele>740.0</ele><time>2026-04-19T09:44:12.511Z</time></trkpt><trkpt lat="39.04136" lon="16.7731233"><ele>742.5</ele><time>2026-04-19T09:44:13.512Z</time></trkpt><trkpt lat="39.041435" lon="16.77301"><ele>745.0</ele><time>2026-04-19T09:44:14.512Z</time></trkpt><trkpt lat="39.0414933" lon="16.7729"><ele>745.0</ele><time>2026-04-19T09:44:15.511Z</time></trkpt><trkpt lat="39.0415283" lon="16.7727867"><ele>745.0</ele><time>2026-04-19T09:44:16.511Z</time></trkpt><trkpt lat="39.04154" lon="16.7726767"><ele>745.0</ele><time>2026-04-19T09:44:17.511Z</time></trkpt><trkpt lat="39.0415383" lon="16.77257"><ele>745.0</ele><time>2026-04-19T09:44:18.512Z</time></trkpt><trkpt lat="39.04151" lon="16.77247"><ele>745.0</ele><time>2026-04-19T09:44:19.511Z</time></trkpt><trkpt lat="39.041445" lon="16.772395"><ele>745.0</ele><time>2026-04-19T09:44:20.511Z</time></trkpt><trkpt lat="39.0413683" lon="16.772335"><ele>746.6</ele><time>2026-04-19T09:44:21.512Z</time></trkpt><trkpt lat="39.04129" lon="16.772275"><ele>748.2</ele><time>2026-04-19T09:44:22.511Z</time></trkpt><trkpt lat="39.0412217" lon="16.77221"><ele>749.8</ele><time>2026-04-19T09:44:23.511Z</time></trkpt><trkpt lat="39.041165" lon="16.7721167"><ele>751.4</ele><time>2026-04-19T09:44:24.511Z</time></trkpt><trkpt lat="39.04111" lon="16.7720067"><ele>753.0</ele><time>2026-04-19T09:44:25.512Z</time></trkpt><trkpt lat="39.041045" lon="16.7719"><ele>750.75</ele><time>2026-04-19T09:44:26.511Z</time></trkpt><trkpt lat="39.0409567" lon="16.7718067"><ele>748.5</ele><time>2026-04-19T09:44:27.511Z</time></trkpt><trkpt lat="39.0408617" lon="16.77172"><ele>746.25</ele><time>2026-04-19T09:44:28.511Z</time></trkpt><trkpt lat="39.0407633" lon="16.7716317"><ele>744.0</ele><time>2026-04-19T09:44:29.511Z</time></trkpt><trkpt lat="39.040685" lon="16.7715383"><ele>746.8000000000001</ele><time>2026-04-19T09:44:30.512Z</time></trkpt><trkpt lat="39.040615" lon="16.7714267"><ele>749.6</ele><time>2026-04-19T09:44:31.511Z</time></trkpt><trkpt lat="39.0405483" lon="16.77131"><ele>752.4</ele><time>2026-04-19T09:44:32.511Z</time></trkpt><trkpt lat="39.0404917" lon="16.7711933"><ele>755.2</ele><time>2026-04-19T09:44:33.511Z</time></trkpt><trkpt lat="39.0404283" lon="16.771085"><ele>758.0</ele><time>2026-04-19T09:44:34.512Z</time></trkpt><trkpt lat="39.0403567" lon="16.771"><ele>758.0</ele><time>2026-04-19T09:44:35.512Z</time></trkpt><trkpt lat="39.040275" lon="16.77093"><ele>758.0</ele><time>2026-04-19T09:44:36.512Z</time></trkpt><trkpt lat="39.0401983" lon="16.7708617"><ele>758.0</ele><time>2026-04-19T09:44:37.511Z</time></trkpt><trkpt lat="39.0401267" lon="16.7707817"><ele>758.0</ele><time>2026-04-19T09:44:38.511Z</time></trkpt><trkpt lat="39.0400883" lon="16.770665"><ele>758.0</ele><time>2026-04-19T09:44:39.511Z</time></trkpt><trkpt lat="39.0400833" lon="16.7705333"><ele>758.0</ele><time>2026-04-19T09:44:40.511Z</time></trkpt><trkpt lat="39.0400983" lon="16.7704017"><ele>758.0</ele><time>2026-04-19T09:44:41.511Z</time></trkpt><trkpt lat="39.04011" lon="16.7702617"><ele>758.0</ele><time>2026-04-19T09:44:42.511Z</time></trkpt><trkpt lat="39.04011" lon="16.7701167"><ele>758.0</ele><time>2026-04-19T09:44:43.512Z</time></trkpt><trkpt lat="39.04009" lon="16.7699717"><ele>758.0</ele><time>2026-04-19T09:44:44.511Z</time></trkpt><trkpt lat="39.04006" lon="16.7698383"><ele>756.8</ele><time>2026-04-19T09:44:45.512Z</time></trkpt><trkpt lat="39.0400033" lon="16.7697283"><ele>755.5999999999999</ele><time>2026-04-19T09:44:46.512Z</time></trkpt><trkpt lat="39.0399333" lon="16.7696317"><ele>754.4000000000001</ele><time>2026-04-19T09:44:47.511Z</time></trkpt><trkpt lat="39.03985" lon="16.7695433"><ele>753.2</ele><time>2026-04-19T09:44:48.511Z</time></trkpt><trkpt lat="39.03975" lon="16.7694717"><ele>752.0</ele><time>2026-04-19T09:44:49.511Z</time></trkpt><trkpt lat="39.0396433" lon="16.769425"><ele>752.5</ele><time>2026-04-19T09:44:50.511Z</time></trkpt><trkpt lat="39.0395417" lon="16.7693883"><ele>753.0</ele><time>2026-04-19T09:44:51.511Z</time></trkpt><trkpt lat="39.0394467" lon="16.76937"><ele>753.5</ele><time>2026-04-19T09:44:52.512Z</time></trkpt><trkpt lat="39.0393533" lon="16.769365"><ele>754.0</ele><time>2026-04-19T09:44:53.512Z</time></trkpt><trkpt lat="39.0392833" lon="16.769345"><ele>754.5</ele><time>2026-04-19T09:44:54.512Z</time></trkpt><trkpt lat="39.03922" lon="16.7693233"><ele>755.0</ele><time>2026-04-19T09:44:55.511Z</time></trkpt><trkpt lat="39.0391083" lon="16.7693167"><ele>755.0</ele><time>2026-04-19T09:44:57.511Z</time></trkpt><trkpt lat="39.0389917" lon="16.7693667"><ele>755.0</ele><time>2026-04-19T09:44:59.511Z</time></trkpt><trkpt lat="39.038925" lon="16.7694083"><ele>755.0</ele><time>2026-04-19T09:45:00.512Z</time></trkpt><trkpt lat="39.0388417" lon="16.7694717"><ele>755.0</ele><time>2026-04-19T09:45:01.511Z</time></trkpt><trkpt lat="39.0387517" lon="16.7695267"><ele>755.0</ele><time>2026-04-19T09:45:02.511Z</time></trkpt><trkpt lat="39.0386667" lon="16.76958"><ele>755.0</ele><time>2026-04-19T09:45:03.511Z</time></trkpt><trkpt lat="39.03858" lon="16.7696517"><ele>755.0</ele><time>2026-04-19T09:45:04.511Z</time></trkpt><trkpt lat="39.03849" lon="16.7697367"><ele>755.0</ele><time>2026-04-19T09:45:05.511Z</time></trkpt><trkpt lat="39.0384083" lon="16.769825"><ele>755.0</ele><time>2026-04-19T09:45:06.511Z</time></trkpt><trkpt lat="39.038335" lon="16.7699167"><ele>755.0</ele><time>2026-04-19T09:45:07.511Z</time></trkpt><trkpt lat="39.0382617" lon="16.7700167"><ele>751.6</ele><time>2026-04-19T09:45:08.512Z</time></trkpt><trkpt lat="39.038195" lon="16.7701033"><ele>748.2</ele><time>2026-04-19T09:45:09.511Z</time></trkpt><trkpt lat="39.0381317" lon="16.7702"><ele>744.8</ele><time>2026-04-19T09:45:10.511Z</time></trkpt><trkpt lat="39.03805" lon="16.7702917"><ele>741.4</ele><time>2026-04-19T09:45:11.511Z</time></trkpt><trkpt lat="39.0379683" lon="16.7703817"><ele>738.0</ele><time>2026-04-19T09:45:12.512Z</time></trkpt><trkpt lat="39.0378783" lon="16.7704533"><ele>738.0</ele><time>2026-04-19T09:45:13.512Z</time></trkpt><trkpt lat="39.0377933" lon="16.770505"><ele>738.0</ele><time>2026-04-19T09:45:14.512Z</time></trkpt><trkpt lat="39.0377067" lon="16.7704933"><ele>738.0</ele><time>2026-04-19T09:45:15.511Z</time></trkpt><trkpt lat="39.0376317" lon="16.7704317"><ele>738.0</ele><time>2026-04-19T09:45:16.511Z</time></trkpt><trkpt lat="39.0375833" lon="16.77033"><ele>738.0</ele><time>2026-04-19T09:45:17.511Z</time></trkpt><trkpt lat="39.0375617" lon="16.7701867"><ele>738.0</ele><time>2026-04-19T09:45:18.511Z</time></trkpt><trkpt lat="39.03761" lon="16.7700017"><ele>738.0</ele><time>2026-04-19T09:45:19.511Z</time></trkpt><trkpt lat="39.037675" lon="16.7698233"><ele>738.0</ele><time>2026-04-19T09:45:20.512Z</time></trkpt><trkpt lat="39.0377317" lon="16.7696533"><ele>738.0</ele><time>2026-04-19T09:45:21.511Z</time></trkpt><trkpt lat="39.03775" lon="16.7695133"><ele>738.0</ele><time>2026-04-19T09:45:22.511Z</time></trkpt><trkpt lat="39.037725" lon="16.76938"><ele>738.0</ele><time>2026-04-19T09:45:23.511Z</time></trkpt><trkpt lat="39.0376683" lon="16.7692767"><ele>738.0</ele><time>2026-04-19T09:45:24.511Z</time></trkpt><trkpt lat="39.0375867" lon="16.769195"><ele>738.0</ele><time>2026-04-19T09:45:25.511Z</time></trkpt><trkpt lat="39.0374817" lon="16.76914"><ele>738.0</ele><time>2026-04-19T09:45:26.511Z</time></trkpt><trkpt lat="39.0373783" lon="16.7691317"><ele>737.5</ele><time>2026-04-19T09:45:27.511Z</time></trkpt><trkpt lat="39.0372733" lon="16.769155"><ele>737.0</ele><time>2026-04-19T09:45:28.512Z</time></trkpt><trkpt lat="39.0371867" lon="16.76923"><ele>736.5</ele><time>2026-04-19T09:45:29.511Z</time></trkpt><trkpt lat="39.0371183" lon="16.7693683"><ele>736.0</ele><time>2026-04-19T09:45:30.511Z</time></trkpt><trkpt lat="39.0370683" lon="16.7695317"><ele>736.0</ele><time>2026-04-19T09:45:31.512Z</time></trkpt><trkpt lat="39.0370383" lon="16.76971"><ele>736.0</ele><time>2026-04-19T09:45:32.511Z</time></trkpt><trkpt lat="39.0369933" lon="16.7698717"><ele>736.0</ele><time>2026-04-19T09:45:33.511Z</time></trkpt><trkpt lat="39.036925" lon="16.77001"><ele>736.0</ele><time>2026-04-19T09:45:34.511Z</time></trkpt><trkpt lat="39.0368283" lon="16.7701217"><ele>734.0</ele><time>2026-04-19T09:45:35.511Z</time></trkpt><trkpt lat="39.03671" lon="16.7702167"><ele>732.0</ele><time>2026-04-19T09:45:36.511Z</time></trkpt><trkpt lat="39.036625" lon="16.7703383"><ele>730.0</ele><time>2026-04-19T09:45:37.511Z</time></trkpt><trkpt lat="39.036555" lon="16.7704833"><ele>728.0</ele><time>2026-04-19T09:45:38.512Z</time></trkpt><trkpt lat="39.03654" lon="16.7706483"><ele>732.0</ele><time>2026-04-19T09:45:39.511Z</time></trkpt><trkpt lat="39.03654" lon="16.7708267"><ele>736.0</ele><time>2026-04-19T09:45:40.511Z</time></trkpt><trkpt lat="39.03654" lon="16.77101"><ele>740.0</ele><time>2026-04-19T09:45:41.511Z</time></trkpt><trkpt lat="39.0365483" lon="16.7711933"><ele>744.0</ele><time>2026-04-19T09:45:42.511Z</time></trkpt><trkpt lat="39.03655" lon="16.7713717"><ele>744.0</ele><time>2026-04-19T09:45:43.511Z</time></trkpt><trkpt lat="39.0365517" lon="16.7715483"><ele>744.0</ele><time>2026-04-19T09:45:44.511Z</time></trkpt><trkpt lat="39.0365717" lon="16.7717017"><ele>744.0</ele><time>2026-04-19T09:45:45.511Z</time></trkpt><trkpt lat="39.0366017" lon="16.7718383"><ele>744.0</ele><time>2026-04-19T09:45:46.511Z</time></trkpt><trkpt lat="39.0366467" lon="16.7719533"><ele>740.3333333333334</ele><time>2026-04-19T09:45:47.512Z</time></trkpt><trkpt lat="39.0367067" lon="16.7720517"><ele>736.6666666666666</ele><time>2026-04-19T09:45:48.511Z</time></trkpt><trkpt lat="39.03675" lon="16.77215"><ele>733.0</ele><time>2026-04-19T09:45:49.512Z</time></trkpt><trkpt lat="39.0367733" lon="16.772245"><ele>729.3333333333333</ele><time>2026-04-19T09:45:50.512Z</time></trkpt><trkpt lat="39.0367917" lon="16.77234"><ele>725.6666666666666</ele><time>2026-04-19T09:45:51.511Z</time></trkpt><trkpt lat="39.0367983" lon="16.7724283"><ele>722.0</ele><time>2026-04-19T09:45:52.511Z</time></trkpt><trkpt lat="39.036795" lon="16.7725133"><ele>722.0</ele><time>2026-04-19T09:45:53.511Z</time></trkpt><trkpt lat="39.0367683" lon="16.7726567"><ele>722.0</ele><time>2026-04-19T09:45:55.511Z</time></trkpt><trkpt lat="39.0367417" lon="16.7728083"><ele>722.0</ele><time>2026-04-19T09:45:57.512Z</time></trkpt><trkpt lat="39.0367267" lon="16.7728883"><ele>722.0</ele><time>2026-04-19T09:45:58.512Z</time></trkpt><trkpt lat="39.0367183" lon="16.7729717"><ele>722.0</ele><time>2026-04-19T09:45:59.511Z</time></trkpt><trkpt lat="39.0367067" lon="16.7730533"><ele>722.0</ele><time>2026-04-19T09:46:00.511Z</time></trkpt><trkpt lat="39.03669" lon="16.7732117"><ele>720.0</ele><time>2026-04-19T09:46:02.511Z</time></trkpt><trkpt lat="39.0366683" lon="16.7733633"><ele>718.0</ele><time>2026-04-19T09:46:04.511Z</time></trkpt><trkpt lat="39.0366467" lon="16.773525"><ele>716.0</ele><time>2026-04-19T09:46:06.511Z</time></trkpt><trkpt lat="39.0366383" lon="16.7736217"><ele>714.0</ele><time>2026-04-19T09:46:07.511Z</time></trkpt><trkpt lat="39.03663" lon="16.77373"><ele>712.0</ele><time>2026-04-19T09:46:08.511Z</time></trkpt><trkpt lat="39.0366167" lon="16.7738383"><ele>711.8</ele><time>2026-04-19T09:46:09.511Z</time></trkpt><trkpt lat="39.036595" lon="16.773945"><ele>711.6</ele><time>2026-04-19T09:46:10.512Z</time></trkpt><trkpt lat="39.0365683" lon="16.7740583"><ele>711.4</ele><time>2026-04-19T09:46:11.511Z</time></trkpt><trkpt lat="39.036535" lon="16.77417"><ele>711.1999999999999</ele><time>2026-04-19T09:46:12.511Z</time></trkpt><trkpt lat="39.036475" lon="16.7742783"><ele>711.0</ele><time>2026-04-19T09:46:13.511Z</time></trkpt><trkpt lat="39.0363967" lon="16.7743733"><ele>711.0</ele><time>2026-04-19T09:46:14.511Z</time></trkpt><trkpt lat="39.0362917" lon="16.7744717"><ele>711.0</ele><time>2026-04-19T09:46:15.511Z</time></trkpt><trkpt lat="39.036185" lon="16.7745817"><ele>711.0</ele><time>2026-04-19T09:46:16.512Z</time></trkpt><trkpt lat="39.03608" lon="16.774695"><ele>711.0</ele><time>2026-04-19T09:46:17.511Z</time></trkpt><trkpt lat="39.035975" lon="16.7748083"><ele>711.0</ele><time>2026-04-19T09:46:18.511Z</time></trkpt><trkpt lat="39.035855" lon="16.7749283"><ele>711.0</ele><time>2026-04-19T09:46:19.511Z</time></trkpt><trkpt lat="39.035745" lon="16.7750533"><ele>711.0</ele><time>2026-04-19T09:46:20.511Z</time></trkpt><trkpt lat="39.0356433" lon="16.775175"><ele>711.0</ele><time>2026-04-19T09:46:21.511Z</time></trkpt><trkpt lat="39.03555" lon="16.7752933"><ele>705.5</ele><time>2026-04-19T09:46:22.511Z</time></trkpt><trkpt lat="39.0354617" lon="16.775415"><ele>700.0</ele><time>2026-04-19T09:46:23.511Z</time></trkpt><trkpt lat="39.035405" lon="16.7755533"><ele>694.5</ele><time>2026-04-19T09:46:24.511Z</time></trkpt><trkpt lat="39.0353767" lon="16.77569"><ele>689.0</ele><time>2026-04-19T09:46:25.512Z</time></trkpt><trkpt lat="39.0353883" lon="16.7758417"><ele>689.0</ele><time>2026-04-19T09:46:26.511Z</time></trkpt><trkpt lat="39.0354317" lon="16.77598"><ele>689.0</ele><time>2026-04-19T09:46:27.512Z</time></trkpt><trkpt lat="39.0354833" lon="16.7761067"><ele>689.0</ele><time>2026-04-19T09:46:28.511Z</time></trkpt><trkpt lat="39.03551" lon="16.7762433"><ele>689.0</ele><time>2026-04-19T09:46:29.511Z</time></trkpt><trkpt lat="39.0355167" lon="16.7763783"><ele>689.0</ele><time>2026-04-19T09:46:30.511Z</time></trkpt><trkpt lat="39.0354883" lon="16.7765017"><ele>690.5</ele><time>2026-04-19T09:46:31.511Z</time></trkpt><trkpt lat="39.0354183" lon="16.7766"><ele>692.0</ele><time>2026-04-19T09:46:32.511Z</time></trkpt><trkpt lat="39.0353217" lon="16.776675"><ele>693.5</ele><time>2026-04-19T09:46:33.512Z</time></trkpt><trkpt lat="39.0352017" lon="16.7767267"><ele>695.0</ele><time>2026-04-19T09:46:34.511Z</time></trkpt><trkpt lat="39.035075" lon="16.7767867"><ele>692.25</ele><time>2026-04-19T09:46:35.511Z</time></trkpt><trkpt lat="39.034945" lon="16.7768567"><ele>689.5</ele><time>2026-04-19T09:46:36.512Z</time></trkpt><trkpt lat="39.034815" lon="16.7769267"><ele>686.75</ele><time>2026-04-19T09:46:37.512Z</time></trkpt><trkpt lat="39.0346833" lon="16.7770033"><ele>684.0</ele><time>2026-04-19T09:46:38.511Z</time></trkpt><trkpt lat="39.0345717" lon="16.77711"><ele>684.0</ele><time>2026-04-19T09:46:39.511Z</time></trkpt><trkpt lat="39.0344933" lon="16.7772533"><ele>684.0</ele><time>2026-04-19T09:46:40.511Z</time></trkpt><trkpt lat="39.0344233" lon="16.7774083"><ele>684.0</ele><time>2026-04-19T09:46:41.512Z</time></trkpt><trkpt lat="39.03437" lon="16.77757"><ele>684.0</ele><time>2026-04-19T09:46:42.511Z</time></trkpt><trkpt lat="39.0343017" lon="16.777705"><ele>685.25</ele><time>2026-04-19T09:46:43.511Z</time></trkpt><trkpt lat="39.034215" lon="16.7777983"><ele>686.5</ele><time>2026-04-19T09:46:44.511Z</time></trkpt><trkpt lat="39.0341033" lon="16.7778383"><ele>687.75</ele><time>2026-04-19T09:46:45.511Z</time></trkpt><trkpt lat="39.0339783" lon="16.77785"><ele>689.0</ele><time>2026-04-19T09:46:46.511Z</time></trkpt><trkpt lat="39.033865" lon="16.7778417"><ele>686.6</ele><time>2026-04-19T09:46:47.512Z</time></trkpt><trkpt lat="39.0337583" lon="16.777835"><ele>684.2</ele><time>2026-04-19T09:46:48.511Z</time></trkpt><trkpt lat="39.0336517" lon="16.7778533"><ele>681.8000000000001</ele><time>2026-04-19T09:46:49.511Z</time></trkpt><trkpt lat="39.0335583" lon="16.7779133"><ele>679.4000000000001</ele><time>2026-04-19T09:46:50.512Z</time></trkpt><trkpt lat="39.033475" lon="16.7780183"><ele>677.0</ele><time>2026-04-19T09:46:51.511Z</time></trkpt><trkpt lat="39.0333917" lon="16.7781717"><ele>670.25</ele><time>2026-04-19T09:46:52.511Z</time></trkpt><trkpt lat="39.0332983" lon="16.7783367"><ele>663.5</ele><time>2026-04-19T09:46:53.511Z</time></trkpt><trkpt lat="39.033225" lon="16.778505"><ele>656.75</ele><time>2026-04-19T09:46:54.511Z</time></trkpt><trkpt lat="39.0331817" lon="16.7786767"><ele>650.0</ele><time>2026-04-19T09:46:55.511Z</time></trkpt><trkpt lat="39.0331767" lon="16.7788467"><ele>650.0</ele><time>2026-04-19T09:46:56.511Z</time></trkpt><trkpt lat="39.033225" lon="16.779"><ele>650.0</ele><time>2026-04-19T09:46:57.511Z</time></trkpt><trkpt lat="39.0333" lon="16.779145"><ele>650.0</ele><time>2026-04-19T09:46:58.511Z</time></trkpt><trkpt lat="39.0333933" lon="16.7792867"><ele>650.0</ele><time>2026-04-19T09:46:59.511Z</time></trkpt><trkpt lat="39.0334767" lon="16.7794267"><ele>656.0</ele><time>2026-04-19T09:47:00.511Z</time></trkpt><trkpt lat="39.0335383" lon="16.7795917"><ele>662.0</ele><time>2026-04-19T09:47:01.512Z</time></trkpt><trkpt lat="39.0335517" lon="16.77977"><ele>668.0</ele><time>2026-04-19T09:47:02.511Z</time></trkpt><trkpt lat="39.0335033" lon="16.7799583"><ele>674.0</ele><time>2026-04-19T09:47:03.512Z</time></trkpt><trkpt lat="39.0334367" lon="16.7801483"><ele>675.3333333333333</ele><time>2026-04-19T09:47:04.512Z</time></trkpt><trkpt lat="39.0333817" lon="16.780335"><ele>676.6666666666666</ele><time>2026-04-19T09:47:05.511Z</time></trkpt><trkpt lat="39.03333" lon="16.7805167"><ele>678.0</ele><time>2026-04-19T09:47:06.511Z</time></trkpt><trkpt lat="39.0332717" lon="16.7806867"><ele>675.75</ele><time>2026-04-19T09:47:07.512Z</time></trkpt><trkpt lat="39.0332067" lon="16.78083"><ele>673.5</ele><time>2026-04-19T09:47:08.512Z</time></trkpt><trkpt lat="39.033115" lon="16.7809317"><ele>671.25</ele><time>2026-04-19T09:47:09.511Z</time></trkpt><trkpt lat="39.0330083" lon="16.7809617"><ele>669.0</ele><time>2026-04-19T09:47:10.511Z</time></trkpt><trkpt lat="39.0328867" lon="16.780935"><ele>669.0</ele><time>2026-04-19T09:47:11.512Z</time></trkpt><trkpt lat="39.0327733" lon="16.7808467"><ele>669.0</ele><time>2026-04-19T09:47:12.511Z</time></trkpt><trkpt lat="39.0326517" lon="16.7807283"><ele>669.0</ele><time>2026-04-19T09:47:13.511Z</time></trkpt><trkpt lat="39.0325133" lon="16.7806167"><ele>669.0</ele><time>2026-04-19T09:47:14.511Z</time></trkpt><trkpt lat="39.0323683" lon="16.7805217"><ele>667.75</ele><time>2026-04-19T09:47:15.511Z</time></trkpt><trkpt lat="39.0322217" lon="16.7804333"><ele>666.5</ele><time>2026-04-19T09:47:16.511Z</time></trkpt><trkpt lat="39.032085" lon="16.78037"><ele>665.25</ele><time>2026-04-19T09:47:17.511Z</time></trkpt><trkpt lat="39.0319567" lon="16.7803033"><ele>664.0</ele><time>2026-04-19T09:47:18.512Z</time></trkpt><trkpt lat="39.0318333" lon="16.7802517"><ele>664.0</ele><time>2026-04-19T09:47:19.511Z</time></trkpt><trkpt lat="39.0317083" lon="16.780225"><ele>664.0</ele><time>2026-04-19T09:47:20.511Z</time></trkpt><trkpt lat="39.0315783" lon="16.7802483"><ele>664.0</ele><time>2026-04-19T09:47:21.511Z</time></trkpt><trkpt lat="39.03145" lon="16.7803233"><ele>664.0</ele><time>2026-04-19T09:47:22.512Z</time></trkpt><trkpt lat="39.0313283" lon="16.7804367"><ele>658.0</ele><time>2026-04-19T09:47:23.511Z</time></trkpt><trkpt lat="39.0312083" lon="16.7805833"><ele>652.0</ele><time>2026-04-19T09:47:24.511Z</time></trkpt><trkpt lat="39.0310583" lon="16.7807383"><ele>646.0</ele><time>2026-04-19T09:47:25.511Z</time></trkpt><trkpt lat="39.0309267" lon="16.78088"><ele>644.3333333333334</ele><time>2026-04-19T09:47:26.511Z</time></trkpt><trkpt lat="39.0307833" lon="16.7810067"><ele>642.6666666666666</ele><time>2026-04-19T09:47:27.511Z</time></trkpt><trkpt lat="39.0306333" lon="16.7811167"><ele>641.0</ele><time>2026-04-19T09:47:28.511Z</time></trkpt><trkpt lat="39.03048" lon="16.78121"><ele>641.0</ele><time>2026-04-19T09:47:29.511Z</time></trkpt><trkpt lat="39.0303233" lon="16.78131"><ele>641.0</ele><time>2026-04-19T09:47:30.511Z</time></trkpt><trkpt lat="39.0301767" lon="16.7814"><ele>641.0</ele><time>2026-04-19T09:47:31.511Z</time></trkpt><trkpt lat="39.03003" lon="16.7815"><ele>632.6666666666666</ele><time>2026-04-19T09:47:32.511Z</time></trkpt><trkpt lat="39.0298883" lon="16.78158"><ele>624.3333333333334</ele><time>2026-04-19T09:47:33.512Z</time></trkpt><trkpt lat="39.029745" lon="16.7816683"><ele>616.0</ele><time>2026-04-19T09:47:34.512Z</time></trkpt><trkpt lat="39.0296183" lon="16.78176"><ele>618.75</ele><time>2026-04-19T09:47:35.511Z</time></trkpt><trkpt lat="39.0295017" lon="16.7818717"><ele>621.5</ele><time>2026-04-19T09:47:36.511Z</time></trkpt><trkpt lat="39.029405" lon="16.78202"><ele>624.25</ele><time>2026-04-19T09:47:37.511Z</time></trkpt><trkpt lat="39.0293233" lon="16.7821783"><ele>627.0</ele><time>2026-04-19T09:47:38.511Z</time></trkpt><trkpt lat="39.02924" lon="16.7823317"><ele>627.0</ele><time>2026-04-19T09:47:39.511Z</time></trkpt><trkpt lat="39.0291633" lon="16.7824767"><ele>627.0</ele><time>2026-04-19T09:47:40.511Z</time></trkpt><trkpt lat="39.0290833" lon="16.7826167"><ele>627.0</ele><time>2026-04-19T09:47:41.511Z</time></trkpt><trkpt lat="39.0290183" lon="16.7827567"><ele>627.0</ele><time>2026-04-19T09:47:42.511Z</time></trkpt><trkpt lat="39.0289867" lon="16.78291"><ele>625.0</ele><time>2026-04-19T09:47:43.511Z</time></trkpt><trkpt lat="39.0290217" lon="16.78307"><ele>623.0</ele><time>2026-04-19T09:47:44.511Z</time></trkpt><trkpt lat="39.02908" lon="16.78322"><ele>621.0</ele><time>2026-04-19T09:47:45.512Z</time></trkpt><trkpt lat="39.0291567" lon="16.78336"><ele>619.0</ele><time>2026-04-19T09:47:46.511Z</time></trkpt><trkpt lat="39.029235" lon="16.783485"><ele>616.25</ele><time>2026-04-19T09:47:47.511Z</time></trkpt><trkpt lat="39.0293433" lon="16.7835867"><ele>613.5</ele><time>2026-04-19T09:47:48.512Z</time></trkpt><trkpt lat="39.02947" lon="16.7836583"><ele>610.75</ele><time>2026-04-19T09:47:49.511Z</time></trkpt><trkpt lat="39.0296033" lon="16.7836917"><ele>608.0</ele><time>2026-04-19T09:47:50.511Z</time></trkpt><trkpt lat="39.0297317" lon="16.7837133"><ele>608.0</ele><time>2026-04-19T09:47:51.511Z</time></trkpt><trkpt lat="39.0298383" lon="16.7837633"><ele>608.0</ele><time>2026-04-19T09:47:52.511Z</time></trkpt><trkpt lat="39.02992" lon="16.78386"><ele>608.0</ele><time>2026-04-19T09:47:53.511Z</time></trkpt><trkpt lat="39.0299683" lon="16.783995"><ele>608.0</ele><time>2026-04-19T09:47:54.511Z</time></trkpt><trkpt lat="39.0299583" lon="16.78414"><ele>608.0</ele><time>2026-04-19T09:47:55.512Z</time></trkpt><trkpt lat="39.029915" lon="16.7842933"><ele>608.0</ele><time>2026-04-19T09:47:56.512Z</time></trkpt><trkpt lat="39.0298783" lon="16.7844567"><ele>608.0</ele><time>2026-04-19T09:47:57.511Z</time></trkpt><trkpt lat="39.029875" lon="16.7846117"><ele>608.0</ele><time>2026-04-19T09:47:58.511Z</time></trkpt><trkpt lat="39.0299167" lon="16.78475"><ele>608.5</ele><time>2026-04-19T09:47:59.511Z</time></trkpt><trkpt lat="39.029995" lon="16.7848833"><ele>609.0</ele><time>2026-04-19T09:48:00.511Z</time></trkpt><trkpt lat="39.0300783" lon="16.78502"><ele>609.5</ele><time>2026-04-19T09:48:01.511Z</time></trkpt><trkpt lat="39.0301633" lon="16.7851567"><ele>610.0</ele><time>2026-04-19T09:48:02.511Z</time></trkpt><trkpt lat="39.0302517" lon="16.78527"><ele>605.5</ele><time>2026-04-19T09:48:03.512Z</time></trkpt><trkpt lat="39.030355" lon="16.7853567"><ele>601.0</ele><time>2026-04-19T09:48:04.511Z</time></trkpt><trkpt lat="39.03047" lon="16.7853967"><ele>596.5</ele><time>2026-04-19T09:48:05.512Z</time></trkpt><trkpt lat="39.0305817" lon="16.78538"><ele>592.0</ele><time>2026-04-19T09:48:06.511Z</time></trkpt><trkpt lat="39.03069" lon="16.7853117"><ele>592.0</ele><time>2026-04-19T09:48:07.511Z</time></trkpt><trkpt lat="39.0307883" lon="16.78522"><ele>592.0</ele><time>2026-04-19T09:48:08.511Z</time></trkpt><trkpt lat="39.0308917" lon="16.7851133"><ele>592.0</ele><time>2026-04-19T09:48:09.511Z</time></trkpt><trkpt lat="39.03099" lon="16.7850183"><ele>592.0</ele><time>2026-04-19T09:48:10.511Z</time></trkpt><trkpt lat="39.0310833" lon="16.784945"><ele>592.8000000000001</ele><time>2026-04-19T09:48:11.511Z</time></trkpt><trkpt lat="39.0311767" lon="16.7849"><ele>593.6</ele><time>2026-04-19T09:48:12.511Z</time></trkpt><trkpt lat="39.0312667" lon="16.7849133"><ele>594.4000000000001</ele><time>2026-04-19T09:48:13.511Z</time></trkpt><trkpt lat="39.0313583" lon="16.7849833"><ele>595.2</ele><time>2026-04-19T09:48:14.511Z</time></trkpt><trkpt lat="39.0314033" lon="16.785095"><ele>596.0</ele><time>2026-04-19T09:48:15.511Z</time></trkpt><trkpt lat="39.0314033" lon="16.78523"><ele>596.0</ele><time>2026-04-19T09:48:16.511Z</time></trkpt><trkpt lat="39.03136" lon="16.78537"><ele>596.0</ele><time>2026-04-19T09:48:17.512Z</time></trkpt><trkpt lat="39.0312833" lon="16.785505"><ele>596.0</ele><time>2026-04-19T09:48:18.511Z</time></trkpt><trkpt lat="39.0311733" lon="16.7856517"><ele>596.0</ele><time>2026-04-19T09:48:19.511Z</time></trkpt><trkpt lat="39.0310783" lon="16.7858033"><ele>596.0</ele><time>2026-04-19T09:48:20.511Z</time></trkpt><trkpt lat="39.0309883" lon="16.78595"><ele>596.0</ele><time>2026-04-19T09:48:21.511Z</time></trkpt><trkpt lat="39.0309083" lon="16.7860833"><ele>596.0</ele><time>2026-04-19T09:48:22.511Z</time></trkpt><trkpt lat="39.0308617" lon="16.786225"><ele>596.0</ele><time>2026-04-19T09:48:23.511Z</time></trkpt><trkpt lat="39.0308483" lon="16.78639"><ele>594.0</ele><time>2026-04-19T09:48:24.512Z</time></trkpt><trkpt lat="39.0308733" lon="16.78657"><ele>592.0</ele><time>2026-04-19T09:48:25.511Z</time></trkpt><trkpt lat="39.030905" lon="16.7867517"><ele>590.0</ele><time>2026-04-19T09:48:26.511Z</time></trkpt><trkpt lat="39.030955" lon="16.7869367"><ele>588.0</ele><time>2026-04-19T09:48:27.512Z</time></trkpt><trkpt lat="39.0310067" lon="16.7871233"><ele>585.0</ele><time>2026-04-19T09:48:28.511Z</time></trkpt><trkpt lat="39.0310483" lon="16.78731"><ele>582.0</ele><time>2026-04-19T09:48:29.511Z</time></trkpt><trkpt lat="39.0310533" lon="16.7875033"><ele>579.0</ele><time>2026-04-19T09:48:30.511Z</time></trkpt><trkpt lat="39.0310233" lon="16.7877017"><ele>578.0</ele><time>2026-04-19T09:48:31.511Z</time></trkpt><trkpt lat="39.0309683" lon="16.78789"><ele>577.0</ele><time>2026-04-19T09:48:32.511Z</time></trkpt><trkpt lat="39.0309083" lon="16.7880783"><ele>576.0</ele><time>2026-04-19T09:48:33.511Z</time></trkpt><trkpt lat="39.03087" lon="16.788245"><ele>575.0</ele><time>2026-04-19T09:48:34.512Z</time></trkpt><trkpt lat="39.030855" lon="16.788405"><ele>571.0</ele><time>2026-04-19T09:48:35.511Z</time></trkpt><trkpt lat="39.0308883" lon="16.7885533"><ele>567.0</ele><time>2026-04-19T09:48:36.511Z</time></trkpt><trkpt lat="39.03096" lon="16.7886683"><ele>563.0</ele><time>2026-04-19T09:48:37.512Z</time></trkpt><trkpt lat="39.0310633" lon="16.7887567"><ele>559.0</ele><time>2026-04-19T09:48:38.511Z</time></trkpt><trkpt lat="39.0311967" lon="16.7888083"><ele>559.0</ele><time>2026-04-19T09:48:39.511Z</time></trkpt><trkpt lat="39.0313433" lon="16.78885"><ele>559.0</ele><time>2026-04-19T09:48:40.511Z</time></trkpt><trkpt lat="39.0314967" lon="16.788895"><ele>559.0</ele><time>2026-04-19T09:48:41.512Z</time></trkpt><trkpt lat="39.0316467" lon="16.7889267"><ele>560.0</ele><time>2026-04-19T09:48:42.511Z</time></trkpt><trkpt lat="39.031805" lon="16.788925"><ele>561.0</ele><time>2026-04-19T09:48:43.511Z</time></trkpt><trkpt lat="39.0319717" lon="16.78889"><ele>562.0</ele><time>2026-04-19T09:48:44.511Z</time></trkpt><trkpt lat="39.0321133" lon="16.7888867"><ele>562.0</ele><time>2026-04-19T09:48:45.511Z</time></trkpt><trkpt lat="39.0322517" lon="16.7888833"><ele>562.0</ele><time>2026-04-19T09:48:46.511Z</time></trkpt><trkpt lat="39.0323733" lon="16.7889233"><ele>562.0</ele><time>2026-04-19T09:48:47.511Z</time></trkpt><trkpt lat="39.032485" lon="16.7890233"><ele>562.0</ele><time>2026-04-19T09:48:48.511Z</time></trkpt><trkpt lat="39.0325917" lon="16.7891433"><ele>563.25</ele><time>2026-04-19T09:48:49.511Z</time></trkpt><trkpt lat="39.0326967" lon="16.7892533"><ele>564.5</ele><time>2026-04-19T09:48:50.512Z</time></trkpt><trkpt lat="39.0328133" lon="16.7893217"><ele>565.75</ele><time>2026-04-19T09:48:51.511Z</time></trkpt><trkpt lat="39.03294" lon="16.78934"><ele>567.0</ele><time>2026-04-19T09:48:52.511Z</time></trkpt><trkpt lat="39.0330733" lon="16.78932"><ele>567.0</ele><time>2026-04-19T09:48:53.511Z</time></trkpt><trkpt lat="39.0331983" lon="16.78927"><ele>567.0</ele><time>2026-04-19T09:48:54.511Z</time></trkpt><trkpt lat="39.033305" lon="16.7892283"><ele>567.0</ele><time>2026-04-19T09:48:55.511Z</time></trkpt><trkpt lat="39.0333867" lon="16.789235"><ele>567.0</ele><time>2026-04-19T09:48:56.512Z</time></trkpt><trkpt lat="39.0334417" lon="16.789315"><ele>567.0</ele><time>2026-04-19T09:48:57.511Z</time></trkpt><trkpt lat="39.03345" lon="16.7894033"><ele>560.0</ele><time>2026-04-19T09:48:58.511Z</time></trkpt><trkpt lat="39.03341" lon="16.78948"><ele>553.0</ele><time>2026-04-19T09:48:59.511Z</time></trkpt><trkpt lat="39.033315" lon="16.7895367"><ele>546.0</ele><time>2026-04-19T09:49:00.512Z</time></trkpt><trkpt lat="39.0331567" lon="16.7895667"><ele>539.0</ele><time>2026-04-19T09:49:01.511Z</time></trkpt><trkpt lat="39.0329733" lon="16.789545"><ele>537.6666666666666</ele><time>2026-04-19T09:49:02.511Z</time></trkpt><trkpt lat="39.032805" lon="16.78951"><ele>536.3333333333334</ele><time>2026-04-19T09:49:03.511Z</time></trkpt><trkpt lat="39.0326533" lon="16.7894633"><ele>535.0</ele><time>2026-04-19T09:49:04.511Z</time></trkpt><trkpt lat="39.0325133" lon="16.7894033"><ele>541.75</ele><time>2026-04-19T09:49:05.511Z</time></trkpt><trkpt lat="39.0323917" lon="16.78933"><ele>548.5</ele><time>2026-04-19T09:49:06.512Z</time></trkpt><trkpt lat="39.0322617" lon="16.7892967"><ele>555.25</ele><time>2026-04-19T09:49:07.512Z</time></trkpt><trkpt lat="39.0321267" lon="16.7893083"><ele>562.0</ele><time>2026-04-19T09:49:08.511Z</time></trkpt><trkpt lat="39.0319833" lon="16.78934"><ele>554.5</ele><time>2026-04-19T09:49:09.511Z</time></trkpt><trkpt lat="39.0318533" lon="16.7893833"><ele>547.0</ele><time>2026-04-19T09:49:10.512Z</time></trkpt><trkpt lat="39.0317183" lon="16.7894267"><ele>539.5</ele><time>2026-04-19T09:49:11.511Z</time></trkpt><trkpt lat="39.0315817" lon="16.7894683"><ele>532.0</ele><time>2026-04-19T09:49:12.512Z</time></trkpt><trkpt lat="39.0314517" lon="16.789515"><ele>532.0</ele><time>2026-04-19T09:49:13.511Z</time></trkpt><trkpt lat="39.0313183" lon="16.78956"><ele>532.0</ele><time>2026-04-19T09:49:14.511Z</time></trkpt><trkpt lat="39.0311867" lon="16.7896067"><ele>532.0</ele><time>2026-04-19T09:49:15.511Z</time></trkpt><trkpt lat="39.0310517" lon="16.7896417"><ele>532.0</ele><time>2026-04-19T09:49:16.511Z</time></trkpt><trkpt lat="39.030925" lon="16.7896617"><ele>527.25</ele><time>2026-04-19T09:49:17.512Z</time></trkpt><trkpt lat="39.0308017" lon="16.7896783"><ele>522.5</ele><time>2026-04-19T09:49:18.511Z</time></trkpt><trkpt lat="39.030685" lon="16.789685"><ele>517.75</ele><time>2026-04-19T09:49:19.512Z</time></trkpt><trkpt lat="39.0305783" lon="16.78969"><ele>513.0</ele><time>2026-04-19T09:49:20.511Z</time></trkpt><trkpt lat="39.030475" lon="16.7896917"><ele>513.0</ele><time>2026-04-19T09:49:21.511Z</time></trkpt><trkpt lat="39.03037" lon="16.7896683"><ele>513.0</ele><time>2026-04-19T09:49:22.512Z</time></trkpt><trkpt lat="39.0302767" lon="16.7896067"><ele>513.0</ele><time>2026-04-19T09:49:23.512Z</time></trkpt><trkpt lat="39.0301967" lon="16.7895033"><ele>513.0</ele><time>2026-04-19T09:49:24.511Z</time></trkpt><trkpt lat="39.0301183" lon="16.7893967"><ele>513.0</ele><time>2026-04-19T09:49:25.512Z</time></trkpt><trkpt lat="39.0300417" lon="16.7892817"><ele>513.75</ele><time>2026-04-19T09:49:26.512Z</time></trkpt><trkpt lat="39.0299667" lon="16.7891567"><ele>514.5</ele><time>2026-04-19T09:49:27.511Z</time></trkpt><trkpt lat="39.0298917" lon="16.78904"><ele>515.25</ele><time>2026-04-19T09:49:28.511Z</time></trkpt><trkpt lat="39.029805" lon="16.7889233"><ele>516.0</ele><time>2026-04-19T09:49:29.511Z</time></trkpt><trkpt lat="39.0297117" lon="16.788805"><ele>516.0</ele><time>2026-04-19T09:49:30.512Z</time></trkpt><trkpt lat="39.0296033" lon="16.7887033"><ele>516.0</ele><time>2026-04-19T09:49:31.511Z</time></trkpt><trkpt lat="39.029475" lon="16.7886333"><ele>516.0</ele><time>2026-04-19T09:49:32.511Z</time></trkpt><trkpt lat="39.0293483" lon="16.788595"><ele>516.0</ele><time>2026-04-19T09:49:33.511Z</time></trkpt><trkpt lat="39.0292" lon="16.788575"><ele>515.3333333333334</ele><time>2026-04-19T09:49:34.511Z</time></trkpt><trkpt lat="39.0290483" lon="16.7885717"><ele>514.6666666666667</ele><time>2026-04-19T09:49:35.511Z</time></trkpt><trkpt lat="39.0288783" lon="16.78858"><ele>514.0</ele><time>2026-04-19T09:49:36.511Z</time></trkpt><trkpt lat="39.0287133" lon="16.7885733"><ele>514.0</ele><time>2026-04-19T09:49:37.511Z</time></trkpt><trkpt lat="39.0285483" lon="16.78857"><ele>514.0</ele><time>2026-04-19T09:49:38.512Z</time></trkpt><trkpt lat="39.0283883" lon="16.7885583"><ele>514.0</ele><time>2026-04-19T09:49:39.511Z</time></trkpt><trkpt lat="39.0282417" lon="16.7885533"><ele>513.0</ele><time>2026-04-19T09:49:40.512Z</time></trkpt><trkpt lat="39.0280967" lon="16.7885667"><ele>512.0</ele><time>2026-04-19T09:49:41.511Z</time></trkpt><trkpt lat="39.0279533" lon="16.7886267"><ele>511.0</ele><time>2026-04-19T09:49:42.511Z</time></trkpt><trkpt lat="39.027825" lon="16.7887117"><ele>510.0</ele><time>2026-04-19T09:49:43.511Z</time></trkpt><trkpt lat="39.0277067" lon="16.78881"><ele>510.0</ele><time>2026-04-19T09:49:44.512Z</time></trkpt><trkpt lat="39.0275933" lon="16.78891"><ele>510.0</ele><time>2026-04-19T09:49:45.511Z</time></trkpt><trkpt lat="39.02747" lon="16.7889933"><ele>510.0</ele><time>2026-04-19T09:49:46.511Z</time></trkpt><trkpt lat="39.0273333" lon="16.78904"><ele>510.0</ele><time>2026-04-19T09:49:47.511Z</time></trkpt><trkpt lat="39.0271983" lon="16.7890383"><ele>506.25</ele><time>2026-04-19T09:49:48.511Z</time></trkpt><trkpt lat="39.0270567" lon="16.788985"><ele>502.5</ele><time>2026-04-19T09:49:49.511Z</time></trkpt><trkpt lat="39.0269267" lon="16.7889083"><ele>498.75</ele><time>2026-04-19T09:49:50.512Z</time></trkpt><trkpt lat="39.02679" lon="16.7888133"><ele>495.0</ele><time>2026-04-19T09:49:51.512Z</time></trkpt><trkpt lat="39.0266617" lon="16.788735"><ele>487.5</ele><time>2026-04-19T09:49:52.511Z</time></trkpt><trkpt lat="39.0265467" lon="16.78863"><ele>480.0</ele><time>2026-04-19T09:49:53.511Z</time></trkpt><trkpt lat="39.0264683" lon="16.788515"><ele>472.5</ele><time>2026-04-19T09:49:54.511Z</time></trkpt><trkpt lat="39.026425" lon="16.788385"><ele>465.0</ele><time>2026-04-19T09:49:55.512Z</time></trkpt><trkpt lat="39.0264183" lon="16.7882483"><ele>465.0</ele><time>2026-04-19T09:49:56.511Z</time></trkpt><trkpt lat="39.0264567" lon="16.7880867"><ele>465.0</ele><time>2026-04-19T09:49:57.512Z</time></trkpt><trkpt lat="39.0265333" lon="16.78793"><ele>465.0</ele><time>2026-04-19T09:49:58.511Z</time></trkpt><trkpt lat="39.0266233" lon="16.7877917"><ele>465.0</ele><time>2026-04-19T09:49:59.511Z</time></trkpt><trkpt lat="39.0267117" lon="16.7876617"><ele>476.25</ele><time>2026-04-19T09:50:00.512Z</time></trkpt><trkpt lat="39.0267817" lon="16.7875333"><ele>487.5</ele><time>2026-04-19T09:50:01.511Z</time></trkpt><trkpt lat="39.0268283" lon="16.787405"><ele>498.75</ele><time>2026-04-19T09:50:02.512Z</time></trkpt><trkpt lat="39.0268483" lon="16.7872633"><ele>510.0</ele><time>2026-04-19T09:50:03.512Z</time></trkpt><trkpt lat="39.0268483" lon="16.7871233"><ele>510.0</ele><time>2026-04-19T09:50:04.511Z</time></trkpt><trkpt lat="39.0268167" lon="16.7870017"><ele>510.0</ele><time>2026-04-19T09:50:05.511Z</time></trkpt><trkpt lat="39.0267517" lon="16.7869183"><ele>510.0</ele><time>2026-04-19T09:50:06.511Z</time></trkpt><trkpt lat="39.0266833" lon="16.786895"><ele>510.0</ele><time>2026-04-19T09:50:07.511Z</time></trkpt><trkpt lat="39.0265817" lon="16.7869233"><ele>510.0</ele><time>2026-04-19T09:50:08.512Z</time></trkpt><trkpt lat="39.0264567" lon="16.7869617"><ele>502.75</ele><time>2026-04-19T09:50:09.511Z</time></trkpt><trkpt lat="39.0263283" lon="16.78697"><ele>495.5</ele><time>2026-04-19T09:50:10.511Z</time></trkpt><trkpt lat="39.0261883" lon="16.78696"><ele>488.25</ele><time>2026-04-19T09:50:11.511Z</time></trkpt><trkpt lat="39.0260467" lon="16.786955"><ele>481.0</ele><time>2026-04-19T09:50:12.511Z</time></trkpt><trkpt lat="39.0259117" lon="16.786945"><ele>478.5</ele><time>2026-04-19T09:50:13.511Z</time></trkpt><trkpt lat="39.0257933" lon="16.78693"><ele>476.0</ele><time>2026-04-19T09:50:14.511Z</time></trkpt><trkpt lat="39.0257017" lon="16.7868583"><ele>473.5</ele><time>2026-04-19T09:50:15.511Z</time></trkpt><trkpt lat="39.025615" lon="16.7867583"><ele>471.0</ele><time>2026-04-19T09:50:16.511Z</time></trkpt><trkpt lat="39.0255283" lon="16.7866333"><ele>476.5</ele><time>2026-04-19T09:50:17.511Z</time></trkpt><trkpt lat="39.0254467" lon="16.7864967"><ele>482.0</ele><time>2026-04-19T09:50:18.511Z</time></trkpt><trkpt lat="39.025375" lon="16.7863383"><ele>487.5</ele><time>2026-04-19T09:50:19.511Z</time></trkpt><trkpt lat="39.0253133" lon="16.7862"><ele>493.0</ele><time>2026-04-19T09:50:20.511Z</time></trkpt><trkpt lat="39.0252517" lon="16.786075"><ele>495.4</ele><time>2026-04-19T09:50:21.511Z</time></trkpt><trkpt lat="39.0251833" lon="16.785995"><ele>497.79999999999995</ele><time>2026-04-19T09:50:22.511Z</time></trkpt><trkpt lat="39.02509" lon="16.78596"><ele>500.2</ele><time>2026-04-19T09:50:23.511Z</time></trkpt><trkpt lat="39.02499" lon="16.7859833"><ele>502.6</ele><time>2026-04-19T09:50:24.511Z</time></trkpt><trkpt lat="39.024895" lon="16.786065"><ele>505.0</ele><time>2026-04-19T09:50:25.511Z</time></trkpt><trkpt lat="39.0248383" lon="16.7862033"><ele>505.0</ele><time>2026-04-19T09:50:26.511Z</time></trkpt><trkpt lat="39.02479" lon="16.7863767"><ele>505.0</ele><time>2026-04-19T09:50:27.512Z</time></trkpt><trkpt lat="39.024755" lon="16.786575"><ele>505.0</ele><time>2026-04-19T09:50:28.511Z</time></trkpt><trkpt lat="39.0247267" lon="16.7867883"><ele>500.25</ele><time>2026-04-19T09:50:29.511Z</time></trkpt><trkpt lat="39.0246867" lon="16.78699"><ele>495.5</ele><time>2026-04-19T09:50:30.511Z</time></trkpt><trkpt lat="39.0246617" lon="16.78718"><ele>490.75</ele><time>2026-04-19T09:50:31.511Z</time></trkpt><trkpt lat="39.02464" lon="16.7873517"><ele>486.0</ele><time>2026-04-19T09:50:32.511Z</time></trkpt><trkpt lat="39.0246183" lon="16.7875"><ele>486.0</ele><time>2026-04-19T09:50:33.511Z</time></trkpt><trkpt lat="39.024595" lon="16.787625"><ele>486.0</ele><time>2026-04-19T09:50:34.511Z</time></trkpt><trkpt lat="39.024555" lon="16.787725"><ele>486.0</ele><time>2026-04-19T09:50:35.511Z</time></trkpt><trkpt lat="39.0244783" lon="16.7877967"><ele>486.0</ele><time>2026-04-19T09:50:36.511Z</time></trkpt><trkpt lat="39.0243783" lon="16.78782"><ele>486.0</ele><time>2026-04-19T09:50:37.512Z</time></trkpt><trkpt lat="39.0242633" lon="16.7877967"><ele>478.75</ele><time>2026-04-19T09:50:38.511Z</time></trkpt><trkpt lat="39.0241383" lon="16.78773"><ele>471.5</ele><time>2026-04-19T09:50:39.511Z</time></trkpt><trkpt lat="39.0239983" lon="16.787645"><ele>464.25</ele><time>2026-04-19T09:50:40.512Z</time></trkpt><trkpt lat="39.02387" lon="16.7875283"><ele>457.0</ele><time>2026-04-19T09:50:41.511Z</time></trkpt><trkpt lat="39.0237383" lon="16.7874283"><ele>457.0</ele><time>2026-04-19T09:50:42.511Z</time></trkpt><trkpt lat="39.023615" lon="16.7873367"><ele>457.0</ele><time>2026-04-19T09:50:43.511Z</time></trkpt><trkpt lat="39.0235133" lon="16.7872467"><ele>457.0</ele><time>2026-04-19T09:50:44.511Z</time></trkpt><trkpt lat="39.0234333" lon="16.7871483"><ele>457.0</ele><time>2026-04-19T09:50:45.512Z</time></trkpt><trkpt lat="39.0233733" lon="16.787035"><ele>457.0</ele><time>2026-04-19T09:50:46.511Z</time></trkpt><trkpt lat="39.0233567" lon="16.7868933"><ele>457.0</ele><time>2026-04-19T09:50:47.511Z</time></trkpt><trkpt lat="39.0233667" lon="16.7867367"><ele>457.0</ele><time>2026-04-19T09:50:48.512Z</time></trkpt><trkpt lat="39.0233767" lon="16.7865767"><ele>457.0</ele><time>2026-04-19T09:50:49.511Z</time></trkpt><trkpt lat="39.0233867" lon="16.7864233"><ele>454.5</ele><time>2026-04-19T09:50:50.512Z</time></trkpt><trkpt lat="39.0233817" lon="16.78627"><ele>452.0</ele><time>2026-04-19T09:50:51.511Z</time></trkpt><trkpt lat="39.02334" lon="16.786135"><ele>449.5</ele><time>2026-04-19T09:50:52.512Z</time></trkpt><trkpt lat="39.0232833" lon="16.786005"><ele>447.0</ele><time>2026-04-19T09:50:53.511Z</time></trkpt><trkpt lat="39.02322" lon="16.7858833"><ele>447.0</ele><time>2026-04-19T09:50:54.512Z</time></trkpt><trkpt lat="39.023135" lon="16.7857717"><ele>447.0</ele><time>2026-04-19T09:50:55.511Z</time></trkpt><trkpt lat="39.02303" lon="16.7856867"><ele>447.0</ele><time>2026-04-19T09:50:56.511Z</time></trkpt><trkpt lat="39.0229167" lon="16.78563"><ele>447.0</ele><time>2026-04-19T09:50:57.511Z</time></trkpt><trkpt lat="39.0228133" lon="16.7855517"><ele>447.0</ele><time>2026-04-19T09:50:58.511Z</time></trkpt><trkpt lat="39.0227283" lon="16.7854483"><ele>447.0</ele><time>2026-04-19T09:50:59.511Z</time></trkpt><trkpt lat="39.022675" lon="16.7853183"><ele>447.0</ele><time>2026-04-19T09:51:00.511Z</time></trkpt><trkpt lat="39.0226483" lon="16.7851833"><ele>447.0</ele><time>2026-04-19T09:51:01.512Z</time></trkpt><trkpt lat="39.02266" lon="16.7850417"><ele>449.40000000000003</ele><time>2026-04-19T09:51:02.511Z</time></trkpt><trkpt lat="39.022715" lon="16.7849033"><ele>451.80000000000007</ele><time>2026-04-19T09:51:03.511Z</time></trkpt><trkpt lat="39.022775" lon="16.7847767"><ele>454.2</ele><time>2026-04-19T09:51:04.511Z</time></trkpt><trkpt lat="39.0228217" lon="16.7846567"><ele>456.6</ele><time>2026-04-19T09:51:05.511Z</time></trkpt><trkpt lat="39.0228267" lon="16.784535"><ele>459.0</ele><time>2026-04-19T09:51:06.511Z</time></trkpt><trkpt lat="39.0227967" lon="16.7844333"><ele>459.0</ele><time>2026-04-19T09:51:07.511Z</time></trkpt><trkpt lat="39.0227333" lon="16.78436"><ele>459.0</ele><time>2026-04-19T09:51:08.512Z</time></trkpt><trkpt lat="39.0226533" lon="16.7843083"><ele>459.0</ele><time>2026-04-19T09:51:09.511Z</time></trkpt><trkpt lat="39.0225483" lon="16.7843133"><ele>459.0</ele><time>2026-04-19T09:51:10.511Z</time></trkpt><trkpt lat="39.02243" lon="16.78437"><ele>459.0</ele><time>2026-04-19T09:51:11.511Z</time></trkpt><trkpt lat="39.0223083" lon="16.7844633"><ele>464.5</ele><time>2026-04-19T09:51:12.511Z</time></trkpt><trkpt lat="39.0221967" lon="16.78456"><ele>470.0</ele><time>2026-04-19T09:51:13.511Z</time></trkpt><trkpt lat="39.0220967" lon="16.78466"><ele>475.5</ele><time>2026-04-19T09:51:14.511Z</time></trkpt><trkpt lat="39.0220083" lon="16.7847683"><ele>481.0</ele><time>2026-04-19T09:51:15.511Z</time></trkpt><trkpt lat="39.0219467" lon="16.78491"><ele>481.0</ele><time>2026-04-19T09:51:16.512Z</time></trkpt><trkpt lat="39.0218783" lon="16.7850617"><ele>481.0</ele><time>2026-04-19T09:51:17.511Z</time></trkpt><trkpt lat="39.02183" lon="16.785225"><ele>481.0</ele><time>2026-04-19T09:51:18.511Z</time></trkpt><trkpt lat="39.0217917" lon="16.7853867"><ele>481.0</ele><time>2026-04-19T09:51:19.511Z</time></trkpt><trkpt lat="39.02177" lon="16.78554"><ele>478.25</ele><time>2026-04-19T09:51:20.511Z</time></trkpt><trkpt lat="39.0217683" lon="16.785685"><ele>475.5</ele><time>2026-04-19T09:51:21.511Z</time></trkpt><trkpt lat="39.0217933" lon="16.785835"><ele>472.75</ele><time>2026-04-19T09:51:22.511Z</time></trkpt><trkpt lat="39.0218167" lon="16.7859817"><ele>470.0</ele><time>2026-04-19T09:51:23.511Z</time></trkpt><trkpt lat="39.021835" lon="16.7861283"><ele>468.8</ele><time>2026-04-19T09:51:24.512Z</time></trkpt><trkpt lat="39.0218467" lon="16.78627"><ele>467.6</ele><time>2026-04-19T09:51:25.512Z</time></trkpt><trkpt lat="39.0218617" lon="16.7864033"><ele>466.4</ele><time>2026-04-19T09:51:26.511Z</time></trkpt><trkpt lat="39.0218733" lon="16.78652"><ele>465.2</ele><time>2026-04-19T09:51:27.511Z</time></trkpt><trkpt lat="39.02186" lon="16.7866383"><ele>464.0</ele><time>2026-04-19T09:51:28.512Z</time></trkpt><trkpt lat="39.021825" lon="16.78675"><ele>463.6</ele><time>2026-04-19T09:51:29.511Z</time></trkpt><trkpt lat="39.0217767" lon="16.78686"><ele>463.2</ele><time>2026-04-19T09:51:30.511Z</time></trkpt><trkpt lat="39.02172" lon="16.7869667"><ele>462.80000000000007</ele><time>2026-04-19T09:51:31.511Z</time></trkpt><trkpt lat="39.0216667" lon="16.7870817"><ele>462.40000000000003</ele><time>2026-04-19T09:51:32.512Z</time></trkpt><trkpt lat="39.0216167" lon="16.787195"><ele>462.0</ele><time>2026-04-19T09:51:33.511Z</time></trkpt><trkpt lat="39.0215733" lon="16.7873233"><ele>462.0</ele><time>2026-04-19T09:51:34.512Z</time></trkpt><trkpt lat="39.0215383" lon="16.78746"><ele>462.00000000000006</ele><time>2026-04-19T09:51:35.511Z</time></trkpt><trkpt lat="39.0215133" lon="16.7875967"><ele>462.00000000000006</ele><time>2026-04-19T09:51:36.511Z</time></trkpt><trkpt lat="39.02149" lon="16.7877233"><ele>462.0</ele><time>2026-04-19T09:51:37.511Z</time></trkpt><trkpt lat="39.0214517" lon="16.78783"><ele>462.0</ele><time>2026-04-19T09:51:38.512Z</time></trkpt><trkpt lat="39.0213783" lon="16.7879117"><ele>460.40000000000003</ele><time>2026-04-19T09:51:39.511Z</time></trkpt><trkpt lat="39.0212867" lon="16.78797"><ele>458.80000000000007</ele><time>2026-04-19T09:51:40.511Z</time></trkpt><trkpt lat="39.02118" lon="16.7879833"><ele>457.2</ele><time>2026-04-19T09:51:41.511Z</time></trkpt><trkpt lat="39.02107" lon="16.7879833"><ele>455.6</ele><time>2026-04-19T09:51:42.511Z</time></trkpt><trkpt lat="39.0209783" lon="16.7879883"><ele>454.0</ele><time>2026-04-19T09:51:43.511Z</time></trkpt><trkpt lat="39.020905" lon="16.7879917"><ele>452.4</ele><time>2026-04-19T09:51:44.512Z</time></trkpt><trkpt lat="39.0208" lon="16.7879817"><ele>450.79999999999995</ele><time>2026-04-19T09:51:46.511Z</time></trkpt><trkpt lat="39.0207217" lon="16.7879633"><ele>449.20000000000005</ele><time>2026-04-19T09:51:48.511Z</time></trkpt><trkpt lat="39.020635" lon="16.7879867"><ele>447.6</ele><time>2026-04-19T09:51:51.512Z</time></trkpt><trkpt lat="39.0205667" lon="16.7879833"><ele>446.0</ele><time>2026-04-19T09:51:54.511Z</time></trkpt><trkpt lat="39.0206833" lon="16.7879867"><ele>446.0</ele><time>2026-04-19T09:52:01.511Z</time></trkpt><trkpt lat="39.0207983" lon="16.7879767"><ele>446.0</ele><time>2026-04-19T09:52:03.511Z</time></trkpt><trkpt lat="39.0209083" lon="16.7879617"><ele>446.0</ele><time>2026-04-19T09:52:05.511Z</time></trkpt><trkpt lat="39.020975" lon="16.787945"><ele>446.0</ele><time>2026-04-19T09:52:06.512Z</time></trkpt><trkpt lat="39.0210717" lon="16.7878917"><ele>446.0</ele><time>2026-04-19T09:52:08.511Z</time></trkpt><trkpt lat="39.0210833" lon="16.7877667"><ele>447.3333333333333</ele><time>2026-04-19T09:52:10.511Z</time></trkpt><trkpt lat="39.02106" lon="16.7876883"><ele>448.66666666666663</ele><time>2026-04-19T09:52:11.511Z</time></trkpt><trkpt lat="39.02098" lon="16.78758"><ele>450.0</ele><time>2026-04-19T09:52:13.511Z</time></trkpt><trkpt lat="39.0208933" lon="16.7875233"><ele>451.33333333333337</ele><time>2026-04-19T09:52:15.512Z</time></trkpt><trkpt lat="39.020815" lon="16.787495"><ele>452.6666666666667</ele><time>2026-04-19T09:52:17.511Z</time></trkpt><trkpt lat="39.0207467" lon="16.7874583"><ele>454.0</ele><time>2026-04-19T09:52:19.511Z</time></trkpt><trkpt lat="39.020675" lon="16.787405"><ele>454.6666666666667</ele><time>2026-04-19T09:52:22.511Z</time></trkpt><trkpt lat="39.020615" lon="16.787365"><ele>455.33333333333337</ele><time>2026-04-19T09:52:25.512Z</time></trkpt><trkpt lat="39.02053" lon="16.7873367"><ele>456.0</ele><time>2026-04-19T09:52:28.511Z</time></trkpt><trkpt lat="39.02046" lon="16.7873067"><ele>456.66666666666663</ele><time>2026-04-19T09:52:30.511Z</time></trkpt><trkpt lat="39.0203917" lon="16.7872583"><ele>457.3333333333333</ele><time>2026-04-19T09:52:32.511Z</time></trkpt><trkpt lat="39.0203083" lon="16.78719"><ele>458.0</ele><time>2026-04-19T09:52:34.512Z</time></trkpt><trkpt lat="39.0202317" lon="16.78711"><ele>458.0</ele><time>2026-04-19T09:52:36.512Z</time></trkpt><trkpt lat="39.020155" lon="16.7870167"><ele>457.99999999999994</ele><time>2026-04-19T09:52:38.512Z</time></trkpt><trkpt lat="39.0200817" lon="16.7869183"><ele>457.99999999999994</ele><time>2026-04-19T09:52:40.511Z</time></trkpt><trkpt lat="39.0200383" lon="16.78683"><ele>458.0</ele><time>2026-04-19T09:52:42.511Z</time></trkpt><trkpt lat="39.01995" lon="16.7868317"><ele>458.0</ele><time>2026-04-19T09:53:56.511Z</time></trkpt><trkpt lat="39.0198833" lon="16.7867317"><ele>459.16666666666663</ele><time>2026-04-19T09:53:58.512Z</time></trkpt><trkpt lat="39.01984" lon="16.786665"><ele>460.3333333333333</ele><time>2026-04-19T09:53:59.511Z</time></trkpt><trkpt lat="39.01979" lon="16.7865867"><ele>461.5</ele><time>2026-04-19T09:54:00.511Z</time></trkpt><trkpt lat="39.01973" lon="16.7864933"><ele>462.66666666666663</ele><time>2026-04-19T09:54:01.511Z</time></trkpt><trkpt lat="39.01968" lon="16.7863967"><ele>463.8333333333333</ele><time>2026-04-19T09:54:02.511Z</time></trkpt><trkpt lat="39.019645" lon="16.7863217"><ele>465.0</ele><time>2026-04-19T09:54:03.511Z</time></trkpt><trkpt lat="39.0195767" lon="16.7862217"><ele>465.0</ele><time>2026-04-19T09:54:05.512Z</time></trkpt><trkpt lat="39.0195" lon="16.7861017"><ele>465.0</ele><time>2026-04-19T09:54:07.511Z</time></trkpt><trkpt lat="39.0194433" lon="16.7860417"><ele>465.0</ele><time>2026-04-19T09:54:08.511Z</time></trkpt><trkpt lat="39.019395" lon="16.7859717"><ele>465.0</ele><time>2026-04-19T09:54:09.511Z</time></trkpt><trkpt lat="39.0193517" lon="16.785905"><ele>465.0</ele><time>2026-04-19T09:54:10.511Z</time></trkpt><trkpt lat="39.0192783" lon="16.7857817"><ele>467.2</ele><time>2026-04-19T09:54:12.511Z</time></trkpt><trkpt lat="39.0192067" lon="16.785675"><ele>469.4</ele><time>2026-04-19T09:54:14.512Z</time></trkpt><trkpt lat="39.0191" lon="16.78562"><ele>471.6</ele><time>2026-04-19T09:54:16.511Z</time></trkpt><trkpt lat="39.0190367" lon="16.7856033"><ele>473.8</ele><time>2026-04-19T09:54:17.511Z</time></trkpt><trkpt lat="39.0189333" lon="16.785575"><ele>476.0</ele><time>2026-04-19T09:54:19.511Z</time></trkpt><trkpt lat="39.01886" lon="16.785475"><ele>476.0</ele><time>2026-04-19T09:54:21.511Z</time></trkpt><trkpt lat="39.0187933" lon="16.7853833"><ele>476.0</ele><time>2026-04-19T09:54:23.511Z</time></trkpt><trkpt lat="39.0187183" lon="16.7853067"><ele>476.0</ele><time>2026-04-19T09:54:25.512Z</time></trkpt><trkpt lat="39.0185967" lon="16.7852883"><ele>476.0</ele><time>2026-04-19T09:54:27.512Z</time></trkpt><trkpt lat="39.0185283" lon="16.7853167"><ele>476.0</ele><time>2026-04-19T09:54:29.511Z</time></trkpt><trkpt lat="39.0184683" lon="16.7852917"><ele>476.0</ele><time>2026-04-19T09:54:32.511Z</time></trkpt><trkpt lat="39.018415" lon="16.785245"><ele>476.0</ele><time>2026-04-19T09:54:35.511Z</time></trkpt><trkpt lat="39.0183267" lon="16.7851783"><ele>476.0</ele><time>2026-04-19T09:54:38.511Z</time></trkpt><trkpt lat="39.0182567" lon="16.7851267"><ele>476.0</ele><time>2026-04-19T09:54:40.511Z</time></trkpt><trkpt lat="39.018195" lon="16.7850917"><ele>476.0</ele><time>2026-04-19T09:54:43.512Z</time></trkpt><trkpt lat="39.01814" lon="16.78505"><ele>476.0</ele><time>2026-04-19T09:54:45.511Z</time></trkpt><trkpt lat="39.0181117" lon="16.7849733"><ele>476.0</ele><time>2026-04-19T09:54:47.511Z</time></trkpt><trkpt lat="39.018065" lon="16.7848883"><ele>479.16666666666663</ele><time>2026-04-19T09:54:50.511Z</time></trkpt><trkpt lat="39.01799" lon="16.78484"><ele>482.3333333333333</ele><time>2026-04-19T09:54:53.511Z</time></trkpt><trkpt lat="39.0179083" lon="16.7848017"><ele>485.5</ele><time>2026-04-19T09:54:56.51Z</time></trkpt><trkpt lat="39.0178417" lon="16.7847967"><ele>488.66666666666663</ele><time>2026-04-19T09:54:59.51Z</time></trkpt><trkpt lat="39.0177867" lon="16.7846983"><ele>491.8333333333333</ele><time>2026-04-19T09:55:02.51Z</time></trkpt><trkpt lat="39.0177333" lon="16.7846067"><ele>495.0</ele><time>2026-04-19T09:55:05.511Z</time></trkpt><trkpt lat="39.01767" lon="16.7845717"><ele>494.99999999999994</ele><time>2026-04-19T09:55:07.51Z</time></trkpt><trkpt lat="39.0176083" lon="16.7845283"><ele>495.0</ele><time>2026-04-19T09:55:09.51Z</time></trkpt><trkpt lat="39.0175433" lon="16.784445"><ele>494.99999999999994</ele><time>2026-04-19T09:55:13.511Z</time></trkpt><trkpt lat="39.0175167" lon="16.78437"><ele>494.99999999999994</ele><time>2026-04-19T09:55:17.51Z</time></trkpt><trkpt lat="39.017505" lon="16.784285"><ele>495.0</ele><time>2026-04-19T09:55:30.51Z</time></trkpt><trkpt lat="39.0175517" lon="16.784205"><ele>494.99999999999994</ele><time>2026-04-19T09:55:32.51Z</time></trkpt><trkpt lat="39.017605" lon="16.7841467"><ele>494.99999999999994</ele><time>2026-04-19T09:55:34.511Z</time></trkpt><trkpt lat="39.0175517" lon="16.784195"><ele>495.0</ele><time>2026-04-19T09:56:29.51Z</time></trkpt><trkpt lat="39.017465" lon="16.78416"><ele>495.0</ele><time>2026-04-19T09:56:30.51Z</time></trkpt><trkpt lat="39.0174917" lon="16.7842717"><ele>495.0</ele><time>2026-04-19T09:58:45.51Z</time></trkpt><trkpt lat="39.0174767" lon="16.7843817"><ele>495.0</ele><time>2026-04-19T09:58:48.51Z</time></trkpt><trkpt lat="39.017505" lon="16.7844667"><ele>495.0</ele><time>2026-04-19T09:58:52.51Z</time></trkpt><trkpt lat="39.0174367" lon="16.7845617"><ele>495.0</ele><time>2026-04-19T09:59:41.51Z</time></trkpt><trkpt lat="39.0173217" lon="16.78459"><ele>495.0</ele><time>2026-04-19T10:31:57.509Z</time></trkpt><trkpt lat="39.0177167" lon="16.7843767"><ele>495.0</ele><time>2026-04-19T11:24:33.04Z</time></trkpt><trkpt lat="39.017655" lon="16.78443"><ele>495.0</ele><time>2026-04-19T11:24:38.54Z</time></trkpt><trkpt lat="39.017565" lon="16.7845133"><ele>495.0</ele><time>2026-04-19T11:24:39.54Z</time></trkpt><trkpt lat="39.0174833" lon="16.7845417"><ele>495.0</ele><time>2026-04-19T11:24:40.54Z</time></trkpt><trkpt lat="39.0173767" lon="16.7845883"><ele>495.0</ele><time>2026-04-19T11:24:42.512Z</time></trkpt><trkpt lat="39.0174667" lon="16.78454"><ele>495.0</ele><time>2026-04-19T11:24:48.512Z</time></trkpt><trkpt lat="39.01753" lon="16.78451"><ele>495.0</ele><time>2026-04-19T11:26:22.512Z</time></trkpt><trkpt lat="39.0174333" lon="16.7844917"><ele>495.0</ele><time>2026-04-19T11:32:23.511Z</time></trkpt><trkpt lat="39.017495" lon="16.784475"><ele>495.0</ele><time>2026-04-19T11:32:47.511Z</time></trkpt><trkpt lat="39.0174583" lon="16.7843767"><ele>495.0</ele><time>2026-04-19T11:33:57.511Z</time></trkpt><trkpt lat="39.0175033" lon="16.78429"><ele>495.0</ele><time>2026-04-19T11:33:59.511Z</time></trkpt><trkpt lat="39.0175533" lon="16.7842017"><ele>495.0</ele><time>2026-04-19T11:34:01.511Z</time></trkpt><trkpt lat="39.0176" lon="16.78412"><ele>495.5</ele><time>2026-04-19T11:34:03.511Z</time></trkpt><trkpt lat="39.0176317" lon="16.7840333"><ele>496.0</ele><time>2026-04-19T11:34:05.511Z</time></trkpt><trkpt lat="39.0176617" lon="16.7839533"><ele>496.5</ele><time>2026-04-19T11:34:07.512Z</time></trkpt><trkpt lat="39.0177117" lon="16.7838633"><ele>497.0</ele><time>2026-04-19T11:34:09.511Z</time></trkpt><trkpt lat="39.0177767" lon="16.78375"><ele>497.5</ele><time>2026-04-19T11:34:11.511Z</time></trkpt><trkpt lat="39.0178233" lon="16.7836383"><ele>498.0</ele><time>2026-04-19T11:34:13.511Z</time></trkpt><trkpt lat="39.0178983" lon="16.7835483"><ele>495.59999999999997</ele><time>2026-04-19T11:34:15.511Z</time></trkpt><trkpt lat="39.0179383" lon="16.783485"><ele>493.19999999999993</ele><time>2026-04-19T11:34:16.511Z</time></trkpt><trkpt lat="39.0180183" lon="16.7833883"><ele>490.8</ele><time>2026-04-19T11:34:18.511Z</time></trkpt><trkpt lat="39.0181017" lon="16.7833"><ele>488.4</ele><time>2026-04-19T11:34:20.512Z</time></trkpt><trkpt lat="39.0181867" lon="16.78324"><ele>486.0</ele><time>2026-04-19T11:34:22.511Z</time></trkpt><trkpt lat="39.018265" lon="16.7831817"><ele>489.20000000000005</ele><time>2026-04-19T11:34:24.512Z</time></trkpt><trkpt lat="39.0183533" lon="16.7831267"><ele>492.40000000000003</ele><time>2026-04-19T11:34:26.511Z</time></trkpt><trkpt lat="39.0184483" lon="16.7830783"><ele>495.6</ele><time>2026-04-19T11:34:28.512Z</time></trkpt><trkpt lat="39.01856" lon="16.78305"><ele>498.8</ele><time>2026-04-19T11:34:30.512Z</time></trkpt><trkpt lat="39.0186233" lon="16.7830367"><ele>502.0</ele><time>2026-04-19T11:34:31.511Z</time></trkpt><trkpt lat="39.018735" lon="16.7830233"><ele>501.99999999999994</ele><time>2026-04-19T11:34:33.511Z</time></trkpt><trkpt lat="39.0187967" lon="16.783005"><ele>502.0</ele><time>2026-04-19T11:34:34.511Z</time></trkpt><trkpt lat="39.0188617" lon="16.7829817"><ele>501.99999999999994</ele><time>2026-04-19T11:34:35.511Z</time></trkpt><trkpt lat="39.0189383" lon="16.782985"><ele>501.99999999999994</ele><time>2026-04-19T11:34:36.511Z</time></trkpt><trkpt lat="39.0190067" lon="16.7829683"><ele>502.0</ele><time>2026-04-19T11:34:37.512Z</time></trkpt><trkpt lat="39.01907" lon="16.7829483"><ele>501.99999999999994</ele><time>2026-04-19T11:34:38.512Z</time></trkpt><trkpt lat="39.0191317" lon="16.782915"><ele>501.99999999999994</ele><time>2026-04-19T11:34:39.511Z</time></trkpt><trkpt lat="39.0191933" lon="16.78287"><ele>504.00000000000006</ele><time>2026-04-19T11:34:40.511Z</time></trkpt><trkpt lat="39.0192967" lon="16.7827917"><ele>506.0</ele><time>2026-04-19T11:34:42.511Z</time></trkpt><trkpt lat="39.019365" lon="16.7827683"><ele>508.0</ele><time>2026-04-19T11:34:43.511Z</time></trkpt><trkpt lat="39.0194283" lon="16.7827333"><ele>510.0</ele><time>2026-04-19T11:34:44.511Z</time></trkpt><trkpt lat="39.0194933" lon="16.782705"><ele>512.0</ele><time>2026-04-19T11:34:45.511Z</time></trkpt><trkpt lat="39.0195583" lon="16.78268"><ele>514.0</ele><time>2026-04-19T11:34:46.511Z</time></trkpt><trkpt lat="39.019625" lon="16.7826483"><ele>514.0</ele><time>2026-04-19T11:34:47.511Z</time></trkpt><trkpt lat="39.0196933" lon="16.78262"><ele>514.0</ele><time>2026-04-19T11:34:48.511Z</time></trkpt><trkpt lat="39.0197583" lon="16.7825983"><ele>514.0</ele><time>2026-04-19T11:34:49.511Z</time></trkpt><trkpt lat="39.019825" lon="16.78258"><ele>514.0</ele><time>2026-04-19T11:34:50.511Z</time></trkpt><trkpt lat="39.0199" lon="16.7825633"><ele>514.0</ele><time>2026-04-19T11:34:51.511Z</time></trkpt><trkpt lat="39.0199717" lon="16.7825633"><ele>514.0</ele><time>2026-04-19T11:34:52.512Z</time></trkpt><trkpt lat="39.02005" lon="16.7825767"><ele>514.0</ele><time>2026-04-19T11:34:53.512Z</time></trkpt><trkpt lat="39.020135" lon="16.7826033"><ele>516.5</ele><time>2026-04-19T11:34:54.511Z</time></trkpt><trkpt lat="39.0202217" lon="16.782645"><ele>519.0</ele><time>2026-04-19T11:34:55.512Z</time></trkpt><trkpt lat="39.0203067" lon="16.782705"><ele>521.5</ele><time>2026-04-19T11:34:56.512Z</time></trkpt><trkpt lat="39.02038" lon="16.782775"><ele>524.0</ele><time>2026-04-19T11:34:57.512Z</time></trkpt><trkpt lat="39.02044" lon="16.78286"><ele>526.5</ele><time>2026-04-19T11:34:58.512Z</time></trkpt><trkpt lat="39.02048" lon="16.7829467"><ele>529.0</ele><time>2026-04-19T11:34:59.511Z</time></trkpt><trkpt lat="39.0205267" lon="16.7830933"><ele>528.8</ele><time>2026-04-19T11:35:01.511Z</time></trkpt><trkpt lat="39.0205683" lon="16.7832083"><ele>528.5999999999999</ele><time>2026-04-19T11:35:03.511Z</time></trkpt><trkpt lat="39.020645" lon="16.7832817"><ele>528.4</ele><time>2026-04-19T11:35:05.512Z</time></trkpt><trkpt lat="39.0207617" lon="16.7833083"><ele>528.1999999999999</ele><time>2026-04-19T11:35:07.511Z</time></trkpt><trkpt lat="39.0208433" lon="16.7833"><ele>528.0</ele><time>2026-04-19T11:35:08.512Z</time></trkpt><trkpt lat="39.0209267" lon="16.7832717"><ele>528.0</ele><time>2026-04-19T11:35:09.511Z</time></trkpt><trkpt lat="39.0210133" lon="16.78324"><ele>528.0</ele><time>2026-04-19T11:35:10.511Z</time></trkpt><trkpt lat="39.021105" lon="16.7832083"><ele>528.0</ele><time>2026-04-19T11:35:11.511Z</time></trkpt><trkpt lat="39.0211917" lon="16.7831817"><ele>528.0</ele><time>2026-04-19T11:35:12.511Z</time></trkpt><trkpt lat="39.021275" lon="16.7831667"><ele>528.0</ele><time>2026-04-19T11:35:13.511Z</time></trkpt><trkpt lat="39.0213483" lon="16.7831667"><ele>528.0</ele><time>2026-04-19T11:35:14.511Z</time></trkpt><trkpt lat="39.0214267" lon="16.783195"><ele>528.0</ele><time>2026-04-19T11:35:15.511Z</time></trkpt><trkpt lat="39.021505" lon="16.78326"><ele>528.0</ele><time>2026-04-19T11:35:16.511Z</time></trkpt><trkpt lat="39.0215717" lon="16.783355"><ele>528.0</ele><time>2026-04-19T11:35:17.511Z</time></trkpt><trkpt lat="39.0216333" lon="16.7834667"><ele>528.0</ele><time>2026-04-19T11:35:18.512Z</time></trkpt><trkpt lat="39.021685" lon="16.7835867"><ele>528.0</ele><time>2026-04-19T11:35:19.511Z</time></trkpt><trkpt lat="39.0217183" lon="16.7837067"><ele>526.1999999999999</ele><time>2026-04-19T11:35:20.511Z</time></trkpt><trkpt lat="39.021735" lon="16.783815"><ele>524.4</ele><time>2026-04-19T11:35:21.512Z</time></trkpt><trkpt lat="39.0217183" lon="16.7839333"><ele>522.5999999999999</ele><time>2026-04-19T11:35:22.512Z</time></trkpt><trkpt lat="39.0216767" lon="16.7840367"><ele>520.8</ele><time>2026-04-19T11:35:23.511Z</time></trkpt><trkpt lat="39.021585" lon="16.784085"><ele>519.0</ele><time>2026-04-19T11:35:24.511Z</time></trkpt><trkpt lat="39.0214767" lon="16.7841033"><ele>519.0</ele><time>2026-04-19T11:35:25.511Z</time></trkpt><trkpt lat="39.02136" lon="16.7841067"><ele>519.0</ele><time>2026-04-19T11:35:26.511Z</time></trkpt><trkpt lat="39.02125" lon="16.78412"><ele>519.0</ele><time>2026-04-19T11:35:27.511Z</time></trkpt><trkpt lat="39.02116" lon="16.7841733"><ele>519.0</ele><time>2026-04-19T11:35:28.511Z</time></trkpt><trkpt lat="39.0211" lon="16.784255"><ele>519.0</ele><time>2026-04-19T11:35:29.512Z</time></trkpt><trkpt lat="39.02106" lon="16.7843583"><ele>519.2</ele><time>2026-04-19T11:35:30.512Z</time></trkpt><trkpt lat="39.0210483" lon="16.78448"><ele>519.4</ele><time>2026-04-19T11:35:31.511Z</time></trkpt><trkpt lat="39.0210517" lon="16.7846067"><ele>519.6</ele><time>2026-04-19T11:35:32.511Z</time></trkpt><trkpt lat="39.0210967" lon="16.7847467"><ele>519.8</ele><time>2026-04-19T11:35:33.512Z</time></trkpt><trkpt lat="39.0211717" lon="16.7848833"><ele>520.0</ele><time>2026-04-19T11:35:34.511Z</time></trkpt><trkpt lat="39.0212433" lon="16.7849933"><ele>520.0</ele><time>2026-04-19T11:35:35.511Z</time></trkpt><trkpt lat="39.0212917" lon="16.7851167"><ele>520.0</ele><time>2026-04-19T11:35:36.511Z</time></trkpt><trkpt lat="39.021335" lon="16.7852367"><ele>520.0</ele><time>2026-04-19T11:35:37.511Z</time></trkpt><trkpt lat="39.0213617" lon="16.7853683"><ele>520.0</ele><time>2026-04-19T11:35:38.511Z</time></trkpt><trkpt lat="39.0213767" lon="16.785505"><ele>520.0</ele><time>2026-04-19T11:35:39.511Z</time></trkpt><trkpt lat="39.0213917" lon="16.7856333"><ele>518.2</ele><time>2026-04-19T11:35:40.511Z</time></trkpt><trkpt lat="39.0214083" lon="16.7857567"><ele>516.4</ele><time>2026-04-19T11:35:41.512Z</time></trkpt><trkpt lat="39.021445" lon="16.7858683"><ele>514.6</ele><time>2026-04-19T11:35:42.511Z</time></trkpt><trkpt lat="39.02148" lon="16.78598"><ele>512.8</ele><time>2026-04-19T11:35:43.512Z</time></trkpt><trkpt lat="39.0215117" lon="16.7860983"><ele>511.0</ele><time>2026-04-19T11:35:44.511Z</time></trkpt><trkpt lat="39.0215367" lon="16.7862117"><ele>505.83333333333337</ele><time>2026-04-19T11:35:45.512Z</time></trkpt><trkpt lat="39.0215567" lon="16.7863133"><ele>500.6666666666667</ele><time>2026-04-19T11:35:46.511Z</time></trkpt><trkpt lat="39.0215733" lon="16.7864117"><ele>495.5</ele><time>2026-04-19T11:35:47.511Z</time></trkpt><trkpt lat="39.02159" lon="16.78651"><ele>490.33333333333337</ele><time>2026-04-19T11:35:48.512Z</time></trkpt><trkpt lat="39.0215917" lon="16.7866167"><ele>485.1666666666667</ele><time>2026-04-19T11:35:49.511Z</time></trkpt><trkpt lat="39.0215733" lon="16.7867267"><ele>480.0</ele><time>2026-04-19T11:35:50.512Z</time></trkpt><trkpt lat="39.021545" lon="16.78683"><ele>476.4</ele><time>2026-04-19T11:35:51.511Z</time></trkpt><trkpt lat="39.0215017" lon="16.7869317"><ele>472.8</ele><time>2026-04-19T11:35:52.512Z</time></trkpt><trkpt lat="39.0214483" lon="16.7870267"><ele>469.20000000000005</ele><time>2026-04-19T11:35:53.512Z</time></trkpt><trkpt lat="39.0213933" lon="16.7871217"><ele>465.6</ele><time>2026-04-19T11:35:54.511Z</time></trkpt><trkpt lat="39.021335" lon="16.7872217"><ele>462.0</ele><time>2026-04-19T11:35:55.511Z</time></trkpt><trkpt lat="39.0212733" lon="16.7873217"><ele>462.0</ele><time>2026-04-19T11:35:56.511Z</time></trkpt><trkpt lat="39.021215" lon="16.78741"><ele>462.0</ele><time>2026-04-19T11:35:57.511Z</time></trkpt><trkpt lat="39.02116" lon="16.78749"><ele>462.0</ele><time>2026-04-19T11:35:58.511Z</time></trkpt><trkpt lat="39.0211233" lon="16.7875583"><ele>462.0</ele><time>2026-04-19T11:35:59.512Z</time></trkpt><trkpt lat="39.0210717" lon="16.7876567"><ele>462.0</ele><time>2026-04-19T11:36:01.511Z</time></trkpt><trkpt lat="39.0210267" lon="16.787745"><ele>462.0</ele><time>2026-04-19T11:36:03.512Z</time></trkpt><trkpt lat="39.0210033" lon="16.7878417"><ele>460.40000000000003</ele><time>2026-04-19T11:36:05.511Z</time></trkpt><trkpt lat="39.0209483" lon="16.7879233"><ele>458.80000000000007</ele><time>2026-04-19T11:36:07.512Z</time></trkpt><trkpt lat="39.0208367" lon="16.7879667"><ele>457.2</ele><time>2026-04-19T11:36:09.512Z</time></trkpt><trkpt lat="39.0207617" lon="16.7879733"><ele>455.6</ele><time>2026-04-19T11:36:10.511Z</time></trkpt><trkpt lat="39.020675" lon="16.7879817"><ele>454.0</ele><time>2026-04-19T11:36:11.511Z</time></trkpt><trkpt lat="39.0205817" lon="16.7879833"><ele>452.4</ele><time>2026-04-19T11:36:12.511Z</time></trkpt><trkpt lat="39.0204817" lon="16.788"><ele>450.79999999999995</ele><time>2026-04-19T11:36:13.511Z</time></trkpt><trkpt lat="39.020375" lon="16.7880067"><ele>449.20000000000005</ele><time>2026-04-19T11:36:14.511Z</time></trkpt><trkpt lat="39.020265" lon="16.7880133"><ele>447.6</ele><time>2026-04-19T11:36:15.511Z</time></trkpt><trkpt lat="39.0201633" lon="16.7880133"><ele>446.0</ele><time>2026-04-19T11:36:16.511Z</time></trkpt><trkpt lat="39.0200567" lon="16.7880067"><ele>444.5</ele><time>2026-04-19T11:36:17.511Z</time></trkpt><trkpt lat="39.0199467" lon="16.7879867"><ele>443.0</ele><time>2026-04-19T11:36:18.511Z</time></trkpt><trkpt lat="39.019835" lon="16.7879467"><ele>441.5</ele><time>2026-04-19T11:36:19.511Z</time></trkpt><trkpt lat="39.019725" lon="16.7879183"><ele>440.0</ele><time>2026-04-19T11:36:20.511Z</time></trkpt><trkpt lat="39.0196133" lon="16.787885"><ele>440.0</ele><time>2026-04-19T11:36:21.511Z</time></trkpt><trkpt lat="39.0195083" lon="16.7878517"><ele>440.0</ele><time>2026-04-19T11:36:22.511Z</time></trkpt><trkpt lat="39.01941" lon="16.78781"><ele>440.0</ele><time>2026-04-19T11:36:23.511Z</time></trkpt><trkpt lat="39.0193033" lon="16.7877683"><ele>440.0</ele><time>2026-04-19T11:36:24.511Z</time></trkpt><trkpt lat="39.01921" lon="16.7877367"><ele>440.0</ele><time>2026-04-19T11:36:25.512Z</time></trkpt><trkpt lat="39.0191233" lon="16.7877417"><ele>443.4</ele><time>2026-04-19T11:36:26.511Z</time></trkpt><trkpt lat="39.0190383" lon="16.7877667"><ele>446.8</ele><time>2026-04-19T11:36:27.511Z</time></trkpt><trkpt lat="39.0189583" lon="16.78784"><ele>450.20000000000005</ele><time>2026-04-19T11:36:28.511Z</time></trkpt><trkpt lat="39.01889" lon="16.78793"><ele>453.6</ele><time>2026-04-19T11:36:29.511Z</time></trkpt><trkpt lat="39.0188267" lon="16.78804"><ele>457.0</ele><time>2026-04-19T11:36:30.511Z</time></trkpt><trkpt lat="39.01877" lon="16.788165"><ele>457.0</ele><time>2026-04-19T11:36:31.511Z</time></trkpt><trkpt lat="39.0187117" lon="16.788295"><ele>457.0</ele><time>2026-04-19T11:36:32.511Z</time></trkpt><trkpt lat="39.0186567" lon="16.7884383"><ele>457.0</ele><time>2026-04-19T11:36:33.512Z</time></trkpt><trkpt lat="39.0185967" lon="16.78858"><ele>457.0</ele><time>2026-04-19T11:36:34.511Z</time></trkpt><trkpt lat="39.01853" lon="16.78869"><ele>451.0</ele><time>2026-04-19T11:36:35.512Z</time></trkpt><trkpt lat="39.0184583" lon="16.7887967"><ele>445.0</ele><time>2026-04-19T11:36:36.511Z</time></trkpt><trkpt lat="39.018375" lon="16.7889"><ele>439.0</ele><time>2026-04-19T11:36:37.512Z</time></trkpt><trkpt lat="39.0182833" lon="16.7889917"><ele>433.0</ele><time>2026-04-19T11:36:38.511Z</time></trkpt><trkpt lat="39.01818" lon="16.7890667"><ele>433.0</ele><time>2026-04-19T11:36:39.511Z</time></trkpt><trkpt lat="39.0180667" lon="16.7891367"><ele>433.0</ele><time>2026-04-19T11:36:40.511Z</time></trkpt><trkpt lat="39.0179517" lon="16.7891833"><ele>433.0</ele><time>2026-04-19T11:36:41.511Z</time></trkpt><trkpt lat="39.0178367" lon="16.7892383"><ele>433.0</ele><time>2026-04-19T11:36:42.512Z</time></trkpt><trkpt lat="39.017725" lon="16.7892633"><ele>433.0</ele><time>2026-04-19T11:36:43.511Z</time></trkpt><trkpt lat="39.0176017" lon="16.789275"><ele>433.0</ele><time>2026-04-19T11:36:44.512Z</time></trkpt><trkpt lat="39.01748" lon="16.7892717"><ele>433.0</ele><time>2026-04-19T11:36:45.511Z</time></trkpt><trkpt lat="39.0173533" lon="16.7892717"><ele>433.0</ele><time>2026-04-19T11:36:46.511Z</time></trkpt><trkpt lat="39.0172233" lon="16.7892833"><ele>432.5</ele><time>2026-04-19T11:36:47.512Z</time></trkpt><trkpt lat="39.0171033" lon="16.7892983"><ele>432.0</ele><time>2026-04-19T11:36:48.511Z</time></trkpt><trkpt lat="39.0169717" lon="16.7893183"><ele>431.5</ele><time>2026-04-19T11:36:49.511Z</time></trkpt><trkpt lat="39.0168317" lon="16.78933"><ele>431.0</ele><time>2026-04-19T11:36:50.512Z</time></trkpt><trkpt lat="39.01669" lon="16.789325"><ele>429.75</ele><time>2026-04-19T11:36:51.511Z</time></trkpt><trkpt lat="39.0165433" lon="16.78933"><ele>428.5</ele><time>2026-04-19T11:36:52.511Z</time></trkpt><trkpt lat="39.0164" lon="16.78931"><ele>427.25</ele><time>2026-04-19T11:36:53.511Z</time></trkpt><trkpt lat="39.0162583" lon="16.7892767"><ele>426.0</ele><time>2026-04-19T11:36:54.511Z</time></trkpt><trkpt lat="39.01613" lon="16.7892267"><ele>426.0</ele><time>2026-04-19T11:36:55.512Z</time></trkpt><trkpt lat="39.016" lon="16.78921"><ele>426.0</ele><time>2026-04-19T11:36:56.511Z</time></trkpt><trkpt lat="39.0158717" lon="16.78922"><ele>426.0</ele><time>2026-04-19T11:36:57.511Z</time></trkpt><trkpt lat="39.0157517" lon="16.78928"><ele>426.0</ele><time>2026-04-19T11:36:58.511Z</time></trkpt><trkpt lat="39.015645" lon="16.789395"><ele>422.0</ele><time>2026-04-19T11:36:59.511Z</time></trkpt><trkpt lat="39.015545" lon="16.7895367"><ele>418.0</ele><time>2026-04-19T11:37:00.511Z</time></trkpt><trkpt lat="39.0154483" lon="16.7896767"><ele>414.0</ele><time>2026-04-19T11:37:01.512Z</time></trkpt><trkpt lat="39.0153417" lon="16.789785"><ele>410.0</ele><time>2026-04-19T11:37:02.511Z</time></trkpt><trkpt lat="39.01523" lon="16.78987"><ele>410.0</ele><time>2026-04-19T11:37:03.511Z</time></trkpt><trkpt lat="39.0150933" lon="16.7899183"><ele>410.0</ele><time>2026-04-19T11:37:04.511Z</time></trkpt><trkpt lat="39.0149567" lon="16.7899583"><ele>410.0</ele><time>2026-04-19T11:37:05.511Z</time></trkpt><trkpt lat="39.01479" lon="16.7899667"><ele>410.0</ele><time>2026-04-19T11:37:06.511Z</time></trkpt><trkpt lat="39.0146383" lon="16.789985"><ele>410.0</ele><time>2026-04-19T11:37:07.511Z</time></trkpt><trkpt lat="39.0144867" lon="16.7900017"><ele>410.0</ele><time>2026-04-19T11:37:08.511Z</time></trkpt><trkpt lat="39.014335" lon="16.7900183"><ele>410.0</ele><time>2026-04-19T11:37:09.511Z</time></trkpt><trkpt lat="39.0141833" lon="16.7900383"><ele>408.0</ele><time>2026-04-19T11:37:10.511Z</time></trkpt><trkpt lat="39.0140317" lon="16.790065"><ele>406.0</ele><time>2026-04-19T11:37:11.511Z</time></trkpt><trkpt lat="39.0138833" lon="16.79009"><ele>404.0</ele><time>2026-04-19T11:37:12.511Z</time></trkpt><trkpt lat="39.0137333" lon="16.7901233"><ele>404.0</ele><time>2026-04-19T11:37:13.512Z</time></trkpt><trkpt lat="39.013585" lon="16.7901467"><ele>404.0</ele><time>2026-04-19T11:37:14.512Z</time></trkpt><trkpt lat="39.01343" lon="16.790175"><ele>404.0</ele><time>2026-04-19T11:37:15.511Z</time></trkpt><trkpt lat="39.0132767" lon="16.7902017"><ele>397.3333333333333</ele><time>2026-04-19T11:37:16.511Z</time></trkpt><trkpt lat="39.0131283" lon="16.790225"><ele>390.66666666666663</ele><time>2026-04-19T11:37:17.511Z</time></trkpt><trkpt lat="39.0129767" lon="16.7902517"><ele>384.0</ele><time>2026-04-19T11:37:18.511Z</time></trkpt><trkpt lat="39.0128217" lon="16.7902933"><ele>384.0</ele><time>2026-04-19T11:37:19.511Z</time></trkpt><trkpt lat="39.012665" lon="16.79034"><ele>384.0</ele><time>2026-04-19T11:37:20.512Z</time></trkpt><trkpt lat="39.01251" lon="16.7903933"><ele>384.0</ele><time>2026-04-19T11:37:21.511Z</time></trkpt><trkpt lat="39.0123667" lon="16.790445"><ele>384.25</ele><time>2026-04-19T11:37:22.511Z</time></trkpt><trkpt lat="39.012235" lon="16.79053"><ele>384.5</ele><time>2026-04-19T11:37:23.512Z</time></trkpt><trkpt lat="39.01212" lon="16.7906483"><ele>384.75</ele><time>2026-04-19T11:37:24.511Z</time></trkpt><trkpt lat="39.0120117" lon="16.7907783"><ele>385.0</ele><time>2026-04-19T11:37:25.512Z</time></trkpt><trkpt lat="39.0119" lon="16.7909017"><ele>383.75</ele><time>2026-04-19T11:37:26.511Z</time></trkpt><trkpt lat="39.01178" lon="16.7910217"><ele>382.5</ele><time>2026-04-19T11:37:27.511Z</time></trkpt><trkpt lat="39.0116733" lon="16.7911317"><ele>381.25</ele><time>2026-04-19T11:37:28.511Z</time></trkpt><trkpt lat="39.01157" lon="16.7912433"><ele>380.0</ele><time>2026-04-19T11:37:29.511Z</time></trkpt><trkpt lat="39.011465" lon="16.7913533"><ele>376.0</ele><time>2026-04-19T11:37:30.512Z</time></trkpt><trkpt lat="39.011365" lon="16.79146"><ele>372.0</ele><time>2026-04-19T11:37:31.512Z</time></trkpt><trkpt lat="39.0112767" lon="16.7915633"><ele>368.0</ele><time>2026-04-19T11:37:32.511Z</time></trkpt><trkpt lat="39.0111967" lon="16.7916583"><ele>364.0</ele><time>2026-04-19T11:37:33.511Z</time></trkpt><trkpt lat="39.0111317" lon="16.791765"><ele>364.6</ele><time>2026-04-19T11:37:34.511Z</time></trkpt><trkpt lat="39.0110867" lon="16.7918767"><ele>365.2</ele><time>2026-04-19T11:37:35.512Z</time></trkpt><trkpt lat="39.0110733" lon="16.7920067"><ele>365.8</ele><time>2026-04-19T11:37:36.511Z</time></trkpt><trkpt lat="39.0110967" lon="16.7921267"><ele>366.40000000000003</ele><time>2026-04-19T11:37:37.511Z</time></trkpt><trkpt lat="39.0111617" lon="16.7922117"><ele>367.0</ele><time>2026-04-19T11:37:38.511Z</time></trkpt><trkpt lat="39.011255" lon="16.79225"><ele>367.0</ele><time>2026-04-19T11:37:39.511Z</time></trkpt><trkpt lat="39.0113583" lon="16.7922267"><ele>367.0</ele><time>2026-04-19T11:37:40.511Z</time></trkpt><trkpt lat="39.0114717" lon="16.79216"><ele>367.0</ele><time>2026-04-19T11:37:41.511Z</time></trkpt><trkpt lat="39.0115867" lon="16.7920883"><ele>367.0</ele><time>2026-04-19T11:37:42.511Z</time></trkpt><trkpt lat="39.011715" lon="16.7920433"><ele>367.75</ele><time>2026-04-19T11:37:43.511Z</time></trkpt><trkpt lat="39.011855" lon="16.7920517"><ele>368.5</ele><time>2026-04-19T11:37:44.511Z</time></trkpt><trkpt lat="39.0120017" lon="16.792095"><ele>369.25</ele><time>2026-04-19T11:37:45.511Z</time></trkpt><trkpt lat="39.01215" lon="16.79215"><ele>370.0</ele><time>2026-04-19T11:37:46.512Z</time></trkpt><trkpt lat="39.0123017" lon="16.792205"><ele>370.0</ele><time>2026-04-19T11:37:47.511Z</time></trkpt><trkpt lat="39.01245" lon="16.7922717"><ele>370.0</ele><time>2026-04-19T11:37:48.512Z</time></trkpt><trkpt lat="39.0126017" lon="16.792325"><ele>370.0</ele><time>2026-04-19T11:37:49.511Z</time></trkpt><trkpt lat="39.0127467" lon="16.792385"><ele>369.3333333333333</ele><time>2026-04-19T11:37:50.511Z</time></trkpt><trkpt lat="39.0128917" lon="16.79247"><ele>368.6666666666667</ele><time>2026-04-19T11:37:51.511Z</time></trkpt><trkpt lat="39.01304" lon="16.7925733"><ele>368.0</ele><time>2026-04-19T11:37:52.511Z</time></trkpt><trkpt lat="39.0131667" lon="16.792695"><ele>365.75</ele><time>2026-04-19T11:37:53.511Z</time></trkpt><trkpt lat="39.0132817" lon="16.79281"><ele>363.5</ele><time>2026-04-19T11:37:54.511Z</time></trkpt><trkpt lat="39.0133883" lon="16.7929133"><ele>361.25</ele><time>2026-04-19T11:37:55.511Z</time></trkpt><trkpt lat="39.0134833" lon="16.79301"><ele>359.0</ele><time>2026-04-19T11:37:56.511Z</time></trkpt><trkpt lat="39.0135583" lon="16.7931233"><ele>359.0</ele><time>2026-04-19T11:37:57.511Z</time></trkpt><trkpt lat="39.01362" lon="16.7932583"><ele>359.0</ele><time>2026-04-19T11:37:58.511Z</time></trkpt><trkpt lat="39.0136717" lon="16.7934"><ele>359.0</ele><time>2026-04-19T11:37:59.511Z</time></trkpt><trkpt lat="39.0137117" lon="16.7935417"><ele>359.0</ele><time>2026-04-19T11:38:00.511Z</time></trkpt><trkpt lat="39.013755" lon="16.79367"><ele>357.4</ele><time>2026-04-19T11:38:01.511Z</time></trkpt><trkpt lat="39.0138233" lon="16.7937717"><ele>355.79999999999995</ele><time>2026-04-19T11:38:02.511Z</time></trkpt><trkpt lat="39.0139183" lon="16.7938467"><ele>354.20000000000005</ele><time>2026-04-19T11:38:03.511Z</time></trkpt><trkpt lat="39.0140267" lon="16.7939"><ele>352.6</ele><time>2026-04-19T11:38:04.511Z</time></trkpt><trkpt lat="39.01413" lon="16.7939683"><ele>351.0</ele><time>2026-04-19T11:38:05.511Z</time></trkpt><trkpt lat="39.0142233" lon="16.794075"><ele>351.0</ele><time>2026-04-19T11:38:06.511Z</time></trkpt><trkpt lat="39.01429" lon="16.7942117"><ele>351.0</ele><time>2026-04-19T11:38:07.511Z</time></trkpt><trkpt lat="39.0143433" lon="16.7943683"><ele>351.0</ele><time>2026-04-19T11:38:08.512Z</time></trkpt><trkpt lat="39.0144" lon="16.7945117"><ele>351.0</ele><time>2026-04-19T11:38:09.511Z</time></trkpt><trkpt lat="39.0144667" lon="16.7946317"><ele>347.5</ele><time>2026-04-19T11:38:10.511Z</time></trkpt><trkpt lat="39.0145467" lon="16.79472"><ele>344.0</ele><time>2026-04-19T11:38:11.511Z</time></trkpt><trkpt lat="39.0146517" lon="16.7947483"><ele>340.5</ele><time>2026-04-19T11:38:12.511Z</time></trkpt><trkpt lat="39.0147683" lon="16.79474"><ele>337.0</ele><time>2026-04-19T11:38:13.511Z</time></trkpt><trkpt lat="39.0148867" lon="16.7947"><ele>337.0</ele><time>2026-04-19T11:38:14.512Z</time></trkpt><trkpt lat="39.015005" lon="16.7946717"><ele>337.0</ele><time>2026-04-19T11:38:15.511Z</time></trkpt><trkpt lat="39.0151233" lon="16.7946883"><ele>337.0</ele><time>2026-04-19T11:38:16.511Z</time></trkpt><trkpt lat="39.015235" lon="16.7947717"><ele>337.0</ele><time>2026-04-19T11:38:17.511Z</time></trkpt><trkpt lat="39.015345" lon="16.7948883"><ele>337.0</ele><time>2026-04-19T11:38:18.511Z</time></trkpt><trkpt lat="39.0154517" lon="16.7950183"><ele>337.0</ele><time>2026-04-19T11:38:19.511Z</time></trkpt><trkpt lat="39.0155717" lon="16.79513"><ele>337.0</ele><time>2026-04-19T11:38:20.511Z</time></trkpt><trkpt lat="39.0157033" lon="16.795215"><ele>337.0</ele><time>2026-04-19T11:38:21.512Z</time></trkpt><trkpt lat="39.01583" lon="16.7953017"><ele>334.25</ele><time>2026-04-19T11:38:22.511Z</time></trkpt><trkpt lat="39.0159383" lon="16.795415"><ele>331.5</ele><time>2026-04-19T11:38:23.511Z</time></trkpt><trkpt lat="39.016005" lon="16.7955617"><ele>328.75</ele><time>2026-04-19T11:38:24.511Z</time></trkpt><trkpt lat="39.0160433" lon="16.7957467"><ele>326.0</ele><time>2026-04-19T11:38:25.511Z</time></trkpt><trkpt lat="39.016065" lon="16.79593"><ele>324.0</ele><time>2026-04-19T11:38:26.511Z</time></trkpt><trkpt lat="39.0160783" lon="16.7961183"><ele>322.0</ele><time>2026-04-19T11:38:27.511Z</time></trkpt><trkpt lat="39.0160983" lon="16.7962933"><ele>320.0</ele><time>2026-04-19T11:38:28.511Z</time></trkpt><trkpt lat="39.0161433" lon="16.7964517"><ele>318.0</ele><time>2026-04-19T11:38:29.511Z</time></trkpt><trkpt lat="39.01621" lon="16.796585"><ele>318.0</ele><time>2026-04-19T11:38:30.511Z</time></trkpt><trkpt lat="39.0163083" lon="16.7966733"><ele>318.0</ele><time>2026-04-19T11:38:31.511Z</time></trkpt><trkpt lat="39.0164367" lon="16.796715"><ele>318.0</ele><time>2026-04-19T11:38:32.511Z</time></trkpt><trkpt lat="39.0165767" lon="16.7967083"><ele>318.0</ele><time>2026-04-19T11:38:33.511Z</time></trkpt><trkpt lat="39.016715" lon="16.79665"><ele>318.75</ele><time>2026-04-19T11:38:34.512Z</time></trkpt><trkpt lat="39.016825" lon="16.79658"><ele>319.5</ele><time>2026-04-19T11:38:35.511Z</time></trkpt><trkpt lat="39.0169433" lon="16.796545"><ele>320.25</ele><time>2026-04-19T11:38:36.511Z</time></trkpt><trkpt lat="39.0170617" lon="16.7965633"><ele>321.0</ele><time>2026-04-19T11:38:37.511Z</time></trkpt><trkpt lat="39.01719" lon="16.7966417"><ele>321.0</ele><time>2026-04-19T11:38:38.511Z</time></trkpt><trkpt lat="39.01729" lon="16.7967617"><ele>321.0</ele><time>2026-04-19T11:38:39.511Z</time></trkpt><trkpt lat="39.017385" lon="16.79689"><ele>321.0</ele><time>2026-04-19T11:38:40.512Z</time></trkpt><trkpt lat="39.0174933" lon="16.7969933"><ele>321.0</ele><time>2026-04-19T11:38:41.512Z</time></trkpt><trkpt lat="39.01763" lon="16.7970567"><ele>314.6666666666667</ele><time>2026-04-19T11:38:42.511Z</time></trkpt><trkpt lat="39.0177833" lon="16.7970817"><ele>308.33333333333337</ele><time>2026-04-19T11:38:43.511Z</time></trkpt><trkpt lat="39.0179533" lon="16.7970983"><ele>302.0</ele><time>2026-04-19T11:38:44.511Z</time></trkpt><trkpt lat="39.0181267" lon="16.7971233"><ele>302.0</ele><time>2026-04-19T11:38:45.511Z</time></trkpt><trkpt lat="39.0182933" lon="16.7971467"><ele>302.0</ele><time>2026-04-19T11:38:46.511Z</time></trkpt><trkpt lat="39.01845" lon="16.797165"><ele>302.0</ele><time>2026-04-19T11:38:47.511Z</time></trkpt><trkpt lat="39.0186133" lon="16.7971833"><ele>301.75</ele><time>2026-04-19T11:38:48.511Z</time></trkpt><trkpt lat="39.0187583" lon="16.7971983"><ele>301.5</ele><time>2026-04-19T11:38:49.512Z</time></trkpt><trkpt lat="39.0188817" lon="16.7972217"><ele>301.25</ele><time>2026-04-19T11:38:50.511Z</time></trkpt><trkpt lat="39.0189783" lon="16.79726"><ele>301.0</ele><time>2026-04-19T11:38:51.511Z</time></trkpt><trkpt lat="39.0190517" lon="16.797315"><ele>301.0</ele><time>2026-04-19T11:38:52.511Z</time></trkpt><trkpt lat="39.0190817" lon="16.7974283"><ele>301.0</ele><time>2026-04-19T11:38:53.511Z</time></trkpt><trkpt lat="39.0190733" lon="16.7975417"><ele>301.0</ele><time>2026-04-19T11:38:54.511Z</time></trkpt><trkpt lat="39.019015" lon="16.7976367"><ele>301.0</ele><time>2026-04-19T11:38:55.511Z</time></trkpt><trkpt lat="39.0189117" lon="16.7976733"><ele>301.0</ele><time>2026-04-19T11:38:56.512Z</time></trkpt><trkpt lat="39.0187767" lon="16.7976717"><ele>301.0</ele><time>2026-04-19T11:38:57.512Z</time></trkpt><trkpt lat="39.018635" lon="16.7976633"><ele>301.0</ele><time>2026-04-19T11:38:58.511Z</time></trkpt><trkpt lat="39.0184883" lon="16.7976767"><ele>301.0</ele><time>2026-04-19T11:38:59.511Z</time></trkpt><trkpt lat="39.0183417" lon="16.7977167"><ele>301.0</ele><time>2026-04-19T11:39:00.511Z</time></trkpt><trkpt lat="39.0182" lon="16.797785"><ele>297.0</ele><time>2026-04-19T11:39:01.511Z</time></trkpt><trkpt lat="39.0180583" lon="16.7978783"><ele>293.0</ele><time>2026-04-19T11:39:02.511Z</time></trkpt><trkpt lat="39.0179067" lon="16.7979833"><ele>289.0</ele><time>2026-04-19T11:39:03.511Z</time></trkpt><trkpt lat="39.0177617" lon="16.798085"><ele>289.0</ele><time>2026-04-19T11:39:04.511Z</time></trkpt><trkpt lat="39.0176167" lon="16.7981733"><ele>289.0</ele><time>2026-04-19T11:39:05.512Z</time></trkpt><trkpt lat="39.01746" lon="16.7982517"><ele>289.0</ele><time>2026-04-19T11:39:06.511Z</time></trkpt><trkpt lat="39.0173033" lon="16.7983167"><ele>289.3333333333333</ele><time>2026-04-19T11:39:07.511Z</time></trkpt><trkpt lat="39.0171417" lon="16.7983867"><ele>289.6666666666667</ele><time>2026-04-19T11:39:08.511Z</time></trkpt><trkpt lat="39.0169783" lon="16.7984567"><ele>290.0</ele><time>2026-04-19T11:39:09.511Z</time></trkpt><trkpt lat="39.0168167" lon="16.798525"><ele>286.33333333333337</ele><time>2026-04-19T11:39:10.511Z</time></trkpt><trkpt lat="39.0166633" lon="16.7985967"><ele>282.6666666666667</ele><time>2026-04-19T11:39:11.511Z</time></trkpt><trkpt lat="39.0165067" lon="16.7986717"><ele>279.0</ele><time>2026-04-19T11:39:12.511Z</time></trkpt><trkpt lat="39.0163517" lon="16.798755"><ele>279.0</ele><time>2026-04-19T11:39:13.511Z</time></trkpt><trkpt lat="39.01621" lon="16.7988533"><ele>279.0</ele><time>2026-04-19T11:39:14.512Z</time></trkpt><trkpt lat="39.0160733" lon="16.798955"><ele>279.0</ele><time>2026-04-19T11:39:15.511Z</time></trkpt><trkpt lat="39.015935" lon="16.7990433"><ele>278.6666666666667</ele><time>2026-04-19T11:39:16.511Z</time></trkpt><trkpt lat="39.0158017" lon="16.7991317"><ele>278.33333333333337</ele><time>2026-04-19T11:39:17.511Z</time></trkpt><trkpt lat="39.0156617" lon="16.7992217"><ele>278.0</ele><time>2026-04-19T11:39:18.512Z</time></trkpt><trkpt lat="39.0155183" lon="16.7993067"><ele>272.33333333333337</ele><time>2026-04-19T11:39:19.512Z</time></trkpt><trkpt lat="39.0153717" lon="16.7993667"><ele>266.6666666666667</ele><time>2026-04-19T11:39:20.511Z</time></trkpt><trkpt lat="39.01521" lon="16.799425"><ele>261.0</ele><time>2026-04-19T11:39:21.512Z</time></trkpt><trkpt lat="39.0150517" lon="16.799475"><ele>260.3333333333333</ele><time>2026-04-19T11:39:22.511Z</time></trkpt><trkpt lat="39.014895" lon="16.7995383"><ele>259.66666666666663</ele><time>2026-04-19T11:39:23.512Z</time></trkpt><trkpt lat="39.0147417" lon="16.799595"><ele>259.0</ele><time>2026-04-19T11:39:24.511Z</time></trkpt><trkpt lat="39.0145817" lon="16.7996467"><ele>259.0</ele><time>2026-04-19T11:39:25.511Z</time></trkpt><trkpt lat="39.0144267" lon="16.7997033"><ele>259.0</ele><time>2026-04-19T11:39:26.511Z</time></trkpt><trkpt lat="39.0142767" lon="16.7997583"><ele>259.0</ele><time>2026-04-19T11:39:27.512Z</time></trkpt><trkpt lat="39.0141233" lon="16.799815"><ele>257.75</ele><time>2026-04-19T11:39:28.511Z</time></trkpt><trkpt lat="39.0139833" lon="16.7998583"><ele>256.5</ele><time>2026-04-19T11:39:29.511Z</time></trkpt><trkpt lat="39.0138333" lon="16.799895"><ele>255.25</ele><time>2026-04-19T11:39:30.511Z</time></trkpt><trkpt lat="39.013685" lon="16.79992"><ele>254.0</ele><time>2026-04-19T11:39:31.511Z</time></trkpt><trkpt lat="39.0135283" lon="16.7999083"><ele>254.0</ele><time>2026-04-19T11:39:32.511Z</time></trkpt><trkpt lat="39.0133733" lon="16.7998983"><ele>254.0</ele><time>2026-04-19T11:39:33.511Z</time></trkpt><trkpt lat="39.0132217" lon="16.7998883"><ele>254.0</ele><time>2026-04-19T11:39:34.511Z</time></trkpt><trkpt lat="39.01307" lon="16.7998583"><ele>252.25</ele><time>2026-04-19T11:39:35.512Z</time></trkpt><trkpt lat="39.0129183" lon="16.799835"><ele>250.5</ele><time>2026-04-19T11:39:36.511Z</time></trkpt><trkpt lat="39.01277" lon="16.7998233"><ele>248.75</ele><time>2026-04-19T11:39:37.511Z</time></trkpt><trkpt lat="39.0126233" lon="16.79981"><ele>247.0</ele><time>2026-04-19T11:39:38.511Z</time></trkpt><trkpt lat="39.0124667" lon="16.799795"><ele>243.33333333333331</ele><time>2026-04-19T11:39:39.511Z</time></trkpt><trkpt lat="39.0122967" lon="16.79977"><ele>239.66666666666669</ele><time>2026-04-19T11:39:40.511Z</time></trkpt><trkpt lat="39.0121383" lon="16.7997367"><ele>236.0</ele><time>2026-04-19T11:39:41.512Z</time></trkpt><trkpt lat="39.0119733" lon="16.7996917"><ele>236.0</ele><time>2026-04-19T11:39:42.512Z</time></trkpt><trkpt lat="39.0118067" lon="16.79964"><ele>236.0</ele><time>2026-04-19T11:39:43.511Z</time></trkpt><trkpt lat="39.0116433" lon="16.7995933"><ele>236.0</ele><time>2026-04-19T11:39:44.511Z</time></trkpt><trkpt lat="39.0114783" lon="16.79955"><ele>231.33333333333334</ele><time>2026-04-19T11:39:45.512Z</time></trkpt><trkpt lat="39.0113067" lon="16.7995117"><ele>226.66666666666669</ele><time>2026-04-19T11:39:46.511Z</time></trkpt><trkpt lat="39.0111417" lon="16.799465"><ele>222.0</ele><time>2026-04-19T11:39:47.511Z</time></trkpt><trkpt lat="39.0109717" lon="16.79942"><ele>219.33333333333331</ele><time>2026-04-19T11:39:48.512Z</time></trkpt><trkpt lat="39.0107967" lon="16.7993833"><ele>216.66666666666666</ele><time>2026-04-19T11:39:49.511Z</time></trkpt><trkpt lat="39.0106217" lon="16.7993517"><ele>214.0</ele><time>2026-04-19T11:39:50.511Z</time></trkpt><trkpt lat="39.0104417" lon="16.7993217"><ele>217.33333333333331</ele><time>2026-04-19T11:39:51.512Z</time></trkpt><trkpt lat="39.010265" lon="16.79927"><ele>220.66666666666669</ele><time>2026-04-19T11:39:52.511Z</time></trkpt><trkpt lat="39.0100867" lon="16.799235"><ele>224.0</ele><time>2026-04-19T11:39:53.511Z</time></trkpt><trkpt lat="39.0099017" lon="16.7992017"><ele>224.0</ele><time>2026-04-19T11:39:54.511Z</time></trkpt><trkpt lat="39.0097233" lon="16.7991683"><ele>224.0</ele><time>2026-04-19T11:39:55.511Z</time></trkpt><trkpt lat="39.0095467" lon="16.7991267"><ele>224.0</ele><time>2026-04-19T11:39:56.511Z</time></trkpt><trkpt lat="39.0093733" lon="16.799085"><ele>224.0</ele><time>2026-04-19T11:39:57.511Z</time></trkpt><trkpt lat="39.0092" lon="16.7990633"><ele>224.0</ele><time>2026-04-19T11:39:58.511Z</time></trkpt><trkpt lat="39.0090267" lon="16.7990483"><ele>224.0</ele><time>2026-04-19T11:39:59.511Z</time></trkpt><trkpt lat="39.0088583" lon="16.7990467"><ele>222.33333333333334</ele><time>2026-04-19T11:40:00.511Z</time></trkpt><trkpt lat="39.0086883" lon="16.7990583"><ele>220.66666666666669</ele><time>2026-04-19T11:40:01.511Z</time></trkpt><trkpt lat="39.008515" lon="16.7990767"><ele>219.0</ele><time>2026-04-19T11:40:02.51Z</time></trkpt><trkpt lat="39.0083467" lon="16.7990933"><ele>219.66666666666669</ele><time>2026-04-19T11:40:03.512Z</time></trkpt><trkpt lat="39.008175" lon="16.7991167"><ele>220.33333333333334</ele><time>2026-04-19T11:40:04.511Z</time></trkpt><trkpt lat="39.0080133" lon="16.7991617"><ele>221.0</ele><time>2026-04-19T11:40:05.511Z</time></trkpt><trkpt lat="39.0078583" lon="16.7992267"><ele>221.0</ele><time>2026-04-19T11:40:06.511Z</time></trkpt><trkpt lat="39.0077017" lon="16.799295"><ele>221.0</ele><time>2026-04-19T11:40:07.511Z</time></trkpt><trkpt lat="39.007545" lon="16.7993617"><ele>221.0</ele><time>2026-04-19T11:40:08.511Z</time></trkpt><trkpt lat="39.0073883" lon="16.7994317"><ele>214.5</ele><time>2026-04-19T11:40:09.511Z</time></trkpt><trkpt lat="39.0072433" lon="16.7994917"><ele>208.0</ele><time>2026-04-19T11:40:10.511Z</time></trkpt><trkpt lat="39.0071117" lon="16.7995367"><ele>201.5</ele><time>2026-04-19T11:40:11.512Z</time></trkpt><trkpt lat="39.0069867" lon="16.799595"><ele>195.0</ele><time>2026-04-19T11:40:12.511Z</time></trkpt><trkpt lat="39.00688" lon="16.799645"><ele>195.0</ele><time>2026-04-19T11:40:13.511Z</time></trkpt><trkpt lat="39.00679" lon="16.7997217"><ele>195.0</ele><time>2026-04-19T11:40:14.511Z</time></trkpt><trkpt lat="39.006735" lon="16.7998267"><ele>195.0</ele><time>2026-04-19T11:40:15.511Z</time></trkpt><trkpt lat="39.00674" lon="16.7999633"><ele>195.0</ele><time>2026-04-19T11:40:16.511Z</time></trkpt><trkpt lat="39.0067933" lon="16.8000983"><ele>195.0</ele><time>2026-04-19T11:40:17.511Z</time></trkpt><trkpt lat="39.0068883" lon="16.8001983"><ele>195.0</ele><time>2026-04-19T11:40:18.512Z</time></trkpt><trkpt lat="39.0070067" lon="16.8002433"><ele>195.0</ele><time>2026-04-19T11:40:19.511Z</time></trkpt><trkpt lat="39.0071283" lon="16.8002183"><ele>195.0</ele><time>2026-04-19T11:40:20.511Z</time></trkpt><trkpt lat="39.00725" lon="16.8001717"><ele>195.0</ele><time>2026-04-19T11:40:21.511Z</time></trkpt><trkpt lat="39.007385" lon="16.8001367"><ele>197.66666666666669</ele><time>2026-04-19T11:40:22.511Z</time></trkpt><trkpt lat="39.0075317" lon="16.8001417"><ele>200.33333333333334</ele><time>2026-04-19T11:40:23.511Z</time></trkpt><trkpt lat="39.0076883" lon="16.80019"><ele>203.0</ele><time>2026-04-19T11:40:24.511Z</time></trkpt><trkpt lat="39.0078417" lon="16.8002417"><ele>197.33333333333334</ele><time>2026-04-19T11:40:25.511Z</time></trkpt><trkpt lat="39.008" lon="16.800305"><ele>191.66666666666669</ele><time>2026-04-19T11:40:26.511Z</time></trkpt><trkpt lat="39.008155" lon="16.8003683"><ele>186.0</ele><time>2026-04-19T11:40:27.511Z</time></trkpt><trkpt lat="39.0082933" lon="16.800425"><ele>187.0</ele><time>2026-04-19T11:40:28.512Z</time></trkpt><trkpt lat="39.0084167" lon="16.8004817"><ele>188.0</ele><time>2026-04-19T11:40:29.511Z</time></trkpt><trkpt lat="39.0084917" lon="16.8005767"><ele>189.0</ele><time>2026-04-19T11:40:30.512Z</time></trkpt><trkpt lat="39.008525" lon="16.8007133"><ele>190.0</ele><time>2026-04-19T11:40:31.511Z</time></trkpt><trkpt lat="39.00852" lon="16.800855"><ele>190.0</ele><time>2026-04-19T11:40:32.511Z</time></trkpt><trkpt lat="39.00847" lon="16.80098"><ele>190.0</ele><time>2026-04-19T11:40:33.511Z</time></trkpt><trkpt lat="39.0083767" lon="16.8010633"><ele>190.0</ele><time>2026-04-19T11:40:34.511Z</time></trkpt><trkpt lat="39.0082517" lon="16.801085"><ele>190.0</ele><time>2026-04-19T11:40:35.511Z</time></trkpt><trkpt lat="39.0081083" lon="16.8010733"><ele>188.66666666666669</ele><time>2026-04-19T11:40:36.512Z</time></trkpt><trkpt lat="39.0079517" lon="16.8010367"><ele>187.33333333333334</ele><time>2026-04-19T11:40:37.511Z</time></trkpt><trkpt lat="39.007775" lon="16.8010017"><ele>186.0</ele><time>2026-04-19T11:40:38.511Z</time></trkpt><trkpt lat="39.0075983" lon="16.80097"><ele>182.33333333333334</ele><time>2026-04-19T11:40:39.511Z</time></trkpt><trkpt lat="39.0074283" lon="16.80094"><ele>178.66666666666669</ele><time>2026-04-19T11:40:40.511Z</time></trkpt><trkpt lat="39.00726" lon="16.8009117"><ele>175.0</ele><time>2026-04-19T11:40:41.511Z</time></trkpt><trkpt lat="39.0070967" lon="16.80088"><ele>175.0</ele><time>2026-04-19T11:40:42.511Z</time></trkpt><trkpt lat="39.0069383" lon="16.8008717"><ele>175.0</ele><time>2026-04-19T11:40:43.511Z</time></trkpt><trkpt lat="39.0067783" lon="16.8008433"><ele>175.0</ele><time>2026-04-19T11:40:44.511Z</time></trkpt><trkpt lat="39.0066417" lon="16.8007917"><ele>167.66666666666669</ele><time>2026-04-19T11:40:45.512Z</time></trkpt><trkpt lat="39.00652" lon="16.8007033"><ele>160.33333333333334</ele><time>2026-04-19T11:40:46.511Z</time></trkpt><trkpt lat="39.0064217" lon="16.800555"><ele>153.0</ele><time>2026-04-19T11:40:47.511Z</time></trkpt><trkpt lat="39.0063383" lon="16.8003717"><ele>153.0</ele><time>2026-04-19T11:40:48.511Z</time></trkpt><trkpt lat="39.0062683" lon="16.8001733"><ele>153.0</ele><time>2026-04-19T11:40:49.512Z</time></trkpt><trkpt lat="39.0061967" lon="16.79999"><ele>153.0</ele><time>2026-04-19T11:40:50.511Z</time></trkpt><trkpt lat="39.0061117" lon="16.799825"><ele>155.25</ele><time>2026-04-19T11:40:51.511Z</time></trkpt><trkpt lat="39.006025" lon="16.7996633"><ele>157.5</ele><time>2026-04-19T11:40:52.512Z</time></trkpt><trkpt lat="39.0059367" lon="16.7995083"><ele>159.75</ele><time>2026-04-19T11:40:53.511Z</time></trkpt><trkpt lat="39.0058533" lon="16.7993767"><ele>162.0</ele><time>2026-04-19T11:40:54.511Z</time></trkpt><trkpt lat="39.0057567" lon="16.7992333"><ele>163.25</ele><time>2026-04-19T11:40:55.511Z</time></trkpt><trkpt lat="39.0056517" lon="16.7991583"><ele>164.5</ele><time>2026-04-19T11:40:56.511Z</time></trkpt><trkpt lat="39.00552" lon="16.7991233"><ele>165.75</ele><time>2026-04-19T11:40:57.511Z</time></trkpt><trkpt lat="39.0053833" lon="16.799135"><ele>167.0</ele><time>2026-04-19T11:40:58.512Z</time></trkpt><trkpt lat="39.005235" lon="16.799175"><ele>167.0</ele><time>2026-04-19T11:40:59.511Z</time></trkpt><trkpt lat="39.0050883" lon="16.7992567"><ele>167.0</ele><time>2026-04-19T11:41:00.511Z</time></trkpt><trkpt lat="39.0049683" lon="16.79937"><ele>167.0</ele><time>2026-04-19T11:41:01.512Z</time></trkpt><trkpt lat="39.0048717" lon="16.799515"><ele>166.33333333333331</ele><time>2026-04-19T11:41:02.511Z</time></trkpt><trkpt lat="39.0047967" lon="16.7996867"><ele>165.66666666666666</ele><time>2026-04-19T11:41:03.512Z</time></trkpt><trkpt lat="39.0047383" lon="16.7998817"><ele>165.0</ele><time>2026-04-19T11:41:04.511Z</time></trkpt><trkpt lat="39.0046767" lon="16.8000733"><ele>163.0</ele><time>2026-04-19T11:41:05.511Z</time></trkpt><trkpt lat="39.004625" lon="16.8002567"><ele>161.0</ele><time>2026-04-19T11:41:06.511Z</time></trkpt><trkpt lat="39.0045733" lon="16.80042"><ele>159.0</ele><time>2026-04-19T11:41:07.511Z</time></trkpt><trkpt lat="39.0045117" lon="16.8005467"><ele>157.0</ele><time>2026-04-19T11:41:08.511Z</time></trkpt><trkpt lat="39.00444" lon="16.8006367"><ele>157.0</ele><time>2026-04-19T11:41:09.511Z</time></trkpt><trkpt lat="39.0043467" lon="16.800695"><ele>157.0</ele><time>2026-04-19T11:41:10.511Z</time></trkpt><trkpt lat="39.0042233" lon="16.8007083"><ele>157.0</ele><time>2026-04-19T11:41:11.511Z</time></trkpt><trkpt lat="39.00408" lon="16.8007183"><ele>157.0</ele><time>2026-04-19T11:41:12.511Z</time></trkpt><trkpt lat="39.0039333" lon="16.80073"><ele>157.0</ele><time>2026-04-19T11:41:13.512Z</time></trkpt><trkpt lat="39.00379" lon="16.8007517"><ele>157.0</ele><time>2026-04-19T11:41:14.512Z</time></trkpt><trkpt lat="39.00365" lon="16.80078"><ele>157.0</ele><time>2026-04-19T11:41:15.511Z</time></trkpt><trkpt lat="39.003515" lon="16.80082"><ele>157.0</ele><time>2026-04-19T11:41:16.512Z</time></trkpt><trkpt lat="39.0033817" lon="16.800885"><ele>158.25</ele><time>2026-04-19T11:41:17.511Z</time></trkpt><trkpt lat="39.0032617" lon="16.8009917"><ele>159.5</ele><time>2026-04-19T11:41:18.511Z</time></trkpt><trkpt lat="39.0031717" lon="16.80113"><ele>160.75</ele><time>2026-04-19T11:41:19.511Z</time></trkpt><trkpt lat="39.0031033" lon="16.8013067"><ele>162.0</ele><time>2026-04-19T11:41:20.511Z</time></trkpt><trkpt lat="39.0030667" lon="16.8015117"><ele>162.0</ele><time>2026-04-19T11:41:21.511Z</time></trkpt><trkpt lat="39.0030583" lon="16.801735"><ele>162.0</ele><time>2026-04-19T11:41:22.512Z</time></trkpt><trkpt lat="39.0030717" lon="16.8019583"><ele>162.0</ele><time>2026-04-19T11:41:23.511Z</time></trkpt><trkpt lat="39.0030983" lon="16.8021667"><ele>162.33333333333334</ele><time>2026-04-19T11:41:24.511Z</time></trkpt><trkpt lat="39.0031433" lon="16.8023517"><ele>162.66666666666669</ele><time>2026-04-19T11:41:25.511Z</time></trkpt><trkpt lat="39.0032083" lon="16.80255"><ele>163.0</ele><time>2026-04-19T11:41:26.511Z</time></trkpt><trkpt lat="39.003285" lon="16.802735"><ele>156.33333333333334</ele><time>2026-04-19T11:41:27.511Z</time></trkpt><trkpt lat="39.00336" lon="16.8029217"><ele>149.66666666666666</ele><time>2026-04-19T11:41:28.511Z</time></trkpt><trkpt lat="39.0034133" lon="16.80312"><ele>143.0</ele><time>2026-04-19T11:41:29.511Z</time></trkpt><trkpt lat="39.0034483" lon="16.8033383"><ele>142.66666666666666</ele><time>2026-04-19T11:41:30.511Z</time></trkpt><trkpt lat="39.003465" lon="16.8035683"><ele>142.33333333333334</ele><time>2026-04-19T11:41:31.511Z</time></trkpt><trkpt lat="39.0034717" lon="16.8038083"><ele>142.0</ele><time>2026-04-19T11:41:32.511Z</time></trkpt><trkpt lat="39.0034783" lon="16.80405"><ele>142.0</ele><time>2026-04-19T11:41:33.511Z</time></trkpt><trkpt lat="39.0034817" lon="16.8043017"><ele>142.0</ele><time>2026-04-19T11:41:34.512Z</time></trkpt><trkpt lat="39.003485" lon="16.8045467"><ele>142.0</ele><time>2026-04-19T11:41:35.511Z</time></trkpt><trkpt lat="39.0034833" lon="16.8047867"><ele>142.0</ele><time>2026-04-19T11:41:36.511Z</time></trkpt><trkpt lat="39.00348" lon="16.80502"><ele>142.0</ele><time>2026-04-19T11:41:37.512Z</time></trkpt><trkpt lat="39.0034583" lon="16.80524"><ele>142.0</ele><time>2026-04-19T11:41:38.512Z</time></trkpt><trkpt lat="39.00341" lon="16.8054683"><ele>142.0</ele><time>2026-04-19T11:41:39.511Z</time></trkpt><trkpt lat="39.0033533" lon="16.8056933"><ele>142.0</ele><time>2026-04-19T11:41:40.511Z</time></trkpt><trkpt lat="39.00328" lon="16.8059233"><ele>142.0</ele><time>2026-04-19T11:41:41.512Z</time></trkpt><trkpt lat="39.0032117" lon="16.8061533"><ele>142.0</ele><time>2026-04-19T11:41:42.511Z</time></trkpt><trkpt lat="39.00315" lon="16.8063817"><ele>142.0</ele><time>2026-04-19T11:41:43.512Z</time></trkpt><trkpt lat="39.0030967" lon="16.8066083"><ele>142.0</ele><time>2026-04-19T11:41:44.511Z</time></trkpt><trkpt lat="39.0030467" lon="16.8068317"><ele>139.66666666666669</ele><time>2026-04-19T11:41:45.511Z</time></trkpt><trkpt lat="39.002985" lon="16.8070517"><ele>137.33333333333334</ele><time>2026-04-19T11:41:46.512Z</time></trkpt><trkpt lat="39.0029067" lon="16.80727"><ele>135.0</ele><time>2026-04-19T11:41:47.511Z</time></trkpt><trkpt lat="39.00282" lon="16.8074833"><ele>133.0</ele><time>2026-04-19T11:41:48.511Z</time></trkpt><trkpt lat="39.0027467" lon="16.8076883"><ele>131.0</ele><time>2026-04-19T11:41:49.511Z</time></trkpt><trkpt lat="39.002675" lon="16.80789"><ele>129.0</ele><time>2026-04-19T11:41:50.511Z</time></trkpt><trkpt lat="39.0026083" lon="16.8081033"><ele>129.0</ele><time>2026-04-19T11:41:51.512Z</time></trkpt><trkpt lat="39.0025383" lon="16.808315"><ele>129.0</ele><time>2026-04-19T11:41:52.511Z</time></trkpt><trkpt lat="39.0024517" lon="16.8085117"><ele>129.0</ele><time>2026-04-19T11:41:53.511Z</time></trkpt><trkpt lat="39.0023583" lon="16.8087017"><ele>128.0</ele><time>2026-04-19T11:41:54.511Z</time></trkpt><trkpt lat="39.002255" lon="16.8088933"><ele>127.0</ele><time>2026-04-19T11:41:55.511Z</time></trkpt><trkpt lat="39.002145" lon="16.8090917"><ele>126.0</ele><time>2026-04-19T11:41:56.511Z</time></trkpt><trkpt lat="39.0020667" lon="16.80928"><ele>123.66666666666666</ele><time>2026-04-19T11:41:57.511Z</time></trkpt><trkpt lat="39.00197" lon="16.8094633"><ele>121.33333333333333</ele><time>2026-04-19T11:41:58.511Z</time></trkpt><trkpt lat="39.0018733" lon="16.80961"><ele>119.0</ele><time>2026-04-19T11:41:59.511Z</time></trkpt><trkpt lat="39.0017533" lon="16.8097417"><ele>119.0</ele><time>2026-04-19T11:42:00.511Z</time></trkpt><trkpt lat="39.0016167" lon="16.8098567"><ele>119.0</ele><time>2026-04-19T11:42:01.511Z</time></trkpt><trkpt lat="39.0014667" lon="16.8099817"><ele>119.0</ele><time>2026-04-19T11:42:02.511Z</time></trkpt><trkpt lat="39.0013117" lon="16.8101"><ele>116.33333333333333</ele><time>2026-04-19T11:42:03.512Z</time></trkpt><trkpt lat="39.001155" lon="16.8101883"><ele>113.66666666666666</ele><time>2026-04-19T11:42:04.511Z</time></trkpt><trkpt lat="39.0009883" lon="16.8102517"><ele>111.0</ele><time>2026-04-19T11:42:05.511Z</time></trkpt><trkpt lat="39.0008167" lon="16.8103117"><ele>111.0</ele><time>2026-04-19T11:42:06.512Z</time></trkpt><trkpt lat="39.0006417" lon="16.8103717"><ele>111.0</ele><time>2026-04-19T11:42:07.511Z</time></trkpt><trkpt lat="39.0004683" lon="16.81043"><ele>111.0</ele><time>2026-04-19T11:42:08.512Z</time></trkpt><trkpt lat="39.000295" lon="16.810475"><ele>111.0</ele><time>2026-04-19T11:42:09.511Z</time></trkpt><trkpt lat="39.0001233" lon="16.810475"><ele>111.0</ele><time>2026-04-19T11:42:10.511Z</time></trkpt><trkpt lat="38.9999383" lon="16.8104533"><ele>111.0</ele><time>2026-04-19T11:42:11.511Z</time></trkpt><trkpt lat="38.9997567" lon="16.81041"><ele>111.0</ele><time>2026-04-19T11:42:12.511Z</time></trkpt><trkpt lat="38.9995967" lon="16.8103533"><ele>111.0</ele><time>2026-04-19T11:42:13.511Z</time></trkpt><trkpt lat="38.999475" lon="16.8102833"><ele>111.0</ele><time>2026-04-19T11:42:14.512Z</time></trkpt><trkpt lat="38.9994" lon="16.8101983"><ele>111.0</ele><time>2026-04-19T11:42:15.511Z</time></trkpt><trkpt lat="38.999365" lon="16.8100817"><ele>113.0</ele><time>2026-04-19T11:42:16.511Z</time></trkpt><trkpt lat="38.9993433" lon="16.80994"><ele>115.0</ele><time>2026-04-19T11:42:17.512Z</time></trkpt><trkpt lat="38.99932" lon="16.8097867"><ele>117.0</ele><time>2026-04-19T11:42:18.511Z</time></trkpt><trkpt lat="38.9992867" lon="16.8096317"><ele>119.0</ele><time>2026-04-19T11:42:19.511Z</time></trkpt><trkpt lat="38.9992333" lon="16.8095"><ele>118.0</ele><time>2026-04-19T11:42:20.511Z</time></trkpt><trkpt lat="38.999165" lon="16.8093917"><ele>117.0</ele><time>2026-04-19T11:42:21.511Z</time></trkpt><trkpt lat="38.9990683" lon="16.80931"><ele>116.0</ele><time>2026-04-19T11:42:22.512Z</time></trkpt><trkpt lat="38.9989617" lon="16.8092733"><ele>115.0</ele><time>2026-04-19T11:42:23.511Z</time></trkpt><trkpt lat="38.9988383" lon="16.809265"><ele>117.75</ele><time>2026-04-19T11:42:24.512Z</time></trkpt><trkpt lat="38.9987083" lon="16.809265"><ele>120.5</ele><time>2026-04-19T11:42:25.511Z</time></trkpt><trkpt lat="38.998565" lon="16.8092617"><ele>123.25</ele><time>2026-04-19T11:42:26.511Z</time></trkpt><trkpt lat="38.9984183" lon="16.809255"><ele>126.0</ele><time>2026-04-19T11:42:27.512Z</time></trkpt><trkpt lat="38.9982633" lon="16.8092533"><ele>126.0</ele><time>2026-04-19T11:42:28.511Z</time></trkpt><trkpt lat="38.9981067" lon="16.8092517"><ele>126.0</ele><time>2026-04-19T11:42:29.511Z</time></trkpt><trkpt lat="38.9979433" lon="16.809245"><ele>126.0</ele><time>2026-04-19T11:42:30.512Z</time></trkpt><trkpt lat="38.997785" lon="16.809235"><ele>126.0</ele><time>2026-04-19T11:42:31.511Z</time></trkpt><trkpt lat="38.9976317" lon="16.809225"><ele>126.0</ele><time>2026-04-19T11:42:32.511Z</time></trkpt><trkpt lat="38.997475" lon="16.80923"><ele>126.0</ele><time>2026-04-19T11:42:33.511Z</time></trkpt><trkpt lat="38.99732" lon="16.8092733"><ele>123.0</ele><time>2026-04-19T11:42:34.511Z</time></trkpt><trkpt lat="38.9971683" lon="16.8093517"><ele>120.0</ele><time>2026-04-19T11:42:35.511Z</time></trkpt><trkpt lat="38.9970217" lon="16.8094633"><ele>117.0</ele><time>2026-04-19T11:42:36.512Z</time></trkpt><trkpt lat="38.9968783" lon="16.8095883"><ele>117.0</ele><time>2026-04-19T11:42:37.511Z</time></trkpt><trkpt lat="38.99674" lon="16.8097167"><ele>117.0</ele><time>2026-04-19T11:42:38.511Z</time></trkpt><trkpt lat="38.996595" lon="16.809835"><ele>117.0</ele><time>2026-04-19T11:42:39.511Z</time></trkpt><trkpt lat="38.99645" lon="16.8099583"><ele>117.66666666666666</ele><time>2026-04-19T11:42:40.511Z</time></trkpt><trkpt lat="38.9962983" lon="16.810075"><ele>118.33333333333333</ele><time>2026-04-19T11:42:41.511Z</time></trkpt><trkpt lat="38.9961367" lon="16.810185"><ele>119.0</ele><time>2026-04-19T11:42:42.511Z</time></trkpt><trkpt lat="38.995965" lon="16.8102833"><ele>115.0</ele><time>2026-04-19T11:42:43.512Z</time></trkpt><trkpt lat="38.995785" lon="16.8103833"><ele>111.0</ele><time>2026-04-19T11:42:44.511Z</time></trkpt><trkpt lat="38.9955883" lon="16.8104717"><ele>107.0</ele><time>2026-04-19T11:42:45.511Z</time></trkpt><trkpt lat="38.9954017" lon="16.810565"><ele>107.0</ele><time>2026-04-19T11:42:46.511Z</time></trkpt><trkpt lat="38.9952117" lon="16.8106467"><ele>107.0</ele><time>2026-04-19T11:42:47.511Z</time></trkpt><trkpt lat="38.9950067" lon="16.8107383"><ele>107.0</ele><time>2026-04-19T11:42:48.511Z</time></trkpt><trkpt lat="38.9948083" lon="16.8108267"><ele>104.33333333333333</ele><time>2026-04-19T11:42:49.511Z</time></trkpt><trkpt lat="38.9946067" lon="16.8109167"><ele>101.66666666666666</ele><time>2026-04-19T11:42:50.511Z</time></trkpt><trkpt lat="38.9944117" lon="16.811005"><ele>99.0</ele><time>2026-04-19T11:42:51.511Z</time></trkpt><trkpt lat="38.99422" lon="16.8110933"><ele>98.66666666666666</ele><time>2026-04-19T11:42:52.512Z</time></trkpt><trkpt lat="38.9940217" lon="16.8111867"><ele>98.33333333333333</ele><time>2026-04-19T11:42:53.511Z</time></trkpt><trkpt lat="38.993825" lon="16.8112783"><ele>98.0</ele><time>2026-04-19T11:42:54.511Z</time></trkpt><trkpt lat="38.9936317" lon="16.811365"><ele>98.0</ele><time>2026-04-19T11:42:55.512Z</time></trkpt><trkpt lat="38.993435" lon="16.811455"><ele>98.0</ele><time>2026-04-19T11:42:56.511Z</time></trkpt><trkpt lat="38.9932483" lon="16.8115433"><ele>98.0</ele><time>2026-04-19T11:42:57.511Z</time></trkpt><trkpt lat="38.9930633" lon="16.81163"><ele>97.66666666666666</ele><time>2026-04-19T11:42:58.512Z</time></trkpt><trkpt lat="38.99288" lon="16.81171"><ele>97.33333333333334</ele><time>2026-04-19T11:42:59.511Z</time></trkpt><trkpt lat="38.9926917" lon="16.811795"><ele>97.0</ele><time>2026-04-19T11:43:00.511Z</time></trkpt><trkpt lat="38.9925133" lon="16.81189"><ele>97.33333333333334</ele><time>2026-04-19T11:43:01.511Z</time></trkpt><trkpt lat="38.992335" lon="16.8120117"><ele>97.66666666666666</ele><time>2026-04-19T11:43:02.511Z</time></trkpt><trkpt lat="38.9921717" lon="16.8121583"><ele>98.0</ele><time>2026-04-19T11:43:03.511Z</time></trkpt><trkpt lat="38.9920067" lon="16.8123117"><ele>98.0</ele><time>2026-04-19T11:43:04.511Z</time></trkpt><trkpt lat="38.9918483" lon="16.81247"><ele>98.0</ele><time>2026-04-19T11:43:05.512Z</time></trkpt><trkpt lat="38.9916817" lon="16.8126367"><ele>98.0</ele><time>2026-04-19T11:43:06.511Z</time></trkpt><trkpt lat="38.9915267" lon="16.8127983"><ele>96.0</ele><time>2026-04-19T11:43:07.512Z</time></trkpt><trkpt lat="38.9913667" lon="16.812965"><ele>94.0</ele><time>2026-04-19T11:43:08.511Z</time></trkpt><trkpt lat="38.9912117" lon="16.813135"><ele>92.0</ele><time>2026-04-19T11:43:09.511Z</time></trkpt><trkpt lat="38.99107" lon="16.813305"><ele>92.0</ele><time>2026-04-19T11:43:10.512Z</time></trkpt><trkpt lat="38.9909383" lon="16.8134967"><ele>92.0</ele><time>2026-04-19T11:43:11.511Z</time></trkpt><trkpt lat="38.9908133" lon="16.8136933"><ele>92.0</ele><time>2026-04-19T11:43:12.511Z</time></trkpt><trkpt lat="38.9906983" lon="16.8138767"><ele>92.0</ele><time>2026-04-19T11:43:13.511Z</time></trkpt><trkpt lat="38.9905817" lon="16.814055"><ele>92.0</ele><time>2026-04-19T11:43:14.511Z</time></trkpt><trkpt lat="38.99044" lon="16.8142333"><ele>92.0</ele><time>2026-04-19T11:43:15.511Z</time></trkpt><trkpt lat="38.9902867" lon="16.8144083"><ele>90.0</ele><time>2026-04-19T11:43:16.511Z</time></trkpt><trkpt lat="38.9901283" lon="16.81457"><ele>88.0</ele><time>2026-04-19T11:43:17.511Z</time></trkpt><trkpt lat="38.9899633" lon="16.8147317"><ele>86.0</ele><time>2026-04-19T11:43:18.512Z</time></trkpt><trkpt lat="38.9897917" lon="16.8149"><ele>86.0</ele><time>2026-04-19T11:43:19.511Z</time></trkpt><trkpt lat="38.98962" lon="16.8150667"><ele>86.0</ele><time>2026-04-19T11:43:20.511Z</time></trkpt><trkpt lat="38.9894533" lon="16.8152317"><ele>86.0</ele><time>2026-04-19T11:43:21.512Z</time></trkpt><trkpt lat="38.9892867" lon="16.8153917"><ele>85.33333333333334</ele><time>2026-04-19T11:43:22.511Z</time></trkpt><trkpt lat="38.9891283" lon="16.815555"><ele>84.66666666666667</ele><time>2026-04-19T11:43:23.511Z</time></trkpt><trkpt lat="38.9889667" lon="16.8157183"><ele>84.0</ele><time>2026-04-19T11:43:24.512Z</time></trkpt><trkpt lat="38.9888117" lon="16.815895"><ele>83.33333333333333</ele><time>2026-04-19T11:43:25.511Z</time></trkpt><trkpt lat="38.9886667" lon="16.8160817"><ele>82.66666666666666</ele><time>2026-04-19T11:43:26.512Z</time></trkpt><trkpt lat="38.9885233" lon="16.816295"><ele>82.0</ele><time>2026-04-19T11:43:27.511Z</time></trkpt><trkpt lat="38.9883783" lon="16.8165083"><ele>82.0</ele><time>2026-04-19T11:43:28.511Z</time></trkpt><trkpt lat="38.9882317" lon="16.8167283"><ele>82.0</ele><time>2026-04-19T11:43:29.511Z</time></trkpt><trkpt lat="38.988085" lon="16.8169383"><ele>82.0</ele><time>2026-04-19T11:43:30.511Z</time></trkpt><trkpt lat="38.9879433" lon="16.81715"><ele>82.0</ele><time>2026-04-19T11:43:31.511Z</time></trkpt><trkpt lat="38.9878" lon="16.8173667"><ele>82.0</ele><time>2026-04-19T11:43:32.512Z</time></trkpt><trkpt lat="38.987655" lon="16.8175867"><ele>82.0</ele><time>2026-04-19T11:43:33.511Z</time></trkpt><trkpt lat="38.9875167" lon="16.817795"><ele>81.33333333333333</ele><time>2026-04-19T11:43:34.512Z</time></trkpt><trkpt lat="38.9873783" lon="16.8180083"><ele>80.66666666666667</ele><time>2026-04-19T11:43:35.512Z</time></trkpt><trkpt lat="38.9872383" lon="16.8182233"><ele>80.0</ele><time>2026-04-19T11:43:36.511Z</time></trkpt><trkpt lat="38.9870983" lon="16.8184367"><ele>77.66666666666667</ele><time>2026-04-19T11:43:37.511Z</time></trkpt><trkpt lat="38.9869683" lon="16.818655"><ele>75.33333333333333</ele><time>2026-04-19T11:43:38.512Z</time></trkpt><trkpt lat="38.9868433" lon="16.8188767"><ele>73.0</ele><time>2026-04-19T11:43:39.511Z</time></trkpt><trkpt lat="38.98672" lon="16.8191017"><ele>72.66666666666666</ele><time>2026-04-19T11:43:40.512Z</time></trkpt><trkpt lat="38.98659" lon="16.81931"><ele>72.33333333333333</ele><time>2026-04-19T11:43:41.511Z</time></trkpt><trkpt lat="38.98645" lon="16.819515"><ele>72.0</ele><time>2026-04-19T11:43:42.511Z</time></trkpt><trkpt lat="38.986325" lon="16.8197083"><ele>72.0</ele><time>2026-04-19T11:43:43.512Z</time></trkpt><trkpt lat="38.9861917" lon="16.8198933"><ele>72.0</ele><time>2026-04-19T11:43:44.512Z</time></trkpt><trkpt lat="38.9860417" lon="16.8200667"><ele>72.0</ele><time>2026-04-19T11:43:45.511Z</time></trkpt><trkpt lat="38.985875" lon="16.8202183"><ele>71.33333333333333</ele><time>2026-04-19T11:43:46.512Z</time></trkpt><trkpt lat="38.9856983" lon="16.82036"><ele>70.66666666666666</ele><time>2026-04-19T11:43:47.511Z</time></trkpt><trkpt lat="38.98552" lon="16.8205017"><ele>70.0</ele><time>2026-04-19T11:43:48.511Z</time></trkpt><trkpt lat="38.9853333" lon="16.8206433"><ele>70.0</ele><time>2026-04-19T11:43:49.512Z</time></trkpt><trkpt lat="38.985135" lon="16.820775"><ele>70.0</ele><time>2026-04-19T11:43:50.511Z</time></trkpt><trkpt lat="38.98495" lon="16.820905"><ele>70.0</ele><time>2026-04-19T11:43:51.511Z</time></trkpt><trkpt lat="38.984765" lon="16.8210267"><ele>69.33333333333333</ele><time>2026-04-19T11:43:52.511Z</time></trkpt><trkpt lat="38.9845917" lon="16.82115"><ele>68.66666666666667</ele><time>2026-04-19T11:43:53.511Z</time></trkpt><trkpt lat="38.9844233" lon="16.8212833"><ele>68.0</ele><time>2026-04-19T11:43:54.511Z</time></trkpt><trkpt lat="38.9842683" lon="16.8214117"><ele>72.0</ele><time>2026-04-19T11:43:55.511Z</time></trkpt><trkpt lat="38.98412" lon="16.82152"><ele>76.0</ele><time>2026-04-19T11:43:56.511Z</time></trkpt><trkpt lat="38.9839733" lon="16.8215983"><ele>80.0</ele><time>2026-04-19T11:43:57.511Z</time></trkpt><trkpt lat="38.9838233" lon="16.821635"><ele>80.0</ele><time>2026-04-19T11:43:58.511Z</time></trkpt><trkpt lat="38.9836783" lon="16.8216133"><ele>80.0</ele><time>2026-04-19T11:43:59.512Z</time></trkpt><trkpt lat="38.9835333" lon="16.8215483"><ele>80.0</ele><time>2026-04-19T11:44:00.512Z</time></trkpt><trkpt lat="38.9833933" lon="16.821445"><ele>84.33333333333334</ele><time>2026-04-19T11:44:01.511Z</time></trkpt><trkpt lat="38.983255" lon="16.8213217"><ele>88.66666666666667</ele><time>2026-04-19T11:44:02.511Z</time></trkpt><trkpt lat="38.98312" lon="16.8211883"><ele>93.0</ele><time>2026-04-19T11:44:03.511Z</time></trkpt><trkpt lat="38.9829933" lon="16.8210617"><ele>94.33333333333334</ele><time>2026-04-19T11:44:04.511Z</time></trkpt><trkpt lat="38.982855" lon="16.8209367"><ele>95.66666666666667</ele><time>2026-04-19T11:44:05.512Z</time></trkpt><trkpt lat="38.9826983" lon="16.8208283"><ele>97.0</ele><time>2026-04-19T11:44:06.512Z</time></trkpt><trkpt lat="38.98253" lon="16.820735"><ele>95.0</ele><time>2026-04-19T11:44:07.511Z</time></trkpt><trkpt lat="38.98236" lon="16.82065"><ele>93.0</ele><time>2026-04-19T11:44:08.511Z</time></trkpt><trkpt lat="38.9821817" lon="16.8205583"><ele>91.0</ele><time>2026-04-19T11:44:09.511Z</time></trkpt><trkpt lat="38.9820017" lon="16.820465"><ele>91.0</ele><time>2026-04-19T11:44:10.511Z</time></trkpt><trkpt lat="38.981815" lon="16.8203717"><ele>91.0</ele><time>2026-04-19T11:44:11.511Z</time></trkpt><trkpt lat="38.9816317" lon="16.8202767"><ele>91.0</ele><time>2026-04-19T11:44:12.511Z</time></trkpt><trkpt lat="38.98144" lon="16.8201767"><ele>87.66666666666666</ele><time>2026-04-19T11:44:13.511Z</time></trkpt><trkpt lat="38.9812483" lon="16.8200783"><ele>84.33333333333333</ele><time>2026-04-19T11:44:14.512Z</time></trkpt><trkpt lat="38.9810517" lon="16.81998"><ele>81.0</ele><time>2026-04-19T11:44:15.511Z</time></trkpt><trkpt lat="38.9808633" lon="16.8198817"><ele>81.0</ele><time>2026-04-19T11:44:16.511Z</time></trkpt><trkpt lat="38.9806667" lon="16.81978"><ele>81.0</ele><time>2026-04-19T11:44:17.511Z</time></trkpt><trkpt lat="38.980475" lon="16.8196833"><ele>81.0</ele><time>2026-04-19T11:44:18.511Z</time></trkpt><trkpt lat="38.9802867" lon="16.819585"><ele>81.0</ele><time>2026-04-19T11:44:19.511Z</time></trkpt><trkpt lat="38.9800967" lon="16.8194883"><ele>81.0</ele><time>2026-04-19T11:44:20.512Z</time></trkpt><trkpt lat="38.9799083" lon="16.81939"><ele>81.0</ele><time>2026-04-19T11:44:21.511Z</time></trkpt><trkpt lat="38.9797217" lon="16.819295"><ele>79.33333333333333</ele><time>2026-04-19T11:44:22.511Z</time></trkpt><trkpt lat="38.97954" lon="16.8192017"><ele>77.66666666666666</ele><time>2026-04-19T11:44:23.511Z</time></trkpt><trkpt lat="38.9793517" lon="16.819115"><ele>76.0</ele><time>2026-04-19T11:44:24.511Z</time></trkpt><trkpt lat="38.9791567" lon="16.819045"><ele>76.0</ele><time>2026-04-19T11:44:25.511Z</time></trkpt><trkpt lat="38.9789533" lon="16.8189883"><ele>76.0</ele><time>2026-04-19T11:44:26.511Z</time></trkpt><trkpt lat="38.9787383" lon="16.8189667"><ele>76.0</ele><time>2026-04-19T11:44:27.511Z</time></trkpt><trkpt lat="38.9785183" lon="16.8189567"><ele>75.66666666666666</ele><time>2026-04-19T11:44:28.512Z</time></trkpt><trkpt lat="38.9783" lon="16.8189433"><ele>75.33333333333333</ele><time>2026-04-19T11:44:29.511Z</time></trkpt><trkpt lat="38.9780733" lon="16.818925"><ele>75.0</ele><time>2026-04-19T11:44:30.511Z</time></trkpt><trkpt lat="38.9778483" lon="16.81891"><ele>75.0</ele><time>2026-04-19T11:44:31.511Z</time></trkpt><trkpt lat="38.977625" lon="16.8188867"><ele>75.0</ele><time>2026-04-19T11:44:32.511Z</time></trkpt><trkpt lat="38.9774033" lon="16.81886"><ele>75.0</ele><time>2026-04-19T11:44:33.511Z</time></trkpt><trkpt lat="38.977185" lon="16.8188183"><ele>75.0</ele><time>2026-04-19T11:44:34.511Z</time></trkpt><trkpt lat="38.9769733" lon="16.81877"><ele>75.0</ele><time>2026-04-19T11:44:35.511Z</time></trkpt><trkpt lat="38.97677" lon="16.8187183"><ele>75.0</ele><time>2026-04-19T11:44:36.512Z</time></trkpt><trkpt lat="38.976575" lon="16.818675"><ele>75.0</ele><time>2026-04-19T11:44:37.511Z</time></trkpt><trkpt lat="38.97637" lon="16.8186333"><ele>75.0</ele><time>2026-04-19T11:44:38.512Z</time></trkpt><trkpt lat="38.9761783" lon="16.8185867"><ele>75.0</ele><time>2026-04-19T11:44:39.511Z</time></trkpt><trkpt lat="38.9759983" lon="16.818545"><ele>74.33333333333333</ele><time>2026-04-19T11:44:40.511Z</time></trkpt><trkpt lat="38.9758283" lon="16.8185133"><ele>73.66666666666666</ele><time>2026-04-19T11:44:41.511Z</time></trkpt><trkpt lat="38.9756567" lon="16.81851"><ele>73.0</ele><time>2026-04-19T11:44:42.511Z</time></trkpt><trkpt lat="38.9754867" lon="16.8185417"><ele>73.0</ele><time>2026-04-19T11:44:43.512Z</time></trkpt><trkpt lat="38.97531" lon="16.8185883"><ele>73.0</ele><time>2026-04-19T11:44:44.511Z</time></trkpt><trkpt lat="38.975135" lon="16.8186367"><ele>73.0</ele><time>2026-04-19T11:44:45.512Z</time></trkpt><trkpt lat="38.9749633" lon="16.8186767"><ele>71.0</ele><time>2026-04-19T11:44:46.511Z</time></trkpt><trkpt lat="38.9747883" lon="16.8187217"><ele>69.0</ele><time>2026-04-19T11:44:47.512Z</time></trkpt><trkpt lat="38.9746233" lon="16.8187667"><ele>67.0</ele><time>2026-04-19T11:44:48.511Z</time></trkpt><trkpt lat="38.9744517" lon="16.8188083"><ele>67.0</ele><time>2026-04-19T11:44:49.511Z</time></trkpt><trkpt lat="38.9742767" lon="16.81884"><ele>67.0</ele><time>2026-04-19T11:44:50.511Z</time></trkpt><trkpt lat="38.974095" lon="16.8188483"><ele>67.0</ele><time>2026-04-19T11:44:51.512Z</time></trkpt><trkpt lat="38.9739117" lon="16.8188333"><ele>66.66666666666666</ele><time>2026-04-19T11:44:52.512Z</time></trkpt><trkpt lat="38.9737167" lon="16.8187883"><ele>66.33333333333333</ele><time>2026-04-19T11:44:53.511Z</time></trkpt><trkpt lat="38.9735283" lon="16.8187033"><ele>66.0</ele><time>2026-04-19T11:44:54.511Z</time></trkpt><trkpt lat="38.9733417" lon="16.8185833"><ele>64.0</ele><time>2026-04-19T11:44:55.511Z</time></trkpt><trkpt lat="38.9731633" lon="16.81845"><ele>62.0</ele><time>2026-04-19T11:44:56.512Z</time></trkpt><trkpt lat="38.972995" lon="16.8183117"><ele>60.0</ele><time>2026-04-19T11:44:57.511Z</time></trkpt><trkpt lat="38.9728283" lon="16.818175"><ele>60.0</ele><time>2026-04-19T11:44:58.512Z</time></trkpt><trkpt lat="38.9726683" lon="16.8180483"><ele>60.0</ele><time>2026-04-19T11:44:59.511Z</time></trkpt><trkpt lat="38.9725117" lon="16.8179317"><ele>60.0</ele><time>2026-04-19T11:45:00.511Z</time></trkpt><trkpt lat="38.9723733" lon="16.8178383"><ele>62.0</ele><time>2026-04-19T11:45:01.511Z</time></trkpt><trkpt lat="38.9722283" lon="16.81778"><ele>64.0</ele><time>2026-04-19T11:45:02.512Z</time></trkpt><trkpt lat="38.97207" lon="16.817775"><ele>66.0</ele><time>2026-04-19T11:45:03.511Z</time></trkpt><trkpt lat="38.97191" lon="16.8178417"><ele>66.0</ele><time>2026-04-19T11:45:04.511Z</time></trkpt><trkpt lat="38.971765" lon="16.8179633"><ele>66.0</ele><time>2026-04-19T11:45:05.511Z</time></trkpt><trkpt lat="38.9716333" lon="16.8181083"><ele>66.0</ele><time>2026-04-19T11:45:06.512Z</time></trkpt><trkpt lat="38.971505" lon="16.8182683"><ele>66.33333333333333</ele><time>2026-04-19T11:45:07.511Z</time></trkpt><trkpt lat="38.971375" lon="16.8184217"><ele>66.66666666666666</ele><time>2026-04-19T11:45:08.511Z</time></trkpt><trkpt lat="38.97123" lon="16.81856"><ele>67.0</ele><time>2026-04-19T11:45:09.512Z</time></trkpt><trkpt lat="38.9710667" lon="16.81866"><ele>66.0</ele><time>2026-04-19T11:45:10.511Z</time></trkpt><trkpt lat="38.9708783" lon="16.8187233"><ele>65.0</ele><time>2026-04-19T11:45:11.511Z</time></trkpt><trkpt lat="38.970685" lon="16.8187883"><ele>64.0</ele><time>2026-04-19T11:45:12.511Z</time></trkpt><trkpt lat="38.9704933" lon="16.8188567"><ele>62.33333333333333</ele><time>2026-04-19T11:45:13.512Z</time></trkpt><trkpt lat="38.9702967" lon="16.81891"><ele>60.66666666666667</ele><time>2026-04-19T11:45:14.511Z</time></trkpt><trkpt lat="38.9701" lon="16.8189367"><ele>59.0</ele><time>2026-04-19T11:45:15.512Z</time></trkpt><trkpt lat="38.9699017" lon="16.8189233"><ele>58.333333333333336</ele><time>2026-04-19T11:45:16.512Z</time></trkpt><trkpt lat="38.9697067" lon="16.8188583"><ele>57.66666666666667</ele><time>2026-04-19T11:45:17.511Z</time></trkpt><trkpt lat="38.96952" lon="16.818765"><ele>57.0</ele><time>2026-04-19T11:45:18.511Z</time></trkpt><trkpt lat="38.9693383" lon="16.81866"><ele>56.33333333333333</ele><time>2026-04-19T11:45:19.511Z</time></trkpt><trkpt lat="38.9691667" lon="16.8185633"><ele>55.666666666666664</ele><time>2026-04-19T11:45:20.511Z</time></trkpt><trkpt lat="38.9689983" lon="16.8184933"><ele>55.0</ele><time>2026-04-19T11:45:21.511Z</time></trkpt><trkpt lat="38.9688217" lon="16.8184633"><ele>55.0</ele><time>2026-04-19T11:45:22.511Z</time></trkpt><trkpt lat="38.9686433" lon="16.8185017"><ele>55.0</ele><time>2026-04-19T11:45:23.512Z</time></trkpt><trkpt lat="38.96845" lon="16.818585"><ele>55.0</ele><time>2026-04-19T11:45:24.512Z</time></trkpt><trkpt lat="38.9682617" lon="16.818685"><ele>54.666666666666664</ele><time>2026-04-19T11:45:25.511Z</time></trkpt><trkpt lat="38.96809" lon="16.8187817"><ele>54.33333333333333</ele><time>2026-04-19T11:45:26.511Z</time></trkpt><trkpt lat="38.967925" lon="16.8188817"><ele>54.0</ele><time>2026-04-19T11:45:27.511Z</time></trkpt><trkpt lat="38.9677833" lon="16.8190233"><ele>54.0</ele><time>2026-04-19T11:45:28.511Z</time></trkpt><trkpt lat="38.9676667" lon="16.819195"><ele>54.0</ele><time>2026-04-19T11:45:29.512Z</time></trkpt><trkpt lat="38.9675783" lon="16.8193983"><ele>54.0</ele><time>2026-04-19T11:45:30.511Z</time></trkpt><trkpt lat="38.9675217" lon="16.8196383"><ele>50.666666666666664</ele><time>2026-04-19T11:45:31.511Z</time></trkpt><trkpt lat="38.9674767" lon="16.819885"><ele>47.33333333333333</ele><time>2026-04-19T11:45:32.511Z</time></trkpt><trkpt lat="38.96743" lon="16.8201333"><ele>44.0</ele><time>2026-04-19T11:45:33.511Z</time></trkpt><trkpt lat="38.9673833" lon="16.8203633"><ele>44.0</ele><time>2026-04-19T11:45:34.511Z</time></trkpt><trkpt lat="38.967335" lon="16.82059"><ele>44.0</ele><time>2026-04-19T11:45:35.511Z</time></trkpt><trkpt lat="38.9672917" lon="16.8208067"><ele>44.0</ele><time>2026-04-19T11:45:36.511Z</time></trkpt><trkpt lat="38.9672517" lon="16.8210067"><ele>44.0</ele><time>2026-04-19T11:45:37.511Z</time></trkpt><trkpt lat="38.967205" lon="16.8212083"><ele>44.0</ele><time>2026-04-19T11:45:38.511Z</time></trkpt><trkpt lat="38.9671617" lon="16.821405"><ele>44.0</ele><time>2026-04-19T11:45:39.511Z</time></trkpt><trkpt lat="38.9671217" lon="16.8216017"><ele>44.0</ele><time>2026-04-19T11:45:40.511Z</time></trkpt><trkpt lat="38.9670833" lon="16.821795"><ele>44.0</ele><time>2026-04-19T11:45:41.512Z</time></trkpt><trkpt lat="38.9670433" lon="16.82199"><ele>44.0</ele><time>2026-04-19T11:45:42.511Z</time></trkpt><trkpt lat="38.9670033" lon="16.8221833"><ele>44.75</ele><time>2026-04-19T11:45:43.511Z</time></trkpt><trkpt lat="38.966965" lon="16.8223733"><ele>45.5</ele><time>2026-04-19T11:45:44.511Z</time></trkpt><trkpt lat="38.9669217" lon="16.8225583"><ele>46.25</ele><time>2026-04-19T11:45:45.511Z</time></trkpt><trkpt lat="38.966885" lon="16.8227333"><ele>47.0</ele><time>2026-04-19T11:45:46.511Z</time></trkpt><trkpt lat="38.9668583" lon="16.8228767"><ele>45.666666666666664</ele><time>2026-04-19T11:45:47.511Z</time></trkpt><trkpt lat="38.9668333" lon="16.822995"><ele>44.33333333333333</ele><time>2026-04-19T11:45:48.511Z</time></trkpt><trkpt lat="38.96681" lon="16.8230883"><ele>43.0</ele><time>2026-04-19T11:45:49.512Z</time></trkpt><trkpt lat="38.966785" lon="16.823185"><ele>41.666666666666664</ele><time>2026-04-19T11:45:51.511Z</time></trkpt><trkpt lat="38.9667717" lon="16.8232867"><ele>40.333333333333336</ele><time>2026-04-19T11:46:09.511Z</time></trkpt><trkpt lat="38.9667483" lon="16.8234333"><ele>39.0</ele><time>2026-04-19T11:46:11.511Z</time></trkpt><trkpt lat="38.9667333" lon="16.8235133"><ele>39.0</ele><time>2026-04-19T11:46:12.511Z</time></trkpt><trkpt lat="38.9667133" lon="16.82365"><ele>39.0</ele><time>2026-04-19T11:46:14.509Z</time></trkpt><trkpt lat="38.9667367" lon="16.8237333"><ele>39.0</ele><time>2026-04-19T11:46:17.511Z</time></trkpt><trkpt lat="38.9668017" lon="16.8235883"><ele>39.0</ele><time>2026-04-19T11:46:21.511Z</time></trkpt><trkpt lat="38.9667933" lon="16.8235"><ele>39.0</ele><time>2026-04-19T11:46:22.511Z</time></trkpt><trkpt lat="38.96679" lon="16.8233817"><ele>39.0</ele><time>2026-04-19T11:46:23.511Z</time></trkpt><trkpt lat="38.966805" lon="16.82324"><ele>39.0</ele><time>2026-04-19T11:46:24.511Z</time></trkpt><trkpt lat="38.96683" lon="16.8230833"><ele>39.0</ele><time>2026-04-19T11:46:25.511Z</time></trkpt><trkpt lat="38.9668617" lon="16.8229167"><ele>39.0</ele><time>2026-04-19T11:46:26.511Z</time></trkpt><trkpt lat="38.9669" lon="16.8227383"><ele>41.666666666666664</ele><time>2026-04-19T11:46:27.511Z</time></trkpt><trkpt lat="38.9669367" lon="16.8225533"><ele>44.33333333333333</ele><time>2026-04-19T11:46:28.512Z</time></trkpt><trkpt lat="38.9669817" lon="16.8223583"><ele>47.0</ele><time>2026-04-19T11:46:29.511Z</time></trkpt><trkpt lat="38.9670233" lon="16.8221533"><ele>47.0</ele><time>2026-04-19T11:46:30.511Z</time></trkpt><trkpt lat="38.9670633" lon="16.8219417"><ele>47.0</ele><time>2026-04-19T11:46:31.512Z</time></trkpt><trkpt lat="38.96711" lon="16.8217233"><ele>47.0</ele><time>2026-04-19T11:46:32.511Z</time></trkpt><trkpt lat="38.9671667" lon="16.8215"><ele>46.0</ele><time>2026-04-19T11:46:33.511Z</time></trkpt><trkpt lat="38.9672167" lon="16.8212767"><ele>45.0</ele><time>2026-04-19T11:46:34.511Z</time></trkpt><trkpt lat="38.967265" lon="16.8210367"><ele>44.0</ele><time>2026-04-19T11:46:35.512Z</time></trkpt><trkpt lat="38.96732" lon="16.820805"><ele>44.0</ele><time>2026-04-19T11:46:36.511Z</time></trkpt><trkpt lat="38.9673667" lon="16.82057"><ele>44.0</ele><time>2026-04-19T11:46:37.511Z</time></trkpt><trkpt lat="38.967415" lon="16.820345"><ele>44.0</ele><time>2026-04-19T11:46:38.512Z</time></trkpt><trkpt lat="38.9674533" lon="16.8201267"><ele>44.0</ele><time>2026-04-19T11:46:39.512Z</time></trkpt><trkpt lat="38.9675" lon="16.8199133"><ele>44.0</ele><time>2026-04-19T11:46:40.512Z</time></trkpt><trkpt lat="38.9675467" lon="16.8197233"><ele>44.0</ele><time>2026-04-19T11:46:41.511Z</time></trkpt><trkpt lat="38.9675867" lon="16.8195483"><ele>46.0</ele><time>2026-04-19T11:46:42.511Z</time></trkpt><trkpt lat="38.9676217" lon="16.8194067"><ele>48.0</ele><time>2026-04-19T11:46:43.511Z</time></trkpt><trkpt lat="38.967655" lon="16.8192817"><ele>50.00000000000001</ele><time>2026-04-19T11:46:44.511Z</time></trkpt><trkpt lat="38.9677" lon="16.8191883"><ele>52.0</ele><time>2026-04-19T11:46:45.511Z</time></trkpt><trkpt lat="38.9677417" lon="16.81911"><ele>54.0</ele><time>2026-04-19T11:46:46.512Z</time></trkpt><trkpt lat="38.9678117" lon="16.8189833"><ele>54.0</ele><time>2026-04-19T11:46:48.511Z</time></trkpt><trkpt lat="38.9678383" lon="16.8188467"><ele>54.0</ele><time>2026-04-19T11:46:50.512Z</time></trkpt><trkpt lat="38.967815" lon="16.81867"><ele>54.0</ele><time>2026-04-19T11:46:52.511Z</time></trkpt><trkpt lat="38.9678217" lon="16.8185483"><ele>54.0</ele><time>2026-04-19T11:46:53.511Z</time></trkpt><trkpt lat="38.9678583" lon="16.8184067"><ele>52.0</ele><time>2026-04-19T11:46:54.511Z</time></trkpt><trkpt lat="38.9679167" lon="16.8182417"><ele>50.0</ele><time>2026-04-19T11:46:55.512Z</time></trkpt><trkpt lat="38.9679917" lon="16.818085"><ele>48.0</ele><time>2026-04-19T11:46:56.511Z</time></trkpt><trkpt lat="38.9680733" lon="16.81792"><ele>46.0</ele><time>2026-04-19T11:46:57.512Z</time></trkpt><trkpt lat="38.968155" lon="16.8177533"><ele>45.75</ele><time>2026-04-19T11:46:58.512Z</time></trkpt><trkpt lat="38.9682433" lon="16.8175967"><ele>45.5</ele><time>2026-04-19T11:46:59.511Z</time></trkpt><trkpt lat="38.9683233" lon="16.8174433"><ele>45.25</ele><time>2026-04-19T11:47:00.512Z</time></trkpt><trkpt lat="38.968395" lon="16.8172833"><ele>45.0</ele><time>2026-04-19T11:47:01.511Z</time></trkpt><trkpt lat="38.9684567" lon="16.81712"><ele>49.25</ele><time>2026-04-19T11:47:02.511Z</time></trkpt><trkpt lat="38.9684917" lon="16.8169433"><ele>53.5</ele><time>2026-04-19T11:47:03.511Z</time></trkpt><trkpt lat="38.9684933" lon="16.8167533"><ele>57.75</ele><time>2026-04-19T11:47:04.511Z</time></trkpt><trkpt lat="38.9684683" lon="16.816555"><ele>62.0</ele><time>2026-04-19T11:47:05.511Z</time></trkpt><trkpt lat="38.9684383" lon="16.8163583"><ele>63.0</ele><time>2026-04-19T11:47:06.512Z</time></trkpt><trkpt lat="38.968405" lon="16.8161567"><ele>64.0</ele><time>2026-04-19T11:47:07.511Z</time></trkpt><trkpt lat="38.9683783" lon="16.8159467"><ele>65.0</ele><time>2026-04-19T11:47:08.511Z</time></trkpt><trkpt lat="38.9683567" lon="16.8157433"><ele>60.25</ele><time>2026-04-19T11:47:09.512Z</time></trkpt><trkpt lat="38.96833" lon="16.815555"><ele>55.5</ele><time>2026-04-19T11:47:10.511Z</time></trkpt><trkpt lat="38.9683167" lon="16.81537"><ele>50.75</ele><time>2026-04-19T11:47:11.511Z</time></trkpt><trkpt lat="38.9682983" lon="16.8151783"><ele>46.0</ele><time>2026-04-19T11:47:12.511Z</time></trkpt><trkpt lat="38.968295" lon="16.8149767"><ele>45.0</ele><time>2026-04-19T11:47:13.512Z</time></trkpt><trkpt lat="38.96831" lon="16.8147783"><ele>44.0</ele><time>2026-04-19T11:47:14.511Z</time></trkpt><trkpt lat="38.9683283" lon="16.8145783"><ele>43.0</ele><time>2026-04-19T11:47:15.512Z</time></trkpt><trkpt lat="38.968345" lon="16.8143783"><ele>43.5</ele><time>2026-04-19T11:47:16.511Z</time></trkpt><trkpt lat="38.96836" lon="16.81418"><ele>44.0</ele><time>2026-04-19T11:47:17.511Z</time></trkpt><trkpt lat="38.9683767" lon="16.81399"><ele>44.5</ele><time>2026-04-19T11:47:18.511Z</time></trkpt><trkpt lat="38.96839" lon="16.81381"><ele>45.0</ele><time>2026-04-19T11:47:19.511Z</time></trkpt><trkpt lat="38.9683933" lon="16.8136433"><ele>44.75</ele><time>2026-04-19T11:47:20.511Z</time></trkpt><trkpt lat="38.9683967" lon="16.813475"><ele>44.5</ele><time>2026-04-19T11:47:21.512Z</time></trkpt><trkpt lat="38.9683783" lon="16.8133083"><ele>44.25</ele><time>2026-04-19T11:47:22.511Z</time></trkpt><trkpt lat="38.9683233" lon="16.813145"><ele>44.0</ele><time>2026-04-19T11:47:23.511Z</time></trkpt><trkpt lat="38.96824" lon="16.81299"><ele>44.0</ele><time>2026-04-19T11:47:24.512Z</time></trkpt><trkpt lat="38.968145" lon="16.8128517"><ele>44.0</ele><time>2026-04-19T11:47:25.511Z</time></trkpt><trkpt lat="38.9680433" lon="16.81271"><ele>44.0</ele><time>2026-04-19T11:47:26.511Z</time></trkpt><trkpt lat="38.9679367" lon="16.8125633"><ele>46.0</ele><time>2026-04-19T11:47:27.511Z</time></trkpt><trkpt lat="38.9678267" lon="16.8124217"><ele>48.0</ele><time>2026-04-19T11:47:28.511Z</time></trkpt><trkpt lat="38.967725" lon="16.81228"><ele>50.0</ele><time>2026-04-19T11:47:29.511Z</time></trkpt><trkpt lat="38.967625" lon="16.81213"><ele>49.333333333333336</ele><time>2026-04-19T11:47:30.511Z</time></trkpt><trkpt lat="38.9675267" lon="16.8119767"><ele>48.66666666666667</ele><time>2026-04-19T11:47:31.512Z</time></trkpt><trkpt lat="38.9674317" lon="16.8118233"><ele>48.0</ele><time>2026-04-19T11:47:32.511Z</time></trkpt><trkpt lat="38.9673417" lon="16.8116733"><ele>50.0</ele><time>2026-04-19T11:47:33.511Z</time></trkpt><trkpt lat="38.9672567" lon="16.8115183"><ele>52.0</ele><time>2026-04-19T11:47:34.511Z</time></trkpt><trkpt lat="38.9671767" lon="16.8113483"><ele>54.0</ele><time>2026-04-19T11:47:35.512Z</time></trkpt><trkpt lat="38.9670867" lon="16.8111733"><ele>55.33333333333333</ele><time>2026-04-19T11:47:36.511Z</time></trkpt><trkpt lat="38.9670067" lon="16.8109817"><ele>56.666666666666664</ele><time>2026-04-19T11:47:37.511Z</time></trkpt><trkpt lat="38.9669267" lon="16.8107817"><ele>58.0</ele><time>2026-04-19T11:47:38.511Z</time></trkpt><trkpt lat="38.9668517" lon="16.8105767"><ele>58.0</ele><time>2026-04-19T11:47:39.511Z</time></trkpt><trkpt lat="38.9667783" lon="16.81037"><ele>58.0</ele><time>2026-04-19T11:47:40.511Z</time></trkpt><trkpt lat="38.9667083" lon="16.810165"><ele>58.0</ele><time>2026-04-19T11:47:41.512Z</time></trkpt><trkpt lat="38.96664" lon="16.8099633"><ele>56.33333333333333</ele><time>2026-04-19T11:47:42.511Z</time></trkpt><trkpt lat="38.96657" lon="16.8097667"><ele>54.66666666666667</ele><time>2026-04-19T11:47:43.511Z</time></trkpt><trkpt lat="38.9664983" lon="16.8095817"><ele>53.0</ele><time>2026-04-19T11:47:44.511Z</time></trkpt><trkpt lat="38.9664317" lon="16.809395"><ele>53.5</ele><time>2026-04-19T11:47:45.511Z</time></trkpt><trkpt lat="38.96637" lon="16.8092183"><ele>54.0</ele><time>2026-04-19T11:47:46.511Z</time></trkpt><trkpt lat="38.96631" lon="16.80905"><ele>54.5</ele><time>2026-04-19T11:47:47.511Z</time></trkpt><trkpt lat="38.9662433" lon="16.808885"><ele>55.0</ele><time>2026-04-19T11:47:48.511Z</time></trkpt><trkpt lat="38.9661617" lon="16.8087333"><ele>55.0</ele><time>2026-04-19T11:47:49.511Z</time></trkpt><trkpt lat="38.966075" lon="16.80864"><ele>55.0</ele><time>2026-04-19T11:47:50.511Z</time></trkpt><trkpt lat="38.9659583" lon="16.808585"><ele>55.0</ele><time>2026-04-19T11:47:51.511Z</time></trkpt><trkpt lat="38.965835" lon="16.8085883"><ele>55.0</ele><time>2026-04-19T11:47:52.511Z</time></trkpt><trkpt lat="38.9657033" lon="16.80861"><ele>54.0</ele><time>2026-04-19T11:47:53.512Z</time></trkpt><trkpt lat="38.9655567" lon="16.80864"><ele>53.0</ele><time>2026-04-19T11:47:54.511Z</time></trkpt><trkpt lat="38.9654067" lon="16.8086667"><ele>52.0</ele><time>2026-04-19T11:47:55.511Z</time></trkpt><trkpt lat="38.96526" lon="16.808685"><ele>51.0</ele><time>2026-04-19T11:47:56.511Z</time></trkpt><trkpt lat="38.9651083" lon="16.8087083"><ele>51.0</ele><time>2026-04-19T11:47:57.512Z</time></trkpt><trkpt lat="38.964965" lon="16.8087167"><ele>51.0</ele><time>2026-04-19T11:47:58.511Z</time></trkpt><trkpt lat="38.9648117" lon="16.80871"><ele>51.0</ele><time>2026-04-19T11:47:59.511Z</time></trkpt><trkpt lat="38.9646633" lon="16.8086817"><ele>51.0</ele><time>2026-04-19T11:48:00.511Z</time></trkpt><trkpt lat="38.9645117" lon="16.8086267"><ele>51.0</ele><time>2026-04-19T11:48:01.511Z</time></trkpt><trkpt lat="38.9643617" lon="16.8085517"><ele>51.0</ele><time>2026-04-19T11:48:02.511Z</time></trkpt><trkpt lat="38.9641983" lon="16.808475"><ele>51.0</ele><time>2026-04-19T11:48:03.512Z</time></trkpt><trkpt lat="38.9640317" lon="16.8083917"><ele>52.0</ele><time>2026-04-19T11:48:04.512Z</time></trkpt><trkpt lat="38.9638633" lon="16.808305"><ele>53.0</ele><time>2026-04-19T11:48:05.511Z</time></trkpt><trkpt lat="38.9636917" lon="16.8082117"><ele>54.0</ele><time>2026-04-19T11:48:06.511Z</time></trkpt><trkpt lat="38.9635183" lon="16.8081133"><ele>54.33333333333333</ele><time>2026-04-19T11:48:07.511Z</time></trkpt><trkpt lat="38.9633467" lon="16.8080067"><ele>54.666666666666664</ele><time>2026-04-19T11:48:08.511Z</time></trkpt><trkpt lat="38.963175" lon="16.8078967"><ele>55.0</ele><time>2026-04-19T11:48:09.511Z</time></trkpt><trkpt lat="38.9630067" lon="16.80778"><ele>55.0</ele><time>2026-04-19T11:48:10.512Z</time></trkpt><trkpt lat="38.9628317" lon="16.807665"><ele>55.0</ele><time>2026-04-19T11:48:11.512Z</time></trkpt><trkpt lat="38.9626583" lon="16.8075517"><ele>55.0</ele><time>2026-04-19T11:48:12.511Z</time></trkpt><trkpt lat="38.9624883" lon="16.807435"><ele>55.666666666666664</ele><time>2026-04-19T11:48:13.511Z</time></trkpt><trkpt lat="38.9623167" lon="16.8073283"><ele>56.33333333333333</ele><time>2026-04-19T11:48:14.511Z</time></trkpt><trkpt lat="38.9621417" lon="16.807225"><ele>57.0</ele><time>2026-04-19T11:48:15.511Z</time></trkpt><trkpt lat="38.9619633" lon="16.807115"><ele>57.0</ele><time>2026-04-19T11:48:16.512Z</time></trkpt><trkpt lat="38.96179" lon="16.8070133"><ele>57.0</ele><time>2026-04-19T11:48:17.511Z</time></trkpt><trkpt lat="38.9616167" lon="16.8069133"><ele>57.0</ele><time>2026-04-19T11:48:18.511Z</time></trkpt><trkpt lat="38.96145" lon="16.80681"><ele>58.66666666666667</ele><time>2026-04-19T11:48:19.511Z</time></trkpt><trkpt lat="38.96128" lon="16.806705"><ele>60.333333333333336</ele><time>2026-04-19T11:48:20.511Z</time></trkpt><trkpt lat="38.9611133" lon="16.8066017"><ele>62.0</ele><time>2026-04-19T11:48:21.511Z</time></trkpt><trkpt lat="38.9609417" lon="16.8065"><ele>62.0</ele><time>2026-04-19T11:48:22.511Z</time></trkpt><trkpt lat="38.9607767" lon="16.8064017"><ele>62.0</ele><time>2026-04-19T11:48:23.512Z</time></trkpt><trkpt lat="38.9606117" lon="16.8063167"><ele>62.0</ele><time>2026-04-19T11:48:24.511Z</time></trkpt><trkpt lat="38.9604467" lon="16.80623"><ele>62.0</ele><time>2026-04-19T11:48:25.511Z</time></trkpt><trkpt lat="38.960285" lon="16.80615"><ele>62.0</ele><time>2026-04-19T11:48:26.511Z</time></trkpt><trkpt lat="38.960125" lon="16.8060667"><ele>62.0</ele><time>2026-04-19T11:48:27.511Z</time></trkpt><trkpt lat="38.9599817" lon="16.805975"><ele>65.66666666666667</ele><time>2026-04-19T11:48:28.511Z</time></trkpt><trkpt lat="38.9598533" lon="16.8058633"><ele>69.33333333333333</ele><time>2026-04-19T11:48:29.511Z</time></trkpt><trkpt lat="38.959735" lon="16.805735"><ele>73.0</ele><time>2026-04-19T11:48:30.511Z</time></trkpt><trkpt lat="38.959615" lon="16.8056217"><ele>73.0</ele><time>2026-04-19T11:48:31.511Z</time></trkpt><trkpt lat="38.9594833" lon="16.80552"><ele>73.0</ele><time>2026-04-19T11:48:32.511Z</time></trkpt><trkpt lat="38.9593367" lon="16.805435"><ele>73.0</ele><time>2026-04-19T11:48:33.511Z</time></trkpt><trkpt lat="38.9591817" lon="16.80538"><ele>72.33333333333333</ele><time>2026-04-19T11:48:34.511Z</time></trkpt><trkpt lat="38.9590117" lon="16.8053333"><ele>71.66666666666667</ele><time>2026-04-19T11:48:35.511Z</time></trkpt><trkpt lat="38.958845" lon="16.805285"><ele>71.0</ele><time>2026-04-19T11:48:36.511Z</time></trkpt><trkpt lat="38.958665" lon="16.80524"><ele>71.0</ele><time>2026-04-19T11:48:37.511Z</time></trkpt><trkpt lat="38.958485" lon="16.8051933"><ele>71.0</ele><time>2026-04-19T11:48:38.512Z</time></trkpt><trkpt lat="38.95831" lon="16.80514"><ele>71.0</ele><time>2026-04-19T11:48:39.512Z</time></trkpt><trkpt lat="38.95814" lon="16.8050933"><ele>72.66666666666667</ele><time>2026-04-19T11:48:40.511Z</time></trkpt><trkpt lat="38.95798" lon="16.8050483"><ele>74.33333333333333</ele><time>2026-04-19T11:48:41.511Z</time></trkpt><trkpt lat="38.957835" lon="16.8049933"><ele>76.0</ele><time>2026-04-19T11:48:42.512Z</time></trkpt><trkpt lat="38.95771" lon="16.8049183"><ele>76.0</ele><time>2026-04-19T11:48:43.512Z</time></trkpt><trkpt lat="38.9576033" lon="16.8048233"><ele>76.0</ele><time>2026-04-19T11:48:44.511Z</time></trkpt><trkpt lat="38.9575317" lon="16.804695"><ele>76.0</ele><time>2026-04-19T11:48:45.511Z</time></trkpt><trkpt lat="38.9574767" lon="16.8045433"><ele>76.0</ele><time>2026-04-19T11:48:46.512Z</time></trkpt><trkpt lat="38.95744" lon="16.8043767"><ele>77.75</ele><time>2026-04-19T11:48:47.511Z</time></trkpt><trkpt lat="38.9574233" lon="16.80421"><ele>79.5</ele><time>2026-04-19T11:48:48.512Z</time></trkpt><trkpt lat="38.9574317" lon="16.8040467"><ele>81.25</ele><time>2026-04-19T11:48:49.512Z</time></trkpt><trkpt lat="38.9574883" lon="16.8038933"><ele>83.0</ele><time>2026-04-19T11:48:50.512Z</time></trkpt><trkpt lat="38.9575733" lon="16.8037517"><ele>83.0</ele><time>2026-04-19T11:48:51.512Z</time></trkpt><trkpt lat="38.9576783" lon="16.8036267"><ele>83.0</ele><time>2026-04-19T11:48:52.511Z</time></trkpt><trkpt lat="38.95779" lon="16.8035233"><ele>83.0</ele><time>2026-04-19T11:48:53.511Z</time></trkpt><trkpt lat="38.9579017" lon="16.803405"><ele>83.0</ele><time>2026-04-19T11:48:54.512Z</time></trkpt><trkpt lat="38.9579983" lon="16.8032583"><ele>85.25</ele><time>2026-04-19T11:48:55.512Z</time></trkpt><trkpt lat="38.958075" lon="16.8031017"><ele>87.5</ele><time>2026-04-19T11:48:56.511Z</time></trkpt><trkpt lat="38.9581567" lon="16.8029617"><ele>89.75</ele><time>2026-04-19T11:48:57.511Z</time></trkpt><trkpt lat="38.9582633" lon="16.8028483"><ele>92.0</ele><time>2026-04-19T11:48:58.51Z</time></trkpt><trkpt lat="38.9583867" lon="16.8027483"><ele>92.66666666666667</ele><time>2026-04-19T11:48:59.511Z</time></trkpt><trkpt lat="38.958525" lon="16.8026617"><ele>93.33333333333333</ele><time>2026-04-19T11:49:00.511Z</time></trkpt><trkpt lat="38.9586617" lon="16.802565"><ele>94.0</ele><time>2026-04-19T11:49:01.511Z</time></trkpt><trkpt lat="38.9587867" lon="16.8024533"><ele>94.0</ele><time>2026-04-19T11:49:02.511Z</time></trkpt><trkpt lat="38.9589033" lon="16.802325"><ele>94.0</ele><time>2026-04-19T11:49:03.511Z</time></trkpt><trkpt lat="38.9590017" lon="16.80217"><ele>94.0</ele><time>2026-04-19T11:49:04.511Z</time></trkpt><trkpt lat="38.9591017" lon="16.8020133"><ele>94.0</ele><time>2026-04-19T11:49:05.512Z</time></trkpt><trkpt lat="38.959195" lon="16.8018383"><ele>94.0</ele><time>2026-04-19T11:49:06.511Z</time></trkpt><trkpt lat="38.9592633" lon="16.801655"><ele>94.0</ele><time>2026-04-19T11:49:07.511Z</time></trkpt><trkpt lat="38.95934" lon="16.80148"><ele>94.66666666666666</ele><time>2026-04-19T11:49:08.511Z</time></trkpt><trkpt lat="38.9594233" lon="16.8013067"><ele>95.33333333333333</ele><time>2026-04-19T11:49:09.511Z</time></trkpt><trkpt lat="38.9595067" lon="16.801145"><ele>96.0</ele><time>2026-04-19T11:49:10.511Z</time></trkpt><trkpt lat="38.9595967" lon="16.800995"><ele>98.75</ele><time>2026-04-19T11:49:11.512Z</time></trkpt><trkpt lat="38.959695" lon="16.80086"><ele>101.5</ele><time>2026-04-19T11:49:12.511Z</time></trkpt><trkpt lat="38.9598" lon="16.80073"><ele>104.25</ele><time>2026-04-19T11:49:13.511Z</time></trkpt><trkpt lat="38.9598983" lon="16.8005817"><ele>107.0</ele><time>2026-04-19T11:49:14.511Z</time></trkpt><trkpt lat="38.9599767" lon="16.8004217"><ele>108.0</ele><time>2026-04-19T11:49:15.511Z</time></trkpt><trkpt lat="38.9600483" lon="16.80026"><ele>109.0</ele><time>2026-04-19T11:49:16.512Z</time></trkpt><trkpt lat="38.9601133" lon="16.8001167"><ele>110.0</ele><time>2026-04-19T11:49:17.511Z</time></trkpt><trkpt lat="38.9601583" lon="16.799985"><ele>111.0</ele><time>2026-04-19T11:49:18.511Z</time></trkpt><trkpt lat="38.960195" lon="16.7998467"><ele>111.0</ele><time>2026-04-19T11:49:19.511Z</time></trkpt><trkpt lat="38.9602267" lon="16.7996917"><ele>111.0</ele><time>2026-04-19T11:49:20.511Z</time></trkpt><trkpt lat="38.9602633" lon="16.7995367"><ele>111.0</ele><time>2026-04-19T11:49:21.512Z</time></trkpt><trkpt lat="38.9603117" lon="16.799375"><ele>111.0</ele><time>2026-04-19T11:49:22.512Z</time></trkpt><trkpt lat="38.9603717" lon="16.7992217"><ele>113.75</ele><time>2026-04-19T11:49:23.511Z</time></trkpt><trkpt lat="38.9604583" lon="16.7991033"><ele>116.5</ele><time>2026-04-19T11:49:24.511Z</time></trkpt><trkpt lat="38.9605667" lon="16.7990183"><ele>119.25</ele><time>2026-04-19T11:49:25.511Z</time></trkpt><trkpt lat="38.960695" lon="16.7989517"><ele>122.0</ele><time>2026-04-19T11:49:26.511Z</time></trkpt><trkpt lat="38.9608433" lon="16.7989033"><ele>122.5</ele><time>2026-04-19T11:49:27.511Z</time></trkpt><trkpt lat="38.9609617" lon="16.7988183"><ele>123.0</ele><time>2026-04-19T11:49:28.512Z</time></trkpt><trkpt lat="38.9610833" lon="16.798715"><ele>123.5</ele><time>2026-04-19T11:49:29.511Z</time></trkpt><trkpt lat="38.961205" lon="16.79858"><ele>124.0</ele><time>2026-04-19T11:49:30.511Z</time></trkpt><trkpt lat="38.96132" lon="16.7984233"><ele>125.0</ele><time>2026-04-19T11:49:31.512Z</time></trkpt><trkpt lat="38.9614383" lon="16.7982617"><ele>126.0</ele><time>2026-04-19T11:49:32.511Z</time></trkpt><trkpt lat="38.9615583" lon="16.7981"><ele>127.0</ele><time>2026-04-19T11:49:33.511Z</time></trkpt><trkpt lat="38.9616967" lon="16.7979267"><ele>127.33333333333334</ele><time>2026-04-19T11:49:34.511Z</time></trkpt><trkpt lat="38.9618233" lon="16.7977567"><ele>127.66666666666666</ele><time>2026-04-19T11:49:35.512Z</time></trkpt><trkpt lat="38.961945" lon="16.7975867"><ele>128.0</ele><time>2026-04-19T11:49:36.512Z</time></trkpt><trkpt lat="38.9620633" lon="16.7974267"><ele>129.66666666666666</ele><time>2026-04-19T11:49:37.511Z</time></trkpt><trkpt lat="38.96218" lon="16.79727"><ele>131.33333333333334</ele><time>2026-04-19T11:49:38.512Z</time></trkpt><trkpt lat="38.9623033" lon="16.7971133"><ele>133.0</ele><time>2026-04-19T11:49:39.511Z</time></trkpt><trkpt lat="38.962415" lon="16.7969617"><ele>134.0</ele><time>2026-04-19T11:49:40.511Z</time></trkpt><trkpt lat="38.9625217" lon="16.7967983"><ele>135.0</ele><time>2026-04-19T11:49:41.511Z</time></trkpt><trkpt lat="38.9626083" lon="16.7966183"><ele>136.0</ele><time>2026-04-19T11:49:42.512Z</time></trkpt><trkpt lat="38.9626717" lon="16.7964117"><ele>136.33333333333334</ele><time>2026-04-19T11:49:43.511Z</time></trkpt><trkpt lat="38.9627117" lon="16.79619"><ele>136.66666666666666</ele><time>2026-04-19T11:49:44.511Z</time></trkpt><trkpt lat="38.9627483" lon="16.7959517"><ele>137.0</ele><time>2026-04-19T11:49:45.511Z</time></trkpt><trkpt lat="38.962785" lon="16.7957167"><ele>138.0</ele><time>2026-04-19T11:49:46.512Z</time></trkpt><trkpt lat="38.9628217" lon="16.7954783"><ele>139.0</ele><time>2026-04-19T11:49:47.511Z</time></trkpt><trkpt lat="38.9628667" lon="16.7952417"><ele>140.0</ele><time>2026-04-19T11:49:48.511Z</time></trkpt><trkpt lat="38.9629" lon="16.7950133"><ele>141.0</ele><time>2026-04-19T11:49:49.512Z</time></trkpt><trkpt lat="38.962935" lon="16.7947767"><ele>142.0</ele><time>2026-04-19T11:49:50.512Z</time></trkpt><trkpt lat="38.9629683" lon="16.79455"><ele>143.0</ele><time>2026-04-19T11:49:51.511Z</time></trkpt><trkpt lat="38.9630083" lon="16.7943383"><ele>143.5</ele><time>2026-04-19T11:49:52.511Z</time></trkpt><trkpt lat="38.9630417" lon="16.79414"><ele>144.0</ele><time>2026-04-19T11:49:53.511Z</time></trkpt><trkpt lat="38.9630633" lon="16.7939533"><ele>144.5</ele><time>2026-04-19T11:49:54.511Z</time></trkpt><trkpt lat="38.9630383" lon="16.7937933"><ele>145.0</ele><time>2026-04-19T11:49:55.511Z</time></trkpt><trkpt lat="38.962985" lon="16.793665"><ele>145.0</ele><time>2026-04-19T11:49:56.511Z</time></trkpt><trkpt lat="38.9629167" lon="16.79354"><ele>145.0</ele><time>2026-04-19T11:49:57.512Z</time></trkpt><trkpt lat="38.9628333" lon="16.7934133"><ele>145.0</ele><time>2026-04-19T11:49:58.511Z</time></trkpt><trkpt lat="38.9627383" lon="16.7932783"><ele>145.0</ele><time>2026-04-19T11:49:59.511Z</time></trkpt><trkpt lat="38.9626317" lon="16.7931233"><ele>146.33333333333334</ele><time>2026-04-19T11:50:00.511Z</time></trkpt><trkpt lat="38.9625233" lon="16.792955"><ele>147.66666666666666</ele><time>2026-04-19T11:50:01.511Z</time></trkpt><trkpt lat="38.9624133" lon="16.7927833"><ele>149.0</ele><time>2026-04-19T11:50:02.511Z</time></trkpt><trkpt lat="38.9622967" lon="16.79261"><ele>151.0</ele><time>2026-04-19T11:50:03.512Z</time></trkpt><trkpt lat="38.9621783" lon="16.7924417"><ele>153.0</ele><time>2026-04-19T11:50:04.511Z</time></trkpt><trkpt lat="38.962065" lon="16.7922733"><ele>155.0</ele><time>2026-04-19T11:50:05.511Z</time></trkpt><trkpt lat="38.9619633" lon="16.7921117"><ele>155.0</ele><time>2026-04-19T11:50:06.512Z</time></trkpt><trkpt lat="38.961875" lon="16.7919417"><ele>155.0</ele><time>2026-04-19T11:50:07.512Z</time></trkpt><trkpt lat="38.9617967" lon="16.79177"><ele>155.0</ele><time>2026-04-19T11:50:08.511Z</time></trkpt><trkpt lat="38.96174" lon="16.7915967"><ele>154.75</ele><time>2026-04-19T11:50:09.511Z</time></trkpt><trkpt lat="38.9617067" lon="16.791425"><ele>154.5</ele><time>2026-04-19T11:50:10.511Z</time></trkpt><trkpt lat="38.961665" lon="16.7912817"><ele>154.25</ele><time>2026-04-19T11:50:11.511Z</time></trkpt><trkpt lat="38.9616" lon="16.7911767"><ele>154.0</ele><time>2026-04-19T11:50:12.511Z</time></trkpt><trkpt lat="38.961495" lon="16.7910983"><ele>154.0</ele><time>2026-04-19T11:50:13.511Z</time></trkpt><trkpt lat="38.961365" lon="16.791045"><ele>154.0</ele><time>2026-04-19T11:50:14.511Z</time></trkpt><trkpt lat="38.9612183" lon="16.7910033"><ele>154.0</ele><time>2026-04-19T11:50:15.511Z</time></trkpt><trkpt lat="38.9610667" lon="16.7909533"><ele>154.0</ele><time>2026-04-19T11:50:16.511Z</time></trkpt><trkpt lat="38.9609217" lon="16.7908717"><ele>152.66666666666669</ele><time>2026-04-19T11:50:17.511Z</time></trkpt><trkpt lat="38.9607783" lon="16.79077"><ele>151.33333333333334</ele><time>2026-04-19T11:50:18.511Z</time></trkpt><trkpt lat="38.96064" lon="16.7906533"><ele>150.0</ele><time>2026-04-19T11:50:19.511Z</time></trkpt><trkpt lat="38.9604917" lon="16.7905367"><ele>150.0</ele><time>2026-04-19T11:50:20.511Z</time></trkpt><trkpt lat="38.9603583" lon="16.790415"><ele>150.0</ele><time>2026-04-19T11:50:21.511Z</time></trkpt><trkpt lat="38.9602333" lon="16.790295"><ele>150.0</ele><time>2026-04-19T11:50:22.511Z</time></trkpt><trkpt lat="38.9601267" lon="16.790175"><ele>149.75</ele><time>2026-04-19T11:50:23.512Z</time></trkpt><trkpt lat="38.96004" lon="16.790035"><ele>149.5</ele><time>2026-04-19T11:50:24.512Z</time></trkpt><trkpt lat="38.95998" lon="16.7898733"><ele>149.25</ele><time>2026-04-19T11:50:25.511Z</time></trkpt><trkpt lat="38.9599183" lon="16.7897083"><ele>149.0</ele><time>2026-04-19T11:50:26.511Z</time></trkpt><trkpt lat="38.9598633" lon="16.7895483"><ele>149.0</ele><time>2026-04-19T11:50:27.511Z</time></trkpt><trkpt lat="38.9597867" lon="16.78941"><ele>149.0</ele><time>2026-04-19T11:50:28.511Z</time></trkpt><trkpt lat="38.95969" lon="16.7892933"><ele>149.0</ele><time>2026-04-19T11:50:29.512Z</time></trkpt><trkpt lat="38.9595717" lon="16.7892017"><ele>149.0</ele><time>2026-04-19T11:50:30.512Z</time></trkpt><trkpt lat="38.9594367" lon="16.789135"><ele>149.66666666666666</ele><time>2026-04-19T11:50:31.511Z</time></trkpt><trkpt lat="38.9593033" lon="16.789055"><ele>150.33333333333334</ele><time>2026-04-19T11:50:32.511Z</time></trkpt><trkpt lat="38.95918" lon="16.7889417"><ele>151.0</ele><time>2026-04-19T11:50:33.511Z</time></trkpt><trkpt lat="38.959045" lon="16.788825"><ele>151.0</ele><time>2026-04-19T11:50:34.511Z</time></trkpt><trkpt lat="38.9589267" lon="16.7886983"><ele>151.0</ele><time>2026-04-19T11:50:35.512Z</time></trkpt><trkpt lat="38.9588133" lon="16.7885767"><ele>151.0</ele><time>2026-04-19T11:50:36.511Z</time></trkpt><trkpt lat="38.9586983" lon="16.7884717"><ele>151.0</ele><time>2026-04-19T11:50:37.511Z</time></trkpt><trkpt lat="38.9585817" lon="16.7883833"><ele>152.75</ele><time>2026-04-19T11:50:38.511Z</time></trkpt><trkpt lat="38.9584583" lon="16.7883183"><ele>154.5</ele><time>2026-04-19T11:50:39.511Z</time></trkpt><trkpt lat="38.9583183" lon="16.7882733"><ele>156.25</ele><time>2026-04-19T11:50:40.511Z</time></trkpt><trkpt lat="38.9581717" lon="16.7882433"><ele>158.0</ele><time>2026-04-19T11:50:41.512Z</time></trkpt><trkpt lat="38.9580133" lon="16.7881917"><ele>158.0</ele><time>2026-04-19T11:50:42.511Z</time></trkpt><trkpt lat="38.9578617" lon="16.7881333"><ele>158.0</ele><time>2026-04-19T11:50:43.511Z</time></trkpt><trkpt lat="38.9577017" lon="16.7880567"><ele>158.0</ele><time>2026-04-19T11:50:44.511Z</time></trkpt><trkpt lat="38.9575533" lon="16.787985"><ele>157.66666666666666</ele><time>2026-04-19T11:50:45.512Z</time></trkpt><trkpt lat="38.9574033" lon="16.787925"><ele>157.33333333333334</ele><time>2026-04-19T11:50:46.511Z</time></trkpt><trkpt lat="38.9572567" lon="16.78786"><ele>157.0</ele><time>2026-04-19T11:50:47.511Z</time></trkpt><trkpt lat="38.9571133" lon="16.787785"><ele>157.0</ele><time>2026-04-19T11:50:48.512Z</time></trkpt><trkpt lat="38.956965" lon="16.7877233"><ele>157.0</ele><time>2026-04-19T11:50:49.511Z</time></trkpt><trkpt lat="38.9568183" lon="16.7876583"><ele>157.0</ele><time>2026-04-19T11:50:50.511Z</time></trkpt><trkpt lat="38.95668" lon="16.7875917"><ele>160.0</ele><time>2026-04-19T11:50:51.512Z</time></trkpt><trkpt lat="38.9565417" lon="16.7875217"><ele>163.0</ele><time>2026-04-19T11:50:52.512Z</time></trkpt><trkpt lat="38.9564267" lon="16.787435"><ele>166.0</ele><time>2026-04-19T11:50:53.512Z</time></trkpt><trkpt lat="38.9563233" lon="16.7873233"><ele>169.0</ele><time>2026-04-19T11:50:54.511Z</time></trkpt><trkpt lat="38.9562433" lon="16.7871933"><ele>169.0</ele><time>2026-04-19T11:50:55.511Z</time></trkpt><trkpt lat="38.9561667" lon="16.7870583"><ele>169.0</ele><time>2026-04-19T11:50:56.511Z</time></trkpt><trkpt lat="38.956075" lon="16.7869433"><ele>169.0</ele><time>2026-04-19T11:50:57.511Z</time></trkpt><trkpt lat="38.9559633" lon="16.78687"><ele>169.0</ele><time>2026-04-19T11:50:58.512Z</time></trkpt><trkpt lat="38.95584" lon="16.7868367"><ele>171.5</ele><time>2026-04-19T11:50:59.512Z</time></trkpt><trkpt lat="38.95571" lon="16.7868133"><ele>174.0</ele><time>2026-04-19T11:51:00.511Z</time></trkpt><trkpt lat="38.955575" lon="16.786785"><ele>176.5</ele><time>2026-04-19T11:51:01.511Z</time></trkpt><trkpt lat="38.9554417" lon="16.7867383"><ele>179.0</ele><time>2026-04-19T11:51:02.511Z</time></trkpt><trkpt lat="38.9553133" lon="16.7866517"><ele>179.0</ele><time>2026-04-19T11:51:03.511Z</time></trkpt><trkpt lat="38.955185" lon="16.7865417"><ele>179.0</ele><time>2026-04-19T11:51:04.511Z</time></trkpt><trkpt lat="38.9550567" lon="16.7864117"><ele>179.0</ele><time>2026-04-19T11:51:05.511Z</time></trkpt><trkpt lat="38.9549267" lon="16.7862717"><ele>178.33333333333331</ele><time>2026-04-19T11:51:06.51Z</time></trkpt><trkpt lat="38.9547917" lon="16.7861217"><ele>177.66666666666666</ele><time>2026-04-19T11:51:07.51Z</time></trkpt><trkpt lat="38.954655" lon="16.78597"><ele>177.0</ele><time>2026-04-19T11:51:08.51Z</time></trkpt><trkpt lat="38.9545133" lon="16.785815"><ele>179.66666666666666</ele><time>2026-04-19T11:51:09.51Z</time></trkpt><trkpt lat="38.954375" lon="16.7856533"><ele>182.33333333333331</ele><time>2026-04-19T11:51:10.51Z</time></trkpt><trkpt lat="38.9542267" lon="16.7855067"><ele>185.0</ele><time>2026-04-19T11:51:11.51Z</time></trkpt><trkpt lat="38.9540733" lon="16.7853683"><ele>185.0</ele><time>2026-04-19T11:51:12.511Z</time></trkpt><trkpt lat="38.9539117" lon="16.7852383"><ele>185.0</ele><time>2026-04-19T11:51:13.511Z</time></trkpt><trkpt lat="38.9537533" lon="16.7851233"><ele>185.0</ele><time>2026-04-19T11:51:14.51Z</time></trkpt><trkpt lat="38.953585" lon="16.7850133"><ele>186.0</ele><time>2026-04-19T11:51:15.51Z</time></trkpt><trkpt lat="38.9534117" lon="16.7849117"><ele>187.0</ele><time>2026-04-19T11:51:16.51Z</time></trkpt><trkpt lat="38.95325" lon="16.7848167"><ele>188.0</ele><time>2026-04-19T11:51:17.51Z</time></trkpt><trkpt lat="38.9531" lon="16.78472"><ele>188.0</ele><time>2026-04-19T11:51:18.51Z</time></trkpt><trkpt lat="38.9529667" lon="16.7846333"><ele>188.0</ele><time>2026-04-19T11:51:19.511Z</time></trkpt><trkpt lat="38.9528383" lon="16.7845433"><ele>188.0</ele><time>2026-04-19T11:51:20.511Z</time></trkpt><trkpt lat="38.9527183" lon="16.78445"><ele>188.0</ele><time>2026-04-19T11:51:21.51Z</time></trkpt><trkpt lat="38.9526117" lon="16.78435"><ele>189.0</ele><time>2026-04-19T11:51:22.51Z</time></trkpt><trkpt lat="38.952505" lon="16.784225"><ele>190.0</ele><time>2026-04-19T11:51:23.511Z</time></trkpt><trkpt lat="38.95241" lon="16.7840783"><ele>191.0</ele><time>2026-04-19T11:51:24.51Z</time></trkpt><trkpt lat="38.95232" lon="16.78391"><ele>191.0</ele><time>2026-04-19T11:51:25.511Z</time></trkpt><trkpt lat="38.9522367" lon="16.783745"><ele>191.0</ele><time>2026-04-19T11:51:26.51Z</time></trkpt><trkpt lat="38.9521433" lon="16.783575"><ele>191.0</ele><time>2026-04-19T11:51:27.51Z</time></trkpt><trkpt lat="38.95205" lon="16.7834"><ele>193.66666666666666</ele><time>2026-04-19T11:51:28.511Z</time></trkpt><trkpt lat="38.9519483" lon="16.7832233"><ele>196.33333333333331</ele><time>2026-04-19T11:51:29.51Z</time></trkpt><trkpt lat="38.951855" lon="16.7830467"><ele>199.0</ele><time>2026-04-19T11:51:30.511Z</time></trkpt><trkpt lat="38.9517583" lon="16.7828767"><ele>197.66666666666666</ele><time>2026-04-19T11:51:31.51Z</time></trkpt><trkpt lat="38.9516683" lon="16.7827117"><ele>196.33333333333331</ele><time>2026-04-19T11:51:32.511Z</time></trkpt><trkpt lat="38.9515817" lon="16.782555"><ele>195.0</ele><time>2026-04-19T11:51:33.511Z</time></trkpt><trkpt lat="38.9514933" lon="16.7824083"><ele>195.0</ele><time>2026-04-19T11:51:34.51Z</time></trkpt><trkpt lat="38.9514" lon="16.7822733"><ele>195.0</ele><time>2026-04-19T11:51:35.51Z</time></trkpt><trkpt lat="38.9513117" lon="16.782145"><ele>195.0</ele><time>2026-04-19T11:51:36.51Z</time></trkpt><trkpt lat="38.9512233" lon="16.7820417"><ele>195.0</ele><time>2026-04-19T11:51:37.511Z</time></trkpt><trkpt lat="38.95114" lon="16.7819467"><ele>195.0</ele><time>2026-04-19T11:51:38.51Z</time></trkpt><trkpt lat="38.95105" lon="16.78185"><ele>195.0</ele><time>2026-04-19T11:51:39.511Z</time></trkpt><trkpt lat="38.9509933" lon="16.781765"><ele>195.0</ele><time>2026-04-19T11:51:40.51Z</time></trkpt><trkpt lat="38.9509533" lon="16.7816983"><ele>195.0</ele><time>2026-04-19T11:51:41.51Z</time></trkpt><trkpt lat="38.95084" lon="16.7817217"><ele>195.0</ele><time>2026-04-19T11:51:44.51Z</time></trkpt><trkpt lat="38.9507667" lon="16.7817933"><ele>193.75</ele><time>2026-04-19T11:51:45.51Z</time></trkpt><trkpt lat="38.950675" lon="16.7818817"><ele>192.5</ele><time>2026-04-19T11:51:46.51Z</time></trkpt><trkpt lat="38.95057" lon="16.7819817"><ele>191.25</ele><time>2026-04-19T11:51:47.51Z</time></trkpt><trkpt lat="38.95044" lon="16.78209"><ele>190.0</ele><time>2026-04-19T11:51:48.511Z</time></trkpt><trkpt lat="38.9503033" lon="16.7822017"><ele>190.0</ele><time>2026-04-19T11:51:49.51Z</time></trkpt><trkpt lat="38.9501583" lon="16.7823267"><ele>190.0</ele><time>2026-04-19T11:51:50.51Z</time></trkpt><trkpt lat="38.9500067" lon="16.7824467"><ele>190.0</ele><time>2026-04-19T11:51:51.51Z</time></trkpt><trkpt lat="38.9498417" lon="16.7825767"><ele>187.33333333333334</ele><time>2026-04-19T11:51:52.511Z</time></trkpt><trkpt lat="38.9496783" lon="16.7826983"><ele>184.66666666666666</ele><time>2026-04-19T11:51:53.511Z</time></trkpt><trkpt lat="38.949525" lon="16.782825"><ele>182.0</ele><time>2026-04-19T11:51:54.51Z</time></trkpt><trkpt lat="38.9493717" lon="16.7829383"><ele>182.0</ele><time>2026-04-19T11:51:55.51Z</time></trkpt><trkpt lat="38.949225" lon="16.78304"><ele>182.0</ele><time>2026-04-19T11:51:56.511Z</time></trkpt><trkpt lat="38.94907" lon="16.78313"><ele>182.0</ele><time>2026-04-19T11:51:57.51Z</time></trkpt><trkpt lat="38.948905" lon="16.7831983"><ele>181.66666666666666</ele><time>2026-04-19T11:51:58.511Z</time></trkpt><trkpt lat="38.9487483" lon="16.7832617"><ele>181.33333333333334</ele><time>2026-04-19T11:51:59.51Z</time></trkpt><trkpt lat="38.948595" lon="16.783305"><ele>181.0</ele><time>2026-04-19T11:52:00.51Z</time></trkpt><trkpt lat="38.9484617" lon="16.7833367"><ele>180.5</ele><time>2026-04-19T11:52:01.51Z</time></trkpt><trkpt lat="38.9483483" lon="16.7833617"><ele>180.0</ele><time>2026-04-19T11:52:02.51Z</time></trkpt><trkpt lat="38.9482583" lon="16.7833983"><ele>179.5</ele><time>2026-04-19T11:52:03.51Z</time></trkpt><trkpt lat="38.9481933" lon="16.7834567"><ele>179.0</ele><time>2026-04-19T11:52:04.51Z</time></trkpt><trkpt lat="38.948145" lon="16.7835367"><ele>178.5</ele><time>2026-04-19T11:52:05.51Z</time></trkpt><trkpt lat="38.9481183" lon="16.7836333"><ele>178.0</ele><time>2026-04-19T11:52:06.51Z</time></trkpt><trkpt lat="38.94811" lon="16.7837367"><ele>177.5</ele><time>2026-04-19T11:52:07.51Z</time></trkpt><trkpt lat="38.9481017" lon="16.7838317"><ele>177.0</ele><time>2026-04-19T11:52:08.511Z</time></trkpt><trkpt lat="38.9480933" lon="16.7839217"><ele>176.5</ele><time>2026-04-19T11:52:09.511Z</time></trkpt><trkpt lat="38.9480783" lon="16.78401"><ele>176.0</ele><time>2026-04-19T11:52:10.51Z</time></trkpt><trkpt lat="38.94807" lon="16.7841"><ele>175.5</ele><time>2026-04-19T11:52:11.51Z</time></trkpt><trkpt lat="38.9480867" lon="16.7841817"><ele>175.0</ele><time>2026-04-19T11:52:12.51Z</time></trkpt><trkpt lat="38.94819" lon="16.7842517"><ele>175.0</ele><time>2026-04-19T11:52:14.51Z</time></trkpt><trkpt lat="38.9482533" lon="16.784235"><ele>175.0</ele><time>2026-04-19T11:52:15.51Z</time></trkpt><trkpt lat="38.94831" lon="16.7841817"><ele>175.0</ele><time>2026-04-19T11:52:16.511Z</time></trkpt><trkpt lat="38.9483667" lon="16.7841"><ele>175.0</ele><time>2026-04-19T11:52:17.511Z</time></trkpt><trkpt lat="38.94842" lon="16.784005"><ele>175.0</ele><time>2026-04-19T11:52:18.51Z</time></trkpt><trkpt lat="38.9484917" lon="16.7839033"><ele>175.0</ele><time>2026-04-19T11:52:19.51Z</time></trkpt><trkpt lat="38.9485867" lon="16.7838"><ele>176.33333333333334</ele><time>2026-04-19T11:52:20.51Z</time></trkpt><trkpt lat="38.9487033" lon="16.7836933"><ele>177.66666666666666</ele><time>2026-04-19T11:52:21.511Z</time></trkpt><trkpt lat="38.9488417" lon="16.7835817"><ele>179.0</ele><time>2026-04-19T11:52:22.51Z</time></trkpt><trkpt lat="38.948985" lon="16.7834567"><ele>179.66666666666666</ele><time>2026-04-19T11:52:23.511Z</time></trkpt><trkpt lat="38.9491367" lon="16.7833333"><ele>180.33333333333334</ele><time>2026-04-19T11:52:24.51Z</time></trkpt><trkpt lat="38.9492983" lon="16.783215"><ele>181.0</ele><time>2026-04-19T11:52:25.51Z</time></trkpt><trkpt lat="38.949465" lon="16.7830783"><ele>181.33333333333334</ele><time>2026-04-19T11:52:26.51Z</time></trkpt><trkpt lat="38.94964" lon="16.7829333"><ele>181.66666666666666</ele><time>2026-04-19T11:52:27.511Z</time></trkpt><trkpt lat="38.9498217" lon="16.78278"><ele>182.0</ele><time>2026-04-19T11:52:28.511Z</time></trkpt><trkpt lat="38.9500117" lon="16.782625"><ele>186.0</ele><time>2026-04-19T11:52:29.51Z</time></trkpt><trkpt lat="38.9502067" lon="16.782475"><ele>190.0</ele><time>2026-04-19T11:52:30.51Z</time></trkpt><trkpt lat="38.9504067" lon="16.7823367"><ele>190.0</ele><time>2026-04-19T11:52:31.511Z</time></trkpt><trkpt lat="38.9506183" lon="16.78221"><ele>190.0</ele><time>2026-04-19T11:52:32.51Z</time></trkpt><trkpt lat="38.9508333" lon="16.7821"><ele>192.5</ele><time>2026-04-19T11:52:33.51Z</time></trkpt><trkpt lat="38.9510567" lon="16.7820067"><ele>195.0</ele><time>2026-04-19T11:52:34.51Z</time></trkpt><trkpt lat="38.9512833" lon="16.7819317"><ele>195.0</ele><time>2026-04-19T11:52:35.51Z</time></trkpt><trkpt lat="38.9515383" lon="16.7818883"><ele>195.0</ele><time>2026-04-19T11:52:36.511Z</time></trkpt><trkpt lat="38.9517817" lon="16.7818533"><ele>199.5</ele><time>2026-04-19T11:52:37.51Z</time></trkpt><trkpt lat="38.95203" lon="16.781845"><ele>204.0</ele><time>2026-04-19T11:52:38.51Z</time></trkpt><trkpt lat="38.9522833" lon="16.7818583"><ele>204.0</ele><time>2026-04-19T11:52:39.51Z</time></trkpt><trkpt lat="38.9525317" lon="16.7818917"><ele>204.0</ele><time>2026-04-19T11:52:40.51Z</time></trkpt><trkpt lat="38.95278" lon="16.7819367"><ele>208.5</ele><time>2026-04-19T11:52:41.51Z</time></trkpt><trkpt lat="38.9530283" lon="16.7819917"><ele>213.0</ele><time>2026-04-19T11:52:42.51Z</time></trkpt><trkpt lat="38.9532733" lon="16.7820483"><ele>220.5</ele><time>2026-04-19T11:52:43.51Z</time></trkpt><trkpt lat="38.9535183" lon="16.7820967"><ele>228.0</ele><time>2026-04-19T11:52:44.51Z</time></trkpt><trkpt lat="38.9537667" lon="16.782135"><ele>228.0</ele><time>2026-04-19T11:52:45.51Z</time></trkpt><trkpt lat="38.9540183" lon="16.7821817"><ele>228.0</ele><time>2026-04-19T11:52:46.51Z</time></trkpt><trkpt lat="38.954265" lon="16.7822367"><ele>231.0</ele><time>2026-04-19T11:52:47.511Z</time></trkpt><trkpt lat="38.95451" lon="16.7822883"><ele>234.0</ele><time>2026-04-19T11:52:48.51Z</time></trkpt><trkpt lat="38.9547633" lon="16.78234"><ele>234.0</ele><time>2026-04-19T11:52:49.51Z</time></trkpt><trkpt lat="38.95502" lon="16.7823917"><ele>234.0</ele><time>2026-04-19T11:52:50.51Z</time></trkpt><trkpt lat="38.95527" lon="16.7824383"><ele>237.0</ele><time>2026-04-19T11:52:51.51Z</time></trkpt><trkpt lat="38.9555217" lon="16.7824833"><ele>240.0</ele><time>2026-04-19T11:52:52.51Z</time></trkpt><trkpt lat="38.955765" lon="16.7825317"><ele>244.5</ele><time>2026-04-19T11:52:53.51Z</time></trkpt><trkpt lat="38.9560067" lon="16.78258"><ele>249.0</ele><time>2026-04-19T11:52:54.511Z</time></trkpt><trkpt lat="38.956245" lon="16.782615"><ele>249.0</ele><time>2026-04-19T11:52:55.511Z</time></trkpt><trkpt lat="38.9564867" lon="16.7826317"><ele>249.0</ele><time>2026-04-19T11:52:56.511Z</time></trkpt><trkpt lat="38.9567333" lon="16.7826267"><ele>253.0</ele><time>2026-04-19T11:52:57.51Z</time></trkpt><trkpt lat="38.95698" lon="16.7825933"><ele>257.0</ele><time>2026-04-19T11:52:58.51Z</time></trkpt><trkpt lat="38.9572167" lon="16.78253"><ele>257.0</ele><time>2026-04-19T11:52:59.51Z</time></trkpt><trkpt lat="38.9574567" lon="16.78244"><ele>257.0</ele><time>2026-04-19T11:53:00.51Z</time></trkpt><trkpt lat="38.9576967" lon="16.7823433"><ele>259.0</ele><time>2026-04-19T11:53:01.511Z</time></trkpt><trkpt lat="38.9579317" lon="16.7822333"><ele>261.0</ele><time>2026-04-19T11:53:02.511Z</time></trkpt><trkpt lat="38.9581567" lon="16.7820917"><ele>259.5</ele><time>2026-04-19T11:53:03.51Z</time></trkpt><trkpt lat="38.95837" lon="16.7819217"><ele>258.0</ele><time>2026-04-19T11:53:04.51Z</time></trkpt><trkpt lat="38.95856" lon="16.7817217"><ele>263.5</ele><time>2026-04-19T11:53:05.51Z</time></trkpt><trkpt lat="38.95875" lon="16.7814983"><ele>269.0</ele><time>2026-04-19T11:53:06.511Z</time></trkpt><trkpt lat="38.9589317" lon="16.7812683"><ele>269.0</ele><time>2026-04-19T11:53:07.51Z</time></trkpt><trkpt lat="38.9591217" lon="16.7810433"><ele>269.0</ele><time>2026-04-19T11:53:08.511Z</time></trkpt><trkpt lat="38.95931" lon="16.78082"><ele>273.0</ele><time>2026-04-19T11:53:09.51Z</time></trkpt><trkpt lat="38.959505" lon="16.78061"><ele>277.0</ele><time>2026-04-19T11:53:10.51Z</time></trkpt><trkpt lat="38.959705" lon="16.7804133"><ele>277.0</ele><time>2026-04-19T11:53:11.51Z</time></trkpt><trkpt lat="38.959915" lon="16.7802417"><ele>277.0</ele><time>2026-04-19T11:53:12.51Z</time></trkpt><trkpt lat="38.9601283" lon="16.7801067"><ele>282.0</ele><time>2026-04-19T11:53:13.51Z</time></trkpt><trkpt lat="38.9603517" lon="16.77999"><ele>287.0</ele><time>2026-04-19T11:53:14.51Z</time></trkpt><trkpt lat="38.9605583" lon="16.7798833"><ele>287.0</ele><time>2026-04-19T11:53:15.51Z</time></trkpt><trkpt lat="38.9607383" lon="16.7797917"><ele>287.0</ele><time>2026-04-19T11:53:16.51Z</time></trkpt><trkpt lat="38.960895" lon="16.77972"><ele>287.0</ele><time>2026-04-19T11:53:17.51Z</time></trkpt><trkpt lat="38.9610267" lon="16.7796617"><ele>288.4</ele><time>2026-04-19T11:53:18.51Z</time></trkpt><trkpt lat="38.961125" lon="16.7796183"><ele>289.79999999999995</ele><time>2026-04-19T11:53:19.51Z</time></trkpt><trkpt lat="38.961205" lon="16.7795817"><ele>291.2</ele><time>2026-04-19T11:53:20.511Z</time></trkpt><trkpt lat="38.9612983" lon="16.7795133"><ele>292.59999999999997</ele><time>2026-04-19T11:53:22.51Z</time></trkpt><trkpt lat="38.9613283" lon="16.779385"><ele>294.0</ele><time>2026-04-19T11:53:24.511Z</time></trkpt><trkpt lat="38.9613283" lon="16.7792967"><ele>294.2</ele><time>2026-04-19T11:53:25.51Z</time></trkpt><trkpt lat="38.9613267" lon="16.7791983"><ele>294.4</ele><time>2026-04-19T11:53:26.51Z</time></trkpt><trkpt lat="38.96132" lon="16.77908"><ele>294.6</ele><time>2026-04-19T11:53:27.51Z</time></trkpt><trkpt lat="38.96133" lon="16.7789433"><ele>294.8</ele><time>2026-04-19T11:53:28.51Z</time></trkpt><trkpt lat="38.96134" lon="16.7788017"><ele>295.0</ele><time>2026-04-19T11:53:29.51Z</time></trkpt><trkpt lat="38.961345" lon="16.7786567"><ele>294.8</ele><time>2026-04-19T11:53:30.51Z</time></trkpt><trkpt lat="38.9613333" lon="16.7785133"><ele>294.6</ele><time>2026-04-19T11:53:31.511Z</time></trkpt><trkpt lat="38.9613133" lon="16.7783683"><ele>294.4</ele><time>2026-04-19T11:53:32.51Z</time></trkpt><trkpt lat="38.9612717" lon="16.7782333"><ele>294.2</ele><time>2026-04-19T11:53:33.511Z</time></trkpt><trkpt lat="38.961225" lon="16.77811"><ele>294.0</ele><time>2026-04-19T11:53:34.51Z</time></trkpt><trkpt lat="38.96117" lon="16.7780033"><ele>294.0</ele><time>2026-04-19T11:53:35.51Z</time></trkpt><trkpt lat="38.9611033" lon="16.7779017"><ele>294.0</ele><time>2026-04-19T11:53:36.51Z</time></trkpt><trkpt lat="38.9610283" lon="16.7778183"><ele>294.0</ele><time>2026-04-19T11:53:37.511Z</time></trkpt><trkpt lat="38.9609583" lon="16.777755"><ele>294.0</ele><time>2026-04-19T11:53:38.511Z</time></trkpt><trkpt lat="38.9608833" lon="16.7777033"><ele>294.0</ele><time>2026-04-19T11:53:39.511Z</time></trkpt><trkpt lat="38.9607933" lon="16.77765"><ele>293.5</ele><time>2026-04-19T11:53:40.51Z</time></trkpt><trkpt lat="38.9606883" lon="16.7775983"><ele>293.0</ele><time>2026-04-19T11:53:41.51Z</time></trkpt><trkpt lat="38.960575" lon="16.77754"><ele>292.5</ele><time>2026-04-19T11:53:42.511Z</time></trkpt><trkpt lat="38.9604617" lon="16.77747"><ele>292.0</ele><time>2026-04-19T11:53:43.51Z</time></trkpt><trkpt lat="38.9603617" lon="16.7773983"><ele>292.0</ele><time>2026-04-19T11:53:44.51Z</time></trkpt><trkpt lat="38.9602683" lon="16.7773333"><ele>292.0</ele><time>2026-04-19T11:53:45.51Z</time></trkpt><trkpt lat="38.9601717" lon="16.77727"><ele>292.0</ele><time>2026-04-19T11:53:46.51Z</time></trkpt><trkpt lat="38.9600617" lon="16.777205"><ele>292.0</ele><time>2026-04-19T11:53:47.51Z</time></trkpt><trkpt lat="38.9599483" lon="16.777145"><ele>290.25</ele><time>2026-04-19T11:53:48.51Z</time></trkpt><trkpt lat="38.9598283" lon="16.7770967"><ele>288.5</ele><time>2026-04-19T11:53:49.51Z</time></trkpt><trkpt lat="38.9596817" lon="16.7770483"><ele>286.75</ele><time>2026-04-19T11:53:50.51Z</time></trkpt><trkpt lat="38.9595283" lon="16.7770067"><ele>285.0</ele><time>2026-04-19T11:53:51.511Z</time></trkpt><trkpt lat="38.9593783" lon="16.77696"><ele>285.0</ele><time>2026-04-19T11:53:52.51Z</time></trkpt><trkpt lat="38.9592317" lon="16.7769133"><ele>285.0</ele><time>2026-04-19T11:53:53.51Z</time></trkpt><trkpt lat="38.9590817" lon="16.7768617"><ele>285.0</ele><time>2026-04-19T11:53:54.51Z</time></trkpt><trkpt lat="38.95894" lon="16.77681"><ele>285.0</ele><time>2026-04-19T11:53:55.51Z</time></trkpt><trkpt lat="38.958805" lon="16.7767633"><ele>285.0</ele><time>2026-04-19T11:53:56.51Z</time></trkpt><trkpt lat="38.958665" lon="16.7767167"><ele>285.0</ele><time>2026-04-19T11:53:57.511Z</time></trkpt><trkpt lat="38.9585267" lon="16.7766833"><ele>285.0</ele><time>2026-04-19T11:53:58.51Z</time></trkpt><trkpt lat="38.9583933" lon="16.7766683"><ele>283.0</ele><time>2026-04-19T11:53:59.51Z</time></trkpt><trkpt lat="38.9582633" lon="16.776655"><ele>281.0</ele><time>2026-04-19T11:54:00.51Z</time></trkpt><trkpt lat="38.958125" lon="16.7766567"><ele>279.0</ele><time>2026-04-19T11:54:01.51Z</time></trkpt><trkpt lat="38.957985" lon="16.7766533"><ele>277.0</ele><time>2026-04-19T11:54:02.51Z</time></trkpt><trkpt lat="38.95784" lon="16.7766617"><ele>277.0</ele><time>2026-04-19T11:54:03.51Z</time></trkpt><trkpt lat="38.9576933" lon="16.7766583"><ele>277.0</ele><time>2026-04-19T11:54:04.51Z</time></trkpt><trkpt lat="38.95755" lon="16.7766533"><ele>277.0</ele><time>2026-04-19T11:54:05.51Z</time></trkpt><trkpt lat="38.957405" lon="16.77666"><ele>277.0</ele><time>2026-04-19T11:54:06.511Z</time></trkpt><trkpt lat="38.957265" lon="16.7766467"><ele>275.25</ele><time>2026-04-19T11:54:07.511Z</time></trkpt><trkpt lat="38.9571283" lon="16.7766117"><ele>273.5</ele><time>2026-04-19T11:54:08.51Z</time></trkpt><trkpt lat="38.9569933" lon="16.7765583"><ele>271.75</ele><time>2026-04-19T11:54:09.51Z</time></trkpt><trkpt lat="38.9568733" lon="16.7764733"><ele>270.0</ele><time>2026-04-19T11:54:10.51Z</time></trkpt><trkpt lat="38.9567583" lon="16.776365"><ele>268.5</ele><time>2026-04-19T11:54:11.51Z</time></trkpt><trkpt lat="38.9566667" lon="16.7762383"><ele>267.0</ele><time>2026-04-19T11:54:12.51Z</time></trkpt><trkpt lat="38.9565917" lon="16.7761"><ele>265.5</ele><time>2026-04-19T11:54:13.51Z</time></trkpt><trkpt lat="38.9565317" lon="16.7759583"><ele>264.0</ele><time>2026-04-19T11:54:14.51Z</time></trkpt><trkpt lat="38.95649" lon="16.7758167"><ele>264.0</ele><time>2026-04-19T11:54:15.51Z</time></trkpt><trkpt lat="38.9564517" lon="16.775655"><ele>264.0</ele><time>2026-04-19T11:54:16.51Z</time></trkpt><trkpt lat="38.9564167" lon="16.77549"><ele>264.0</ele><time>2026-04-19T11:54:17.51Z</time></trkpt><trkpt lat="38.956385" lon="16.7753233"><ele>264.0</ele><time>2026-04-19T11:54:18.511Z</time></trkpt><trkpt lat="38.9563533" lon="16.7751667"><ele>263.75</ele><time>2026-04-19T11:54:19.51Z</time></trkpt><trkpt lat="38.9563367" lon="16.7750117"><ele>263.5</ele><time>2026-04-19T11:54:20.51Z</time></trkpt><trkpt lat="38.9563383" lon="16.7748517"><ele>263.25</ele><time>2026-04-19T11:54:21.51Z</time></trkpt><trkpt lat="38.9563667" lon="16.7746983"><ele>263.0</ele><time>2026-04-19T11:54:22.51Z</time></trkpt><trkpt lat="38.95641" lon="16.7745567"><ele>263.0</ele><time>2026-04-19T11:54:23.511Z</time></trkpt><trkpt lat="38.9564733" lon="16.7744283"><ele>263.0</ele><time>2026-04-19T11:54:24.51Z</time></trkpt><trkpt lat="38.9565533" lon="16.774325"><ele>263.0</ele><time>2026-04-19T11:54:25.51Z</time></trkpt><trkpt lat="38.9566333" lon="16.77422"><ele>263.0</ele><time>2026-04-19T11:54:26.511Z</time></trkpt><trkpt lat="38.9567" lon="16.7741067"><ele>262.2</ele><time>2026-04-19T11:54:27.51Z</time></trkpt><trkpt lat="38.9567517" lon="16.7739833"><ele>261.4</ele><time>2026-04-19T11:54:28.511Z</time></trkpt><trkpt lat="38.9567967" lon="16.77386"><ele>260.59999999999997</ele><time>2026-04-19T11:54:29.51Z</time></trkpt><trkpt lat="38.9568367" lon="16.7737533"><ele>259.8</ele><time>2026-04-19T11:54:30.51Z</time></trkpt><trkpt lat="38.95689" lon="16.7736717"><ele>259.0</ele><time>2026-04-19T11:54:31.51Z</time></trkpt><trkpt lat="38.9569683" lon="16.7736183"><ele>259.0</ele><time>2026-04-19T11:54:32.51Z</time></trkpt><trkpt lat="38.9570683" lon="16.77361"><ele>259.0</ele><time>2026-04-19T11:54:33.51Z</time></trkpt><trkpt lat="38.9571733" lon="16.7736233"><ele>259.0</ele><time>2026-04-19T11:54:34.51Z</time></trkpt><trkpt lat="38.9572733" lon="16.7736517"><ele>259.0</ele><time>2026-04-19T11:54:35.511Z</time></trkpt><trkpt lat="38.9573517" lon="16.7736633"><ele>259.0</ele><time>2026-04-19T11:54:36.51Z</time></trkpt><trkpt lat="38.95742" lon="16.7736417"><ele>259.0</ele><time>2026-04-19T11:54:37.51Z</time></trkpt><trkpt lat="38.9574733" lon="16.7735817"><ele>259.0</ele><time>2026-04-19T11:54:38.51Z</time></trkpt><trkpt lat="38.957525" lon="16.7735"><ele>259.0</ele><time>2026-04-19T11:54:39.51Z</time></trkpt><trkpt lat="38.9575833" lon="16.7733967"><ele>259.0</ele><time>2026-04-19T11:54:40.511Z</time></trkpt><trkpt lat="38.95764" lon="16.7732783"><ele>259.0</ele><time>2026-04-19T11:54:41.51Z</time></trkpt><trkpt lat="38.957695" lon="16.7731683"><ele>258.0</ele><time>2026-04-19T11:54:42.51Z</time></trkpt><trkpt lat="38.9577417" lon="16.7730617"><ele>257.0</ele><time>2026-04-19T11:54:43.51Z</time></trkpt><trkpt lat="38.9577733" lon="16.772965"><ele>256.0</ele><time>2026-04-19T11:54:44.51Z</time></trkpt><trkpt lat="38.957795" lon="16.77287"><ele>255.0</ele><time>2026-04-19T11:54:45.51Z</time></trkpt><trkpt lat="38.9577917" lon="16.7727883"><ele>253.99999999999997</ele><time>2026-04-19T11:54:46.51Z</time></trkpt><trkpt lat="38.9577517" lon="16.7726467"><ele>253.0</ele><time>2026-04-19T11:54:48.51Z</time></trkpt><trkpt lat="38.9577083" lon="16.7725833"><ele>253.0</ele><time>2026-04-19T11:54:49.51Z</time></trkpt><trkpt lat="38.95765" lon="16.7725267"><ele>253.0</ele><time>2026-04-19T11:54:50.51Z</time></trkpt><trkpt lat="38.9575783" lon="16.7724783"><ele>253.0</ele><time>2026-04-19T11:54:51.511Z</time></trkpt><trkpt lat="38.9574933" lon="16.7724417"><ele>253.0</ele><time>2026-04-19T11:54:52.51Z</time></trkpt><trkpt lat="38.957395" lon="16.7724167"><ele>253.0</ele><time>2026-04-19T11:54:53.51Z</time></trkpt><trkpt lat="38.95728" lon="16.7724017"><ele>251.5</ele><time>2026-04-19T11:54:54.51Z</time></trkpt><trkpt lat="38.9571567" lon="16.7723883"><ele>250.0</ele><time>2026-04-19T11:54:55.51Z</time></trkpt><trkpt lat="38.95703" lon="16.7723933"><ele>248.5</ele><time>2026-04-19T11:54:56.51Z</time></trkpt><trkpt lat="38.9569117" lon="16.7723983"><ele>247.0</ele><time>2026-04-19T11:54:57.511Z</time></trkpt><trkpt lat="38.9567767" lon="16.772445"><ele>247.75</ele><time>2026-04-19T11:54:58.51Z</time></trkpt><trkpt lat="38.9566533" lon="16.772475"><ele>248.5</ele><time>2026-04-19T11:54:59.51Z</time></trkpt><trkpt lat="38.9565317" lon="16.7725083"><ele>249.25</ele><time>2026-04-19T11:55:00.511Z</time></trkpt><trkpt lat="38.9564133" lon="16.772525"><ele>250.0</ele><time>2026-04-19T11:55:01.51Z</time></trkpt><trkpt lat="38.9562933" lon="16.7725333"><ele>250.0</ele><time>2026-04-19T11:55:02.51Z</time></trkpt><trkpt lat="38.9561767" lon="16.7725333"><ele>250.0</ele><time>2026-04-19T11:55:03.51Z</time></trkpt><trkpt lat="38.956065" lon="16.77252"><ele>250.0</ele><time>2026-04-19T11:55:04.511Z</time></trkpt><trkpt lat="38.9559667" lon="16.7725017"><ele>250.0</ele><time>2026-04-19T11:55:05.511Z</time></trkpt><trkpt lat="38.9558917" lon="16.7724783"><ele>250.0</ele><time>2026-04-19T11:55:06.51Z</time></trkpt><trkpt lat="38.9558283" lon="16.77244"><ele>249.85714285714283</ele><time>2026-04-19T11:55:07.51Z</time></trkpt><trkpt lat="38.9557667" lon="16.7723967"><ele>249.71428571428572</ele><time>2026-04-19T11:55:08.51Z</time></trkpt><trkpt lat="38.955705" lon="16.7723483"><ele>249.57142857142856</ele><time>2026-04-19T11:55:09.51Z</time></trkpt><trkpt lat="38.955645" lon="16.7722983"><ele>249.42857142857142</ele><time>2026-04-19T11:55:10.51Z</time></trkpt><trkpt lat="38.9555833" lon="16.7722467"><ele>249.28571428571428</ele><time>2026-04-19T11:55:11.51Z</time></trkpt><trkpt lat="38.9555233" lon="16.7721883"><ele>249.14285714285714</ele><time>2026-04-19T11:55:12.51Z</time></trkpt><trkpt lat="38.9554633" lon="16.7721383"><ele>249.0</ele><time>2026-04-19T11:55:13.51Z</time></trkpt><trkpt lat="38.955375" lon="16.772075"><ele>249.0</ele><time>2026-04-19T11:55:15.51Z</time></trkpt><trkpt lat="38.9553117" lon="16.7721217"><ele>249.0</ele><time>2026-04-19T11:55:18.51Z</time></trkpt><trkpt lat="38.9552333" lon="16.772185"><ele>249.0</ele><time>2026-04-19T11:55:20.511Z</time></trkpt><trkpt lat="38.95513" lon="16.7722717"><ele>249.0</ele><time>2026-04-19T11:55:22.51Z</time></trkpt><trkpt lat="38.9550783" lon="16.7723233"><ele>249.0</ele><time>2026-04-19T11:55:23.51Z</time></trkpt><trkpt lat="38.9550233" lon="16.772375"><ele>249.0</ele><time>2026-04-19T11:55:24.51Z</time></trkpt><trkpt lat="38.954915" lon="16.7724417"><ele>247.0</ele><time>2026-04-19T11:55:26.51Z</time></trkpt><trkpt lat="38.954845" lon="16.7724533"><ele>244.99999999999997</ele><time>2026-04-19T11:55:27.511Z</time></trkpt><trkpt lat="38.9547617" lon="16.77245"><ele>242.99999999999997</ele><time>2026-04-19T11:55:28.51Z</time></trkpt><trkpt lat="38.954665" lon="16.7724367"><ele>241.0</ele><time>2026-04-19T11:55:29.51Z</time></trkpt><trkpt lat="38.954565" lon="16.77242"><ele>239.0</ele><time>2026-04-19T11:55:30.51Z</time></trkpt><trkpt lat="38.9544533" lon="16.7724117"><ele>239.0</ele><time>2026-04-19T11:55:31.51Z</time></trkpt><trkpt lat="38.9543467" lon="16.7724117"><ele>238.99999999999997</ele><time>2026-04-19T11:55:32.51Z</time></trkpt><trkpt lat="38.954245" lon="16.7724033"><ele>238.99999999999997</ele><time>2026-04-19T11:55:33.511Z</time></trkpt><trkpt lat="38.9541467" lon="16.772405"><ele>239.0</ele><time>2026-04-19T11:55:34.51Z</time></trkpt><trkpt lat="38.9540617" lon="16.7724033"><ele>239.0</ele><time>2026-04-19T11:55:35.51Z</time></trkpt><trkpt lat="38.953975" lon="16.7723967"><ele>237.66666666666669</ele><time>2026-04-19T11:55:36.511Z</time></trkpt><trkpt lat="38.9538867" lon="16.7723883"><ele>236.33333333333334</ele><time>2026-04-19T11:55:37.51Z</time></trkpt><trkpt lat="38.9538017" lon="16.77238"><ele>235.0</ele><time>2026-04-19T11:55:38.51Z</time></trkpt><trkpt lat="38.953715" lon="16.77236"><ele>233.66666666666669</ele><time>2026-04-19T11:55:39.51Z</time></trkpt><trkpt lat="38.9536383" lon="16.772325"><ele>232.33333333333334</ele><time>2026-04-19T11:55:40.51Z</time></trkpt><trkpt lat="38.953575" lon="16.7722633"><ele>231.0</ele><time>2026-04-19T11:55:41.51Z</time></trkpt><trkpt lat="38.95353" lon="16.7721667"><ele>231.0</ele><time>2026-04-19T11:55:42.51Z</time></trkpt><trkpt lat="38.9535233" lon="16.7720583"><ele>231.00000000000003</ele><time>2026-04-19T11:55:43.511Z</time></trkpt><trkpt lat="38.9535433" lon="16.771945"><ele>231.00000000000003</ele><time>2026-04-19T11:55:44.51Z</time></trkpt><trkpt lat="38.9535767" lon="16.7718233"><ele>231.0</ele><time>2026-04-19T11:55:45.51Z</time></trkpt><trkpt lat="38.9536133" lon="16.771695"><ele>231.0</ele><time>2026-04-19T11:55:46.51Z</time></trkpt><trkpt lat="38.9536617" lon="16.77156"><ele>230.8</ele><time>2026-04-19T11:55:47.51Z</time></trkpt><trkpt lat="38.953705" lon="16.771425"><ele>230.60000000000002</ele><time>2026-04-19T11:55:48.51Z</time></trkpt><trkpt lat="38.9537417" lon="16.771295"><ele>230.4</ele><time>2026-04-19T11:55:49.51Z</time></trkpt><trkpt lat="38.9537783" lon="16.7711717"><ele>230.2</ele><time>2026-04-19T11:55:50.511Z</time></trkpt><trkpt lat="38.95381" lon="16.771055"><ele>230.0</ele><time>2026-04-19T11:55:51.51Z</time></trkpt><trkpt lat="38.9538233" lon="16.7709433"><ele>230.00000000000003</ele><time>2026-04-19T11:55:52.51Z</time></trkpt><trkpt lat="38.9538217" lon="16.7708383"><ele>230.0</ele><time>2026-04-19T11:55:53.511Z</time></trkpt><trkpt lat="38.9537983" lon="16.7707367"><ele>230.0</ele><time>2026-04-19T11:55:54.511Z</time></trkpt><trkpt lat="38.9537583" lon="16.7706483"><ele>230.0</ele><time>2026-04-19T11:55:55.51Z</time></trkpt><trkpt lat="38.9537033" lon="16.770575"><ele>230.00000000000003</ele><time>2026-04-19T11:55:56.51Z</time></trkpt><trkpt lat="38.9536233" lon="16.7705283"><ele>230.0</ele><time>2026-04-19T11:55:57.51Z</time></trkpt><trkpt lat="38.9535383" lon="16.7705067"><ele>230.0</ele><time>2026-04-19T11:55:58.51Z</time></trkpt><trkpt lat="38.9534483" lon="16.7705067"><ele>230.0</ele><time>2026-04-19T11:55:59.51Z</time></trkpt><trkpt lat="38.9533583" lon="16.7705517"><ele>230.0</ele><time>2026-04-19T11:56:00.51Z</time></trkpt><trkpt lat="38.9532833" lon="16.7706367"><ele>230.0</ele><time>2026-04-19T11:56:01.51Z</time></trkpt><trkpt lat="38.953225" lon="16.770745"><ele>230.0</ele><time>2026-04-19T11:56:02.51Z</time></trkpt><trkpt lat="38.9531783" lon="16.7708833"><ele>227.0</ele><time>2026-04-19T11:56:03.51Z</time></trkpt><trkpt lat="38.953135" lon="16.7710317"><ele>224.0</ele><time>2026-04-19T11:56:04.511Z</time></trkpt><trkpt lat="38.953095" lon="16.771185"><ele>221.0</ele><time>2026-04-19T11:56:05.51Z</time></trkpt><trkpt lat="38.9530467" lon="16.7713433"><ele>218.0</ele><time>2026-04-19T11:56:06.51Z</time></trkpt><trkpt lat="38.952995" lon="16.7714983"><ele>218.0</ele><time>2026-04-19T11:56:07.51Z</time></trkpt><trkpt lat="38.9529383" lon="16.7716517"><ele>218.0</ele><time>2026-04-19T11:56:08.511Z</time></trkpt><trkpt lat="38.9528817" lon="16.7717983"><ele>218.0</ele><time>2026-04-19T11:56:09.51Z</time></trkpt><trkpt lat="38.952825" lon="16.7719467"><ele>218.0</ele><time>2026-04-19T11:56:10.51Z</time></trkpt><trkpt lat="38.9527733" lon="16.7720917"><ele>218.50000000000003</ele><time>2026-04-19T11:56:11.511Z</time></trkpt><trkpt lat="38.95273" lon="16.772225"><ele>219.0</ele><time>2026-04-19T11:56:12.511Z</time></trkpt><trkpt lat="38.9526867" lon="16.7723433"><ele>219.5</ele><time>2026-04-19T11:56:13.511Z</time></trkpt><trkpt lat="38.9526383" lon="16.7724367"><ele>220.0</ele><time>2026-04-19T11:56:14.51Z</time></trkpt><trkpt lat="38.9525867" lon="16.7725117"><ele>220.50000000000003</ele><time>2026-04-19T11:56:15.51Z</time></trkpt><trkpt lat="38.9525283" lon="16.7725567"><ele>221.0</ele><time>2026-04-19T11:56:16.51Z</time></trkpt><trkpt lat="38.95245" lon="16.7725767"><ele>218.50000000000003</ele><time>2026-04-19T11:56:17.511Z</time></trkpt><trkpt lat="38.95237" lon="16.7725633"><ele>216.0</ele><time>2026-04-19T11:56:18.51Z</time></trkpt><trkpt lat="38.9523033" lon="16.7725233"><ele>213.5</ele><time>2026-04-19T11:56:19.511Z</time></trkpt><trkpt lat="38.9522733" lon="16.77245"><ele>211.0</ele><time>2026-04-19T11:56:20.51Z</time></trkpt><trkpt lat="38.9522833" lon="16.7723617"><ele>208.50000000000003</ele><time>2026-04-19T11:56:21.51Z</time></trkpt><trkpt lat="38.95232" lon="16.7722783"><ele>206.0</ele><time>2026-04-19T11:56:22.51Z</time></trkpt><trkpt lat="38.9523617" lon="16.7721767"><ele>206.0</ele><time>2026-04-19T11:56:23.511Z</time></trkpt><trkpt lat="38.9523967" lon="16.772065"><ele>206.0</ele><time>2026-04-19T11:56:24.511Z</time></trkpt><trkpt lat="38.9524233" lon="16.771945"><ele>206.0</ele><time>2026-04-19T11:56:25.51Z</time></trkpt><trkpt lat="38.95244" lon="16.77183"><ele>206.0</ele><time>2026-04-19T11:56:26.51Z</time></trkpt><trkpt lat="38.9524517" lon="16.7717283"><ele>206.0</ele><time>2026-04-19T11:56:27.51Z</time></trkpt><trkpt lat="38.9524433" lon="16.7715917"><ele>205.4</ele><time>2026-04-19T11:56:29.51Z</time></trkpt><trkpt lat="38.9524317" lon="16.7714867"><ele>204.8</ele><time>2026-04-19T11:56:32.51Z</time></trkpt><trkpt lat="38.9524117" lon="16.77139"><ele>204.20000000000002</ele><time>2026-04-19T11:56:34.51Z</time></trkpt><trkpt lat="38.9523867" lon="16.77127"><ele>203.60000000000002</ele><time>2026-04-19T11:56:36.51Z</time></trkpt><trkpt lat="38.9523467" lon="16.77113"><ele>203.0</ele><time>2026-04-19T11:56:38.51Z</time></trkpt><trkpt lat="38.9522983" lon="16.7709667"><ele>202.00000000000003</ele><time>2026-04-19T11:56:40.51Z</time></trkpt><trkpt lat="38.952285" lon="16.7708683"><ele>201.0</ele><time>2026-04-19T11:56:41.511Z</time></trkpt><trkpt lat="38.95228" lon="16.7707617"><ele>200.0</ele><time>2026-04-19T11:56:42.511Z</time></trkpt><trkpt lat="38.95229" lon="16.7706483"><ele>199.0</ele><time>2026-04-19T11:56:43.51Z</time></trkpt><trkpt lat="38.9523167" lon="16.7705367"><ele>198.00000000000003</ele><time>2026-04-19T11:56:44.51Z</time></trkpt><trkpt lat="38.9523617" lon="16.7704133"><ele>197.0</ele><time>2026-04-19T11:56:45.511Z</time></trkpt><trkpt lat="38.9524067" lon="16.770285"><ele>193.5</ele><time>2026-04-19T11:56:46.51Z</time></trkpt><trkpt lat="38.9524533" lon="16.7701467"><ele>190.0</ele><time>2026-04-19T11:56:47.51Z</time></trkpt><trkpt lat="38.9524983" lon="16.770005"><ele>186.5</ele><time>2026-04-19T11:56:48.51Z</time></trkpt><trkpt lat="38.9525367" lon="16.7698583"><ele>183.0</ele><time>2026-04-19T11:56:49.51Z</time></trkpt><trkpt lat="38.9525667" lon="16.7697133"><ele>187.5</ele><time>2026-04-19T11:56:50.51Z</time></trkpt><trkpt lat="38.9526033" lon="16.76956"><ele>192.0</ele><time>2026-04-19T11:56:51.511Z</time></trkpt><trkpt lat="38.9526417" lon="16.7694117"><ele>196.5</ele><time>2026-04-19T11:56:52.51Z</time></trkpt><trkpt lat="38.95268" lon="16.7692683"><ele>201.0</ele><time>2026-04-19T11:56:53.51Z</time></trkpt><trkpt lat="38.9527183" lon="16.76913"><ele>201.0</ele><time>2026-04-19T11:56:54.51Z</time></trkpt><trkpt lat="38.9527583" lon="16.769"><ele>201.0</ele><time>2026-04-19T11:56:55.51Z</time></trkpt><trkpt lat="38.9527883" lon="16.768865"><ele>201.0</ele><time>2026-04-19T11:56:56.51Z</time></trkpt><trkpt lat="38.9528217" lon="16.7687333"><ele>201.0</ele><time>2026-04-19T11:56:57.511Z</time></trkpt><trkpt lat="38.9528433" lon="16.768605"><ele>201.0</ele><time>2026-04-19T11:56:58.51Z</time></trkpt><trkpt lat="38.9528533" lon="16.7684683"><ele>199.0</ele><time>2026-04-19T11:56:59.51Z</time></trkpt><trkpt lat="38.9528517" lon="16.76833"><ele>197.0</ele><time>2026-04-19T11:57:00.511Z</time></trkpt><trkpt lat="38.952845" lon="16.7681883"><ele>195.0</ele><time>2026-04-19T11:57:01.51Z</time></trkpt><trkpt lat="38.9528433" lon="16.7680433"><ele>193.0</ele><time>2026-04-19T11:57:02.511Z</time></trkpt><trkpt lat="38.9528433" lon="16.7679017"><ele>191.0</ele><time>2026-04-19T11:57:03.51Z</time></trkpt><trkpt lat="38.9528567" lon="16.767775"><ele>188.0</ele><time>2026-04-19T11:57:04.51Z</time></trkpt><trkpt lat="38.952885" lon="16.7676633"><ele>185.0</ele><time>2026-04-19T11:57:05.51Z</time></trkpt><trkpt lat="38.952945" lon="16.7675617"><ele>182.0</ele><time>2026-04-19T11:57:06.511Z</time></trkpt><trkpt lat="38.95302" lon="16.7674717"><ele>179.0</ele><time>2026-04-19T11:57:07.51Z</time></trkpt><trkpt lat="38.95312" lon="16.7673883"><ele>176.0</ele><time>2026-04-19T11:57:08.51Z</time></trkpt><trkpt lat="38.9532333" lon="16.7672983"><ele>176.0</ele><time>2026-04-19T11:57:09.511Z</time></trkpt><trkpt lat="38.9533583" lon="16.7672033"><ele>176.0</ele><time>2026-04-19T11:57:10.511Z</time></trkpt><trkpt lat="38.9534783" lon="16.7671117"><ele>176.0</ele><time>2026-04-19T11:57:11.51Z</time></trkpt><trkpt lat="38.9535967" lon="16.7670083"><ele>176.0</ele><time>2026-04-19T11:57:12.51Z</time></trkpt><trkpt lat="38.95371" lon="16.7669117"><ele>174.0</ele><time>2026-04-19T11:57:13.51Z</time></trkpt><trkpt lat="38.9538217" lon="16.7668117"><ele>172.0</ele><time>2026-04-19T11:57:14.51Z</time></trkpt><trkpt lat="38.9539283" lon="16.76671"><ele>170.0</ele><time>2026-04-19T11:57:15.51Z</time></trkpt><trkpt lat="38.95404" lon="16.7666133"><ele>168.0</ele><time>2026-04-19T11:57:16.511Z</time></trkpt><trkpt lat="38.9541417" lon="16.7665167"><ele>173.75</ele><time>2026-04-19T11:57:17.51Z</time></trkpt><trkpt lat="38.954235" lon="16.766415"><ele>179.5</ele><time>2026-04-19T11:57:18.51Z</time></trkpt><trkpt lat="38.9543317" lon="16.76632"><ele>185.25</ele><time>2026-04-19T11:57:19.51Z</time></trkpt><trkpt lat="38.9544233" lon="16.7662317"><ele>191.0</ele><time>2026-04-19T11:57:20.51Z</time></trkpt><trkpt lat="38.9545117" lon="16.7661483"><ele>191.0</ele><time>2026-04-19T11:57:21.511Z</time></trkpt><trkpt lat="38.9545783" lon="16.766075"><ele>191.0</ele><time>2026-04-19T11:57:22.51Z</time></trkpt><trkpt lat="38.9546283" lon="16.7660167"><ele>191.0</ele><time>2026-04-19T11:57:23.51Z</time></trkpt><trkpt lat="38.954715" lon="16.7659083"><ele>191.0</ele><time>2026-04-19T11:57:25.511Z</time></trkpt><trkpt lat="38.95475" lon="16.76584"><ele>191.0</ele><time>2026-04-19T11:57:26.51Z</time></trkpt><trkpt lat="38.954775" lon="16.765755"><ele>191.0</ele><time>2026-04-19T11:57:27.51Z</time></trkpt><trkpt lat="38.9547833" lon="16.7656683"><ele>187.66666666666666</ele><time>2026-04-19T11:57:28.511Z</time></trkpt><trkpt lat="38.9547583" lon="16.7655817"><ele>184.33333333333331</ele><time>2026-04-19T11:57:29.511Z</time></trkpt><trkpt lat="38.95471" lon="16.7655133"><ele>181.0</ele><time>2026-04-19T11:57:30.51Z</time></trkpt><trkpt lat="38.9546283" lon="16.7654717"><ele>177.66666666666666</ele><time>2026-04-19T11:57:31.51Z</time></trkpt><trkpt lat="38.9545333" lon="16.76546"><ele>174.33333333333334</ele><time>2026-04-19T11:57:32.51Z</time></trkpt><trkpt lat="38.9544267" lon="16.7654883"><ele>171.0</ele><time>2026-04-19T11:57:33.51Z</time></trkpt><trkpt lat="38.9543133" lon="16.765535"><ele>167.20000000000002</ele><time>2026-04-19T11:57:34.51Z</time></trkpt><trkpt lat="38.9542017" lon="16.7656"><ele>163.4</ele><time>2026-04-19T11:57:35.51Z</time></trkpt><trkpt lat="38.9540967" lon="16.7656567"><ele>159.6</ele><time>2026-04-19T11:57:36.51Z</time></trkpt><trkpt lat="38.9539967" lon="16.7657083"><ele>155.8</ele><time>2026-04-19T11:57:37.51Z</time></trkpt><trkpt lat="38.9538967" lon="16.76573"><ele>152.0</ele><time>2026-04-19T11:57:38.51Z</time></trkpt><trkpt lat="38.9538083" lon="16.76572"><ele>152.0</ele><time>2026-04-19T11:57:39.511Z</time></trkpt><trkpt lat="38.9537317" lon="16.7656833"><ele>152.0</ele><time>2026-04-19T11:57:40.511Z</time></trkpt><trkpt lat="38.9536617" lon="16.7656233"><ele>152.0</ele><time>2026-04-19T11:57:41.51Z</time></trkpt><trkpt lat="38.953605" lon="16.76555"><ele>152.0</ele><time>2026-04-19T11:57:42.511Z</time></trkpt><trkpt lat="38.95355" lon="16.765475"><ele>152.0</ele><time>2026-04-19T11:57:43.51Z</time></trkpt><trkpt lat="38.95349" lon="16.765375"><ele>152.0</ele><time>2026-04-19T11:57:45.51Z</time></trkpt><trkpt lat="38.9534433" lon="16.7653117"><ele>152.0</ele><time>2026-04-19T11:57:47.51Z</time></trkpt><trkpt lat="38.9533733" lon="16.7652067"><ele>152.0</ele><time>2026-04-19T11:57:49.511Z</time></trkpt><trkpt lat="38.9533167" lon="16.765135"><ele>152.0</ele><time>2026-04-19T11:57:50.51Z</time></trkpt><trkpt lat="38.9532567" lon="16.7650567"><ele>152.0</ele><time>2026-04-19T11:57:51.51Z</time></trkpt><trkpt lat="38.953195" lon="16.7649767"><ele>152.0</ele><time>2026-04-19T11:57:52.51Z</time></trkpt><trkpt lat="38.9531233" lon="16.764895"><ele>150.0</ele><time>2026-04-19T11:57:53.51Z</time></trkpt><trkpt lat="38.9530567" lon="16.764815"><ele>148.0</ele><time>2026-04-19T11:57:54.51Z</time></trkpt><trkpt lat="38.9529917" lon="16.7647367"><ele>146.0</ele><time>2026-04-19T11:57:55.51Z</time></trkpt><trkpt lat="38.9529267" lon="16.7646683"><ele>144.0</ele><time>2026-04-19T11:57:56.51Z</time></trkpt><trkpt lat="38.95286" lon="16.764605"><ele>142.0</ele><time>2026-04-19T11:57:57.511Z</time></trkpt><trkpt lat="38.9527233" lon="16.7645583"><ele>142.0</ele><time>2026-04-19T11:57:59.51Z</time></trkpt><trkpt lat="38.952645" lon="16.764595"><ele>142.0</ele><time>2026-04-19T11:58:00.51Z</time></trkpt><trkpt lat="38.952575" lon="16.76466"><ele>142.0</ele><time>2026-04-19T11:58:01.51Z</time></trkpt><trkpt lat="38.952515" lon="16.7647383"><ele>142.0</ele><time>2026-04-19T11:58:02.511Z</time></trkpt><trkpt lat="38.9524683" lon="16.7648183"><ele>142.0</ele><time>2026-04-19T11:58:03.51Z</time></trkpt><trkpt lat="38.952425" lon="16.7648983"><ele>142.0</ele><time>2026-04-19T11:58:04.51Z</time></trkpt><trkpt lat="38.9523717" lon="16.764975"><ele>142.0</ele><time>2026-04-19T11:58:05.51Z</time></trkpt><trkpt lat="38.952315" lon="16.765055"><ele>142.0</ele><time>2026-04-19T11:58:06.51Z</time></trkpt><trkpt lat="38.95226" lon="16.765135"><ele>142.0</ele><time>2026-04-19T11:58:07.51Z</time></trkpt><trkpt lat="38.952215" lon="16.7651967"><ele>142.0</ele><time>2026-04-19T11:58:08.51Z</time></trkpt><trkpt lat="38.95213" lon="16.76529"><ele>142.0</ele><time>2026-04-19T11:58:10.51Z</time></trkpt><trkpt lat="38.952035" lon="16.76536"><ele>142.0</ele><time>2026-04-19T11:58:12.51Z</time></trkpt><trkpt lat="38.9519533" lon="16.7654383"><ele>142.0</ele><time>2026-04-19T11:58:14.511Z</time></trkpt><trkpt lat="38.9519017" lon="16.7655233"><ele>142.0</ele><time>2026-04-19T11:58:16.51Z</time></trkpt><trkpt lat="38.9518467" lon="16.7656217"><ele>142.0</ele><time>2026-04-19T11:58:18.511Z</time></trkpt><trkpt lat="38.951785" lon="16.7657333"><ele>142.0</ele><time>2026-04-19T11:58:20.51Z</time></trkpt><trkpt lat="38.9517467" lon="16.7658"><ele>144.6</ele><time>2026-04-19T11:58:21.51Z</time></trkpt><trkpt lat="38.9516967" lon="16.7658733"><ele>147.2</ele><time>2026-04-19T11:58:22.51Z</time></trkpt><trkpt lat="38.9516283" lon="16.7659467"><ele>149.8</ele><time>2026-04-19T11:58:23.51Z</time></trkpt><trkpt lat="38.9515483" lon="16.7660133"><ele>152.4</ele><time>2026-04-19T11:58:24.51Z</time></trkpt><trkpt lat="38.9514567" lon="16.76608"><ele>155.0</ele><time>2026-04-19T11:58:25.51Z</time></trkpt><trkpt lat="38.951365" lon="16.7661367"><ele>155.0</ele><time>2026-04-19T11:58:26.51Z</time></trkpt><trkpt lat="38.9512783" lon="16.7661833"><ele>155.0</ele><time>2026-04-19T11:58:27.511Z</time></trkpt><trkpt lat="38.9511983" lon="16.7662067"><ele>155.0</ele><time>2026-04-19T11:58:28.511Z</time></trkpt><trkpt lat="38.95112" lon="16.7662033"><ele>155.0</ele><time>2026-04-19T11:58:29.51Z</time></trkpt><trkpt lat="38.9510533" lon="16.76617"><ele>155.0</ele><time>2026-04-19T11:58:30.511Z</time></trkpt><trkpt lat="38.9509967" lon="16.7661033"><ele>155.0</ele><time>2026-04-19T11:58:31.51Z</time></trkpt><trkpt lat="38.9509733" lon="16.7660133"><ele>155.4</ele><time>2026-04-19T11:58:32.51Z</time></trkpt><trkpt lat="38.95097" lon="16.7659083"><ele>155.8</ele><time>2026-04-19T11:58:33.51Z</time></trkpt><trkpt lat="38.9509817" lon="16.7657817"><ele>156.2</ele><time>2026-04-19T11:58:34.51Z</time></trkpt><trkpt lat="38.950995" lon="16.765635"><ele>156.6</ele><time>2026-04-19T11:58:35.51Z</time></trkpt><trkpt lat="38.9510017" lon="16.7654833"><ele>157.0</ele><time>2026-04-19T11:58:36.511Z</time></trkpt><trkpt lat="38.9510167" lon="16.76531"><ele>159.25</ele><time>2026-04-19T11:58:37.51Z</time></trkpt><trkpt lat="38.9510283" lon="16.765135"><ele>161.5</ele><time>2026-04-19T11:58:38.511Z</time></trkpt><trkpt lat="38.9510417" lon="16.7649633"><ele>163.75</ele><time>2026-04-19T11:58:39.51Z</time></trkpt><trkpt lat="38.9510467" lon="16.7648017"><ele>166.0</ele><time>2026-04-19T11:58:40.51Z</time></trkpt><trkpt lat="38.95105" lon="16.7646667"><ele>166.0</ele><time>2026-04-19T11:58:41.51Z</time></trkpt><trkpt lat="38.951055" lon="16.764545"><ele>166.0</ele><time>2026-04-19T11:58:42.51Z</time></trkpt><trkpt lat="38.951075" lon="16.7644333"><ele>166.0</ele><time>2026-04-19T11:58:43.51Z</time></trkpt><trkpt lat="38.95111" lon="16.7643317"><ele>166.0</ele><time>2026-04-19T11:58:44.51Z</time></trkpt><trkpt lat="38.9511617" lon="16.7642317"><ele>166.0</ele><time>2026-04-19T11:58:45.51Z</time></trkpt><trkpt lat="38.951225" lon="16.7641417"><ele>167.20000000000002</ele><time>2026-04-19T11:58:46.51Z</time></trkpt><trkpt lat="38.9512883" lon="16.764045"><ele>168.4</ele><time>2026-04-19T11:58:47.51Z</time></trkpt><trkpt lat="38.951345" lon="16.76395"><ele>169.6</ele><time>2026-04-19T11:58:48.51Z</time></trkpt><trkpt lat="38.951395" lon="16.7638667"><ele>170.8</ele><time>2026-04-19T11:58:49.51Z</time></trkpt><trkpt lat="38.9514583" lon="16.7637717"><ele>172.0</ele><time>2026-04-19T11:58:51.51Z</time></trkpt><trkpt lat="38.9515417" lon="16.7636367"><ele>172.0</ele><time>2026-04-19T11:58:53.511Z</time></trkpt><trkpt lat="38.95159" lon="16.763545"><ele>172.0</ele><time>2026-04-19T11:58:54.51Z</time></trkpt><trkpt lat="38.9516417" lon="16.7634433"><ele>172.0</ele><time>2026-04-19T11:58:55.51Z</time></trkpt><trkpt lat="38.951695" lon="16.7633467"><ele>172.0</ele><time>2026-04-19T11:58:56.51Z</time></trkpt><trkpt lat="38.9517483" lon="16.7632583"><ele>172.0</ele><time>2026-04-19T11:58:57.51Z</time></trkpt><trkpt lat="38.9518033" lon="16.7631717"><ele>172.0</ele><time>2026-04-19T11:58:58.51Z</time></trkpt><trkpt lat="38.9518517" lon="16.76308"><ele>172.5</ele><time>2026-04-19T11:58:59.51Z</time></trkpt><trkpt lat="38.9518983" lon="16.762985"><ele>173.0</ele><time>2026-04-19T11:59:00.511Z</time></trkpt><trkpt lat="38.9519533" lon="16.7628933"><ele>173.5</ele><time>2026-04-19T11:59:01.51Z</time></trkpt><trkpt lat="38.9520033" lon="16.7628067"><ele>174.0</ele><time>2026-04-19T11:59:02.51Z</time></trkpt><trkpt lat="38.95205" lon="16.7627233"><ele>174.5</ele><time>2026-04-19T11:59:03.51Z</time></trkpt><trkpt lat="38.9520883" lon="16.7626467"><ele>175.0</ele><time>2026-04-19T11:59:04.511Z</time></trkpt><trkpt lat="38.9521233" lon="16.7625683"><ele>177.16666666666669</ele><time>2026-04-19T11:59:05.51Z</time></trkpt><trkpt lat="38.9521633" lon="16.7624933"><ele>179.33333333333334</ele><time>2026-04-19T11:59:06.51Z</time></trkpt><trkpt lat="38.9521983" lon="16.7624167"><ele>181.5</ele><time>2026-04-19T11:59:07.511Z</time></trkpt><trkpt lat="38.9522633" lon="16.7622867"><ele>183.66666666666666</ele><time>2026-04-19T11:59:09.511Z</time></trkpt><trkpt lat="38.9523017" lon="16.7622117"><ele>185.83333333333331</ele><time>2026-04-19T11:59:10.511Z</time></trkpt><trkpt lat="38.95234" lon="16.7621333"><ele>188.0</ele><time>2026-04-19T11:59:11.51Z</time></trkpt><trkpt lat="38.952375" lon="16.76205"><ele>188.0</ele><time>2026-04-19T11:59:12.51Z</time></trkpt><trkpt lat="38.9524017" lon="16.7619567"><ele>188.0</ele><time>2026-04-19T11:59:13.51Z</time></trkpt><trkpt lat="38.9524117" lon="16.7618583"><ele>188.0</ele><time>2026-04-19T11:59:14.51Z</time></trkpt><trkpt lat="38.9524067" lon="16.7617667"><ele>188.0</ele><time>2026-04-19T11:59:15.51Z</time></trkpt><trkpt lat="38.9523933" lon="16.761685"><ele>188.0</ele><time>2026-04-19T11:59:16.51Z</time></trkpt><trkpt lat="38.9523683" lon="16.76161"><ele>188.0</ele><time>2026-04-19T11:59:17.51Z</time></trkpt><trkpt lat="38.9523383" lon="16.7615367"><ele>188.0</ele><time>2026-04-19T11:59:18.51Z</time></trkpt><trkpt lat="38.9522817" lon="16.7614233"><ele>189.5</ele><time>2026-04-19T11:59:20.51Z</time></trkpt><trkpt lat="38.9522233" lon="16.76133"><ele>191.0</ele><time>2026-04-19T11:59:22.511Z</time></trkpt><trkpt lat="38.952155" lon="16.7612583"><ele>192.5</ele><time>2026-04-19T11:59:24.51Z</time></trkpt><trkpt lat="38.9520933" lon="16.7612233"><ele>194.0</ele><time>2026-04-19T11:59:26.51Z</time></trkpt><trkpt lat="38.9521233" lon="16.7611133"><ele>195.50000000000003</ele><time>2026-04-19T12:05:20.51Z</time></trkpt><trkpt lat="38.952075" lon="16.7612033"><ele>197.0</ele><time>2026-04-19T12:10:53.509Z</time></trkpt><trkpt lat="38.9520233" lon="16.7611367"><ele>197.0</ele><time>2026-04-19T12:13:04.508Z</time></trkpt><trkpt lat="38.9519367" lon="16.7611033"><ele>197.0</ele><time>2026-04-19T12:13:07.509Z</time></trkpt><trkpt lat="38.951865" lon="16.761045"><ele>197.0</ele><time>2026-04-19T12:13:09.509Z</time></trkpt><trkpt lat="38.9517733" lon="16.7609633"><ele>197.0</ele><time>2026-04-19T12:13:11.508Z</time></trkpt><trkpt lat="38.9516783" lon="16.760875"><ele>197.0</ele><time>2026-04-19T12:13:13.509Z</time></trkpt><trkpt lat="38.9516217" lon="16.7607317"><ele>196.6</ele><time>2026-04-19T12:13:15.508Z</time></trkpt><trkpt lat="38.9516117" lon="16.7606383"><ele>196.2</ele><time>2026-04-19T12:13:16.509Z</time></trkpt><trkpt lat="38.9516167" lon="16.7605433"><ele>195.8</ele><time>2026-04-19T12:13:17.508Z</time></trkpt><trkpt lat="38.9516283" lon="16.760455"><ele>195.4</ele><time>2026-04-19T12:13:18.508Z</time></trkpt><trkpt lat="38.95164" lon="16.7602983"><ele>195.0</ele><time>2026-04-19T12:13:20.508Z</time></trkpt><trkpt lat="38.9515817" lon="16.760175"><ele>196.6</ele><time>2026-04-19T12:13:22.508Z</time></trkpt><trkpt lat="38.9514767" lon="16.760115"><ele>198.2</ele><time>2026-04-19T12:13:24.508Z</time></trkpt><trkpt lat="38.9514117" lon="16.7601067"><ele>199.8</ele><time>2026-04-19T12:13:25.508Z</time></trkpt><trkpt lat="38.9512967" lon="16.7601317"><ele>201.4</ele><time>2026-04-19T12:13:27.508Z</time></trkpt><trkpt lat="38.9511883" lon="16.7601667"><ele>203.0</ele><time>2026-04-19T12:13:29.508Z</time></trkpt><trkpt lat="38.9510967" lon="16.7601917"><ele>203.0</ele><time>2026-04-19T12:13:31.509Z</time></trkpt><trkpt lat="38.95101" lon="16.760185"><ele>203.0</ele><time>2026-04-19T12:13:33.508Z</time></trkpt><trkpt lat="38.9509167" lon="16.7601317"><ele>203.0</ele><time>2026-04-19T12:13:35.509Z</time></trkpt><trkpt lat="38.9508333" lon="16.7600367"><ele>203.0</ele><time>2026-04-19T12:13:37.508Z</time></trkpt><trkpt lat="38.9507867" lon="16.75997"><ele>203.0</ele><time>2026-04-19T12:13:38.508Z</time></trkpt><trkpt lat="38.9507283" lon="16.7598933"><ele>201.2</ele><time>2026-04-19T12:13:39.508Z</time></trkpt><trkpt lat="38.95066" lon="16.7598067"><ele>199.4</ele><time>2026-04-19T12:13:40.508Z</time></trkpt><trkpt lat="38.950585" lon="16.7597133"><ele>197.6</ele><time>2026-04-19T12:13:41.508Z</time></trkpt><trkpt lat="38.9505067" lon="16.7596217"><ele>195.79999999999998</ele><time>2026-04-19T12:13:42.508Z</time></trkpt><trkpt lat="38.950425" lon="16.7595317"><ele>194.0</ele><time>2026-04-19T12:13:43.508Z</time></trkpt><trkpt lat="38.950345" lon="16.7594317"><ele>194.00000000000003</ele><time>2026-04-19T12:13:44.509Z</time></trkpt><trkpt lat="38.95027" lon="16.75933"><ele>194.0</ele><time>2026-04-19T12:13:45.508Z</time></trkpt><trkpt lat="38.9501967" lon="16.7592483"><ele>194.0</ele><time>2026-04-19T12:13:46.508Z</time></trkpt><trkpt lat="38.950125" lon="16.7591817"><ele>194.0</ele><time>2026-04-19T12:13:47.508Z</time></trkpt><trkpt lat="38.9500467" lon="16.75914"><ele>194.00000000000003</ele><time>2026-04-19T12:13:48.509Z</time></trkpt><trkpt lat="38.949985" lon="16.7591233"><ele>194.0</ele><time>2026-04-19T12:13:49.509Z</time></trkpt><trkpt lat="38.949865" lon="16.7591733"><ele>194.00000000000003</ele><time>2026-04-19T12:13:51.509Z</time></trkpt><trkpt lat="38.94979" lon="16.75923"><ele>194.0</ele><time>2026-04-19T12:13:52.508Z</time></trkpt><trkpt lat="38.9497117" lon="16.7592983"><ele>194.0</ele><time>2026-04-19T12:13:53.509Z</time></trkpt><trkpt lat="38.9496417" lon="16.7593617"><ele>194.0</ele><time>2026-04-19T12:13:54.508Z</time></trkpt><trkpt lat="38.9495667" lon="16.7594083"><ele>194.00000000000003</ele><time>2026-04-19T12:13:55.508Z</time></trkpt><trkpt lat="38.9494883" lon="16.7594483"><ele>194.0</ele><time>2026-04-19T12:13:56.508Z</time></trkpt><trkpt lat="38.9493967" lon="16.75947"><ele>193.0</ele><time>2026-04-19T12:13:57.508Z</time></trkpt><trkpt lat="38.9493167" lon="16.759465"><ele>192.0</ele><time>2026-04-19T12:13:58.508Z</time></trkpt><trkpt lat="38.94922" lon="16.759435"><ele>191.0</ele><time>2026-04-19T12:14:00.508Z</time></trkpt><trkpt lat="38.9491483" lon="16.759375"><ele>190.0</ele><time>2026-04-19T12:14:02.508Z</time></trkpt><trkpt lat="38.9490617" lon="16.7592517"><ele>189.0</ele><time>2026-04-19T12:14:04.509Z</time></trkpt><trkpt lat="38.9490117" lon="16.7591717"><ele>189.0</ele><time>2026-04-19T12:14:05.508Z</time></trkpt><trkpt lat="38.9489667" lon="16.7591017"><ele>189.0</ele><time>2026-04-19T12:14:06.508Z</time></trkpt><trkpt lat="38.9489233" lon="16.75897"><ele>189.0</ele><time>2026-04-19T12:14:08.509Z</time></trkpt><trkpt lat="38.9489017" lon="16.7588933"><ele>189.0</ele><time>2026-04-19T12:14:10.508Z</time></trkpt><trkpt lat="38.94887" lon="16.758775"><ele>189.0</ele><time>2026-04-19T12:14:13.508Z</time></trkpt><trkpt lat="38.948855" lon="16.7586633"><ele>189.0</ele><time>2026-04-19T12:14:15.508Z</time></trkpt><trkpt lat="38.9487933" lon="16.7585817"><ele>189.0</ele><time>2026-04-19T12:14:17.508Z</time></trkpt><trkpt lat="38.9487317" lon="16.7585483"><ele>189.0</ele><time>2026-04-19T12:14:18.508Z</time></trkpt><trkpt lat="38.948655" lon="16.7585183"><ele>189.0</ele><time>2026-04-19T12:14:19.509Z</time></trkpt><trkpt lat="38.948555" lon="16.7584867"><ele>189.0</ele><time>2026-04-19T12:14:20.509Z</time></trkpt><trkpt lat="38.948435" lon="16.75845"><ele>189.0</ele><time>2026-04-19T12:14:21.509Z</time></trkpt><trkpt lat="38.9483117" lon="16.7584067"><ele>188.75</ele><time>2026-04-19T12:14:22.508Z</time></trkpt><trkpt lat="38.9481933" lon="16.7583683"><ele>188.5</ele><time>2026-04-19T12:14:23.508Z</time></trkpt><trkpt lat="38.9480817" lon="16.75832"><ele>188.25</ele><time>2026-04-19T12:14:24.508Z</time></trkpt><trkpt lat="38.9479683" lon="16.7582717"><ele>188.0</ele><time>2026-04-19T12:14:25.509Z</time></trkpt><trkpt lat="38.9478567" lon="16.758225"><ele>188.0</ele><time>2026-04-19T12:14:26.509Z</time></trkpt><trkpt lat="38.947745" lon="16.75819"><ele>188.0</ele><time>2026-04-19T12:14:27.509Z</time></trkpt><trkpt lat="38.9476333" lon="16.7581567"><ele>188.0</ele><time>2026-04-19T12:14:28.509Z</time></trkpt><trkpt lat="38.9475167" lon="16.7581267"><ele>188.0</ele><time>2026-04-19T12:14:29.508Z</time></trkpt><trkpt lat="38.9473983" lon="16.7580967"><ele>184.25</ele><time>2026-04-19T12:14:30.508Z</time></trkpt><trkpt lat="38.947275" lon="16.7580633"><ele>180.5</ele><time>2026-04-19T12:14:31.508Z</time></trkpt><trkpt lat="38.9471483" lon="16.75803"><ele>176.75</ele><time>2026-04-19T12:14:32.508Z</time></trkpt><trkpt lat="38.9470183" lon="16.7580033"><ele>173.0</ele><time>2026-04-19T12:14:33.508Z</time></trkpt><trkpt lat="38.946895" lon="16.7579783"><ele>173.0</ele><time>2026-04-19T12:14:34.508Z</time></trkpt><trkpt lat="38.9467667" lon="16.75795"><ele>173.0</ele><time>2026-04-19T12:14:35.508Z</time></trkpt><trkpt lat="38.94665" lon="16.7579183"><ele>173.0</ele><time>2026-04-19T12:14:36.509Z</time></trkpt><trkpt lat="38.946545" lon="16.75789"><ele>173.0</ele><time>2026-04-19T12:14:37.508Z</time></trkpt><trkpt lat="38.9464617" lon="16.75785"><ele>173.0</ele><time>2026-04-19T12:14:38.508Z</time></trkpt><trkpt lat="38.9463867" lon="16.757805"><ele>173.5</ele><time>2026-04-19T12:14:39.508Z</time></trkpt><trkpt lat="38.946315" lon="16.7577533"><ele>174.0</ele><time>2026-04-19T12:14:40.509Z</time></trkpt><trkpt lat="38.946245" lon="16.7577033"><ele>174.5</ele><time>2026-04-19T12:14:41.509Z</time></trkpt><trkpt lat="38.94618" lon="16.7576467"><ele>175.0</ele><time>2026-04-19T12:14:42.508Z</time></trkpt><trkpt lat="38.9461083" lon="16.7575767"><ele>175.5</ele><time>2026-04-19T12:14:43.508Z</time></trkpt><trkpt lat="38.94604" lon="16.7575"><ele>176.0</ele><time>2026-04-19T12:14:44.508Z</time></trkpt><trkpt lat="38.94597" lon="16.7574183"><ele>176.0</ele><time>2026-04-19T12:14:45.508Z</time></trkpt><trkpt lat="38.9459033" lon="16.7573417"><ele>176.0</ele><time>2026-04-19T12:14:46.508Z</time></trkpt><trkpt lat="38.9458433" lon="16.7572783"><ele>176.0</ele><time>2026-04-19T12:14:47.508Z</time></trkpt><trkpt lat="38.9457917" lon="16.7572233"><ele>176.0</ele><time>2026-04-19T12:14:48.508Z</time></trkpt><trkpt lat="38.9457017" lon="16.7571317"><ele>176.0</ele><time>2026-04-19T12:14:50.508Z</time></trkpt><trkpt lat="38.945635" lon="16.75704"><ele>176.0</ele><time>2026-04-19T12:14:52.508Z</time></trkpt><trkpt lat="38.9455633" lon="16.7569867"><ele>174.66666666666666</ele><time>2026-04-19T12:14:54.508Z</time></trkpt><trkpt lat="38.9454783" lon="16.756955"><ele>173.33333333333331</ele><time>2026-04-19T12:14:56.509Z</time></trkpt><trkpt lat="38.9453583" lon="16.7569367"><ele>172.0</ele><time>2026-04-19T12:14:58.509Z</time></trkpt><trkpt lat="38.94529" lon="16.756945"><ele>170.66666666666666</ele><time>2026-04-19T12:14:59.508Z</time></trkpt><trkpt lat="38.94522" lon="16.7569567"><ele>169.33333333333334</ele><time>2026-04-19T12:15:00.508Z</time></trkpt><trkpt lat="38.945155" lon="16.75698"><ele>168.0</ele><time>2026-04-19T12:15:01.508Z</time></trkpt><trkpt lat="38.9450883" lon="16.7570117"><ele>168.60000000000002</ele><time>2026-04-19T12:15:02.508Z</time></trkpt><trkpt lat="38.94502" lon="16.7570417"><ele>169.20000000000002</ele><time>2026-04-19T12:15:03.508Z</time></trkpt><trkpt lat="38.94495" lon="16.7570833"><ele>169.8</ele><time>2026-04-19T12:15:04.508Z</time></trkpt><trkpt lat="38.944885" lon="16.7571233"><ele>170.4</ele><time>2026-04-19T12:15:05.508Z</time></trkpt><trkpt lat="38.944775" lon="16.7572033"><ele>171.0</ele><time>2026-04-19T12:15:07.508Z</time></trkpt><trkpt lat="38.944675" lon="16.7573083"><ele>171.0</ele><time>2026-04-19T12:15:09.508Z</time></trkpt><trkpt lat="38.94461" lon="16.7573633"><ele>171.0</ele><time>2026-04-19T12:15:10.508Z</time></trkpt><trkpt lat="38.9445367" lon="16.7574267"><ele>171.0</ele><time>2026-04-19T12:15:11.508Z</time></trkpt><trkpt lat="38.9444533" lon="16.7574883"><ele>171.0</ele><time>2026-04-19T12:15:12.508Z</time></trkpt><trkpt lat="38.9443533" lon="16.75755"><ele>171.0</ele><time>2026-04-19T12:15:13.508Z</time></trkpt><trkpt lat="38.9442483" lon="16.75762"><ele>171.8</ele><time>2026-04-19T12:15:14.508Z</time></trkpt><trkpt lat="38.9441483" lon="16.7576833"><ele>172.60000000000002</ele><time>2026-04-19T12:15:15.509Z</time></trkpt><trkpt lat="38.9440583" lon="16.75775"><ele>173.4</ele><time>2026-04-19T12:15:16.508Z</time></trkpt><trkpt lat="38.943985" lon="16.7578267"><ele>174.2</ele><time>2026-04-19T12:15:17.509Z</time></trkpt><trkpt lat="38.94392" lon="16.7578917"><ele>175.0</ele><time>2026-04-19T12:15:18.508Z</time></trkpt><trkpt lat="38.9438667" lon="16.7579367"><ele>175.0</ele><time>2026-04-19T12:15:19.509Z</time></trkpt><trkpt lat="38.9437767" lon="16.75802"><ele>175.0</ele><time>2026-04-19T12:15:21.508Z</time></trkpt><trkpt lat="38.943675" lon="16.758105"><ele>175.0</ele><time>2026-04-19T12:15:23.508Z</time></trkpt><trkpt lat="38.943555" lon="16.7581817"><ele>175.0</ele><time>2026-04-19T12:15:25.509Z</time></trkpt><trkpt lat="38.94348" lon="16.758205"><ele>175.0</ele><time>2026-04-19T12:15:26.508Z</time></trkpt><trkpt lat="38.9433983" lon="16.7582167"><ele>177.8</ele><time>2026-04-19T12:15:27.508Z</time></trkpt><trkpt lat="38.9433133" lon="16.75823"><ele>180.6</ele><time>2026-04-19T12:15:28.508Z</time></trkpt><trkpt lat="38.9432167" lon="16.75824"><ele>183.39999999999998</ele><time>2026-04-19T12:15:29.508Z</time></trkpt><trkpt lat="38.9431083" lon="16.7582383"><ele>186.2</ele><time>2026-04-19T12:15:30.508Z</time></trkpt><trkpt lat="38.9429967" lon="16.758235"><ele>189.0</ele><time>2026-04-19T12:15:31.508Z</time></trkpt><trkpt lat="38.9428717" lon="16.7582233"><ele>189.0</ele><time>2026-04-19T12:15:32.508Z</time></trkpt><trkpt lat="38.9427517" lon="16.7582133"><ele>189.0</ele><time>2026-04-19T12:15:33.509Z</time></trkpt><trkpt lat="38.9426283" lon="16.7582083"><ele>189.0</ele><time>2026-04-19T12:15:34.508Z</time></trkpt><trkpt lat="38.9425" lon="16.7581983"><ele>189.0</ele><time>2026-04-19T12:15:35.508Z</time></trkpt><trkpt lat="38.9423833" lon="16.7581917"><ele>189.2</ele><time>2026-04-19T12:15:36.508Z</time></trkpt><trkpt lat="38.942275" lon="16.75818"><ele>189.39999999999998</ele><time>2026-04-19T12:15:37.508Z</time></trkpt><trkpt lat="38.9421667" lon="16.7581733"><ele>189.6</ele><time>2026-04-19T12:15:38.508Z</time></trkpt><trkpt lat="38.9420583" lon="16.7581667"><ele>189.8</ele><time>2026-04-19T12:15:39.508Z</time></trkpt><trkpt lat="38.9419483" lon="16.758165"><ele>190.0</ele><time>2026-04-19T12:15:40.509Z</time></trkpt><trkpt lat="38.9418417" lon="16.7581567"><ele>190.0</ele><time>2026-04-19T12:15:41.509Z</time></trkpt><trkpt lat="38.94175" lon="16.7581383"><ele>190.0</ele><time>2026-04-19T12:15:42.508Z</time></trkpt><trkpt lat="38.94167" lon="16.7581083"><ele>190.0</ele><time>2026-04-19T12:15:43.508Z</time></trkpt><trkpt lat="38.9416" lon="16.7580533"><ele>190.0</ele><time>2026-04-19T12:15:44.508Z</time></trkpt><trkpt lat="38.941535" lon="16.7579733"><ele>190.0</ele><time>2026-04-19T12:15:45.508Z</time></trkpt><trkpt lat="38.94149" lon="16.7578667"><ele>190.0</ele><time>2026-04-19T12:15:46.509Z</time></trkpt><trkpt lat="38.94148" lon="16.7577383"><ele>186.25</ele><time>2026-04-19T12:15:47.508Z</time></trkpt><trkpt lat="38.9414833" lon="16.7575983"><ele>182.5</ele><time>2026-04-19T12:15:48.509Z</time></trkpt><trkpt lat="38.9414983" lon="16.757455"><ele>178.75</ele><time>2026-04-19T12:15:49.508Z</time></trkpt><trkpt lat="38.9414967" lon="16.7573033"><ele>175.0</ele><time>2026-04-19T12:15:50.508Z</time></trkpt><trkpt lat="38.9415017" lon="16.757155"><ele>175.0</ele><time>2026-04-19T12:15:51.508Z</time></trkpt><trkpt lat="38.9415133" lon="16.7570067"><ele>175.0</ele><time>2026-04-19T12:15:52.509Z</time></trkpt><trkpt lat="38.9415383" lon="16.7568717"><ele>175.0</ele><time>2026-04-19T12:15:53.508Z</time></trkpt><trkpt lat="38.941565" lon="16.756735"><ele>175.0</ele><time>2026-04-19T12:15:54.509Z</time></trkpt><trkpt lat="38.9415917" lon="16.7566217"><ele>175.0</ele><time>2026-04-19T12:15:55.508Z</time></trkpt><trkpt lat="38.9416033" lon="16.75654"><ele>173.6</ele><time>2026-04-19T12:15:56.508Z</time></trkpt><trkpt lat="38.9416233" lon="16.756405"><ele>172.2</ele><time>2026-04-19T12:15:58.508Z</time></trkpt><trkpt lat="38.9416383" lon="16.7562667"><ele>170.8</ele><time>2026-04-19T12:16:00.509Z</time></trkpt><trkpt lat="38.941615" lon="16.756105"><ele>169.4</ele><time>2026-04-19T12:16:02.508Z</time></trkpt><trkpt lat="38.9415917" lon="16.756015"><ele>168.0</ele><time>2026-04-19T12:16:03.508Z</time></trkpt><trkpt lat="38.94156" lon="16.755925"><ele>167.16666666666666</ele><time>2026-04-19T12:16:04.509Z</time></trkpt><trkpt lat="38.9415133" lon="16.755835"><ele>166.33333333333334</ele><time>2026-04-19T12:16:05.508Z</time></trkpt><trkpt lat="38.941465" lon="16.7557533"><ele>165.5</ele><time>2026-04-19T12:16:06.508Z</time></trkpt><trkpt lat="38.94142" lon="16.7556717"><ele>164.66666666666669</ele><time>2026-04-19T12:16:07.508Z</time></trkpt><trkpt lat="38.94137" lon="16.7556"><ele>163.83333333333334</ele><time>2026-04-19T12:16:08.508Z</time></trkpt><trkpt lat="38.94132" lon="16.755535"><ele>163.0</ele><time>2026-04-19T12:16:09.508Z</time></trkpt><trkpt lat="38.9412667" lon="16.7554683"><ele>163.0</ele><time>2026-04-19T12:16:10.508Z</time></trkpt><trkpt lat="38.9412083" lon="16.755385"><ele>163.0</ele><time>2026-04-19T12:16:11.508Z</time></trkpt><trkpt lat="38.94115" lon="16.755285"><ele>163.0</ele><time>2026-04-19T12:16:12.508Z</time></trkpt><trkpt lat="38.9410833" lon="16.7551833"><ele>163.0</ele><time>2026-04-19T12:16:13.508Z</time></trkpt><trkpt lat="38.94102" lon="16.7550683"><ele>163.0</ele><time>2026-04-19T12:16:14.508Z</time></trkpt><trkpt lat="38.9409583" lon="16.7549583"><ele>161.8</ele><time>2026-04-19T12:16:15.508Z</time></trkpt><trkpt lat="38.940885" lon="16.7548483"><ele>160.60000000000002</ele><time>2026-04-19T12:16:16.508Z</time></trkpt><trkpt lat="38.9408117" lon="16.75474"><ele>159.39999999999998</ele><time>2026-04-19T12:16:17.508Z</time></trkpt><trkpt lat="38.9407383" lon="16.7546317"><ele>158.2</ele><time>2026-04-19T12:16:18.508Z</time></trkpt><trkpt lat="38.9406667" lon="16.754525"><ele>157.0</ele><time>2026-04-19T12:16:19.508Z</time></trkpt><trkpt lat="38.94059" lon="16.7544167"><ele>153.25</ele><time>2026-04-19T12:16:20.508Z</time></trkpt><trkpt lat="38.9404983" lon="16.7543067"><ele>149.5</ele><time>2026-04-19T12:16:21.508Z</time></trkpt><trkpt lat="38.9404033" lon="16.7542033"><ele>145.75</ele><time>2026-04-19T12:16:22.509Z</time></trkpt><trkpt lat="38.9403033" lon="16.7540933"><ele>142.0</ele><time>2026-04-19T12:16:23.508Z</time></trkpt><trkpt lat="38.9402067" lon="16.7539917"><ele>142.0</ele><time>2026-04-19T12:16:24.509Z</time></trkpt><trkpt lat="38.9401017" lon="16.753895"><ele>142.0</ele><time>2026-04-19T12:16:25.509Z</time></trkpt><trkpt lat="38.9399933" lon="16.7537967"><ele>142.0</ele><time>2026-04-19T12:16:26.509Z</time></trkpt><trkpt lat="38.939875" lon="16.753705"><ele>142.0</ele><time>2026-04-19T12:16:27.509Z</time></trkpt><trkpt lat="38.939765" lon="16.7536183"><ele>140.4</ele><time>2026-04-19T12:16:28.509Z</time></trkpt><trkpt lat="38.939655" lon="16.7535183"><ele>138.79999999999998</ele><time>2026-04-19T12:16:29.508Z</time></trkpt><trkpt lat="38.9395533" lon="16.7534383"><ele>137.2</ele><time>2026-04-19T12:16:30.509Z</time></trkpt><trkpt lat="38.9394667" lon="16.7533683"><ele>135.6</ele><time>2026-04-19T12:16:31.508Z</time></trkpt><trkpt lat="38.939405" lon="16.7533033"><ele>134.0</ele><time>2026-04-19T12:16:32.509Z</time></trkpt><trkpt lat="38.9393633" lon="16.75323"><ele>134.0</ele><time>2026-04-19T12:16:33.508Z</time></trkpt><trkpt lat="38.9393483" lon="16.753145"><ele>134.0</ele><time>2026-04-19T12:16:34.508Z</time></trkpt><trkpt lat="38.9393567" lon="16.7530583"><ele>134.0</ele><time>2026-04-19T12:16:35.508Z</time></trkpt><trkpt lat="38.939385" lon="16.75298"><ele>134.0</ele><time>2026-04-19T12:16:36.509Z</time></trkpt><trkpt lat="38.9394333" lon="16.7529183"><ele>134.0</ele><time>2026-04-19T12:16:37.508Z</time></trkpt><trkpt lat="38.9395083" lon="16.7528817"><ele>134.0</ele><time>2026-04-19T12:16:38.508Z</time></trkpt><trkpt lat="38.9395917" lon="16.7528933"><ele>134.0</ele><time>2026-04-19T12:16:39.508Z</time></trkpt><trkpt lat="38.9396667" lon="16.7529683"><ele>134.0</ele><time>2026-04-19T12:16:40.508Z</time></trkpt><trkpt lat="38.9397233" lon="16.75308"><ele>134.0</ele><time>2026-04-19T12:16:41.508Z</time></trkpt><trkpt lat="38.9397783" lon="16.7532017"><ele>134.0</ele><time>2026-04-19T12:16:42.508Z</time></trkpt><trkpt lat="38.9398433" lon="16.7533017"><ele>134.0</ele><time>2026-04-19T12:16:43.508Z</time></trkpt><trkpt lat="38.9399333" lon="16.7533783"><ele>134.0</ele><time>2026-04-19T12:16:44.509Z</time></trkpt><trkpt lat="38.940025" lon="16.7534417"><ele>133.6</ele><time>2026-04-19T12:16:45.508Z</time></trkpt><trkpt lat="38.94012" lon="16.7534833"><ele>133.2</ele><time>2026-04-19T12:16:46.508Z</time></trkpt><trkpt lat="38.9402217" lon="16.75349"><ele>132.79999999999998</ele><time>2026-04-19T12:16:47.508Z</time></trkpt><trkpt lat="38.9403333" lon="16.7534683"><ele>132.4</ele><time>2026-04-19T12:16:48.509Z</time></trkpt><trkpt lat="38.9404433" lon="16.7534233"><ele>132.0</ele><time>2026-04-19T12:16:49.508Z</time></trkpt><trkpt lat="38.940545" lon="16.75334"><ele>132.0</ele><time>2026-04-19T12:16:50.508Z</time></trkpt><trkpt lat="38.940645" lon="16.7532533"><ele>132.0</ele><time>2026-04-19T12:16:51.509Z</time></trkpt><trkpt lat="38.9407283" lon="16.753175"><ele>132.0</ele><time>2026-04-19T12:16:52.508Z</time></trkpt><trkpt lat="38.9407967" lon="16.7531017"><ele>132.0</ele><time>2026-04-19T12:16:53.508Z</time></trkpt><trkpt lat="38.9408567" lon="16.75303"><ele>132.0</ele><time>2026-04-19T12:16:54.508Z</time></trkpt><trkpt lat="38.9408967" lon="16.75295"><ele>132.16666666666666</ele><time>2026-04-19T12:16:55.508Z</time></trkpt><trkpt lat="38.9409267" lon="16.752865"><ele>132.33333333333334</ele><time>2026-04-19T12:16:56.508Z</time></trkpt><trkpt lat="38.940965" lon="16.7527733"><ele>132.5</ele><time>2026-04-19T12:16:57.508Z</time></trkpt><trkpt lat="38.9410133" lon="16.7526783"><ele>132.66666666666669</ele><time>2026-04-19T12:16:58.508Z</time></trkpt><trkpt lat="38.9410683" lon="16.7525883"><ele>132.83333333333334</ele><time>2026-04-19T12:16:59.509Z</time></trkpt><trkpt lat="38.9411217" lon="16.7524967"><ele>133.0</ele><time>2026-04-19T12:17:00.508Z</time></trkpt><trkpt lat="38.9411783" lon="16.752405"><ele>133.0</ele><time>2026-04-19T12:17:01.508Z</time></trkpt><trkpt lat="38.9412417" lon="16.7523233"><ele>133.0</ele><time>2026-04-19T12:17:02.508Z</time></trkpt><trkpt lat="38.9413" lon="16.752245"><ele>133.0</ele><time>2026-04-19T12:17:03.508Z</time></trkpt><trkpt lat="38.9413617" lon="16.7521833"><ele>133.0</ele><time>2026-04-19T12:17:04.508Z</time></trkpt><trkpt lat="38.941425" lon="16.7521283"><ele>133.0</ele><time>2026-04-19T12:17:05.508Z</time></trkpt><trkpt lat="38.94149" lon="16.75209"><ele>133.0</ele><time>2026-04-19T12:17:06.508Z</time></trkpt><trkpt lat="38.94155" lon="16.752045"><ele>133.0</ele><time>2026-04-19T12:17:07.508Z</time></trkpt><trkpt lat="38.94161" lon="16.7519783"><ele>133.0</ele><time>2026-04-19T12:17:08.508Z</time></trkpt><trkpt lat="38.94167" lon="16.7518917"><ele>133.0</ele><time>2026-04-19T12:17:09.508Z</time></trkpt><trkpt lat="38.9417333" lon="16.7517917"><ele>133.0</ele><time>2026-04-19T12:17:10.508Z</time></trkpt><trkpt lat="38.9417933" lon="16.7516967"><ele>133.0</ele><time>2026-04-19T12:17:11.509Z</time></trkpt><trkpt lat="38.9418417" lon="16.7516"><ele>132.8</ele><time>2026-04-19T12:17:12.509Z</time></trkpt><trkpt lat="38.94188" lon="16.7514933"><ele>132.60000000000002</ele><time>2026-04-19T12:17:13.509Z</time></trkpt><trkpt lat="38.9419133" lon="16.75137"><ele>132.39999999999998</ele><time>2026-04-19T12:17:14.509Z</time></trkpt><trkpt lat="38.94195" lon="16.7512317"><ele>132.2</ele><time>2026-04-19T12:17:15.508Z</time></trkpt><trkpt lat="38.9419833" lon="16.7510717"><ele>132.0</ele><time>2026-04-19T12:17:16.508Z</time></trkpt><trkpt lat="38.942" lon="16.7509083"><ele>130.25</ele><time>2026-04-19T12:17:17.509Z</time></trkpt><trkpt lat="38.9420067" lon="16.75074"><ele>128.5</ele><time>2026-04-19T12:17:18.508Z</time></trkpt><trkpt lat="38.94202" lon="16.7505783"><ele>126.75</ele><time>2026-04-19T12:17:19.508Z</time></trkpt><trkpt lat="38.9420267" lon="16.750425"><ele>125.0</ele><time>2026-04-19T12:17:20.508Z</time></trkpt><trkpt lat="38.9420383" lon="16.7502833"><ele>124.25</ele><time>2026-04-19T12:17:21.508Z</time></trkpt><trkpt lat="38.9420517" lon="16.7501433"><ele>123.5</ele><time>2026-04-19T12:17:22.508Z</time></trkpt><trkpt lat="38.9420633" lon="16.7499983"><ele>122.75</ele><time>2026-04-19T12:17:23.508Z</time></trkpt><trkpt lat="38.9420783" lon="16.7498533"><ele>122.0</ele><time>2026-04-19T12:17:24.508Z</time></trkpt><trkpt lat="38.94209" lon="16.7497033"><ele>122.0</ele><time>2026-04-19T12:17:25.508Z</time></trkpt><trkpt lat="38.9421017" lon="16.7495567"><ele>121.99999999999999</ele><time>2026-04-19T12:17:26.509Z</time></trkpt><trkpt lat="38.9421167" lon="16.7494167"><ele>121.99999999999999</ele><time>2026-04-19T12:17:27.509Z</time></trkpt><trkpt lat="38.9421233" lon="16.7492917"><ele>122.0</ele><time>2026-04-19T12:17:28.508Z</time></trkpt><trkpt lat="38.942135" lon="16.7491833"><ele>122.0</ele><time>2026-04-19T12:17:29.508Z</time></trkpt><trkpt lat="38.942145" lon="16.74908"><ele>122.66666666666666</ele><time>2026-04-19T12:17:30.508Z</time></trkpt><trkpt lat="38.942155" lon="16.7489867"><ele>123.33333333333333</ele><time>2026-04-19T12:17:31.508Z</time></trkpt><trkpt lat="38.9421633" lon="16.74889"><ele>124.0</ele><time>2026-04-19T12:17:32.509Z</time></trkpt><trkpt lat="38.9421717" lon="16.748795"><ele>124.66666666666666</ele><time>2026-04-19T12:17:33.508Z</time></trkpt><trkpt lat="38.942185" lon="16.74869"><ele>125.33333333333333</ele><time>2026-04-19T12:17:34.508Z</time></trkpt><trkpt lat="38.942205" lon="16.7485883"><ele>126.0</ele><time>2026-04-19T12:17:35.508Z</time></trkpt><trkpt lat="38.9422267" lon="16.748475"><ele>127.0</ele><time>2026-04-19T12:17:36.508Z</time></trkpt><trkpt lat="38.942245" lon="16.7483617"><ele>128.0</ele><time>2026-04-19T12:17:37.508Z</time></trkpt><trkpt lat="38.9422633" lon="16.7482533"><ele>129.0</ele><time>2026-04-19T12:17:38.509Z</time></trkpt><trkpt lat="38.9422567" lon="16.7481433"><ele>130.0</ele><time>2026-04-19T12:17:39.508Z</time></trkpt><trkpt lat="38.942225" lon="16.7480483"><ele>131.0</ele><time>2026-04-19T12:17:40.508Z</time></trkpt><trkpt lat="38.9421833" lon="16.7479667"><ele>132.0</ele><time>2026-04-19T12:17:41.508Z</time></trkpt><trkpt lat="38.9421317" lon="16.747915"><ele>132.0</ele><time>2026-04-19T12:17:42.508Z</time></trkpt><trkpt lat="38.9420667" lon="16.7478783"><ele>132.0</ele><time>2026-04-19T12:17:43.508Z</time></trkpt><trkpt lat="38.9419883" lon="16.7478433"><ele>132.0</ele><time>2026-04-19T12:17:44.508Z</time></trkpt><trkpt lat="38.9419117" lon="16.7478083"><ele>132.0</ele><time>2026-04-19T12:17:45.508Z</time></trkpt><trkpt lat="38.941845" lon="16.747775"><ele>132.0</ele><time>2026-04-19T12:17:46.508Z</time></trkpt><trkpt lat="38.9417383" lon="16.74771"><ele>132.0</ele><time>2026-04-19T12:17:48.509Z</time></trkpt><trkpt lat="38.94168" lon="16.747585"><ele>132.5</ele><time>2026-04-19T12:17:50.508Z</time></trkpt><trkpt lat="38.9417083" lon="16.747425"><ele>133.0</ele><time>2026-04-19T12:17:52.508Z</time></trkpt><trkpt lat="38.9417517" lon="16.7473617"><ele>133.5</ele><time>2026-04-19T12:17:53.508Z</time></trkpt><trkpt lat="38.9418167" lon="16.747325"><ele>134.0</ele><time>2026-04-19T12:17:54.508Z</time></trkpt><trkpt lat="38.9418917" lon="16.74732"><ele>134.5</ele><time>2026-04-19T12:17:55.508Z</time></trkpt><trkpt lat="38.9419617" lon="16.74734"><ele>135.0</ele><time>2026-04-19T12:17:56.508Z</time></trkpt><trkpt lat="38.942035" lon="16.7473817"><ele>135.33333333333334</ele><time>2026-04-19T12:17:57.508Z</time></trkpt><trkpt lat="38.942105" lon="16.747435"><ele>135.66666666666666</ele><time>2026-04-19T12:17:58.509Z</time></trkpt><trkpt lat="38.9421783" lon="16.7474983"><ele>136.0</ele><time>2026-04-19T12:17:59.508Z</time></trkpt><trkpt lat="38.9422517" lon="16.747555"><ele>136.33333333333331</ele><time>2026-04-19T12:18:00.508Z</time></trkpt><trkpt lat="38.9423267" lon="16.7476067"><ele>136.66666666666666</ele><time>2026-04-19T12:18:01.508Z</time></trkpt><trkpt lat="38.942405" lon="16.74763"><ele>137.0</ele><time>2026-04-19T12:18:02.508Z</time></trkpt><trkpt lat="38.942475" lon="16.7476283"><ele>137.00000000000003</ele><time>2026-04-19T12:18:03.508Z</time></trkpt><trkpt lat="38.94253" lon="16.7475833"><ele>137.0</ele><time>2026-04-19T12:18:04.508Z</time></trkpt><trkpt lat="38.9425667" lon="16.7475133"><ele>137.0</ele><time>2026-04-19T12:18:05.509Z</time></trkpt><trkpt lat="38.9425833" lon="16.7474333"><ele>137.0</ele><time>2026-04-19T12:18:06.508Z</time></trkpt><trkpt lat="38.9425783" lon="16.7473517"><ele>137.0</ele><time>2026-04-19T12:18:07.508Z</time></trkpt><trkpt lat="38.942555" lon="16.7472733"><ele>137.00000000000003</ele><time>2026-04-19T12:18:08.508Z</time></trkpt><trkpt lat="38.9425317" lon="16.7471883"><ele>137.0</ele><time>2026-04-19T12:18:09.508Z</time></trkpt><trkpt lat="38.94251" lon="16.7471"><ele>137.0</ele><time>2026-04-19T12:18:10.508Z</time></trkpt><trkpt lat="38.94249" lon="16.7470067"><ele>137.0</ele><time>2026-04-19T12:18:11.508Z</time></trkpt><trkpt lat="38.9424683" lon="16.7469017"><ele>137.0</ele><time>2026-04-19T12:18:12.508Z</time></trkpt><trkpt lat="38.9424433" lon="16.7467967"><ele>137.0</ele><time>2026-04-19T12:18:13.508Z</time></trkpt><trkpt lat="38.942415" lon="16.7466833"><ele>137.0</ele><time>2026-04-19T12:18:14.508Z</time></trkpt><trkpt lat="38.9423883" lon="16.7465767"><ele>137.0</ele><time>2026-04-19T12:18:15.508Z</time></trkpt><trkpt lat="38.9423667" lon="16.7464717"><ele>138.00000000000003</ele><time>2026-04-19T12:18:16.508Z</time></trkpt><trkpt lat="38.9423533" lon="16.7463667"><ele>139.0</ele><time>2026-04-19T12:18:17.508Z</time></trkpt><trkpt lat="38.9423517" lon="16.7462617"><ele>140.0</ele><time>2026-04-19T12:18:18.508Z</time></trkpt><trkpt lat="38.9423567" lon="16.746165"><ele>141.0</ele><time>2026-04-19T12:18:19.509Z</time></trkpt><trkpt lat="38.9423733" lon="16.746075"><ele>142.0</ele><time>2026-04-19T12:18:20.508Z</time></trkpt><trkpt lat="38.942395" lon="16.7459983"><ele>143.00000000000003</ele><time>2026-04-19T12:18:21.508Z</time></trkpt><trkpt lat="38.9424267" lon="16.745925"><ele>144.0</ele><time>2026-04-19T12:18:22.508Z</time></trkpt><trkpt lat="38.9424717" lon="16.7458633"><ele>145.16666666666666</ele><time>2026-04-19T12:18:23.508Z</time></trkpt><trkpt lat="38.9425233" lon="16.745805"><ele>146.33333333333334</ele><time>2026-04-19T12:18:24.508Z</time></trkpt><trkpt lat="38.9425917" lon="16.745755"><ele>147.5</ele><time>2026-04-19T12:18:25.508Z</time></trkpt><trkpt lat="38.9426667" lon="16.74571"><ele>148.66666666666669</ele><time>2026-04-19T12:18:26.508Z</time></trkpt><trkpt lat="38.94275" lon="16.7456767"><ele>149.83333333333334</ele><time>2026-04-19T12:18:27.509Z</time></trkpt><trkpt lat="38.9428433" lon="16.74565"><ele>151.0</ele><time>2026-04-19T12:18:28.508Z</time></trkpt><trkpt lat="38.942945" lon="16.7456333"><ele>151.0</ele><time>2026-04-19T12:18:29.508Z</time></trkpt><trkpt lat="38.9430517" lon="16.74562"><ele>151.0</ele><time>2026-04-19T12:18:30.508Z</time></trkpt><trkpt lat="38.943155" lon="16.745615"><ele>151.0</ele><time>2026-04-19T12:18:31.508Z</time></trkpt><trkpt lat="38.943235" lon="16.7456083"><ele>151.0</ele><time>2026-04-19T12:18:32.508Z</time></trkpt><trkpt lat="38.9432983" lon="16.7455933"><ele>151.0</ele><time>2026-04-19T12:18:33.508Z</time></trkpt><trkpt lat="38.943355" lon="16.7454967"><ele>151.0</ele><time>2026-04-19T12:18:35.508Z</time></trkpt><trkpt lat="38.9433317" lon="16.7453483"><ele>151.0</ele><time>2026-04-19T12:18:37.508Z</time></trkpt><trkpt lat="38.9432383" lon="16.7452533"><ele>151.0</ele><time>2026-04-19T12:18:39.508Z</time></trkpt><trkpt lat="38.9431133" lon="16.745255"><ele>151.0</ele><time>2026-04-19T12:18:41.508Z</time></trkpt><trkpt lat="38.9430467" lon="16.7452833"><ele>151.0</ele><time>2026-04-19T12:18:42.508Z</time></trkpt><trkpt lat="38.9429733" lon="16.7453117"><ele>151.0</ele><time>2026-04-19T12:18:43.508Z</time></trkpt><trkpt lat="38.9428933" lon="16.7453267"><ele>151.0</ele><time>2026-04-19T12:18:44.508Z</time></trkpt><trkpt lat="38.9428133" lon="16.7453217"><ele>151.0</ele><time>2026-04-19T12:18:45.509Z</time></trkpt><trkpt lat="38.9427467" lon="16.7453133"><ele>151.0</ele><time>2026-04-19T12:18:46.508Z</time></trkpt><trkpt lat="38.942645" lon="16.7452717"><ele>151.0</ele><time>2026-04-19T12:18:48.509Z</time></trkpt><trkpt lat="38.9425717" lon="16.7452133"><ele>151.0</ele><time>2026-04-19T12:18:50.508Z</time></trkpt><trkpt lat="38.9425317" lon="16.7451267"><ele>151.0</ele><time>2026-04-19T12:18:52.508Z</time></trkpt><trkpt lat="38.9425267" lon="16.7449967"><ele>153.8</ele><time>2026-04-19T12:18:54.508Z</time></trkpt><trkpt lat="38.9425867" lon="16.7448733"><ele>156.6</ele><time>2026-04-19T12:18:56.508Z</time></trkpt><trkpt lat="38.94271" lon="16.7448217"><ele>159.4</ele><time>2026-04-19T12:18:58.508Z</time></trkpt><trkpt lat="38.9427817" lon="16.7447933"><ele>162.2</ele><time>2026-04-19T12:18:59.508Z</time></trkpt><trkpt lat="38.942865" lon="16.7447667"><ele>165.0</ele><time>2026-04-19T12:19:00.508Z</time></trkpt><trkpt lat="38.942945" lon="16.7447367"><ele>165.0</ele><time>2026-04-19T12:19:01.509Z</time></trkpt><trkpt lat="38.943025" lon="16.7447033"><ele>165.0</ele><time>2026-04-19T12:19:02.508Z</time></trkpt><trkpt lat="38.943095" lon="16.74468"><ele>165.0</ele><time>2026-04-19T12:19:03.508Z</time></trkpt><trkpt lat="38.9431583" lon="16.7446583"><ele>165.0</ele><time>2026-04-19T12:19:04.508Z</time></trkpt><trkpt lat="38.9432217" lon="16.74464"><ele>165.0</ele><time>2026-04-19T12:19:05.508Z</time></trkpt><trkpt lat="38.9433533" lon="16.7445783"><ele>165.0</ele><time>2026-04-19T12:19:07.508Z</time></trkpt><trkpt lat="38.9434267" lon="16.744535"><ele>165.85714285714286</ele><time>2026-04-19T12:19:08.509Z</time></trkpt><trkpt lat="38.9434917" lon="16.74449"><ele>166.71428571428572</ele><time>2026-04-19T12:19:09.508Z</time></trkpt><trkpt lat="38.94355" lon="16.7444333"><ele>167.57142857142856</ele><time>2026-04-19T12:19:10.508Z</time></trkpt><trkpt lat="38.9436033" lon="16.7443583"><ele>168.42857142857144</ele><time>2026-04-19T12:19:11.508Z</time></trkpt><trkpt lat="38.9436383" lon="16.7442733"><ele>169.28571428571428</ele><time>2026-04-19T12:19:12.508Z</time></trkpt><trkpt lat="38.9436483" lon="16.7441817"><ele>170.14285714285714</ele><time>2026-04-19T12:19:13.508Z</time></trkpt><trkpt lat="38.9436367" lon="16.7440883"><ele>171.0</ele><time>2026-04-19T12:19:14.508Z</time></trkpt><trkpt lat="38.9435967" lon="16.74401"><ele>172.33333333333334</ele><time>2026-04-19T12:19:15.508Z</time></trkpt><trkpt lat="38.9435333" lon="16.7439567"><ele>173.66666666666666</ele><time>2026-04-19T12:19:16.508Z</time></trkpt><trkpt lat="38.943455" lon="16.743925"><ele>175.0</ele><time>2026-04-19T12:19:17.508Z</time></trkpt><trkpt lat="38.9433817" lon="16.743935"><ele>176.33333333333331</ele><time>2026-04-19T12:19:18.508Z</time></trkpt><trkpt lat="38.9433117" lon="16.7439683"><ele>177.66666666666666</ele><time>2026-04-19T12:19:19.508Z</time></trkpt><trkpt lat="38.943245" lon="16.744015"><ele>179.0</ele><time>2026-04-19T12:19:20.508Z</time></trkpt><trkpt lat="38.9431733" lon="16.7440633"><ele>179.2</ele><time>2026-04-19T12:19:21.508Z</time></trkpt><trkpt lat="38.9431017" lon="16.7441233"><ele>179.39999999999998</ele><time>2026-04-19T12:19:22.508Z</time></trkpt><trkpt lat="38.9430233" lon="16.7441867"><ele>179.6</ele><time>2026-04-19T12:19:23.509Z</time></trkpt><trkpt lat="38.9429333" lon="16.744255"><ele>179.8</ele><time>2026-04-19T12:19:24.509Z</time></trkpt><trkpt lat="38.94285" lon="16.74431"><ele>180.0</ele><time>2026-04-19T12:19:25.508Z</time></trkpt><trkpt lat="38.9427683" lon="16.74436"><ele>181.0</ele><time>2026-04-19T12:19:26.508Z</time></trkpt><trkpt lat="38.9426867" lon="16.7443967"><ele>182.0</ele><time>2026-04-19T12:19:27.508Z</time></trkpt><trkpt lat="38.9426017" lon="16.74442"><ele>183.0</ele><time>2026-04-19T12:19:28.508Z</time></trkpt><trkpt lat="38.9425267" lon="16.7444233"><ele>184.0</ele><time>2026-04-19T12:19:29.508Z</time></trkpt><trkpt lat="38.94246" lon="16.7443933"><ele>185.0</ele><time>2026-04-19T12:19:30.509Z</time></trkpt><trkpt lat="38.9424083" lon="16.7443283"><ele>186.0</ele><time>2026-04-19T12:19:31.508Z</time></trkpt><trkpt lat="38.9423617" lon="16.744245"><ele>186.0</ele><time>2026-04-19T12:19:32.509Z</time></trkpt><trkpt lat="38.942335" lon="16.7441533"><ele>186.0</ele><time>2026-04-19T12:19:33.508Z</time></trkpt><trkpt lat="38.9423217" lon="16.7440483"><ele>186.0</ele><time>2026-04-19T12:19:34.508Z</time></trkpt><trkpt lat="38.942315" lon="16.743925"><ele>186.0</ele><time>2026-04-19T12:19:35.508Z</time></trkpt><trkpt lat="38.942315" lon="16.7437883"><ele>186.0</ele><time>2026-04-19T12:19:36.508Z</time></trkpt><trkpt lat="38.9423183" lon="16.743645"><ele>187.8</ele><time>2026-04-19T12:19:37.508Z</time></trkpt><trkpt lat="38.9423183" lon="16.7435067"><ele>189.60000000000002</ele><time>2026-04-19T12:19:38.508Z</time></trkpt><trkpt lat="38.942315" lon="16.7433717"><ele>191.4</ele><time>2026-04-19T12:19:39.508Z</time></trkpt><trkpt lat="38.94231" lon="16.7432533"><ele>193.2</ele><time>2026-04-19T12:19:40.508Z</time></trkpt><trkpt lat="38.94231" lon="16.7431467"><ele>195.0</ele><time>2026-04-19T12:19:41.508Z</time></trkpt><trkpt lat="38.9423083" lon="16.7430617"><ele>195.0</ele><time>2026-04-19T12:19:42.509Z</time></trkpt><trkpt lat="38.9423067" lon="16.7429233"><ele>195.0</ele><time>2026-04-19T12:19:44.508Z</time></trkpt><trkpt lat="38.9422933" lon="16.7427983"><ele>195.0</ele><time>2026-04-19T12:19:46.508Z</time></trkpt><trkpt lat="38.9422283" lon="16.74268"><ele>195.0</ele><time>2026-04-19T12:19:48.508Z</time></trkpt><trkpt lat="38.9421817" lon="16.7426217"><ele>195.0</ele><time>2026-04-19T12:19:49.509Z</time></trkpt><trkpt lat="38.9421333" lon="16.74256"><ele>196.0</ele><time>2026-04-19T12:19:50.508Z</time></trkpt><trkpt lat="38.9420667" lon="16.7424517"><ele>197.0</ele><time>2026-04-19T12:19:52.509Z</time></trkpt><trkpt lat="38.942025" lon="16.7423367"><ele>198.0</ele><time>2026-04-19T12:19:54.508Z</time></trkpt><trkpt lat="38.9420167" lon="16.7421933"><ele>199.0</ele><time>2026-04-19T12:19:56.508Z</time></trkpt><trkpt lat="38.94203" lon="16.742105"><ele>200.0</ele><time>2026-04-19T12:19:57.508Z</time></trkpt><trkpt lat="38.94205" lon="16.7420083"><ele>200.00000000000003</ele><time>2026-04-19T12:19:58.509Z</time></trkpt><trkpt lat="38.9420817" lon="16.74191"><ele>200.0</ele><time>2026-04-19T12:19:59.508Z</time></trkpt><trkpt lat="38.9421133" lon="16.7418117"><ele>200.0</ele><time>2026-04-19T12:20:00.509Z</time></trkpt><trkpt lat="38.942145" lon="16.74172"><ele>200.0</ele><time>2026-04-19T12:20:01.508Z</time></trkpt><trkpt lat="38.94217" lon="16.7416383"><ele>200.00000000000003</ele><time>2026-04-19T12:20:02.508Z</time></trkpt><trkpt lat="38.9421967" lon="16.741565"><ele>200.0</ele><time>2026-04-19T12:20:03.508Z</time></trkpt><trkpt lat="38.942245" lon="16.7414333"><ele>200.83333333333334</ele><time>2026-04-19T12:20:05.508Z</time></trkpt><trkpt lat="38.94228" lon="16.7412717"><ele>201.66666666666669</ele><time>2026-04-19T12:20:07.508Z</time></trkpt><trkpt lat="38.942305" lon="16.741185"><ele>202.5</ele><time>2026-04-19T12:20:08.508Z</time></trkpt><trkpt lat="38.9423383" lon="16.741095"><ele>203.33333333333331</ele><time>2026-04-19T12:20:09.508Z</time></trkpt><trkpt lat="38.9423883" lon="16.7410233"><ele>204.16666666666666</ele><time>2026-04-19T12:20:10.509Z</time></trkpt><trkpt lat="38.9424467" lon="16.7409533"><ele>205.0</ele><time>2026-04-19T12:20:11.508Z</time></trkpt><trkpt lat="38.94251" lon="16.7408783"><ele>205.71428571428572</ele><time>2026-04-19T12:20:12.508Z</time></trkpt><trkpt lat="38.9425617" lon="16.7408117"><ele>206.42857142857142</ele><time>2026-04-19T12:20:13.508Z</time></trkpt><trkpt lat="38.9425917" lon="16.7407267"><ele>207.14285714285714</ele><time>2026-04-19T12:20:14.508Z</time></trkpt><trkpt lat="38.9426083" lon="16.74063"><ele>207.85714285714286</ele><time>2026-04-19T12:20:15.508Z</time></trkpt><trkpt lat="38.942595" lon="16.7405367"><ele>208.57142857142856</ele><time>2026-04-19T12:20:16.508Z</time></trkpt><trkpt lat="38.9425633" lon="16.7404533"><ele>209.28571428571428</ele><time>2026-04-19T12:20:17.508Z</time></trkpt><trkpt lat="38.9425217" lon="16.7403783"><ele>210.0</ele><time>2026-04-19T12:20:18.508Z</time></trkpt><trkpt lat="38.9424617" lon="16.7403117"><ele>210.0</ele><time>2026-04-19T12:20:19.509Z</time></trkpt><trkpt lat="38.94238" lon="16.74025"><ele>210.0</ele><time>2026-04-19T12:20:20.509Z</time></trkpt><trkpt lat="38.9422867" lon="16.7401883"><ele>210.0</ele><time>2026-04-19T12:20:21.509Z</time></trkpt><trkpt lat="38.94219" lon="16.7401267"><ele>210.0</ele><time>2026-04-19T12:20:22.509Z</time></trkpt><trkpt lat="38.9420883" lon="16.740075"><ele>210.0</ele><time>2026-04-19T12:20:23.508Z</time></trkpt><trkpt lat="38.9419933" lon="16.7400433"><ele>211.0</ele><time>2026-04-19T12:20:24.508Z</time></trkpt><trkpt lat="38.941895" lon="16.7400267"><ele>212.0</ele><time>2026-04-19T12:20:25.508Z</time></trkpt><trkpt lat="38.941795" lon="16.7400167"><ele>213.0</ele><time>2026-04-19T12:20:26.509Z</time></trkpt><trkpt lat="38.9417033" lon="16.74"><ele>214.0</ele><time>2026-04-19T12:20:27.508Z</time></trkpt><trkpt lat="38.9416233" lon="16.7399817"><ele>215.0</ele><time>2026-04-19T12:20:28.508Z</time></trkpt><trkpt lat="38.9415717" lon="16.73993"><ele>216.0</ele><time>2026-04-19T12:20:29.507Z</time></trkpt><trkpt lat="38.9415467" lon="16.739845"><ele>216.0</ele><time>2026-04-19T12:20:30.507Z</time></trkpt><trkpt lat="38.94155" lon="16.739735"><ele>216.00000000000003</ele><time>2026-04-19T12:20:31.508Z</time></trkpt><trkpt lat="38.941565" lon="16.7396083"><ele>216.00000000000003</ele><time>2026-04-19T12:20:32.508Z</time></trkpt><trkpt lat="38.94158" lon="16.7394717"><ele>216.0</ele><time>2026-04-19T12:20:33.508Z</time></trkpt><trkpt lat="38.9415767" lon="16.7393417"><ele>216.0</ele><time>2026-04-19T12:20:34.507Z</time></trkpt><trkpt lat="38.941545" lon="16.7392183"><ele>219.0</ele><time>2026-04-19T12:20:35.507Z</time></trkpt><trkpt lat="38.941505" lon="16.7390933"><ele>222.00000000000003</ele><time>2026-04-19T12:20:36.508Z</time></trkpt><trkpt lat="38.9414733" lon="16.7389767"><ele>225.00000000000003</ele><time>2026-04-19T12:20:37.508Z</time></trkpt><trkpt lat="38.9414717" lon="16.73886"><ele>228.0</ele><time>2026-04-19T12:20:38.507Z</time></trkpt><trkpt lat="38.9414917" lon="16.738745"><ele>231.0</ele><time>2026-04-19T12:20:39.507Z</time></trkpt><trkpt lat="38.9415217" lon="16.7386383"><ele>231.4</ele><time>2026-04-19T12:20:40.507Z</time></trkpt><trkpt lat="38.9415667" lon="16.7385367"><ele>231.8</ele><time>2026-04-19T12:20:41.508Z</time></trkpt><trkpt lat="38.9416317" lon="16.73844"><ele>232.20000000000002</ele><time>2026-04-19T12:20:42.508Z</time></trkpt><trkpt lat="38.94171" lon="16.738345"><ele>232.60000000000002</ele><time>2026-04-19T12:20:43.507Z</time></trkpt><trkpt lat="38.9417967" lon="16.7382683"><ele>233.0</ele><time>2026-04-19T12:20:44.507Z</time></trkpt><trkpt lat="38.941875" lon="16.7382033"><ele>234.8</ele><time>2026-04-19T12:20:45.507Z</time></trkpt><trkpt lat="38.9419367" lon="16.73816"><ele>236.60000000000002</ele><time>2026-04-19T12:20:46.507Z</time></trkpt><trkpt lat="38.942015" lon="16.73808"><ele>238.39999999999998</ele><time>2026-04-19T12:20:48.507Z</time></trkpt><trkpt lat="38.9420433" lon="16.737945"><ele>240.2</ele><time>2026-04-19T12:20:50.507Z</time></trkpt><trkpt lat="38.941995" lon="16.737805"><ele>242.0</ele><time>2026-04-19T12:20:52.507Z</time></trkpt><trkpt lat="38.9419433" lon="16.73775"><ele>242.00000000000003</ele><time>2026-04-19T12:20:53.508Z</time></trkpt><trkpt lat="38.9418767" lon="16.7377267"><ele>242.0</ele><time>2026-04-19T12:20:54.507Z</time></trkpt><trkpt lat="38.9418017" lon="16.737745"><ele>242.0</ele><time>2026-04-19T12:20:55.508Z</time></trkpt><trkpt lat="38.94173" lon="16.73778"><ele>242.0</ele><time>2026-04-19T12:20:56.507Z</time></trkpt><trkpt lat="38.9416467" lon="16.7378283"><ele>242.00000000000003</ele><time>2026-04-19T12:20:57.508Z</time></trkpt><trkpt lat="38.9415517" lon="16.7378733"><ele>242.0</ele><time>2026-04-19T12:20:58.508Z</time></trkpt><trkpt lat="38.941465" lon="16.7379183"><ele>241.50000000000003</ele><time>2026-04-19T12:20:59.507Z</time></trkpt><trkpt lat="38.9413833" lon="16.73793"><ele>241.0</ele><time>2026-04-19T12:21:00.508Z</time></trkpt><trkpt lat="38.94131" lon="16.7379167"><ele>240.5</ele><time>2026-04-19T12:21:01.507Z</time></trkpt><trkpt lat="38.941255" lon="16.7378583"><ele>240.0</ele><time>2026-04-19T12:21:02.507Z</time></trkpt><trkpt lat="38.941215" lon="16.73778"><ele>239.50000000000003</ele><time>2026-04-19T12:21:03.507Z</time></trkpt><trkpt lat="38.9411817" lon="16.737675"><ele>239.0</ele><time>2026-04-19T12:21:04.507Z</time></trkpt><trkpt lat="38.9411433" lon="16.73756"><ele>239.00000000000003</ele><time>2026-04-19T12:21:05.508Z</time></trkpt><trkpt lat="38.94111" lon="16.7374483"><ele>239.0</ele><time>2026-04-19T12:21:06.507Z</time></trkpt><trkpt lat="38.9410617" lon="16.73736"><ele>239.0</ele><time>2026-04-19T12:21:07.508Z</time></trkpt><trkpt lat="38.941005" lon="16.7372883"><ele>239.0</ele><time>2026-04-19T12:21:08.507Z</time></trkpt><trkpt lat="38.9409367" lon="16.737235"><ele>239.00000000000003</ele><time>2026-04-19T12:21:09.507Z</time></trkpt><trkpt lat="38.9408567" lon="16.7372033"><ele>239.0</ele><time>2026-04-19T12:21:10.507Z</time></trkpt><trkpt lat="38.9407567" lon="16.7371883"><ele>237.66666666666669</ele><time>2026-04-19T12:21:11.507Z</time></trkpt><trkpt lat="38.9406617" lon="16.7371767"><ele>236.33333333333334</ele><time>2026-04-19T12:21:12.507Z</time></trkpt><trkpt lat="38.940565" lon="16.7371617"><ele>235.0</ele><time>2026-04-19T12:21:13.508Z</time></trkpt><trkpt lat="38.9404917" lon="16.73716"><ele>233.66666666666669</ele><time>2026-04-19T12:21:14.507Z</time></trkpt><trkpt lat="38.9404217" lon="16.7371883"><ele>232.33333333333334</ele><time>2026-04-19T12:21:15.507Z</time></trkpt><trkpt lat="38.9403583" lon="16.7372383"><ele>231.0</ele><time>2026-04-19T12:21:16.507Z</time></trkpt><trkpt lat="38.9403067" lon="16.7373167"><ele>231.0</ele><time>2026-04-19T12:21:17.507Z</time></trkpt><trkpt lat="38.9402667" lon="16.7374133"><ele>231.0</ele><time>2026-04-19T12:21:18.507Z</time></trkpt><trkpt lat="38.94024" lon="16.7375067"><ele>231.0</ele><time>2026-04-19T12:21:19.507Z</time></trkpt><trkpt lat="38.9402117" lon="16.737595"><ele>231.0</ele><time>2026-04-19T12:21:20.507Z</time></trkpt><trkpt lat="38.940175" lon="16.7376817"><ele>231.0</ele><time>2026-04-19T12:21:21.507Z</time></trkpt><trkpt lat="38.9401217" lon="16.7377567"><ele>231.0</ele><time>2026-04-19T12:21:22.507Z</time></trkpt><trkpt lat="38.94005" lon="16.737835"><ele>229.4</ele><time>2026-04-19T12:21:23.507Z</time></trkpt><trkpt lat="38.9399733" lon="16.737915"><ele>227.8</ele><time>2026-04-19T12:21:24.507Z</time></trkpt><trkpt lat="38.9399067" lon="16.738"><ele>226.20000000000002</ele><time>2026-04-19T12:21:25.507Z</time></trkpt><trkpt lat="38.9398433" lon="16.7380983"><ele>224.60000000000002</ele><time>2026-04-19T12:21:26.507Z</time></trkpt><trkpt lat="38.9397733" lon="16.7381983"><ele>223.0</ele><time>2026-04-19T12:21:27.507Z</time></trkpt><trkpt lat="38.9397117" lon="16.73829"><ele>223.0</ele><time>2026-04-19T12:21:28.507Z</time></trkpt><trkpt lat="38.9396367" lon="16.738375"><ele>223.0</ele><time>2026-04-19T12:21:29.507Z</time></trkpt><trkpt lat="38.9395667" lon="16.7384417"><ele>223.0</ele><time>2026-04-19T12:21:30.507Z</time></trkpt><trkpt lat="38.93949" lon="16.7385017"><ele>223.0</ele><time>2026-04-19T12:21:31.508Z</time></trkpt><trkpt lat="38.9394" lon="16.7385517"><ele>223.0</ele><time>2026-04-19T12:21:32.507Z</time></trkpt><trkpt lat="38.9392967" lon="16.7385983"><ele>222.60000000000002</ele><time>2026-04-19T12:21:33.507Z</time></trkpt><trkpt lat="38.9391867" lon="16.7386333"><ele>222.20000000000002</ele><time>2026-04-19T12:21:34.507Z</time></trkpt><trkpt lat="38.9390833" lon="16.7386667"><ele>221.8</ele><time>2026-04-19T12:21:35.507Z</time></trkpt><trkpt lat="38.9389867" lon="16.738695"><ele>221.4</ele><time>2026-04-19T12:21:36.507Z</time></trkpt><trkpt lat="38.9389" lon="16.7387383"><ele>221.0</ele><time>2026-04-19T12:21:37.507Z</time></trkpt><trkpt lat="38.9388133" lon="16.738785"><ele>221.00000000000003</ele><time>2026-04-19T12:21:38.507Z</time></trkpt><trkpt lat="38.9387333" lon="16.7388317"><ele>221.0</ele><time>2026-04-19T12:21:39.507Z</time></trkpt><trkpt lat="38.9386617" lon="16.7388767"><ele>221.0</ele><time>2026-04-19T12:21:40.507Z</time></trkpt><trkpt lat="38.938585" lon="16.7389417"><ele>221.0</ele><time>2026-04-19T12:21:41.507Z</time></trkpt><trkpt lat="38.9385067" lon="16.73901"><ele>221.00000000000003</ele><time>2026-04-19T12:21:42.508Z</time></trkpt><trkpt lat="38.9384383" lon="16.7390733"><ele>221.0</ele><time>2026-04-19T12:21:43.508Z</time></trkpt><trkpt lat="38.9383583" lon="16.7391267"><ele>219.60000000000002</ele><time>2026-04-19T12:21:44.507Z</time></trkpt><trkpt lat="38.93827" lon="16.7391683"><ele>218.20000000000002</ele><time>2026-04-19T12:21:45.507Z</time></trkpt><trkpt lat="38.9381767" lon="16.739195"><ele>216.79999999999998</ele><time>2026-04-19T12:21:46.508Z</time></trkpt><trkpt lat="38.9380717" lon="16.739215"><ele>215.39999999999998</ele><time>2026-04-19T12:21:47.507Z</time></trkpt><trkpt lat="38.9379633" lon="16.739215"><ele>214.0</ele><time>2026-04-19T12:21:48.507Z</time></trkpt><trkpt lat="38.9378567" lon="16.739205"><ele>213.99999999999997</ele><time>2026-04-19T12:21:49.507Z</time></trkpt><trkpt lat="38.937755" lon="16.7391933"><ele>214.0</ele><time>2026-04-19T12:21:50.508Z</time></trkpt><trkpt lat="38.9376567" lon="16.73918"><ele>214.0</ele><time>2026-04-19T12:21:51.507Z</time></trkpt><trkpt lat="38.93757" lon="16.7391617"><ele>214.0</ele><time>2026-04-19T12:21:52.507Z</time></trkpt><trkpt lat="38.9374933" lon="16.73914"><ele>213.99999999999997</ele><time>2026-04-19T12:21:53.508Z</time></trkpt><trkpt lat="38.9374267" lon="16.7391117"><ele>214.0</ele><time>2026-04-19T12:21:54.507Z</time></trkpt><trkpt lat="38.93736" lon="16.739065"><ele>212.33333333333331</ele><time>2026-04-19T12:21:55.507Z</time></trkpt><trkpt lat="38.9372833" lon="16.7390017"><ele>210.66666666666666</ele><time>2026-04-19T12:21:56.508Z</time></trkpt><trkpt lat="38.9372017" lon="16.7389283"><ele>209.0</ele><time>2026-04-19T12:21:57.507Z</time></trkpt><trkpt lat="38.9371233" lon="16.7388567"><ele>207.33333333333331</ele><time>2026-04-19T12:21:58.508Z</time></trkpt><trkpt lat="38.9370633" lon="16.73878"><ele>205.66666666666666</ele><time>2026-04-19T12:21:59.507Z</time></trkpt><trkpt lat="38.9370017" lon="16.73873"><ele>204.0</ele><time>2026-04-19T12:22:00.507Z</time></trkpt><trkpt lat="38.9369383" lon="16.7386983"><ele>204.0</ele><time>2026-04-19T12:22:01.507Z</time></trkpt><trkpt lat="38.936825" lon="16.738705"><ele>204.0</ele><time>2026-04-19T12:22:03.507Z</time></trkpt><trkpt lat="38.936765" lon="16.7387467"><ele>204.0</ele><time>2026-04-19T12:22:04.508Z</time></trkpt><trkpt lat="38.9367133" lon="16.738805"><ele>204.0</ele><time>2026-04-19T12:22:05.507Z</time></trkpt><trkpt lat="38.93668" lon="16.7388783"><ele>204.0</ele><time>2026-04-19T12:22:06.507Z</time></trkpt><trkpt lat="38.93666" lon="16.738965"><ele>204.0</ele><time>2026-04-19T12:22:07.507Z</time></trkpt><trkpt lat="38.936655" lon="16.7390733"><ele>203.5</ele><time>2026-04-19T12:22:08.507Z</time></trkpt><trkpt lat="38.9366667" lon="16.7391967"><ele>203.0</ele><time>2026-04-19T12:22:09.507Z</time></trkpt><trkpt lat="38.9366917" lon="16.7393167"><ele>202.5</ele><time>2026-04-19T12:22:10.508Z</time></trkpt><trkpt lat="38.936725" lon="16.73943"><ele>202.0</ele><time>2026-04-19T12:22:11.507Z</time></trkpt><trkpt lat="38.9367517" lon="16.739535"><ele>201.5</ele><time>2026-04-19T12:22:12.508Z</time></trkpt><trkpt lat="38.9367667" lon="16.73963"><ele>201.0</ele><time>2026-04-19T12:22:13.507Z</time></trkpt><trkpt lat="38.9367733" lon="16.7397117"><ele>201.0</ele><time>2026-04-19T12:22:14.507Z</time></trkpt><trkpt lat="38.93676" lon="16.7397917"><ele>201.0</ele><time>2026-04-19T12:22:15.507Z</time></trkpt><trkpt lat="38.9366783" lon="16.7398867"><ele>201.0</ele><time>2026-04-19T12:22:17.507Z</time></trkpt><trkpt lat="38.93657" lon="16.7398783"><ele>201.0</ele><time>2026-04-19T12:22:19.507Z</time></trkpt><trkpt lat="38.9365217" lon="16.7397767"><ele>201.0</ele><time>2026-04-19T12:22:21.508Z</time></trkpt><trkpt lat="38.9365233" lon="16.7396933"><ele>201.0</ele><time>2026-04-19T12:22:22.507Z</time></trkpt><trkpt lat="38.9365267" lon="16.739595"><ele>199.0</ele><time>2026-04-19T12:22:23.507Z</time></trkpt><trkpt lat="38.936535" lon="16.7394783"><ele>197.0</ele><time>2026-04-19T12:22:24.507Z</time></trkpt><trkpt lat="38.9365317" lon="16.739355"><ele>195.0</ele><time>2026-04-19T12:22:25.507Z</time></trkpt><trkpt lat="38.93652" lon="16.7392283"><ele>193.0</ele><time>2026-04-19T12:22:26.508Z</time></trkpt><trkpt lat="38.936495" lon="16.7391"><ele>191.0</ele><time>2026-04-19T12:22:27.507Z</time></trkpt><trkpt lat="38.93647" lon="16.73898"><ele>191.0</ele><time>2026-04-19T12:22:28.507Z</time></trkpt><trkpt lat="38.93645" lon="16.7388733"><ele>191.0</ele><time>2026-04-19T12:22:29.507Z</time></trkpt><trkpt lat="38.93645" lon="16.73878"><ele>191.0</ele><time>2026-04-19T12:22:30.507Z</time></trkpt><trkpt lat="38.9364633" lon="16.7386883"><ele>191.0</ele><time>2026-04-19T12:22:31.507Z</time></trkpt><trkpt lat="38.9365283" lon="16.7385533"><ele>191.0</ele><time>2026-04-19T12:22:33.507Z</time></trkpt><trkpt lat="38.9365767" lon="16.73849"><ele>191.0</ele><time>2026-04-19T12:22:34.508Z</time></trkpt><trkpt lat="38.9366233" lon="16.7384283"><ele>189.83333333333331</ele><time>2026-04-19T12:22:35.507Z</time></trkpt><trkpt lat="38.9366817" lon="16.73836"><ele>188.66666666666666</ele><time>2026-04-19T12:22:36.507Z</time></trkpt><trkpt lat="38.9367417" lon="16.7383067"><ele>187.5</ele><time>2026-04-19T12:22:37.508Z</time></trkpt><trkpt lat="38.9368083" lon="16.7382517"><ele>186.33333333333334</ele><time>2026-04-19T12:22:38.507Z</time></trkpt><trkpt lat="38.93689" lon="16.7382017"><ele>185.16666666666669</ele><time>2026-04-19T12:22:39.507Z</time></trkpt><trkpt lat="38.93698" lon="16.7381583"><ele>184.0</ele><time>2026-04-19T12:22:40.507Z</time></trkpt><trkpt lat="38.937075" lon="16.73812"><ele>184.0</ele><time>2026-04-19T12:22:41.507Z</time></trkpt><trkpt lat="38.9371767" lon="16.73808"><ele>184.0</ele><time>2026-04-19T12:22:42.507Z</time></trkpt><trkpt lat="38.9372733" lon="16.738045"><ele>184.0</ele><time>2026-04-19T12:22:43.507Z</time></trkpt><trkpt lat="38.937365" lon="16.7380033"><ele>184.0</ele><time>2026-04-19T12:22:44.507Z</time></trkpt><trkpt lat="38.9374483" lon="16.73796"><ele>184.0</ele><time>2026-04-19T12:22:45.507Z</time></trkpt><trkpt lat="38.9375333" lon="16.7379167"><ele>185.33333333333334</ele><time>2026-04-19T12:22:46.507Z</time></trkpt><trkpt lat="38.937615" lon="16.7378567"><ele>186.66666666666669</ele><time>2026-04-19T12:22:47.507Z</time></trkpt><trkpt lat="38.93769" lon="16.7377933"><ele>188.0</ele><time>2026-04-19T12:22:48.507Z</time></trkpt><trkpt lat="38.9377683" lon="16.7377417"><ele>189.33333333333334</ele><time>2026-04-19T12:22:49.507Z</time></trkpt><trkpt lat="38.9378483" lon="16.7377133"><ele>190.66666666666666</ele><time>2026-04-19T12:22:50.507Z</time></trkpt><trkpt lat="38.9379233" lon="16.7376883"><ele>192.0</ele><time>2026-04-19T12:22:51.508Z</time></trkpt><trkpt lat="38.9379883" lon="16.7376533"><ele>189.16666666666666</ele><time>2026-04-19T12:22:52.507Z</time></trkpt><trkpt lat="38.93805" lon="16.7375333"><ele>186.33333333333334</ele><time>2026-04-19T12:22:54.507Z</time></trkpt><trkpt lat="38.9380433" lon="16.7374467"><ele>183.5</ele><time>2026-04-19T12:22:55.507Z</time></trkpt><trkpt lat="38.938005" lon="16.73736"><ele>180.66666666666669</ele><time>2026-04-19T12:22:56.507Z</time></trkpt><trkpt lat="38.9379533" lon="16.7372867"><ele>177.83333333333334</ele><time>2026-04-19T12:22:57.507Z</time></trkpt><trkpt lat="38.9378717" lon="16.7372233"><ele>175.0</ele><time>2026-04-19T12:22:58.507Z</time></trkpt><trkpt lat="38.937775" lon="16.7371883"><ele>175.0</ele><time>2026-04-19T12:22:59.507Z</time></trkpt><trkpt lat="38.93767" lon="16.737165"><ele>175.0</ele><time>2026-04-19T12:23:00.507Z</time></trkpt><trkpt lat="38.93756" lon="16.7371367"><ele>175.0</ele><time>2026-04-19T12:23:01.507Z</time></trkpt><trkpt lat="38.93745" lon="16.737095"><ele>175.0</ele><time>2026-04-19T12:23:02.507Z</time></trkpt><trkpt lat="38.93734" lon="16.737055"><ele>175.0</ele><time>2026-04-19T12:23:03.507Z</time></trkpt><trkpt lat="38.937235" lon="16.7370167"><ele>173.6</ele><time>2026-04-19T12:23:04.507Z</time></trkpt><trkpt lat="38.9371317" lon="16.736985"><ele>172.2</ele><time>2026-04-19T12:23:05.507Z</time></trkpt><trkpt lat="38.9370317" lon="16.73695"><ele>170.8</ele><time>2026-04-19T12:23:06.507Z</time></trkpt><trkpt lat="38.936935" lon="16.73692"><ele>169.4</ele><time>2026-04-19T12:23:07.508Z</time></trkpt><trkpt lat="38.9368483" lon="16.7369083"><ele>168.0</ele><time>2026-04-19T12:23:08.508Z</time></trkpt><trkpt lat="38.9367667" lon="16.7369117"><ele>167.0</ele><time>2026-04-19T12:23:09.507Z</time></trkpt><trkpt lat="38.9366783" lon="16.7369383"><ele>166.0</ele><time>2026-04-19T12:23:10.508Z</time></trkpt><trkpt lat="38.9365917" lon="16.7369883"><ele>165.0</ele><time>2026-04-19T12:23:11.508Z</time></trkpt><trkpt lat="38.9365033" lon="16.7370567"><ele>164.0</ele><time>2026-04-19T12:23:12.507Z</time></trkpt><trkpt lat="38.9364167" lon="16.7371333"><ele>163.0</ele><time>2026-04-19T12:23:13.507Z</time></trkpt><trkpt lat="38.936335" lon="16.7372133"><ele>163.0</ele><time>2026-04-19T12:23:14.507Z</time></trkpt><trkpt lat="38.9362533" lon="16.7372783"><ele>163.0</ele><time>2026-04-19T12:23:15.507Z</time></trkpt><trkpt lat="38.9361683" lon="16.7373283"><ele>163.0</ele><time>2026-04-19T12:23:16.507Z</time></trkpt><trkpt lat="38.93608" lon="16.7373533"><ele>163.0</ele><time>2026-04-19T12:23:17.508Z</time></trkpt><trkpt lat="38.9359817" lon="16.7373783"><ele>163.0</ele><time>2026-04-19T12:23:18.508Z</time></trkpt><trkpt lat="38.935885" lon="16.7373883"><ele>160.66666666666669</ele><time>2026-04-19T12:23:19.508Z</time></trkpt><trkpt lat="38.9357883" lon="16.7373983"><ele>158.33333333333334</ele><time>2026-04-19T12:23:20.507Z</time></trkpt><trkpt lat="38.9357" lon="16.7374133"><ele>156.0</ele><time>2026-04-19T12:23:21.507Z</time></trkpt><trkpt lat="38.93563" lon="16.7374083"><ele>153.66666666666666</ele><time>2026-04-19T12:23:22.507Z</time></trkpt><trkpt lat="38.9355333" lon="16.7373433"><ele>151.33333333333331</ele><time>2026-04-19T12:23:24.508Z</time></trkpt><trkpt lat="38.9355067" lon="16.7372667"><ele>149.0</ele><time>2026-04-19T12:23:25.507Z</time></trkpt><trkpt lat="38.935505" lon="16.7371583"><ele>149.0</ele><time>2026-04-19T12:23:26.508Z</time></trkpt><trkpt lat="38.9355217" lon="16.7370383"><ele>149.0</ele><time>2026-04-19T12:23:27.507Z</time></trkpt><trkpt lat="38.9355367" lon="16.73691"><ele>149.0</ele><time>2026-04-19T12:23:28.507Z</time></trkpt><trkpt lat="38.9355517" lon="16.736785"><ele>149.0</ele><time>2026-04-19T12:23:29.507Z</time></trkpt><trkpt lat="38.935565" lon="16.736675"><ele>149.0</ele><time>2026-04-19T12:23:30.507Z</time></trkpt><trkpt lat="38.9355633" lon="16.7365783"><ele>147.5</ele><time>2026-04-19T12:23:31.507Z</time></trkpt><trkpt lat="38.9355467" lon="16.73649"><ele>146.0</ele><time>2026-04-19T12:23:32.507Z</time></trkpt><trkpt lat="38.9355167" lon="16.7364067"><ele>144.5</ele><time>2026-04-19T12:23:33.508Z</time></trkpt><trkpt lat="38.9354617" lon="16.736335"><ele>143.0</ele><time>2026-04-19T12:23:34.507Z</time></trkpt><trkpt lat="38.935375" lon="16.7362783"><ele>141.5</ele><time>2026-04-19T12:23:35.507Z</time></trkpt><trkpt lat="38.93526" lon="16.7362367"><ele>140.0</ele><time>2026-04-19T12:23:36.507Z</time></trkpt><trkpt lat="38.9351433" lon="16.736205"><ele>137.0</ele><time>2026-04-19T12:23:37.508Z</time></trkpt><trkpt lat="38.9350217" lon="16.7361783"><ele>134.0</ele><time>2026-04-19T12:23:38.507Z</time></trkpt><trkpt lat="38.934905" lon="16.73615"><ele>131.0</ele><time>2026-04-19T12:23:39.507Z</time></trkpt><trkpt lat="38.9347867" lon="16.7361067"><ele>128.0</ele><time>2026-04-19T12:23:40.507Z</time></trkpt><trkpt lat="38.9346717" lon="16.7360667"><ele>127.33333333333333</ele><time>2026-04-19T12:23:41.507Z</time></trkpt><trkpt lat="38.9345733" lon="16.736035"><ele>126.66666666666666</ele><time>2026-04-19T12:23:42.507Z</time></trkpt><trkpt lat="38.9344983" lon="16.7359983"><ele>126.0</ele><time>2026-04-19T12:23:43.507Z</time></trkpt><trkpt lat="38.934435" lon="16.7359383"><ele>125.33333333333334</ele><time>2026-04-19T12:23:44.507Z</time></trkpt><trkpt lat="38.9343833" lon="16.7358533"><ele>124.66666666666667</ele><time>2026-04-19T12:23:45.507Z</time></trkpt><trkpt lat="38.9343333" lon="16.7357417"><ele>124.0</ele><time>2026-04-19T12:23:46.507Z</time></trkpt><trkpt lat="38.93428" lon="16.7356183"><ele>124.0</ele><time>2026-04-19T12:23:47.507Z</time></trkpt><trkpt lat="38.9342283" lon="16.7354933"><ele>124.0</ele><time>2026-04-19T12:23:48.507Z</time></trkpt><trkpt lat="38.9341867" lon="16.7353817"><ele>124.0</ele><time>2026-04-19T12:23:49.507Z</time></trkpt><trkpt lat="38.9341517" lon="16.7352933"><ele>124.0</ele><time>2026-04-19T12:23:50.508Z</time></trkpt><trkpt lat="38.9341267" lon="16.7352083"><ele>124.0</ele><time>2026-04-19T12:23:51.508Z</time></trkpt><trkpt lat="38.9341533" lon="16.73505"><ele>122.6</ele><time>2026-04-19T12:23:53.507Z</time></trkpt><trkpt lat="38.934205" lon="16.7349867"><ele>121.2</ele><time>2026-04-19T12:23:54.507Z</time></trkpt><trkpt lat="38.9342817" lon="16.7349517"><ele>119.79999999999998</ele><time>2026-04-19T12:23:55.507Z</time></trkpt><trkpt lat="38.9343767" lon="16.7349267"><ele>118.39999999999999</ele><time>2026-04-19T12:23:56.507Z</time></trkpt><trkpt lat="38.934485" lon="16.7349217"><ele>117.0</ele><time>2026-04-19T12:23:57.507Z</time></trkpt><trkpt lat="38.9345917" lon="16.7349217"><ele>117.0</ele><time>2026-04-19T12:23:58.507Z</time></trkpt><trkpt lat="38.9346867" lon="16.7349183"><ele>117.0</ele><time>2026-04-19T12:23:59.507Z</time></trkpt><trkpt lat="38.9347617" lon="16.734915"><ele>117.0</ele><time>2026-04-19T12:24:00.507Z</time></trkpt><trkpt lat="38.93483" lon="16.734885"><ele>117.0</ele><time>2026-04-19T12:24:01.507Z</time></trkpt><trkpt lat="38.934895" lon="16.7348533"><ele>117.0</ele><time>2026-04-19T12:24:02.508Z</time></trkpt><trkpt lat="38.9349717" lon="16.7347367"><ele>117.0</ele><time>2026-04-19T12:24:04.507Z</time></trkpt><trkpt lat="38.9349733" lon="16.73465"><ele>117.0</ele><time>2026-04-19T12:24:05.507Z</time></trkpt><trkpt lat="38.9349583" lon="16.73456"><ele>117.0</ele><time>2026-04-19T12:24:06.507Z</time></trkpt><trkpt lat="38.934925" lon="16.7344517"><ele>117.0</ele><time>2026-04-19T12:24:07.507Z</time></trkpt><trkpt lat="38.93489" lon="16.7343317"><ele>117.0</ele><time>2026-04-19T12:24:08.507Z</time></trkpt><trkpt lat="38.9348467" lon="16.7342283"><ele>117.0</ele><time>2026-04-19T12:24:09.507Z</time></trkpt><trkpt lat="38.934795" lon="16.73413"><ele>117.0</ele><time>2026-04-19T12:24:10.507Z</time></trkpt><trkpt lat="38.9347283" lon="16.734045"><ele>115.19999999999999</ele><time>2026-04-19T12:24:11.507Z</time></trkpt><trkpt lat="38.93465" lon="16.73398"><ele>113.39999999999999</ele><time>2026-04-19T12:24:12.507Z</time></trkpt><trkpt lat="38.934565" lon="16.7339133"><ele>111.60000000000001</ele><time>2026-04-19T12:24:13.507Z</time></trkpt><trkpt lat="38.934475" lon="16.7338417"><ele>109.80000000000001</ele><time>2026-04-19T12:24:14.507Z</time></trkpt><trkpt lat="38.93439" lon="16.7337783"><ele>108.0</ele><time>2026-04-19T12:24:15.508Z</time></trkpt><trkpt lat="38.9343083" lon="16.7337217"><ele>107.60000000000001</ele><time>2026-04-19T12:24:16.507Z</time></trkpt><trkpt lat="38.9342167" lon="16.7336883"><ele>107.20000000000002</ele><time>2026-04-19T12:24:17.507Z</time></trkpt><trkpt lat="38.93412" lon="16.73367"><ele>106.8</ele><time>2026-04-19T12:24:18.508Z</time></trkpt><trkpt lat="38.9340217" lon="16.7336617"><ele>106.4</ele><time>2026-04-19T12:24:19.507Z</time></trkpt><trkpt lat="38.9339283" lon="16.7336633"><ele>106.0</ele><time>2026-04-19T12:24:20.507Z</time></trkpt><trkpt lat="38.9338333" lon="16.733675"><ele>106.0</ele><time>2026-04-19T12:24:21.508Z</time></trkpt><trkpt lat="38.9337333" lon="16.7337"><ele>106.0</ele><time>2026-04-19T12:24:22.508Z</time></trkpt><trkpt lat="38.9336267" lon="16.73373"><ele>106.0</ele><time>2026-04-19T12:24:23.507Z</time></trkpt><trkpt lat="38.933525" lon="16.7337767"><ele>106.0</ele><time>2026-04-19T12:24:24.507Z</time></trkpt><trkpt lat="38.93342" lon="16.73383"><ele>106.0</ele><time>2026-04-19T12:24:25.507Z</time></trkpt><trkpt lat="38.9333067" lon="16.73388"><ele>104.8</ele><time>2026-04-19T12:24:26.507Z</time></trkpt><trkpt lat="38.933205" lon="16.7339267"><ele>103.6</ele><time>2026-04-19T12:24:27.507Z</time></trkpt><trkpt lat="38.9331133" lon="16.7339567"><ele>102.4</ele><time>2026-04-19T12:24:28.507Z</time></trkpt><trkpt lat="38.93302" lon="16.73397"><ele>101.2</ele><time>2026-04-19T12:24:29.507Z</time></trkpt><trkpt lat="38.93293" lon="16.7339567"><ele>100.0</ele><time>2026-04-19T12:24:30.507Z</time></trkpt><trkpt lat="38.9328433" lon="16.7339183"><ele>100.0</ele><time>2026-04-19T12:24:31.507Z</time></trkpt><trkpt lat="38.932755" lon="16.7338533"><ele>100.0</ele><time>2026-04-19T12:24:32.507Z</time></trkpt><trkpt lat="38.9326767" lon="16.7337433"><ele>100.0</ele><time>2026-04-19T12:24:33.507Z</time></trkpt><trkpt lat="38.9326033" lon="16.73362"><ele>100.0</ele><time>2026-04-19T12:24:34.507Z</time></trkpt><trkpt lat="38.9325283" lon="16.73348"><ele>97.75</ele><time>2026-04-19T12:24:35.508Z</time></trkpt><trkpt lat="38.9324417" lon="16.7333333"><ele>95.5</ele><time>2026-04-19T12:24:36.508Z</time></trkpt><trkpt lat="38.9323483" lon="16.7331883"><ele>93.25</ele><time>2026-04-19T12:24:37.508Z</time></trkpt><trkpt lat="38.9322517" lon="16.733045"><ele>91.0</ele><time>2026-04-19T12:24:38.507Z</time></trkpt><trkpt lat="38.9321533" lon="16.7329017"><ele>91.0</ele><time>2026-04-19T12:24:39.507Z</time></trkpt><trkpt lat="38.9320583" lon="16.7327617"><ele>91.0</ele><time>2026-04-19T12:24:40.508Z</time></trkpt><trkpt lat="38.9319717" lon="16.7326133"><ele>91.0</ele><time>2026-04-19T12:24:41.507Z</time></trkpt><trkpt lat="38.93189" lon="16.732465"><ele>91.0</ele><time>2026-04-19T12:24:42.508Z</time></trkpt><trkpt lat="38.9317967" lon="16.7323133"><ele>90.0</ele><time>2026-04-19T12:24:43.507Z</time></trkpt><trkpt lat="38.9316967" lon="16.732165"><ele>89.0</ele><time>2026-04-19T12:24:44.507Z</time></trkpt><trkpt lat="38.9316017" lon="16.732015"><ele>88.0</ele><time>2026-04-19T12:24:45.507Z</time></trkpt><trkpt lat="38.9315" lon="16.731865"><ele>86.33333333333333</ele><time>2026-04-19T12:24:46.507Z</time></trkpt><trkpt lat="38.9313983" lon="16.7317167"><ele>84.66666666666667</ele><time>2026-04-19T12:24:47.507Z</time></trkpt><trkpt lat="38.9313017" lon="16.7315633"><ele>83.0</ele><time>2026-04-19T12:24:48.507Z</time></trkpt><trkpt lat="38.9312067" lon="16.7314217"><ele>83.0</ele><time>2026-04-19T12:24:49.508Z</time></trkpt><trkpt lat="38.9311067" lon="16.7312667"><ele>83.0</ele><time>2026-04-19T12:24:50.508Z</time></trkpt><trkpt lat="38.9310183" lon="16.7311083"><ele>83.0</ele><time>2026-04-19T12:24:51.507Z</time></trkpt><trkpt lat="38.9309133" lon="16.730965"><ele>81.66666666666667</ele><time>2026-04-19T12:24:52.507Z</time></trkpt><trkpt lat="38.930815" lon="16.730815"><ele>80.33333333333333</ele><time>2026-04-19T12:24:53.507Z</time></trkpt><trkpt lat="38.9307167" lon="16.73066"><ele>79.0</ele><time>2026-04-19T12:24:54.508Z</time></trkpt><trkpt lat="38.930625" lon="16.73051"><ele>79.0</ele><time>2026-04-19T12:24:55.508Z</time></trkpt><trkpt lat="38.930525" lon="16.7303617"><ele>79.0</ele><time>2026-04-19T12:24:56.507Z</time></trkpt><trkpt lat="38.9304333" lon="16.7302167"><ele>79.0</ele><time>2026-04-19T12:24:57.508Z</time></trkpt><trkpt lat="38.93034" lon="16.7300733"><ele>79.0</ele><time>2026-04-19T12:24:58.507Z</time></trkpt><trkpt lat="38.9302517" lon="16.7299333"><ele>78.75</ele><time>2026-04-19T12:24:59.507Z</time></trkpt><trkpt lat="38.9301767" lon="16.7298033"><ele>78.5</ele><time>2026-04-19T12:25:00.507Z</time></trkpt><trkpt lat="38.9301033" lon="16.729685"><ele>78.25</ele><time>2026-04-19T12:25:01.508Z</time></trkpt><trkpt lat="38.9300267" lon="16.7295833"><ele>78.0</ele><time>2026-04-19T12:25:02.507Z</time></trkpt><trkpt lat="38.92995" lon="16.729485"><ele>78.0</ele><time>2026-04-19T12:25:03.507Z</time></trkpt><trkpt lat="38.9298667" lon="16.7294033"><ele>78.0</ele><time>2026-04-19T12:25:04.507Z</time></trkpt><trkpt lat="38.9297667" lon="16.7293317"><ele>78.0</ele><time>2026-04-19T12:25:05.507Z</time></trkpt><trkpt lat="38.9296633" lon="16.72926"><ele>78.0</ele><time>2026-04-19T12:25:06.507Z</time></trkpt><trkpt lat="38.9295533" lon="16.7291883"><ele>78.75</ele><time>2026-04-19T12:25:07.507Z</time></trkpt><trkpt lat="38.9294467" lon="16.729115"><ele>79.5</ele><time>2026-04-19T12:25:08.507Z</time></trkpt><trkpt lat="38.9293533" lon="16.7290183"><ele>80.25</ele><time>2026-04-19T12:25:09.507Z</time></trkpt><trkpt lat="38.9292617" lon="16.7289033"><ele>81.0</ele><time>2026-04-19T12:25:10.507Z</time></trkpt><trkpt lat="38.9291883" lon="16.7287683"><ele>81.0</ele><time>2026-04-19T12:25:11.507Z</time></trkpt><trkpt lat="38.9291133" lon="16.7286217"><ele>81.0</ele><time>2026-04-19T12:25:12.508Z</time></trkpt><trkpt lat="38.9290317" lon="16.72849"><ele>81.0</ele><time>2026-04-19T12:25:13.507Z</time></trkpt><trkpt lat="38.92894" lon="16.7283683"><ele>81.0</ele><time>2026-04-19T12:25:14.507Z</time></trkpt><trkpt lat="38.9288333" lon="16.7282667"><ele>78.33333333333333</ele><time>2026-04-19T12:25:15.507Z</time></trkpt><trkpt lat="38.9287" lon="16.7281883"><ele>75.66666666666666</ele><time>2026-04-19T12:25:16.508Z</time></trkpt><trkpt lat="38.9285583" lon="16.7281067"><ele>73.0</ele><time>2026-04-19T12:25:17.507Z</time></trkpt><trkpt lat="38.9284067" lon="16.7280283"><ele>75.66666666666666</ele><time>2026-04-19T12:25:18.507Z</time></trkpt><trkpt lat="38.928255" lon="16.7279567"><ele>78.33333333333333</ele><time>2026-04-19T12:25:19.507Z</time></trkpt><trkpt lat="38.9281133" lon="16.72788"><ele>81.0</ele><time>2026-04-19T12:25:20.508Z</time></trkpt><trkpt lat="38.9279767" lon="16.7278083"><ele>81.0</ele><time>2026-04-19T12:25:21.508Z</time></trkpt><trkpt lat="38.9278467" lon="16.7277433"><ele>81.0</ele><time>2026-04-19T12:25:22.507Z</time></trkpt><trkpt lat="38.9277233" lon="16.7276883"><ele>81.0</ele><time>2026-04-19T12:25:23.507Z</time></trkpt><trkpt lat="38.9276017" lon="16.7276383"><ele>81.0</ele><time>2026-04-19T12:25:24.507Z</time></trkpt><trkpt lat="38.9274833" lon="16.7276033"><ele>80.75</ele><time>2026-04-19T12:25:25.507Z</time></trkpt><trkpt lat="38.9273667" lon="16.7276117"><ele>80.5</ele><time>2026-04-19T12:25:26.507Z</time></trkpt><trkpt lat="38.92725" lon="16.7276633"><ele>80.25</ele><time>2026-04-19T12:25:27.507Z</time></trkpt><trkpt lat="38.92713" lon="16.7277433"><ele>80.0</ele><time>2026-04-19T12:25:28.507Z</time></trkpt><trkpt lat="38.92702" lon="16.72782"><ele>80.0</ele><time>2026-04-19T12:25:29.508Z</time></trkpt><trkpt lat="38.9269167" lon="16.7278917"><ele>80.0</ele><time>2026-04-19T12:25:30.507Z</time></trkpt><trkpt lat="38.92681" lon="16.727935"><ele>80.0</ele><time>2026-04-19T12:25:31.507Z</time></trkpt><trkpt lat="38.926705" lon="16.7279367"><ele>80.0</ele><time>2026-04-19T12:25:32.507Z</time></trkpt><trkpt lat="38.9266083" lon="16.7279067"><ele>80.0</ele><time>2026-04-19T12:25:33.508Z</time></trkpt><trkpt lat="38.9265267" lon="16.7278367"><ele>78.0</ele><time>2026-04-19T12:25:34.507Z</time></trkpt><trkpt lat="38.926455" lon="16.727715"><ele>76.0</ele><time>2026-04-19T12:25:35.507Z</time></trkpt><trkpt lat="38.9263917" lon="16.72756"><ele>74.0</ele><time>2026-04-19T12:25:36.507Z</time></trkpt><trkpt lat="38.926335" lon="16.727385"><ele>72.0</ele><time>2026-04-19T12:25:37.508Z</time></trkpt><trkpt lat="38.92628" lon="16.727205"><ele>72.0</ele><time>2026-04-19T12:25:38.508Z</time></trkpt><trkpt lat="38.9262267" lon="16.727025"><ele>72.0</ele><time>2026-04-19T12:25:39.507Z</time></trkpt><trkpt lat="38.9261767" lon="16.7268517"><ele>72.0</ele><time>2026-04-19T12:25:40.508Z</time></trkpt><trkpt lat="38.9261233" lon="16.7266933"><ele>72.0</ele><time>2026-04-19T12:25:41.507Z</time></trkpt><trkpt lat="38.9260617" lon="16.72655"><ele>72.5</ele><time>2026-04-19T12:25:42.508Z</time></trkpt><trkpt lat="38.9259767" lon="16.7264283"><ele>73.0</ele><time>2026-04-19T12:25:43.507Z</time></trkpt><trkpt lat="38.9258817" lon="16.72632"><ele>73.5</ele><time>2026-04-19T12:25:44.507Z</time></trkpt><trkpt lat="38.9257767" lon="16.7262283"><ele>74.0</ele><time>2026-04-19T12:25:45.507Z</time></trkpt><trkpt lat="38.925665" lon="16.7261683"><ele>74.0</ele><time>2026-04-19T12:25:46.508Z</time></trkpt><trkpt lat="38.9255367" lon="16.726135"><ele>74.0</ele><time>2026-04-19T12:25:47.508Z</time></trkpt><trkpt lat="38.9254117" lon="16.726135"><ele>74.0</ele><time>2026-04-19T12:25:48.507Z</time></trkpt><trkpt lat="38.9252833" lon="16.7261417"><ele>74.0</ele><time>2026-04-19T12:25:49.507Z</time></trkpt><trkpt lat="38.9251517" lon="16.726145"><ele>74.5</ele><time>2026-04-19T12:25:50.507Z</time></trkpt><trkpt lat="38.92503" lon="16.7261333"><ele>75.0</ele><time>2026-04-19T12:25:51.507Z</time></trkpt><trkpt lat="38.9249217" lon="16.7261017"><ele>75.5</ele><time>2026-04-19T12:25:52.507Z</time></trkpt><trkpt lat="38.924815" lon="16.7260367"><ele>76.0</ele><time>2026-04-19T12:25:53.507Z</time></trkpt><trkpt lat="38.924725" lon="16.7259233"><ele>73.75</ele><time>2026-04-19T12:25:54.507Z</time></trkpt><trkpt lat="38.9246483" lon="16.7258033"><ele>71.5</ele><time>2026-04-19T12:25:55.507Z</time></trkpt><trkpt lat="38.9245683" lon="16.725685"><ele>69.25</ele><time>2026-04-19T12:25:56.507Z</time></trkpt><trkpt lat="38.9244667" lon="16.72557"><ele>67.0</ele><time>2026-04-19T12:25:57.507Z</time></trkpt><trkpt lat="38.9243483" lon="16.7254883"><ele>67.0</ele><time>2026-04-19T12:25:58.507Z</time></trkpt><trkpt lat="38.9242367" lon="16.7254367"><ele>67.0</ele><time>2026-04-19T12:25:59.507Z</time></trkpt><trkpt lat="38.924115" lon="16.7254183"><ele>67.0</ele><time>2026-04-19T12:26:00.508Z</time></trkpt><trkpt lat="38.9239967" lon="16.7254417"><ele>67.0</ele><time>2026-04-19T12:26:01.507Z</time></trkpt><trkpt lat="38.92388" lon="16.7255067"><ele>68.0</ele><time>2026-04-19T12:26:02.507Z</time></trkpt><trkpt lat="38.9237617" lon="16.7256017"><ele>69.0</ele><time>2026-04-19T12:26:03.507Z</time></trkpt><trkpt lat="38.923635" lon="16.725705"><ele>70.0</ele><time>2026-04-19T12:26:04.507Z</time></trkpt><trkpt lat="38.9235017" lon="16.725805"><ele>71.0</ele><time>2026-04-19T12:26:05.508Z</time></trkpt><trkpt lat="38.92337" lon="16.72591"><ele>71.5</ele><time>2026-04-19T12:26:06.507Z</time></trkpt><trkpt lat="38.92324" lon="16.7260083"><ele>72.0</ele><time>2026-04-19T12:26:07.507Z</time></trkpt><trkpt lat="38.92312" lon="16.7261033"><ele>72.5</ele><time>2026-04-19T12:26:08.507Z</time></trkpt><trkpt lat="38.922995" lon="16.7261817"><ele>73.0</ele><time>2026-04-19T12:26:09.507Z</time></trkpt><trkpt lat="38.9228667" lon="16.7262283"><ele>73.0</ele><time>2026-04-19T12:26:10.507Z</time></trkpt><trkpt lat="38.9227367" lon="16.726245"><ele>73.0</ele><time>2026-04-19T12:26:11.507Z</time></trkpt><trkpt lat="38.9225983" lon="16.7262333"><ele>73.0</ele><time>2026-04-19T12:26:12.507Z</time></trkpt><trkpt lat="38.92245" lon="16.7261967"><ele>73.0</ele><time>2026-04-19T12:26:13.507Z</time></trkpt><trkpt lat="38.9222933" lon="16.72614"><ele>70.66666666666666</ele><time>2026-04-19T12:26:14.508Z</time></trkpt><trkpt lat="38.9221317" lon="16.7260783"><ele>68.33333333333333</ele><time>2026-04-19T12:26:15.507Z</time></trkpt><trkpt lat="38.921955" lon="16.726015"><ele>66.0</ele><time>2026-04-19T12:26:16.507Z</time></trkpt><trkpt lat="38.9217917" lon="16.7259583"><ele>63.33333333333333</ele><time>2026-04-19T12:26:17.507Z</time></trkpt><trkpt lat="38.9216183" lon="16.725895"><ele>60.666666666666664</ele><time>2026-04-19T12:26:18.508Z</time></trkpt><trkpt lat="38.9214483" lon="16.725835"><ele>58.0</ele><time>2026-04-19T12:26:19.507Z</time></trkpt><trkpt lat="38.9212817" lon="16.725785"><ele>58.0</ele><time>2026-04-19T12:26:20.508Z</time></trkpt><trkpt lat="38.9211133" lon="16.7257317"><ele>58.0</ele><time>2026-04-19T12:26:21.507Z</time></trkpt><trkpt lat="38.9209467" lon="16.7256683"><ele>58.0</ele><time>2026-04-19T12:26:22.507Z</time></trkpt><trkpt lat="38.9207833" lon="16.7256083"><ele>57.33333333333333</ele><time>2026-04-19T12:26:23.507Z</time></trkpt><trkpt lat="38.9206217" lon="16.72555"><ele>56.66666666666667</ele><time>2026-04-19T12:26:24.507Z</time></trkpt><trkpt lat="38.92046" lon="16.7254967"><ele>56.0</ele><time>2026-04-19T12:26:25.507Z</time></trkpt><trkpt lat="38.9203067" lon="16.7254417"><ele>56.0</ele><time>2026-04-19T12:26:26.507Z</time></trkpt><trkpt lat="38.9201583" lon="16.72539"><ele>56.0</ele><time>2026-04-19T12:26:27.507Z</time></trkpt><trkpt lat="38.9200167" lon="16.725345"><ele>56.0</ele><time>2026-04-19T12:26:28.507Z</time></trkpt><trkpt lat="38.91988" lon="16.7253033"><ele>56.0</ele><time>2026-04-19T12:26:29.507Z</time></trkpt><trkpt lat="38.91973" lon="16.7252733"><ele>55.0</ele><time>2026-04-19T12:26:30.508Z</time></trkpt><trkpt lat="38.9195783" lon="16.7252667"><ele>54.0</ele><time>2026-04-19T12:26:31.507Z</time></trkpt><trkpt lat="38.9194167" lon="16.7252617"><ele>53.0</ele><time>2026-04-19T12:26:32.507Z</time></trkpt><trkpt lat="38.9192533" lon="16.7252467"><ele>52.333333333333336</ele><time>2026-04-19T12:26:33.508Z</time></trkpt><trkpt lat="38.919085" lon="16.72522"><ele>51.66666666666667</ele><time>2026-04-19T12:26:34.507Z</time></trkpt><trkpt lat="38.9189183" lon="16.7251933"><ele>51.0</ele><time>2026-04-19T12:26:35.507Z</time></trkpt><trkpt lat="38.918755" lon="16.7251633"><ele>51.0</ele><time>2026-04-19T12:26:36.507Z</time></trkpt><trkpt lat="38.9185917" lon="16.7251317"><ele>51.0</ele><time>2026-04-19T12:26:37.507Z</time></trkpt><trkpt lat="38.9184317" lon="16.7251033"><ele>51.0</ele><time>2026-04-19T12:26:38.507Z</time></trkpt><trkpt lat="38.918275" lon="16.7250717"><ele>51.0</ele><time>2026-04-19T12:26:39.507Z</time></trkpt><trkpt lat="38.9181283" lon="16.7250117"><ele>51.0</ele><time>2026-04-19T12:26:40.507Z</time></trkpt><trkpt lat="38.9179833" lon="16.7249383"><ele>51.0</ele><time>2026-04-19T12:26:41.507Z</time></trkpt><trkpt lat="38.9178367" lon="16.7248517"><ele>51.0</ele><time>2026-04-19T12:26:42.508Z</time></trkpt><trkpt lat="38.9176933" lon="16.7247633"><ele>51.0</ele><time>2026-04-19T12:26:43.507Z</time></trkpt><trkpt lat="38.9175517" lon="16.7246767"><ele>51.0</ele><time>2026-04-19T12:26:44.507Z</time></trkpt><trkpt lat="38.9174067" lon="16.724595"><ele>51.0</ele><time>2026-04-19T12:26:45.507Z</time></trkpt><trkpt lat="38.917265" lon="16.72451"><ele>51.0</ele><time>2026-04-19T12:26:46.507Z</time></trkpt><trkpt lat="38.9171333" lon="16.7244267"><ele>51.0</ele><time>2026-04-19T12:26:47.507Z</time></trkpt><trkpt lat="38.9169967" lon="16.72435"><ele>50.0</ele><time>2026-04-19T12:26:48.507Z</time></trkpt><trkpt lat="38.916855" lon="16.7242717"><ele>49.0</ele><time>2026-04-19T12:26:49.507Z</time></trkpt><trkpt lat="38.9167117" lon="16.7242"><ele>48.0</ele><time>2026-04-19T12:26:50.507Z</time></trkpt><trkpt lat="38.9165667" lon="16.72412"><ele>48.0</ele><time>2026-04-19T12:26:51.507Z</time></trkpt><trkpt lat="38.9164367" lon="16.724055"><ele>48.0</ele><time>2026-04-19T12:26:52.507Z</time></trkpt><trkpt lat="38.9162917" lon="16.72403"><ele>48.0</ele><time>2026-04-19T12:26:53.507Z</time></trkpt><trkpt lat="38.9161517" lon="16.72405"><ele>48.0</ele><time>2026-04-19T12:26:54.507Z</time></trkpt><trkpt lat="38.91601" lon="16.724105"><ele>47.333333333333336</ele><time>2026-04-19T12:26:55.507Z</time></trkpt><trkpt lat="38.9158767" lon="16.7241767"><ele>46.66666666666667</ele><time>2026-04-19T12:26:56.507Z</time></trkpt><trkpt lat="38.9157133" lon="16.72426"><ele>46.0</ele><time>2026-04-19T12:26:57.508Z</time></trkpt><trkpt lat="38.915555" lon="16.7243283"><ele>45.66666666666667</ele><time>2026-04-19T12:26:58.507Z</time></trkpt><trkpt lat="38.915385" lon="16.7244083"><ele>45.333333333333336</ele><time>2026-04-19T12:26:59.507Z</time></trkpt><trkpt lat="38.9152133" lon="16.7244933"><ele>45.0</ele><time>2026-04-19T12:27:00.507Z</time></trkpt><trkpt lat="38.9150333" lon="16.72458"><ele>45.0</ele><time>2026-04-19T12:27:01.507Z</time></trkpt><trkpt lat="38.9148617" lon="16.7246567"><ele>45.0</ele><time>2026-04-19T12:27:02.507Z</time></trkpt><trkpt lat="38.9146817" lon="16.7247317"><ele>45.0</ele><time>2026-04-19T12:27:03.507Z</time></trkpt><trkpt lat="38.9144917" lon="16.72481"><ele>45.0</ele><time>2026-04-19T12:27:04.507Z</time></trkpt><trkpt lat="38.914315" lon="16.7248917"><ele>45.0</ele><time>2026-04-19T12:27:05.507Z</time></trkpt><trkpt lat="38.9141267" lon="16.7249683"><ele>45.0</ele><time>2026-04-19T12:27:06.508Z</time></trkpt><trkpt lat="38.9139367" lon="16.7250533"><ele>44.666666666666664</ele><time>2026-04-19T12:27:07.507Z</time></trkpt><trkpt lat="38.9137533" lon="16.7251283"><ele>44.33333333333333</ele><time>2026-04-19T12:27:08.507Z</time></trkpt><trkpt lat="38.9135667" lon="16.72521"><ele>44.0</ele><time>2026-04-19T12:27:09.507Z</time></trkpt><trkpt lat="38.913375" lon="16.725285"><ele>44.0</ele><time>2026-04-19T12:27:10.507Z</time></trkpt><trkpt lat="38.9131933" lon="16.7253717"><ele>44.0</ele><time>2026-04-19T12:27:11.508Z</time></trkpt><trkpt lat="38.9130017" lon="16.72545"><ele>44.0</ele><time>2026-04-19T12:27:12.508Z</time></trkpt><trkpt lat="38.9128067" lon="16.725545"><ele>44.0</ele><time>2026-04-19T12:27:13.507Z</time></trkpt><trkpt lat="38.912615" lon="16.72562"><ele>44.0</ele><time>2026-04-19T12:27:14.508Z</time></trkpt><trkpt lat="38.91242" lon="16.7257"><ele>44.0</ele><time>2026-04-19T12:27:15.508Z</time></trkpt><trkpt lat="38.9122183" lon="16.7257833"><ele>43.0</ele><time>2026-04-19T12:27:16.507Z</time></trkpt><trkpt lat="38.912025" lon="16.7258633"><ele>42.0</ele><time>2026-04-19T12:27:17.507Z</time></trkpt><trkpt lat="38.9118283" lon="16.7259467"><ele>41.0</ele><time>2026-04-19T12:27:18.507Z</time></trkpt><trkpt lat="38.9116333" lon="16.7260367"><ele>42.33333333333333</ele><time>2026-04-19T12:27:19.507Z</time></trkpt><trkpt lat="38.911435" lon="16.726125"><ele>43.666666666666664</ele><time>2026-04-19T12:27:20.507Z</time></trkpt><trkpt lat="38.9112333" lon="16.7262117"><ele>45.0</ele><time>2026-04-19T12:27:21.507Z</time></trkpt><trkpt lat="38.9110333" lon="16.7262983"><ele>44.333333333333336</ele><time>2026-04-19T12:27:22.507Z</time></trkpt><trkpt lat="38.910835" lon="16.7263817"><ele>43.66666666666667</ele><time>2026-04-19T12:27:23.507Z</time></trkpt><trkpt lat="38.9106417" lon="16.7264817"><ele>43.0</ele><time>2026-04-19T12:27:24.507Z</time></trkpt><trkpt lat="38.91045" lon="16.7265717"><ele>43.0</ele><time>2026-04-19T12:27:25.507Z</time></trkpt><trkpt lat="38.9102717" lon="16.7266633"><ele>43.0</ele><time>2026-04-19T12:27:26.507Z</time></trkpt><trkpt lat="38.9101033" lon="16.7267417"><ele>43.0</ele><time>2026-04-19T12:27:27.507Z</time></trkpt><trkpt lat="38.9099383" lon="16.7267967"><ele>43.5</ele><time>2026-04-19T12:27:28.507Z</time></trkpt><trkpt lat="38.90978" lon="16.726845"><ele>44.0</ele><time>2026-04-19T12:27:29.507Z</time></trkpt><trkpt lat="38.9096333" lon="16.7268817"><ele>44.5</ele><time>2026-04-19T12:27:30.507Z</time></trkpt><trkpt lat="38.9095083" lon="16.7269033"><ele>45.0</ele><time>2026-04-19T12:27:31.507Z</time></trkpt><trkpt lat="38.9094017" lon="16.72691"><ele>44.166666666666664</ele><time>2026-04-19T12:27:32.507Z</time></trkpt><trkpt lat="38.90931" lon="16.72689"><ele>43.333333333333336</ele><time>2026-04-19T12:27:33.507Z</time></trkpt><trkpt lat="38.9092283" lon="16.726865"><ele>42.5</ele><time>2026-04-19T12:27:34.508Z</time></trkpt><trkpt lat="38.9091633" lon="16.72683"><ele>41.66666666666667</ele><time>2026-04-19T12:27:35.508Z</time></trkpt><trkpt lat="38.9090933" lon="16.726845"><ele>40.833333333333336</ele><time>2026-04-19T12:27:36.507Z</time></trkpt><trkpt lat="38.9090167" lon="16.726895"><ele>40.0</ele><time>2026-04-19T12:27:37.507Z</time></trkpt><trkpt lat="38.9089317" lon="16.7269617"><ele>39.75</ele><time>2026-04-19T12:27:38.507Z</time></trkpt><trkpt lat="38.90882" lon="16.7270217"><ele>39.5</ele><time>2026-04-19T12:27:39.507Z</time></trkpt><trkpt lat="38.90869" lon="16.7270583"><ele>39.25</ele><time>2026-04-19T12:27:40.507Z</time></trkpt><trkpt lat="38.908565" lon="16.727095"><ele>39.0</ele><time>2026-04-19T12:27:41.507Z</time></trkpt><trkpt lat="38.9084383" lon="16.7271367"><ele>38.75</ele><time>2026-04-19T12:27:42.507Z</time></trkpt><trkpt lat="38.908315" lon="16.7271883"><ele>38.5</ele><time>2026-04-19T12:27:43.507Z</time></trkpt><trkpt lat="38.9081933" lon="16.72726"><ele>38.25</ele><time>2026-04-19T12:27:44.508Z</time></trkpt><trkpt lat="38.9080583" lon="16.7273417"><ele>38.0</ele><time>2026-04-19T12:27:45.507Z</time></trkpt><trkpt lat="38.9079233" lon="16.72743"><ele>38.0</ele><time>2026-04-19T12:27:46.507Z</time></trkpt><trkpt lat="38.9077733" lon="16.7275267"><ele>38.0</ele><time>2026-04-19T12:27:47.507Z</time></trkpt><trkpt lat="38.90762" lon="16.7276283"><ele>38.0</ele><time>2026-04-19T12:27:48.507Z</time></trkpt><trkpt lat="38.90747" lon="16.7277533"><ele>37.33333333333333</ele><time>2026-04-19T12:27:49.507Z</time></trkpt><trkpt lat="38.9073167" lon="16.727885"><ele>36.666666666666664</ele><time>2026-04-19T12:27:50.507Z</time></trkpt><trkpt lat="38.9071717" lon="16.7280267"><ele>36.0</ele><time>2026-04-19T12:27:51.507Z</time></trkpt><trkpt lat="38.9070183" lon="16.7281617"><ele>36.0</ele><time>2026-04-19T12:27:52.507Z</time></trkpt><trkpt lat="38.9068583" lon="16.7283083"><ele>36.0</ele><time>2026-04-19T12:27:53.507Z</time></trkpt><trkpt lat="38.9066967" lon="16.7284533"><ele>36.0</ele><time>2026-04-19T12:27:54.508Z</time></trkpt><trkpt lat="38.90655" lon="16.7285933"><ele>35.666666666666664</ele><time>2026-04-19T12:27:55.507Z</time></trkpt><trkpt lat="38.9064083" lon="16.7287333"><ele>35.33333333333333</ele><time>2026-04-19T12:27:56.507Z</time></trkpt><trkpt lat="38.9062683" lon="16.7288617"><ele>35.0</ele><time>2026-04-19T12:27:57.507Z</time></trkpt><trkpt lat="38.906125" lon="16.72899"><ele>35.0</ele><time>2026-04-19T12:27:58.507Z</time></trkpt><trkpt lat="38.905985" lon="16.72912"><ele>35.0</ele><time>2026-04-19T12:27:59.507Z</time></trkpt><trkpt lat="38.9058333" lon="16.72926"><ele>35.0</ele><time>2026-04-19T12:28:00.507Z</time></trkpt><trkpt lat="38.90568" lon="16.729405"><ele>35.0</ele><time>2026-04-19T12:28:01.507Z</time></trkpt><trkpt lat="38.90553" lon="16.729545"><ele>35.0</ele><time>2026-04-19T12:28:02.507Z</time></trkpt><trkpt lat="38.905385" lon="16.7296883"><ele>35.0</ele><time>2026-04-19T12:28:03.507Z</time></trkpt><trkpt lat="38.9052333" lon="16.7298317"><ele>35.0</ele><time>2026-04-19T12:28:04.507Z</time></trkpt><trkpt lat="38.9050917" lon="16.7299683"><ele>35.0</ele><time>2026-04-19T12:28:05.508Z</time></trkpt><trkpt lat="38.90495" lon="16.7300967"><ele>35.0</ele><time>2026-04-19T12:28:06.507Z</time></trkpt><trkpt lat="38.9048083" lon="16.7302183"><ele>35.33333333333333</ele><time>2026-04-19T12:28:07.507Z</time></trkpt><trkpt lat="38.9046583" lon="16.730325"><ele>35.666666666666664</ele><time>2026-04-19T12:28:08.507Z</time></trkpt><trkpt lat="38.9044933" lon="16.730415"><ele>36.0</ele><time>2026-04-19T12:28:09.507Z</time></trkpt><trkpt lat="38.9043267" lon="16.7305067"><ele>34.0</ele><time>2026-04-19T12:28:10.507Z</time></trkpt><trkpt lat="38.9041583" lon="16.7305983"><ele>32.0</ele><time>2026-04-19T12:28:11.507Z</time></trkpt><trkpt lat="38.9039833" lon="16.7306933"><ele>30.0</ele><time>2026-04-19T12:28:12.507Z</time></trkpt><trkpt lat="38.9038083" lon="16.7307867"><ele>30.0</ele><time>2026-04-19T12:28:13.508Z</time></trkpt><trkpt lat="38.9036267" lon="16.7308867"><ele>30.0</ele><time>2026-04-19T12:28:14.507Z</time></trkpt><trkpt lat="38.9034417" lon="16.73098"><ele>30.0</ele><time>2026-04-19T12:28:15.507Z</time></trkpt><trkpt lat="38.9032567" lon="16.7310683"><ele>32.0</ele><time>2026-04-19T12:28:16.507Z</time></trkpt><trkpt lat="38.9030683" lon="16.7311467"><ele>34.0</ele><time>2026-04-19T12:28:17.507Z</time></trkpt><trkpt lat="38.9028767" lon="16.7312217"><ele>36.0</ele><time>2026-04-19T12:28:18.507Z</time></trkpt><trkpt lat="38.9026867" lon="16.7312983"><ele>34.666666666666664</ele><time>2026-04-19T12:28:19.508Z</time></trkpt><trkpt lat="38.9025017" lon="16.7313783"><ele>33.33333333333333</ele><time>2026-04-19T12:28:20.508Z</time></trkpt><trkpt lat="38.902315" lon="16.73146"><ele>32.0</ele><time>2026-04-19T12:28:21.508Z</time></trkpt><trkpt lat="38.9021317" lon="16.7315333"><ele>32.0</ele><time>2026-04-19T12:28:22.507Z</time></trkpt><trkpt lat="38.9019483" lon="16.7316117"><ele>32.0</ele><time>2026-04-19T12:28:23.508Z</time></trkpt><trkpt lat="38.9017717" lon="16.7316767"><ele>32.0</ele><time>2026-04-19T12:28:24.507Z</time></trkpt><trkpt lat="38.9016017" lon="16.7317467"><ele>32.666666666666664</ele><time>2026-04-19T12:28:25.507Z</time></trkpt><trkpt lat="38.901435" lon="16.731825"><ele>33.333333333333336</ele><time>2026-04-19T12:28:26.507Z</time></trkpt><trkpt lat="38.9012667" lon="16.7319117"><ele>34.0</ele><time>2026-04-19T12:28:27.507Z</time></trkpt><trkpt lat="38.9010933" lon="16.7320033"><ele>34.0</ele><time>2026-04-19T12:28:28.508Z</time></trkpt><trkpt lat="38.9009317" lon="16.7321083"><ele>34.0</ele><time>2026-04-19T12:28:29.508Z</time></trkpt><trkpt lat="38.9007683" lon="16.73222"><ele>34.0</ele><time>2026-04-19T12:28:30.507Z</time></trkpt><trkpt lat="38.9006067" lon="16.7323367"><ele>32.66666666666667</ele><time>2026-04-19T12:28:31.508Z</time></trkpt><trkpt lat="38.90044" lon="16.73245"><ele>31.333333333333336</ele><time>2026-04-19T12:28:32.507Z</time></trkpt><trkpt lat="38.9002767" lon="16.7325717"><ele>30.0</ele><time>2026-04-19T12:28:33.508Z</time></trkpt><trkpt lat="38.9001133" lon="16.7327017"><ele>31.333333333333336</ele><time>2026-04-19T12:28:34.507Z</time></trkpt><trkpt lat="38.8999467" lon="16.7328317"><ele>32.66666666666667</ele><time>2026-04-19T12:28:35.507Z</time></trkpt><trkpt lat="38.8997817" lon="16.7329483"><ele>34.0</ele><time>2026-04-19T12:28:36.507Z</time></trkpt><trkpt lat="38.8996167" lon="16.733065"><ele>34.0</ele><time>2026-04-19T12:28:37.508Z</time></trkpt><trkpt lat="38.89946" lon="16.7331733"><ele>34.0</ele><time>2026-04-19T12:28:38.507Z</time></trkpt><trkpt lat="38.8993183" lon="16.7332667"><ele>34.0</ele><time>2026-04-19T12:28:39.507Z</time></trkpt><trkpt lat="38.89919" lon="16.7333517"><ele>33.6</ele><time>2026-04-19T12:28:40.507Z</time></trkpt><trkpt lat="38.8990867" lon="16.7334233"><ele>33.2</ele><time>2026-04-19T12:28:41.507Z</time></trkpt><trkpt lat="38.8990017" lon="16.733485"><ele>32.800000000000004</ele><time>2026-04-19T12:28:42.507Z</time></trkpt><trkpt lat="38.8989317" lon="16.733525"><ele>32.4</ele><time>2026-04-19T12:28:43.507Z</time></trkpt><trkpt lat="38.8988433" lon="16.73357"><ele>32.0</ele><time>2026-04-19T12:28:45.507Z</time></trkpt><trkpt lat="38.8987667" lon="16.73362"><ele>32.0</ele><time>2026-04-19T12:28:49.507Z</time></trkpt><trkpt lat="38.8987183" lon="16.7337017"><ele>32.0</ele><time>2026-04-19T12:28:51.507Z</time></trkpt><trkpt lat="38.8986917" lon="16.7337767"><ele>32.0</ele><time>2026-04-19T12:28:52.508Z</time></trkpt><trkpt lat="38.8986517" lon="16.7338817"><ele>32.0</ele><time>2026-04-19T12:28:53.507Z</time></trkpt><trkpt lat="38.8986017" lon="16.733995"><ele>32.0</ele><time>2026-04-19T12:28:54.507Z</time></trkpt><trkpt lat="38.8985333" lon="16.7341183"><ele>32.0</ele><time>2026-04-19T12:28:55.507Z</time></trkpt><trkpt lat="38.8984483" lon="16.7342317"><ele>32.0</ele><time>2026-04-19T12:28:56.507Z</time></trkpt><trkpt lat="38.8983667" lon="16.73432"><ele>32.0</ele><time>2026-04-19T12:28:57.507Z</time></trkpt><trkpt lat="38.8982883" lon="16.7343767"><ele>32.0</ele><time>2026-04-19T12:28:58.507Z</time></trkpt><trkpt lat="38.8982083" lon="16.7344033"><ele>32.0</ele><time>2026-04-19T12:28:59.507Z</time></trkpt><trkpt lat="38.8981283" lon="16.7343983"><ele>30.6</ele><time>2026-04-19T12:29:00.507Z</time></trkpt><trkpt lat="38.89805" lon="16.7343733"><ele>29.200000000000003</ele><time>2026-04-19T12:29:01.507Z</time></trkpt><trkpt lat="38.8979783" lon="16.734305"><ele>27.8</ele><time>2026-04-19T12:29:02.508Z</time></trkpt><trkpt lat="38.8979217" lon="16.7341917"><ele>26.4</ele><time>2026-04-19T12:29:03.507Z</time></trkpt><trkpt lat="38.8978683" lon="16.73404"><ele>25.0</ele><time>2026-04-19T12:29:04.507Z</time></trkpt><trkpt lat="38.8978133" lon="16.7338783"><ele>25.0</ele><time>2026-04-19T12:29:05.507Z</time></trkpt><trkpt lat="38.8977433" lon="16.733715"><ele>25.0</ele><time>2026-04-19T12:29:06.507Z</time></trkpt><trkpt lat="38.8976667" lon="16.7335467"><ele>25.0</ele><time>2026-04-19T12:29:07.508Z</time></trkpt><trkpt lat="38.8975867" lon="16.7333717"><ele>24.0</ele><time>2026-04-19T12:29:08.507Z</time></trkpt><trkpt lat="38.8975083" lon="16.733185"><ele>23.0</ele><time>2026-04-19T12:29:09.507Z</time></trkpt><trkpt lat="38.8974283" lon="16.732995"><ele>22.0</ele><time>2026-04-19T12:29:10.508Z</time></trkpt><trkpt lat="38.8973467" lon="16.732805"><ele>22.0</ele><time>2026-04-19T12:29:11.507Z</time></trkpt><trkpt lat="38.8972617" lon="16.7326183"><ele>22.0</ele><time>2026-04-19T12:29:12.507Z</time></trkpt><trkpt lat="38.8971783" lon="16.7324317"><ele>22.0</ele><time>2026-04-19T12:29:13.507Z</time></trkpt><trkpt lat="38.8970933" lon="16.7322483"><ele>22.0</ele><time>2026-04-19T12:29:14.507Z</time></trkpt><trkpt lat="38.8970083" lon="16.7320667"><ele>22.0</ele><time>2026-04-19T12:29:15.507Z</time></trkpt><trkpt lat="38.8969217" lon="16.7318817"><ele>22.0</ele><time>2026-04-19T12:29:16.507Z</time></trkpt><trkpt lat="38.8967533" lon="16.7315167"><ele>18.0</ele><time>2026-04-19T12:29:18.508Z</time></trkpt><trkpt lat="38.8964217" lon="16.730785"><ele>18.0</ele><time>2026-04-19T12:29:22.508Z</time></trkpt><trkpt lat="38.8963317" lon="16.7305967"><ele>18.0</ele><time>2026-04-19T12:29:23.507Z</time></trkpt><trkpt lat="38.896245" lon="16.7304133"><ele>18.0</ele><time>2026-04-19T12:29:24.507Z</time></trkpt><trkpt lat="38.8961633" lon="16.7302317"><ele>17.666666666666668</ele><time>2026-04-19T12:29:25.507Z</time></trkpt><trkpt lat="38.8960867" lon="16.7300433"><ele>17.333333333333336</ele><time>2026-04-19T12:29:26.507Z</time></trkpt><trkpt lat="38.8960083" lon="16.72986"><ele>17.0</ele><time>2026-04-19T12:29:27.508Z</time></trkpt><trkpt lat="38.8959167" lon="16.7296717"><ele>17.666666666666668</ele><time>2026-04-19T12:29:28.507Z</time></trkpt><trkpt lat="38.89583" lon="16.7294817"><ele>18.333333333333332</ele><time>2026-04-19T12:29:29.507Z</time></trkpt><trkpt lat="38.8957467" lon="16.7292983"><ele>19.0</ele><time>2026-04-19T12:29:30.507Z</time></trkpt><trkpt lat="38.8956683" lon="16.7291183"><ele>19.0</ele><time>2026-04-19T12:29:31.507Z</time></trkpt><trkpt lat="38.895585" lon="16.7289267"><ele>19.0</ele><time>2026-04-19T12:29:32.507Z</time></trkpt><trkpt lat="38.895495" lon="16.7287483"><ele>19.0</ele><time>2026-04-19T12:29:33.507Z</time></trkpt><trkpt lat="38.8954117" lon="16.7285667"><ele>19.0</ele><time>2026-04-19T12:29:34.507Z</time></trkpt><trkpt lat="38.8953333" lon="16.7283767"><ele>19.0</ele><time>2026-04-19T12:29:35.508Z</time></trkpt><trkpt lat="38.895255" lon="16.72819"><ele>19.0</ele><time>2026-04-19T12:29:36.508Z</time></trkpt><trkpt lat="38.8951733" lon="16.7280117"><ele>19.0</ele><time>2026-04-19T12:29:37.507Z</time></trkpt><trkpt lat="38.8950883" lon="16.7278317"><ele>19.0</ele><time>2026-04-19T12:29:38.507Z</time></trkpt><trkpt lat="38.8950033" lon="16.727645"><ele>19.0</ele><time>2026-04-19T12:29:39.507Z</time></trkpt><trkpt lat="38.8949217" lon="16.72746"><ele>19.333333333333332</ele><time>2026-04-19T12:29:40.507Z</time></trkpt><trkpt lat="38.89484" lon="16.7272733"><ele>19.666666666666668</ele><time>2026-04-19T12:29:41.507Z</time></trkpt><trkpt lat="38.8947583" lon="16.7270867"><ele>20.0</ele><time>2026-04-19T12:29:42.507Z</time></trkpt><trkpt lat="38.8946683" lon="16.726895"><ele>21.333333333333336</ele><time>2026-04-19T12:29:43.507Z</time></trkpt><trkpt lat="38.8945833" lon="16.726695"><ele>22.666666666666668</ele><time>2026-04-19T12:29:44.508Z</time></trkpt><trkpt lat="38.8944933" lon="16.7265033"><ele>24.0</ele><time>2026-04-19T12:29:45.507Z</time></trkpt><trkpt lat="38.8944033" lon="16.7263033"><ele>24.0</ele><time>2026-04-19T12:29:46.507Z</time></trkpt><trkpt lat="38.8943117" lon="16.7261117"><ele>24.0</ele><time>2026-04-19T12:29:47.507Z</time></trkpt><trkpt lat="38.89422" lon="16.7259217"><ele>24.0</ele><time>2026-04-19T12:29:48.507Z</time></trkpt><trkpt lat="38.8941283" lon="16.7257317"><ele>24.0</ele><time>2026-04-19T12:29:49.507Z</time></trkpt><trkpt lat="38.8940417" lon="16.7255367"><ele>24.0</ele><time>2026-04-19T12:29:50.507Z</time></trkpt><trkpt lat="38.8939567" lon="16.7253433"><ele>24.0</ele><time>2026-04-19T12:29:51.508Z</time></trkpt><trkpt lat="38.8938733" lon="16.7251467"><ele>24.0</ele><time>2026-04-19T12:29:52.507Z</time></trkpt><trkpt lat="38.8937817" lon="16.7249517"><ele>24.0</ele><time>2026-04-19T12:29:53.507Z</time></trkpt><trkpt lat="38.8937" lon="16.7247533"><ele>24.0</ele><time>2026-04-19T12:29:54.508Z</time></trkpt><trkpt lat="38.8936117" lon="16.724555"><ele>24.333333333333336</ele><time>2026-04-19T12:29:55.507Z</time></trkpt><trkpt lat="38.8935333" lon="16.7243533"><ele>24.666666666666668</ele><time>2026-04-19T12:29:56.508Z</time></trkpt><trkpt lat="38.89346" lon="16.7241517"><ele>25.0</ele><time>2026-04-19T12:29:57.507Z</time></trkpt><trkpt lat="38.8933867" lon="16.7239483"><ele>24.333333333333336</ele><time>2026-04-19T12:29:58.507Z</time></trkpt><trkpt lat="38.8933033" lon="16.72375"><ele>23.666666666666668</ele><time>2026-04-19T12:29:59.508Z</time></trkpt><trkpt lat="38.893225" lon="16.7235533"><ele>23.0</ele><time>2026-04-19T12:30:00.507Z</time></trkpt><trkpt lat="38.8931333" lon="16.72336"><ele>23.0</ele><time>2026-04-19T12:30:01.507Z</time></trkpt><trkpt lat="38.8930333" lon="16.723165"><ele>23.0</ele><time>2026-04-19T12:30:02.508Z</time></trkpt><trkpt lat="38.8929317" lon="16.7229817"><ele>23.0</ele><time>2026-04-19T12:30:03.507Z</time></trkpt><trkpt lat="38.8928283" lon="16.722805"><ele>23.0</ele><time>2026-04-19T12:30:04.507Z</time></trkpt><trkpt lat="38.8927267" lon="16.7226217"><ele>23.0</ele><time>2026-04-19T12:30:05.507Z</time></trkpt><trkpt lat="38.89262" lon="16.7224467"><ele>23.0</ele><time>2026-04-19T12:30:06.507Z</time></trkpt><trkpt lat="38.8925083" lon="16.7222717"><ele>23.0</ele><time>2026-04-19T12:30:07.507Z</time></trkpt><trkpt lat="38.8923917" lon="16.7221017"><ele>23.0</ele><time>2026-04-19T12:30:08.507Z</time></trkpt><trkpt lat="38.89228" lon="16.72194"><ele>23.0</ele><time>2026-04-19T12:30:09.508Z</time></trkpt><trkpt lat="38.8921733" lon="16.72178"><ele>23.333333333333336</ele><time>2026-04-19T12:30:10.507Z</time></trkpt><trkpt lat="38.8920617" lon="16.7216283"><ele>23.666666666666668</ele><time>2026-04-19T12:30:11.507Z</time></trkpt><trkpt lat="38.891955" lon="16.72148"><ele>24.0</ele><time>2026-04-19T12:30:12.507Z</time></trkpt><trkpt lat="38.8918517" lon="16.7213317"><ele>24.0</ele><time>2026-04-19T12:30:13.507Z</time></trkpt><trkpt lat="38.8917533" lon="16.7211917"><ele>24.0</ele><time>2026-04-19T12:30:14.508Z</time></trkpt><trkpt lat="38.8916617" lon="16.7210483"><ele>24.0</ele><time>2026-04-19T12:30:15.507Z</time></trkpt><trkpt lat="38.891565" lon="16.7209117"><ele>24.0</ele><time>2026-04-19T12:30:16.507Z</time></trkpt><trkpt lat="38.8914683" lon="16.7207683"><ele>25.666666666666664</ele><time>2026-04-19T12:30:17.507Z</time></trkpt><trkpt lat="38.8913583" lon="16.7206267"><ele>27.333333333333332</ele><time>2026-04-19T12:30:18.508Z</time></trkpt><trkpt lat="38.891255" lon="16.7204767"><ele>29.0</ele><time>2026-04-19T12:30:19.507Z</time></trkpt><trkpt lat="38.891145" lon="16.72033"><ele>29.333333333333332</ele><time>2026-04-19T12:30:20.507Z</time></trkpt><trkpt lat="38.89105" lon="16.7201833"><ele>29.666666666666664</ele><time>2026-04-19T12:30:21.507Z</time></trkpt><trkpt lat="38.89094" lon="16.72004"><ele>30.0</ele><time>2026-04-19T12:30:22.507Z</time></trkpt><trkpt lat="38.8908367" lon="16.7198933"><ele>30.0</ele><time>2026-04-19T12:30:23.508Z</time></trkpt><trkpt lat="38.8907333" lon="16.7197517"><ele>30.0</ele><time>2026-04-19T12:30:24.507Z</time></trkpt><trkpt lat="38.8906317" lon="16.719615"><ele>30.0</ele><time>2026-04-19T12:30:25.507Z</time></trkpt><trkpt lat="38.89053" lon="16.719475"><ele>30.0</ele><time>2026-04-19T12:30:26.508Z</time></trkpt><trkpt lat="38.8904333" lon="16.7193317"><ele>31.0</ele><time>2026-04-19T12:30:27.507Z</time></trkpt><trkpt lat="38.89033" lon="16.7191817"><ele>32.0</ele><time>2026-04-19T12:30:28.507Z</time></trkpt><trkpt lat="38.8901267" lon="16.7188867"><ele>31.75</ele><time>2026-04-19T12:30:30.508Z</time></trkpt><trkpt lat="38.8900283" lon="16.7187383"><ele>31.5</ele><time>2026-04-19T12:30:31.507Z</time></trkpt><trkpt lat="38.8899333" lon="16.7185967"><ele>31.25</ele><time>2026-04-19T12:30:32.507Z</time></trkpt><trkpt lat="38.8898367" lon="16.7184533"><ele>31.0</ele><time>2026-04-19T12:30:33.507Z</time></trkpt><trkpt lat="38.8897317" lon="16.7183033"><ele>32.333333333333336</ele><time>2026-04-19T12:30:34.507Z</time></trkpt><trkpt lat="38.88963" lon="16.7181533"><ele>33.666666666666664</ele><time>2026-04-19T12:30:35.507Z</time></trkpt><trkpt lat="38.8895317" lon="16.7180083"><ele>35.0</ele><time>2026-04-19T12:30:36.508Z</time></trkpt><trkpt lat="38.8894233" lon="16.7178583"><ele>35.0</ele><time>2026-04-19T12:30:37.508Z</time></trkpt><trkpt lat="38.8893167" lon="16.7177067"><ele>35.0</ele><time>2026-04-19T12:30:38.507Z</time></trkpt><trkpt lat="38.8892033" lon="16.717555"><ele>35.0</ele><time>2026-04-19T12:30:39.507Z</time></trkpt><trkpt lat="38.8890933" lon="16.717395"><ele>35.0</ele><time>2026-04-19T12:30:40.507Z</time></trkpt><trkpt lat="38.8889767" lon="16.71724"><ele>35.0</ele><time>2026-04-19T12:30:41.507Z</time></trkpt><trkpt lat="38.8888683" lon="16.7170883"><ele>35.0</ele><time>2026-04-19T12:30:42.507Z</time></trkpt><trkpt lat="38.8887717" lon="16.716945"><ele>35.5</ele><time>2026-04-19T12:30:43.507Z</time></trkpt><trkpt lat="38.8886733" lon="16.7168067"><ele>36.0</ele><time>2026-04-19T12:30:44.507Z</time></trkpt><trkpt lat="38.888575" lon="16.716675"><ele>36.5</ele><time>2026-04-19T12:30:45.507Z</time></trkpt><trkpt lat="38.88847" lon="16.7165267"><ele>37.0</ele><time>2026-04-19T12:30:46.507Z</time></trkpt><trkpt lat="38.8883617" lon="16.7163783"><ele>36.333333333333336</ele><time>2026-04-19T12:30:47.507Z</time></trkpt><trkpt lat="38.8882617" lon="16.71624"><ele>35.666666666666664</ele><time>2026-04-19T12:30:48.507Z</time></trkpt><trkpt lat="38.8881633" lon="16.716095"><ele>35.0</ele><time>2026-04-19T12:30:49.507Z</time></trkpt><trkpt lat="38.88806" lon="16.7159417"><ele>35.0</ele><time>2026-04-19T12:30:50.507Z</time></trkpt><trkpt lat="38.88795" lon="16.715795"><ele>35.0</ele><time>2026-04-19T12:30:51.507Z</time></trkpt><trkpt lat="38.8878483" lon="16.71565"><ele>35.0</ele><time>2026-04-19T12:30:52.507Z</time></trkpt><trkpt lat="38.887755" lon="16.7155083"><ele>35.0</ele><time>2026-04-19T12:30:53.507Z</time></trkpt><trkpt lat="38.887665" lon="16.7153767"><ele>35.0</ele><time>2026-04-19T12:30:54.507Z</time></trkpt><trkpt lat="38.8875767" lon="16.7152517"><ele>35.0</ele><time>2026-04-19T12:30:55.507Z</time></trkpt><trkpt lat="38.8874933" lon="16.7151333"><ele>35.0</ele><time>2026-04-19T12:30:56.507Z</time></trkpt><trkpt lat="38.8874183" lon="16.7150133"><ele>34.6</ele><time>2026-04-19T12:30:57.507Z</time></trkpt><trkpt lat="38.8873367" lon="16.71491"><ele>34.2</ele><time>2026-04-19T12:30:58.508Z</time></trkpt><trkpt lat="38.8872583" lon="16.7148067"><ele>33.8</ele><time>2026-04-19T12:30:59.507Z</time></trkpt><trkpt lat="38.8871833" lon="16.7147067"><ele>33.4</ele><time>2026-04-19T12:31:00.507Z</time></trkpt><trkpt lat="38.887105" lon="16.71461"><ele>33.0</ele><time>2026-04-19T12:31:01.507Z</time></trkpt><trkpt lat="38.8870367" lon="16.714535"><ele>33.0</ele><time>2026-04-19T12:31:02.507Z</time></trkpt><trkpt lat="38.8869717" lon="16.7144617"><ele>33.0</ele><time>2026-04-19T12:31:03.507Z</time></trkpt><trkpt lat="38.8868983" lon="16.7143917"><ele>33.0</ele><time>2026-04-19T12:31:04.507Z</time></trkpt><trkpt lat="38.886815" lon="16.71432"><ele>33.0</ele><time>2026-04-19T12:31:05.508Z</time></trkpt><trkpt lat="38.8867283" lon="16.7142367"><ele>33.0</ele><time>2026-04-19T12:31:06.507Z</time></trkpt><trkpt lat="38.8866367" lon="16.71415"><ele>33.0</ele><time>2026-04-19T12:31:07.507Z</time></trkpt><trkpt lat="38.8865433" lon="16.7140567"><ele>33.0</ele><time>2026-04-19T12:31:08.507Z</time></trkpt><trkpt lat="38.886435" lon="16.71395"><ele>33.0</ele><time>2026-04-19T12:31:09.508Z</time></trkpt><trkpt lat="38.886325" lon="16.7138467"><ele>33.0</ele><time>2026-04-19T12:31:10.507Z</time></trkpt><trkpt lat="38.88621" lon="16.7137467"><ele>33.0</ele><time>2026-04-19T12:31:11.507Z</time></trkpt><trkpt lat="38.886085" lon="16.71364"><ele>33.0</ele><time>2026-04-19T12:31:12.507Z</time></trkpt><trkpt lat="38.8859667" lon="16.7135317"><ele>33.0</ele><time>2026-04-19T12:31:13.507Z</time></trkpt><trkpt lat="38.8858417" lon="16.7134233"><ele>33.0</ele><time>2026-04-19T12:31:14.507Z</time></trkpt><trkpt lat="38.8857283" lon="16.7133117"><ele>33.0</ele><time>2026-04-19T12:31:15.507Z</time></trkpt><trkpt lat="38.8856267" lon="16.7132083"><ele>33.0</ele><time>2026-04-19T12:31:16.507Z</time></trkpt><trkpt lat="38.8855533" lon="16.713125"><ele>33.0</ele><time>2026-04-19T12:31:17.508Z</time></trkpt><trkpt lat="38.8855067" lon="16.713045"><ele>33.0</ele><time>2026-04-19T12:31:18.507Z</time></trkpt><trkpt lat="38.885465" lon="16.712965"><ele>33.0</ele><time>2026-04-19T12:31:19.507Z</time></trkpt><trkpt lat="38.8854267" lon="16.7128933"><ele>33.0</ele><time>2026-04-19T12:31:20.507Z</time></trkpt><trkpt lat="38.8853833" lon="16.7128283"><ele>33.0</ele><time>2026-04-19T12:31:21.507Z</time></trkpt><trkpt lat="38.8853133" lon="16.7127633"><ele>33.0</ele><time>2026-04-19T12:31:22.507Z</time></trkpt><trkpt lat="38.8852283" lon="16.7127017"><ele>33.0</ele><time>2026-04-19T12:31:23.507Z</time></trkpt><trkpt lat="38.8851283" lon="16.712625"><ele>33.0</ele><time>2026-04-19T12:31:24.507Z</time></trkpt><trkpt lat="38.885035" lon="16.71252"><ele>33.0</ele><time>2026-04-19T12:31:25.507Z</time></trkpt><trkpt lat="38.88493" lon="16.7123817"><ele>29.666666666666668</ele><time>2026-04-19T12:31:26.508Z</time></trkpt><trkpt lat="38.8848167" lon="16.7122233"><ele>26.333333333333336</ele><time>2026-04-19T12:31:27.508Z</time></trkpt><trkpt lat="38.88472" lon="16.71203"><ele>23.0</ele><time>2026-04-19T12:31:28.508Z</time></trkpt><trkpt lat="38.884625" lon="16.71183"><ele>22.666666666666668</ele><time>2026-04-19T12:31:29.507Z</time></trkpt><trkpt lat="38.88454" lon="16.7116383"><ele>22.333333333333332</ele><time>2026-04-19T12:31:30.507Z</time></trkpt><trkpt lat="38.884455" lon="16.7114617"><ele>22.0</ele><time>2026-04-19T12:31:31.507Z</time></trkpt><trkpt lat="38.884375" lon="16.7112933"><ele>22.0</ele><time>2026-04-19T12:31:32.507Z</time></trkpt><trkpt lat="38.88431" lon="16.7111533"><ele>22.0</ele><time>2026-04-19T12:31:33.508Z</time></trkpt><trkpt lat="38.88425" lon="16.7110233"><ele>22.0</ele><time>2026-04-19T12:31:34.507Z</time></trkpt><trkpt lat="38.8841967" lon="16.7109"><ele>22.0</ele><time>2026-04-19T12:31:35.507Z</time></trkpt><trkpt lat="38.8841367" lon="16.710765"><ele>20.75</ele><time>2026-04-19T12:31:36.507Z</time></trkpt><trkpt lat="38.8840667" lon="16.7106317"><ele>19.5</ele><time>2026-04-19T12:31:37.508Z</time></trkpt><trkpt lat="38.88398" lon="16.710495"><ele>18.25</ele><time>2026-04-19T12:31:38.507Z</time></trkpt><trkpt lat="38.8838917" lon="16.7103767"><ele>17.0</ele><time>2026-04-19T12:31:39.508Z</time></trkpt><trkpt lat="38.8838033" lon="16.7102667"><ele>16.5</ele><time>2026-04-19T12:31:40.508Z</time></trkpt><trkpt lat="38.8836967" lon="16.7101617"><ele>16.0</ele><time>2026-04-19T12:31:41.508Z</time></trkpt><trkpt lat="38.88358" lon="16.7100583"><ele>15.5</ele><time>2026-04-19T12:31:42.507Z</time></trkpt><trkpt lat="38.8834633" lon="16.7099617"><ele>15.0</ele><time>2026-04-19T12:31:43.507Z</time></trkpt><trkpt lat="38.8833483" lon="16.7098883"><ele>15.0</ele><time>2026-04-19T12:31:44.508Z</time></trkpt><trkpt lat="38.883225" lon="16.70982"><ele>15.0</ele><time>2026-04-19T12:31:45.507Z</time></trkpt><trkpt lat="38.8830933" lon="16.7097483"><ele>15.0</ele><time>2026-04-19T12:31:46.507Z</time></trkpt><trkpt lat="38.8829633" lon="16.7096767"><ele>15.0</ele><time>2026-04-19T12:31:47.507Z</time></trkpt><trkpt lat="38.8828233" lon="16.7095867"><ele>15.0</ele><time>2026-04-19T12:31:48.507Z</time></trkpt><trkpt lat="38.8826717" lon="16.709505"><ele>15.0</ele><time>2026-04-19T12:31:49.507Z</time></trkpt><trkpt lat="38.882515" lon="16.70942"><ele>15.0</ele><time>2026-04-19T12:31:50.507Z</time></trkpt><trkpt lat="38.88236" lon="16.7093267"><ele>15.333333333333332</ele><time>2026-04-19T12:31:51.508Z</time></trkpt><trkpt lat="38.8822067" lon="16.70924"><ele>15.666666666666666</ele><time>2026-04-19T12:31:52.507Z</time></trkpt><trkpt lat="38.8820517" lon="16.7091583"><ele>16.0</ele><time>2026-04-19T12:31:53.507Z</time></trkpt><trkpt lat="38.8819017" lon="16.70906"><ele>16.0</ele><time>2026-04-19T12:31:54.507Z</time></trkpt><trkpt lat="38.8817667" lon="16.7089783"><ele>16.0</ele><time>2026-04-19T12:31:55.508Z</time></trkpt><trkpt lat="38.88164" lon="16.7088867"><ele>16.0</ele><time>2026-04-19T12:31:56.508Z</time></trkpt><trkpt lat="38.8815117" lon="16.70881"><ele>16.0</ele><time>2026-04-19T12:31:57.507Z</time></trkpt><trkpt lat="38.8813817" lon="16.70874"><ele>16.0</ele><time>2026-04-19T12:31:58.508Z</time></trkpt><trkpt lat="38.8812633" lon="16.708675"><ele>16.0</ele><time>2026-04-19T12:31:59.507Z</time></trkpt><trkpt lat="38.8811483" lon="16.7086183"><ele>16.0</ele><time>2026-04-19T12:32:00.507Z</time></trkpt><trkpt lat="38.88104" lon="16.708565"><ele>16.0</ele><time>2026-04-19T12:32:01.507Z</time></trkpt><trkpt lat="38.8809233" lon="16.7085"><ele>16.0</ele><time>2026-04-19T12:32:02.507Z</time></trkpt><trkpt lat="38.88081" lon="16.70843"><ele>16.0</ele><time>2026-04-19T12:32:03.507Z</time></trkpt><trkpt lat="38.8807183" lon="16.7083783"><ele>16.0</ele><time>2026-04-19T12:32:04.507Z</time></trkpt><trkpt lat="38.8806567" lon="16.7083267"><ele>16.0</ele><time>2026-04-19T12:32:05.507Z</time></trkpt><trkpt lat="38.8805933" lon="16.7082583"><ele>16.0</ele><time>2026-04-19T12:32:07.508Z</time></trkpt><trkpt lat="38.8804467" lon="16.7081767"><ele>16.0</ele><time>2026-04-19T12:34:06.508Z</time></trkpt><trkpt lat="38.8803183" lon="16.708105"><ele>16.0</ele><time>2026-04-19T12:34:07.508Z</time></trkpt><trkpt lat="38.880155" lon="16.708025"><ele>16.0</ele><time>2026-04-19T12:34:08.507Z</time></trkpt><trkpt lat="38.8799833" lon="16.707925"><ele>16.0</ele><time>2026-04-19T12:34:09.507Z</time></trkpt><trkpt lat="38.8797867" lon="16.70782"><ele>16.0</ele><time>2026-04-19T12:34:10.507Z</time></trkpt><trkpt lat="38.87958" lon="16.7076983"><ele>16.0</ele><time>2026-04-19T12:34:11.507Z</time></trkpt><trkpt lat="38.8793583" lon="16.707575"><ele>14.5</ele><time>2026-04-19T12:34:12.507Z</time></trkpt><trkpt lat="38.8791333" lon="16.7074383"><ele>13.0</ele><time>2026-04-19T12:34:13.507Z</time></trkpt><trkpt lat="38.8788967" lon="16.7073067"><ele>13.0</ele><time>2026-04-19T12:34:14.507Z</time></trkpt><trkpt lat="38.8786567" lon="16.7071683"><ele>13.0</ele><time>2026-04-19T12:34:15.507Z</time></trkpt><trkpt lat="38.8784167" lon="16.7070183"><ele>12.0</ele><time>2026-04-19T12:34:16.507Z</time></trkpt><trkpt lat="38.8781833" lon="16.70684"><ele>11.0</ele><time>2026-04-19T12:34:17.507Z</time></trkpt><trkpt lat="38.8779817" lon="16.7066067"><ele>11.0</ele><time>2026-04-19T12:34:18.507Z</time></trkpt><trkpt lat="38.8778033" lon="16.7063283"><ele>11.0</ele><time>2026-04-19T12:34:19.507Z</time></trkpt><trkpt lat="38.8776383" lon="16.7060383"><ele>12.5</ele><time>2026-04-19T12:34:20.507Z</time></trkpt><trkpt lat="38.8774733" lon="16.705765"><ele>14.0</ele><time>2026-04-19T12:34:21.508Z</time></trkpt><trkpt lat="38.877315" lon="16.7055067"><ele>14.0</ele><time>2026-04-19T12:34:22.507Z</time></trkpt><trkpt lat="38.8771667" lon="16.7052567"><ele>14.0</ele><time>2026-04-19T12:34:23.507Z</time></trkpt><trkpt lat="38.8770233" lon="16.7050233"><ele>13.666666666666668</ele><time>2026-04-19T12:34:24.507Z</time></trkpt><trkpt lat="38.8768983" lon="16.704805"><ele>13.333333333333332</ele><time>2026-04-19T12:34:25.507Z</time></trkpt><trkpt lat="38.87677" lon="16.704585"><ele>13.0</ele><time>2026-04-19T12:34:26.508Z</time></trkpt><trkpt lat="38.8766517" lon="16.7043867"><ele>12.666666666666666</ele><time>2026-04-19T12:34:27.507Z</time></trkpt><trkpt lat="38.876545" lon="16.7041967"><ele>12.333333333333332</ele><time>2026-04-19T12:34:28.507Z</time></trkpt><trkpt lat="38.876425" lon="16.7040133"><ele>12.0</ele><time>2026-04-19T12:34:29.508Z</time></trkpt><trkpt lat="38.876315" lon="16.70384"><ele>12.0</ele><time>2026-04-19T12:34:30.508Z</time></trkpt><trkpt lat="38.8762167" lon="16.7036717"><ele>12.0</ele><time>2026-04-19T12:34:31.507Z</time></trkpt><trkpt lat="38.8761233" lon="16.70351"><ele>12.0</ele><time>2026-04-19T12:34:32.507Z</time></trkpt><trkpt lat="38.8760317" lon="16.70335"><ele>12.25</ele><time>2026-04-19T12:34:33.507Z</time></trkpt><trkpt lat="38.875945" lon="16.7032033"><ele>12.5</ele><time>2026-04-19T12:34:34.507Z</time></trkpt><trkpt lat="38.8758633" lon="16.7030533"><ele>12.75</ele><time>2026-04-19T12:34:35.507Z</time></trkpt><trkpt lat="38.875785" lon="16.7029033"><ele>13.0</ele><time>2026-04-19T12:34:36.508Z</time></trkpt><trkpt lat="38.87571" lon="16.70276"><ele>13.5</ele><time>2026-04-19T12:34:37.507Z</time></trkpt><trkpt lat="38.8756283" lon="16.702615"><ele>14.0</ele><time>2026-04-19T12:34:38.507Z</time></trkpt><trkpt lat="38.8755433" lon="16.702455"><ele>14.5</ele><time>2026-04-19T12:34:39.507Z</time></trkpt><trkpt lat="38.8754517" lon="16.70229"><ele>15.0</ele><time>2026-04-19T12:34:40.507Z</time></trkpt><trkpt lat="38.8753533" lon="16.702125"><ele>15.0</ele><time>2026-04-19T12:34:41.507Z</time></trkpt><trkpt lat="38.8752533" lon="16.7019517"><ele>15.0</ele><time>2026-04-19T12:34:42.507Z</time></trkpt><trkpt lat="38.8751517" lon="16.7017717"><ele>15.0</ele><time>2026-04-19T12:34:43.507Z</time></trkpt><trkpt lat="38.8750483" lon="16.7015867"><ele>15.333333333333332</ele><time>2026-04-19T12:34:44.507Z</time></trkpt><trkpt lat="38.8749317" lon="16.7013983"><ele>15.666666666666666</ele><time>2026-04-19T12:34:45.507Z</time></trkpt><trkpt lat="38.8748217" lon="16.7012133"><ele>16.0</ele><time>2026-04-19T12:34:46.507Z</time></trkpt><trkpt lat="38.8747133" lon="16.7010283"><ele>17.0</ele><time>2026-04-19T12:34:47.507Z</time></trkpt><trkpt lat="38.87462" lon="16.7008483"><ele>18.0</ele><time>2026-04-19T12:34:48.508Z</time></trkpt><trkpt lat="38.87453" lon="16.7007"><ele>19.0</ele><time>2026-04-19T12:34:49.507Z</time></trkpt><trkpt lat="38.87446" lon="16.700575"><ele>20.0</ele><time>2026-04-19T12:34:50.507Z</time></trkpt><trkpt lat="38.87439" lon="16.7004483"><ele>20.0</ele><time>2026-04-19T12:34:51.507Z</time></trkpt><trkpt lat="38.8743183" lon="16.700315"><ele>20.0</ele><time>2026-04-19T12:34:52.507Z</time></trkpt><trkpt lat="38.87424" lon="16.7001733"><ele>20.0</ele><time>2026-04-19T12:34:53.507Z</time></trkpt><trkpt lat="38.8741617" lon="16.70003"><ele>20.0</ele><time>2026-04-19T12:34:54.508Z</time></trkpt><trkpt lat="38.8740833" lon="16.6998817"><ele>20.25</ele><time>2026-04-19T12:34:55.508Z</time></trkpt><trkpt lat="38.8740083" lon="16.6997333"><ele>20.5</ele><time>2026-04-19T12:34:56.507Z</time></trkpt><trkpt lat="38.8739317" lon="16.6995817"><ele>20.75</ele><time>2026-04-19T12:34:57.507Z</time></trkpt><trkpt lat="38.8738583" lon="16.69943"><ele>21.0</ele><time>2026-04-19T12:34:58.507Z</time></trkpt><trkpt lat="38.8737817" lon="16.6992767"><ele>21.0</ele><time>2026-04-19T12:34:59.508Z</time></trkpt><trkpt lat="38.8737017" lon="16.6991167"><ele>21.0</ele><time>2026-04-19T12:35:00.507Z</time></trkpt><trkpt lat="38.87362" lon="16.6989483"><ele>21.0</ele><time>2026-04-19T12:35:01.507Z</time></trkpt><trkpt lat="38.8735367" lon="16.69878"><ele>21.0</ele><time>2026-04-19T12:35:02.507Z</time></trkpt><trkpt lat="38.8734467" lon="16.6985933"><ele>21.0</ele><time>2026-04-19T12:35:03.507Z</time></trkpt><trkpt lat="38.87334" lon="16.698395"><ele>21.0</ele><time>2026-04-19T12:35:04.507Z</time></trkpt><trkpt lat="38.873235" lon="16.69818"><ele>20.666666666666668</ele><time>2026-04-19T12:35:05.507Z</time></trkpt><trkpt lat="38.8731233" lon="16.6979417"><ele>20.333333333333336</ele><time>2026-04-19T12:35:06.506Z</time></trkpt><trkpt lat="38.873005" lon="16.6977017"><ele>20.0</ele><time>2026-04-19T12:35:07.506Z</time></trkpt><trkpt lat="38.8728783" lon="16.6974583"><ele>22.0</ele><time>2026-04-19T12:35:08.506Z</time></trkpt><trkpt lat="38.87275" lon="16.697205"><ele>24.0</ele><time>2026-04-19T12:35:09.507Z</time></trkpt><trkpt lat="38.8726233" lon="16.6969417"><ele>22.0</ele><time>2026-04-19T12:35:10.506Z</time></trkpt><trkpt lat="38.8724917" lon="16.6966683"><ele>20.0</ele><time>2026-04-19T12:35:11.506Z</time></trkpt><trkpt lat="38.8723467" lon="16.6963883"><ele>20.0</ele><time>2026-04-19T12:35:12.506Z</time></trkpt><trkpt lat="38.8722067" lon="16.69609"><ele>20.0</ele><time>2026-04-19T12:35:13.506Z</time></trkpt><trkpt lat="38.872065" lon="16.695805"><ele>22.0</ele><time>2026-04-19T12:35:14.506Z</time></trkpt><trkpt lat="38.8719317" lon="16.6955117"><ele>24.0</ele><time>2026-04-19T12:35:15.507Z</time></trkpt><trkpt lat="38.8717783" lon="16.69522"><ele>23.0</ele><time>2026-04-19T12:35:16.506Z</time></trkpt><trkpt lat="38.8716283" lon="16.6949367"><ele>22.0</ele><time>2026-04-19T12:35:17.506Z</time></trkpt><trkpt lat="38.8714817" lon="16.6946517"><ele>23.5</ele><time>2026-04-19T12:35:18.506Z</time></trkpt><trkpt lat="38.8713467" lon="16.6943667"><ele>25.0</ele><time>2026-04-19T12:35:19.506Z</time></trkpt><trkpt lat="38.8712183" lon="16.69409"><ele>25.0</ele><time>2026-04-19T12:35:20.506Z</time></trkpt><trkpt lat="38.8710817" lon="16.69382"><ele>25.0</ele><time>2026-04-19T12:35:21.506Z</time></trkpt><trkpt lat="38.8709467" lon="16.69354"><ele>22.0</ele><time>2026-04-19T12:35:22.506Z</time></trkpt><trkpt lat="38.8707967" lon="16.693265"><ele>19.0</ele><time>2026-04-19T12:35:23.506Z</time></trkpt><trkpt lat="38.8706567" lon="16.6929817"><ele>20.0</ele><time>2026-04-19T12:35:24.506Z</time></trkpt><trkpt lat="38.87052" lon="16.692695"><ele>21.0</ele><time>2026-04-19T12:35:25.506Z</time></trkpt><trkpt lat="38.8703767" lon="16.6924083"><ele>21.0</ele><time>2026-04-19T12:35:26.506Z</time></trkpt><trkpt lat="38.8702317" lon="16.69212"><ele>21.0</ele><time>2026-04-19T12:35:27.506Z</time></trkpt><trkpt lat="38.8700917" lon="16.6918383"><ele>20.5</ele><time>2026-04-19T12:35:28.506Z</time></trkpt><trkpt lat="38.869955" lon="16.6915483"><ele>20.0</ele><time>2026-04-19T12:35:29.506Z</time></trkpt><trkpt lat="38.8698133" lon="16.69127"><ele>22.5</ele><time>2026-04-19T12:35:30.506Z</time></trkpt><trkpt lat="38.8696717" lon="16.6909933"><ele>25.0</ele><time>2026-04-19T12:35:31.506Z</time></trkpt><trkpt lat="38.8695383" lon="16.6907167"><ele>25.0</ele><time>2026-04-19T12:35:32.506Z</time></trkpt><trkpt lat="38.8694" lon="16.69043"><ele>25.0</ele><time>2026-04-19T12:35:33.506Z</time></trkpt><trkpt lat="38.8692633" lon="16.6901417"><ele>22.0</ele><time>2026-04-19T12:35:34.506Z</time></trkpt><trkpt lat="38.8691217" lon="16.6898533"><ele>19.0</ele><time>2026-04-19T12:35:35.507Z</time></trkpt><trkpt lat="38.868985" lon="16.6895583"><ele>19.5</ele><time>2026-04-19T12:35:36.506Z</time></trkpt><trkpt lat="38.86885" lon="16.68927"><ele>20.0</ele><time>2026-04-19T12:35:37.506Z</time></trkpt><trkpt lat="38.8687067" lon="16.68898"><ele>20.0</ele><time>2026-04-19T12:35:38.506Z</time></trkpt><trkpt lat="38.8685683" lon="16.688695"><ele>20.0</ele><time>2026-04-19T12:35:39.507Z</time></trkpt><trkpt lat="38.8684267" lon="16.688405"><ele>17.5</ele><time>2026-04-19T12:35:40.507Z</time></trkpt><trkpt lat="38.8682833" lon="16.688105"><ele>15.0</ele><time>2026-04-19T12:35:41.506Z</time></trkpt><trkpt lat="38.8681417" lon="16.6878167"><ele>16.0</ele><time>2026-04-19T12:35:42.507Z</time></trkpt><trkpt lat="38.8680083" lon="16.687515"><ele>17.0</ele><time>2026-04-19T12:35:43.506Z</time></trkpt><trkpt lat="38.86787" lon="16.6872367"><ele>17.0</ele><time>2026-04-19T12:35:44.506Z</time></trkpt><trkpt lat="38.8677283" lon="16.6869533"><ele>17.0</ele><time>2026-04-19T12:35:45.506Z</time></trkpt><trkpt lat="38.8675783" lon="16.6866717"><ele>16.5</ele><time>2026-04-19T12:35:46.506Z</time></trkpt><trkpt lat="38.8674167" lon="16.6864017"><ele>16.0</ele><time>2026-04-19T12:35:47.506Z</time></trkpt><trkpt lat="38.867235" lon="16.6861417"><ele>16.0</ele><time>2026-04-19T12:35:48.506Z</time></trkpt><trkpt lat="38.86704" lon="16.6859083"><ele>16.0</ele><time>2026-04-19T12:35:49.506Z</time></trkpt><trkpt lat="38.8668367" lon="16.6856683"><ele>16.0</ele><time>2026-04-19T12:35:50.506Z</time></trkpt><trkpt lat="38.86664" lon="16.68542"><ele>16.0</ele><time>2026-04-19T12:35:51.506Z</time></trkpt><trkpt lat="38.8664367" lon="16.6851683"><ele>16.5</ele><time>2026-04-19T12:35:52.506Z</time></trkpt><trkpt lat="38.8662417" lon="16.6849167"><ele>17.0</ele><time>2026-04-19T12:35:53.506Z</time></trkpt><trkpt lat="38.86605" lon="16.6846667"><ele>16.5</ele><time>2026-04-19T12:35:54.506Z</time></trkpt><trkpt lat="38.8658583" lon="16.6844133"><ele>16.0</ele><time>2026-04-19T12:35:55.506Z</time></trkpt><trkpt lat="38.8656783" lon="16.68418"><ele>16.0</ele><time>2026-04-19T12:35:56.506Z</time></trkpt><trkpt lat="38.865505" lon="16.6839617"><ele>16.0</ele><time>2026-04-19T12:35:57.506Z</time></trkpt><trkpt lat="38.8653317" lon="16.6837567"><ele>16.5</ele><time>2026-04-19T12:35:58.507Z</time></trkpt><trkpt lat="38.86516" lon="16.6835517"><ele>17.0</ele><time>2026-04-19T12:35:59.506Z</time></trkpt><trkpt lat="38.8649867" lon="16.6833383"><ele>14.5</ele><time>2026-04-19T12:36:00.506Z</time></trkpt><trkpt lat="38.8648083" lon="16.68312"><ele>12.0</ele><time>2026-04-19T12:36:01.507Z</time></trkpt><trkpt lat="38.8646317" lon="16.682895"><ele>11.5</ele><time>2026-04-19T12:36:02.506Z</time></trkpt><trkpt lat="38.86445" lon="16.68267"><ele>11.0</ele><time>2026-04-19T12:36:03.506Z</time></trkpt><trkpt lat="38.8642633" lon="16.6824383"><ele>11.0</ele><time>2026-04-19T12:36:04.506Z</time></trkpt><trkpt lat="38.8640683" lon="16.6821983"><ele>11.0</ele><time>2026-04-19T12:36:05.507Z</time></trkpt><trkpt lat="38.86388" lon="16.68196"><ele>11.5</ele><time>2026-04-19T12:36:06.506Z</time></trkpt><trkpt lat="38.863685" lon="16.6817267"><ele>12.0</ele><time>2026-04-19T12:36:07.506Z</time></trkpt><trkpt lat="38.8634933" lon="16.6814833"><ele>11.5</ele><time>2026-04-19T12:36:08.506Z</time></trkpt><trkpt lat="38.8632983" lon="16.6812417"><ele>11.0</ele><time>2026-04-19T12:36:09.506Z</time></trkpt><trkpt lat="38.8631067" lon="16.6809983"><ele>11.0</ele><time>2026-04-19T12:36:10.507Z</time></trkpt><trkpt lat="38.86291" lon="16.680745"><ele>11.0</ele><time>2026-04-19T12:36:11.506Z</time></trkpt><trkpt lat="38.8627133" lon="16.6804967"><ele>10.0</ele><time>2026-04-19T12:36:12.507Z</time></trkpt><trkpt lat="38.86252" lon="16.680255"><ele>9.0</ele><time>2026-04-19T12:36:13.506Z</time></trkpt><trkpt lat="38.8623283" lon="16.6800133"><ele>9.0</ele><time>2026-04-19T12:36:14.506Z</time></trkpt><trkpt lat="38.862135" lon="16.6797667"><ele>9.0</ele><time>2026-04-19T12:36:15.506Z</time></trkpt><trkpt lat="38.8619467" lon="16.6795283"><ele>10.0</ele><time>2026-04-19T12:36:16.506Z</time></trkpt><trkpt lat="38.8617433" lon="16.6792917"><ele>11.0</ele><time>2026-04-19T12:36:17.506Z</time></trkpt><trkpt lat="38.861555" lon="16.6790517"><ele>11.0</ele><time>2026-04-19T12:36:18.507Z</time></trkpt><trkpt lat="38.8613533" lon="16.6788033"><ele>11.0</ele><time>2026-04-19T12:36:19.506Z</time></trkpt><trkpt lat="38.8611533" lon="16.678565"><ele>11.0</ele><time>2026-04-19T12:36:20.506Z</time></trkpt><trkpt lat="38.8609567" lon="16.678325"><ele>11.0</ele><time>2026-04-19T12:36:21.506Z</time></trkpt><trkpt lat="38.860765" lon="16.678095"><ele>11.0</ele><time>2026-04-19T12:36:22.506Z</time></trkpt><trkpt lat="38.8605733" lon="16.6778567"><ele>11.0</ele><time>2026-04-19T12:36:23.506Z</time></trkpt><trkpt lat="38.86038" lon="16.677625"><ele>11.0</ele><time>2026-04-19T12:36:24.507Z</time></trkpt><trkpt lat="38.860185" lon="16.6773817"><ele>11.0</ele><time>2026-04-19T12:36:25.507Z</time></trkpt><trkpt lat="38.8599867" lon="16.6771417"><ele>10.5</ele><time>2026-04-19T12:36:26.506Z</time></trkpt><trkpt lat="38.8597983" lon="16.6769017"><ele>10.0</ele><time>2026-04-19T12:36:27.507Z</time></trkpt><trkpt lat="38.8596133" lon="16.676665"><ele>10.0</ele><time>2026-04-19T12:36:28.506Z</time></trkpt><trkpt lat="38.8594367" lon="16.6764383"><ele>10.0</ele><time>2026-04-19T12:36:29.506Z</time></trkpt><trkpt lat="38.8592717" lon="16.6762217"><ele>10.0</ele><time>2026-04-19T12:36:30.506Z</time></trkpt><trkpt lat="38.8591033" lon="16.67602"><ele>10.0</ele><time>2026-04-19T12:36:31.506Z</time></trkpt><trkpt lat="38.858945" lon="16.6758217"><ele>10.0</ele><time>2026-04-19T12:36:32.506Z</time></trkpt><trkpt lat="38.8588033" lon="16.6756417"><ele>10.0</ele><time>2026-04-19T12:36:33.507Z</time></trkpt><trkpt lat="38.858685" lon="16.6754817"><ele>10.0</ele><time>2026-04-19T12:36:34.506Z</time></trkpt><trkpt lat="38.8585817" lon="16.67532"><ele>10.25</ele><time>2026-04-19T12:36:35.506Z</time></trkpt><trkpt lat="38.8585217" lon="16.6751633"><ele>10.5</ele><time>2026-04-19T12:36:36.506Z</time></trkpt><trkpt lat="38.8584967" lon="16.6750133"><ele>10.75</ele><time>2026-04-19T12:36:37.506Z</time></trkpt><trkpt lat="38.85849" lon="16.67488"><ele>11.0</ele><time>2026-04-19T12:36:38.507Z</time></trkpt><trkpt lat="38.8584917" lon="16.67475"><ele>11.0</ele><time>2026-04-19T12:36:39.506Z</time></trkpt><trkpt lat="38.8584733" lon="16.6746433"><ele>11.0</ele><time>2026-04-19T12:36:40.506Z</time></trkpt><trkpt lat="38.858415" lon="16.674565"><ele>11.0</ele><time>2026-04-19T12:36:41.506Z</time></trkpt><trkpt lat="38.8583383" lon="16.6745367"><ele>11.0</ele><time>2026-04-19T12:36:42.506Z</time></trkpt><trkpt lat="38.8582333" lon="16.6745417"><ele>11.0</ele><time>2026-04-19T12:36:43.506Z</time></trkpt><trkpt lat="38.8581183" lon="16.6745433"><ele>10.75</ele><time>2026-04-19T12:36:44.506Z</time></trkpt><trkpt lat="38.8579933" lon="16.6745067"><ele>10.5</ele><time>2026-04-19T12:36:45.506Z</time></trkpt><trkpt lat="38.8578533" lon="16.6744233"><ele>10.25</ele><time>2026-04-19T12:36:46.507Z</time></trkpt><trkpt lat="38.857715" lon="16.6743033"><ele>10.0</ele><time>2026-04-19T12:36:47.506Z</time></trkpt><trkpt lat="38.8575817" lon="16.6741483"><ele>10.0</ele><time>2026-04-19T12:36:48.506Z</time></trkpt><trkpt lat="38.857445" lon="16.6739683"><ele>10.0</ele><time>2026-04-19T12:36:49.506Z</time></trkpt><trkpt lat="38.8572933" lon="16.6737933"><ele>10.0</ele><time>2026-04-19T12:36:50.506Z</time></trkpt><trkpt lat="38.85713" lon="16.6736017"><ele>10.0</ele><time>2026-04-19T12:36:51.507Z</time></trkpt><trkpt lat="38.85698" lon="16.673385"><ele>10.0</ele><time>2026-04-19T12:36:52.506Z</time></trkpt><trkpt lat="38.85682" lon="16.673155"><ele>10.5</ele><time>2026-04-19T12:36:53.506Z</time></trkpt><trkpt lat="38.85665" lon="16.6729283"><ele>11.0</ele><time>2026-04-19T12:36:54.507Z</time></trkpt><trkpt lat="38.8564533" lon="16.6727083"><ele>11.0</ele><time>2026-04-19T12:36:55.507Z</time></trkpt><trkpt lat="38.8562633" lon="16.6724817"><ele>11.0</ele><time>2026-04-19T12:36:56.506Z</time></trkpt><trkpt lat="38.8560733" lon="16.6722417"><ele>11.0</ele><time>2026-04-19T12:36:57.506Z</time></trkpt><trkpt lat="38.85588" lon="16.671995"><ele>11.0</ele><time>2026-04-19T12:36:58.506Z</time></trkpt><trkpt lat="38.855685" lon="16.6717417"><ele>11.0</ele><time>2026-04-19T12:36:59.507Z</time></trkpt><trkpt lat="38.8554917" lon="16.6715"><ele>11.0</ele><time>2026-04-19T12:37:00.507Z</time></trkpt><trkpt lat="38.8553033" lon="16.6712533"><ele>11.0</ele><time>2026-04-19T12:37:01.507Z</time></trkpt><trkpt lat="38.855105" lon="16.6710133"><ele>11.0</ele><time>2026-04-19T12:37:02.506Z</time></trkpt><trkpt lat="38.8549183" lon="16.6707617"><ele>11.0</ele><time>2026-04-19T12:37:03.506Z</time></trkpt><trkpt lat="38.8547317" lon="16.6705233"><ele>11.0</ele><time>2026-04-19T12:37:04.506Z</time></trkpt><trkpt lat="38.8545483" lon="16.6702783"><ele>11.5</ele><time>2026-04-19T12:37:05.506Z</time></trkpt><trkpt lat="38.8543783" lon="16.6700233"><ele>12.0</ele><time>2026-04-19T12:37:06.506Z</time></trkpt><trkpt lat="38.854215" lon="16.6697583"><ele>12.0</ele><time>2026-04-19T12:37:07.506Z</time></trkpt><trkpt lat="38.8540567" lon="16.6694767"><ele>12.0</ele><time>2026-04-19T12:37:08.507Z</time></trkpt><trkpt lat="38.8538917" lon="16.6692017"><ele>11.5</ele><time>2026-04-19T12:37:09.507Z</time></trkpt><trkpt lat="38.853735" lon="16.6689233"><ele>11.0</ele><time>2026-04-19T12:37:10.507Z</time></trkpt><trkpt lat="38.8535767" lon="16.6686467"><ele>9.0</ele><time>2026-04-19T12:37:11.506Z</time></trkpt><trkpt lat="38.8534233" lon="16.6683733"><ele>7.0</ele><time>2026-04-19T12:37:12.506Z</time></trkpt><trkpt lat="38.853265" lon="16.6681033"><ele>7.0</ele><time>2026-04-19T12:37:13.506Z</time></trkpt><trkpt lat="38.8531117" lon="16.6678267"><ele>7.0</ele><time>2026-04-19T12:37:14.506Z</time></trkpt><trkpt lat="38.852955" lon="16.6675483"><ele>8.0</ele><time>2026-04-19T12:37:15.506Z</time></trkpt><trkpt lat="38.8528017" lon="16.66727"><ele>9.0</ele><time>2026-04-19T12:37:16.506Z</time></trkpt><trkpt lat="38.85265" lon="16.66699"><ele>9.0</ele><time>2026-04-19T12:37:17.506Z</time></trkpt><trkpt lat="38.8525017" lon="16.666715"><ele>9.0</ele><time>2026-04-19T12:37:18.506Z</time></trkpt><trkpt lat="38.8523483" lon="16.666445"><ele>9.0</ele><time>2026-04-19T12:37:19.507Z</time></trkpt><trkpt lat="38.8521933" lon="16.6661767"><ele>9.0</ele><time>2026-04-19T12:37:20.506Z</time></trkpt><trkpt lat="38.8520417" lon="16.6659167"><ele>9.0</ele><time>2026-04-19T12:37:21.507Z</time></trkpt><trkpt lat="38.8518967" lon="16.6656633"><ele>9.0</ele><time>2026-04-19T12:37:22.507Z</time></trkpt><trkpt lat="38.85176" lon="16.6654167"><ele>10.5</ele><time>2026-04-19T12:37:23.506Z</time></trkpt><trkpt lat="38.8516083" lon="16.6651867"><ele>12.0</ele><time>2026-04-19T12:37:24.506Z</time></trkpt><trkpt lat="38.8514433" lon="16.664955"><ele>12.0</ele><time>2026-04-19T12:37:25.506Z</time></trkpt><trkpt lat="38.8512517" lon="16.6647467"><ele>12.0</ele><time>2026-04-19T12:37:26.506Z</time></trkpt><trkpt lat="38.8510483" lon="16.66457"><ele>11.0</ele><time>2026-04-19T12:37:27.506Z</time></trkpt><trkpt lat="38.8508517" lon="16.6644017"><ele>10.0</ele><time>2026-04-19T12:37:28.506Z</time></trkpt><trkpt lat="38.8506567" lon="16.6642583"><ele>10.0</ele><time>2026-04-19T12:37:29.507Z</time></trkpt><trkpt lat="38.8504767" lon="16.6641133"><ele>10.0</ele><time>2026-04-19T12:37:30.506Z</time></trkpt><trkpt lat="38.8503017" lon="16.663955"><ele>10.0</ele><time>2026-04-19T12:37:31.506Z</time></trkpt><trkpt lat="38.8501283" lon="16.6637767"><ele>10.5</ele><time>2026-04-19T12:37:32.506Z</time></trkpt><trkpt lat="38.8499667" lon="16.663565"><ele>11.0</ele><time>2026-04-19T12:37:33.506Z</time></trkpt><trkpt lat="38.8498033" lon="16.6633217"><ele>11.0</ele><time>2026-04-19T12:37:34.507Z</time></trkpt><trkpt lat="38.8496383" lon="16.6630783"><ele>11.0</ele><time>2026-04-19T12:37:35.507Z</time></trkpt><trkpt lat="38.8494733" lon="16.6628233"><ele>11.0</ele><time>2026-04-19T12:37:36.507Z</time></trkpt><trkpt lat="38.849295" lon="16.6625683"><ele>11.0</ele><time>2026-04-19T12:37:37.506Z</time></trkpt><trkpt lat="38.84912" lon="16.66232"><ele>11.0</ele><time>2026-04-19T12:37:38.506Z</time></trkpt><trkpt lat="38.84894" lon="16.662065"><ele>11.0</ele><time>2026-04-19T12:37:39.506Z</time></trkpt><trkpt lat="38.84877" lon="16.6617967"><ele>11.0</ele><time>2026-04-19T12:37:40.506Z</time></trkpt><trkpt lat="38.8486017" lon="16.66152"><ele>11.0</ele><time>2026-04-19T12:37:41.506Z</time></trkpt><trkpt lat="38.8484533" lon="16.6612167"><ele>11.0</ele><time>2026-04-19T12:37:42.506Z</time></trkpt><trkpt lat="38.8483067" lon="16.6609033"><ele>11.0</ele><time>2026-04-19T12:37:43.507Z</time></trkpt><trkpt lat="38.8481583" lon="16.6605817"><ele>11.5</ele><time>2026-04-19T12:37:44.506Z</time></trkpt><trkpt lat="38.8480017" lon="16.660275"><ele>12.0</ele><time>2026-04-19T12:37:45.507Z</time></trkpt><trkpt lat="38.8478533" lon="16.6599783"><ele>12.0</ele><time>2026-04-19T12:37:46.506Z</time></trkpt><trkpt lat="38.8477083" lon="16.6596817"><ele>12.0</ele><time>2026-04-19T12:37:47.506Z</time></trkpt><trkpt lat="38.84756" lon="16.6593883"><ele>10.5</ele><time>2026-04-19T12:37:48.507Z</time></trkpt><trkpt lat="38.8474167" lon="16.6590917"><ele>9.0</ele><time>2026-04-19T12:37:49.507Z</time></trkpt><trkpt lat="38.847275" lon="16.6587967"><ele>10.0</ele><time>2026-04-19T12:37:50.506Z</time></trkpt><trkpt lat="38.84713" lon="16.6584983"><ele>11.0</ele><time>2026-04-19T12:37:51.507Z</time></trkpt><trkpt lat="38.8469867" lon="16.65821"><ele>11.0</ele><time>2026-04-19T12:37:52.506Z</time></trkpt><trkpt lat="38.8468483" lon="16.6579167"><ele>11.0</ele><time>2026-04-19T12:37:53.506Z</time></trkpt><trkpt lat="38.8467067" lon="16.6576233"><ele>11.0</ele><time>2026-04-19T12:37:54.506Z</time></trkpt><trkpt lat="38.8465617" lon="16.65734"><ele>11.0</ele><time>2026-04-19T12:37:55.506Z</time></trkpt><trkpt lat="38.8464133" lon="16.657055"><ele>12.0</ele><time>2026-04-19T12:37:56.506Z</time></trkpt><trkpt lat="38.8462667" lon="16.6567733"><ele>13.0</ele><time>2026-04-19T12:37:57.506Z</time></trkpt><trkpt lat="38.8461283" lon="16.6564817"><ele>13.0</ele><time>2026-04-19T12:37:58.506Z</time></trkpt><trkpt lat="38.845995" lon="16.656205"><ele>13.0</ele><time>2026-04-19T12:37:59.506Z</time></trkpt><trkpt lat="38.8458667" lon="16.65594"><ele>11.0</ele><time>2026-04-19T12:38:00.506Z</time></trkpt><trkpt lat="38.84574" lon="16.6556883"><ele>9.0</ele><time>2026-04-19T12:38:01.506Z</time></trkpt><trkpt lat="38.84561" lon="16.655425"><ele>9.5</ele><time>2026-04-19T12:38:02.506Z</time></trkpt><trkpt lat="38.84548" lon="16.655155"><ele>10.0</ele><time>2026-04-19T12:38:03.506Z</time></trkpt><trkpt lat="38.8453483" lon="16.654875"><ele>10.0</ele><time>2026-04-19T12:38:04.506Z</time></trkpt><trkpt lat="38.8452067" lon="16.6545983"><ele>10.0</ele><time>2026-04-19T12:38:05.506Z</time></trkpt><trkpt lat="38.84507" lon="16.6543183"><ele>9.0</ele><time>2026-04-19T12:38:06.506Z</time></trkpt><trkpt lat="38.8449233" lon="16.6540333"><ele>8.0</ele><time>2026-04-19T12:38:07.506Z</time></trkpt><trkpt lat="38.8447867" lon="16.6537483"><ele>8.0</ele><time>2026-04-19T12:38:08.506Z</time></trkpt><trkpt lat="38.8446517" lon="16.6534667"><ele>8.0</ele><time>2026-04-19T12:38:09.506Z</time></trkpt><trkpt lat="38.84452" lon="16.65319"><ele>8.0</ele><time>2026-04-19T12:38:10.506Z</time></trkpt><trkpt lat="38.8443967" lon="16.6529283"><ele>8.0</ele><time>2026-04-19T12:38:11.506Z</time></trkpt><trkpt lat="38.84428" lon="16.6526933"><ele>8.0</ele><time>2026-04-19T12:38:12.506Z</time></trkpt><trkpt lat="38.8441767" lon="16.6524617"><ele>8.0</ele><time>2026-04-19T12:38:13.506Z</time></trkpt><trkpt lat="38.84407" lon="16.6522483"><ele>8.0</ele><time>2026-04-19T12:38:14.506Z</time></trkpt><trkpt lat="38.8439667" lon="16.6520533"><ele>8.333333333333332</ele><time>2026-04-19T12:38:15.506Z</time></trkpt><trkpt lat="38.8438733" lon="16.65186"><ele>8.666666666666666</ele><time>2026-04-19T12:38:16.507Z</time></trkpt><trkpt lat="38.8437817" lon="16.6516767"><ele>9.0</ele><time>2026-04-19T12:38:17.507Z</time></trkpt><trkpt lat="38.84369" lon="16.651495"><ele>9.0</ele><time>2026-04-19T12:38:18.506Z</time></trkpt><trkpt lat="38.8436" lon="16.6513117"><ele>9.0</ele><time>2026-04-19T12:38:19.506Z</time></trkpt><trkpt lat="38.8435067" lon="16.6511267"><ele>9.0</ele><time>2026-04-19T12:38:20.506Z</time></trkpt><trkpt lat="38.8434167" lon="16.6509417"><ele>8.666666666666666</ele><time>2026-04-19T12:38:21.507Z</time></trkpt><trkpt lat="38.8433283" lon="16.6507683"><ele>8.333333333333332</ele><time>2026-04-19T12:38:22.506Z</time></trkpt><trkpt lat="38.8432433" lon="16.6506017"><ele>8.0</ele><time>2026-04-19T12:38:23.506Z</time></trkpt><trkpt lat="38.8431733" lon="16.65044"><ele>8.0</ele><time>2026-04-19T12:38:24.506Z</time></trkpt><trkpt lat="38.8431217" lon="16.6503017"><ele>8.0</ele><time>2026-04-19T12:38:25.506Z</time></trkpt><trkpt lat="38.8431" lon="16.6501717"><ele>8.0</ele><time>2026-04-19T12:38:26.507Z</time></trkpt><trkpt lat="38.8431167" lon="16.6500533"><ele>8.0</ele><time>2026-04-19T12:38:27.506Z</time></trkpt><trkpt lat="38.843155" lon="16.6499533"><ele>8.0</ele><time>2026-04-19T12:38:28.506Z</time></trkpt><trkpt lat="38.84321" lon="16.6498667"><ele>8.166666666666666</ele><time>2026-04-19T12:38:29.507Z</time></trkpt><trkpt lat="38.8432733" lon="16.6497817"><ele>8.333333333333332</ele><time>2026-04-19T12:38:30.506Z</time></trkpt><trkpt lat="38.8433367" lon="16.6497083"><ele>8.5</ele><time>2026-04-19T12:38:31.506Z</time></trkpt><trkpt lat="38.8433933" lon="16.6496333"><ele>8.666666666666666</ele><time>2026-04-19T12:38:32.507Z</time></trkpt><trkpt lat="38.843445" lon="16.6495483"><ele>8.833333333333334</ele><time>2026-04-19T12:38:33.506Z</time></trkpt><trkpt lat="38.8434817" lon="16.64945"><ele>9.0</ele><time>2026-04-19T12:38:34.506Z</time></trkpt><trkpt lat="38.843485" lon="16.6493517"><ele>9.166666666666666</ele><time>2026-04-19T12:38:35.506Z</time></trkpt><trkpt lat="38.8434533" lon="16.6492567"><ele>9.333333333333334</ele><time>2026-04-19T12:38:36.506Z</time></trkpt><trkpt lat="38.8434017" lon="16.649165"><ele>9.5</ele><time>2026-04-19T12:38:37.506Z</time></trkpt><trkpt lat="38.8433383" lon="16.6490867"><ele>9.666666666666668</ele><time>2026-04-19T12:38:38.506Z</time></trkpt><trkpt lat="38.84326" lon="16.6490317"><ele>9.833333333333334</ele><time>2026-04-19T12:38:39.507Z</time></trkpt><trkpt lat="38.84317" lon="16.6490017"><ele>10.0</ele><time>2026-04-19T12:38:40.506Z</time></trkpt><trkpt lat="38.8430833" lon="16.64901"><ele>10.0</ele><time>2026-04-19T12:38:41.506Z</time></trkpt><trkpt lat="38.8429933" lon="16.6490333"><ele>10.0</ele><time>2026-04-19T12:38:42.506Z</time></trkpt><trkpt lat="38.842905" lon="16.64909"><ele>10.0</ele><time>2026-04-19T12:38:43.506Z</time></trkpt><trkpt lat="38.842835" lon="16.649175"><ele>10.0</ele><time>2026-04-19T12:38:44.506Z</time></trkpt><trkpt lat="38.8428017" lon="16.649265"><ele>10.0</ele><time>2026-04-19T12:38:45.506Z</time></trkpt><trkpt lat="38.842795" lon="16.64938"><ele>9.8</ele><time>2026-04-19T12:38:46.506Z</time></trkpt><trkpt lat="38.8428033" lon="16.6495067"><ele>9.6</ele><time>2026-04-19T12:38:47.506Z</time></trkpt><trkpt lat="38.8428367" lon="16.6496317"><ele>9.4</ele><time>2026-04-19T12:38:48.506Z</time></trkpt><trkpt lat="38.8428883" lon="16.6497333"><ele>9.2</ele><time>2026-04-19T12:38:49.506Z</time></trkpt><trkpt lat="38.8429583" lon="16.6498017"><ele>9.0</ele><time>2026-04-19T12:38:50.506Z</time></trkpt><trkpt lat="38.8430417" lon="16.6498433"><ele>9.0</ele><time>2026-04-19T12:38:51.506Z</time></trkpt><trkpt lat="38.843135" lon="16.6498633"><ele>9.0</ele><time>2026-04-19T12:38:52.506Z</time></trkpt><trkpt lat="38.843235" lon="16.6498467"><ele>9.0</ele><time>2026-04-19T12:38:53.506Z</time></trkpt><trkpt lat="38.843315" lon="16.6497883"><ele>9.0</ele><time>2026-04-19T12:38:54.506Z</time></trkpt><trkpt lat="38.8433717" lon="16.6496933"><ele>9.0</ele><time>2026-04-19T12:38:55.506Z</time></trkpt><trkpt lat="38.8434133" lon="16.649585"><ele>9.0</ele><time>2026-04-19T12:38:56.506Z</time></trkpt><trkpt lat="38.8434317" lon="16.649465"><ele>9.0</ele><time>2026-04-19T12:38:57.507Z</time></trkpt><trkpt lat="38.843425" lon="16.6493367"><ele>9.0</ele><time>2026-04-19T12:38:58.506Z</time></trkpt><trkpt lat="38.843385" lon="16.6492233"><ele>9.0</ele><time>2026-04-19T12:38:59.507Z</time></trkpt><trkpt lat="38.8433267" lon="16.6491183"><ele>9.0</ele><time>2026-04-19T12:39:00.506Z</time></trkpt><trkpt lat="38.8432333" lon="16.649035"><ele>9.25</ele><time>2026-04-19T12:39:01.507Z</time></trkpt><trkpt lat="38.8431167" lon="16.649015"><ele>9.5</ele><time>2026-04-19T12:39:02.507Z</time></trkpt><trkpt lat="38.8429867" lon="16.6490233"><ele>9.75</ele><time>2026-04-19T12:39:03.506Z</time></trkpt><trkpt lat="38.8428583" lon="16.6490267"><ele>10.0</ele><time>2026-04-19T12:39:04.506Z</time></trkpt><trkpt lat="38.8427317" lon="16.6490033"><ele>10.25</ele><time>2026-04-19T12:39:05.506Z</time></trkpt><trkpt lat="38.8426117" lon="16.6489533"><ele>10.5</ele><time>2026-04-19T12:39:06.506Z</time></trkpt><trkpt lat="38.8424933" lon="16.6488567"><ele>10.75</ele><time>2026-04-19T12:39:07.506Z</time></trkpt><trkpt lat="38.842375" lon="16.64873"><ele>11.0</ele><time>2026-04-19T12:39:08.506Z</time></trkpt><trkpt lat="38.842265" lon="16.6485783"><ele>11.0</ele><time>2026-04-19T12:39:09.506Z</time></trkpt><trkpt lat="38.8421617" lon="16.6484017"><ele>11.0</ele><time>2026-04-19T12:39:10.506Z</time></trkpt><trkpt lat="38.8420717" lon="16.648205"><ele>11.0</ele><time>2026-04-19T12:39:11.506Z</time></trkpt><trkpt lat="38.8419833" lon="16.648"><ele>11.0</ele><time>2026-04-19T12:39:12.506Z</time></trkpt><trkpt lat="38.8418833" lon="16.6477983"><ele>11.0</ele><time>2026-04-19T12:39:13.506Z</time></trkpt><trkpt lat="38.8417933" lon="16.6476"><ele>11.0</ele><time>2026-04-19T12:39:14.506Z</time></trkpt><trkpt lat="38.8417133" lon="16.64741"><ele>11.0</ele><time>2026-04-19T12:39:15.506Z</time></trkpt><trkpt lat="38.8416433" lon="16.6472283"><ele>11.0</ele><time>2026-04-19T12:39:16.506Z</time></trkpt><trkpt lat="38.8415767" lon="16.6470667"><ele>11.0</ele><time>2026-04-19T12:39:17.507Z</time></trkpt><trkpt lat="38.8415167" lon="16.64692"><ele>11.0</ele><time>2026-04-19T12:39:18.506Z</time></trkpt><trkpt lat="38.8414683" lon="16.6467917"><ele>11.333333333333332</ele><time>2026-04-19T12:39:19.506Z</time></trkpt><trkpt lat="38.841435" lon="16.6466917"><ele>11.666666666666666</ele><time>2026-04-19T12:39:20.506Z</time></trkpt><trkpt lat="38.8414083" lon="16.6466167"><ele>12.0</ele><time>2026-04-19T12:39:21.506Z</time></trkpt><trkpt lat="38.8414083" lon="16.646535"><ele>12.333333333333332</ele><time>2026-04-19T12:39:22.506Z</time></trkpt><trkpt lat="38.8414283" lon="16.6464483"><ele>12.666666666666666</ele><time>2026-04-19T12:39:23.506Z</time></trkpt><trkpt lat="38.8414733" lon="16.6463533"><ele>13.0</ele><time>2026-04-19T12:39:24.506Z</time></trkpt><trkpt lat="38.8415267" lon="16.6462633"><ele>13.0</ele><time>2026-04-19T12:39:25.507Z</time></trkpt><trkpt lat="38.8415817" lon="16.6461633"><ele>13.0</ele><time>2026-04-19T12:39:26.507Z</time></trkpt><trkpt lat="38.8416317" lon="16.646045"><ele>13.0</ele><time>2026-04-19T12:39:27.507Z</time></trkpt><trkpt lat="38.841685" lon="16.6459333"><ele>13.0</ele><time>2026-04-19T12:39:28.507Z</time></trkpt><trkpt lat="38.841735" lon="16.6458167"><ele>13.0</ele><time>2026-04-19T12:39:29.506Z</time></trkpt><trkpt lat="38.8417883" lon="16.6457083"><ele>13.499999999999998</ele><time>2026-04-19T12:39:30.507Z</time></trkpt><trkpt lat="38.8418333" lon="16.6456083"><ele>14.0</ele><time>2026-04-19T12:39:31.506Z</time></trkpt><trkpt lat="38.8418733" lon="16.64552"><ele>14.5</ele><time>2026-04-19T12:39:32.506Z</time></trkpt><trkpt lat="38.8419033" lon="16.6454467"><ele>15.0</ele><time>2026-04-19T12:39:33.506Z</time></trkpt><trkpt lat="38.8419633" lon="16.6453433"><ele>15.499999999999998</ele><time>2026-04-19T12:39:35.506Z</time></trkpt><trkpt lat="38.8420617" lon="16.6453033"><ele>16.0</ele><time>2026-04-19T12:39:37.506Z</time></trkpt><trkpt lat="38.8421533" lon="16.6453533"><ele>16.0</ele><time>2026-04-19T12:39:39.506Z</time></trkpt><trkpt lat="38.842215" lon="16.6455033"><ele>16.0</ele><time>2026-04-19T12:39:41.507Z</time></trkpt><trkpt lat="38.8422283" lon="16.6455917"><ele>16.0</ele><time>2026-04-19T12:39:42.507Z</time></trkpt><trkpt lat="38.8422217" lon="16.6457033"><ele>16.0</ele><time>2026-04-19T12:39:43.506Z</time></trkpt><trkpt lat="38.8422017" lon="16.6458167"><ele>16.0</ele><time>2026-04-19T12:39:44.506Z</time></trkpt><trkpt lat="38.84216" lon="16.6459417"><ele>16.0</ele><time>2026-04-19T12:39:45.507Z</time></trkpt><trkpt lat="38.84212" lon="16.64607"><ele>16.0</ele><time>2026-04-19T12:39:46.507Z</time></trkpt><trkpt lat="38.8420767" lon="16.6462083"><ele>16.0</ele><time>2026-04-19T12:39:47.506Z</time></trkpt><trkpt lat="38.84204" lon="16.6463517"><ele>16.0</ele><time>2026-04-19T12:39:48.506Z</time></trkpt><trkpt lat="38.8420117" lon="16.6464933"><ele>15.666666666666666</ele><time>2026-04-19T12:39:49.506Z</time></trkpt><trkpt lat="38.84199" lon="16.6466217"><ele>15.333333333333332</ele><time>2026-04-19T12:39:50.506Z</time></trkpt><trkpt lat="38.8419867" lon="16.646745"><ele>15.0</ele><time>2026-04-19T12:39:51.506Z</time></trkpt><trkpt lat="38.8419933" lon="16.6468517"><ele>14.666666666666668</ele><time>2026-04-19T12:39:52.506Z</time></trkpt><trkpt lat="38.842005" lon="16.6469533"><ele>14.333333333333334</ele><time>2026-04-19T12:39:53.506Z</time></trkpt><trkpt lat="38.8420217" lon="16.6470567"><ele>14.0</ele><time>2026-04-19T12:39:54.507Z</time></trkpt><trkpt lat="38.8420433" lon="16.647155"><ele>13.666666666666668</ele><time>2026-04-19T12:39:55.506Z</time></trkpt><trkpt lat="38.8420783" lon="16.6472617"><ele>13.333333333333334</ele><time>2026-04-19T12:39:56.506Z</time></trkpt><trkpt lat="38.8421117" lon="16.6473533"><ele>13.0</ele><time>2026-04-19T12:39:57.506Z</time></trkpt><trkpt lat="38.8421417" lon="16.6474267"><ele>12.666666666666668</ele><time>2026-04-19T12:39:58.506Z</time></trkpt><trkpt lat="38.8422083" lon="16.6475383"><ele>12.333333333333334</ele><time>2026-04-19T12:40:00.506Z</time></trkpt><trkpt lat="38.842255" lon="16.6475967"><ele>12.0</ele><time>2026-04-19T12:40:01.507Z</time></trkpt><trkpt lat="38.8423133" lon="16.6476617"><ele>12.0</ele><time>2026-04-19T12:40:02.506Z</time></trkpt><trkpt lat="38.842375" lon="16.64773"><ele>12.0</ele><time>2026-04-19T12:40:03.506Z</time></trkpt><trkpt lat="38.8424367" lon="16.6477867"><ele>12.0</ele><time>2026-04-19T12:40:04.507Z</time></trkpt><trkpt lat="38.8424933" lon="16.647825"><ele>12.0</ele><time>2026-04-19T12:40:05.507Z</time></trkpt><trkpt lat="38.842585" lon="16.64788"><ele>12.0</ele><time>2026-04-19T12:40:07.506Z</time></trkpt><trkpt lat="38.8426967" lon="16.6479517"><ele>12.0</ele><time>2026-04-19T12:40:09.506Z</time></trkpt><trkpt lat="38.8427683" lon="16.647985"><ele>11.8</ele><time>2026-04-19T12:40:10.506Z</time></trkpt><trkpt lat="38.8428583" lon="16.648015"><ele>11.6</ele><time>2026-04-19T12:40:11.506Z</time></trkpt><trkpt lat="38.84296" lon="16.6480383"><ele>11.4</ele><time>2026-04-19T12:40:12.506Z</time></trkpt><trkpt lat="38.8430767" lon="16.6480583"><ele>11.200000000000001</ele><time>2026-04-19T12:40:13.506Z</time></trkpt><trkpt lat="38.843205" lon="16.648085"><ele>11.0</ele><time>2026-04-19T12:40:14.507Z</time></trkpt><trkpt lat="38.843335" lon="16.648115"><ele>11.333333333333332</ele><time>2026-04-19T12:40:15.506Z</time></trkpt><trkpt lat="38.8434833" lon="16.6481483"><ele>11.666666666666666</ele><time>2026-04-19T12:40:16.506Z</time></trkpt><trkpt lat="38.843635" lon="16.6481767"><ele>12.0</ele><time>2026-04-19T12:40:17.507Z</time></trkpt><trkpt lat="38.8437883" lon="16.6481933"><ele>12.0</ele><time>2026-04-19T12:40:18.507Z</time></trkpt><trkpt lat="38.8439483" lon="16.6481917"><ele>12.0</ele><time>2026-04-19T12:40:19.507Z</time></trkpt><trkpt lat="38.8441033" lon="16.6481833"><ele>12.0</ele><time>2026-04-19T12:40:20.506Z</time></trkpt><trkpt lat="38.8442583" lon="16.6481667"><ele>12.0</ele><time>2026-04-19T12:40:21.506Z</time></trkpt><trkpt lat="38.844395" lon="16.648145"><ele>12.0</ele><time>2026-04-19T12:40:22.507Z</time></trkpt><trkpt lat="38.8445267" lon="16.64811"><ele>12.0</ele><time>2026-04-19T12:40:23.506Z</time></trkpt><trkpt lat="38.8446583" lon="16.6480783"><ele>12.0</ele><time>2026-04-19T12:40:24.506Z</time></trkpt><trkpt lat="38.8447617" lon="16.6480467"><ele>12.0</ele><time>2026-04-19T12:40:25.506Z</time></trkpt><trkpt lat="38.8448367" lon="16.6480183"><ele>12.0</ele><time>2026-04-19T12:40:26.506Z</time></trkpt><trkpt lat="38.8449183" lon="16.6479883"><ele>12.0</ele><time>2026-04-19T12:40:27.506Z</time></trkpt><trkpt lat="38.845015" lon="16.6479567"><ele>12.0</ele><time>2026-04-19T12:40:28.506Z</time></trkpt><trkpt lat="38.8451283" lon="16.647915"><ele>12.0</ele><time>2026-04-19T12:40:29.506Z</time></trkpt><trkpt lat="38.845265" lon="16.647875"><ele>12.0</ele><time>2026-04-19T12:40:30.507Z</time></trkpt><trkpt lat="38.845425" lon="16.6478167"><ele>12.0</ele><time>2026-04-19T12:40:31.506Z</time></trkpt><trkpt lat="38.845595" lon="16.6477533"><ele>12.0</ele><time>2026-04-19T12:40:32.506Z</time></trkpt><trkpt lat="38.845775" lon="16.64768"><ele>12.666666666666668</ele><time>2026-04-19T12:40:33.507Z</time></trkpt><trkpt lat="38.84595" lon="16.6476017"><ele>13.333333333333334</ele><time>2026-04-19T12:40:34.506Z</time></trkpt><trkpt lat="38.8461233" lon="16.6475217"><ele>14.0</ele><time>2026-04-19T12:40:35.507Z</time></trkpt><trkpt lat="38.8462783" lon="16.6474467"><ele>14.0</ele><time>2026-04-19T12:40:36.507Z</time></trkpt><trkpt lat="38.84643" lon="16.6473717"><ele>14.0</ele><time>2026-04-19T12:40:37.506Z</time></trkpt><trkpt lat="38.8465733" lon="16.6473017"><ele>14.0</ele><time>2026-04-19T12:40:38.506Z</time></trkpt><trkpt lat="38.8467033" lon="16.6472233"><ele>13.5</ele><time>2026-04-19T12:40:39.506Z</time></trkpt><trkpt lat="38.8468167" lon="16.6471333"><ele>13.0</ele><time>2026-04-19T12:40:40.506Z</time></trkpt><trkpt lat="38.84691" lon="16.6470317"><ele>12.5</ele><time>2026-04-19T12:40:41.506Z</time></trkpt><trkpt lat="38.84697" lon="16.6469217"><ele>12.0</ele><time>2026-04-19T12:40:42.506Z</time></trkpt><trkpt lat="38.84702" lon="16.6468067"><ele>12.8</ele><time>2026-04-19T12:40:43.506Z</time></trkpt><trkpt lat="38.8470567" lon="16.6467067"><ele>13.6</ele><time>2026-04-19T12:40:44.506Z</time></trkpt><trkpt lat="38.8470817" lon="16.64661"><ele>14.400000000000002</ele><time>2026-04-19T12:40:45.506Z</time></trkpt><trkpt lat="38.8470967" lon="16.64652"><ele>15.200000000000001</ele><time>2026-04-19T12:40:46.506Z</time></trkpt><trkpt lat="38.8471283" lon="16.64638"><ele>16.0</ele><time>2026-04-19T12:40:48.506Z</time></trkpt><trkpt lat="38.8471417" lon="16.6462467"><ele>16.0</ele><time>2026-04-19T12:40:50.506Z</time></trkpt><trkpt lat="38.8471033" lon="16.6461383"><ele>16.0</ele><time>2026-04-19T12:40:52.506Z</time></trkpt><trkpt lat="38.847015" lon="16.64605"><ele>16.0</ele><time>2026-04-19T12:40:54.506Z</time></trkpt><trkpt lat="38.84691" lon="16.6460183"><ele>16.0</ele><time>2026-04-19T12:40:56.507Z</time></trkpt><trkpt lat="38.8467983" lon="16.6460583"><ele>16.0</ele><time>2026-04-19T12:40:58.506Z</time></trkpt><trkpt lat="38.846725" lon="16.6461483"><ele>16.0</ele><time>2026-04-19T12:41:00.506Z</time></trkpt><trkpt lat="38.84666" lon="16.646245"><ele>16.0</ele><time>2026-04-19T12:41:02.506Z</time></trkpt><trkpt lat="38.8465783" lon="16.64637"><ele>16.0</ele><time>2026-04-19T12:41:04.506Z</time></trkpt><trkpt lat="38.8465317" lon="16.6464317"><ele>16.0</ele><time>2026-04-19T12:41:05.506Z</time></trkpt><trkpt lat="38.84648" lon="16.6464883"><ele>16.0</ele><time>2026-04-19T12:41:06.507Z</time></trkpt><trkpt lat="38.846385" lon="16.64658"><ele>15.999999999999998</ele><time>2026-04-19T12:41:08.506Z</time></trkpt><trkpt lat="38.846295" lon="16.64665"><ele>16.0</ele><time>2026-04-19T12:41:10.506Z</time></trkpt><trkpt lat="38.84622" lon="16.6467"><ele>16.0</ele><time>2026-04-19T12:41:12.506Z</time></trkpt><trkpt lat="38.8461467" lon="16.6467483"><ele>16.0</ele><time>2026-04-19T12:41:14.506Z</time></trkpt><trkpt lat="38.84608" lon="16.6468117"><ele>15.999999999999998</ele><time>2026-04-19T12:41:16.506Z</time></trkpt><trkpt lat="38.845995" lon="16.6468583"><ele>16.0</ele><time>2026-04-19T12:41:18.507Z</time></trkpt><trkpt lat="38.8459167" lon="16.6468983"><ele>15.833333333333332</ele><time>2026-04-19T12:41:20.506Z</time></trkpt><trkpt lat="38.8458483" lon="16.6469317"><ele>15.666666666666666</ele><time>2026-04-19T12:41:22.506Z</time></trkpt><trkpt lat="38.845775" lon="16.6469517"><ele>15.5</ele><time>2026-04-19T12:41:25.506Z</time></trkpt><trkpt lat="38.8457433" lon="16.646865"><ele>15.333333333333332</ele><time>2026-04-19T12:41:29.506Z</time></trkpt><trkpt lat="38.845652" lon="16.6468101"><ele>15.166666666666666</ele><time>2026-04-19T12:43:56.925Z</time></trkpt><trkpt lat="38.8456323" lon="16.6467293"><ele>15.0</ele><time>2026-04-19T12:44:03.11Z</time></trkpt><trkpt lat="38.8456099" lon="16.6466452"><ele>15.0</ele><time>2026-04-19T12:44:09.39Z</time></trkpt><trkpt lat="38.845553" lon="16.6465992"><ele>15.0</ele><time>2026-04-19T12:44:16.61Z</time></trkpt><trkpt lat="38.8454709" lon="16.6465981"><ele>15.0</ele><time>2026-04-19T12:44:21.69Z</time></trkpt><trkpt lat="38.8454048" lon="16.6466014"><ele>15.0</ele><time>2026-04-19T12:44:26.63Z</time></trkpt><trkpt lat="38.8453522" lon="16.6466629"><ele>15.0</ele><time>2026-04-19T12:44:30.19Z</time></trkpt><trkpt lat="38.8452959" lon="16.6467003"><ele>15.0</ele><time>2026-04-19T12:44:33.792Z</time></trkpt><trkpt lat="38.8452305" lon="16.646719"><ele>15.0</ele><time>2026-04-19T12:44:38.69Z</time></trkpt><trkpt lat="38.8451742" lon="16.6466666"><ele>14.833333333333334</ele><time>2026-04-19T12:44:42.29Z</time></trkpt><trkpt lat="38.8450988" lon="16.6466797"><ele>14.666666666666668</ele><time>2026-04-19T12:44:47.03Z</time></trkpt><trkpt lat="38.8450319" lon="16.6467025"><ele>14.5</ele><time>2026-04-19T12:44:54.23Z</time></trkpt><trkpt lat="38.8449676" lon="16.6467298"><ele>14.333333333333334</ele><time>2026-04-19T12:45:00.51Z</time></trkpt><trkpt lat="38.8449204" lon="16.6468007"><ele>14.166666666666668</ele><time>2026-04-19T12:45:05.63Z</time></trkpt><trkpt lat="38.8448587" lon="16.6468482"><ele>14.0</ele><time>2026-04-19T12:45:13.264Z</time></trkpt><trkpt lat="38.844885" lon="16.6467232"><ele>14.0</ele><time>2026-04-19T12:45:15.825Z</time></trkpt><trkpt lat="38.8448864" lon="16.6466197"><ele>14.0</ele><time>2026-04-19T12:45:19.47Z</time></trkpt><trkpt lat="38.8448385" lon="16.6465646"><ele>14.0</ele><time>2026-04-19T12:45:25.47Z</time></trkpt><trkpt lat="38.8447796" lon="16.6466077"><ele>14.0</ele><time>2026-04-19T12:45:30.225Z</time></trkpt><trkpt lat="38.8447053" lon="16.6465484"><ele>14.0</ele><time>2026-04-19T12:45:36.149Z</time></trkpt><trkpt lat="38.8446505" lon="16.6465002"><ele>14.0</ele><time>2026-04-19T12:45:40.91Z</time></trkpt><trkpt lat="38.8445893" lon="16.6464706"><ele>14.0</ele><time>2026-04-19T12:45:46.926Z</time></trkpt><trkpt lat="38.8445258" lon="16.6464599"><ele>14.0</ele><time>2026-04-19T12:45:52.95Z</time></trkpt><trkpt lat="38.8444643" lon="16.6464303"><ele>13.999999999999998</ele><time>2026-04-19T12:45:58.95Z</time></trkpt><trkpt lat="38.8444036" lon="16.6463717"><ele>13.999999999999998</ele><time>2026-04-19T12:46:06.105Z</time></trkpt><trkpt lat="38.8443388" lon="16.6463746"><ele>14.0</ele><time>2026-04-19T12:46:11.17Z</time></trkpt><trkpt lat="38.8443306" lon="16.6464991"><ele>14.0</ele><time>2026-04-19T12:46:20.278Z</time></trkpt><trkpt lat="38.8445645" lon="16.6464755"><ele>14.0</ele><time>2026-04-19T12:47:38.164Z</time></trkpt><trkpt lat="38.8446345" lon="16.646506"><ele>14.0</ele><time>2026-04-19T12:47:43.185Z</time></trkpt><trkpt lat="38.8447051" lon="16.6465152"><ele>14.0</ele><time>2026-04-19T12:47:49.351Z</time></trkpt><trkpt lat="38.8447729" lon="16.6465002"><ele>14.0</ele><time>2026-04-19T12:47:56.07Z</time></trkpt><trkpt lat="38.8448387" lon="16.6465116"><ele>14.0</ele><time>2026-04-19T12:48:03.366Z</time></trkpt><trkpt lat="38.8448784" lon="16.6465841"><ele>14.0</ele><time>2026-04-19T12:48:10.471Z</time></trkpt><trkpt lat="38.8449359" lon="16.6466381"><ele>14.0</ele><time>2026-04-19T12:48:17.83Z</time></trkpt><trkpt lat="38.844969" lon="16.6467156"><ele>14.000000000000002</ele><time>2026-04-19T12:48:28.13Z</time></trkpt><trkpt lat="38.8448859" lon="16.6467912"><ele>14.0</ele><time>2026-04-19T12:50:47.069Z</time></trkpt><trkpt lat="38.8449537" lon="16.646738"><ele>14.0</ele><time>2026-04-19T12:55:18.258Z</time></trkpt><trkpt lat="38.8449316" lon="16.6468599"><ele>14.0</ele><time>2026-04-19T13:03:37.848Z</time></trkpt><trkpt lat="38.8449789" lon="16.6467624"><ele>14.000000000000002</ele><time>2026-04-19T13:12:07.818Z</time></trkpt><trkpt lat="38.844947" lon="16.6466837"><ele>14.0</ele><time>2026-04-19T13:17:45.162Z</time></trkpt><trkpt lat="38.8449603" lon="16.6466041"><ele>14.0</ele><time>2026-04-19T13:17:52.911Z</time></trkpt><trkpt lat="38.8450082" lon="16.6465205"><ele>14.0</ele><time>2026-04-19T13:17:58.415Z</time></trkpt><trkpt lat="38.8450253" lon="16.6466617"><ele>14.0</ele><time>2026-04-19T13:19:05.747Z</time></trkpt><trkpt lat="38.8450672" lon="16.6465824"><ele>14.0</ele><time>2026-04-19T13:20:47.68Z</time></trkpt><trkpt lat="38.8453263" lon="16.646535"><ele>14.2</ele><time>2026-04-19T13:21:32.844Z</time></trkpt><trkpt lat="38.8454006" lon="16.64677"><ele>14.399999999999999</ele><time>2026-04-19T13:21:38.069Z</time></trkpt><trkpt lat="38.8453959" lon="16.6466576"><ele>14.6</ele><time>2026-04-19T13:21:49.861Z</time></trkpt><trkpt lat="38.8454501" lon="16.6466024"><ele>14.8</ele><time>2026-04-19T13:22:00.321Z</time></trkpt><trkpt lat="38.8454988" lon="16.6465336"><ele>15.0</ele><time>2026-04-19T13:22:04.04Z</time></trkpt><trkpt lat="38.8455542" lon="16.6464803"><ele>15.0</ele><time>2026-04-19T13:22:10.421Z</time></trkpt><trkpt lat="38.8456192" lon="16.6465552"><ele>15.0</ele><time>2026-04-19T13:22:14.201Z</time></trkpt><trkpt lat="38.8456381" lon="16.6466383"><ele>15.0</ele><time>2026-04-19T13:22:19.161Z</time></trkpt><trkpt lat="38.8456661" lon="16.6467171"><ele>15.0</ele><time>2026-04-19T13:22:25.361Z</time></trkpt><trkpt lat="38.8457285" lon="16.6467444"><ele>15.0</ele><time>2026-04-19T13:22:35.479Z</time></trkpt><trkpt lat="38.8456331" lon="16.6467186"><ele>15.0</ele><time>2026-04-19T13:22:54.021Z</time></trkpt><trkpt lat="38.8456021" lon="16.6468"><ele>15.0</ele><time>2026-04-19T13:22:58.421Z</time></trkpt><trkpt lat="38.8455995" lon="16.6468824"><ele>15.0</ele><time>2026-04-19T13:23:02.48Z</time></trkpt><trkpt lat="38.8456463" lon="16.6469595"><ele>15.0</ele><time>2026-04-19T13:23:06.521Z</time></trkpt><trkpt lat="38.8456777" lon="16.6468847"><ele>15.0</ele><time>2026-04-19T13:23:19.568Z</time></trkpt><trkpt lat="38.8456493" lon="16.6467562"><ele>15.0</ele><time>2026-04-19T13:23:44.569Z</time></trkpt><trkpt lat="38.8457092" lon="16.6467112"><ele>15.0</ele><time>2026-04-19T13:23:50.589Z</time></trkpt><trkpt lat="38.8457305" lon="16.646792"><ele>15.0</ele><time>2026-04-19T13:24:07.59Z</time></trkpt><trkpt lat="38.8456642" lon="16.6467844"><ele>15.0</ele><time>2026-04-19T13:24:17.589Z</time></trkpt><trkpt lat="38.8457422" lon="16.646783"><ele>15.0</ele><time>2026-04-19T13:24:36.561Z</time></trkpt><trkpt lat="38.8458083" lon="16.6467863"><ele>15.0</ele><time>2026-04-19T13:24:39.568Z</time></trkpt><trkpt lat="38.8458715" lon="16.6467707"><ele>15.0</ele><time>2026-04-19T13:24:48.568Z</time></trkpt><trkpt lat="38.845854" lon="16.6468513"><ele>15.0</ele><time>2026-04-19T13:26:05.569Z</time></trkpt><trkpt lat="38.8458738" lon="16.646765"><ele>15.0</ele><time>2026-04-19T13:30:29.568Z</time></trkpt><trkpt lat="38.8458237" lon="16.6468272"><ele>15.0</ele><time>2026-04-19T13:31:19.569Z</time></trkpt><trkpt lat="38.8457613" lon="16.6468595"><ele>15.0</ele><time>2026-04-19T13:31:28.481Z</time></trkpt><trkpt lat="38.845699" lon="16.6468427"><ele>15.0</ele><time>2026-04-19T13:31:38.568Z</time></trkpt><trkpt lat="38.8456494" lon="16.6468975"><ele>15.0</ele><time>2026-04-19T13:32:47.568Z</time></trkpt><trkpt lat="38.8456923" lon="16.6469981"><ele>15.0</ele><time>2026-04-19T13:34:44.536Z</time></trkpt><trkpt lat="38.8456867" lon="16.646915"><ele>15.0</ele><time>2026-04-19T13:34:48.512Z</time></trkpt><trkpt lat="38.84567" lon="16.6470083"><ele>15.0</ele><time>2026-04-19T13:35:01.512Z</time></trkpt><trkpt lat="38.845595" lon="16.647055"><ele>15.0</ele><time>2026-04-19T13:35:05.511Z</time></trkpt><trkpt lat="38.8455367" lon="16.6470867"><ele>14.833333333333334</ele><time>2026-04-19T13:35:08.512Z</time></trkpt><trkpt lat="38.84546" lon="16.647105"><ele>14.666666666666668</ele><time>2026-04-19T13:35:11.511Z</time></trkpt><trkpt lat="38.8453767" lon="16.6471383"><ele>14.5</ele><time>2026-04-19T13:35:14.511Z</time></trkpt><trkpt lat="38.8453083" lon="16.647165"><ele>14.333333333333334</ele><time>2026-04-19T13:35:17.511Z</time></trkpt><trkpt lat="38.8452267" lon="16.6472"><ele>14.166666666666668</ele><time>2026-04-19T13:35:20.511Z</time></trkpt><trkpt lat="38.8451467" lon="16.6472183"><ele>14.0</ele><time>2026-04-19T13:35:23.511Z</time></trkpt><trkpt lat="38.8450833" lon="16.6472017"><ele>13.6</ele><time>2026-04-19T13:35:31.511Z</time></trkpt><trkpt lat="38.8449667" lon="16.6472217"><ele>13.2</ele><time>2026-04-19T13:35:34.511Z</time></trkpt><trkpt lat="38.8448783" lon="16.6472417"><ele>12.799999999999999</ele><time>2026-04-19T13:35:37.511Z</time></trkpt><trkpt lat="38.8448" lon="16.6472317"><ele>12.399999999999999</ele><time>2026-04-19T13:35:39.511Z</time></trkpt><trkpt lat="38.844715" lon="16.6472083"><ele>12.0</ele><time>2026-04-19T13:35:41.511Z</time></trkpt><trkpt lat="38.8446267" lon="16.64718"><ele>12.0</ele><time>2026-04-19T13:35:43.512Z</time></trkpt><trkpt lat="38.8445417" lon="16.6471433"><ele>12.0</ele><time>2026-04-19T13:35:45.511Z</time></trkpt><trkpt lat="38.844465" lon="16.6471017"><ele>12.0</ele><time>2026-04-19T13:35:47.511Z</time></trkpt><trkpt lat="38.8444033" lon="16.64707"><ele>12.0</ele><time>2026-04-19T13:35:49.512Z</time></trkpt><trkpt lat="38.844335" lon="16.647045"><ele>12.0</ele><time>2026-04-19T13:35:52.511Z</time></trkpt><trkpt lat="38.84427" lon="16.6470067"><ele>12.0</ele><time>2026-04-19T13:35:57.511Z</time></trkpt><trkpt lat="38.8442117" lon="16.6469583"><ele>12.0</ele><time>2026-04-19T13:36:01.512Z</time></trkpt><trkpt lat="38.8441483" lon="16.6469017"><ele>12.0</ele><time>2026-04-19T13:36:04.511Z</time></trkpt><trkpt lat="38.8440867" lon="16.6468733"><ele>12.0</ele><time>2026-04-19T13:36:06.511Z</time></trkpt><trkpt lat="38.8440167" lon="16.6468067"><ele>12.0</ele><time>2026-04-19T13:36:09.511Z</time></trkpt><trkpt lat="38.843945" lon="16.6467533"><ele>12.0</ele><time>2026-04-19T13:36:12.511Z</time></trkpt><trkpt lat="38.8438767" lon="16.64673"><ele>12.0</ele><time>2026-04-19T13:36:15.511Z</time></trkpt><trkpt lat="38.8438117" lon="16.6466867"><ele>12.0</ele><time>2026-04-19T13:36:18.511Z</time></trkpt><trkpt lat="38.8437517" lon="16.6466467"><ele>12.0</ele><time>2026-04-19T13:36:21.512Z</time></trkpt><trkpt lat="38.8436717" lon="16.646595"><ele>12.0</ele><time>2026-04-19T13:36:25.511Z</time></trkpt><trkpt lat="38.8435933" lon="16.6465333"><ele>12.0</ele><time>2026-04-19T13:36:28.511Z</time></trkpt><trkpt lat="38.8435267" lon="16.6464767"><ele>12.0</ele><time>2026-04-19T13:36:31.512Z</time></trkpt><trkpt lat="38.84345" lon="16.6464033"><ele>12.0</ele><time>2026-04-19T13:36:34.512Z</time></trkpt><trkpt lat="38.8433833" lon="16.646345"><ele>12.166666666666666</ele><time>2026-04-19T13:36:36.511Z</time></trkpt><trkpt lat="38.8433283" lon="16.6462717"><ele>12.333333333333332</ele><time>2026-04-19T13:36:38.511Z</time></trkpt><trkpt lat="38.8432833" lon="16.6461933"><ele>12.5</ele><time>2026-04-19T13:36:41.512Z</time></trkpt><trkpt lat="38.8432433" lon="16.6461117"><ele>12.666666666666666</ele><time>2026-04-19T13:36:44.512Z</time></trkpt><trkpt lat="38.8432117" lon="16.6460317"><ele>12.833333333333332</ele><time>2026-04-19T13:36:47.511Z</time></trkpt><trkpt lat="38.8431733" lon="16.6459367"><ele>13.0</ele><time>2026-04-19T13:36:49.511Z</time></trkpt><trkpt lat="38.8431467" lon="16.6458417"><ele>13.666666666666666</ele><time>2026-04-19T13:36:51.511Z</time></trkpt><trkpt lat="38.84314" lon="16.64574"><ele>14.333333333333332</ele><time>2026-04-19T13:36:53.511Z</time></trkpt><trkpt lat="38.8431383" lon="16.6455867"><ele>15.0</ele><time>2026-04-19T13:36:55.512Z</time></trkpt><trkpt lat="38.8431367" lon="16.6454983"><ele>15.666666666666668</ele><time>2026-04-19T13:36:56.512Z</time></trkpt><trkpt lat="38.843135" lon="16.6454"><ele>16.333333333333336</ele><time>2026-04-19T13:36:57.511Z</time></trkpt><trkpt lat="38.843135" lon="16.6453067"><ele>17.0</ele><time>2026-04-19T13:36:58.511Z</time></trkpt><trkpt lat="38.8431383" lon="16.6452033"><ele>17.5</ele><time>2026-04-19T13:36:59.511Z</time></trkpt><trkpt lat="38.843145" lon="16.6450983"><ele>18.0</ele><time>2026-04-19T13:37:00.511Z</time></trkpt><trkpt lat="38.84315" lon="16.6449967"><ele>18.5</ele><time>2026-04-19T13:37:01.511Z</time></trkpt><trkpt lat="38.843155" lon="16.6449083"><ele>19.0</ele><time>2026-04-19T13:37:02.511Z</time></trkpt><trkpt lat="38.843145" lon="16.64478"><ele>19.5</ele><time>2026-04-19T13:37:04.511Z</time></trkpt><trkpt lat="38.84305" lon="16.6447617"><ele>20.0</ele><time>2026-04-19T13:37:06.511Z</time></trkpt><trkpt lat="38.8429783" lon="16.644785"><ele>20.0</ele><time>2026-04-19T13:37:07.511Z</time></trkpt><trkpt lat="38.8428933" lon="16.644825"><ele>20.0</ele><time>2026-04-19T13:37:08.512Z</time></trkpt><trkpt lat="38.8428083" lon="16.6448467"><ele>20.0</ele><time>2026-04-19T13:37:09.512Z</time></trkpt><trkpt lat="38.8427233" lon="16.644865"><ele>20.0</ele><time>2026-04-19T13:37:10.511Z</time></trkpt><trkpt lat="38.8426383" lon="16.644885"><ele>20.0</ele><time>2026-04-19T13:37:11.511Z</time></trkpt><trkpt lat="38.8425533" lon="16.6449167"><ele>20.0</ele><time>2026-04-19T13:37:12.511Z</time></trkpt><trkpt lat="38.8424667" lon="16.6449417"><ele>19.857142857142858</ele><time>2026-04-19T13:37:13.512Z</time></trkpt><trkpt lat="38.842385" lon="16.644965"><ele>19.714285714285715</ele><time>2026-04-19T13:37:14.512Z</time></trkpt><trkpt lat="38.84231" lon="16.64498"><ele>19.57142857142857</ele><time>2026-04-19T13:37:15.512Z</time></trkpt><trkpt lat="38.8422367" lon="16.644985"><ele>19.42857142857143</ele><time>2026-04-19T13:37:16.512Z</time></trkpt><trkpt lat="38.8421683" lon="16.6449817"><ele>19.28571428571429</ele><time>2026-04-19T13:37:17.513Z</time></trkpt><trkpt lat="38.8421017" lon="16.64497"><ele>19.142857142857142</ele><time>2026-04-19T13:37:18.512Z</time></trkpt><trkpt lat="38.8420333" lon="16.64496"><ele>19.0</ele><time>2026-04-19T13:37:19.512Z</time></trkpt><trkpt lat="38.8419667" lon="16.6449617"><ele>19.0</ele><time>2026-04-19T13:37:20.512Z</time></trkpt><trkpt lat="38.8419067" lon="16.6449933"><ele>19.0</ele><time>2026-04-19T13:37:21.511Z</time></trkpt><trkpt lat="38.84184" lon="16.645115"><ele>19.0</ele><time>2026-04-19T13:37:23.512Z</time></trkpt><trkpt lat="38.841835" lon="16.6452567"><ele>19.0</ele><time>2026-04-19T13:37:25.512Z</time></trkpt><trkpt lat="38.8418383" lon="16.645375"><ele>19.0</ele><time>2026-04-19T13:37:27.513Z</time></trkpt><trkpt lat="38.8418267" lon="16.6454617"><ele>18.5</ele><time>2026-04-19T13:37:29.513Z</time></trkpt><trkpt lat="38.84181" lon="16.6455567"><ele>18.0</ele><time>2026-04-19T13:37:32.512Z</time></trkpt><trkpt lat="38.8417783" lon="16.645645"><ele>17.5</ele><time>2026-04-19T13:37:34.512Z</time></trkpt><trkpt lat="38.8417483" lon="16.6457283"><ele>17.0</ele><time>2026-04-19T13:37:36.512Z</time></trkpt><trkpt lat="38.8416983" lon="16.645805"><ele>16.5</ele><time>2026-04-19T13:37:59.512Z</time></trkpt><trkpt lat="38.8416483" lon="16.64594"><ele>16.0</ele><time>2026-04-19T13:38:01.513Z</time></trkpt><trkpt lat="38.8416133" lon="16.6460333"><ele>15.499999999999998</ele><time>2026-04-19T13:38:02.512Z</time></trkpt><trkpt lat="38.841575" lon="16.6461283"><ele>15.0</ele><time>2026-04-19T13:38:03.512Z</time></trkpt><trkpt lat="38.841535" lon="16.6462183"><ele>14.5</ele><time>2026-04-19T13:38:04.512Z</time></trkpt><trkpt lat="38.8414883" lon="16.6462967"><ele>14.0</ele><time>2026-04-19T13:38:05.512Z</time></trkpt><trkpt lat="38.84143" lon="16.6463533"><ele>13.499999999999998</ele><time>2026-04-19T13:38:06.513Z</time></trkpt><trkpt lat="38.8413617" lon="16.6463733"><ele>13.0</ele><time>2026-04-19T13:38:07.512Z</time></trkpt><trkpt lat="38.84129" lon="16.64635"><ele>12.999999999999998</ele><time>2026-04-19T13:38:08.512Z</time></trkpt><trkpt lat="38.84122" lon="16.6462983"><ele>13.0</ele><time>2026-04-19T13:38:09.512Z</time></trkpt><trkpt lat="38.841155" lon="16.6462267"><ele>13.0</ele><time>2026-04-19T13:38:10.512Z</time></trkpt><trkpt lat="38.8410933" lon="16.6461467"><ele>13.0</ele><time>2026-04-19T13:38:11.512Z</time></trkpt><trkpt lat="38.84104" lon="16.6460483"><ele>12.999999999999998</ele><time>2026-04-19T13:38:12.512Z</time></trkpt><trkpt lat="38.8409867" lon="16.6459417"><ele>13.0</ele><time>2026-04-19T13:38:13.512Z</time></trkpt><trkpt lat="38.8409283" lon="16.64582"><ele>13.5</ele><time>2026-04-19T13:38:14.512Z</time></trkpt><trkpt lat="38.8408683" lon="16.645695"><ele>14.0</ele><time>2026-04-19T13:38:15.512Z</time></trkpt><trkpt lat="38.8408017" lon="16.64556"><ele>14.5</ele><time>2026-04-19T13:38:16.512Z</time></trkpt><trkpt lat="38.8407317" lon="16.6454167"><ele>15.0</ele><time>2026-04-19T13:38:17.513Z</time></trkpt><trkpt lat="38.84066" lon="16.6452667"><ele>15.5</ele><time>2026-04-19T13:38:18.513Z</time></trkpt><trkpt lat="38.8405883" lon="16.64511"><ele>16.0</ele><time>2026-04-19T13:38:19.512Z</time></trkpt><trkpt lat="38.8405067" lon="16.6449617"><ele>16.5</ele><time>2026-04-19T13:38:20.513Z</time></trkpt><trkpt lat="38.840425" lon="16.6448117"><ele>17.0</ele><time>2026-04-19T13:38:21.513Z</time></trkpt><trkpt lat="38.8403467" lon="16.6446433"><ele>17.0</ele><time>2026-04-19T13:38:22.512Z</time></trkpt><trkpt lat="38.840265" lon="16.6444783"><ele>17.0</ele><time>2026-04-19T13:38:23.512Z</time></trkpt><trkpt lat="38.8401817" lon="16.644315"><ele>17.0</ele><time>2026-04-19T13:38:24.512Z</time></trkpt><trkpt lat="38.8401" lon="16.64415"><ele>17.333333333333336</ele><time>2026-04-19T13:38:25.512Z</time></trkpt><trkpt lat="38.84002" lon="16.6439817"><ele>17.666666666666668</ele><time>2026-04-19T13:38:26.513Z</time></trkpt><trkpt lat="38.8399383" lon="16.6438133"><ele>18.0</ele><time>2026-04-19T13:38:27.513Z</time></trkpt><trkpt lat="38.8398567" lon="16.6436533"><ele>18.75</ele><time>2026-04-19T13:38:28.512Z</time></trkpt><trkpt lat="38.8397767" lon="16.6435017"><ele>19.5</ele><time>2026-04-19T13:38:29.512Z</time></trkpt><trkpt lat="38.8396983" lon="16.64335"><ele>20.25</ele><time>2026-04-19T13:38:30.513Z</time></trkpt><trkpt lat="38.8396217" lon="16.6432017"><ele>21.0</ele><time>2026-04-19T13:38:31.513Z</time></trkpt><trkpt lat="38.8395433" lon="16.643055"><ele>21.0</ele><time>2026-04-19T13:38:32.513Z</time></trkpt><trkpt lat="38.8394667" lon="16.6429033"><ele>21.0</ele><time>2026-04-19T13:38:33.512Z</time></trkpt><trkpt lat="38.8393883" lon="16.6427483"><ele>21.0</ele><time>2026-04-19T13:38:34.513Z</time></trkpt><trkpt lat="38.839315" lon="16.6425933"><ele>21.0</ele><time>2026-04-19T13:38:35.512Z</time></trkpt><trkpt lat="38.8392417" lon="16.6424417"><ele>21.0</ele><time>2026-04-19T13:38:36.512Z</time></trkpt><trkpt lat="38.8391667" lon="16.6422917"><ele>21.0</ele><time>2026-04-19T13:38:37.512Z</time></trkpt><trkpt lat="38.839085" lon="16.6421383"><ele>21.0</ele><time>2026-04-19T13:38:38.512Z</time></trkpt><trkpt lat="38.839005" lon="16.6419833"><ele>21.0</ele><time>2026-04-19T13:38:39.512Z</time></trkpt><trkpt lat="38.8389217" lon="16.64182"><ele>22.333333333333336</ele><time>2026-04-19T13:38:40.512Z</time></trkpt><trkpt lat="38.8388333" lon="16.6416533"><ele>23.666666666666668</ele><time>2026-04-19T13:38:41.512Z</time></trkpt><trkpt lat="38.8387433" lon="16.6414833"><ele>25.0</ele><time>2026-04-19T13:38:42.512Z</time></trkpt><trkpt lat="38.8386467" lon="16.6413133"><ele>25.0</ele><time>2026-04-19T13:38:43.512Z</time></trkpt><trkpt lat="38.838545" lon="16.64114"><ele>25.0</ele><time>2026-04-19T13:38:44.512Z</time></trkpt><trkpt lat="38.8384417" lon="16.6409667"><ele>25.0</ele><time>2026-04-19T13:38:45.512Z</time></trkpt><trkpt lat="38.83833" lon="16.6407917"><ele>25.0</ele><time>2026-04-19T13:38:46.512Z</time></trkpt><trkpt lat="38.8382217" lon="16.6406183"><ele>25.0</ele><time>2026-04-19T13:38:47.512Z</time></trkpt><trkpt lat="38.8381117" lon="16.6404433"><ele>25.0</ele><time>2026-04-19T13:38:48.512Z</time></trkpt><trkpt lat="38.8380017" lon="16.640265"><ele>25.666666666666668</ele><time>2026-04-19T13:38:49.512Z</time></trkpt><trkpt lat="38.8378883" lon="16.6400817"><ele>26.333333333333336</ele><time>2026-04-19T13:38:50.512Z</time></trkpt><trkpt lat="38.837775" lon="16.6398983"><ele>27.0</ele><time>2026-04-19T13:38:51.513Z</time></trkpt><trkpt lat="38.83766" lon="16.6397133"><ele>26.333333333333336</ele><time>2026-04-19T13:38:52.512Z</time></trkpt><trkpt lat="38.837545" lon="16.6395283"><ele>25.666666666666668</ele><time>2026-04-19T13:38:53.512Z</time></trkpt><trkpt lat="38.8374267" lon="16.6393417"><ele>25.0</ele><time>2026-04-19T13:38:54.512Z</time></trkpt><trkpt lat="38.8373117" lon="16.639155"><ele>25.0</ele><time>2026-04-19T13:38:55.513Z</time></trkpt><trkpt lat="38.8371967" lon="16.63898"><ele>25.0</ele><time>2026-04-19T13:38:56.512Z</time></trkpt><trkpt lat="38.8370867" lon="16.6388083"><ele>25.0</ele><time>2026-04-19T13:38:57.512Z</time></trkpt><trkpt lat="38.8369767" lon="16.6386383"><ele>24.666666666666668</ele><time>2026-04-19T13:38:58.513Z</time></trkpt><trkpt lat="38.8368667" lon="16.638465"><ele>24.333333333333336</ele><time>2026-04-19T13:38:59.512Z</time></trkpt><trkpt lat="38.8367567" lon="16.6382917"><ele>24.0</ele><time>2026-04-19T13:39:00.513Z</time></trkpt><trkpt lat="38.8366467" lon="16.6381167"><ele>24.0</ele><time>2026-04-19T13:39:01.512Z</time></trkpt><trkpt lat="38.8365383" lon="16.6379433"><ele>24.0</ele><time>2026-04-19T13:39:02.512Z</time></trkpt><trkpt lat="38.8364283" lon="16.63777"><ele>24.0</ele><time>2026-04-19T13:39:03.512Z</time></trkpt><trkpt lat="38.8363217" lon="16.6375983"><ele>25.0</ele><time>2026-04-19T13:39:04.512Z</time></trkpt><trkpt lat="38.8362133" lon="16.6374317"><ele>26.0</ele><time>2026-04-19T13:39:05.512Z</time></trkpt><trkpt lat="38.8361067" lon="16.6372683"><ele>27.0</ele><time>2026-04-19T13:39:06.512Z</time></trkpt><trkpt lat="38.8360017" lon="16.6371067"><ele>25.333333333333332</ele><time>2026-04-19T13:39:07.512Z</time></trkpt><trkpt lat="38.8358967" lon="16.6369533"><ele>23.666666666666664</ele><time>2026-04-19T13:39:08.512Z</time></trkpt><trkpt lat="38.835785" lon="16.6368067"><ele>22.0</ele><time>2026-04-19T13:39:09.512Z</time></trkpt><trkpt lat="38.8356683" lon="16.6366667"><ele>22.0</ele><time>2026-04-19T13:39:10.512Z</time></trkpt><trkpt lat="38.8355533" lon="16.63653"><ele>22.0</ele><time>2026-04-19T13:39:11.513Z</time></trkpt><trkpt lat="38.8354567" lon="16.636375"><ele>22.0</ele><time>2026-04-19T13:39:12.512Z</time></trkpt><trkpt lat="38.8353633" lon="16.6362133"><ele>21.0</ele><time>2026-04-19T13:39:13.512Z</time></trkpt><trkpt lat="38.8352617" lon="16.6360617"><ele>20.0</ele><time>2026-04-19T13:39:14.512Z</time></trkpt><trkpt lat="38.835165" lon="16.6359083"><ele>19.0</ele><time>2026-04-19T13:39:15.512Z</time></trkpt><trkpt lat="38.835075" lon="16.6357433"><ele>19.0</ele><time>2026-04-19T13:39:16.512Z</time></trkpt><trkpt lat="38.8349867" lon="16.63557"><ele>19.0</ele><time>2026-04-19T13:39:17.512Z</time></trkpt><trkpt lat="38.8348917" lon="16.6353917"><ele>19.0</ele><time>2026-04-19T13:39:18.512Z</time></trkpt><trkpt lat="38.8347917" lon="16.6352117"><ele>19.0</ele><time>2026-04-19T13:39:19.512Z</time></trkpt><trkpt lat="38.8346867" lon="16.635035"><ele>19.0</ele><time>2026-04-19T13:39:20.512Z</time></trkpt><trkpt lat="38.8345767" lon="16.6348617"><ele>19.0</ele><time>2026-04-19T13:39:21.512Z</time></trkpt><trkpt lat="38.8344667" lon="16.6346883"><ele>19.0</ele><time>2026-04-19T13:39:22.512Z</time></trkpt><trkpt lat="38.834355" lon="16.63451"><ele>19.0</ele><time>2026-04-19T13:39:23.512Z</time></trkpt><trkpt lat="38.8342417" lon="16.6343317"><ele>19.0</ele><time>2026-04-19T13:39:24.512Z</time></trkpt><trkpt lat="38.834125" lon="16.6341517"><ele>19.333333333333332</ele><time>2026-04-19T13:39:25.512Z</time></trkpt><trkpt lat="38.8340117" lon="16.6339733"><ele>19.666666666666668</ele><time>2026-04-19T13:39:26.512Z</time></trkpt><trkpt lat="38.8338983" lon="16.6337933"><ele>20.0</ele><time>2026-04-19T13:39:27.512Z</time></trkpt><trkpt lat="38.8337833" lon="16.6336117"><ele>20.0</ele><time>2026-04-19T13:39:28.512Z</time></trkpt><trkpt lat="38.833665" lon="16.6334317"><ele>20.0</ele><time>2026-04-19T13:39:29.513Z</time></trkpt><trkpt lat="38.833545" lon="16.6332467"><ele>20.0</ele><time>2026-04-19T13:39:30.512Z</time></trkpt><trkpt lat="38.833425" lon="16.633055"><ele>20.666666666666668</ele><time>2026-04-19T13:39:31.512Z</time></trkpt><trkpt lat="38.8333033" lon="16.6328617"><ele>21.333333333333332</ele><time>2026-04-19T13:39:32.512Z</time></trkpt><trkpt lat="38.8331783" lon="16.6326683"><ele>22.0</ele><time>2026-04-19T13:39:33.512Z</time></trkpt><trkpt lat="38.8330583" lon="16.632475"><ele>22.0</ele><time>2026-04-19T13:39:34.512Z</time></trkpt><trkpt lat="38.8329367" lon="16.6322817"><ele>22.0</ele><time>2026-04-19T13:39:35.512Z</time></trkpt><trkpt lat="38.832815" lon="16.63209"><ele>22.0</ele><time>2026-04-19T13:39:36.512Z</time></trkpt><trkpt lat="38.8326933" lon="16.631895"><ele>20.666666666666664</ele><time>2026-04-19T13:39:37.513Z</time></trkpt><trkpt lat="38.83257" lon="16.6317"><ele>19.333333333333332</ele><time>2026-04-19T13:39:38.512Z</time></trkpt><trkpt lat="38.8324433" lon="16.6315"><ele>18.0</ele><time>2026-04-19T13:39:39.512Z</time></trkpt><trkpt lat="38.8323167" lon="16.6313"><ele>19.666666666666668</ele><time>2026-04-19T13:39:40.512Z</time></trkpt><trkpt lat="38.83219" lon="16.6310983"><ele>21.333333333333336</ele><time>2026-04-19T13:39:41.512Z</time></trkpt><trkpt lat="38.8320633" lon="16.6308983"><ele>23.0</ele><time>2026-04-19T13:39:42.512Z</time></trkpt><trkpt lat="38.8319383" lon="16.6307017"><ele>23.0</ele><time>2026-04-19T13:39:43.512Z</time></trkpt><trkpt lat="38.8318183" lon="16.6305117"><ele>23.0</ele><time>2026-04-19T13:39:44.512Z</time></trkpt><trkpt lat="38.8317033" lon="16.6303333"><ele>23.0</ele><time>2026-04-19T13:39:45.512Z</time></trkpt><trkpt lat="38.8315917" lon="16.63017"><ele>22.25</ele><time>2026-04-19T13:39:46.512Z</time></trkpt><trkpt lat="38.83149" lon="16.6300183"><ele>21.5</ele><time>2026-04-19T13:39:47.511Z</time></trkpt><trkpt lat="38.8313933" lon="16.6298733"><ele>20.75</ele><time>2026-04-19T13:39:48.511Z</time></trkpt><trkpt lat="38.8313017" lon="16.6297317"><ele>20.0</ele><time>2026-04-19T13:39:49.511Z</time></trkpt><trkpt lat="38.8312167" lon="16.62959"><ele>19.5</ele><time>2026-04-19T13:39:50.511Z</time></trkpt><trkpt lat="38.8311333" lon="16.6294467"><ele>19.0</ele><time>2026-04-19T13:39:51.511Z</time></trkpt><trkpt lat="38.8310533" lon="16.6293033"><ele>18.5</ele><time>2026-04-19T13:39:52.511Z</time></trkpt><trkpt lat="38.8309767" lon="16.6291533"><ele>18.0</ele><time>2026-04-19T13:39:53.511Z</time></trkpt><trkpt lat="38.8309" lon="16.628995"><ele>18.0</ele><time>2026-04-19T13:39:54.511Z</time></trkpt><trkpt lat="38.8308217" lon="16.628825"><ele>18.0</ele><time>2026-04-19T13:39:55.511Z</time></trkpt><trkpt lat="38.8307467" lon="16.6286417"><ele>18.0</ele><time>2026-04-19T13:39:56.511Z</time></trkpt><trkpt lat="38.83067" lon="16.6284533"><ele>19.25</ele><time>2026-04-19T13:39:57.512Z</time></trkpt><trkpt lat="38.8305917" lon="16.6283017"><ele>20.5</ele><time>2026-04-19T13:39:58.511Z</time></trkpt><trkpt lat="38.830515" lon="16.6281417"><ele>21.75</ele><time>2026-04-19T13:39:59.512Z</time></trkpt><trkpt lat="38.8304383" lon="16.6279733"><ele>23.0</ele><time>2026-04-19T13:40:00.511Z</time></trkpt><trkpt lat="38.830365" lon="16.6278033"><ele>23.333333333333336</ele><time>2026-04-19T13:40:01.511Z</time></trkpt><trkpt lat="38.83029" lon="16.627615"><ele>23.666666666666668</ele><time>2026-04-19T13:40:02.511Z</time></trkpt><trkpt lat="38.8302183" lon="16.62742"><ele>24.0</ele><time>2026-04-19T13:40:03.511Z</time></trkpt><trkpt lat="38.8301367" lon="16.6272267"><ele>22.0</ele><time>2026-04-19T13:40:04.512Z</time></trkpt><trkpt lat="38.8300583" lon="16.627035"><ele>20.0</ele><time>2026-04-19T13:40:05.512Z</time></trkpt><trkpt lat="38.8299817" lon="16.6268517"><ele>18.0</ele><time>2026-04-19T13:40:06.512Z</time></trkpt><trkpt lat="38.8299067" lon="16.626675"><ele>18.0</ele><time>2026-04-19T13:40:07.511Z</time></trkpt><trkpt lat="38.8298367" lon="16.6265"><ele>18.0</ele><time>2026-04-19T13:40:08.511Z</time></trkpt><trkpt lat="38.8297717" lon="16.626325"><ele>18.0</ele><time>2026-04-19T13:40:09.511Z</time></trkpt><trkpt lat="38.8297033" lon="16.626155"><ele>19.0</ele><time>2026-04-19T13:40:10.511Z</time></trkpt><trkpt lat="38.8296417" lon="16.62599"><ele>20.0</ele><time>2026-04-19T13:40:11.512Z</time></trkpt><trkpt lat="38.82959" lon="16.62583"><ele>21.0</ele><time>2026-04-19T13:40:12.511Z</time></trkpt><trkpt lat="38.8295533" lon="16.62567"><ele>22.0</ele><time>2026-04-19T13:40:13.511Z</time></trkpt><trkpt lat="38.829525" lon="16.6255133"><ele>22.0</ele><time>2026-04-19T13:40:14.511Z</time></trkpt><trkpt lat="38.8295017" lon="16.6253633"><ele>22.0</ele><time>2026-04-19T13:40:15.511Z</time></trkpt><trkpt lat="38.8294817" lon="16.6252283"><ele>22.0</ele><time>2026-04-19T13:40:16.511Z</time></trkpt><trkpt lat="38.8294633" lon="16.6251083"><ele>22.0</ele><time>2026-04-19T13:40:17.512Z</time></trkpt><trkpt lat="38.8294433" lon="16.625015"><ele>22.0</ele><time>2026-04-19T13:40:18.511Z</time></trkpt><trkpt lat="38.8294033" lon="16.6248983"><ele>22.0</ele><time>2026-04-19T13:40:20.511Z</time></trkpt><trkpt lat="38.829365" lon="16.624825"><ele>22.0</ele><time>2026-04-19T13:40:22.511Z</time></trkpt><trkpt lat="38.8293233" lon="16.6247517"><ele>22.0</ele><time>2026-04-19T13:40:24.511Z</time></trkpt><trkpt lat="38.829265" lon="16.6246367"><ele>22.0</ele><time>2026-04-19T13:40:26.511Z</time></trkpt><trkpt lat="38.8292233" lon="16.62456"><ele>22.0</ele><time>2026-04-19T13:40:27.511Z</time></trkpt><trkpt lat="38.8291783" lon="16.6244733"><ele>22.0</ele><time>2026-04-19T13:40:28.511Z</time></trkpt><trkpt lat="38.8291283" lon="16.6243683"><ele>22.25</ele><time>2026-04-19T13:40:29.511Z</time></trkpt><trkpt lat="38.8290733" lon="16.624245"><ele>22.5</ele><time>2026-04-19T13:40:30.511Z</time></trkpt><trkpt lat="38.8290133" lon="16.624105"><ele>22.75</ele><time>2026-04-19T13:40:31.512Z</time></trkpt><trkpt lat="38.8289233" lon="16.6239483"><ele>23.0</ele><time>2026-04-19T13:40:32.511Z</time></trkpt><trkpt lat="38.8288317" lon="16.6237683"><ele>22.333333333333336</ele><time>2026-04-19T13:40:33.512Z</time></trkpt><trkpt lat="38.8287333" lon="16.6235817"><ele>21.666666666666668</ele><time>2026-04-19T13:40:34.511Z</time></trkpt><trkpt lat="38.8286317" lon="16.6234083"><ele>21.0</ele><time>2026-04-19T13:40:35.512Z</time></trkpt><trkpt lat="38.8285367" lon="16.6232267"><ele>21.0</ele><time>2026-04-19T13:40:36.511Z</time></trkpt><trkpt lat="38.8284383" lon="16.6230333"><ele>21.0</ele><time>2026-04-19T13:40:37.511Z</time></trkpt><trkpt lat="38.8283317" lon="16.622845"><ele>21.0</ele><time>2026-04-19T13:40:38.511Z</time></trkpt><trkpt lat="38.8282283" lon="16.62265"><ele>21.0</ele><time>2026-04-19T13:40:39.511Z</time></trkpt><trkpt lat="38.8281283" lon="16.62246"><ele>21.0</ele><time>2026-04-19T13:40:40.511Z</time></trkpt><trkpt lat="38.8280317" lon="16.6222767"><ele>21.0</ele><time>2026-04-19T13:40:41.511Z</time></trkpt><trkpt lat="38.827935" lon="16.622105"><ele>21.666666666666668</ele><time>2026-04-19T13:40:42.511Z</time></trkpt><trkpt lat="38.82782" lon="16.6219267"><ele>22.333333333333336</ele><time>2026-04-19T13:40:43.512Z</time></trkpt><trkpt lat="38.827705" lon="16.62176"><ele>23.0</ele><time>2026-04-19T13:40:44.512Z</time></trkpt><trkpt lat="38.8275733" lon="16.62162"><ele>21.25</ele><time>2026-04-19T13:40:45.511Z</time></trkpt><trkpt lat="38.82744" lon="16.621525"><ele>19.5</ele><time>2026-04-19T13:40:46.512Z</time></trkpt><trkpt lat="38.827305" lon="16.6214583"><ele>17.75</ele><time>2026-04-19T13:40:47.511Z</time></trkpt><trkpt lat="38.82717" lon="16.6214217"><ele>16.0</ele><time>2026-04-19T13:40:48.511Z</time></trkpt><trkpt lat="38.8270483" lon="16.6213933"><ele>16.0</ele><time>2026-04-19T13:40:49.511Z</time></trkpt><trkpt lat="38.8269367" lon="16.62138"><ele>16.0</ele><time>2026-04-19T13:40:50.511Z</time></trkpt><trkpt lat="38.826835" lon="16.62138"><ele>16.0</ele><time>2026-04-19T13:40:51.511Z</time></trkpt><trkpt lat="38.8267567" lon="16.6213783"><ele>16.0</ele><time>2026-04-19T13:40:52.511Z</time></trkpt><trkpt lat="38.82669" lon="16.62137"><ele>16.0</ele><time>2026-04-19T13:40:53.511Z</time></trkpt><trkpt lat="38.8265883" lon="16.6213617"><ele>15.200000000000001</ele><time>2026-04-19T13:40:55.511Z</time></trkpt><trkpt lat="38.826435" lon="16.6213433"><ele>14.400000000000002</ele><time>2026-04-19T13:42:19.511Z</time></trkpt><trkpt lat="38.8263117" lon="16.62133"><ele>13.6</ele><time>2026-04-19T13:42:21.511Z</time></trkpt><trkpt lat="38.8262383" lon="16.6213167"><ele>12.8</ele><time>2026-04-19T13:42:22.511Z</time></trkpt><trkpt lat="38.8261617" lon="16.6213"><ele>12.0</ele><time>2026-04-19T13:42:23.511Z</time></trkpt><trkpt lat="38.8260817" lon="16.6212783"><ele>12.0</ele><time>2026-04-19T13:42:24.512Z</time></trkpt><trkpt lat="38.8259983" lon="16.62124"><ele>12.0</ele><time>2026-04-19T13:42:25.512Z</time></trkpt><trkpt lat="38.82591" lon="16.62119"><ele>12.0</ele><time>2026-04-19T13:42:26.511Z</time></trkpt><trkpt lat="38.8258283" lon="16.6211417"><ele>12.0</ele><time>2026-04-19T13:42:27.511Z</time></trkpt><trkpt lat="38.8257433" lon="16.62109"><ele>12.0</ele><time>2026-04-19T13:42:28.511Z</time></trkpt><trkpt lat="38.8256667" lon="16.6210167"><ele>11.666666666666666</ele><time>2026-04-19T13:42:29.511Z</time></trkpt><trkpt lat="38.8255917" lon="16.620945"><ele>11.333333333333334</ele><time>2026-04-19T13:42:30.511Z</time></trkpt><trkpt lat="38.8255183" lon="16.6208583"><ele>11.0</ele><time>2026-04-19T13:42:31.511Z</time></trkpt><trkpt lat="38.825455" lon="16.6207833"><ele>10.666666666666668</ele><time>2026-04-19T13:42:32.511Z</time></trkpt><trkpt lat="38.8253967" lon="16.62072"><ele>10.333333333333334</ele><time>2026-04-19T13:42:33.511Z</time></trkpt><trkpt lat="38.8253367" lon="16.620665"><ele>10.0</ele><time>2026-04-19T13:42:34.511Z</time></trkpt><trkpt lat="38.8252817" lon="16.62062"><ele>10.0</ele><time>2026-04-19T13:42:35.511Z</time></trkpt><trkpt lat="38.8251917" lon="16.620535"><ele>10.0</ele><time>2026-04-19T13:42:37.511Z</time></trkpt><trkpt lat="38.8251083" lon="16.6204567"><ele>10.0</ele><time>2026-04-19T13:42:39.511Z</time></trkpt><trkpt lat="38.8250317" lon="16.620375"><ele>10.0</ele><time>2026-04-19T13:42:41.511Z</time></trkpt><trkpt lat="38.8249683" lon="16.6203083"><ele>10.0</ele><time>2026-04-19T13:42:44.511Z</time></trkpt><trkpt lat="38.8249167" lon="16.62026"><ele>10.0</ele><time>2026-04-19T13:42:46.511Z</time></trkpt><trkpt lat="38.824845" lon="16.6201933"><ele>10.0</ele><time>2026-04-19T13:42:48.511Z</time></trkpt><trkpt lat="38.8247617" lon="16.62011"><ele>10.0</ele><time>2026-04-19T13:42:50.512Z</time></trkpt><trkpt lat="38.8247033" lon="16.62006"><ele>10.0</ele><time>2026-04-19T13:42:51.511Z</time></trkpt><trkpt lat="38.8246467" lon="16.6199983"><ele>10.0</ele><time>2026-04-19T13:42:52.511Z</time></trkpt><trkpt lat="38.8245883" lon="16.61994"><ele>10.0</ele><time>2026-04-19T13:42:53.512Z</time></trkpt><trkpt lat="38.8245267" lon="16.6198733"><ele>10.0</ele><time>2026-04-19T13:42:54.512Z</time></trkpt><trkpt lat="38.82446" lon="16.6197967"><ele>10.0</ele><time>2026-04-19T13:42:55.511Z</time></trkpt><trkpt lat="38.8243833" lon="16.6197117"><ele>10.0</ele><time>2026-04-19T13:42:56.511Z</time></trkpt><trkpt lat="38.824305" lon="16.6196317"><ele>10.0</ele><time>2026-04-19T13:42:57.511Z</time></trkpt><trkpt lat="38.8242283" lon="16.6195483"><ele>10.0</ele><time>2026-04-19T13:42:58.511Z</time></trkpt><trkpt lat="38.824145" lon="16.6194733"><ele>9.0</ele><time>2026-04-19T13:42:59.511Z</time></trkpt><trkpt lat="38.8240667" lon="16.6193917"><ele>8.0</ele><time>2026-04-19T13:43:00.511Z</time></trkpt><trkpt lat="38.8239883" lon="16.6193017"><ele>7.0</ele><time>2026-04-19T13:43:01.512Z</time></trkpt><trkpt lat="38.823915" lon="16.6192117"><ele>6.0</ele><time>2026-04-19T13:43:02.511Z</time></trkpt><trkpt lat="38.8238383" lon="16.619125"><ele>5.0</ele><time>2026-04-19T13:43:03.511Z</time></trkpt><trkpt lat="38.82376" lon="16.6190383"><ele>5.0</ele><time>2026-04-19T13:43:04.511Z</time></trkpt><trkpt lat="38.8236767" lon="16.618945"><ele>5.0</ele><time>2026-04-19T13:43:05.511Z</time></trkpt><trkpt lat="38.8235967" lon="16.618855"><ele>5.0</ele><time>2026-04-19T13:43:06.511Z</time></trkpt><trkpt lat="38.8235117" lon="16.61876"><ele>5.0</ele><time>2026-04-19T13:43:07.511Z</time></trkpt><trkpt lat="38.8234283" lon="16.618665"><ele>5.0</ele><time>2026-04-19T13:43:08.511Z</time></trkpt><trkpt lat="38.82335" lon="16.6185883"><ele>5.25</ele><time>2026-04-19T13:43:09.512Z</time></trkpt><trkpt lat="38.8232567" lon="16.6185083"><ele>5.5</ele><time>2026-04-19T13:43:10.511Z</time></trkpt><trkpt lat="38.8231583" lon="16.6184283"><ele>5.75</ele><time>2026-04-19T13:43:11.511Z</time></trkpt><trkpt lat="38.8230667" lon="16.6183367"><ele>6.0</ele><time>2026-04-19T13:43:12.511Z</time></trkpt><trkpt lat="38.82298" lon="16.6182517"><ele>6.0</ele><time>2026-04-19T13:43:13.511Z</time></trkpt><trkpt lat="38.822895" lon="16.618165"><ele>6.0</ele><time>2026-04-19T13:43:14.511Z</time></trkpt><trkpt lat="38.8228117" lon="16.618075"><ele>6.0</ele><time>2026-04-19T13:43:15.511Z</time></trkpt><trkpt lat="38.8227267" lon="16.617985"><ele>6.0</ele><time>2026-04-19T13:43:16.511Z</time></trkpt><trkpt lat="38.8226333" lon="16.6179083"><ele>6.0</ele><time>2026-04-19T13:43:17.511Z</time></trkpt><trkpt lat="38.8225417" lon="16.6178217"><ele>6.0</ele><time>2026-04-19T13:43:18.511Z</time></trkpt><trkpt lat="38.8224633" lon="16.6177367"><ele>6.0</ele><time>2026-04-19T13:43:19.511Z</time></trkpt><trkpt lat="38.8223933" lon="16.61766"><ele>6.0</ele><time>2026-04-19T13:43:20.511Z</time></trkpt><trkpt lat="38.822315" lon="16.6175717"><ele>6.0</ele><time>2026-04-19T13:43:21.511Z</time></trkpt><trkpt lat="38.822245" lon="16.6174917"><ele>6.0</ele><time>2026-04-19T13:43:22.511Z</time></trkpt><trkpt lat="38.82218" lon="16.6174183"><ele>6.0</ele><time>2026-04-19T13:43:23.511Z</time></trkpt><trkpt lat="38.8221267" lon="16.6173133"><ele>6.0</ele><time>2026-04-19T13:43:24.511Z</time></trkpt><trkpt lat="38.8220767" lon="16.617215"><ele>6.0</ele><time>2026-04-19T13:43:25.511Z</time></trkpt><trkpt lat="38.8220333" lon="16.6171283"><ele>6.0</ele><time>2026-04-19T13:43:26.511Z</time></trkpt><trkpt lat="38.8219833" lon="16.6170567"><ele>6.0</ele><time>2026-04-19T13:43:27.511Z</time></trkpt><trkpt lat="38.821935" lon="16.6169883"><ele>6.0</ele><time>2026-04-19T13:43:28.511Z</time></trkpt><trkpt lat="38.821885" lon="16.6169167"><ele>6.0</ele><time>2026-04-19T13:43:29.511Z</time></trkpt><trkpt lat="38.821825" lon="16.6168517"><ele>6.0</ele><time>2026-04-19T13:43:30.511Z</time></trkpt><trkpt lat="38.82176" lon="16.6167783"><ele>6.0</ele><time>2026-04-19T13:43:32.511Z</time></trkpt><trkpt lat="38.8216683" lon="16.6166717"><ele>6.0</ele><time>2026-04-19T13:43:47.511Z</time></trkpt><trkpt lat="38.8216267" lon="16.6166083"><ele>6.0</ele><time>2026-04-19T13:43:48.511Z</time></trkpt><trkpt lat="38.82158" lon="16.61654"><ele>6.0</ele><time>2026-04-19T13:43:49.511Z</time></trkpt><trkpt lat="38.8215383" lon="16.6164417"><ele>6.0</ele><time>2026-04-19T13:43:50.511Z</time></trkpt><trkpt lat="38.821495" lon="16.61633"><ele>6.0</ele><time>2026-04-19T13:43:51.512Z</time></trkpt><trkpt lat="38.8214383" lon="16.6162033"><ele>6.0</ele><time>2026-04-19T13:43:52.511Z</time></trkpt><trkpt lat="38.8213717" lon="16.6160433"><ele>6.0</ele><time>2026-04-19T13:43:53.512Z</time></trkpt><trkpt lat="38.8213167" lon="16.615835"><ele>6.0</ele><time>2026-04-19T13:43:54.511Z</time></trkpt><trkpt lat="38.821275" lon="16.6156167"><ele>6.0</ele><time>2026-04-19T13:43:55.512Z</time></trkpt><trkpt lat="38.8212267" lon="16.61541"><ele>6.0</ele><time>2026-04-19T13:43:56.511Z</time></trkpt><trkpt lat="38.8211933" lon="16.61522"><ele>5.75</ele><time>2026-04-19T13:43:57.511Z</time></trkpt><trkpt lat="38.82115" lon="16.61504"><ele>5.5</ele><time>2026-04-19T13:43:58.511Z</time></trkpt><trkpt lat="38.8211083" lon="16.61487"><ele>5.25</ele><time>2026-04-19T13:43:59.511Z</time></trkpt><trkpt lat="38.82107" lon="16.6146917"><ele>5.0</ele><time>2026-04-19T13:44:00.511Z</time></trkpt><trkpt lat="38.8210267" lon="16.6145217"><ele>5.75</ele><time>2026-04-19T13:44:01.511Z</time></trkpt><trkpt lat="38.8209817" lon="16.6143567"><ele>6.5</ele><time>2026-04-19T13:44:02.511Z</time></trkpt><trkpt lat="38.8209233" lon="16.614185"><ele>7.25</ele><time>2026-04-19T13:44:03.511Z</time></trkpt><trkpt lat="38.8208733" lon="16.6140267"><ele>8.0</ele><time>2026-04-19T13:44:04.512Z</time></trkpt><trkpt lat="38.8208283" lon="16.6138617"><ele>8.0</ele><time>2026-04-19T13:44:05.511Z</time></trkpt><trkpt lat="38.8207933" lon="16.6137067"><ele>8.0</ele><time>2026-04-19T13:44:06.512Z</time></trkpt><trkpt lat="38.8207533" lon="16.61355"><ele>8.0</ele><time>2026-04-19T13:44:07.511Z</time></trkpt><trkpt lat="38.8207167" lon="16.6134067"><ele>8.0</ele><time>2026-04-19T13:44:08.511Z</time></trkpt><trkpt lat="38.8206867" lon="16.6132717"><ele>7.800000000000001</ele><time>2026-04-19T13:44:09.511Z</time></trkpt><trkpt lat="38.8206517" lon="16.6131617"><ele>7.6000000000000005</ele><time>2026-04-19T13:44:10.511Z</time></trkpt><trkpt lat="38.8206183" lon="16.6130383"><ele>7.3999999999999995</ele><time>2026-04-19T13:44:11.511Z</time></trkpt><trkpt lat="38.8205733" lon="16.6128817"><ele>7.199999999999999</ele><time>2026-04-19T13:44:13.512Z</time></trkpt><trkpt lat="38.8205583" lon="16.6127767"><ele>7.0</ele><time>2026-04-19T13:44:14.511Z</time></trkpt><trkpt lat="38.8205433" lon="16.6126833"><ele>6.833333333333334</ele><time>2026-04-19T13:44:15.511Z</time></trkpt><trkpt lat="38.8205217" lon="16.6125933"><ele>6.666666666666667</ele><time>2026-04-19T13:44:16.511Z</time></trkpt><trkpt lat="38.8205" lon="16.6125017"><ele>6.5</ele><time>2026-04-19T13:44:17.511Z</time></trkpt><trkpt lat="38.8204883" lon="16.6124217"><ele>6.333333333333334</ele><time>2026-04-19T13:44:18.511Z</time></trkpt><trkpt lat="38.820475" lon="16.61233"><ele>6.166666666666667</ele><time>2026-04-19T13:44:19.511Z</time></trkpt><trkpt lat="38.8204533" lon="16.6121633"><ele>6.0</ele><time>2026-04-19T13:44:21.511Z</time></trkpt><trkpt lat="38.8204383" lon="16.61207"><ele>6.333333333333333</ele><time>2026-04-19T13:44:22.512Z</time></trkpt><trkpt lat="38.8204183" lon="16.61197"><ele>6.666666666666666</ele><time>2026-04-19T13:44:23.512Z</time></trkpt><trkpt lat="38.820395" lon="16.61188"><ele>7.0</ele><time>2026-04-19T13:44:24.511Z</time></trkpt><trkpt lat="38.8203717" lon="16.611795"><ele>7.333333333333333</ele><time>2026-04-19T13:44:25.511Z</time></trkpt><trkpt lat="38.8203483" lon="16.6117"><ele>7.666666666666666</ele><time>2026-04-19T13:44:26.511Z</time></trkpt><trkpt lat="38.820325" lon="16.6115933"><ele>8.0</ele><time>2026-04-19T13:44:27.511Z</time></trkpt><trkpt lat="38.8203067" lon="16.6114983"><ele>7.999999999999999</ele><time>2026-04-19T13:44:28.511Z</time></trkpt><trkpt lat="38.82029" lon="16.6114083"><ele>8.0</ele><time>2026-04-19T13:44:29.511Z</time></trkpt><trkpt lat="38.8202733" lon="16.61133"><ele>8.0</ele><time>2026-04-19T13:44:30.511Z</time></trkpt><trkpt lat="38.8202317" lon="16.6111933"><ele>8.0</ele><time>2026-04-19T13:44:32.511Z</time></trkpt><trkpt lat="38.82019" lon="16.6110367"><ele>7.999999999999999</ele><time>2026-04-19T13:44:34.512Z</time></trkpt><trkpt lat="38.82017" lon="16.61096"><ele>8.0</ele><time>2026-04-19T13:44:35.511Z</time></trkpt><trkpt lat="38.8201483" lon="16.61088"><ele>8.166666666666666</ele><time>2026-04-19T13:44:36.511Z</time></trkpt><trkpt lat="38.8201117" lon="16.6108033"><ele>8.333333333333332</ele><time>2026-04-19T13:44:37.511Z</time></trkpt><trkpt lat="38.8200733" lon="16.610735"><ele>8.5</ele><time>2026-04-19T13:44:38.511Z</time></trkpt><trkpt lat="38.8200433" lon="16.610645"><ele>8.666666666666666</ele><time>2026-04-19T13:44:39.511Z</time></trkpt><trkpt lat="38.8200233" lon="16.610545"><ele>8.833333333333334</ele><time>2026-04-19T13:44:40.512Z</time></trkpt><trkpt lat="38.8200067" lon="16.61045"><ele>9.0</ele><time>2026-04-19T13:44:41.511Z</time></trkpt><trkpt lat="38.8199717" lon="16.610345"><ele>8.8</ele><time>2026-04-19T13:44:42.511Z</time></trkpt><trkpt lat="38.819925" lon="16.61024"><ele>8.600000000000001</ele><time>2026-04-19T13:44:43.511Z</time></trkpt><trkpt lat="38.8198733" lon="16.6101317"><ele>8.4</ele><time>2026-04-19T13:44:44.511Z</time></trkpt><trkpt lat="38.8198217" lon="16.6100133"><ele>8.200000000000001</ele><time>2026-04-19T13:44:45.511Z</time></trkpt><trkpt lat="38.8197683" lon="16.6098883"><ele>8.0</ele><time>2026-04-19T13:44:46.512Z</time></trkpt><trkpt lat="38.8197183" lon="16.60975"><ele>8.0</ele><time>2026-04-19T13:44:47.512Z</time></trkpt><trkpt lat="38.8196783" lon="16.6096267"><ele>8.0</ele><time>2026-04-19T13:44:48.512Z</time></trkpt><trkpt lat="38.8196433" lon="16.6095017"><ele>8.0</ele><time>2026-04-19T13:44:49.511Z</time></trkpt><trkpt lat="38.819605" lon="16.6093767"><ele>8.0</ele><time>2026-04-19T13:44:50.511Z</time></trkpt><trkpt lat="38.81956" lon="16.609265"><ele>8.0</ele><time>2026-04-19T13:44:51.511Z</time></trkpt><trkpt lat="38.8195167" lon="16.6091667"><ele>8.166666666666666</ele><time>2026-04-19T13:44:52.512Z</time></trkpt><trkpt lat="38.81949" lon="16.6090817"><ele>8.333333333333332</ele><time>2026-04-19T13:44:53.512Z</time></trkpt><trkpt lat="38.81946" lon="16.6089533"><ele>8.5</ele><time>2026-04-19T13:44:55.511Z</time></trkpt><trkpt lat="38.8194733" lon="16.6088383"><ele>8.666666666666666</ele><time>2026-04-19T13:44:57.511Z</time></trkpt><trkpt lat="38.819515" lon="16.6087383"><ele>8.833333333333334</ele><time>2026-04-19T13:44:59.511Z</time></trkpt><trkpt lat="38.8195833" lon="16.6087067"><ele>9.0</ele><time>2026-04-19T13:45:01.511Z</time></trkpt><trkpt lat="38.8196883" lon="16.6087317"><ele>9.0</ele><time>2026-04-19T13:45:03.511Z</time></trkpt><trkpt lat="38.81976" lon="16.6087317"><ele>9.0</ele><time>2026-04-19T13:45:04.511Z</time></trkpt><trkpt lat="38.81984" lon="16.60871"><ele>9.0</ele><time>2026-04-19T13:45:05.511Z</time></trkpt><trkpt lat="38.81992" lon="16.6086617"><ele>9.0</ele><time>2026-04-19T13:45:06.511Z</time></trkpt><trkpt lat="38.8200033" lon="16.6086183"><ele>9.0</ele><time>2026-04-19T13:45:07.511Z</time></trkpt><trkpt lat="38.8201033" lon="16.60861"><ele>9.0</ele><time>2026-04-19T13:45:08.511Z</time></trkpt><trkpt lat="38.82022" lon="16.60864"><ele>10.0</ele><time>2026-04-19T13:45:09.512Z</time></trkpt><trkpt lat="38.8203433" lon="16.6086833"><ele>11.0</ele><time>2026-04-19T13:45:10.512Z</time></trkpt><trkpt lat="38.8204767" lon="16.6087267"><ele>12.0</ele><time>2026-04-19T13:45:11.511Z</time></trkpt><trkpt lat="38.8205967" lon="16.6087717"><ele>13.0</ele><time>2026-04-19T13:45:12.511Z</time></trkpt><trkpt lat="38.820705" lon="16.608815"><ele>13.0</ele><time>2026-04-19T13:45:13.512Z</time></trkpt><trkpt lat="38.8207967" lon="16.60889"><ele>13.0</ele><time>2026-04-19T13:45:14.512Z</time></trkpt><trkpt lat="38.8208733" lon="16.6089933"><ele>13.0</ele><time>2026-04-19T13:45:15.511Z</time></trkpt><trkpt lat="38.82092" lon="16.609125"><ele>13.0</ele><time>2026-04-19T13:45:16.511Z</time></trkpt><trkpt lat="38.8209283" lon="16.6092733"><ele>13.0</ele><time>2026-04-19T13:45:17.511Z</time></trkpt><trkpt lat="38.82089" lon="16.6093917"><ele>13.0</ele><time>2026-04-19T13:45:18.512Z</time></trkpt><trkpt lat="38.8208167" lon="16.60948"><ele>13.0</ele><time>2026-04-19T13:45:19.512Z</time></trkpt><trkpt lat="38.8207433" lon="16.6095283"><ele>13.0</ele><time>2026-04-19T13:45:20.511Z</time></trkpt><trkpt lat="38.8206333" lon="16.6095383"><ele>13.0</ele><time>2026-04-19T13:45:22.511Z</time></trkpt><trkpt lat="38.820515" lon="16.6095017"><ele>13.0</ele><time>2026-04-19T13:45:24.511Z</time></trkpt><trkpt lat="38.8204433" lon="16.609465"><ele>13.0</ele><time>2026-04-19T13:45:25.512Z</time></trkpt><trkpt lat="38.820355" lon="16.6093917"><ele>13.0</ele><time>2026-04-19T13:45:26.511Z</time></trkpt><trkpt lat="38.820265" lon="16.6092867"><ele>13.0</ele><time>2026-04-19T13:45:27.511Z</time></trkpt><trkpt lat="38.8201683" lon="16.60916"><ele>13.0</ele><time>2026-04-19T13:45:28.511Z</time></trkpt><trkpt lat="38.8200717" lon="16.6090233"><ele>12.333333333333332</ele><time>2026-04-19T13:45:29.511Z</time></trkpt><trkpt lat="38.8199683" lon="16.608865"><ele>11.666666666666666</ele><time>2026-04-19T13:45:30.511Z</time></trkpt><trkpt lat="38.8198633" lon="16.608705"><ele>11.0</ele><time>2026-04-19T13:45:31.511Z</time></trkpt><trkpt lat="38.8197483" lon="16.6085433"><ele>11.0</ele><time>2026-04-19T13:45:32.511Z</time></trkpt><trkpt lat="38.819625" lon="16.60838"><ele>11.0</ele><time>2026-04-19T13:45:33.511Z</time></trkpt><trkpt lat="38.819485" lon="16.6082217"><ele>11.0</ele><time>2026-04-19T13:45:34.511Z</time></trkpt><trkpt lat="38.8193467" lon="16.608035"><ele>9.666666666666666</ele><time>2026-04-19T13:45:35.512Z</time></trkpt><trkpt lat="38.8192" lon="16.607865"><ele>8.333333333333334</ele><time>2026-04-19T13:45:36.511Z</time></trkpt><trkpt lat="38.81905" lon="16.6076883"><ele>7.0</ele><time>2026-04-19T13:45:37.511Z</time></trkpt><trkpt lat="38.8188917" lon="16.6075083"><ele>7.0</ele><time>2026-04-19T13:45:38.511Z</time></trkpt><trkpt lat="38.8187317" lon="16.6073333"><ele>7.0</ele><time>2026-04-19T13:45:39.511Z</time></trkpt><trkpt lat="38.81857" lon="16.60716"><ele>7.0</ele><time>2026-04-19T13:45:40.511Z</time></trkpt><trkpt lat="38.8184083" lon="16.60698"><ele>5.666666666666667</ele><time>2026-04-19T13:45:41.511Z</time></trkpt><trkpt lat="38.8182517" lon="16.6067967"><ele>4.333333333333334</ele><time>2026-04-19T13:45:42.511Z</time></trkpt><trkpt lat="38.8181017" lon="16.6066217"><ele>3.0</ele><time>2026-04-19T13:45:43.511Z</time></trkpt><trkpt lat="38.81795" lon="16.6064517"><ele>3.0</ele><time>2026-04-19T13:45:44.511Z</time></trkpt><trkpt lat="38.8177967" lon="16.6062817"><ele>3.0</ele><time>2026-04-19T13:45:45.512Z</time></trkpt><trkpt lat="38.8176433" lon="16.6061167"><ele>3.0</ele><time>2026-04-19T13:45:46.512Z</time></trkpt><trkpt lat="38.81749" lon="16.6059633"><ele>3.666666666666667</ele><time>2026-04-19T13:45:47.512Z</time></trkpt><trkpt lat="38.8173317" lon="16.6058217"><ele>4.333333333333334</ele><time>2026-04-19T13:45:48.512Z</time></trkpt><trkpt lat="38.8171733" lon="16.60568"><ele>5.0</ele><time>2026-04-19T13:45:49.511Z</time></trkpt><trkpt lat="38.817035" lon="16.605535"><ele>5.0</ele><time>2026-04-19T13:45:50.511Z</time></trkpt><trkpt lat="38.8169017" lon="16.6054083"><ele>5.0</ele><time>2026-04-19T13:45:51.511Z</time></trkpt><trkpt lat="38.816775" lon="16.6052783"><ele>5.0</ele><time>2026-04-19T13:45:52.512Z</time></trkpt><trkpt lat="38.8166383" lon="16.605155"><ele>5.0</ele><time>2026-04-19T13:45:53.512Z</time></trkpt><trkpt lat="38.8165117" lon="16.605035"><ele>5.0</ele><time>2026-04-19T13:45:54.511Z</time></trkpt><trkpt lat="38.8163883" lon="16.6049233"><ele>5.0</ele><time>2026-04-19T13:45:55.511Z</time></trkpt><trkpt lat="38.8162633" lon="16.6048"><ele>5.0</ele><time>2026-04-19T13:45:56.511Z</time></trkpt><trkpt lat="38.81613" lon="16.604675"><ele>5.0</ele><time>2026-04-19T13:45:57.511Z</time></trkpt><trkpt lat="38.8160067" lon="16.6045517"><ele>5.0</ele><time>2026-04-19T13:45:58.511Z</time></trkpt><trkpt lat="38.8158783" lon="16.6044283"><ele>4.666666666666667</ele><time>2026-04-19T13:45:59.512Z</time></trkpt><trkpt lat="38.8157483" lon="16.6043067"><ele>4.333333333333333</ele><time>2026-04-19T13:46:00.511Z</time></trkpt><trkpt lat="38.81562" lon="16.6041867"><ele>4.0</ele><time>2026-04-19T13:46:01.511Z</time></trkpt><trkpt lat="38.81549" lon="16.60405"><ele>4.0</ele><time>2026-04-19T13:46:02.511Z</time></trkpt><trkpt lat="38.8153617" lon="16.6039117"><ele>4.0</ele><time>2026-04-19T13:46:03.512Z</time></trkpt><trkpt lat="38.8152217" lon="16.60376"><ele>4.0</ele><time>2026-04-19T13:46:04.511Z</time></trkpt><trkpt lat="38.8150767" lon="16.6035967"><ele>4.333333333333333</ele><time>2026-04-19T13:46:05.511Z</time></trkpt><trkpt lat="38.8149167" lon="16.6034517"><ele>4.666666666666667</ele><time>2026-04-19T13:46:06.511Z</time></trkpt><trkpt lat="38.814735" lon="16.6033083"><ele>5.0</ele><time>2026-04-19T13:46:07.512Z</time></trkpt><trkpt lat="38.8145633" lon="16.6031317"><ele>5.0</ele><time>2026-04-19T13:46:08.511Z</time></trkpt><trkpt lat="38.8143883" lon="16.6029583"><ele>5.0</ele><time>2026-04-19T13:46:09.511Z</time></trkpt><trkpt lat="38.8142117" lon="16.6027833"><ele>5.0</ele><time>2026-04-19T13:46:10.511Z</time></trkpt><trkpt lat="38.8140317" lon="16.602615"><ele>4.666666666666667</ele><time>2026-04-19T13:46:11.511Z</time></trkpt><trkpt lat="38.8138567" lon="16.602445"><ele>4.333333333333333</ele><time>2026-04-19T13:46:12.512Z</time></trkpt><trkpt lat="38.8136833" lon="16.60228"><ele>4.0</ele><time>2026-04-19T13:46:13.511Z</time></trkpt><trkpt lat="38.8135067" lon="16.60212"><ele>4.0</ele><time>2026-04-19T13:46:14.511Z</time></trkpt><trkpt lat="38.813325" lon="16.6019683"><ele>4.0</ele><time>2026-04-19T13:46:15.511Z</time></trkpt><trkpt lat="38.8131317" lon="16.6018283"><ele>4.0</ele><time>2026-04-19T13:46:16.512Z</time></trkpt><trkpt lat="38.81293" lon="16.6016933"><ele>4.0</ele><time>2026-04-19T13:46:17.511Z</time></trkpt><trkpt lat="38.81273" lon="16.6015533"><ele>4.0</ele><time>2026-04-19T13:46:18.511Z</time></trkpt><trkpt lat="38.8125317" lon="16.60141"><ele>3.6666666666666665</ele><time>2026-04-19T13:46:19.511Z</time></trkpt><trkpt lat="38.8123483" lon="16.601275"><ele>3.333333333333333</ele><time>2026-04-19T13:46:20.511Z</time></trkpt><trkpt lat="38.8121667" lon="16.6011483"><ele>3.0</ele><time>2026-04-19T13:46:21.511Z</time></trkpt><trkpt lat="38.81198" lon="16.6010233"><ele>3.0</ele><time>2026-04-19T13:46:22.511Z</time></trkpt><trkpt lat="38.81179" lon="16.6008983"><ele>3.0</ele><time>2026-04-19T13:46:23.511Z</time></trkpt><trkpt lat="38.811595" lon="16.6007617"><ele>3.0</ele><time>2026-04-19T13:46:24.511Z</time></trkpt><trkpt lat="38.8113983" lon="16.6006267"><ele>3.0</ele><time>2026-04-19T13:46:25.511Z</time></trkpt><trkpt lat="38.81121" lon="16.6004817"><ele>3.0</ele><time>2026-04-19T13:46:26.511Z</time></trkpt><trkpt lat="38.81103" lon="16.60034"><ele>3.0</ele><time>2026-04-19T13:46:27.512Z</time></trkpt><trkpt lat="38.8108567" lon="16.60022"><ele>3.666666666666667</ele><time>2026-04-19T13:46:28.511Z</time></trkpt><trkpt lat="38.810695" lon="16.6001117"><ele>4.333333333333334</ele><time>2026-04-19T13:46:29.511Z</time></trkpt><trkpt lat="38.8105483" lon="16.600015"><ele>5.0</ele><time>2026-04-19T13:46:30.511Z</time></trkpt><trkpt lat="38.810415" lon="16.5999333"><ele>5.0</ele><time>2026-04-19T13:46:31.512Z</time></trkpt><trkpt lat="38.8102817" lon="16.599845"><ele>5.0</ele><time>2026-04-19T13:46:32.511Z</time></trkpt><trkpt lat="38.8101567" lon="16.5997567"><ele>5.0</ele><time>2026-04-19T13:46:33.511Z</time></trkpt><trkpt lat="38.81004" lon="16.5996717"><ele>5.0</ele><time>2026-04-19T13:46:34.511Z</time></trkpt><trkpt lat="38.8099433" lon="16.5995917"><ele>5.0</ele><time>2026-04-19T13:46:35.511Z</time></trkpt><trkpt lat="38.8098517" lon="16.5995217"><ele>5.0</ele><time>2026-04-19T13:46:36.511Z</time></trkpt><trkpt lat="38.8097633" lon="16.5994267"><ele>5.0</ele><time>2026-04-19T13:46:37.511Z</time></trkpt><trkpt lat="38.8096667" lon="16.5993117"><ele>5.0</ele><time>2026-04-19T13:46:38.512Z</time></trkpt><trkpt lat="38.8095717" lon="16.5991817"><ele>5.0</ele><time>2026-04-19T13:46:39.511Z</time></trkpt><trkpt lat="38.8094833" lon="16.5990417"><ele>5.0</ele><time>2026-04-19T13:46:40.511Z</time></trkpt><trkpt lat="38.809405" lon="16.5988883"><ele>5.0</ele><time>2026-04-19T13:46:41.511Z</time></trkpt><trkpt lat="38.809335" lon="16.5987683"><ele>5.0</ele><time>2026-04-19T13:46:42.511Z</time></trkpt><trkpt lat="38.8092533" lon="16.5986817"><ele>6.0</ele><time>2026-04-19T13:46:43.511Z</time></trkpt><trkpt lat="38.8091667" lon="16.5985833"><ele>7.0</ele><time>2026-04-19T13:46:44.511Z</time></trkpt><trkpt lat="38.809055" lon="16.5984717"><ele>8.0</ele><time>2026-04-19T13:46:45.512Z</time></trkpt><trkpt lat="38.8089167" lon="16.5983517"><ele>9.0</ele><time>2026-04-19T13:46:46.511Z</time></trkpt><trkpt lat="38.8087633" lon="16.5982217"><ele>9.0</ele><time>2026-04-19T13:46:47.511Z</time></trkpt><trkpt lat="38.808605" lon="16.598085"><ele>9.0</ele><time>2026-04-19T13:46:48.511Z</time></trkpt><trkpt lat="38.8084417" lon="16.5979517"><ele>9.0</ele><time>2026-04-19T13:46:49.511Z</time></trkpt><trkpt lat="38.8082833" lon="16.5978083"><ele>9.666666666666666</ele><time>2026-04-19T13:46:50.511Z</time></trkpt><trkpt lat="38.808135" lon="16.5976767"><ele>10.333333333333332</ele><time>2026-04-19T13:46:51.511Z</time></trkpt><trkpt lat="38.807995" lon="16.59756"><ele>11.0</ele><time>2026-04-19T13:46:52.511Z</time></trkpt><trkpt lat="38.8078683" lon="16.5974583"><ele>11.0</ele><time>2026-04-19T13:46:53.511Z</time></trkpt><trkpt lat="38.8077367" lon="16.5973333"><ele>11.0</ele><time>2026-04-19T13:46:54.511Z</time></trkpt><trkpt lat="38.8075917" lon="16.5972217"><ele>11.0</ele><time>2026-04-19T13:46:55.511Z</time></trkpt><trkpt lat="38.80744" lon="16.5971"><ele>11.666666666666666</ele><time>2026-04-19T13:46:56.511Z</time></trkpt><trkpt lat="38.8072767" lon="16.5969733"><ele>12.333333333333332</ele><time>2026-04-19T13:46:57.512Z</time></trkpt><trkpt lat="38.80709" lon="16.5968567"><ele>13.0</ele><time>2026-04-19T13:46:58.512Z</time></trkpt><trkpt lat="38.806895" lon="16.5967267"><ele>13.0</ele><time>2026-04-19T13:46:59.511Z</time></trkpt><trkpt lat="38.806685" lon="16.5966133"><ele>13.0</ele><time>2026-04-19T13:47:00.511Z</time></trkpt><trkpt lat="38.8064717" lon="16.5964983"><ele>13.0</ele><time>2026-04-19T13:47:01.511Z</time></trkpt><trkpt lat="38.8062517" lon="16.5963817"><ele>13.0</ele><time>2026-04-19T13:47:02.512Z</time></trkpt><trkpt lat="38.80603" lon="16.59626"><ele>13.5</ele><time>2026-04-19T13:47:03.512Z</time></trkpt><trkpt lat="38.80582" lon="16.59612"><ele>14.0</ele><time>2026-04-19T13:47:04.511Z</time></trkpt><trkpt lat="38.805605" lon="16.5959717"><ele>14.0</ele><time>2026-04-19T13:47:05.511Z</time></trkpt><trkpt lat="38.8053917" lon="16.595835"><ele>14.0</ele><time>2026-04-19T13:47:06.511Z</time></trkpt><trkpt lat="38.80517" lon="16.5957133"><ele>13.0</ele><time>2026-04-19T13:47:07.511Z</time></trkpt><trkpt lat="38.804955" lon="16.5955867"><ele>12.0</ele><time>2026-04-19T13:47:08.511Z</time></trkpt><trkpt lat="38.80474" lon="16.5954567"><ele>12.0</ele><time>2026-04-19T13:47:09.511Z</time></trkpt><trkpt lat="38.80453" lon="16.5953183"><ele>12.0</ele><time>2026-04-19T13:47:10.511Z</time></trkpt><trkpt lat="38.8043217" lon="16.5951883"><ele>12.0</ele><time>2026-04-19T13:47:11.511Z</time></trkpt><trkpt lat="38.8041167" lon="16.59504"><ele>12.0</ele><time>2026-04-19T13:47:12.511Z</time></trkpt><trkpt lat="38.8039217" lon="16.5948867"><ele>12.0</ele><time>2026-04-19T13:47:13.511Z</time></trkpt><trkpt lat="38.8037317" lon="16.5947"><ele>12.0</ele><time>2026-04-19T13:47:14.511Z</time></trkpt><trkpt lat="38.803555" lon="16.5944883"><ele>11.5</ele><time>2026-04-19T13:47:15.511Z</time></trkpt><trkpt lat="38.8033917" lon="16.594265"><ele>11.0</ele><time>2026-04-19T13:47:16.512Z</time></trkpt><trkpt lat="38.80324" lon="16.5940167"><ele>11.0</ele><time>2026-04-19T13:47:17.511Z</time></trkpt><trkpt lat="38.8031" lon="16.593755"><ele>11.0</ele><time>2026-04-19T13:47:18.511Z</time></trkpt><trkpt lat="38.8029683" lon="16.59349"><ele>12.0</ele><time>2026-04-19T13:47:19.511Z</time></trkpt><trkpt lat="38.8028217" lon="16.593225"><ele>13.0</ele><time>2026-04-19T13:47:20.511Z</time></trkpt><trkpt lat="38.8026767" lon="16.5929617"><ele>13.5</ele><time>2026-04-19T13:47:21.511Z</time></trkpt><trkpt lat="38.8025383" lon="16.5927017"><ele>14.0</ele><time>2026-04-19T13:47:22.511Z</time></trkpt><trkpt lat="38.8023967" lon="16.592445"><ele>14.0</ele><time>2026-04-19T13:47:23.511Z</time></trkpt><trkpt lat="38.80226" lon="16.5921767"><ele>14.0</ele><time>2026-04-19T13:47:24.511Z</time></trkpt><trkpt lat="38.802135" lon="16.5919167"><ele>15.5</ele><time>2026-04-19T13:47:25.512Z</time></trkpt><trkpt lat="38.8019983" lon="16.5916567"><ele>17.0</ele><time>2026-04-19T13:47:26.511Z</time></trkpt><trkpt lat="38.801865" lon="16.5913967"><ele>15.5</ele><time>2026-04-19T13:47:27.511Z</time></trkpt><trkpt lat="38.8017267" lon="16.5911417"><ele>14.0</ele><time>2026-04-19T13:47:28.512Z</time></trkpt><trkpt lat="38.8015933" lon="16.5908867"><ele>14.0</ele><time>2026-04-19T13:47:29.512Z</time></trkpt><trkpt lat="38.8014583" lon="16.5906333"><ele>14.0</ele><time>2026-04-19T13:47:30.511Z</time></trkpt><trkpt lat="38.8013267" lon="16.5903817"><ele>16.0</ele><time>2026-04-19T13:47:31.511Z</time></trkpt><trkpt lat="38.80119" lon="16.59012"><ele>18.0</ele><time>2026-04-19T13:47:32.511Z</time></trkpt><trkpt lat="38.8010567" lon="16.5898583"><ele>16.0</ele><time>2026-04-19T13:47:33.511Z</time></trkpt><trkpt lat="38.8009233" lon="16.5895983"><ele>14.0</ele><time>2026-04-19T13:47:34.512Z</time></trkpt><trkpt lat="38.80078" lon="16.5893417"><ele>14.0</ele><time>2026-04-19T13:47:35.511Z</time></trkpt><trkpt lat="38.8006217" lon="16.5891067"><ele>14.0</ele><time>2026-04-19T13:47:36.511Z</time></trkpt><trkpt lat="38.800445" lon="16.5889083"><ele>14.0</ele><time>2026-04-19T13:47:37.511Z</time></trkpt><trkpt lat="38.8002533" lon="16.5887217"><ele>14.0</ele><time>2026-04-19T13:47:38.511Z</time></trkpt><trkpt lat="38.800055" lon="16.5885467"><ele>15.0</ele><time>2026-04-19T13:47:39.511Z</time></trkpt><trkpt lat="38.7998533" lon="16.58836"><ele>16.0</ele><time>2026-04-19T13:47:40.511Z</time></trkpt><trkpt lat="38.7996417" lon="16.5881883"><ele>16.0</ele><time>2026-04-19T13:47:41.511Z</time></trkpt><trkpt lat="38.799425" lon="16.5880133"><ele>16.0</ele><time>2026-04-19T13:47:42.512Z</time></trkpt><trkpt lat="38.79922" lon="16.587835"><ele>15.5</ele><time>2026-04-19T13:47:43.512Z</time></trkpt><trkpt lat="38.7990117" lon="16.5876517"><ele>15.0</ele><time>2026-04-19T13:47:44.511Z</time></trkpt><trkpt lat="38.7987983" lon="16.58747"><ele>15.0</ele><time>2026-04-19T13:47:45.512Z</time></trkpt><trkpt lat="38.7985933" lon="16.5872967"><ele>15.0</ele><time>2026-04-19T13:47:46.511Z</time></trkpt><trkpt lat="38.7983933" lon="16.587105"><ele>16.5</ele><time>2026-04-19T13:47:47.511Z</time></trkpt><trkpt lat="38.7981867" lon="16.5869233"><ele>18.0</ele><time>2026-04-19T13:47:48.512Z</time></trkpt><trkpt lat="38.7979733" lon="16.586745"><ele>18.0</ele><time>2026-04-19T13:47:49.511Z</time></trkpt><trkpt lat="38.7977717" lon="16.58657"><ele>18.0</ele><time>2026-04-19T13:47:50.511Z</time></trkpt><trkpt lat="38.7975633" lon="16.5863867"><ele>16.5</ele><time>2026-04-19T13:47:51.511Z</time></trkpt><trkpt lat="38.797355" lon="16.5861983"><ele>15.0</ele><time>2026-04-19T13:47:52.511Z</time></trkpt><trkpt lat="38.79715" lon="16.586015"><ele>15.0</ele><time>2026-04-19T13:47:53.512Z</time></trkpt><trkpt lat="38.79695" lon="16.585835"><ele>15.0</ele><time>2026-04-19T13:47:54.511Z</time></trkpt><trkpt lat="38.7967467" lon="16.585645"><ele>15.0</ele><time>2026-04-19T13:47:55.511Z</time></trkpt><trkpt lat="38.796545" lon="16.5854617"><ele>15.0</ele><time>2026-04-19T13:47:56.511Z</time></trkpt><trkpt lat="38.7963433" lon="16.5852817"><ele>16.5</ele><time>2026-04-19T13:47:57.511Z</time></trkpt><trkpt lat="38.7961433" lon="16.5851167"><ele>18.0</ele><time>2026-04-19T13:47:58.511Z</time></trkpt><trkpt lat="38.7959567" lon="16.58494"><ele>18.0</ele><time>2026-04-19T13:47:59.511Z</time></trkpt><trkpt lat="38.7957783" lon="16.584755"><ele>18.0</ele><time>2026-04-19T13:48:00.511Z</time></trkpt><trkpt lat="38.795605" lon="16.58455"><ele>18.5</ele><time>2026-04-19T13:48:01.511Z</time></trkpt><trkpt lat="38.7954467" lon="16.5843267"><ele>19.0</ele><time>2026-04-19T13:48:02.511Z</time></trkpt><trkpt lat="38.7952967" lon="16.5840817"><ele>18.0</ele><time>2026-04-19T13:48:03.511Z</time></trkpt><trkpt lat="38.7951417" lon="16.5838283"><ele>17.0</ele><time>2026-04-19T13:48:04.512Z</time></trkpt><trkpt lat="38.7949833" lon="16.58357"><ele>16.5</ele><time>2026-04-19T13:48:05.511Z</time></trkpt><trkpt lat="38.794825" lon="16.5833267"><ele>16.0</ele><time>2026-04-19T13:48:06.511Z</time></trkpt><trkpt lat="38.7946683" lon="16.5830733"><ele>16.5</ele><time>2026-04-19T13:48:07.511Z</time></trkpt><trkpt lat="38.7945" lon="16.5828133"><ele>17.0</ele><time>2026-04-19T13:48:08.511Z</time></trkpt><trkpt lat="38.79434" lon="16.58256"><ele>15.0</ele><time>2026-04-19T13:48:09.511Z</time></trkpt><trkpt lat="38.79417" lon="16.5823033"><ele>13.0</ele><time>2026-04-19T13:48:10.511Z</time></trkpt><trkpt lat="38.7939983" lon="16.5820433"><ele>13.5</ele><time>2026-04-19T13:48:11.511Z</time></trkpt><trkpt lat="38.79383" lon="16.581785"><ele>14.0</ele><time>2026-04-19T13:48:12.512Z</time></trkpt><trkpt lat="38.79366" lon="16.5815317"><ele>14.0</ele><time>2026-04-19T13:48:13.512Z</time></trkpt><trkpt lat="38.7934817" lon="16.5812817"><ele>14.0</ele><time>2026-04-19T13:48:14.511Z</time></trkpt><trkpt lat="38.7932917" lon="16.5810533"><ele>14.0</ele><time>2026-04-19T13:48:15.511Z</time></trkpt><trkpt lat="38.7931017" lon="16.5808367"><ele>14.0</ele><time>2026-04-19T13:48:16.511Z</time></trkpt><trkpt lat="38.7929033" lon="16.5806267"><ele>14.0</ele><time>2026-04-19T13:48:17.511Z</time></trkpt><trkpt lat="38.7927017" lon="16.5804167"><ele>14.0</ele><time>2026-04-19T13:48:18.511Z</time></trkpt><trkpt lat="38.7925033" lon="16.5802067"><ele>14.0</ele><time>2026-04-19T13:48:19.512Z</time></trkpt><trkpt lat="38.7923067" lon="16.579985"><ele>14.0</ele><time>2026-04-19T13:48:20.511Z</time></trkpt><trkpt lat="38.7920967" lon="16.57978"><ele>14.0</ele><time>2026-04-19T13:48:21.511Z</time></trkpt><trkpt lat="38.7918983" lon="16.579565"><ele>14.0</ele><time>2026-04-19T13:48:22.512Z</time></trkpt><trkpt lat="38.791695" lon="16.5793533"><ele>14.5</ele><time>2026-04-19T13:48:23.511Z</time></trkpt><trkpt lat="38.7914983" lon="16.5791367"><ele>15.0</ele><time>2026-04-19T13:48:24.512Z</time></trkpt><trkpt lat="38.79131" lon="16.5789133"><ele>15.0</ele><time>2026-04-19T13:48:25.511Z</time></trkpt><trkpt lat="38.7911167" lon="16.5787117"><ele>15.0</ele><time>2026-04-19T13:48:26.511Z</time></trkpt><trkpt lat="38.79093" lon="16.5785017"><ele>14.0</ele><time>2026-04-19T13:48:27.511Z</time></trkpt><trkpt lat="38.7907383" lon="16.5783"><ele>13.0</ele><time>2026-04-19T13:48:28.511Z</time></trkpt><trkpt lat="38.79053" lon="16.5780883"><ele>13.0</ele><time>2026-04-19T13:48:29.511Z</time></trkpt><trkpt lat="38.7903267" lon="16.5778783"><ele>13.0</ele><time>2026-04-19T13:48:30.511Z</time></trkpt><trkpt lat="38.7901333" lon="16.57767"><ele>14.5</ele><time>2026-04-19T13:48:31.511Z</time></trkpt><trkpt lat="38.7899367" lon="16.577455"><ele>16.0</ele><time>2026-04-19T13:48:32.511Z</time></trkpt><trkpt lat="38.7897467" lon="16.5772333"><ele>16.0</ele><time>2026-04-19T13:48:33.511Z</time></trkpt><trkpt lat="38.78956" lon="16.57702"><ele>16.0</ele><time>2026-04-19T13:48:34.511Z</time></trkpt><trkpt lat="38.7893683" lon="16.5768"><ele>14.5</ele><time>2026-04-19T13:48:35.511Z</time></trkpt><trkpt lat="38.7891717" lon="16.5765933"><ele>13.0</ele><time>2026-04-19T13:48:36.511Z</time></trkpt><trkpt lat="38.78898" lon="16.57637"><ele>14.0</ele><time>2026-04-19T13:48:37.511Z</time></trkpt><trkpt lat="38.78879" lon="16.576145"><ele>15.0</ele><time>2026-04-19T13:48:38.511Z</time></trkpt><trkpt lat="38.7885917" lon="16.5759417"><ele>14.0</ele><time>2026-04-19T13:48:39.511Z</time></trkpt><trkpt lat="38.7883933" lon="16.57574"><ele>13.0</ele><time>2026-04-19T13:48:40.512Z</time></trkpt><trkpt lat="38.7882017" lon="16.5755333"><ele>14.0</ele><time>2026-04-19T13:48:41.511Z</time></trkpt><trkpt lat="38.788005" lon="16.575325"><ele>15.0</ele><time>2026-04-19T13:48:42.512Z</time></trkpt><trkpt lat="38.7878083" lon="16.5751117"><ele>14.0</ele><time>2026-04-19T13:48:43.511Z</time></trkpt><trkpt lat="38.7876133" lon="16.5749067"><ele>13.0</ele><time>2026-04-19T13:48:44.511Z</time></trkpt><trkpt lat="38.78741" lon="16.5746917"><ele>13.0</ele><time>2026-04-19T13:48:45.511Z</time></trkpt><trkpt lat="38.7872117" lon="16.5744933"><ele>13.0</ele><time>2026-04-19T13:48:46.511Z</time></trkpt><trkpt lat="38.78702" lon="16.5742867"><ele>13.5</ele><time>2026-04-19T13:48:47.511Z</time></trkpt><trkpt lat="38.7868317" lon="16.57408"><ele>14.0</ele><time>2026-04-19T13:48:48.512Z</time></trkpt><trkpt lat="38.7866467" lon="16.5738667"><ele>19.0</ele><time>2026-04-19T13:48:49.512Z</time></trkpt><trkpt lat="38.7864567" lon="16.5736733"><ele>24.0</ele><time>2026-04-19T13:48:50.511Z</time></trkpt><trkpt lat="38.78627" lon="16.57348"><ele>24.0</ele><time>2026-04-19T13:48:51.511Z</time></trkpt><trkpt lat="38.78608" lon="16.5732967"><ele>24.0</ele><time>2026-04-19T13:48:52.511Z</time></trkpt><trkpt lat="38.7858917" lon="16.5731383"><ele>19.0</ele><time>2026-04-19T13:48:53.511Z</time></trkpt><trkpt lat="38.7856733" lon="16.572995"><ele>14.0</ele><time>2026-04-19T13:48:54.511Z</time></trkpt><trkpt lat="38.7854433" lon="16.572865"><ele>14.0</ele><time>2026-04-19T13:48:55.511Z</time></trkpt><trkpt lat="38.7852117" lon="16.5727433"><ele>14.0</ele><time>2026-04-19T13:48:56.511Z</time></trkpt><trkpt lat="38.784985" lon="16.5726383"><ele>14.0</ele><time>2026-04-19T13:48:57.512Z</time></trkpt><trkpt lat="38.7847517" lon="16.572515"><ele>14.0</ele><time>2026-04-19T13:48:58.511Z</time></trkpt><trkpt lat="38.78452" lon="16.5723983"><ele>12.0</ele><time>2026-04-19T13:48:59.511Z</time></trkpt><trkpt lat="38.7843" lon="16.5722667"><ele>10.0</ele><time>2026-04-19T13:49:00.511Z</time></trkpt><trkpt lat="38.7840767" lon="16.572135"><ele>10.0</ele><time>2026-04-19T13:49:01.511Z</time></trkpt><trkpt lat="38.7838533" lon="16.5720067"><ele>10.0</ele><time>2026-04-19T13:49:02.512Z</time></trkpt><trkpt lat="38.783635" lon="16.5718633"><ele>9.5</ele><time>2026-04-19T13:49:03.511Z</time></trkpt><trkpt lat="38.7834133" lon="16.57171"><ele>9.0</ele><time>2026-04-19T13:49:04.511Z</time></trkpt><trkpt lat="38.7831883" lon="16.571555"><ele>9.0</ele><time>2026-04-19T13:49:05.511Z</time></trkpt><trkpt lat="38.7829733" lon="16.5713783"><ele>9.0</ele><time>2026-04-19T13:49:06.511Z</time></trkpt><trkpt lat="38.7827633" lon="16.57119"><ele>9.5</ele><time>2026-04-19T13:49:07.511Z</time></trkpt><trkpt lat="38.7825533" lon="16.571005"><ele>10.0</ele><time>2026-04-19T13:49:08.511Z</time></trkpt><trkpt lat="38.7823483" lon="16.5708183"><ele>10.0</ele><time>2026-04-19T13:49:09.511Z</time></trkpt><trkpt lat="38.7821483" lon="16.5706333"><ele>10.0</ele><time>2026-04-19T13:49:10.511Z</time></trkpt><trkpt lat="38.78194" lon="16.5704467"><ele>9.0</ele><time>2026-04-19T13:49:11.511Z</time></trkpt><trkpt lat="38.78173" lon="16.57027"><ele>8.0</ele><time>2026-04-19T13:49:12.511Z</time></trkpt><trkpt lat="38.7815233" lon="16.5700883"><ele>8.0</ele><time>2026-04-19T13:49:13.512Z</time></trkpt><trkpt lat="38.7813217" lon="16.5699033"><ele>8.0</ele><time>2026-04-19T13:49:14.511Z</time></trkpt><trkpt lat="38.781125" lon="16.569715"><ele>8.0</ele><time>2026-04-19T13:49:15.511Z</time></trkpt><trkpt lat="38.7809217" lon="16.5695333"><ele>8.0</ele><time>2026-04-19T13:49:16.511Z</time></trkpt><trkpt lat="38.780725" lon="16.569355"><ele>8.0</ele><time>2026-04-19T13:49:17.512Z</time></trkpt><trkpt lat="38.7805383" lon="16.5691833"><ele>8.0</ele><time>2026-04-19T13:49:18.511Z</time></trkpt><trkpt lat="38.7803717" lon="16.5690133"><ele>8.0</ele><time>2026-04-19T13:49:19.511Z</time></trkpt><trkpt lat="38.7802067" lon="16.5688667"><ele>8.0</ele><time>2026-04-19T13:49:20.511Z</time></trkpt><trkpt lat="38.7800483" lon="16.5687217"><ele>8.0</ele><time>2026-04-19T13:49:21.511Z</time></trkpt><trkpt lat="38.779895" lon="16.5685733"><ele>8.0</ele><time>2026-04-19T13:49:22.512Z</time></trkpt><trkpt lat="38.779745" lon="16.5684333"><ele>8.0</ele><time>2026-04-19T13:49:23.512Z</time></trkpt><trkpt lat="38.7795983" lon="16.5682917"><ele>8.0</ele><time>2026-04-19T13:49:24.511Z</time></trkpt><trkpt lat="38.7794483" lon="16.568155"><ele>8.0</ele><time>2026-04-19T13:49:25.511Z</time></trkpt><trkpt lat="38.7793017" lon="16.5680283"><ele>7.666666666666666</ele><time>2026-04-19T13:49:26.511Z</time></trkpt><trkpt lat="38.7791567" lon="16.5678917"><ele>7.333333333333334</ele><time>2026-04-19T13:49:27.511Z</time></trkpt><trkpt lat="38.779005" lon="16.56776"><ele>7.0</ele><time>2026-04-19T13:49:28.511Z</time></trkpt><trkpt lat="38.7788533" lon="16.5676183"><ele>7.0</ele><time>2026-04-19T13:49:29.511Z</time></trkpt><trkpt lat="38.7786833" lon="16.5674733"><ele>7.0</ele><time>2026-04-19T13:49:30.511Z</time></trkpt><trkpt lat="38.7785033" lon="16.56731"><ele>7.0</ele><time>2026-04-19T13:49:31.511Z</time></trkpt><trkpt lat="38.7783267" lon="16.567135"><ele>7.0</ele><time>2026-04-19T13:49:32.511Z</time></trkpt><trkpt lat="38.7781383" lon="16.5669567"><ele>7.0</ele><time>2026-04-19T13:49:33.511Z</time></trkpt><trkpt lat="38.77794" lon="16.56678"><ele>7.0</ele><time>2026-04-19T13:49:34.511Z</time></trkpt><trkpt lat="38.777745" lon="16.5665867"><ele>7.0</ele><time>2026-04-19T13:49:35.512Z</time></trkpt><trkpt lat="38.777555" lon="16.566395"><ele>6.5</ele><time>2026-04-19T13:49:36.512Z</time></trkpt><trkpt lat="38.77735" lon="16.5662117"><ele>6.0</ele><time>2026-04-19T13:49:37.511Z</time></trkpt><trkpt lat="38.7771467" lon="16.56603"><ele>6.0</ele><time>2026-04-19T13:49:38.511Z</time></trkpt><trkpt lat="38.7769417" lon="16.5658517"><ele>6.0</ele><time>2026-04-19T13:49:39.512Z</time></trkpt><trkpt lat="38.776745" lon="16.56567"><ele>5.5</ele><time>2026-04-19T13:49:40.512Z</time></trkpt><trkpt lat="38.7765433" lon="16.5655"><ele>5.0</ele><time>2026-04-19T13:49:41.511Z</time></trkpt><trkpt lat="38.77636" lon="16.565325"><ele>6.0</ele><time>2026-04-19T13:49:42.511Z</time></trkpt><trkpt lat="38.7761733" lon="16.56515"><ele>7.0</ele><time>2026-04-19T13:49:43.511Z</time></trkpt><trkpt lat="38.7759967" lon="16.564985"><ele>7.0</ele><time>2026-04-19T13:49:44.511Z</time></trkpt><trkpt lat="38.7758417" lon="16.564825"><ele>7.0</ele><time>2026-04-19T13:49:45.512Z</time></trkpt><trkpt lat="38.7757033" lon="16.5646867"><ele>7.0</ele><time>2026-04-19T13:49:46.512Z</time></trkpt><trkpt lat="38.7755783" lon="16.5645567"><ele>7.0</ele><time>2026-04-19T13:49:47.511Z</time></trkpt><trkpt lat="38.7754633" lon="16.56443"><ele>7.0</ele><time>2026-04-19T13:49:48.511Z</time></trkpt><trkpt lat="38.775355" lon="16.5643067"><ele>7.0</ele><time>2026-04-19T13:49:49.511Z</time></trkpt><trkpt lat="38.775255" lon="16.5641933"><ele>7.0</ele><time>2026-04-19T13:49:50.511Z</time></trkpt><trkpt lat="38.7751483" lon="16.56409"><ele>6.75</ele><time>2026-04-19T13:49:51.511Z</time></trkpt><trkpt lat="38.775035" lon="16.5639917"><ele>6.5</ele><time>2026-04-19T13:49:52.511Z</time></trkpt><trkpt lat="38.7749183" lon="16.5638783"><ele>6.25</ele><time>2026-04-19T13:49:53.511Z</time></trkpt><trkpt lat="38.7748083" lon="16.56374"><ele>6.0</ele><time>2026-04-19T13:49:54.512Z</time></trkpt><trkpt lat="38.7747" lon="16.5635933"><ele>6.0</ele><time>2026-04-19T13:49:55.512Z</time></trkpt><trkpt lat="38.77459" lon="16.5634317"><ele>6.0</ele><time>2026-04-19T13:49:56.511Z</time></trkpt><trkpt lat="38.7744733" lon="16.5632617"><ele>6.0</ele><time>2026-04-19T13:49:57.511Z</time></trkpt><trkpt lat="38.7743417" lon="16.5630867"><ele>6.333333333333334</ele><time>2026-04-19T13:49:58.511Z</time></trkpt><trkpt lat="38.7741967" lon="16.5629117"><ele>6.666666666666667</ele><time>2026-04-19T13:49:59.511Z</time></trkpt><trkpt lat="38.7740383" lon="16.5627233"><ele>7.0</ele><time>2026-04-19T13:50:00.511Z</time></trkpt><trkpt lat="38.77389" lon="16.5625283"><ele>8.333333333333334</ele><time>2026-04-19T13:50:01.511Z</time></trkpt><trkpt lat="38.7737417" lon="16.5623317"><ele>9.666666666666666</ele><time>2026-04-19T13:50:02.511Z</time></trkpt><trkpt lat="38.7735883" lon="16.5621333"><ele>11.0</ele><time>2026-04-19T13:50:03.512Z</time></trkpt><trkpt lat="38.77343" lon="16.56196"><ele>13.0</ele><time>2026-04-19T13:50:04.512Z</time></trkpt><trkpt lat="38.7732433" lon="16.56182"><ele>15.0</ele><time>2026-04-19T13:50:05.511Z</time></trkpt><trkpt lat="38.7730433" lon="16.5616883"><ele>17.0</ele><time>2026-04-19T13:50:06.511Z</time></trkpt><trkpt lat="38.7728283" lon="16.5615717"><ele>16.0</ele><time>2026-04-19T13:50:07.511Z</time></trkpt><trkpt lat="38.7726117" lon="16.5614567"><ele>15.0</ele><time>2026-04-19T13:50:08.511Z</time></trkpt><trkpt lat="38.7723983" lon="16.561345"><ele>15.0</ele><time>2026-04-19T13:50:09.512Z</time></trkpt><trkpt lat="38.77218" lon="16.56123"><ele>15.0</ele><time>2026-04-19T13:50:10.512Z</time></trkpt><trkpt lat="38.7719517" lon="16.5611267"><ele>16.333333333333332</ele><time>2026-04-19T13:50:11.511Z</time></trkpt><trkpt lat="38.77175" lon="16.5610233"><ele>17.666666666666664</ele><time>2026-04-19T13:50:12.511Z</time></trkpt><trkpt lat="38.7715583" lon="16.560915"><ele>19.0</ele><time>2026-04-19T13:50:13.511Z</time></trkpt><trkpt lat="38.7713583" lon="16.56081"><ele>19.0</ele><time>2026-04-19T13:50:14.512Z</time></trkpt><trkpt lat="38.7711617" lon="16.5606933"><ele>19.0</ele><time>2026-04-19T13:50:15.512Z</time></trkpt><trkpt lat="38.770965" lon="16.5605867"><ele>19.0</ele><time>2026-04-19T13:50:16.512Z</time></trkpt><trkpt lat="38.770785" lon="16.5604817"><ele>19.333333333333332</ele><time>2026-04-19T13:50:17.511Z</time></trkpt><trkpt lat="38.7706067" lon="16.56039"><ele>19.666666666666668</ele><time>2026-04-19T13:50:18.511Z</time></trkpt><trkpt lat="38.770435" lon="16.560305"><ele>20.0</ele><time>2026-04-19T13:50:19.511Z</time></trkpt><trkpt lat="38.77028" lon="16.5602117"><ele>21.666666666666668</ele><time>2026-04-19T13:50:20.512Z</time></trkpt><trkpt lat="38.7701283" lon="16.56014"><ele>23.333333333333336</ele><time>2026-04-19T13:50:21.512Z</time></trkpt><trkpt lat="38.769985" lon="16.5600967"><ele>25.0</ele><time>2026-04-19T13:50:22.511Z</time></trkpt><trkpt lat="38.769835" lon="16.5600983"><ele>25.0</ele><time>2026-04-19T13:50:23.511Z</time></trkpt><trkpt lat="38.7696867" lon="16.5601367"><ele>25.0</ele><time>2026-04-19T13:50:24.511Z</time></trkpt><trkpt lat="38.7695367" lon="16.5601583"><ele>25.0</ele><time>2026-04-19T13:50:25.511Z</time></trkpt><trkpt lat="38.769375" lon="16.5602"><ele>23.333333333333336</ele><time>2026-04-19T13:50:26.512Z</time></trkpt><trkpt lat="38.7692133" lon="16.56025"><ele>21.666666666666668</ele><time>2026-04-19T13:50:27.511Z</time></trkpt><trkpt lat="38.76906" lon="16.56032"><ele>20.0</ele><time>2026-04-19T13:50:28.511Z</time></trkpt><trkpt lat="38.768915" lon="16.5604317"><ele>20.0</ele><time>2026-04-19T13:50:29.512Z</time></trkpt><trkpt lat="38.76878" lon="16.5605617"><ele>20.0</ele><time>2026-04-19T13:50:30.512Z</time></trkpt><trkpt lat="38.7686633" lon="16.5606867"><ele>20.0</ele><time>2026-04-19T13:50:31.512Z</time></trkpt><trkpt lat="38.7685783" lon="16.5608017"><ele>20.0</ele><time>2026-04-19T13:50:32.511Z</time></trkpt><trkpt lat="38.768505" lon="16.5608867"><ele>19.6</ele><time>2026-04-19T13:50:33.511Z</time></trkpt><trkpt lat="38.7684283" lon="16.5609633"><ele>19.2</ele><time>2026-04-19T13:50:34.512Z</time></trkpt><trkpt lat="38.7683417" lon="16.5610283"><ele>18.8</ele><time>2026-04-19T13:50:35.511Z</time></trkpt><trkpt lat="38.7682533" lon="16.5611"><ele>18.4</ele><time>2026-04-19T13:50:36.511Z</time></trkpt><trkpt lat="38.76815" lon="16.5611817"><ele>18.0</ele><time>2026-04-19T13:50:37.511Z</time></trkpt><trkpt lat="38.76803" lon="16.5612917"><ele>18.0</ele><time>2026-04-19T13:50:38.512Z</time></trkpt><trkpt lat="38.7678983" lon="16.5614067"><ele>18.0</ele><time>2026-04-19T13:50:39.512Z</time></trkpt><trkpt lat="38.7677567" lon="16.5615367"><ele>18.0</ele><time>2026-04-19T13:50:40.511Z</time></trkpt><trkpt lat="38.7676117" lon="16.5616767"><ele>20.666666666666664</ele><time>2026-04-19T13:50:41.511Z</time></trkpt><trkpt lat="38.7674567" lon="16.56185"><ele>23.333333333333332</ele><time>2026-04-19T13:50:42.512Z</time></trkpt><trkpt lat="38.7673167" lon="16.562045"><ele>26.0</ele><time>2026-04-19T13:50:43.512Z</time></trkpt><trkpt lat="38.767165" lon="16.5622417"><ele>26.0</ele><time>2026-04-19T13:50:44.511Z</time></trkpt><trkpt lat="38.767025" lon="16.5624317"><ele>26.0</ele><time>2026-04-19T13:50:45.511Z</time></trkpt><trkpt lat="38.7668867" lon="16.562635"><ele>26.0</ele><time>2026-04-19T13:50:46.511Z</time></trkpt><trkpt lat="38.7667417" lon="16.5628133"><ele>29.333333333333332</ele><time>2026-04-19T13:50:47.512Z</time></trkpt><trkpt lat="38.7666267" lon="16.5629833"><ele>32.666666666666664</ele><time>2026-04-19T13:50:48.512Z</time></trkpt><trkpt lat="38.7665117" lon="16.5631433"><ele>36.0</ele><time>2026-04-19T13:50:49.511Z</time></trkpt><trkpt lat="38.7664133" lon="16.5633033"><ele>36.0</ele><time>2026-04-19T13:50:50.511Z</time></trkpt><trkpt lat="38.7663083" lon="16.56345"><ele>36.0</ele><time>2026-04-19T13:50:51.511Z</time></trkpt><trkpt lat="38.766205" lon="16.5635983"><ele>36.0</ele><time>2026-04-19T13:50:52.511Z</time></trkpt><trkpt lat="38.7660883" lon="16.563745"><ele>37.666666666666664</ele><time>2026-04-19T13:50:53.511Z</time></trkpt><trkpt lat="38.765975" lon="16.5639017"><ele>39.33333333333333</ele><time>2026-04-19T13:50:54.512Z</time></trkpt><trkpt lat="38.7658617" lon="16.564035"><ele>41.0</ele><time>2026-04-19T13:50:55.512Z</time></trkpt><trkpt lat="38.7657517" lon="16.56416"><ele>41.0</ele><time>2026-04-19T13:50:56.511Z</time></trkpt><trkpt lat="38.7656333" lon="16.5642833"><ele>41.0</ele><time>2026-04-19T13:50:57.511Z</time></trkpt><trkpt lat="38.7655183" lon="16.5644267"><ele>41.0</ele><time>2026-04-19T13:50:58.511Z</time></trkpt><trkpt lat="38.765405" lon="16.5645717"><ele>34.33333333333333</ele><time>2026-04-19T13:50:59.511Z</time></trkpt><trkpt lat="38.7652917" lon="16.5647183"><ele>27.666666666666664</ele><time>2026-04-19T13:51:00.511Z</time></trkpt><trkpt lat="38.765155" lon="16.5648917"><ele>21.0</ele><time>2026-04-19T13:51:01.511Z</time></trkpt><trkpt lat="38.7650283" lon="16.5650667"><ele>27.666666666666664</ele><time>2026-04-19T13:51:02.511Z</time></trkpt><trkpt lat="38.7649083" lon="16.5652483"><ele>34.33333333333333</ele><time>2026-04-19T13:51:03.511Z</time></trkpt><trkpt lat="38.7648183" lon="16.5654117"><ele>41.0</ele><time>2026-04-19T13:51:04.511Z</time></trkpt><trkpt lat="38.7647233" lon="16.5655883"><ele>41.0</ele><time>2026-04-19T13:51:05.511Z</time></trkpt><trkpt lat="38.7643983" lon="16.5660967"><ele>57.0</ele><time>2026-04-19T13:51:08.512Z</time></trkpt><trkpt lat="38.7633954" lon="16.568055"><ele>57.0</ele><time>2026-04-19T13:51:17.641Z</time></trkpt><trkpt lat="38.76328" lon="16.567805"><ele>57.0</ele><time>2026-04-19T13:51:19.512Z</time></trkpt><trkpt lat="38.7631933" lon="16.5679783"><ele>57.0</ele><time>2026-04-19T13:51:20.511Z</time></trkpt><trkpt lat="38.7630733" lon="16.5680783"><ele>57.0</ele><time>2026-04-19T13:51:21.511Z</time></trkpt><trkpt lat="38.7629433" lon="16.5681283"><ele>57.0</ele><time>2026-04-19T13:51:22.511Z</time></trkpt><trkpt lat="38.762815" lon="16.5681667"><ele>57.0</ele><time>2026-04-19T13:51:23.512Z</time></trkpt><trkpt lat="38.7626933" lon="16.5681933"><ele>57.0</ele><time>2026-04-19T13:51:24.511Z</time></trkpt><trkpt lat="38.7625817" lon="16.5682067"><ele>59.400000000000006</ele><time>2026-04-19T13:51:25.511Z</time></trkpt><trkpt lat="38.762495" lon="16.5682433"><ele>61.800000000000004</ele><time>2026-04-19T13:51:26.511Z</time></trkpt><trkpt lat="38.762405" lon="16.5682567"><ele>64.2</ele><time>2026-04-19T13:51:27.512Z</time></trkpt><trkpt lat="38.76233" lon="16.5682767"><ele>66.60000000000001</ele><time>2026-04-19T13:51:28.511Z</time></trkpt><trkpt lat="38.762215" lon="16.5682783"><ele>69.0</ele><time>2026-04-19T13:51:30.511Z</time></trkpt><trkpt lat="38.7621183" lon="16.56828"><ele>69.0</ele><time>2026-04-19T13:51:32.511Z</time></trkpt><trkpt lat="38.7620117" lon="16.5683067"><ele>69.0</ele><time>2026-04-19T13:51:34.512Z</time></trkpt><trkpt lat="38.76189" lon="16.5683383"><ele>69.0</ele><time>2026-04-19T13:51:36.511Z</time></trkpt><trkpt lat="38.761825" lon="16.568365"><ele>69.0</ele><time>2026-04-19T13:51:37.512Z</time></trkpt><trkpt lat="38.7617567" lon="16.5683983"><ele>69.0</ele><time>2026-04-19T13:51:38.511Z</time></trkpt><trkpt lat="38.7616833" lon="16.5684367"><ele>70.16666666666667</ele><time>2026-04-19T13:51:39.511Z</time></trkpt><trkpt lat="38.7616067" lon="16.568475"><ele>71.33333333333333</ele><time>2026-04-19T13:51:40.511Z</time></trkpt><trkpt lat="38.7615217" lon="16.5685233"><ele>72.5</ele><time>2026-04-19T13:51:41.511Z</time></trkpt><trkpt lat="38.7614433" lon="16.5685717"><ele>73.66666666666666</ele><time>2026-04-19T13:51:42.511Z</time></trkpt><trkpt lat="38.7613633" lon="16.5686133"><ele>74.83333333333333</ele><time>2026-04-19T13:51:43.512Z</time></trkpt><trkpt lat="38.7612817" lon="16.5686583"><ele>76.0</ele><time>2026-04-19T13:51:44.511Z</time></trkpt><trkpt lat="38.7611983" lon="16.5687117"><ele>73.39999999999999</ele><time>2026-04-19T13:51:45.511Z</time></trkpt><trkpt lat="38.7611167" lon="16.5687683"><ele>70.8</ele><time>2026-04-19T13:51:46.512Z</time></trkpt><trkpt lat="38.7610233" lon="16.5688233"><ele>68.19999999999999</ele><time>2026-04-19T13:51:47.511Z</time></trkpt><trkpt lat="38.7609117" lon="16.568865"><ele>65.6</ele><time>2026-04-19T13:51:48.511Z</time></trkpt><trkpt lat="38.7608083" lon="16.5689"><ele>63.0</ele><time>2026-04-19T13:51:49.512Z</time></trkpt><trkpt lat="38.7607033" lon="16.5689233"><ele>63.0</ele><time>2026-04-19T13:51:50.511Z</time></trkpt><trkpt lat="38.7605983" lon="16.5689417"><ele>63.0</ele><time>2026-04-19T13:51:51.511Z</time></trkpt><trkpt lat="38.7604867" lon="16.568975"><ele>63.0</ele><time>2026-04-19T13:51:52.511Z</time></trkpt><trkpt lat="38.7603783" lon="16.5689967"><ele>63.0</ele><time>2026-04-19T13:51:53.511Z</time></trkpt><trkpt lat="38.7602683" lon="16.5690283"><ele>63.0</ele><time>2026-04-19T13:51:54.511Z</time></trkpt><trkpt lat="38.7601633" lon="16.5690517"><ele>64.25</ele><time>2026-04-19T13:51:55.512Z</time></trkpt><trkpt lat="38.7600467" lon="16.569065"><ele>65.5</ele><time>2026-04-19T13:51:56.512Z</time></trkpt><trkpt lat="38.7599367" lon="16.569085"><ele>66.75</ele><time>2026-04-19T13:51:57.512Z</time></trkpt><trkpt lat="38.7598183" lon="16.5691133"><ele>68.0</ele><time>2026-04-19T13:51:58.511Z</time></trkpt><trkpt lat="38.7597033" lon="16.5691417"><ele>68.0</ele><time>2026-04-19T13:51:59.511Z</time></trkpt><trkpt lat="38.7595917" lon="16.5691767"><ele>68.0</ele><time>2026-04-19T13:52:00.511Z</time></trkpt><trkpt lat="38.7594933" lon="16.5692183"><ele>68.0</ele><time>2026-04-19T13:52:01.511Z</time></trkpt><trkpt lat="38.7593967" lon="16.5692017"><ele>68.0</ele><time>2026-04-19T13:52:02.511Z</time></trkpt><trkpt lat="38.7592967" lon="16.569175"><ele>68.0</ele><time>2026-04-19T13:52:03.511Z</time></trkpt><trkpt lat="38.7592" lon="16.5691367"><ele>69.0</ele><time>2026-04-19T13:52:04.512Z</time></trkpt><trkpt lat="38.7591033" lon="16.5691"><ele>70.0</ele><time>2026-04-19T13:52:05.511Z</time></trkpt><trkpt lat="38.759005" lon="16.5690583"><ele>71.0</ele><time>2026-04-19T13:52:06.511Z</time></trkpt><trkpt lat="38.7589033" lon="16.56902"><ele>72.0</ele><time>2026-04-19T13:52:07.511Z</time></trkpt><trkpt lat="38.7588083" lon="16.5689767"><ele>73.0</ele><time>2026-04-19T13:52:08.511Z</time></trkpt><trkpt lat="38.758715" lon="16.5689283"><ele>73.0</ele><time>2026-04-19T13:52:09.511Z</time></trkpt><trkpt lat="38.758615" lon="16.568885"><ele>73.0</ele><time>2026-04-19T13:52:10.511Z</time></trkpt><trkpt lat="38.7585217" lon="16.5688333"><ele>73.0</ele><time>2026-04-19T13:52:11.512Z</time></trkpt><trkpt lat="38.75843" lon="16.5687917"><ele>73.0</ele><time>2026-04-19T13:52:12.511Z</time></trkpt><trkpt lat="38.7583333" lon="16.5687567"><ele>73.0</ele><time>2026-04-19T13:52:13.511Z</time></trkpt><trkpt lat="38.7582283" lon="16.568715"><ele>76.0</ele><time>2026-04-19T13:52:14.511Z</time></trkpt><trkpt lat="38.7581167" lon="16.568665"><ele>79.0</ele><time>2026-04-19T13:52:15.511Z</time></trkpt><trkpt lat="38.7579933" lon="16.5686083"><ele>82.0</ele><time>2026-04-19T13:52:16.511Z</time></trkpt><trkpt lat="38.7578617" lon="16.5685467"><ele>85.0</ele><time>2026-04-19T13:52:17.511Z</time></trkpt><trkpt lat="38.7577183" lon="16.5684833"><ele>76.33333333333333</ele><time>2026-04-19T13:52:18.511Z</time></trkpt><trkpt lat="38.7575683" lon="16.568445"><ele>67.66666666666667</ele><time>2026-04-19T13:52:19.511Z</time></trkpt><trkpt lat="38.7574" lon="16.5684133"><ele>59.0</ele><time>2026-04-19T13:52:20.511Z</time></trkpt><trkpt lat="38.7572367" lon="16.5683633"><ele>59.0</ele><time>2026-04-19T13:52:21.511Z</time></trkpt><trkpt lat="38.757075" lon="16.5683167"><ele>59.0</ele><time>2026-04-19T13:52:22.511Z</time></trkpt><trkpt lat="38.7569117" lon="16.5682617"><ele>59.0</ele><time>2026-04-19T13:52:23.511Z</time></trkpt><trkpt lat="38.7567433" lon="16.56821"><ele>53.0</ele><time>2026-04-19T13:52:24.512Z</time></trkpt><trkpt lat="38.7565783" lon="16.5681583"><ele>47.0</ele><time>2026-04-19T13:52:25.511Z</time></trkpt><trkpt lat="38.75642" lon="16.5680867"><ele>41.0</ele><time>2026-04-19T13:52:26.512Z</time></trkpt><trkpt lat="38.7562683" lon="16.5680067"><ele>41.0</ele><time>2026-04-19T13:52:27.511Z</time></trkpt><trkpt lat="38.756125" lon="16.5679367"><ele>41.0</ele><time>2026-04-19T13:52:28.511Z</time></trkpt><trkpt lat="38.7559783" lon="16.56786"><ele>41.0</ele><time>2026-04-19T13:52:29.512Z</time></trkpt><trkpt lat="38.7558333" lon="16.567785"><ele>57.33333333333333</ele><time>2026-04-19T13:52:30.511Z</time></trkpt><trkpt lat="38.755685" lon="16.5677"><ele>73.66666666666667</ele><time>2026-04-19T13:52:31.511Z</time></trkpt><trkpt lat="38.7555433" lon="16.5675967"><ele>90.0</ele><time>2026-04-19T13:52:32.511Z</time></trkpt><trkpt lat="38.7553983" lon="16.5674883"><ele>90.0</ele><time>2026-04-19T13:52:33.512Z</time></trkpt><trkpt lat="38.75525" lon="16.5673767"><ele>90.0</ele><time>2026-04-19T13:52:34.512Z</time></trkpt><trkpt lat="38.7551133" lon="16.5672583"><ele>90.0</ele><time>2026-04-19T13:52:35.511Z</time></trkpt><trkpt lat="38.7549817" lon="16.5671183"><ele>92.0</ele><time>2026-04-19T13:52:36.511Z</time></trkpt><trkpt lat="38.7548633" lon="16.5669617"><ele>94.0</ele><time>2026-04-19T13:52:37.511Z</time></trkpt><trkpt lat="38.7547617" lon="16.5667867"><ele>96.0</ele><time>2026-04-19T13:52:38.511Z</time></trkpt><trkpt lat="38.7546683" lon="16.5666017"><ele>96.0</ele><time>2026-04-19T13:52:39.511Z</time></trkpt><trkpt lat="38.754585" lon="16.5664067"><ele>96.0</ele><time>2026-04-19T13:52:40.511Z</time></trkpt><trkpt lat="38.75451" lon="16.5662133"><ele>96.0</ele><time>2026-04-19T13:52:41.511Z</time></trkpt><trkpt lat="38.7544417" lon="16.5660083"><ele>96.33333333333334</ele><time>2026-04-19T13:52:42.511Z</time></trkpt><trkpt lat="38.7543867" lon="16.5658017"><ele>96.66666666666667</ele><time>2026-04-19T13:52:43.512Z</time></trkpt><trkpt lat="38.7543383" lon="16.5655833"><ele>97.0</ele><time>2026-04-19T13:52:44.511Z</time></trkpt><trkpt lat="38.754295" lon="16.5653617"><ele>97.0</ele><time>2026-04-19T13:52:45.511Z</time></trkpt><trkpt lat="38.7542567" lon="16.565145"><ele>97.0</ele><time>2026-04-19T13:52:46.511Z</time></trkpt><trkpt lat="38.7542117" lon="16.564945"><ele>97.0</ele><time>2026-04-19T13:52:47.512Z</time></trkpt><trkpt lat="38.7541533" lon="16.564745"><ele>97.0</ele><time>2026-04-19T13:52:48.511Z</time></trkpt><trkpt lat="38.7541083" lon="16.5645417"><ele>97.0</ele><time>2026-04-19T13:52:49.511Z</time></trkpt><trkpt lat="38.7540717" lon="16.5643267"><ele>97.0</ele><time>2026-04-19T13:52:50.511Z</time></trkpt><trkpt lat="38.7540367" lon="16.5641167"><ele>101.66666666666667</ele><time>2026-04-19T13:52:51.511Z</time></trkpt><trkpt lat="38.7539983" lon="16.5639067"><ele>106.33333333333334</ele><time>2026-04-19T13:52:52.511Z</time></trkpt><trkpt lat="38.75396" lon="16.5637033"><ele>111.0</ele><time>2026-04-19T13:52:53.511Z</time></trkpt><trkpt lat="38.75392" lon="16.5635067"><ele>114.0</ele><time>2026-04-19T13:52:54.511Z</time></trkpt><trkpt lat="38.7538683" lon="16.5633033"><ele>117.0</ele><time>2026-04-19T13:52:55.511Z</time></trkpt><trkpt lat="38.7538183" lon="16.5631033"><ele>120.0</ele><time>2026-04-19T13:52:56.512Z</time></trkpt><trkpt lat="38.7537583" lon="16.5628983"><ele>115.0</ele><time>2026-04-19T13:52:57.512Z</time></trkpt><trkpt lat="38.7536817" lon="16.5627067"><ele>110.0</ele><time>2026-04-19T13:52:58.511Z</time></trkpt><trkpt lat="38.7536267" lon="16.5625117"><ele>105.0</ele><time>2026-04-19T13:52:59.511Z</time></trkpt><trkpt lat="38.7535667" lon="16.562315"><ele>94.0</ele><time>2026-04-19T13:53:00.511Z</time></trkpt><trkpt lat="38.7534967" lon="16.5621217"><ele>83.0</ele><time>2026-04-19T13:53:01.511Z</time></trkpt><trkpt lat="38.7534217" lon="16.5619333"><ele>72.0</ele><time>2026-04-19T13:53:02.511Z</time></trkpt><trkpt lat="38.75336" lon="16.56174"><ele>72.0</ele><time>2026-04-19T13:53:03.512Z</time></trkpt><trkpt lat="38.75329" lon="16.5615333"><ele>72.0</ele><time>2026-04-19T13:53:04.511Z</time></trkpt><trkpt lat="38.7532217" lon="16.56134"><ele>72.0</ele><time>2026-04-19T13:53:05.511Z</time></trkpt><trkpt lat="38.75315" lon="16.56115"><ele>79.33333333333333</ele><time>2026-04-19T13:53:06.512Z</time></trkpt><trkpt lat="38.7530783" lon="16.5609433"><ele>86.66666666666666</ele><time>2026-04-19T13:53:07.512Z</time></trkpt><trkpt lat="38.753" lon="16.5607367"><ele>94.0</ele><time>2026-04-19T13:53:08.511Z</time></trkpt><trkpt lat="38.7529367" lon="16.5605417"><ele>99.0</ele><time>2026-04-19T13:53:09.511Z</time></trkpt><trkpt lat="38.7528733" lon="16.5603417"><ele>104.0</ele><time>2026-04-19T13:53:10.511Z</time></trkpt><trkpt lat="38.7528" lon="16.5601433"><ele>109.0</ele><time>2026-04-19T13:53:11.511Z</time></trkpt><trkpt lat="38.7527217" lon="16.5599417"><ele>104.66666666666667</ele><time>2026-04-19T13:53:12.511Z</time></trkpt><trkpt lat="38.7526483" lon="16.5597417"><ele>100.33333333333334</ele><time>2026-04-19T13:53:13.511Z</time></trkpt><trkpt lat="38.7525633" lon="16.5595483"><ele>96.0</ele><time>2026-04-19T13:53:14.511Z</time></trkpt><trkpt lat="38.7524833" lon="16.5593383"><ele>96.0</ele><time>2026-04-19T13:53:15.511Z</time></trkpt><trkpt lat="38.752405" lon="16.5591317"><ele>96.0</ele><time>2026-04-19T13:53:16.512Z</time></trkpt><trkpt lat="38.7523267" lon="16.5589217"><ele>96.0</ele><time>2026-04-19T13:53:17.511Z</time></trkpt><trkpt lat="38.75225" lon="16.5587133"><ele>99.33333333333334</ele><time>2026-04-19T13:53:18.511Z</time></trkpt><trkpt lat="38.7521583" lon="16.558515"><ele>102.66666666666667</ele><time>2026-04-19T13:53:19.511Z</time></trkpt><trkpt lat="38.7520633" lon="16.5583183"><ele>106.0</ele><time>2026-04-19T13:53:20.511Z</time></trkpt><trkpt lat="38.7519617" lon="16.5581217"><ele>106.0</ele><time>2026-04-19T13:53:21.511Z</time></trkpt><trkpt lat="38.7518517" lon="16.5579283"><ele>106.0</ele><time>2026-04-19T13:53:22.511Z</time></trkpt><trkpt lat="38.7517333" lon="16.5577483"><ele>106.0</ele><time>2026-04-19T13:53:23.511Z</time></trkpt><trkpt lat="38.7516033" lon="16.5575817"><ele>107.33333333333334</ele><time>2026-04-19T13:53:24.511Z</time></trkpt><trkpt lat="38.7514717" lon="16.5574333"><ele>108.66666666666666</ele><time>2026-04-19T13:53:25.511Z</time></trkpt><trkpt lat="38.7513383" lon="16.5573017"><ele>110.0</ele><time>2026-04-19T13:53:26.511Z</time></trkpt><trkpt lat="38.7512" lon="16.5571983"><ele>110.0</ele><time>2026-04-19T13:53:27.512Z</time></trkpt><trkpt lat="38.7510467" lon="16.557105"><ele>110.0</ele><time>2026-04-19T13:53:28.512Z</time></trkpt><trkpt lat="38.75089" lon="16.55702"><ele>110.0</ele><time>2026-04-19T13:53:29.511Z</time></trkpt><trkpt lat="38.75072" lon="16.5569483"><ele>110.33333333333333</ele><time>2026-04-19T13:53:30.511Z</time></trkpt><trkpt lat="38.75055" lon="16.5568883"><ele>110.66666666666666</ele><time>2026-04-19T13:53:31.512Z</time></trkpt><trkpt lat="38.7503917" lon="16.5568417"><ele>111.0</ele><time>2026-04-19T13:53:32.511Z</time></trkpt><trkpt lat="38.750215" lon="16.55681"><ele>106.0</ele><time>2026-04-19T13:53:33.511Z</time></trkpt><trkpt lat="38.7500467" lon="16.5567733"><ele>101.0</ele><time>2026-04-19T13:53:34.512Z</time></trkpt><trkpt lat="38.749885" lon="16.5567333"><ele>96.0</ele><time>2026-04-19T13:53:35.511Z</time></trkpt><trkpt lat="38.7497283" lon="16.556695"><ele>96.0</ele><time>2026-04-19T13:53:36.511Z</time></trkpt><trkpt lat="38.7495617" lon="16.5566517"><ele>96.0</ele><time>2026-04-19T13:53:37.511Z</time></trkpt><trkpt lat="38.7493933" lon="16.556625"><ele>96.0</ele><time>2026-04-19T13:53:38.512Z</time></trkpt><trkpt lat="38.749225" lon="16.556585"><ele>97.0</ele><time>2026-04-19T13:53:39.512Z</time></trkpt><trkpt lat="38.7490467" lon="16.5565467"><ele>98.0</ele><time>2026-04-19T13:53:40.511Z</time></trkpt><trkpt lat="38.7488667" lon="16.556505"><ele>99.0</ele><time>2026-04-19T13:53:41.512Z</time></trkpt><trkpt lat="38.7486833" lon="16.55646"><ele>97.66666666666667</ele><time>2026-04-19T13:53:42.512Z</time></trkpt><trkpt lat="38.7484983" lon="16.5564167"><ele>96.33333333333334</ele><time>2026-04-19T13:53:43.511Z</time></trkpt><trkpt lat="38.74831" lon="16.556365"><ele>95.0</ele><time>2026-04-19T13:53:44.511Z</time></trkpt><trkpt lat="38.7481167" lon="16.5563167"><ele>95.0</ele><time>2026-04-19T13:53:45.511Z</time></trkpt><trkpt lat="38.7479183" lon="16.5562767"><ele>95.0</ele><time>2026-04-19T13:53:46.511Z</time></trkpt><trkpt lat="38.7477233" lon="16.5562433"><ele>95.0</ele><time>2026-04-19T13:53:47.511Z</time></trkpt><trkpt lat="38.7475333" lon="16.5562017"><ele>95.33333333333334</ele><time>2026-04-19T13:53:48.512Z</time></trkpt><trkpt lat="38.7473433" lon="16.5561617"><ele>95.66666666666667</ele><time>2026-04-19T13:53:49.511Z</time></trkpt><trkpt lat="38.7471533" lon="16.5561217"><ele>96.0</ele><time>2026-04-19T13:53:50.511Z</time></trkpt><trkpt lat="38.7469517" lon="16.5560867"><ele>92.33333333333333</ele><time>2026-04-19T13:53:51.511Z</time></trkpt><trkpt lat="38.7467517" lon="16.556035"><ele>88.66666666666666</ele><time>2026-04-19T13:53:52.511Z</time></trkpt><trkpt lat="38.7465633" lon="16.5559817"><ele>85.0</ele><time>2026-04-19T13:53:53.511Z</time></trkpt><trkpt lat="38.7463767" lon="16.55591"><ele>85.0</ele><time>2026-04-19T13:53:54.512Z</time></trkpt><trkpt lat="38.7461817" lon="16.555825"><ele>85.0</ele><time>2026-04-19T13:53:55.511Z</time></trkpt><trkpt lat="38.7459983" lon="16.555695"><ele>85.0</ele><time>2026-04-19T13:53:56.511Z</time></trkpt><trkpt lat="38.7458117" lon="16.5555633"><ele>83.66666666666666</ele><time>2026-04-19T13:53:57.511Z</time></trkpt><trkpt lat="38.745645" lon="16.555405"><ele>82.33333333333333</ele><time>2026-04-19T13:53:58.511Z</time></trkpt><trkpt lat="38.7454783" lon="16.555235"><ele>81.0</ele><time>2026-04-19T13:53:59.512Z</time></trkpt><trkpt lat="38.74533" lon="16.5550233"><ele>80.0</ele><time>2026-04-19T13:54:00.511Z</time></trkpt><trkpt lat="38.7451867" lon="16.5548167"><ele>79.0</ele><time>2026-04-19T13:54:01.511Z</time></trkpt><trkpt lat="38.745065" lon="16.5546083"><ele>78.0</ele><time>2026-04-19T13:54:02.512Z</time></trkpt><trkpt lat="38.7449467" lon="16.5543833"><ele>78.0</ele><time>2026-04-19T13:54:03.512Z</time></trkpt><trkpt lat="38.744845" lon="16.554145"><ele>78.0</ele><time>2026-04-19T13:54:04.511Z</time></trkpt><trkpt lat="38.74476" lon="16.5539"><ele>78.0</ele><time>2026-04-19T13:54:05.511Z</time></trkpt><trkpt lat="38.7446917" lon="16.553645"><ele>78.33333333333333</ele><time>2026-04-19T13:54:06.511Z</time></trkpt><trkpt lat="38.7446317" lon="16.5533917"><ele>78.66666666666666</ele><time>2026-04-19T13:54:07.512Z</time></trkpt><trkpt lat="38.744585" lon="16.5531367"><ele>79.0</ele><time>2026-04-19T13:54:08.511Z</time></trkpt><trkpt lat="38.744545" lon="16.5528833"><ele>76.66666666666666</ele><time>2026-04-19T13:54:09.511Z</time></trkpt><trkpt lat="38.7445117" lon="16.5526217"><ele>74.33333333333333</ele><time>2026-04-19T13:54:10.511Z</time></trkpt><trkpt lat="38.7444883" lon="16.5523717"><ele>72.0</ele><time>2026-04-19T13:54:11.512Z</time></trkpt><trkpt lat="38.7444567" lon="16.55213"><ele>67.66666666666667</ele><time>2026-04-19T13:54:12.512Z</time></trkpt><trkpt lat="38.74443" lon="16.5518817"><ele>63.333333333333336</ele><time>2026-04-19T13:54:13.511Z</time></trkpt><trkpt lat="38.7443983" lon="16.551645"><ele>59.0</ele><time>2026-04-19T13:54:14.512Z</time></trkpt><trkpt lat="38.7443617" lon="16.5514017"><ele>54.333333333333336</ele><time>2026-04-19T13:54:15.511Z</time></trkpt><trkpt lat="38.74433" lon="16.5511567"><ele>49.66666666666667</ele><time>2026-04-19T13:54:16.511Z</time></trkpt><trkpt lat="38.7442933" lon="16.5509133"><ele>45.0</ele><time>2026-04-19T13:54:17.512Z</time></trkpt><trkpt lat="38.7442617" lon="16.550665"><ele>45.0</ele><time>2026-04-19T13:54:18.512Z</time></trkpt><trkpt lat="38.7442267" lon="16.550415"><ele>45.0</ele><time>2026-04-19T13:54:19.511Z</time></trkpt><trkpt lat="38.7441917" lon="16.55017"><ele>45.0</ele><time>2026-04-19T13:54:20.511Z</time></trkpt><trkpt lat="38.7441633" lon="16.54994"><ele>45.0</ele><time>2026-04-19T13:54:21.511Z</time></trkpt><trkpt lat="38.7441283" lon="16.5497133"><ele>45.0</ele><time>2026-04-19T13:54:22.511Z</time></trkpt><trkpt lat="38.7440817" lon="16.549485"><ele>45.0</ele><time>2026-04-19T13:54:23.511Z</time></trkpt><trkpt lat="38.74403" lon="16.5492567"><ele>45.0</ele><time>2026-04-19T13:54:24.512Z</time></trkpt><trkpt lat="38.7439633" lon="16.5490367"><ele>45.0</ele><time>2026-04-19T13:54:25.511Z</time></trkpt><trkpt lat="38.743885" lon="16.5488183"><ele>45.0</ele><time>2026-04-19T13:54:26.511Z</time></trkpt><trkpt lat="38.7437883" lon="16.5486067"><ele>44.0</ele><time>2026-04-19T13:54:27.512Z</time></trkpt><trkpt lat="38.7436883" lon="16.5484"><ele>43.0</ele><time>2026-04-19T13:54:28.511Z</time></trkpt><trkpt lat="38.74358" lon="16.5482067"><ele>42.0</ele><time>2026-04-19T13:54:29.512Z</time></trkpt><trkpt lat="38.7434533" lon="16.5480233"><ele>42.666666666666664</ele><time>2026-04-19T13:54:30.511Z</time></trkpt><trkpt lat="38.74332" lon="16.5478467"><ele>43.33333333333333</ele><time>2026-04-19T13:54:31.512Z</time></trkpt><trkpt lat="38.7431767" lon="16.5476733"><ele>44.0</ele><time>2026-04-19T13:54:32.511Z</time></trkpt><trkpt lat="38.7430233" lon="16.547525"><ele>44.0</ele><time>2026-04-19T13:54:33.512Z</time></trkpt><trkpt lat="38.74286" lon="16.5473817"><ele>44.0</ele><time>2026-04-19T13:54:34.511Z</time></trkpt><trkpt lat="38.7426883" lon="16.54725"><ele>44.0</ele><time>2026-04-19T13:54:35.511Z</time></trkpt><trkpt lat="38.742505" lon="16.547145"><ele>42.33333333333333</ele><time>2026-04-19T13:54:36.511Z</time></trkpt><trkpt lat="38.7423233" lon="16.547055"><ele>40.666666666666664</ele><time>2026-04-19T13:54:37.511Z</time></trkpt><trkpt lat="38.7421383" lon="16.5469917"><ele>39.0</ele><time>2026-04-19T13:54:38.512Z</time></trkpt><trkpt lat="38.7419483" lon="16.5469317"><ele>36.333333333333336</ele><time>2026-04-19T13:54:39.512Z</time></trkpt><trkpt lat="38.741755" lon="16.5468933"><ele>33.66666666666667</ele><time>2026-04-19T13:54:40.512Z</time></trkpt><trkpt lat="38.7415567" lon="16.5468517"><ele>31.0</ele><time>2026-04-19T13:54:41.512Z</time></trkpt><trkpt lat="38.7413533" lon="16.5468133"><ele>31.0</ele><time>2026-04-19T13:54:42.511Z</time></trkpt><trkpt lat="38.7411617" lon="16.5467833"><ele>31.0</ele><time>2026-04-19T13:54:43.512Z</time></trkpt><trkpt lat="38.7409733" lon="16.5467567"><ele>31.0</ele><time>2026-04-19T13:54:44.512Z</time></trkpt><trkpt lat="38.7407833" lon="16.54672"><ele>29.333333333333336</ele><time>2026-04-19T13:54:45.511Z</time></trkpt><trkpt lat="38.7405917" lon="16.5466967"><ele>27.666666666666664</ele><time>2026-04-19T13:54:46.511Z</time></trkpt><trkpt lat="38.7404033" lon="16.54665"><ele>26.0</ele><time>2026-04-19T13:54:47.511Z</time></trkpt><trkpt lat="38.7402183" lon="16.5466133"><ele>25.333333333333332</ele><time>2026-04-19T13:54:48.512Z</time></trkpt><trkpt lat="38.7400317" lon="16.546575"><ele>24.666666666666664</ele><time>2026-04-19T13:54:49.511Z</time></trkpt><trkpt lat="38.739845" lon="16.5465483"><ele>24.0</ele><time>2026-04-19T13:54:50.511Z</time></trkpt><trkpt lat="38.739665" lon="16.546515"><ele>24.0</ele><time>2026-04-19T13:54:51.511Z</time></trkpt><trkpt lat="38.739485" lon="16.546475"><ele>24.0</ele><time>2026-04-19T13:54:52.511Z</time></trkpt><trkpt lat="38.7392967" lon="16.54644"><ele>24.0</ele><time>2026-04-19T13:54:53.512Z</time></trkpt><trkpt lat="38.7391167" lon="16.54641"><ele>23.666666666666668</ele><time>2026-04-19T13:54:54.511Z</time></trkpt><trkpt lat="38.7389467" lon="16.546375"><ele>23.333333333333336</ele><time>2026-04-19T13:54:55.512Z</time></trkpt><trkpt lat="38.7387667" lon="16.5463467"><ele>23.0</ele><time>2026-04-19T13:54:56.511Z</time></trkpt><trkpt lat="38.7385933" lon="16.546315"><ele>22.0</ele><time>2026-04-19T13:54:57.511Z</time></trkpt><trkpt lat="38.73841" lon="16.5462867"><ele>21.0</ele><time>2026-04-19T13:54:58.512Z</time></trkpt><trkpt lat="38.7382417" lon="16.54625"><ele>20.0</ele><time>2026-04-19T13:54:59.511Z</time></trkpt><trkpt lat="38.7380717" lon="16.5462117"><ele>21.666666666666668</ele><time>2026-04-19T13:55:00.511Z</time></trkpt><trkpt lat="38.7378967" lon="16.5461717"><ele>23.333333333333336</ele><time>2026-04-19T13:55:01.511Z</time></trkpt><trkpt lat="38.7377183" lon="16.5461133"><ele>25.0</ele><time>2026-04-19T13:55:02.511Z</time></trkpt><trkpt lat="38.7375433" lon="16.5460317"><ele>25.0</ele><time>2026-04-19T13:55:03.511Z</time></trkpt><trkpt lat="38.7373767" lon="16.5459317"><ele>25.0</ele><time>2026-04-19T13:55:04.511Z</time></trkpt><trkpt lat="38.73722" lon="16.54582"><ele>25.0</ele><time>2026-04-19T13:55:05.511Z</time></trkpt><trkpt lat="38.7370617" lon="16.5457033"><ele>25.0</ele><time>2026-04-19T13:55:06.511Z</time></trkpt><trkpt lat="38.7369083" lon="16.54558"><ele>25.0</ele><time>2026-04-19T13:55:07.511Z</time></trkpt><trkpt lat="38.736765" lon="16.5454333"><ele>25.0</ele><time>2026-04-19T13:55:08.512Z</time></trkpt><trkpt lat="38.7366217" lon="16.5452833"><ele>24.666666666666668</ele><time>2026-04-19T13:55:09.511Z</time></trkpt><trkpt lat="38.7364767" lon="16.5451433"><ele>24.333333333333336</ele><time>2026-04-19T13:55:10.511Z</time></trkpt><trkpt lat="38.7363317" lon="16.5450033"><ele>24.0</ele><time>2026-04-19T13:55:11.511Z</time></trkpt><trkpt lat="38.7361933" lon="16.5448483"><ele>24.0</ele><time>2026-04-19T13:55:12.512Z</time></trkpt><trkpt lat="38.7360533" lon="16.5446933"><ele>24.0</ele><time>2026-04-19T13:55:13.511Z</time></trkpt><trkpt lat="38.7359133" lon="16.54455"><ele>24.0</ele><time>2026-04-19T13:55:14.512Z</time></trkpt><trkpt lat="38.7357733" lon="16.5444067"><ele>23.0</ele><time>2026-04-19T13:55:15.512Z</time></trkpt><trkpt lat="38.7356333" lon="16.544265"><ele>22.0</ele><time>2026-04-19T13:55:16.511Z</time></trkpt><trkpt lat="38.7354967" lon="16.54413"><ele>21.0</ele><time>2026-04-19T13:55:17.511Z</time></trkpt><trkpt lat="38.73536" lon="16.54399"><ele>21.0</ele><time>2026-04-19T13:55:18.511Z</time></trkpt><trkpt lat="38.735225" lon="16.5438417"><ele>21.0</ele><time>2026-04-19T13:55:19.511Z</time></trkpt><trkpt lat="38.7350917" lon="16.5437"><ele>21.0</ele><time>2026-04-19T13:55:20.511Z</time></trkpt><trkpt lat="38.7349533" lon="16.5435567"><ele>21.666666666666668</ele><time>2026-04-19T13:55:21.511Z</time></trkpt><trkpt lat="38.7348183" lon="16.5434233"><ele>22.333333333333336</ele><time>2026-04-19T13:55:22.511Z</time></trkpt><trkpt lat="38.7346817" lon="16.5432833"><ele>23.0</ele><time>2026-04-19T13:55:23.511Z</time></trkpt><trkpt lat="38.7345433" lon="16.5431383"><ele>23.0</ele><time>2026-04-19T13:55:24.511Z</time></trkpt><trkpt lat="38.7344083" lon="16.5429917"><ele>23.0</ele><time>2026-04-19T13:55:25.512Z</time></trkpt><trkpt lat="38.7342733" lon="16.5428383"><ele>23.0</ele><time>2026-04-19T13:55:26.512Z</time></trkpt><trkpt lat="38.734135" lon="16.5426917"><ele>23.0</ele><time>2026-04-19T13:55:27.511Z</time></trkpt><trkpt lat="38.7339983" lon="16.5425483"><ele>23.0</ele><time>2026-04-19T13:55:28.512Z</time></trkpt><trkpt lat="38.7338583" lon="16.542385"><ele>23.0</ele><time>2026-04-19T13:55:29.511Z</time></trkpt><trkpt lat="38.7337217" lon="16.5422417"><ele>23.0</ele><time>2026-04-19T13:55:30.511Z</time></trkpt><trkpt lat="38.7335767" lon="16.5420967"><ele>23.0</ele><time>2026-04-19T13:55:31.512Z</time></trkpt><trkpt lat="38.73343" lon="16.5419617"><ele>23.0</ele><time>2026-04-19T13:55:32.511Z</time></trkpt><trkpt lat="38.733285" lon="16.5418217"><ele>21.333333333333336</ele><time>2026-04-19T13:55:33.511Z</time></trkpt><trkpt lat="38.7331367" lon="16.54168"><ele>19.666666666666668</ele><time>2026-04-19T13:55:34.512Z</time></trkpt><trkpt lat="38.7329817" lon="16.541545"><ele>18.0</ele><time>2026-04-19T13:55:35.512Z</time></trkpt><trkpt lat="38.732835" lon="16.5414167"><ele>17.333333333333332</ele><time>2026-04-19T13:55:36.511Z</time></trkpt><trkpt lat="38.732685" lon="16.54129"><ele>16.666666666666664</ele><time>2026-04-19T13:55:37.511Z</time></trkpt><trkpt lat="38.73253" lon="16.541155"><ele>16.0</ele><time>2026-04-19T13:55:38.512Z</time></trkpt><trkpt lat="38.732375" lon="16.5410317"><ele>16.0</ele><time>2026-04-19T13:55:39.511Z</time></trkpt><trkpt lat="38.7322217" lon="16.540895"><ele>16.0</ele><time>2026-04-19T13:55:40.511Z</time></trkpt><trkpt lat="38.732065" lon="16.5407633"><ele>16.0</ele><time>2026-04-19T13:55:41.511Z</time></trkpt><trkpt lat="38.731925" lon="16.5406417"><ele>15.333333333333332</ele><time>2026-04-19T13:55:42.511Z</time></trkpt><trkpt lat="38.7317733" lon="16.5405067"><ele>14.666666666666668</ele><time>2026-04-19T13:55:43.511Z</time></trkpt><trkpt lat="38.73163" lon="16.54037"><ele>14.0</ele><time>2026-04-19T13:55:44.511Z</time></trkpt><trkpt lat="38.73148" lon="16.5402317"><ele>14.0</ele><time>2026-04-19T13:55:45.511Z</time></trkpt><trkpt lat="38.7313317" lon="16.540095"><ele>14.0</ele><time>2026-04-19T13:55:46.511Z</time></trkpt><trkpt lat="38.7311817" lon="16.5399617"><ele>14.0</ele><time>2026-04-19T13:55:47.511Z</time></trkpt><trkpt lat="38.73103" lon="16.5398283"><ele>14.0</ele><time>2026-04-19T13:55:48.511Z</time></trkpt><trkpt lat="38.730885" lon="16.5397"><ele>14.0</ele><time>2026-04-19T13:55:49.512Z</time></trkpt><trkpt lat="38.7307333" lon="16.5395733"><ele>14.0</ele><time>2026-04-19T13:55:50.512Z</time></trkpt><trkpt lat="38.7305883" lon="16.539445"><ele>14.0</ele><time>2026-04-19T13:55:51.512Z</time></trkpt><trkpt lat="38.7304367" lon="16.5393217"><ele>14.0</ele><time>2026-04-19T13:55:52.511Z</time></trkpt><trkpt lat="38.7302867" lon="16.539195"><ele>14.0</ele><time>2026-04-19T13:55:53.511Z</time></trkpt><trkpt lat="38.7301233" lon="16.539065"><ele>13.666666666666668</ele><time>2026-04-19T13:55:54.512Z</time></trkpt><trkpt lat="38.7299767" lon="16.53893"><ele>13.333333333333332</ele><time>2026-04-19T13:55:55.512Z</time></trkpt><trkpt lat="38.729825" lon="16.5388067"><ele>13.0</ele><time>2026-04-19T13:55:56.511Z</time></trkpt><trkpt lat="38.7296717" lon="16.538675"><ele>12.666666666666666</ele><time>2026-04-19T13:55:57.511Z</time></trkpt><trkpt lat="38.7295133" lon="16.53854"><ele>12.333333333333332</ele><time>2026-04-19T13:55:58.511Z</time></trkpt><trkpt lat="38.7293633" lon="16.538415"><ele>12.0</ele><time>2026-04-19T13:55:59.511Z</time></trkpt><trkpt lat="38.72921" lon="16.538285"><ele>12.0</ele><time>2026-04-19T13:56:00.511Z</time></trkpt><trkpt lat="38.7290617" lon="16.5381567"><ele>12.0</ele><time>2026-04-19T13:56:01.511Z</time></trkpt><trkpt lat="38.7289067" lon="16.5380367"><ele>12.0</ele><time>2026-04-19T13:56:02.511Z</time></trkpt><trkpt lat="38.728755" lon="16.537895"><ele>12.333333333333332</ele><time>2026-04-19T13:56:03.511Z</time></trkpt><trkpt lat="38.7286" lon="16.5377667"><ele>12.666666666666666</ele><time>2026-04-19T13:56:04.511Z</time></trkpt><trkpt lat="38.72845" lon="16.53763"><ele>13.0</ele><time>2026-04-19T13:56:05.511Z</time></trkpt><trkpt lat="38.7283033" lon="16.5374917"><ele>13.0</ele><time>2026-04-19T13:56:06.511Z</time></trkpt><trkpt lat="38.728155" lon="16.5373667"><ele>13.0</ele><time>2026-04-19T13:56:07.512Z</time></trkpt><trkpt lat="38.7279933" lon="16.5372083"><ele>13.0</ele><time>2026-04-19T13:56:08.511Z</time></trkpt><trkpt lat="38.72785" lon="16.5370933"><ele>12.333333333333332</ele><time>2026-04-19T13:56:09.511Z</time></trkpt><trkpt lat="38.72769" lon="16.5369983"><ele>11.666666666666666</ele><time>2026-04-19T13:56:10.511Z</time></trkpt><trkpt lat="38.7275317" lon="16.536905"><ele>11.0</ele><time>2026-04-19T13:56:11.511Z</time></trkpt><trkpt lat="38.727365" lon="16.5368117"><ele>11.0</ele><time>2026-04-19T13:56:12.511Z</time></trkpt><trkpt lat="38.7271967" lon="16.5367217"><ele>11.0</ele><time>2026-04-19T13:56:13.511Z</time></trkpt><trkpt lat="38.7270333" lon="16.5366317"><ele>11.0</ele><time>2026-04-19T13:56:14.511Z</time></trkpt><trkpt lat="38.7268633" lon="16.536545"><ele>11.0</ele><time>2026-04-19T13:56:15.511Z</time></trkpt><trkpt lat="38.7267033" lon="16.53646"><ele>11.0</ele><time>2026-04-19T13:56:16.511Z</time></trkpt><trkpt lat="38.726535" lon="16.53637"><ele>11.0</ele><time>2026-04-19T13:56:17.511Z</time></trkpt><trkpt lat="38.7263717" lon="16.53628"><ele>11.333333333333332</ele><time>2026-04-19T13:56:18.511Z</time></trkpt><trkpt lat="38.7262017" lon="16.5361933"><ele>11.666666666666666</ele><time>2026-04-19T13:56:19.511Z</time></trkpt><trkpt lat="38.7260283" lon="16.5361067"><ele>12.0</ele><time>2026-04-19T13:56:20.511Z</time></trkpt><trkpt lat="38.7258533" lon="16.5360317"><ele>12.0</ele><time>2026-04-19T13:56:21.512Z</time></trkpt><trkpt lat="38.7256767" lon="16.53595"><ele>12.0</ele><time>2026-04-19T13:56:22.512Z</time></trkpt><trkpt lat="38.72551" lon="16.53587"><ele>12.0</ele><time>2026-04-19T13:56:23.511Z</time></trkpt><trkpt lat="38.725345" lon="16.5357733"><ele>11.0</ele><time>2026-04-19T13:56:24.512Z</time></trkpt><trkpt lat="38.7251733" lon="16.5356733"><ele>10.0</ele><time>2026-04-19T13:56:25.511Z</time></trkpt><trkpt lat="38.7250067" lon="16.5355817"><ele>9.0</ele><time>2026-04-19T13:56:26.511Z</time></trkpt><trkpt lat="38.7248367" lon="16.5354983"><ele>9.0</ele><time>2026-04-19T13:56:27.512Z</time></trkpt><trkpt lat="38.7246683" lon="16.5354183"><ele>9.0</ele><time>2026-04-19T13:56:28.511Z</time></trkpt><trkpt lat="38.7245017" lon="16.5353217"><ele>9.0</ele><time>2026-04-19T13:56:29.511Z</time></trkpt><trkpt lat="38.7243333" lon="16.53523"><ele>10.0</ele><time>2026-04-19T13:56:30.512Z</time></trkpt><trkpt lat="38.724165" lon="16.53514"><ele>11.0</ele><time>2026-04-19T13:56:31.511Z</time></trkpt><trkpt lat="38.7239967" lon="16.5350517"><ele>12.0</ele><time>2026-04-19T13:56:32.511Z</time></trkpt><trkpt lat="38.7238267" lon="16.5349667"><ele>12.0</ele><time>2026-04-19T13:56:33.512Z</time></trkpt><trkpt lat="38.7236583" lon="16.534885"><ele>12.0</ele><time>2026-04-19T13:56:34.511Z</time></trkpt><trkpt lat="38.7234883" lon="16.5348033"><ele>12.0</ele><time>2026-04-19T13:56:35.511Z</time></trkpt><trkpt lat="38.723315" lon="16.534725"><ele>11.666666666666666</ele><time>2026-04-19T13:56:36.511Z</time></trkpt><trkpt lat="38.723145" lon="16.53464"><ele>11.333333333333332</ele><time>2026-04-19T13:56:37.512Z</time></trkpt><trkpt lat="38.722975" lon="16.5345533"><ele>11.0</ele><time>2026-04-19T13:56:38.511Z</time></trkpt><trkpt lat="38.7228067" lon="16.5344617"><ele>11.0</ele><time>2026-04-19T13:56:39.511Z</time></trkpt><trkpt lat="38.7226483" lon="16.5343667"><ele>11.0</ele><time>2026-04-19T13:56:40.511Z</time></trkpt><trkpt lat="38.7224817" lon="16.5342833"><ele>11.0</ele><time>2026-04-19T13:56:41.511Z</time></trkpt><trkpt lat="38.7223117" lon="16.534205"><ele>11.0</ele><time>2026-04-19T13:56:42.512Z</time></trkpt><trkpt lat="38.7221417" lon="16.5341183"><ele>11.0</ele><time>2026-04-19T13:56:43.511Z</time></trkpt><trkpt lat="38.7219767" lon="16.5340217"><ele>11.0</ele><time>2026-04-19T13:56:44.511Z</time></trkpt><trkpt lat="38.72181" lon="16.53394"><ele>11.0</ele><time>2026-04-19T13:56:45.511Z</time></trkpt><trkpt lat="38.7216467" lon="16.53384"><ele>11.0</ele><time>2026-04-19T13:56:46.511Z</time></trkpt><trkpt lat="38.7214783" lon="16.5337483"><ele>11.0</ele><time>2026-04-19T13:56:47.511Z</time></trkpt><trkpt lat="38.7213117" lon="16.5336567"><ele>10.666666666666666</ele><time>2026-04-19T13:56:48.511Z</time></trkpt><trkpt lat="38.7211283" lon="16.5335917"><ele>10.333333333333334</ele><time>2026-04-19T13:56:49.511Z</time></trkpt><trkpt lat="38.7209433" lon="16.5335367"><ele>10.0</ele><time>2026-04-19T13:56:50.512Z</time></trkpt><trkpt lat="38.7207667" lon="16.5334817"><ele>9.666666666666668</ele><time>2026-04-19T13:56:51.511Z</time></trkpt><trkpt lat="38.7205867" lon="16.5334317"><ele>9.333333333333334</ele><time>2026-04-19T13:56:52.511Z</time></trkpt><trkpt lat="38.7204033" lon="16.5333883"><ele>9.0</ele><time>2026-04-19T13:56:53.511Z</time></trkpt><trkpt lat="38.720225" lon="16.5333533"><ele>9.666666666666666</ele><time>2026-04-19T13:56:54.511Z</time></trkpt><trkpt lat="38.7200417" lon="16.53332"><ele>10.333333333333332</ele><time>2026-04-19T13:56:55.511Z</time></trkpt><trkpt lat="38.7198567" lon="16.5332817"><ele>11.0</ele><time>2026-04-19T13:56:56.512Z</time></trkpt><trkpt lat="38.7196783" lon="16.5332417"><ele>11.0</ele><time>2026-04-19T13:56:57.511Z</time></trkpt><trkpt lat="38.7194983" lon="16.5331983"><ele>11.0</ele><time>2026-04-19T13:56:58.511Z</time></trkpt><trkpt lat="38.7193217" lon="16.533155"><ele>11.0</ele><time>2026-04-19T13:56:59.512Z</time></trkpt><trkpt lat="38.719135" lon="16.5331167"><ele>10.333333333333332</ele><time>2026-04-19T13:57:00.511Z</time></trkpt><trkpt lat="38.7189567" lon="16.5330783"><ele>9.666666666666666</ele><time>2026-04-19T13:57:01.511Z</time></trkpt><trkpt lat="38.7187817" lon="16.533045"><ele>9.0</ele><time>2026-04-19T13:57:02.511Z</time></trkpt><trkpt lat="38.7186083" lon="16.533005"><ele>8.666666666666666</ele><time>2026-04-19T13:57:03.511Z</time></trkpt><trkpt lat="38.7184267" lon="16.5329583"><ele>8.333333333333332</ele><time>2026-04-19T13:57:04.511Z</time></trkpt><trkpt lat="38.7182483" lon="16.5329133"><ele>8.0</ele><time>2026-04-19T13:57:05.511Z</time></trkpt><trkpt lat="38.7180683" lon="16.53287"><ele>7.666666666666666</ele><time>2026-04-19T13:57:06.512Z</time></trkpt><trkpt lat="38.7178967" lon="16.53283"><ele>7.333333333333334</ele><time>2026-04-19T13:57:07.512Z</time></trkpt><trkpt lat="38.7177167" lon="16.5327917"><ele>7.0</ele><time>2026-04-19T13:57:08.512Z</time></trkpt><trkpt lat="38.717535" lon="16.53275"><ele>6.666666666666667</ele><time>2026-04-19T13:57:09.512Z</time></trkpt><trkpt lat="38.7173567" lon="16.5327117"><ele>6.333333333333334</ele><time>2026-04-19T13:57:10.512Z</time></trkpt><trkpt lat="38.717175" lon="16.53267"><ele>6.0</ele><time>2026-04-19T13:57:11.512Z</time></trkpt><trkpt lat="38.7169933" lon="16.532635"><ele>6.666666666666666</ele><time>2026-04-19T13:57:12.511Z</time></trkpt><trkpt lat="38.716815" lon="16.532595"><ele>7.333333333333333</ele><time>2026-04-19T13:57:13.511Z</time></trkpt><trkpt lat="38.71663" lon="16.5325617"><ele>8.0</ele><time>2026-04-19T13:57:14.511Z</time></trkpt><trkpt lat="38.71645" lon="16.532525"><ele>8.0</ele><time>2026-04-19T13:57:15.512Z</time></trkpt><trkpt lat="38.7162733" lon="16.5324833"><ele>8.0</ele><time>2026-04-19T13:57:16.511Z</time></trkpt><trkpt lat="38.7160917" lon="16.5324467"><ele>8.0</ele><time>2026-04-19T13:57:17.511Z</time></trkpt><trkpt lat="38.7159067" lon="16.5324067"><ele>7.666666666666666</ele><time>2026-04-19T13:57:18.511Z</time></trkpt><trkpt lat="38.7157283" lon="16.5323717"><ele>7.333333333333334</ele><time>2026-04-19T13:57:19.511Z</time></trkpt><trkpt lat="38.7155467" lon="16.53234"><ele>7.0</ele><time>2026-04-19T13:57:20.511Z</time></trkpt><trkpt lat="38.715365" lon="16.5323017"><ele>7.666666666666667</ele><time>2026-04-19T13:57:21.511Z</time></trkpt><trkpt lat="38.715185" lon="16.5322567"><ele>8.333333333333334</ele><time>2026-04-19T13:57:22.511Z</time></trkpt><trkpt lat="38.715005" lon="16.5322283"><ele>9.0</ele><time>2026-04-19T13:57:23.511Z</time></trkpt><trkpt lat="38.71483" lon="16.53219"><ele>9.0</ele><time>2026-04-19T13:57:24.511Z</time></trkpt><trkpt lat="38.7146417" lon="16.53216"><ele>9.0</ele><time>2026-04-19T13:57:25.511Z</time></trkpt><trkpt lat="38.7144617" lon="16.5321217"><ele>9.0</ele><time>2026-04-19T13:57:26.511Z</time></trkpt><trkpt lat="38.7142867" lon="16.5320717"><ele>8.333333333333334</ele><time>2026-04-19T13:57:27.511Z</time></trkpt><trkpt lat="38.7141067" lon="16.5320267"><ele>7.666666666666667</ele><time>2026-04-19T13:57:28.511Z</time></trkpt><trkpt lat="38.7139283" lon="16.5319817"><ele>7.0</ele><time>2026-04-19T13:57:29.511Z</time></trkpt><trkpt lat="38.7137533" lon="16.5319367"><ele>7.0</ele><time>2026-04-19T13:57:30.511Z</time></trkpt><trkpt lat="38.7135733" lon="16.5319033"><ele>7.0</ele><time>2026-04-19T13:57:31.512Z</time></trkpt><trkpt lat="38.7133917" lon="16.5318683"><ele>7.0</ele><time>2026-04-19T13:57:32.512Z</time></trkpt><trkpt lat="38.7132117" lon="16.5318317"><ele>7.0</ele><time>2026-04-19T13:57:33.511Z</time></trkpt><trkpt lat="38.7130383" lon="16.53179"><ele>7.0</ele><time>2026-04-19T13:57:34.511Z</time></trkpt><trkpt lat="38.7128633" lon="16.5317517"><ele>7.0</ele><time>2026-04-19T13:57:35.511Z</time></trkpt><trkpt lat="38.7126833" lon="16.5317167"><ele>6.333333333333334</ele><time>2026-04-19T13:57:36.511Z</time></trkpt><trkpt lat="38.712505" lon="16.531675"><ele>5.666666666666667</ele><time>2026-04-19T13:57:37.512Z</time></trkpt><trkpt lat="38.7123267" lon="16.5316383"><ele>5.0</ele><time>2026-04-19T13:57:38.511Z</time></trkpt><trkpt lat="38.712145" lon="16.5315967"><ele>5.0</ele><time>2026-04-19T13:57:39.512Z</time></trkpt><trkpt lat="38.7119633" lon="16.531555"><ele>5.0</ele><time>2026-04-19T13:57:40.511Z</time></trkpt><trkpt lat="38.71178" lon="16.53151"><ele>5.0</ele><time>2026-04-19T13:57:41.511Z</time></trkpt><trkpt lat="38.7116017" lon="16.5314683"><ele>6.0</ele><time>2026-04-19T13:57:42.511Z</time></trkpt><trkpt lat="38.711425" lon="16.5314333"><ele>7.0</ele><time>2026-04-19T13:57:43.512Z</time></trkpt><trkpt lat="38.7112433" lon="16.531395"><ele>8.0</ele><time>2026-04-19T13:57:44.511Z</time></trkpt><trkpt lat="38.7110617" lon="16.5313583"><ele>8.0</ele><time>2026-04-19T13:57:45.511Z</time></trkpt><trkpt lat="38.7108767" lon="16.5313233"><ele>8.0</ele><time>2026-04-19T13:57:46.511Z</time></trkpt><trkpt lat="38.7106933" lon="16.5312833"><ele>8.0</ele><time>2026-04-19T13:57:47.511Z</time></trkpt><trkpt lat="38.7105167" lon="16.5312383"><ele>8.0</ele><time>2026-04-19T13:57:48.512Z</time></trkpt><trkpt lat="38.7103367" lon="16.5311983"><ele>8.0</ele><time>2026-04-19T13:57:49.511Z</time></trkpt><trkpt lat="38.7101617" lon="16.5311633"><ele>8.0</ele><time>2026-04-19T13:57:50.511Z</time></trkpt><trkpt lat="38.7099783" lon="16.531125"><ele>8.333333333333332</ele><time>2026-04-19T13:57:51.511Z</time></trkpt><trkpt lat="38.7097983" lon="16.53108"><ele>8.666666666666666</ele><time>2026-04-19T13:57:52.511Z</time></trkpt><trkpt lat="38.7096217" lon="16.5310367"><ele>9.0</ele><time>2026-04-19T13:57:53.511Z</time></trkpt><trkpt lat="38.70945" lon="16.530995"><ele>9.0</ele><time>2026-04-19T13:57:54.512Z</time></trkpt><trkpt lat="38.7092683" lon="16.53096"><ele>9.0</ele><time>2026-04-19T13:57:55.511Z</time></trkpt><trkpt lat="38.7090867" lon="16.5309317"><ele>9.0</ele><time>2026-04-19T13:57:56.511Z</time></trkpt><trkpt lat="38.7089033" lon="16.530905"><ele>9.0</ele><time>2026-04-19T13:57:57.511Z</time></trkpt><trkpt lat="38.708715" lon="16.530885"><ele>9.0</ele><time>2026-04-19T13:57:58.511Z</time></trkpt><trkpt lat="38.7085333" lon="16.5308667"><ele>9.0</ele><time>2026-04-19T13:57:59.511Z</time></trkpt><trkpt lat="38.708345" lon="16.5308683"><ele>9.333333333333334</ele><time>2026-04-19T13:58:00.511Z</time></trkpt><trkpt lat="38.70816" lon="16.5308717"><ele>9.666666666666668</ele><time>2026-04-19T13:58:01.511Z</time></trkpt><trkpt lat="38.7079733" lon="16.5308867"><ele>10.0</ele><time>2026-04-19T13:58:02.511Z</time></trkpt><trkpt lat="38.7077917" lon="16.530915"><ele>9.666666666666668</ele><time>2026-04-19T13:58:03.512Z</time></trkpt><trkpt lat="38.7076117" lon="16.5309533"><ele>9.333333333333334</ele><time>2026-04-19T13:58:04.512Z</time></trkpt><trkpt lat="38.707435" lon="16.5310017"><ele>9.0</ele><time>2026-04-19T13:58:05.511Z</time></trkpt><trkpt lat="38.7072583" lon="16.5310533"><ele>9.0</ele><time>2026-04-19T13:58:06.512Z</time></trkpt><trkpt lat="38.7070817" lon="16.5311083"><ele>9.0</ele><time>2026-04-19T13:58:07.511Z</time></trkpt><trkpt lat="38.7069017" lon="16.53116"><ele>9.0</ele><time>2026-04-19T13:58:08.512Z</time></trkpt><trkpt lat="38.7067217" lon="16.53121"><ele>7.666666666666667</ele><time>2026-04-19T13:58:09.511Z</time></trkpt><trkpt lat="38.706545" lon="16.5312667"><ele>6.333333333333334</ele><time>2026-04-19T13:58:10.511Z</time></trkpt><trkpt lat="38.7063733" lon="16.5313233"><ele>5.0</ele><time>2026-04-19T13:58:11.512Z</time></trkpt><trkpt lat="38.7061983" lon="16.5313733"><ele>4.666666666666667</ele><time>2026-04-19T13:58:12.512Z</time></trkpt><trkpt lat="38.7060233" lon="16.531425"><ele>4.333333333333333</ele><time>2026-04-19T13:58:13.511Z</time></trkpt><trkpt lat="38.7058467" lon="16.531475"><ele>4.0</ele><time>2026-04-19T13:58:14.512Z</time></trkpt><trkpt lat="38.7056717" lon="16.5315267"><ele>4.0</ele><time>2026-04-19T13:58:15.512Z</time></trkpt><trkpt lat="38.7054967" lon="16.53158"><ele>4.0</ele><time>2026-04-19T13:58:16.512Z</time></trkpt><trkpt lat="38.7053167" lon="16.5316333"><ele>4.0</ele><time>2026-04-19T13:58:17.512Z</time></trkpt><trkpt lat="38.7051417" lon="16.5316883"><ele>4.333333333333333</ele><time>2026-04-19T13:58:18.511Z</time></trkpt><trkpt lat="38.7049667" lon="16.5317383"><ele>4.666666666666667</ele><time>2026-04-19T13:58:19.511Z</time></trkpt><trkpt lat="38.7047883" lon="16.5317883"><ele>5.0</ele><time>2026-04-19T13:58:20.511Z</time></trkpt><trkpt lat="38.7046117" lon="16.5318383"><ele>5.0</ele><time>2026-04-19T13:58:21.512Z</time></trkpt><trkpt lat="38.70443" lon="16.5318883"><ele>5.0</ele><time>2026-04-19T13:58:22.511Z</time></trkpt><trkpt lat="38.704255" lon="16.53194"><ele>5.0</ele><time>2026-04-19T13:58:23.512Z</time></trkpt><trkpt lat="38.704075" lon="16.5319933"><ele>5.0</ele><time>2026-04-19T13:58:24.511Z</time></trkpt><trkpt lat="38.7039" lon="16.5320467"><ele>5.0</ele><time>2026-04-19T13:58:25.511Z</time></trkpt><trkpt lat="38.7037217" lon="16.53211"><ele>5.0</ele><time>2026-04-19T13:58:26.511Z</time></trkpt><trkpt lat="38.70355" lon="16.5321717"><ele>5.333333333333334</ele><time>2026-04-19T13:58:27.512Z</time></trkpt><trkpt lat="38.7033767" lon="16.5322433"><ele>5.666666666666667</ele><time>2026-04-19T13:58:28.511Z</time></trkpt><trkpt lat="38.7032" lon="16.5323267"><ele>6.0</ele><time>2026-04-19T13:58:29.511Z</time></trkpt><trkpt lat="38.70303" lon="16.532415"><ele>6.0</ele><time>2026-04-19T13:58:30.512Z</time></trkpt><trkpt lat="38.7028667" lon="16.5325133"><ele>6.0</ele><time>2026-04-19T13:58:31.511Z</time></trkpt><trkpt lat="38.7027017" lon="16.5326133"><ele>6.0</ele><time>2026-04-19T13:58:32.512Z</time></trkpt><trkpt lat="38.7025417" lon="16.5327283"><ele>8.0</ele><time>2026-04-19T13:58:33.511Z</time></trkpt><trkpt lat="38.70239" lon="16.5328533"><ele>10.0</ele><time>2026-04-19T13:58:34.511Z</time></trkpt><trkpt lat="38.7022417" lon="16.5329933"><ele>12.0</ele><time>2026-04-19T13:58:35.511Z</time></trkpt><trkpt lat="38.7020983" lon="16.5331333"><ele>13.666666666666668</ele><time>2026-04-19T13:58:36.512Z</time></trkpt><trkpt lat="38.701955" lon="16.5332833"><ele>15.333333333333334</ele><time>2026-04-19T13:58:37.512Z</time></trkpt><trkpt lat="38.7018167" lon="16.5334283"><ele>17.0</ele><time>2026-04-19T13:58:38.511Z</time></trkpt><trkpt lat="38.7016783" lon="16.533575"><ele>21.0</ele><time>2026-04-19T13:58:39.512Z</time></trkpt><trkpt lat="38.701535" lon="16.5337283"><ele>25.0</ele><time>2026-04-19T13:58:40.511Z</time></trkpt><trkpt lat="38.7013917" lon="16.5338717"><ele>29.0</ele><time>2026-04-19T13:58:41.511Z</time></trkpt><trkpt lat="38.7011117" lon="16.5341667"><ele>30.333333333333332</ele><time>2026-04-19T13:58:43.511Z</time></trkpt><trkpt lat="38.7009767" lon="16.53431"><ele>31.666666666666664</ele><time>2026-04-19T13:58:44.511Z</time></trkpt><trkpt lat="38.7008417" lon="16.5344567"><ele>33.0</ele><time>2026-04-19T13:58:45.512Z</time></trkpt><trkpt lat="38.7007067" lon="16.5346033"><ele>35.666666666666664</ele><time>2026-04-19T13:58:46.511Z</time></trkpt><trkpt lat="38.7005683" lon="16.534745"><ele>38.33333333333333</ele><time>2026-04-19T13:58:47.512Z</time></trkpt><trkpt lat="38.7004233" lon="16.5348983"><ele>41.0</ele><time>2026-04-19T13:58:48.511Z</time></trkpt><trkpt lat="38.7002767" lon="16.535055"><ele>40.0</ele><time>2026-04-19T13:58:49.512Z</time></trkpt><trkpt lat="38.7001317" lon="16.5352067"><ele>39.0</ele><time>2026-04-19T13:58:50.511Z</time></trkpt><trkpt lat="38.6999933" lon="16.5353583"><ele>38.0</ele><time>2026-04-19T13:58:51.511Z</time></trkpt><trkpt lat="38.6998483" lon="16.5354983"><ele>40.0</ele><time>2026-04-19T13:58:52.512Z</time></trkpt><trkpt lat="38.6997133" lon="16.5356367"><ele>42.0</ele><time>2026-04-19T13:58:53.511Z</time></trkpt><trkpt lat="38.6995783" lon="16.5357817"><ele>44.0</ele><time>2026-04-19T13:58:54.511Z</time></trkpt><trkpt lat="38.699435" lon="16.535925"><ele>44.0</ele><time>2026-04-19T13:58:55.511Z</time></trkpt><trkpt lat="38.6993017" lon="16.536065"><ele>44.0</ele><time>2026-04-19T13:58:56.511Z</time></trkpt><trkpt lat="38.699165" lon="16.5362133"><ele>44.0</ele><time>2026-04-19T13:58:57.511Z</time></trkpt><trkpt lat="38.69902" lon="16.5363667"><ele>46.0</ele><time>2026-04-19T13:58:58.511Z</time></trkpt><trkpt lat="38.698875" lon="16.536515"><ele>48.0</ele><time>2026-04-19T13:58:59.511Z</time></trkpt><trkpt lat="38.6987267" lon="16.5366533"><ele>50.0</ele><time>2026-04-19T13:59:00.511Z</time></trkpt><trkpt lat="38.69858" lon="16.5367917"><ele>49.66666666666667</ele><time>2026-04-19T13:59:01.511Z</time></trkpt><trkpt lat="38.6984417" lon="16.5369333"><ele>49.33333333333333</ele><time>2026-04-19T13:59:02.511Z</time></trkpt><trkpt lat="38.6982983" lon="16.537055"><ele>49.0</ele><time>2026-04-19T13:59:03.511Z</time></trkpt><trkpt lat="38.69814" lon="16.5371717"><ele>49.0</ele><time>2026-04-19T13:59:04.512Z</time></trkpt><trkpt lat="38.6979817" lon="16.5372833"><ele>49.0</ele><time>2026-04-19T13:59:05.511Z</time></trkpt><trkpt lat="38.6978167" lon="16.53739"><ele>49.0</ele><time>2026-04-19T13:59:06.511Z</time></trkpt><trkpt lat="38.69765" lon="16.5374867"><ele>50.33333333333333</ele><time>2026-04-19T13:59:07.511Z</time></trkpt><trkpt lat="38.6974817" lon="16.537575"><ele>51.66666666666667</ele><time>2026-04-19T13:59:08.511Z</time></trkpt><trkpt lat="38.6973083" lon="16.53766"><ele>53.0</ele><time>2026-04-19T13:59:09.511Z</time></trkpt><trkpt lat="38.6971417" lon="16.5377383"><ele>53.0</ele><time>2026-04-19T13:59:10.511Z</time></trkpt><trkpt lat="38.6969733" lon="16.5378017"><ele>53.0</ele><time>2026-04-19T13:59:11.511Z</time></trkpt><trkpt lat="38.6968" lon="16.5378767"><ele>53.0</ele><time>2026-04-19T13:59:12.512Z</time></trkpt><trkpt lat="38.6966283" lon="16.5379533"><ele>55.66666666666667</ele><time>2026-04-19T13:59:13.512Z</time></trkpt><trkpt lat="38.6964583" lon="16.5380233"><ele>58.33333333333333</ele><time>2026-04-19T13:59:14.511Z</time></trkpt><trkpt lat="38.6962917" lon="16.5380933"><ele>61.0</ele><time>2026-04-19T13:59:15.511Z</time></trkpt><trkpt lat="38.6961283" lon="16.5381767"><ele>64.66666666666666</ele><time>2026-04-19T13:59:16.512Z</time></trkpt><trkpt lat="38.6959583" lon="16.5382417"><ele>68.33333333333333</ele><time>2026-04-19T13:59:17.511Z</time></trkpt><trkpt lat="38.6957833" lon="16.5383083"><ele>72.0</ele><time>2026-04-19T13:59:18.512Z</time></trkpt><trkpt lat="38.6956033" lon="16.53838"><ele>72.0</ele><time>2026-04-19T13:59:19.511Z</time></trkpt><trkpt lat="38.6954233" lon="16.53846"><ele>72.0</ele><time>2026-04-19T13:59:20.511Z</time></trkpt><trkpt lat="38.6952483" lon="16.538535"><ele>72.0</ele><time>2026-04-19T13:59:21.511Z</time></trkpt><trkpt lat="38.69507" lon="16.5386017"><ele>73.66666666666667</ele><time>2026-04-19T13:59:22.511Z</time></trkpt><trkpt lat="38.6948783" lon="16.5386417"><ele>75.33333333333334</ele><time>2026-04-19T13:59:23.511Z</time></trkpt><trkpt lat="38.6946933" lon="16.5387033"><ele>77.0</ele><time>2026-04-19T13:59:24.511Z</time></trkpt><trkpt lat="38.6938333" lon="16.5390517"><ele>77.0</ele><time>2026-04-19T13:59:29.511Z</time></trkpt><trkpt lat="38.6936933" lon="16.539135"><ele>77.0</ele><time>2026-04-19T13:59:30.511Z</time></trkpt><trkpt lat="38.6935167" lon="16.53923"><ele>77.0</ele><time>2026-04-19T13:59:31.511Z</time></trkpt><trkpt lat="38.6933467" lon="16.5393183"><ele>79.0</ele><time>2026-04-19T13:59:32.511Z</time></trkpt><trkpt lat="38.693175" lon="16.5394083"><ele>81.0</ele><time>2026-04-19T13:59:33.512Z</time></trkpt><trkpt lat="38.6930033" lon="16.53949"><ele>83.0</ele><time>2026-04-19T13:59:34.512Z</time></trkpt><trkpt lat="38.692835" lon="16.5395583"><ele>82.5</ele><time>2026-04-19T13:59:35.511Z</time></trkpt><trkpt lat="38.6926667" lon="16.539625"><ele>82.0</ele><time>2026-04-19T13:59:36.511Z</time></trkpt><trkpt lat="38.69182" lon="16.5399483"><ele>73.0</ele><time>2026-04-19T13:59:41.511Z</time></trkpt><trkpt lat="38.6903067" lon="16.54039"><ele>73.0</ele><time>2026-04-19T13:59:49.511Z</time></trkpt><trkpt lat="38.6902" lon="16.540585"><ele>73.0</ele><time>2026-04-19T13:59:50.511Z</time></trkpt><trkpt lat="38.6900517" lon="16.5406817"><ele>73.0</ele><time>2026-04-19T13:59:51.511Z</time></trkpt><trkpt lat="38.68987" lon="16.5407583"><ele>73.0</ele><time>2026-04-19T13:59:52.511Z</time></trkpt><trkpt lat="38.689685" lon="16.5408317"><ele>73.0</ele><time>2026-04-19T13:59:53.512Z</time></trkpt><trkpt lat="38.6895083" lon="16.5409117"><ele>73.0</ele><time>2026-04-19T13:59:54.511Z</time></trkpt><trkpt lat="38.6893333" lon="16.5409767"><ele>72.33333333333333</ele><time>2026-04-19T13:59:55.512Z</time></trkpt><trkpt lat="38.6891567" lon="16.541045"><ele>71.66666666666667</ele><time>2026-04-19T13:59:56.511Z</time></trkpt><trkpt lat="38.6889867" lon="16.5410983"><ele>71.0</ele><time>2026-04-19T13:59:57.511Z</time></trkpt><trkpt lat="38.68881" lon="16.54117"><ele>67.66666666666667</ele><time>2026-04-19T13:59:58.511Z</time></trkpt><trkpt lat="38.6886333" lon="16.54125"><ele>64.33333333333333</ele><time>2026-04-19T13:59:59.511Z</time></trkpt><trkpt lat="38.6884617" lon="16.54132"><ele>61.0</ele><time>2026-04-19T14:00:00.511Z</time></trkpt><trkpt lat="38.6882917" lon="16.5413983"><ele>61.0</ele><time>2026-04-19T14:00:01.511Z</time></trkpt><trkpt lat="38.68812" lon="16.5414717"><ele>61.0</ele><time>2026-04-19T14:00:02.511Z</time></trkpt><trkpt lat="38.6879483" lon="16.5415467"><ele>61.0</ele><time>2026-04-19T14:00:03.511Z</time></trkpt><trkpt lat="38.6877683" lon="16.54162"><ele>63.0</ele><time>2026-04-19T14:00:04.512Z</time></trkpt><trkpt lat="38.6875767" lon="16.5416967"><ele>65.0</ele><time>2026-04-19T14:00:05.512Z</time></trkpt><trkpt lat="38.6873833" lon="16.5417683"><ele>67.0</ele><time>2026-04-19T14:00:06.512Z</time></trkpt><trkpt lat="38.6871883" lon="16.5418533"><ele>67.0</ele><time>2026-04-19T14:00:07.511Z</time></trkpt><trkpt lat="38.6869933" lon="16.5419417"><ele>67.0</ele><time>2026-04-19T14:00:08.511Z</time></trkpt><trkpt lat="38.6867883" lon="16.5420167"><ele>67.0</ele><time>2026-04-19T14:00:09.511Z</time></trkpt><trkpt lat="38.6865817" lon="16.542105"><ele>62.33333333333333</ele><time>2026-04-19T14:00:10.511Z</time></trkpt><trkpt lat="38.6863783" lon="16.54219"><ele>57.66666666666667</ele><time>2026-04-19T14:00:11.511Z</time></trkpt><trkpt lat="38.68618" lon="16.5422733"><ele>53.0</ele><time>2026-04-19T14:00:12.511Z</time></trkpt><trkpt lat="38.6859833" lon="16.5423567"><ele>53.0</ele><time>2026-04-19T14:00:13.511Z</time></trkpt><trkpt lat="38.6857867" lon="16.5424367"><ele>53.0</ele><time>2026-04-19T14:00:14.511Z</time></trkpt><trkpt lat="38.68559" lon="16.5425133"><ele>53.0</ele><time>2026-04-19T14:00:15.511Z</time></trkpt><trkpt lat="38.685395" lon="16.5425917"><ele>51.66666666666667</ele><time>2026-04-19T14:00:16.511Z</time></trkpt><trkpt lat="38.6851983" lon="16.5426667"><ele>50.33333333333333</ele><time>2026-04-19T14:00:17.511Z</time></trkpt><trkpt lat="38.685005" lon="16.5427483"><ele>49.0</ele><time>2026-04-19T14:00:18.511Z</time></trkpt><trkpt lat="38.6848133" lon="16.5428267"><ele>47.33333333333333</ele><time>2026-04-19T14:00:19.511Z</time></trkpt><trkpt lat="38.6846233" lon="16.542905"><ele>45.666666666666664</ele><time>2026-04-19T14:00:20.511Z</time></trkpt><trkpt lat="38.6844333" lon="16.5429833"><ele>44.0</ele><time>2026-04-19T14:00:21.512Z</time></trkpt><trkpt lat="38.684245" lon="16.5430667"><ele>41.33333333333333</ele><time>2026-04-19T14:00:22.511Z</time></trkpt><trkpt lat="38.68406" lon="16.54315"><ele>38.666666666666664</ele><time>2026-04-19T14:00:23.511Z</time></trkpt><trkpt lat="38.6838733" lon="16.5432267"><ele>36.0</ele><time>2026-04-19T14:00:24.511Z</time></trkpt><trkpt lat="38.6836883" lon="16.5433067"><ele>34.333333333333336</ele><time>2026-04-19T14:00:25.511Z</time></trkpt><trkpt lat="38.6835017" lon="16.543385"><ele>32.66666666666667</ele><time>2026-04-19T14:00:26.511Z</time></trkpt><trkpt lat="38.683315" lon="16.5434667"><ele>31.0</ele><time>2026-04-19T14:00:27.512Z</time></trkpt><trkpt lat="38.6831283" lon="16.543545"><ele>31.0</ele><time>2026-04-19T14:00:28.512Z</time></trkpt><trkpt lat="38.6829417" lon="16.543625"><ele>31.0</ele><time>2026-04-19T14:00:29.511Z</time></trkpt><trkpt lat="38.6827533" lon="16.5437067"><ele>31.0</ele><time>2026-04-19T14:00:30.511Z</time></trkpt><trkpt lat="38.68256" lon="16.5437817"><ele>31.666666666666668</ele><time>2026-04-19T14:00:31.512Z</time></trkpt><trkpt lat="38.68237" lon="16.5438583"><ele>32.333333333333336</ele><time>2026-04-19T14:00:32.511Z</time></trkpt><trkpt lat="38.682175" lon="16.543935"><ele>33.0</ele><time>2026-04-19T14:00:33.511Z</time></trkpt><trkpt lat="38.6819817" lon="16.5440167"><ele>36.0</ele><time>2026-04-19T14:00:34.511Z</time></trkpt><trkpt lat="38.68179" lon="16.544105"><ele>39.0</ele><time>2026-04-19T14:00:35.511Z</time></trkpt><trkpt lat="38.6815983" lon="16.5441917"><ele>42.0</ele><time>2026-04-19T14:00:36.511Z</time></trkpt><trkpt lat="38.681405" lon="16.54427"><ele>42.0</ele><time>2026-04-19T14:00:37.511Z</time></trkpt><trkpt lat="38.681215" lon="16.5443567"><ele>42.0</ele><time>2026-04-19T14:00:38.511Z</time></trkpt><trkpt lat="38.6810167" lon="16.5444283"><ele>42.0</ele><time>2026-04-19T14:00:39.511Z</time></trkpt><trkpt lat="38.6808167" lon="16.5445117"><ele>43.0</ele><time>2026-04-19T14:00:40.511Z</time></trkpt><trkpt lat="38.6806217" lon="16.5446"><ele>44.0</ele><time>2026-04-19T14:00:41.511Z</time></trkpt><trkpt lat="38.680425" lon="16.5446733"><ele>45.0</ele><time>2026-04-19T14:00:42.511Z</time></trkpt><trkpt lat="38.6802283" lon="16.5447533"><ele>43.0</ele><time>2026-04-19T14:00:43.512Z</time></trkpt><trkpt lat="38.6800283" lon="16.544835"><ele>41.0</ele><time>2026-04-19T14:00:44.511Z</time></trkpt><trkpt lat="38.6798283" lon="16.5449233"><ele>39.0</ele><time>2026-04-19T14:00:45.511Z</time></trkpt><trkpt lat="38.6796267" lon="16.5450083"><ele>36.666666666666664</ele><time>2026-04-19T14:00:46.511Z</time></trkpt><trkpt lat="38.679425" lon="16.545095"><ele>34.33333333333333</ele><time>2026-04-19T14:00:47.511Z</time></trkpt><trkpt lat="38.67923" lon="16.5451783"><ele>32.0</ele><time>2026-04-19T14:00:48.511Z</time></trkpt><trkpt lat="38.6790283" lon="16.5452567"><ele>32.0</ele><time>2026-04-19T14:00:49.511Z</time></trkpt><trkpt lat="38.6788233" lon="16.5453433"><ele>32.0</ele><time>2026-04-19T14:00:50.511Z</time></trkpt><trkpt lat="38.6786217" lon="16.5454317"><ele>32.0</ele><time>2026-04-19T14:00:51.511Z</time></trkpt><trkpt lat="38.6784167" lon="16.5455167"><ele>31.333333333333332</ele><time>2026-04-19T14:00:52.511Z</time></trkpt><trkpt lat="38.6782167" lon="16.545605"><ele>30.666666666666664</ele><time>2026-04-19T14:00:53.512Z</time></trkpt><trkpt lat="38.6780067" lon="16.545695"><ele>30.0</ele><time>2026-04-19T14:00:54.512Z</time></trkpt><trkpt lat="38.6778017" lon="16.5457833"><ele>26.0</ele><time>2026-04-19T14:00:55.511Z</time></trkpt><trkpt lat="38.6775917" lon="16.5458733"><ele>22.0</ele><time>2026-04-19T14:00:56.512Z</time></trkpt><trkpt lat="38.6773867" lon="16.5459517"><ele>18.0</ele><time>2026-04-19T14:00:57.511Z</time></trkpt><trkpt lat="38.6771767" lon="16.546035"><ele>18.0</ele><time>2026-04-19T14:00:58.511Z</time></trkpt><trkpt lat="38.67697" lon="16.54611"><ele>18.0</ele><time>2026-04-19T14:00:59.511Z</time></trkpt><trkpt lat="38.6767583" lon="16.5461883"><ele>18.0</ele><time>2026-04-19T14:01:00.511Z</time></trkpt><trkpt lat="38.6765483" lon="16.5462517"><ele>16.0</ele><time>2026-04-19T14:01:01.511Z</time></trkpt><trkpt lat="38.6763333" lon="16.546295"><ele>14.0</ele><time>2026-04-19T14:01:02.512Z</time></trkpt><trkpt lat="38.6761133" lon="16.54632"><ele>12.0</ele><time>2026-04-19T14:01:03.511Z</time></trkpt><trkpt lat="38.6758933" lon="16.5463183"><ele>10.666666666666666</ele><time>2026-04-19T14:01:04.512Z</time></trkpt><trkpt lat="38.6756717" lon="16.5462967"><ele>9.333333333333332</ele><time>2026-04-19T14:01:05.512Z</time></trkpt><trkpt lat="38.6754483" lon="16.5462633"><ele>8.0</ele><time>2026-04-19T14:01:06.511Z</time></trkpt><trkpt lat="38.67523" lon="16.5462267"><ele>8.0</ele><time>2026-04-19T14:01:07.511Z</time></trkpt><trkpt lat="38.6750067" lon="16.5461917"><ele>8.0</ele><time>2026-04-19T14:01:08.511Z</time></trkpt><trkpt lat="38.6747817" lon="16.546165"><ele>8.0</ele><time>2026-04-19T14:01:09.511Z</time></trkpt><trkpt lat="38.6745617" lon="16.5461467"><ele>8.0</ele><time>2026-04-19T14:01:10.511Z</time></trkpt><trkpt lat="38.674335" lon="16.5461483"><ele>8.0</ele><time>2026-04-19T14:01:11.512Z</time></trkpt><trkpt lat="38.6741117" lon="16.54618"><ele>7.666666666666666</ele><time>2026-04-19T14:01:12.512Z</time></trkpt><trkpt lat="38.6738933" lon="16.5462317"><ele>7.333333333333334</ele><time>2026-04-19T14:01:13.512Z</time></trkpt><trkpt lat="38.67368" lon="16.54631"><ele>7.0</ele><time>2026-04-19T14:01:14.511Z</time></trkpt><trkpt lat="38.6734817" lon="16.5464017"><ele>6.666666666666667</ele><time>2026-04-19T14:01:15.511Z</time></trkpt><trkpt lat="38.6732917" lon="16.546505"><ele>6.333333333333334</ele><time>2026-04-19T14:01:16.511Z</time></trkpt><trkpt lat="38.6731183" lon="16.5466033"><ele>6.0</ele><time>2026-04-19T14:01:17.512Z</time></trkpt><trkpt lat="38.6729517" lon="16.5466967"><ele>6.0</ele><time>2026-04-19T14:01:18.511Z</time></trkpt><trkpt lat="38.6727967" lon="16.5467617"><ele>6.0</ele><time>2026-04-19T14:01:19.511Z</time></trkpt><trkpt lat="38.6726533" lon="16.5468017"><ele>6.0</ele><time>2026-04-19T14:01:20.511Z</time></trkpt><trkpt lat="38.6725133" lon="16.546825"><ele>6.25</ele><time>2026-04-19T14:01:21.511Z</time></trkpt><trkpt lat="38.67238" lon="16.546795"><ele>6.5</ele><time>2026-04-19T14:01:22.511Z</time></trkpt><trkpt lat="38.6722583" lon="16.5467517"><ele>6.75</ele><time>2026-04-19T14:01:23.511Z</time></trkpt><trkpt lat="38.672125" lon="16.5467317"><ele>7.0</ele><time>2026-04-19T14:01:24.511Z</time></trkpt><trkpt lat="38.67199" lon="16.5467583"><ele>7.333333333333334</ele><time>2026-04-19T14:01:25.512Z</time></trkpt><trkpt lat="38.6718633" lon="16.5468417"><ele>7.666666666666666</ele><time>2026-04-19T14:01:26.511Z</time></trkpt><trkpt lat="38.6717533" lon="16.54698"><ele>8.0</ele><time>2026-04-19T14:01:27.511Z</time></trkpt><trkpt lat="38.671665" lon="16.5471433"><ele>8.0</ele><time>2026-04-19T14:01:28.511Z</time></trkpt><trkpt lat="38.6715617" lon="16.5473033"><ele>8.0</ele><time>2026-04-19T14:01:29.511Z</time></trkpt><trkpt lat="38.6714517" lon="16.5474467"><ele>8.0</ele><time>2026-04-19T14:01:30.511Z</time></trkpt><trkpt lat="38.6713233" lon="16.5475717"><ele>8.0</ele><time>2026-04-19T14:01:31.511Z</time></trkpt><trkpt lat="38.6711833" lon="16.5476833"><ele>8.0</ele><time>2026-04-19T14:01:32.511Z</time></trkpt><trkpt lat="38.6710333" lon="16.5477583"><ele>8.0</ele><time>2026-04-19T14:01:33.511Z</time></trkpt><trkpt lat="38.67088" lon="16.5478133"><ele>8.0</ele><time>2026-04-19T14:01:34.511Z</time></trkpt><trkpt lat="38.67073" lon="16.5478433"><ele>8.0</ele><time>2026-04-19T14:01:35.512Z</time></trkpt><trkpt lat="38.6705833" lon="16.54785"><ele>8.0</ele><time>2026-04-19T14:01:36.512Z</time></trkpt><trkpt lat="38.670455" lon="16.547845"><ele>8.0</ele><time>2026-04-19T14:01:37.511Z</time></trkpt><trkpt lat="38.670325" lon="16.547825"><ele>8.0</ele><time>2026-04-19T14:01:38.511Z</time></trkpt><trkpt lat="38.6701917" lon="16.5477883"><ele>8.0</ele><time>2026-04-19T14:01:39.511Z</time></trkpt><trkpt lat="38.67005" lon="16.54774"><ele>8.0</ele><time>2026-04-19T14:01:40.511Z</time></trkpt><trkpt lat="38.6698933" lon="16.5476933"><ele>8.0</ele><time>2026-04-19T14:01:41.512Z</time></trkpt><trkpt lat="38.669715" lon="16.5476267"><ele>8.0</ele><time>2026-04-19T14:01:42.511Z</time></trkpt><trkpt lat="38.6695233" lon="16.5475317"><ele>8.0</ele><time>2026-04-19T14:01:43.511Z</time></trkpt><trkpt lat="38.6693183" lon="16.5474183"><ele>8.0</ele><time>2026-04-19T14:01:44.511Z</time></trkpt><trkpt lat="38.669115" lon="16.5472967"><ele>9.333333333333332</ele><time>2026-04-19T14:01:45.511Z</time></trkpt><trkpt lat="38.668905" lon="16.54718"><ele>10.666666666666666</ele><time>2026-04-19T14:01:46.511Z</time></trkpt><trkpt lat="38.66871" lon="16.5470683"><ele>12.0</ele><time>2026-04-19T14:01:47.511Z</time></trkpt><trkpt lat="38.6685333" lon="16.5469767"><ele>12.666666666666668</ele><time>2026-04-19T14:01:48.511Z</time></trkpt><trkpt lat="38.6683583" lon="16.546895"><ele>13.333333333333334</ele><time>2026-04-19T14:01:49.511Z</time></trkpt><trkpt lat="38.6682" lon="16.546825"><ele>14.0</ele><time>2026-04-19T14:01:50.511Z</time></trkpt><trkpt lat="38.668065" lon="16.546755"><ele>14.0</ele><time>2026-04-19T14:01:51.511Z</time></trkpt><trkpt lat="38.667955" lon="16.54669"><ele>14.0</ele><time>2026-04-19T14:01:52.511Z</time></trkpt><trkpt lat="38.6678617" lon="16.5466317"><ele>14.0</ele><time>2026-04-19T14:01:53.511Z</time></trkpt><trkpt lat="38.6677567" lon="16.5465867"><ele>14.0</ele><time>2026-04-19T14:01:54.511Z</time></trkpt><trkpt lat="38.6676333" lon="16.546535"><ele>13.75</ele><time>2026-04-19T14:01:55.512Z</time></trkpt><trkpt lat="38.6675033" lon="16.5464733"><ele>13.5</ele><time>2026-04-19T14:01:56.511Z</time></trkpt><trkpt lat="38.667365" lon="16.5464"><ele>13.25</ele><time>2026-04-19T14:01:57.511Z</time></trkpt><trkpt lat="38.6672217" lon="16.5463117"><ele>13.0</ele><time>2026-04-19T14:01:58.511Z</time></trkpt><trkpt lat="38.667065" lon="16.5462233"><ele>13.666666666666666</ele><time>2026-04-19T14:01:59.511Z</time></trkpt><trkpt lat="38.6668983" lon="16.54612"><ele>14.333333333333332</ele><time>2026-04-19T14:02:00.511Z</time></trkpt><trkpt lat="38.666725" lon="16.546015"><ele>15.0</ele><time>2026-04-19T14:02:01.511Z</time></trkpt><trkpt lat="38.6665433" lon="16.5459067"><ele>15.0</ele><time>2026-04-19T14:02:02.511Z</time></trkpt><trkpt lat="38.6663583" lon="16.5457967"><ele>15.0</ele><time>2026-04-19T14:02:03.511Z</time></trkpt><trkpt lat="38.6661567" lon="16.54571"><ele>15.0</ele><time>2026-04-19T14:02:04.511Z</time></trkpt><trkpt lat="38.665955" lon="16.5456067"><ele>14.666666666666668</ele><time>2026-04-19T14:02:05.511Z</time></trkpt><trkpt lat="38.6657617" lon="16.5454917"><ele>14.333333333333334</ele><time>2026-04-19T14:02:06.511Z</time></trkpt><trkpt lat="38.6655667" lon="16.5453783"><ele>14.0</ele><time>2026-04-19T14:02:07.511Z</time></trkpt><trkpt lat="38.66537" lon="16.5452717"><ele>14.0</ele><time>2026-04-19T14:02:08.511Z</time></trkpt><trkpt lat="38.66517" lon="16.5451717"><ele>14.0</ele><time>2026-04-19T14:02:09.511Z</time></trkpt><trkpt lat="38.66497" lon="16.5450767"><ele>14.0</ele><time>2026-04-19T14:02:10.511Z</time></trkpt><trkpt lat="38.6647583" lon="16.5449917"><ele>14.0</ele><time>2026-04-19T14:02:11.512Z</time></trkpt><trkpt lat="38.6645583" lon="16.544895"><ele>14.0</ele><time>2026-04-19T14:02:12.511Z</time></trkpt><trkpt lat="38.6643583" lon="16.5448067"><ele>14.0</ele><time>2026-04-19T14:02:13.512Z</time></trkpt><trkpt lat="38.66415" lon="16.5447317"><ele>14.0</ele><time>2026-04-19T14:02:14.512Z</time></trkpt><trkpt lat="38.6639467" lon="16.544655"><ele>14.0</ele><time>2026-04-19T14:02:15.511Z</time></trkpt><trkpt lat="38.6637483" lon="16.54458"><ele>14.0</ele><time>2026-04-19T14:02:16.511Z</time></trkpt><trkpt lat="38.66356" lon="16.54451"><ele>14.666666666666668</ele><time>2026-04-19T14:02:17.511Z</time></trkpt><trkpt lat="38.663375" lon="16.5444333"><ele>15.333333333333332</ele><time>2026-04-19T14:02:18.511Z</time></trkpt><trkpt lat="38.6631967" lon="16.5443767"><ele>16.0</ele><time>2026-04-19T14:02:19.511Z</time></trkpt><trkpt lat="38.6630317" lon="16.5443267"><ele>16.0</ele><time>2026-04-19T14:02:20.511Z</time></trkpt><trkpt lat="38.6628567" lon="16.5442917"><ele>16.0</ele><time>2026-04-19T14:02:21.511Z</time></trkpt><trkpt lat="38.66269" lon="16.5442733"><ele>16.0</ele><time>2026-04-19T14:02:22.511Z</time></trkpt><trkpt lat="38.66252" lon="16.54429"><ele>15.666666666666666</ele><time>2026-04-19T14:02:23.512Z</time></trkpt><trkpt lat="38.6623467" lon="16.54433"><ele>15.333333333333332</ele><time>2026-04-19T14:02:24.511Z</time></trkpt><trkpt lat="38.662175" lon="16.5443833"><ele>15.0</ele><time>2026-04-19T14:02:25.511Z</time></trkpt><trkpt lat="38.66201" lon="16.5444433"><ele>15.0</ele><time>2026-04-19T14:02:26.511Z</time></trkpt><trkpt lat="38.6618583" lon="16.5444967"><ele>15.0</ele><time>2026-04-19T14:02:27.511Z</time></trkpt><trkpt lat="38.6617233" lon="16.544525"><ele>15.0</ele><time>2026-04-19T14:02:28.511Z</time></trkpt><trkpt lat="38.6615933" lon="16.5445367"><ele>15.0</ele><time>2026-04-19T14:02:29.511Z</time></trkpt><trkpt lat="38.6614833" lon="16.5445833"><ele>15.0</ele><time>2026-04-19T14:02:30.512Z</time></trkpt><trkpt lat="38.6613617" lon="16.5446417"><ele>15.0</ele><time>2026-04-19T14:02:31.511Z</time></trkpt><trkpt lat="38.6612233" lon="16.544715"><ele>15.0</ele><time>2026-04-19T14:02:32.511Z</time></trkpt><trkpt lat="38.6610733" lon="16.544785"><ele>15.0</ele><time>2026-04-19T14:02:33.511Z</time></trkpt><trkpt lat="38.6609067" lon="16.5448517"><ele>15.666666666666668</ele><time>2026-04-19T14:02:34.511Z</time></trkpt><trkpt lat="38.6607433" lon="16.5449133"><ele>16.333333333333336</ele><time>2026-04-19T14:02:35.511Z</time></trkpt><trkpt lat="38.6605767" lon="16.5449833"><ele>17.0</ele><time>2026-04-19T14:02:36.511Z</time></trkpt><trkpt lat="38.6604167" lon="16.5450717"><ele>16.333333333333336</ele><time>2026-04-19T14:02:37.511Z</time></trkpt><trkpt lat="38.6602567" lon="16.5452033"><ele>15.666666666666668</ele><time>2026-04-19T14:02:38.511Z</time></trkpt><trkpt lat="38.6601067" lon="16.5453667"><ele>15.0</ele><time>2026-04-19T14:02:39.511Z</time></trkpt><trkpt lat="38.65995" lon="16.54552"><ele>15.0</ele><time>2026-04-19T14:02:40.512Z</time></trkpt><trkpt lat="38.6597883" lon="16.5456767"><ele>15.0</ele><time>2026-04-19T14:02:41.511Z</time></trkpt><trkpt lat="38.6596167" lon="16.545805"><ele>15.0</ele><time>2026-04-19T14:02:42.511Z</time></trkpt><trkpt lat="38.65942" lon="16.545905"><ele>15.333333333333332</ele><time>2026-04-19T14:02:43.511Z</time></trkpt><trkpt lat="38.6592133" lon="16.545995"><ele>15.666666666666666</ele><time>2026-04-19T14:02:44.511Z</time></trkpt><trkpt lat="38.6589967" lon="16.546065"><ele>16.0</ele><time>2026-04-19T14:02:45.512Z</time></trkpt><trkpt lat="38.658775" lon="16.5461417"><ele>15.0</ele><time>2026-04-19T14:02:46.511Z</time></trkpt><trkpt lat="38.658555" lon="16.5462217"><ele>14.0</ele><time>2026-04-19T14:02:47.511Z</time></trkpt><trkpt lat="38.6583317" lon="16.546305"><ele>14.0</ele><time>2026-04-19T14:02:48.512Z</time></trkpt><trkpt lat="38.6581233" lon="16.546385"><ele>14.0</ele><time>2026-04-19T14:02:49.511Z</time></trkpt><trkpt lat="38.6579133" lon="16.546455"><ele>14.0</ele><time>2026-04-19T14:02:50.511Z</time></trkpt><trkpt lat="38.657705" lon="16.5465333"><ele>14.333333333333334</ele><time>2026-04-19T14:02:51.511Z</time></trkpt><trkpt lat="38.657505" lon="16.5466233"><ele>14.666666666666668</ele><time>2026-04-19T14:02:52.512Z</time></trkpt><trkpt lat="38.6573067" lon="16.546735"><ele>15.0</ele><time>2026-04-19T14:02:53.511Z</time></trkpt><trkpt lat="38.6571117" lon="16.546875"><ele>15.0</ele><time>2026-04-19T14:02:54.512Z</time></trkpt><trkpt lat="38.6569217" lon="16.5470233"><ele>15.0</ele><time>2026-04-19T14:02:55.511Z</time></trkpt><trkpt lat="38.6567483" lon="16.547155"><ele>15.0</ele><time>2026-04-19T14:02:56.511Z</time></trkpt><trkpt lat="38.65658" lon="16.5472617"><ele>14.333333333333332</ele><time>2026-04-19T14:02:57.511Z</time></trkpt><trkpt lat="38.656425" lon="16.5473717"><ele>13.666666666666666</ele><time>2026-04-19T14:02:58.511Z</time></trkpt><trkpt lat="38.6562817" lon="16.5474633"><ele>13.0</ele><time>2026-04-19T14:02:59.511Z</time></trkpt><trkpt lat="38.6561467" lon="16.5475483"><ele>13.333333333333332</ele><time>2026-04-19T14:03:00.511Z</time></trkpt><trkpt lat="38.656" lon="16.5476017"><ele>13.666666666666668</ele><time>2026-04-19T14:03:01.511Z</time></trkpt><trkpt lat="38.6558333" lon="16.547625"><ele>14.0</ele><time>2026-04-19T14:03:02.511Z</time></trkpt><trkpt lat="38.6556633" lon="16.5476333"><ele>14.0</ele><time>2026-04-19T14:03:03.511Z</time></trkpt><trkpt lat="38.6554883" lon="16.547645"><ele>14.0</ele><time>2026-04-19T14:03:04.511Z</time></trkpt><trkpt lat="38.655315" lon="16.5476483"><ele>14.0</ele><time>2026-04-19T14:03:05.512Z</time></trkpt><trkpt lat="38.6551417" lon="16.5476533"><ele>14.0</ele><time>2026-04-19T14:03:06.511Z</time></trkpt><trkpt lat="38.6549683" lon="16.5476667"><ele>14.0</ele><time>2026-04-19T14:03:07.511Z</time></trkpt><trkpt lat="38.65479" lon="16.54768"><ele>14.0</ele><time>2026-04-19T14:03:08.511Z</time></trkpt><trkpt lat="38.6546033" lon="16.5476867"><ele>14.666666666666668</ele><time>2026-04-19T14:03:09.511Z</time></trkpt><trkpt lat="38.6544167" lon="16.5477"><ele>15.333333333333332</ele><time>2026-04-19T14:03:10.511Z</time></trkpt><trkpt lat="38.6542367" lon="16.547715"><ele>16.0</ele><time>2026-04-19T14:03:11.511Z</time></trkpt><trkpt lat="38.65405" lon="16.54774"><ele>16.0</ele><time>2026-04-19T14:03:12.512Z</time></trkpt><trkpt lat="38.6538533" lon="16.5477667"><ele>16.0</ele><time>2026-04-19T14:03:13.512Z</time></trkpt><trkpt lat="38.6536333" lon="16.5477783"><ele>16.0</ele><time>2026-04-19T14:03:14.511Z</time></trkpt><trkpt lat="38.6534083" lon="16.5477783"><ele>15.5</ele><time>2026-04-19T14:03:15.511Z</time></trkpt><trkpt lat="38.653165" lon="16.5477567"><ele>15.0</ele><time>2026-04-19T14:03:16.511Z</time></trkpt><trkpt lat="38.6529117" lon="16.54771"><ele>15.5</ele><time>2026-04-19T14:03:17.511Z</time></trkpt><trkpt lat="38.6526583" lon="16.547655"><ele>16.0</ele><time>2026-04-19T14:03:18.511Z</time></trkpt><trkpt lat="38.6524083" lon="16.547605"><ele>16.0</ele><time>2026-04-19T14:03:19.512Z</time></trkpt><trkpt lat="38.6521667" lon="16.5475667"><ele>16.0</ele><time>2026-04-19T14:03:20.511Z</time></trkpt><trkpt lat="38.6519417" lon="16.5475267"><ele>16.666666666666664</ele><time>2026-04-19T14:03:21.511Z</time></trkpt><trkpt lat="38.6517267" lon="16.5475067"><ele>17.333333333333332</ele><time>2026-04-19T14:03:22.511Z</time></trkpt><trkpt lat="38.65152" lon="16.5474967"><ele>18.0</ele><time>2026-04-19T14:03:23.512Z</time></trkpt><trkpt lat="38.6513233" lon="16.547505"><ele>18.0</ele><time>2026-04-19T14:03:24.511Z</time></trkpt><trkpt lat="38.6511367" lon="16.547525"><ele>18.0</ele><time>2026-04-19T14:03:25.512Z</time></trkpt><trkpt lat="38.6509433" lon="16.5475533"><ele>18.0</ele><time>2026-04-19T14:03:26.512Z</time></trkpt><trkpt lat="38.6507317" lon="16.54759"><ele>17.5</ele><time>2026-04-19T14:03:27.512Z</time></trkpt><trkpt lat="38.650515" lon="16.54766"><ele>17.0</ele><time>2026-04-19T14:03:28.511Z</time></trkpt><trkpt lat="38.6503033" lon="16.5477617"><ele>15.5</ele><time>2026-04-19T14:03:29.511Z</time></trkpt><trkpt lat="38.65009" lon="16.5478833"><ele>14.0</ele><time>2026-04-19T14:03:30.511Z</time></trkpt><trkpt lat="38.6498783" lon="16.548"><ele>14.0</ele><time>2026-04-19T14:03:31.511Z</time></trkpt><trkpt lat="38.6496717" lon="16.5480933"><ele>14.0</ele><time>2026-04-19T14:03:32.511Z</time></trkpt><trkpt lat="38.6494433" lon="16.54815"><ele>15.0</ele><time>2026-04-19T14:03:33.511Z</time></trkpt><trkpt lat="38.6492083" lon="16.548175"><ele>16.0</ele><time>2026-04-19T14:03:34.511Z</time></trkpt><trkpt lat="38.6489633" lon="16.548185"><ele>16.0</ele><time>2026-04-19T14:03:35.511Z</time></trkpt><trkpt lat="38.64871" lon="16.5482"><ele>16.0</ele><time>2026-04-19T14:03:36.511Z</time></trkpt><trkpt lat="38.64846" lon="16.5482167"><ele>16.0</ele><time>2026-04-19T14:03:37.511Z</time></trkpt><trkpt lat="38.6482017" lon="16.548235"><ele>16.0</ele><time>2026-04-19T14:03:38.511Z</time></trkpt><trkpt lat="38.6479417" lon="16.548255"><ele>16.5</ele><time>2026-04-19T14:03:39.512Z</time></trkpt><trkpt lat="38.6476733" lon="16.5482717"><ele>17.0</ele><time>2026-04-19T14:03:40.511Z</time></trkpt><trkpt lat="38.6474" lon="16.548295"><ele>17.0</ele><time>2026-04-19T14:03:41.512Z</time></trkpt><trkpt lat="38.6471267" lon="16.548315"><ele>17.0</ele><time>2026-04-19T14:03:42.511Z</time></trkpt><trkpt lat="38.6468617" lon="16.5483383"><ele>16.5</ele><time>2026-04-19T14:03:43.511Z</time></trkpt><trkpt lat="38.646585" lon="16.5483583"><ele>16.0</ele><time>2026-04-19T14:03:44.512Z</time></trkpt><trkpt lat="38.646315" lon="16.54838"><ele>16.0</ele><time>2026-04-19T14:03:45.512Z</time></trkpt><trkpt lat="38.6460433" lon="16.5483983"><ele>16.0</ele><time>2026-04-19T14:03:46.511Z</time></trkpt><trkpt lat="38.6457733" lon="16.5484233"><ele>16.0</ele><time>2026-04-19T14:03:47.511Z</time></trkpt><trkpt lat="38.6455" lon="16.548445"><ele>16.0</ele><time>2026-04-19T14:03:48.511Z</time></trkpt><trkpt lat="38.64522" lon="16.5484567"><ele>15.5</ele><time>2026-04-19T14:03:49.512Z</time></trkpt><trkpt lat="38.644945" lon="16.5484817"><ele>15.0</ele><time>2026-04-19T14:03:50.511Z</time></trkpt><trkpt lat="38.6446717" lon="16.5485083"><ele>14.5</ele><time>2026-04-19T14:03:51.511Z</time></trkpt><trkpt lat="38.6444" lon="16.5485367"><ele>14.0</ele><time>2026-04-19T14:03:52.511Z</time></trkpt><trkpt lat="38.6441267" lon="16.5485583"><ele>14.0</ele><time>2026-04-19T14:03:53.511Z</time></trkpt><trkpt lat="38.6438567" lon="16.54859"><ele>14.0</ele><time>2026-04-19T14:03:54.511Z</time></trkpt><trkpt lat="38.6435917" lon="16.5486217"><ele>14.5</ele><time>2026-04-19T14:03:55.511Z</time></trkpt><trkpt lat="38.6433333" lon="16.5486633"><ele>15.0</ele><time>2026-04-19T14:03:56.511Z</time></trkpt><trkpt lat="38.6430833" lon="16.5486983"><ele>14.5</ele><time>2026-04-19T14:03:57.511Z</time></trkpt><trkpt lat="38.6428467" lon="16.548725"><ele>14.0</ele><time>2026-04-19T14:03:58.511Z</time></trkpt><trkpt lat="38.642625" lon="16.5487617"><ele>14.0</ele><time>2026-04-19T14:03:59.511Z</time></trkpt><trkpt lat="38.6424083" lon="16.5487917"><ele>14.0</ele><time>2026-04-19T14:04:00.511Z</time></trkpt><trkpt lat="38.6421983" lon="16.548825"><ele>14.0</ele><time>2026-04-19T14:04:01.511Z</time></trkpt><trkpt lat="38.6419967" lon="16.548855"><ele>14.0</ele><time>2026-04-19T14:04:02.512Z</time></trkpt><trkpt lat="38.6418" lon="16.5488817"><ele>14.0</ele><time>2026-04-19T14:04:03.512Z</time></trkpt><trkpt lat="38.6416083" lon="16.54891"><ele>14.0</ele><time>2026-04-19T14:04:04.511Z</time></trkpt><trkpt lat="38.64141" lon="16.5489367"><ele>14.0</ele><time>2026-04-19T14:04:05.511Z</time></trkpt><trkpt lat="38.6412083" lon="16.5489617"><ele>14.0</ele><time>2026-04-19T14:04:06.511Z</time></trkpt><trkpt lat="38.6409967" lon="16.5489917"><ele>14.0</ele><time>2026-04-19T14:04:07.511Z</time></trkpt><trkpt lat="38.6407767" lon="16.5490233"><ele>13.5</ele><time>2026-04-19T14:04:08.511Z</time></trkpt><trkpt lat="38.6405483" lon="16.5490567"><ele>13.0</ele><time>2026-04-19T14:04:09.512Z</time></trkpt><trkpt lat="38.6403133" lon="16.549095"><ele>13.0</ele><time>2026-04-19T14:04:10.511Z</time></trkpt><trkpt lat="38.6400717" lon="16.5491383"><ele>13.0</ele><time>2026-04-19T14:04:11.511Z</time></trkpt><trkpt lat="38.63983" lon="16.5491917"><ele>13.0</ele><time>2026-04-19T14:04:12.511Z</time></trkpt><trkpt lat="38.639585" lon="16.5492633"><ele>13.0</ele><time>2026-04-19T14:04:13.511Z</time></trkpt><trkpt lat="38.6393333" lon="16.5493533"><ele>14.5</ele><time>2026-04-19T14:04:14.511Z</time></trkpt><trkpt lat="38.63909" lon="16.5494433"><ele>16.0</ele><time>2026-04-19T14:04:15.511Z</time></trkpt><trkpt lat="38.6388367" lon="16.5495167"><ele>14.0</ele><time>2026-04-19T14:04:16.511Z</time></trkpt><trkpt lat="38.638575" lon="16.54955"><ele>12.0</ele><time>2026-04-19T14:04:17.511Z</time></trkpt><trkpt lat="38.6383133" lon="16.5495733"><ele>12.0</ele><time>2026-04-19T14:04:18.512Z</time></trkpt><trkpt lat="38.638055" lon="16.5495933"><ele>12.0</ele><time>2026-04-19T14:04:19.511Z</time></trkpt><trkpt lat="38.6377917" lon="16.549615"><ele>12.0</ele><time>2026-04-19T14:04:20.511Z</time></trkpt><trkpt lat="38.637525" lon="16.549635"><ele>12.0</ele><time>2026-04-19T14:04:21.511Z</time></trkpt><trkpt lat="38.6372633" lon="16.549655"><ele>12.0</ele><time>2026-04-19T14:04:22.511Z</time></trkpt><trkpt lat="38.637" lon="16.5496733"><ele>12.0</ele><time>2026-04-19T14:04:23.511Z</time></trkpt><trkpt lat="38.6367467" lon="16.549675"><ele>12.0</ele><time>2026-04-19T14:04:24.512Z</time></trkpt><trkpt lat="38.6364967" lon="16.54968"><ele>12.0</ele><time>2026-04-19T14:04:25.512Z</time></trkpt><trkpt lat="38.6362433" lon="16.5496683"><ele>12.5</ele><time>2026-04-19T14:04:26.511Z</time></trkpt><trkpt lat="38.63599" lon="16.549645"><ele>13.0</ele><time>2026-04-19T14:04:27.511Z</time></trkpt><trkpt lat="38.6357317" lon="16.54961"><ele>13.0</ele><time>2026-04-19T14:04:28.511Z</time></trkpt><trkpt lat="38.6354733" lon="16.5495767"><ele>13.0</ele><time>2026-04-19T14:04:29.512Z</time></trkpt><trkpt lat="38.6352067" lon="16.5495417"><ele>15.5</ele><time>2026-04-19T14:04:30.511Z</time></trkpt><trkpt lat="38.6349417" lon="16.54951"><ele>18.0</ele><time>2026-04-19T14:04:31.511Z</time></trkpt><trkpt lat="38.6346733" lon="16.5494817"><ele>17.0</ele><time>2026-04-19T14:04:32.511Z</time></trkpt><trkpt lat="38.634405" lon="16.5494417"><ele>16.0</ele><time>2026-04-19T14:04:33.511Z</time></trkpt><trkpt lat="38.634135" lon="16.5493983"><ele>16.0</ele><time>2026-04-19T14:04:34.511Z</time></trkpt><trkpt lat="38.63386" lon="16.5493633"><ele>16.0</ele><time>2026-04-19T14:04:35.511Z</time></trkpt><trkpt lat="38.633585" lon="16.549335"><ele>16.0</ele><time>2026-04-19T14:04:36.511Z</time></trkpt><trkpt lat="38.6333117" lon="16.5493167"><ele>16.0</ele><time>2026-04-19T14:04:37.511Z</time></trkpt><trkpt lat="38.6330417" lon="16.54929"><ele>16.0</ele><time>2026-04-19T14:04:38.511Z</time></trkpt><trkpt lat="38.6327733" lon="16.5492533"><ele>16.0</ele><time>2026-04-19T14:04:39.511Z</time></trkpt><trkpt lat="38.6325033" lon="16.5492167"><ele>16.0</ele><time>2026-04-19T14:04:40.512Z</time></trkpt><trkpt lat="38.6322333" lon="16.54918"><ele>16.0</ele><time>2026-04-19T14:04:41.511Z</time></trkpt><trkpt lat="38.6319633" lon="16.5491633"><ele>15.0</ele><time>2026-04-19T14:04:42.511Z</time></trkpt><trkpt lat="38.6316967" lon="16.549155"><ele>14.0</ele><time>2026-04-19T14:04:43.512Z</time></trkpt><trkpt lat="38.631425" lon="16.5491717"><ele>14.0</ele><time>2026-04-19T14:04:44.511Z</time></trkpt><trkpt lat="38.6311517" lon="16.5492133"><ele>14.0</ele><time>2026-04-19T14:04:45.511Z</time></trkpt><trkpt lat="38.63088" lon="16.5492633"><ele>14.5</ele><time>2026-04-19T14:04:46.511Z</time></trkpt><trkpt lat="38.6306083" lon="16.5493117"><ele>15.0</ele><time>2026-04-19T14:04:47.511Z</time></trkpt><trkpt lat="38.6303383" lon="16.5493567"><ele>15.5</ele><time>2026-04-19T14:04:48.511Z</time></trkpt><trkpt lat="38.6300717" lon="16.5493967"><ele>16.0</ele><time>2026-04-19T14:04:49.511Z</time></trkpt><trkpt lat="38.6298117" lon="16.5494367"><ele>16.0</ele><time>2026-04-19T14:04:50.511Z</time></trkpt><trkpt lat="38.6295517" lon="16.5494817"><ele>16.0</ele><time>2026-04-19T14:04:51.512Z</time></trkpt><trkpt lat="38.629285" lon="16.54952"><ele>15.0</ele><time>2026-04-19T14:04:52.511Z</time></trkpt><trkpt lat="38.6290183" lon="16.5495633"><ele>14.0</ele><time>2026-04-19T14:04:53.512Z</time></trkpt><trkpt lat="38.6287583" lon="16.5496017"><ele>14.5</ele><time>2026-04-19T14:04:54.512Z</time></trkpt><trkpt lat="38.6285" lon="16.5496483"><ele>15.0</ele><time>2026-04-19T14:04:55.511Z</time></trkpt><trkpt lat="38.6282433" lon="16.5496767"><ele>15.0</ele><time>2026-04-19T14:04:56.511Z</time></trkpt><trkpt lat="38.6279933" lon="16.549715"><ele>15.0</ele><time>2026-04-19T14:04:57.511Z</time></trkpt><trkpt lat="38.6277467" lon="16.54976"><ele>15.0</ele><time>2026-04-19T14:04:58.511Z</time></trkpt><trkpt lat="38.6275067" lon="16.549815"><ele>15.0</ele><time>2026-04-19T14:04:59.512Z</time></trkpt><trkpt lat="38.62727" lon="16.549885"><ele>15.0</ele><time>2026-04-19T14:05:00.511Z</time></trkpt><trkpt lat="38.62703" lon="16.5499833"><ele>15.0</ele><time>2026-04-19T14:05:01.511Z</time></trkpt><trkpt lat="38.626795" lon="16.55009"><ele>16.5</ele><time>2026-04-19T14:05:02.512Z</time></trkpt><trkpt lat="38.6265583" lon="16.5501883"><ele>18.0</ele><time>2026-04-19T14:05:03.512Z</time></trkpt><trkpt lat="38.6263167" lon="16.5502883"><ele>16.5</ele><time>2026-04-19T14:05:04.511Z</time></trkpt><trkpt lat="38.6260717" lon="16.5503883"><ele>15.0</ele><time>2026-04-19T14:05:05.511Z</time></trkpt><trkpt lat="38.6258267" lon="16.550485"><ele>15.0</ele><time>2026-04-19T14:05:06.511Z</time></trkpt><trkpt lat="38.6255833" lon="16.5505933"><ele>15.0</ele><time>2026-04-19T14:05:07.511Z</time></trkpt><trkpt lat="38.6253383" lon="16.5506983"><ele>15.5</ele><time>2026-04-19T14:05:08.511Z</time></trkpt><trkpt lat="38.6250917" lon="16.550805"><ele>16.0</ele><time>2026-04-19T14:05:09.511Z</time></trkpt><trkpt lat="38.6248483" lon="16.55091"><ele>16.0</ele><time>2026-04-19T14:05:10.511Z</time></trkpt><trkpt lat="38.6246067" lon="16.55102"><ele>16.0</ele><time>2026-04-19T14:05:11.512Z</time></trkpt><trkpt lat="38.6243667" lon="16.551125"><ele>15.5</ele><time>2026-04-19T14:05:12.512Z</time></trkpt><trkpt lat="38.6241267" lon="16.5512333"><ele>15.0</ele><time>2026-04-19T14:05:13.511Z</time></trkpt><trkpt lat="38.6238867" lon="16.55134"><ele>15.0</ele><time>2026-04-19T14:05:14.511Z</time></trkpt><trkpt lat="38.623645" lon="16.5514533"><ele>15.0</ele><time>2026-04-19T14:05:15.511Z</time></trkpt><trkpt lat="38.6234067" lon="16.55156"><ele>15.0</ele><time>2026-04-19T14:05:16.511Z</time></trkpt><trkpt lat="38.62317" lon="16.5516533"><ele>15.0</ele><time>2026-04-19T14:05:17.512Z</time></trkpt><trkpt lat="38.6229283" lon="16.5517533"><ele>14.5</ele><time>2026-04-19T14:05:18.511Z</time></trkpt><trkpt lat="38.6226983" lon="16.5518433"><ele>14.0</ele><time>2026-04-19T14:05:19.511Z</time></trkpt><trkpt lat="38.6224617" lon="16.551945"><ele>13.0</ele><time>2026-04-19T14:05:20.511Z</time></trkpt><trkpt lat="38.6222317" lon="16.5520483"><ele>12.0</ele><time>2026-04-19T14:05:21.512Z</time></trkpt><trkpt lat="38.6220033" lon="16.5521533"><ele>12.5</ele><time>2026-04-19T14:05:22.511Z</time></trkpt><trkpt lat="38.62178" lon="16.5522533"><ele>13.0</ele><time>2026-04-19T14:05:23.512Z</time></trkpt><trkpt lat="38.62155" lon="16.5523533"><ele>13.0</ele><time>2026-04-19T14:05:24.511Z</time></trkpt><trkpt lat="38.62132" lon="16.5524517"><ele>13.0</ele><time>2026-04-19T14:05:25.511Z</time></trkpt><trkpt lat="38.621095" lon="16.552545"><ele>12.5</ele><time>2026-04-19T14:05:26.511Z</time></trkpt><trkpt lat="38.6208717" lon="16.5526367"><ele>12.0</ele><time>2026-04-19T14:05:27.51Z</time></trkpt><trkpt lat="38.6206517" lon="16.552735"><ele>12.0</ele><time>2026-04-19T14:05:28.511Z</time></trkpt><trkpt lat="38.6204283" lon="16.5528217"><ele>12.0</ele><time>2026-04-19T14:05:29.511Z</time></trkpt><trkpt lat="38.6202" lon="16.5529017"><ele>11.0</ele><time>2026-04-19T14:05:30.511Z</time></trkpt><trkpt lat="38.6199683" lon="16.552965"><ele>10.0</ele><time>2026-04-19T14:05:31.512Z</time></trkpt><trkpt lat="38.6197433" lon="16.5530267"><ele>10.0</ele><time>2026-04-19T14:05:32.511Z</time></trkpt><trkpt lat="38.61953" lon="16.553105"><ele>10.0</ele><time>2026-04-19T14:05:33.511Z</time></trkpt><trkpt lat="38.6193067" lon="16.5531767"><ele>10.0</ele><time>2026-04-19T14:05:34.512Z</time></trkpt><trkpt lat="38.6190817" lon="16.5532517"><ele>10.0</ele><time>2026-04-19T14:05:35.511Z</time></trkpt><trkpt lat="38.6188683" lon="16.5533083"><ele>10.5</ele><time>2026-04-19T14:05:36.511Z</time></trkpt><trkpt lat="38.61865" lon="16.5533633"><ele>11.0</ele><time>2026-04-19T14:05:37.512Z</time></trkpt><trkpt lat="38.6184267" lon="16.5534333"><ele>11.0</ele><time>2026-04-19T14:05:38.511Z</time></trkpt><trkpt lat="38.6182083" lon="16.5534933"><ele>11.0</ele><time>2026-04-19T14:05:39.511Z</time></trkpt><trkpt lat="38.6179883" lon="16.5535567"><ele>11.0</ele><time>2026-04-19T14:05:40.511Z</time></trkpt><trkpt lat="38.6177667" lon="16.55361"><ele>11.5</ele><time>2026-04-19T14:05:41.511Z</time></trkpt><trkpt lat="38.617545" lon="16.5536733"><ele>12.0</ele><time>2026-04-19T14:05:42.511Z</time></trkpt><trkpt lat="38.617325" lon="16.553745"><ele>11.333333333333334</ele><time>2026-04-19T14:05:43.512Z</time></trkpt><trkpt lat="38.6171133" lon="16.5538117"><ele>10.666666666666668</ele><time>2026-04-19T14:05:44.511Z</time></trkpt><trkpt lat="38.6169017" lon="16.55386"><ele>10.0</ele><time>2026-04-19T14:05:45.512Z</time></trkpt><trkpt lat="38.61669" lon="16.5539117"><ele>10.0</ele><time>2026-04-19T14:05:46.511Z</time></trkpt><trkpt lat="38.616475" lon="16.5539483"><ele>10.0</ele><time>2026-04-19T14:05:47.511Z</time></trkpt><trkpt lat="38.6162483" lon="16.5539767"><ele>10.0</ele><time>2026-04-19T14:05:48.511Z</time></trkpt><trkpt lat="38.61602" lon="16.5540083"><ele>11.0</ele><time>2026-04-19T14:05:49.511Z</time></trkpt><trkpt lat="38.615785" lon="16.554035"><ele>12.0</ele><time>2026-04-19T14:05:50.512Z</time></trkpt><trkpt lat="38.615545" lon="16.554065"><ele>12.5</ele><time>2026-04-19T14:05:51.511Z</time></trkpt><trkpt lat="38.6152967" lon="16.5540967"><ele>13.0</ele><time>2026-04-19T14:05:52.511Z</time></trkpt><trkpt lat="38.615045" lon="16.5541217"><ele>13.0</ele><time>2026-04-19T14:05:53.511Z</time></trkpt><trkpt lat="38.6147983" lon="16.5541433"><ele>13.0</ele><time>2026-04-19T14:05:54.511Z</time></trkpt><trkpt lat="38.614545" lon="16.5541683"><ele>13.5</ele><time>2026-04-19T14:05:55.511Z</time></trkpt><trkpt lat="38.614285" lon="16.55419"><ele>14.0</ele><time>2026-04-19T14:05:56.511Z</time></trkpt><trkpt lat="38.6140317" lon="16.5542067"><ele>14.0</ele><time>2026-04-19T14:05:57.511Z</time></trkpt><trkpt lat="38.6137817" lon="16.55422"><ele>14.0</ele><time>2026-04-19T14:05:58.512Z</time></trkpt><trkpt lat="38.6135233" lon="16.5542333"><ele>13.5</ele><time>2026-04-19T14:05:59.511Z</time></trkpt><trkpt lat="38.6132717" lon="16.554245"><ele>13.0</ele><time>2026-04-19T14:06:00.511Z</time></trkpt><trkpt lat="38.6130133" lon="16.5542633"><ele>13.5</ele><time>2026-04-19T14:06:01.512Z</time></trkpt><trkpt lat="38.6127633" lon="16.5542933"><ele>14.0</ele><time>2026-04-19T14:06:02.512Z</time></trkpt><trkpt lat="38.61252" lon="16.5543317"><ele>14.0</ele><time>2026-04-19T14:06:03.511Z</time></trkpt><trkpt lat="38.6122683" lon="16.5543733"><ele>14.0</ele><time>2026-04-19T14:06:04.511Z</time></trkpt><trkpt lat="38.612015" lon="16.5544283"><ele>14.0</ele><time>2026-04-19T14:06:05.511Z</time></trkpt><trkpt lat="38.6117683" lon="16.55449"><ele>14.0</ele><time>2026-04-19T14:06:06.512Z</time></trkpt><trkpt lat="38.6115233" lon="16.5545533"><ele>13.0</ele><time>2026-04-19T14:06:07.511Z</time></trkpt><trkpt lat="38.6112733" lon="16.554625"><ele>12.0</ele><time>2026-04-19T14:06:08.511Z</time></trkpt><trkpt lat="38.6110267" lon="16.5546983"><ele>12.0</ele><time>2026-04-19T14:06:09.511Z</time></trkpt><trkpt lat="38.61078" lon="16.5547733"><ele>12.0</ele><time>2026-04-19T14:06:10.511Z</time></trkpt><trkpt lat="38.6105333" lon="16.5548517"><ele>13.0</ele><time>2026-04-19T14:06:11.511Z</time></trkpt><trkpt lat="38.6102967" lon="16.5549417"><ele>14.0</ele><time>2026-04-19T14:06:12.512Z</time></trkpt><trkpt lat="38.6100517" lon="16.5550267"><ele>14.0</ele><time>2026-04-19T14:06:13.512Z</time></trkpt><trkpt lat="38.6098033" lon="16.5551167"><ele>14.0</ele><time>2026-04-19T14:06:14.511Z</time></trkpt><trkpt lat="38.609555" lon="16.555205"><ele>13.5</ele><time>2026-04-19T14:06:15.512Z</time></trkpt><trkpt lat="38.6093033" lon="16.5552933"><ele>13.0</ele><time>2026-04-19T14:06:16.511Z</time></trkpt><trkpt lat="38.609055" lon="16.55538"><ele>12.0</ele><time>2026-04-19T14:06:17.511Z</time></trkpt><trkpt lat="38.60881" lon="16.5554617"><ele>11.0</ele><time>2026-04-19T14:06:18.511Z</time></trkpt><trkpt lat="38.6085867" lon="16.5555317"><ele>11.0</ele><time>2026-04-19T14:06:19.511Z</time></trkpt><trkpt lat="38.6083733" lon="16.5556"><ele>11.0</ele><time>2026-04-19T14:06:20.511Z</time></trkpt><trkpt lat="38.6081583" lon="16.5556783"><ele>11.0</ele><time>2026-04-19T14:06:21.511Z</time></trkpt><trkpt lat="38.60794" lon="16.5557583"><ele>11.0</ele><time>2026-04-19T14:06:22.511Z</time></trkpt><trkpt lat="38.60772" lon="16.555835"><ele>11.0</ele><time>2026-04-19T14:06:23.512Z</time></trkpt><trkpt lat="38.6075017" lon="16.55591"><ele>11.0</ele><time>2026-04-19T14:06:24.511Z</time></trkpt><trkpt lat="38.6072817" lon="16.5559867"><ele>11.0</ele><time>2026-04-19T14:06:25.511Z</time></trkpt><trkpt lat="38.6070583" lon="16.5560717"><ele>11.0</ele><time>2026-04-19T14:06:26.511Z</time></trkpt><trkpt lat="38.6068383" lon="16.5561533"><ele>11.0</ele><time>2026-04-19T14:06:27.512Z</time></trkpt><trkpt lat="38.6066183" lon="16.556235"><ele>11.0</ele><time>2026-04-19T14:06:28.511Z</time></trkpt><trkpt lat="38.606405" lon="16.5563167"><ele>11.0</ele><time>2026-04-19T14:06:29.511Z</time></trkpt><trkpt lat="38.60618" lon="16.556395"><ele>11.0</ele><time>2026-04-19T14:06:30.511Z</time></trkpt><trkpt lat="38.60596" lon="16.5564667"><ele>11.0</ele><time>2026-04-19T14:06:31.512Z</time></trkpt><trkpt lat="38.6057367" lon="16.5565383"><ele>11.0</ele><time>2026-04-19T14:06:32.511Z</time></trkpt><trkpt lat="38.6055117" lon="16.5566133"><ele>11.0</ele><time>2026-04-19T14:06:33.511Z</time></trkpt><trkpt lat="38.605295" lon="16.5566917"><ele>12.5</ele><time>2026-04-19T14:06:34.511Z</time></trkpt><trkpt lat="38.6050683" lon="16.5567683"><ele>14.0</ele><time>2026-04-19T14:06:35.511Z</time></trkpt><trkpt lat="38.604845" lon="16.5568433"><ele>14.0</ele><time>2026-04-19T14:06:36.511Z</time></trkpt><trkpt lat="38.6046183" lon="16.5569233"><ele>14.0</ele><time>2026-04-19T14:06:37.512Z</time></trkpt><trkpt lat="38.6043983" lon="16.5570083"><ele>12.5</ele><time>2026-04-19T14:06:38.512Z</time></trkpt><trkpt lat="38.6041667" lon="16.557085"><ele>11.0</ele><time>2026-04-19T14:06:39.511Z</time></trkpt><trkpt lat="38.6039383" lon="16.557165"><ele>11.0</ele><time>2026-04-19T14:06:40.512Z</time></trkpt><trkpt lat="38.60371" lon="16.5572383"><ele>11.0</ele><time>2026-04-19T14:06:41.511Z</time></trkpt><trkpt lat="38.6034817" lon="16.5573167"><ele>11.5</ele><time>2026-04-19T14:06:42.511Z</time></trkpt><trkpt lat="38.6032533" lon="16.5573983"><ele>12.0</ele><time>2026-04-19T14:06:43.511Z</time></trkpt><trkpt lat="38.6030267" lon="16.5574833"><ele>14.0</ele><time>2026-04-19T14:06:44.511Z</time></trkpt><trkpt lat="38.6028017" lon="16.557565"><ele>16.0</ele><time>2026-04-19T14:06:45.511Z</time></trkpt><trkpt lat="38.6025733" lon="16.55765"><ele>16.0</ele><time>2026-04-19T14:06:46.511Z</time></trkpt><trkpt lat="38.6023467" lon="16.5577367"><ele>16.0</ele><time>2026-04-19T14:06:47.511Z</time></trkpt><trkpt lat="38.60212" lon="16.5578283"><ele>13.5</ele><time>2026-04-19T14:06:48.511Z</time></trkpt><trkpt lat="38.6018917" lon="16.557915"><ele>11.0</ele><time>2026-04-19T14:06:49.511Z</time></trkpt><trkpt lat="38.601665" lon="16.5579983"><ele>11.0</ele><time>2026-04-19T14:06:50.512Z</time></trkpt><trkpt lat="38.6014383" lon="16.5580817"><ele>11.0</ele><time>2026-04-19T14:06:51.511Z</time></trkpt><trkpt lat="38.6012117" lon="16.5581633"><ele>11.5</ele><time>2026-04-19T14:06:52.511Z</time></trkpt><trkpt lat="38.60099" lon="16.55824"><ele>12.0</ele><time>2026-04-19T14:06:53.511Z</time></trkpt><trkpt lat="38.6007583" lon="16.5583217"><ele>12.0</ele><time>2026-04-19T14:06:54.512Z</time></trkpt><trkpt lat="38.6005317" lon="16.5584183"><ele>12.0</ele><time>2026-04-19T14:06:55.511Z</time></trkpt><trkpt lat="38.6003083" lon="16.558505"><ele>11.5</ele><time>2026-04-19T14:06:56.512Z</time></trkpt><trkpt lat="38.600085" lon="16.5585983"><ele>11.0</ele><time>2026-04-19T14:06:57.511Z</time></trkpt><trkpt lat="38.5998633" lon="16.5586867"><ele>10.5</ele><time>2026-04-19T14:06:58.512Z</time></trkpt><trkpt lat="38.5996383" lon="16.558775"><ele>10.0</ele><time>2026-04-19T14:06:59.511Z</time></trkpt><trkpt lat="38.59942" lon="16.558875"><ele>10.0</ele><time>2026-04-19T14:07:00.512Z</time></trkpt><trkpt lat="38.5992017" lon="16.558975"><ele>10.0</ele><time>2026-04-19T14:07:01.511Z</time></trkpt><trkpt lat="38.5989817" lon="16.5590833"><ele>10.0</ele><time>2026-04-19T14:07:02.512Z</time></trkpt><trkpt lat="38.598765" lon="16.55919"><ele>10.0</ele><time>2026-04-19T14:07:03.511Z</time></trkpt><trkpt lat="38.5985533" lon="16.559295"><ele>10.0</ele><time>2026-04-19T14:07:04.511Z</time></trkpt><trkpt lat="38.5983383" lon="16.5593967"><ele>10.0</ele><time>2026-04-19T14:07:05.511Z</time></trkpt><trkpt lat="38.5981267" lon="16.559495"><ele>9.666666666666668</ele><time>2026-04-19T14:07:06.511Z</time></trkpt><trkpt lat="38.5979233" lon="16.559595"><ele>9.333333333333334</ele><time>2026-04-19T14:07:07.512Z</time></trkpt><trkpt lat="38.5977267" lon="16.5596933"><ele>9.0</ele><time>2026-04-19T14:07:08.511Z</time></trkpt><trkpt lat="38.59754" lon="16.5597983"><ele>9.0</ele><time>2026-04-19T14:07:09.512Z</time></trkpt><trkpt lat="38.5973583" lon="16.5599"><ele>9.0</ele><time>2026-04-19T14:07:10.511Z</time></trkpt><trkpt lat="38.5971817" lon="16.5599967"><ele>9.0</ele><time>2026-04-19T14:07:11.511Z</time></trkpt><trkpt lat="38.5970067" lon="16.5600917"><ele>9.0</ele><time>2026-04-19T14:07:12.511Z</time></trkpt><trkpt lat="38.596835" lon="16.5601833"><ele>9.0</ele><time>2026-04-19T14:07:13.511Z</time></trkpt><trkpt lat="38.5966583" lon="16.5602733"><ele>9.0</ele><time>2026-04-19T14:07:14.511Z</time></trkpt><trkpt lat="38.5964833" lon="16.5603667"><ele>9.0</ele><time>2026-04-19T14:07:15.512Z</time></trkpt><trkpt lat="38.5962983" lon="16.5604533"><ele>9.0</ele><time>2026-04-19T14:07:16.511Z</time></trkpt><trkpt lat="38.5961083" lon="16.56054"><ele>9.0</ele><time>2026-04-19T14:07:17.511Z</time></trkpt><trkpt lat="38.595905" lon="16.5606117"><ele>9.666666666666666</ele><time>2026-04-19T14:07:18.511Z</time></trkpt><trkpt lat="38.5956917" lon="16.5606767"><ele>10.333333333333332</ele><time>2026-04-19T14:07:19.511Z</time></trkpt><trkpt lat="38.595475" lon="16.560735"><ele>11.0</ele><time>2026-04-19T14:07:20.511Z</time></trkpt><trkpt lat="38.595255" lon="16.56079"><ele>11.333333333333332</ele><time>2026-04-19T14:07:21.511Z</time></trkpt><trkpt lat="38.59504" lon="16.56085"><ele>11.666666666666666</ele><time>2026-04-19T14:07:22.512Z</time></trkpt><trkpt lat="38.594825" lon="16.560915"><ele>12.0</ele><time>2026-04-19T14:07:23.511Z</time></trkpt><trkpt lat="38.5946233" lon="16.5609817"><ele>13.0</ele><time>2026-04-19T14:07:24.511Z</time></trkpt><trkpt lat="38.594435" lon="16.5610533"><ele>14.0</ele><time>2026-04-19T14:07:25.511Z</time></trkpt><trkpt lat="38.5942617" lon="16.5611217"><ele>15.0</ele><time>2026-04-19T14:07:26.512Z</time></trkpt><trkpt lat="38.594095" lon="16.5611933"><ele>13.333333333333334</ele><time>2026-04-19T14:07:27.511Z</time></trkpt><trkpt lat="38.5939417" lon="16.5612583"><ele>11.666666666666668</ele><time>2026-04-19T14:07:28.512Z</time></trkpt><trkpt lat="38.5937917" lon="16.56132"><ele>10.0</ele><time>2026-04-19T14:07:29.512Z</time></trkpt><trkpt lat="38.5936433" lon="16.5613783"><ele>10.0</ele><time>2026-04-19T14:07:30.512Z</time></trkpt><trkpt lat="38.5934983" lon="16.5614433"><ele>10.0</ele><time>2026-04-19T14:07:31.511Z</time></trkpt><trkpt lat="38.5933483" lon="16.5615217"><ele>10.0</ele><time>2026-04-19T14:07:32.512Z</time></trkpt><trkpt lat="38.593185" lon="16.5616033"><ele>10.0</ele><time>2026-04-19T14:07:33.512Z</time></trkpt><trkpt lat="38.5930117" lon="16.5616867"><ele>10.0</ele><time>2026-04-19T14:07:34.511Z</time></trkpt><trkpt lat="38.592815" lon="16.56176"><ele>10.0</ele><time>2026-04-19T14:07:35.512Z</time></trkpt><trkpt lat="38.5926217" lon="16.5618367"><ele>10.0</ele><time>2026-04-19T14:07:36.511Z</time></trkpt><trkpt lat="38.592405" lon="16.5618833"><ele>10.0</ele><time>2026-04-19T14:07:37.511Z</time></trkpt><trkpt lat="38.5921833" lon="16.5619333"><ele>10.0</ele><time>2026-04-19T14:07:38.511Z</time></trkpt><trkpt lat="38.5919533" lon="16.56198"><ele>10.0</ele><time>2026-04-19T14:07:39.511Z</time></trkpt><trkpt lat="38.59172" lon="16.5620267"><ele>10.0</ele><time>2026-04-19T14:07:40.511Z</time></trkpt><trkpt lat="38.591475" lon="16.5620817"><ele>9.5</ele><time>2026-04-19T14:07:41.512Z</time></trkpt><trkpt lat="38.5912333" lon="16.562145"><ele>9.0</ele><time>2026-04-19T14:07:42.512Z</time></trkpt><trkpt lat="38.5909917" lon="16.5622033"><ele>9.0</ele><time>2026-04-19T14:07:43.511Z</time></trkpt><trkpt lat="38.5907467" lon="16.5622617"><ele>9.0</ele><time>2026-04-19T14:07:44.512Z</time></trkpt><trkpt lat="38.590505" lon="16.5623217"><ele>10.0</ele><time>2026-04-19T14:07:45.512Z</time></trkpt><trkpt lat="38.5902617" lon="16.5623867"><ele>11.0</ele><time>2026-04-19T14:07:46.511Z</time></trkpt><trkpt lat="38.5900217" lon="16.5624467"><ele>11.0</ele><time>2026-04-19T14:07:47.512Z</time></trkpt><trkpt lat="38.589785" lon="16.5625083"><ele>11.0</ele><time>2026-04-19T14:07:48.511Z</time></trkpt><trkpt lat="38.5895533" lon="16.562575"><ele>11.0</ele><time>2026-04-19T14:07:49.512Z</time></trkpt><trkpt lat="38.589325" lon="16.5626567"><ele>11.0</ele><time>2026-04-19T14:07:50.511Z</time></trkpt><trkpt lat="38.5890967" lon="16.5627483"><ele>11.0</ele><time>2026-04-19T14:07:51.511Z</time></trkpt><trkpt lat="38.58887" lon="16.5628483"><ele>11.0</ele><time>2026-04-19T14:07:52.511Z</time></trkpt><trkpt lat="38.5886433" lon="16.5629483"><ele>10.0</ele><time>2026-04-19T14:07:53.511Z</time></trkpt><trkpt lat="38.58841" lon="16.563045"><ele>9.0</ele><time>2026-04-19T14:07:54.511Z</time></trkpt><trkpt lat="38.5881833" lon="16.5631283"><ele>9.0</ele><time>2026-04-19T14:07:55.511Z</time></trkpt><trkpt lat="38.58795" lon="16.563205"><ele>9.0</ele><time>2026-04-19T14:07:56.512Z</time></trkpt><trkpt lat="38.5877183" lon="16.563265"><ele>10.0</ele><time>2026-04-19T14:07:57.511Z</time></trkpt><trkpt lat="38.5874867" lon="16.5633233"><ele>11.0</ele><time>2026-04-19T14:07:58.511Z</time></trkpt><trkpt lat="38.5872583" lon="16.5633833"><ele>11.0</ele><time>2026-04-19T14:07:59.511Z</time></trkpt><trkpt lat="38.5870283" lon="16.5634433"><ele>11.0</ele><time>2026-04-19T14:08:00.511Z</time></trkpt><trkpt lat="38.586805" lon="16.5635033"><ele>12.5</ele><time>2026-04-19T14:08:01.511Z</time></trkpt><trkpt lat="38.586575" lon="16.5635583"><ele>14.0</ele><time>2026-04-19T14:08:02.511Z</time></trkpt><trkpt lat="38.5863483" lon="16.56361"><ele>14.0</ele><time>2026-04-19T14:08:03.511Z</time></trkpt><trkpt lat="38.586115" lon="16.5636683"><ele>14.0</ele><time>2026-04-19T14:08:04.511Z</time></trkpt><trkpt lat="38.5858883" lon="16.5637283"><ele>12.666666666666668</ele><time>2026-04-19T14:08:05.511Z</time></trkpt><trkpt lat="38.58567" lon="16.5637833"><ele>11.333333333333334</ele><time>2026-04-19T14:08:06.511Z</time></trkpt><trkpt lat="38.585465" lon="16.5638383"><ele>10.0</ele><time>2026-04-19T14:08:07.512Z</time></trkpt><trkpt lat="38.5852667" lon="16.5638817"><ele>10.0</ele><time>2026-04-19T14:08:08.511Z</time></trkpt><trkpt lat="38.585085" lon="16.5639"><ele>10.0</ele><time>2026-04-19T14:08:09.511Z</time></trkpt><trkpt lat="38.58492" lon="16.5639033"><ele>10.0</ele><time>2026-04-19T14:08:10.511Z</time></trkpt><trkpt lat="38.5847717" lon="16.5638867"><ele>10.0</ele><time>2026-04-19T14:08:11.512Z</time></trkpt><trkpt lat="38.584635" lon="16.5638767"><ele>10.0</ele><time>2026-04-19T14:08:12.511Z</time></trkpt><trkpt lat="38.5845217" lon="16.56387"><ele>10.0</ele><time>2026-04-19T14:08:13.511Z</time></trkpt><trkpt lat="38.584425" lon="16.5638717"><ele>10.0</ele><time>2026-04-19T14:08:14.511Z</time></trkpt><trkpt lat="38.5843417" lon="16.56388"><ele>10.0</ele><time>2026-04-19T14:08:15.511Z</time></trkpt><trkpt lat="38.5842667" lon="16.5638883"><ele>10.166666666666668</ele><time>2026-04-19T14:08:16.511Z</time></trkpt><trkpt lat="38.584195" lon="16.5639033"><ele>10.333333333333334</ele><time>2026-04-19T14:08:17.511Z</time></trkpt><trkpt lat="38.5841233" lon="16.56391"><ele>10.5</ele><time>2026-04-19T14:08:18.511Z</time></trkpt><trkpt lat="38.58406" lon="16.563915"><ele>10.666666666666666</ele><time>2026-04-19T14:08:19.511Z</time></trkpt><trkpt lat="38.58397" lon="16.563935"><ele>10.833333333333332</ele><time>2026-04-19T14:08:21.511Z</time></trkpt><trkpt lat="38.58388" lon="16.5639083"><ele>11.0</ele><time>2026-04-19T14:08:24.512Z</time></trkpt><trkpt lat="38.58383" lon="16.5638433"><ele>11.0</ele><time>2026-04-19T14:08:26.511Z</time></trkpt><trkpt lat="38.5837933" lon="16.5637033"><ele>11.0</ele><time>2026-04-19T14:08:28.511Z</time></trkpt><trkpt lat="38.5837733" lon="16.5636017"><ele>11.0</ele><time>2026-04-19T14:08:29.512Z</time></trkpt><trkpt lat="38.5837483" lon="16.5635067"><ele>11.0</ele><time>2026-04-19T14:08:30.511Z</time></trkpt><trkpt lat="38.5837183" lon="16.563415"><ele>11.0</ele><time>2026-04-19T14:08:31.511Z</time></trkpt><trkpt lat="38.5836883" lon="16.5633333"><ele>11.0</ele><time>2026-04-19T14:08:32.512Z</time></trkpt><trkpt lat="38.58361" lon="16.5632367"><ele>11.5</ele><time>2026-04-19T14:08:34.511Z</time></trkpt><trkpt lat="38.5834867" lon="16.563255"><ele>12.0</ele><time>2026-04-19T14:08:36.512Z</time></trkpt><trkpt lat="38.5834133" lon="16.5632917"><ele>12.5</ele><time>2026-04-19T14:08:37.511Z</time></trkpt><trkpt lat="38.58334" lon="16.5633233"><ele>13.0</ele><time>2026-04-19T14:08:38.511Z</time></trkpt><trkpt lat="38.58327" lon="16.5633533"><ele>13.500000000000002</ele><time>2026-04-19T14:08:39.511Z</time></trkpt><trkpt lat="38.5831983" lon="16.5633733"><ele>14.0</ele><time>2026-04-19T14:08:40.511Z</time></trkpt><trkpt lat="38.5831317" lon="16.5633867"><ele>14.000000000000002</ele><time>2026-04-19T14:08:41.511Z</time></trkpt><trkpt lat="38.5830667" lon="16.5633983"><ele>14.0</ele><time>2026-04-19T14:08:42.511Z</time></trkpt><trkpt lat="38.582945" lon="16.5634267"><ele>14.0</ele><time>2026-04-19T14:08:44.512Z</time></trkpt><trkpt lat="38.58288" lon="16.5634383"><ele>14.0</ele><time>2026-04-19T14:08:45.511Z</time></trkpt><trkpt lat="38.5828117" lon="16.5634583"><ele>14.000000000000002</ele><time>2026-04-19T14:08:46.512Z</time></trkpt><trkpt lat="38.5827433" lon="16.5634767"><ele>14.0</ele><time>2026-04-19T14:08:47.511Z</time></trkpt><trkpt lat="38.58267" lon="16.563495"><ele>13.666666666666668</ele><time>2026-04-19T14:08:48.511Z</time></trkpt><trkpt lat="38.582595" lon="16.5635083"><ele>13.333333333333334</ele><time>2026-04-19T14:08:49.511Z</time></trkpt><trkpt lat="38.5825133" lon="16.5635283"><ele>13.0</ele><time>2026-04-19T14:08:50.511Z</time></trkpt><trkpt lat="38.58243" lon="16.5635483"><ele>12.666666666666668</ele><time>2026-04-19T14:08:51.511Z</time></trkpt><trkpt lat="38.5823383" lon="16.5635683"><ele>12.333333333333334</ele><time>2026-04-19T14:08:52.512Z</time></trkpt><trkpt lat="38.58225" lon="16.56359"><ele>12.0</ele><time>2026-04-19T14:08:53.511Z</time></trkpt><trkpt lat="38.58216" lon="16.563615"><ele>12.0</ele><time>2026-04-19T14:08:54.511Z</time></trkpt><trkpt lat="38.5820733" lon="16.5636467"><ele>12.0</ele><time>2026-04-19T14:08:55.51Z</time></trkpt><trkpt lat="38.5819817" lon="16.5636717"><ele>12.0</ele><time>2026-04-19T14:08:56.511Z</time></trkpt><trkpt lat="38.5819" lon="16.5636867"><ele>12.0</ele><time>2026-04-19T14:08:57.511Z</time></trkpt><trkpt lat="38.5818233" lon="16.5637083"><ele>12.0</ele><time>2026-04-19T14:08:58.511Z</time></trkpt><trkpt lat="38.5817517" lon="16.5637233"><ele>12.0</ele><time>2026-04-19T14:08:59.512Z</time></trkpt><trkpt lat="38.5816867" lon="16.563735"><ele>11.714285714285714</ele><time>2026-04-19T14:09:00.511Z</time></trkpt><trkpt lat="38.5816183" lon="16.5637467"><ele>11.428571428571429</ele><time>2026-04-19T14:09:01.511Z</time></trkpt><trkpt lat="38.5815467" lon="16.56376"><ele>11.142857142857142</ele><time>2026-04-19T14:09:02.512Z</time></trkpt><trkpt lat="38.5814733" lon="16.56378"><ele>10.857142857142858</ele><time>2026-04-19T14:09:03.511Z</time></trkpt><trkpt lat="38.5814017" lon="16.5637967"><ele>10.571428571428571</ele><time>2026-04-19T14:09:04.511Z</time></trkpt><trkpt lat="38.5813283" lon="16.5638167"><ele>10.285714285714285</ele><time>2026-04-19T14:09:05.512Z</time></trkpt><trkpt lat="38.5812583" lon="16.563835"><ele>10.0</ele><time>2026-04-19T14:09:06.512Z</time></trkpt><trkpt lat="38.581185" lon="16.563855"><ele>10.166666666666668</ele><time>2026-04-19T14:09:07.511Z</time></trkpt><trkpt lat="38.5811083" lon="16.5638683"><ele>10.333333333333334</ele><time>2026-04-19T14:09:08.511Z</time></trkpt><trkpt lat="38.5810317" lon="16.563885"><ele>10.5</ele><time>2026-04-19T14:09:09.511Z</time></trkpt><trkpt lat="38.580965" lon="16.5638983"><ele>10.666666666666666</ele><time>2026-04-19T14:09:10.511Z</time></trkpt><trkpt lat="38.58088" lon="16.5639183"><ele>10.833333333333332</ele><time>2026-04-19T14:09:12.511Z</time></trkpt><trkpt lat="38.5808117" lon="16.56394"><ele>11.0</ele><time>2026-04-19T14:09:15.511Z</time></trkpt><trkpt lat="38.5807383" lon="16.5639567"><ele>11.0</ele><time>2026-04-19T14:09:17.511Z</time></trkpt><trkpt lat="38.5806367" lon="16.5639617"><ele>11.0</ele><time>2026-04-19T14:09:19.511Z</time></trkpt><trkpt lat="38.5805717" lon="16.56397"><ele>11.0</ele><time>2026-04-19T14:09:20.511Z</time></trkpt><trkpt lat="38.5805" lon="16.563975"><ele>11.0</ele><time>2026-04-19T14:09:21.511Z</time></trkpt><trkpt lat="38.5804283" lon="16.5639883"><ele>11.0</ele><time>2026-04-19T14:09:22.511Z</time></trkpt><trkpt lat="38.5803483" lon="16.56401"><ele>11.0</ele><time>2026-04-19T14:09:23.512Z</time></trkpt><trkpt lat="38.5802667" lon="16.56403"><ele>11.200000000000001</ele><time>2026-04-19T14:09:24.511Z</time></trkpt><trkpt lat="38.580185" lon="16.5640517"><ele>11.4</ele><time>2026-04-19T14:09:25.511Z</time></trkpt><trkpt lat="38.5800983" lon="16.56408"><ele>11.6</ele><time>2026-04-19T14:09:26.512Z</time></trkpt><trkpt lat="38.58001" lon="16.564095"><ele>11.8</ele><time>2026-04-19T14:09:27.511Z</time></trkpt><trkpt lat="38.5799117" lon="16.56412"><ele>12.0</ele><time>2026-04-19T14:09:28.512Z</time></trkpt><trkpt lat="38.5798217" lon="16.56415"><ele>12.0</ele><time>2026-04-19T14:09:29.511Z</time></trkpt><trkpt lat="38.5797317" lon="16.56417"><ele>12.0</ele><time>2026-04-19T14:09:30.512Z</time></trkpt><trkpt lat="38.579635" lon="16.5641883"><ele>12.0</ele><time>2026-04-19T14:09:31.511Z</time></trkpt><trkpt lat="38.5795383" lon="16.5642067"><ele>12.0</ele><time>2026-04-19T14:09:32.511Z</time></trkpt><trkpt lat="38.5794333" lon="16.5642283"><ele>12.0</ele><time>2026-04-19T14:09:33.512Z</time></trkpt><trkpt lat="38.5793283" lon="16.5642467"><ele>12.2</ele><time>2026-04-19T14:09:34.512Z</time></trkpt><trkpt lat="38.5792233" lon="16.5642667"><ele>12.399999999999999</ele><time>2026-04-19T14:09:35.511Z</time></trkpt><trkpt lat="38.5791267" lon="16.5642933"><ele>12.600000000000001</ele><time>2026-04-19T14:09:36.511Z</time></trkpt><trkpt lat="38.579045" lon="16.5643233"><ele>12.8</ele><time>2026-04-19T14:09:37.512Z</time></trkpt><trkpt lat="38.5789633" lon="16.5643483"><ele>13.0</ele><time>2026-04-19T14:09:38.511Z</time></trkpt><trkpt lat="38.5788867" lon="16.5643933"><ele>12.999999999999998</ele><time>2026-04-19T14:09:39.511Z</time></trkpt><trkpt lat="38.5788183" lon="16.5644483"><ele>13.0</ele><time>2026-04-19T14:09:40.511Z</time></trkpt><trkpt lat="38.5787567" lon="16.5645217"><ele>13.0</ele><time>2026-04-19T14:09:41.511Z</time></trkpt><trkpt lat="38.5787033" lon="16.5646067"><ele>13.0</ele><time>2026-04-19T14:09:42.511Z</time></trkpt><trkpt lat="38.5786617" lon="16.5647"><ele>12.999999999999998</ele><time>2026-04-19T14:09:43.512Z</time></trkpt><trkpt lat="38.57863" lon="16.5647983"><ele>13.0</ele><time>2026-04-19T14:09:44.511Z</time></trkpt><trkpt lat="38.5786083" lon="16.5648933"><ele>12.999999999999998</ele><time>2026-04-19T14:09:45.512Z</time></trkpt><trkpt lat="38.5785967" lon="16.5649783"><ele>13.0</ele><time>2026-04-19T14:09:46.511Z</time></trkpt><trkpt lat="38.5785833" lon="16.5650633"><ele>13.0</ele><time>2026-04-19T14:09:47.512Z</time></trkpt><trkpt lat="38.57858" lon="16.5651967"><ele>13.0</ele><time>2026-04-19T14:09:49.511Z</time></trkpt><trkpt lat="38.57856" lon="16.565305"><ele>12.999999999999998</ele><time>2026-04-19T14:09:52.511Z</time></trkpt><trkpt lat="38.5785" lon="16.56534"><ele>13.0</ele><time>2026-04-19T14:09:54.512Z</time></trkpt><trkpt lat="38.5783517" lon="16.5653433"><ele>13.0</ele><time>2026-04-19T14:09:56.511Z</time></trkpt><trkpt lat="38.578255" lon="16.56535"><ele>13.0</ele><time>2026-04-19T14:09:57.511Z</time></trkpt><trkpt lat="38.5781367" lon="16.56536"><ele>13.0</ele><time>2026-04-19T14:09:58.511Z</time></trkpt><trkpt lat="38.5780017" lon="16.56536"><ele>13.0</ele><time>2026-04-19T14:09:59.512Z</time></trkpt><trkpt lat="38.5778583" lon="16.565405"><ele>12.666666666666666</ele><time>2026-04-19T14:10:00.512Z</time></trkpt><trkpt lat="38.577705" lon="16.565435"><ele>12.333333333333332</ele><time>2026-04-19T14:10:01.511Z</time></trkpt><trkpt lat="38.5775267" lon="16.5654883"><ele>12.0</ele><time>2026-04-19T14:10:02.511Z</time></trkpt><trkpt lat="38.5773333" lon="16.56554"><ele>12.0</ele><time>2026-04-19T14:10:03.511Z</time></trkpt><trkpt lat="38.5771367" lon="16.5656"><ele>12.0</ele><time>2026-04-19T14:10:04.512Z</time></trkpt><trkpt lat="38.5769317" lon="16.5656517"><ele>12.0</ele><time>2026-04-19T14:10:05.511Z</time></trkpt><trkpt lat="38.5767083" lon="16.56573"><ele>12.333333333333332</ele><time>2026-04-19T14:10:06.511Z</time></trkpt><trkpt lat="38.5764883" lon="16.56582"><ele>12.666666666666666</ele><time>2026-04-19T14:10:07.511Z</time></trkpt><trkpt lat="38.57628" lon="16.5659"><ele>13.0</ele><time>2026-04-19T14:10:08.511Z</time></trkpt><trkpt lat="38.5760983" lon="16.5659833"><ele>13.0</ele><time>2026-04-19T14:10:09.511Z</time></trkpt><trkpt lat="38.575935" lon="16.5660333"><ele>13.0</ele><time>2026-04-19T14:10:10.511Z</time></trkpt><trkpt lat="38.5757733" lon="16.5660833"><ele>13.0</ele><time>2026-04-19T14:10:11.511Z</time></trkpt><trkpt lat="38.575655" lon="16.5660917"><ele>13.0</ele><time>2026-04-19T14:10:12.511Z</time></trkpt><trkpt lat="38.57552" lon="16.566125"><ele>13.0</ele><time>2026-04-19T14:10:13.511Z</time></trkpt><trkpt lat="38.5753917" lon="16.566155"><ele>13.0</ele><time>2026-04-19T14:10:14.511Z</time></trkpt><trkpt lat="38.5752617" lon="16.56622"><ele>13.0</ele><time>2026-04-19T14:10:15.511Z</time></trkpt><trkpt lat="38.575105" lon="16.5662833"><ele>12.0</ele><time>2026-04-19T14:10:16.512Z</time></trkpt><trkpt lat="38.57492" lon="16.566335"><ele>11.0</ele><time>2026-04-19T14:10:17.512Z</time></trkpt><trkpt lat="38.57472" lon="16.5663967"><ele>10.0</ele><time>2026-04-19T14:10:18.511Z</time></trkpt><trkpt lat="38.57451" lon="16.566465"><ele>10.0</ele><time>2026-04-19T14:10:19.511Z</time></trkpt><trkpt lat="38.5743" lon="16.566515"><ele>10.0</ele><time>2026-04-19T14:10:20.511Z</time></trkpt><trkpt lat="38.5740783" lon="16.56657"><ele>10.0</ele><time>2026-04-19T14:10:21.511Z</time></trkpt><trkpt lat="38.5738467" lon="16.5666183"><ele>10.5</ele><time>2026-04-19T14:10:22.511Z</time></trkpt><trkpt lat="38.57362" lon="16.5666717"><ele>11.0</ele><time>2026-04-19T14:10:23.511Z</time></trkpt><trkpt lat="38.573385" lon="16.5667217"><ele>11.0</ele><time>2026-04-19T14:10:24.511Z</time></trkpt><trkpt lat="38.5731617" lon="16.566755"><ele>11.0</ele><time>2026-04-19T14:10:25.512Z</time></trkpt><trkpt lat="38.5729283" lon="16.5667967"><ele>12.666666666666666</ele><time>2026-04-19T14:10:26.512Z</time></trkpt><trkpt lat="38.5727067" lon="16.5668283"><ele>14.333333333333332</ele><time>2026-04-19T14:10:27.511Z</time></trkpt><trkpt lat="38.5724917" lon="16.5668633"><ele>16.0</ele><time>2026-04-19T14:10:28.511Z</time></trkpt><trkpt lat="38.5722817" lon="16.5668933"><ele>16.0</ele><time>2026-04-19T14:10:29.512Z</time></trkpt><trkpt lat="38.57208" lon="16.5669417"><ele>16.0</ele><time>2026-04-19T14:10:30.512Z</time></trkpt><trkpt lat="38.571885" lon="16.5669467"><ele>16.0</ele><time>2026-04-19T14:10:31.511Z</time></trkpt><trkpt lat="38.5717033" lon="16.566965"><ele>16.0</ele><time>2026-04-19T14:10:32.512Z</time></trkpt><trkpt lat="38.5715233" lon="16.5669933"><ele>16.0</ele><time>2026-04-19T14:10:33.511Z</time></trkpt><trkpt lat="38.57135" lon="16.56704"><ele>16.0</ele><time>2026-04-19T14:10:34.511Z</time></trkpt><trkpt lat="38.571175" lon="16.5671117"><ele>16.0</ele><time>2026-04-19T14:10:35.511Z</time></trkpt><trkpt lat="38.5709867" lon="16.56718"><ele>16.0</ele><time>2026-04-19T14:10:36.511Z</time></trkpt><trkpt lat="38.5708017" lon="16.5672617"><ele>16.0</ele><time>2026-04-19T14:10:37.511Z</time></trkpt><trkpt lat="38.570615" lon="16.5674"><ele>16.0</ele><time>2026-04-19T14:10:38.511Z</time></trkpt><trkpt lat="38.57042" lon="16.5675333"><ele>16.0</ele><time>2026-04-19T14:10:39.511Z</time></trkpt><trkpt lat="38.5702333" lon="16.567645"><ele>16.0</ele><time>2026-04-19T14:10:40.511Z</time></trkpt><trkpt lat="38.57004" lon="16.567775"><ele>13.5</ele><time>2026-04-19T14:10:41.512Z</time></trkpt><trkpt lat="38.5698333" lon="16.567895"><ele>11.0</ele><time>2026-04-19T14:10:42.511Z</time></trkpt><trkpt lat="38.5696117" lon="16.568"><ele>11.5</ele><time>2026-04-19T14:10:43.511Z</time></trkpt><trkpt lat="38.5693933" lon="16.5680833"><ele>12.0</ele><time>2026-04-19T14:10:44.511Z</time></trkpt><trkpt lat="38.5691767" lon="16.5681567"><ele>12.0</ele><time>2026-04-19T14:10:45.511Z</time></trkpt><trkpt lat="38.5689633" lon="16.56822"><ele>12.0</ele><time>2026-04-19T14:10:46.511Z</time></trkpt><trkpt lat="38.5687433" lon="16.5682933"><ele>12.0</ele><time>2026-04-19T14:10:47.512Z</time></trkpt><trkpt lat="38.5685217" lon="16.56837"><ele>11.0</ele><time>2026-04-19T14:10:48.511Z</time></trkpt><trkpt lat="38.5683" lon="16.5684467"><ele>10.0</ele><time>2026-04-19T14:10:49.512Z</time></trkpt><trkpt lat="38.5680717" lon="16.56852"><ele>10.5</ele><time>2026-04-19T14:10:50.512Z</time></trkpt><trkpt lat="38.5678367" lon="16.5685883"><ele>11.0</ele><time>2026-04-19T14:10:51.512Z</time></trkpt><trkpt lat="38.5676017" lon="16.56866"><ele>10.5</ele><time>2026-04-19T14:10:52.511Z</time></trkpt><trkpt lat="38.5673683" lon="16.5687183"><ele>10.0</ele><time>2026-04-19T14:10:53.511Z</time></trkpt><trkpt lat="38.5671317" lon="16.5687883"><ele>10.0</ele><time>2026-04-19T14:10:54.511Z</time></trkpt><trkpt lat="38.5668917" lon="16.568865"><ele>10.0</ele><time>2026-04-19T14:10:55.511Z</time></trkpt><trkpt lat="38.5666533" lon="16.5689433"><ele>10.0</ele><time>2026-04-19T14:10:56.511Z</time></trkpt><trkpt lat="38.566415" lon="16.56902"><ele>10.0</ele><time>2026-04-19T14:10:57.511Z</time></trkpt><trkpt lat="38.5661717" lon="16.5690867"><ele>10.5</ele><time>2026-04-19T14:10:58.512Z</time></trkpt><trkpt lat="38.5659283" lon="16.5691533"><ele>11.0</ele><time>2026-04-19T14:10:59.511Z</time></trkpt><trkpt lat="38.565675" lon="16.5692183"><ele>11.0</ele><time>2026-04-19T14:11:00.512Z</time></trkpt><trkpt lat="38.5654233" lon="16.5692733"><ele>11.0</ele><time>2026-04-19T14:11:01.511Z</time></trkpt><trkpt lat="38.5651633" lon="16.569315"><ele>11.5</ele><time>2026-04-19T14:11:02.511Z</time></trkpt><trkpt lat="38.5649017" lon="16.569325"><ele>12.0</ele><time>2026-04-19T14:11:03.511Z</time></trkpt><trkpt lat="38.56464" lon="16.5693167"><ele>11.5</ele><time>2026-04-19T14:11:04.511Z</time></trkpt><trkpt lat="38.5643783" lon="16.5693217"><ele>11.0</ele><time>2026-04-19T14:11:05.511Z</time></trkpt><trkpt lat="38.5641183" lon="16.5693233"><ele>11.0</ele><time>2026-04-19T14:11:06.511Z</time></trkpt><trkpt lat="38.5638533" lon="16.56933"><ele>11.0</ele><time>2026-04-19T14:11:07.512Z</time></trkpt><trkpt lat="38.5635917" lon="16.569355"><ele>10.5</ele><time>2026-04-19T14:11:08.511Z</time></trkpt><trkpt lat="38.5633267" lon="16.5694033"><ele>10.0</ele><time>2026-04-19T14:11:09.511Z</time></trkpt><trkpt lat="38.5630617" lon="16.5694683"><ele>9.0</ele><time>2026-04-19T14:11:10.512Z</time></trkpt><trkpt lat="38.562805" lon="16.5695383"><ele>8.0</ele><time>2026-04-19T14:11:11.511Z</time></trkpt><trkpt lat="38.5625433" lon="16.5695967"><ele>8.0</ele><time>2026-04-19T14:11:12.512Z</time></trkpt><trkpt lat="38.562285" lon="16.5696517"><ele>8.0</ele><time>2026-04-19T14:11:13.512Z</time></trkpt><trkpt lat="38.5620283" lon="16.569705"><ele>8.5</ele><time>2026-04-19T14:11:14.511Z</time></trkpt><trkpt lat="38.56177" lon="16.56976"><ele>9.0</ele><time>2026-04-19T14:11:15.512Z</time></trkpt><trkpt lat="38.56152" lon="16.5698067"><ele>9.0</ele><time>2026-04-19T14:11:16.511Z</time></trkpt><trkpt lat="38.5612683" lon="16.5698583"><ele>9.0</ele><time>2026-04-19T14:11:17.512Z</time></trkpt><trkpt lat="38.561025" lon="16.5699183"><ele>9.0</ele><time>2026-04-19T14:11:18.512Z</time></trkpt><trkpt lat="38.5607817" lon="16.5699717"><ele>9.0</ele><time>2026-04-19T14:11:19.511Z</time></trkpt><trkpt lat="38.5605467" lon="16.5700167"><ele>10.5</ele><time>2026-04-19T14:11:20.511Z</time></trkpt><trkpt lat="38.5603167" lon="16.5700667"><ele>12.0</ele><time>2026-04-19T14:11:21.511Z</time></trkpt><trkpt lat="38.5600783" lon="16.5701133"><ele>12.0</ele><time>2026-04-19T14:11:22.512Z</time></trkpt><trkpt lat="38.5598367" lon="16.5701517"><ele>12.0</ele><time>2026-04-19T14:11:23.511Z</time></trkpt><trkpt lat="38.559605" lon="16.5702083"><ele>11.0</ele><time>2026-04-19T14:11:24.511Z</time></trkpt><trkpt lat="38.5593717" lon="16.57026"><ele>10.0</ele><time>2026-04-19T14:11:25.512Z</time></trkpt><trkpt lat="38.5591367" lon="16.5703083"><ele>10.0</ele><time>2026-04-19T14:11:26.512Z</time></trkpt><trkpt lat="38.5589" lon="16.5703567"><ele>10.0</ele><time>2026-04-19T14:11:27.511Z</time></trkpt><trkpt lat="38.55866" lon="16.5704083"><ele>9.5</ele><time>2026-04-19T14:11:28.511Z</time></trkpt><trkpt lat="38.5584233" lon="16.5704583"><ele>9.0</ele><time>2026-04-19T14:11:29.512Z</time></trkpt><trkpt lat="38.5581867" lon="16.570505"><ele>9.0</ele><time>2026-04-19T14:11:30.511Z</time></trkpt><trkpt lat="38.5579483" lon="16.5705567"><ele>9.0</ele><time>2026-04-19T14:11:31.511Z</time></trkpt><trkpt lat="38.5577117" lon="16.5706067"><ele>8.5</ele><time>2026-04-19T14:11:32.511Z</time></trkpt><trkpt lat="38.5574867" lon="16.5706583"><ele>8.0</ele><time>2026-04-19T14:11:33.511Z</time></trkpt><trkpt lat="38.557255" lon="16.57071"><ele>7.5</ele><time>2026-04-19T14:11:34.511Z</time></trkpt><trkpt lat="38.5570167" lon="16.5707517"><ele>7.0</ele><time>2026-04-19T14:11:35.511Z</time></trkpt><trkpt lat="38.556775" lon="16.5707733"><ele>7.0</ele><time>2026-04-19T14:11:36.512Z</time></trkpt><trkpt lat="38.556535" lon="16.57076"><ele>7.0</ele><time>2026-04-19T14:11:37.511Z</time></trkpt><trkpt lat="38.5562983" lon="16.5707333"><ele>7.5</ele><time>2026-04-19T14:11:38.512Z</time></trkpt><trkpt lat="38.55607" lon="16.57071"><ele>8.0</ele><time>2026-04-19T14:11:39.511Z</time></trkpt><trkpt lat="38.5558467" lon="16.570695"><ele>8.0</ele><time>2026-04-19T14:11:40.511Z</time></trkpt><trkpt lat="38.55564" lon="16.57068"><ele>8.0</ele><time>2026-04-19T14:11:41.512Z</time></trkpt><trkpt lat="38.5554317" lon="16.5706567"><ele>8.0</ele><time>2026-04-19T14:11:42.511Z</time></trkpt><trkpt lat="38.55522" lon="16.57064"><ele>8.0</ele><time>2026-04-19T14:11:43.511Z</time></trkpt><trkpt lat="38.5550017" lon="16.5706233"><ele>8.0</ele><time>2026-04-19T14:11:44.511Z</time></trkpt><trkpt lat="38.5547833" lon="16.5706067"><ele>8.0</ele><time>2026-04-19T14:11:45.511Z</time></trkpt><trkpt lat="38.5545667" lon="16.5705867"><ele>7.666666666666666</ele><time>2026-04-19T14:11:46.511Z</time></trkpt><trkpt lat="38.5543517" lon="16.5705683"><ele>7.333333333333334</ele><time>2026-04-19T14:11:47.512Z</time></trkpt><trkpt lat="38.5541433" lon="16.5705517"><ele>7.0</ele><time>2026-04-19T14:11:48.511Z</time></trkpt><trkpt lat="38.5539333" lon="16.5705283"><ele>7.0</ele><time>2026-04-19T14:11:49.512Z</time></trkpt><trkpt lat="38.5537283" lon="16.57051"><ele>7.0</ele><time>2026-04-19T14:11:50.511Z</time></trkpt><trkpt lat="38.55352" lon="16.5704933"><ele>7.0</ele><time>2026-04-19T14:11:51.512Z</time></trkpt><trkpt lat="38.55331" lon="16.57048"><ele>7.0</ele><time>2026-04-19T14:11:52.511Z</time></trkpt><trkpt lat="38.553105" lon="16.5704717"><ele>7.0</ele><time>2026-04-19T14:11:53.511Z</time></trkpt><trkpt lat="38.5528933" lon="16.57046"><ele>7.0</ele><time>2026-04-19T14:11:54.511Z</time></trkpt><trkpt lat="38.5526717" lon="16.570445"><ele>6.5</ele><time>2026-04-19T14:11:55.511Z</time></trkpt><trkpt lat="38.5524383" lon="16.5704367"><ele>6.0</ele><time>2026-04-19T14:11:56.511Z</time></trkpt><trkpt lat="38.552195" lon="16.5704383"><ele>6.0</ele><time>2026-04-19T14:11:57.511Z</time></trkpt><trkpt lat="38.5519467" lon="16.5704183"><ele>6.0</ele><time>2026-04-19T14:11:58.511Z</time></trkpt><trkpt lat="38.5516817" lon="16.5703917"><ele>6.0</ele><time>2026-04-19T14:11:59.511Z</time></trkpt><trkpt lat="38.5514083" lon="16.570365"><ele>6.0</ele><time>2026-04-19T14:12:00.511Z</time></trkpt><trkpt lat="38.5511267" lon="16.5703417"><ele>7.5</ele><time>2026-04-19T14:12:01.512Z</time></trkpt><trkpt lat="38.5508433" lon="16.57032"><ele>9.0</ele><time>2026-04-19T14:12:02.511Z</time></trkpt><trkpt lat="38.5505567" lon="16.5702933"><ele>8.0</ele><time>2026-04-19T14:12:03.511Z</time></trkpt><trkpt lat="38.55027" lon="16.57027"><ele>7.0</ele><time>2026-04-19T14:12:04.512Z</time></trkpt><trkpt lat="38.5499833" lon="16.570245"><ele>7.0</ele><time>2026-04-19T14:12:05.511Z</time></trkpt><trkpt lat="38.549695" lon="16.5702233"><ele>7.0</ele><time>2026-04-19T14:12:06.511Z</time></trkpt><trkpt lat="38.5494067" lon="16.5702083"><ele>7.0</ele><time>2026-04-19T14:12:07.511Z</time></trkpt><trkpt lat="38.5491233" lon="16.5701833"><ele>7.0</ele><time>2026-04-19T14:12:08.512Z</time></trkpt><trkpt lat="38.548835" lon="16.57016"><ele>7.5</ele><time>2026-04-19T14:12:09.511Z</time></trkpt><trkpt lat="38.5485417" lon="16.5701417"><ele>8.0</ele><time>2026-04-19T14:12:10.511Z</time></trkpt><trkpt lat="38.5482533" lon="16.5701183"><ele>8.0</ele><time>2026-04-19T14:12:11.512Z</time></trkpt><trkpt lat="38.5479617" lon="16.570095"><ele>8.0</ele><time>2026-04-19T14:12:12.511Z</time></trkpt><trkpt lat="38.54767" lon="16.5700717"><ele>7.5</ele><time>2026-04-19T14:12:13.511Z</time></trkpt><trkpt lat="38.5473817" lon="16.5700517"><ele>7.0</ele><time>2026-04-19T14:12:14.511Z</time></trkpt><trkpt lat="38.54709" lon="16.5700317"><ele>6.5</ele><time>2026-04-19T14:12:15.511Z</time></trkpt><trkpt lat="38.5467967" lon="16.5700083"><ele>6.0</ele><time>2026-04-19T14:12:16.512Z</time></trkpt><trkpt lat="38.546505" lon="16.569985"><ele>6.0</ele><time>2026-04-19T14:12:17.511Z</time></trkpt><trkpt lat="38.5462117" lon="16.5699667"><ele>6.0</ele><time>2026-04-19T14:12:18.511Z</time></trkpt><trkpt lat="38.5459183" lon="16.5699467"><ele>6.0</ele><time>2026-04-19T14:12:19.511Z</time></trkpt><trkpt lat="38.5456283" lon="16.569925"><ele>6.0</ele><time>2026-04-19T14:12:20.511Z</time></trkpt><trkpt lat="38.54534" lon="16.5699017"><ele>6.0</ele><time>2026-04-19T14:12:21.511Z</time></trkpt><trkpt lat="38.5450517" lon="16.56987"><ele>6.0</ele><time>2026-04-19T14:12:22.511Z</time></trkpt><trkpt lat="38.5447617" lon="16.5698533"><ele>6.0</ele><time>2026-04-19T14:12:23.511Z</time></trkpt><trkpt lat="38.5444767" lon="16.5698333"><ele>6.0</ele><time>2026-04-19T14:12:24.511Z</time></trkpt><trkpt lat="38.54419" lon="16.56981"><ele>6.0</ele><time>2026-04-19T14:12:25.512Z</time></trkpt><trkpt lat="38.5439083" lon="16.569795"><ele>6.0</ele><time>2026-04-19T14:12:26.511Z</time></trkpt><trkpt lat="38.5436233" lon="16.56978"><ele>6.0</ele><time>2026-04-19T14:12:27.511Z</time></trkpt><trkpt lat="38.5433367" lon="16.5697583"><ele>6.0</ele><time>2026-04-19T14:12:28.511Z</time></trkpt><trkpt lat="38.5430533" lon="16.5697317"><ele>5.0</ele><time>2026-04-19T14:12:29.511Z</time></trkpt><trkpt lat="38.5427667" lon="16.56971"><ele>4.0</ele><time>2026-04-19T14:12:30.511Z</time></trkpt><trkpt lat="38.5424833" lon="16.569685"><ele>4.0</ele><time>2026-04-19T14:12:31.512Z</time></trkpt><trkpt lat="38.542195" lon="16.5696583"><ele>4.0</ele><time>2026-04-19T14:12:32.512Z</time></trkpt><trkpt lat="38.5419183" lon="16.5696367"><ele>4.5</ele><time>2026-04-19T14:12:33.512Z</time></trkpt><trkpt lat="38.5416483" lon="16.5696233"><ele>5.0</ele><time>2026-04-19T14:12:34.511Z</time></trkpt><trkpt lat="38.541395" lon="16.5696083"><ele>5.5</ele><time>2026-04-19T14:12:35.511Z</time></trkpt><trkpt lat="38.5411517" lon="16.5696"><ele>6.0</ele><time>2026-04-19T14:12:36.512Z</time></trkpt><trkpt lat="38.540915" lon="16.5695883"><ele>6.0</ele><time>2026-04-19T14:12:37.511Z</time></trkpt><trkpt lat="38.5406733" lon="16.5695683"><ele>6.0</ele><time>2026-04-19T14:12:38.511Z</time></trkpt><trkpt lat="38.5404267" lon="16.5695383"><ele>7.0</ele><time>2026-04-19T14:12:39.511Z</time></trkpt><trkpt lat="38.540175" lon="16.5695067"><ele>8.0</ele><time>2026-04-19T14:12:40.511Z</time></trkpt><trkpt lat="38.5399183" lon="16.5694817"><ele>8.0</ele><time>2026-04-19T14:12:41.511Z</time></trkpt><trkpt lat="38.539655" lon="16.5694633"><ele>8.0</ele><time>2026-04-19T14:12:42.511Z</time></trkpt><trkpt lat="38.5393917" lon="16.56945"><ele>9.0</ele><time>2026-04-19T14:12:43.511Z</time></trkpt><trkpt lat="38.539125" lon="16.5694583"><ele>10.0</ele><time>2026-04-19T14:12:44.511Z</time></trkpt><trkpt lat="38.5388517" lon="16.5694883"><ele>9.0</ele><time>2026-04-19T14:12:45.512Z</time></trkpt><trkpt lat="38.538585" lon="16.5695333"><ele>8.0</ele><time>2026-04-19T14:12:46.511Z</time></trkpt><trkpt lat="38.5383117" lon="16.569575"><ele>8.0</ele><time>2026-04-19T14:12:47.511Z</time></trkpt><trkpt lat="38.5380333" lon="16.5696167"><ele>8.0</ele><time>2026-04-19T14:12:48.511Z</time></trkpt><trkpt lat="38.5377633" lon="16.5696583"><ele>7.5</ele><time>2026-04-19T14:12:49.511Z</time></trkpt><trkpt lat="38.5374883" lon="16.5697017"><ele>7.0</ele><time>2026-04-19T14:12:50.511Z</time></trkpt><trkpt lat="38.5372183" lon="16.5697383"><ele>6.5</ele><time>2026-04-19T14:12:51.511Z</time></trkpt><trkpt lat="38.5369483" lon="16.56978"><ele>6.0</ele><time>2026-04-19T14:12:52.511Z</time></trkpt><trkpt lat="38.5366833" lon="16.5698067"><ele>6.0</ele><time>2026-04-19T14:12:53.511Z</time></trkpt><trkpt lat="38.5364233" lon="16.5698433"><ele>6.0</ele><time>2026-04-19T14:12:54.511Z</time></trkpt><trkpt lat="38.536165" lon="16.5698833"><ele>6.5</ele><time>2026-04-19T14:12:55.511Z</time></trkpt><trkpt lat="38.53591" lon="16.5699183"><ele>7.0</ele><time>2026-04-19T14:12:56.511Z</time></trkpt><trkpt lat="38.5356517" lon="16.569965"><ele>7.0</ele><time>2026-04-19T14:12:57.511Z</time></trkpt><trkpt lat="38.5354033" lon="16.570005"><ele>7.0</ele><time>2026-04-19T14:12:58.511Z</time></trkpt><trkpt lat="38.53516" lon="16.5700417"><ele>8.5</ele><time>2026-04-19T14:12:59.511Z</time></trkpt><trkpt lat="38.5349167" lon="16.5700783"><ele>10.0</ele><time>2026-04-19T14:13:00.511Z</time></trkpt><trkpt lat="38.53468" lon="16.5701167"><ele>10.0</ele><time>2026-04-19T14:13:01.511Z</time></trkpt><trkpt lat="38.5344367" lon="16.5701517"><ele>10.0</ele><time>2026-04-19T14:13:02.511Z</time></trkpt><trkpt lat="38.5341917" lon="16.5701817"><ele>10.0</ele><time>2026-04-19T14:13:03.511Z</time></trkpt><trkpt lat="38.5339567" lon="16.5702217"><ele>10.0</ele><time>2026-04-19T14:13:04.511Z</time></trkpt><trkpt lat="38.5337117" lon="16.5702633"><ele>9.5</ele><time>2026-04-19T14:13:05.512Z</time></trkpt><trkpt lat="38.533475" lon="16.5702833"><ele>9.0</ele><time>2026-04-19T14:13:06.511Z</time></trkpt><trkpt lat="38.5332433" lon="16.57032"><ele>9.0</ele><time>2026-04-19T14:13:07.511Z</time></trkpt><trkpt lat="38.53302" lon="16.5703517"><ele>9.0</ele><time>2026-04-19T14:13:08.511Z</time></trkpt><trkpt lat="38.5327933" lon="16.570385"><ele>8.0</ele><time>2026-04-19T14:13:09.512Z</time></trkpt><trkpt lat="38.532585" lon="16.5704267"><ele>7.0</ele><time>2026-04-19T14:13:10.511Z</time></trkpt><trkpt lat="38.5323583" lon="16.57046"><ele>6.0</ele><time>2026-04-19T14:13:11.512Z</time></trkpt><trkpt lat="38.5321317" lon="16.570495"><ele>7.0</ele><time>2026-04-19T14:13:12.511Z</time></trkpt><trkpt lat="38.5319083" lon="16.57052"><ele>8.0</ele><time>2026-04-19T14:13:13.512Z</time></trkpt><trkpt lat="38.53168" lon="16.5705433"><ele>8.0</ele><time>2026-04-19T14:13:14.511Z</time></trkpt><trkpt lat="38.5314483" lon="16.5705633"><ele>8.0</ele><time>2026-04-19T14:13:15.511Z</time></trkpt><trkpt lat="38.5312167" lon="16.5705717"><ele>8.0</ele><time>2026-04-19T14:13:16.511Z</time></trkpt><trkpt lat="38.5309933" lon="16.5705783"><ele>8.0</ele><time>2026-04-19T14:13:17.511Z</time></trkpt><trkpt lat="38.5307733" lon="16.5705833"><ele>8.0</ele><time>2026-04-19T14:13:18.511Z</time></trkpt><trkpt lat="38.53055" lon="16.5705933"><ele>8.0</ele><time>2026-04-19T14:13:19.511Z</time></trkpt><trkpt lat="38.5303333" lon="16.5706017"><ele>8.0</ele><time>2026-04-19T14:13:20.511Z</time></trkpt><trkpt lat="38.5301133" lon="16.5706183"><ele>8.0</ele><time>2026-04-19T14:13:21.512Z</time></trkpt><trkpt lat="38.5299017" lon="16.5706367"><ele>8.0</ele><time>2026-04-19T14:13:22.511Z</time></trkpt><trkpt lat="38.5297033" lon="16.5706433"><ele>8.0</ele><time>2026-04-19T14:13:23.511Z</time></trkpt><trkpt lat="38.52952" lon="16.5706617"><ele>8.0</ele><time>2026-04-19T14:13:24.511Z</time></trkpt><trkpt lat="38.529345" lon="16.5706717"><ele>8.0</ele><time>2026-04-19T14:13:25.511Z</time></trkpt><trkpt lat="38.52919" lon="16.5706817"><ele>8.0</ele><time>2026-04-19T14:13:26.511Z</time></trkpt><trkpt lat="38.5290483" lon="16.5706833"><ele>8.0</ele><time>2026-04-19T14:13:27.511Z</time></trkpt><trkpt lat="38.5289183" lon="16.57069"><ele>8.0</ele><time>2026-04-19T14:13:28.511Z</time></trkpt><trkpt lat="38.5287967" lon="16.5706917"><ele>8.25</ele><time>2026-04-19T14:13:29.511Z</time></trkpt><trkpt lat="38.52867" lon="16.57071"><ele>8.5</ele><time>2026-04-19T14:13:30.511Z</time></trkpt><trkpt lat="38.5285417" lon="16.57072"><ele>8.75</ele><time>2026-04-19T14:13:31.511Z</time></trkpt><trkpt lat="38.5284217" lon="16.5707167"><ele>9.0</ele><time>2026-04-19T14:13:32.511Z</time></trkpt><trkpt lat="38.52832" lon="16.5707117"><ele>9.0</ele><time>2026-04-19T14:13:33.511Z</time></trkpt><trkpt lat="38.5282317" lon="16.5707083"><ele>9.0</ele><time>2026-04-19T14:13:34.511Z</time></trkpt><trkpt lat="38.5281533" lon="16.57071"><ele>9.0</ele><time>2026-04-19T14:13:35.511Z</time></trkpt><trkpt lat="38.5280833" lon="16.5707083"><ele>9.0</ele><time>2026-04-19T14:13:36.512Z</time></trkpt><trkpt lat="38.5280133" lon="16.5707117"><ele>9.0</ele><time>2026-04-19T14:13:37.511Z</time></trkpt><trkpt lat="38.52795" lon="16.570705"><ele>9.0</ele><time>2026-04-19T14:13:38.511Z</time></trkpt><trkpt lat="38.52784" lon="16.5706817"><ele>8.6</ele><time>2026-04-19T14:13:40.511Z</time></trkpt><trkpt lat="38.5277233" lon="16.5706167"><ele>8.2</ele><time>2026-04-19T14:13:42.511Z</time></trkpt><trkpt lat="38.5276667" lon="16.5705783"><ele>7.799999999999999</ele><time>2026-04-19T14:13:43.511Z</time></trkpt><trkpt lat="38.5276" lon="16.5705533"><ele>7.3999999999999995</ele><time>2026-04-19T14:13:44.511Z</time></trkpt><trkpt lat="38.52749" lon="16.570625"><ele>7.0</ele><time>2026-04-19T14:13:46.511Z</time></trkpt><trkpt lat="38.5274433" lon="16.570705"><ele>7.0</ele><time>2026-04-19T14:13:47.511Z</time></trkpt><trkpt lat="38.5273933" lon="16.5707767"><ele>6.999999999999999</ele><time>2026-04-19T14:13:48.511Z</time></trkpt><trkpt lat="38.5273083" lon="16.5708567"><ele>6.999999999999999</ele><time>2026-04-19T14:13:49.511Z</time></trkpt><trkpt lat="38.5272033" lon="16.5709367"><ele>7.0</ele><time>2026-04-19T14:13:50.511Z</time></trkpt><trkpt lat="38.5270717" lon="16.571015"><ele>7.0</ele><time>2026-04-19T14:13:51.512Z</time></trkpt><trkpt lat="38.5269217" lon="16.5710967"><ele>7.333333333333334</ele><time>2026-04-19T14:13:52.511Z</time></trkpt><trkpt lat="38.5267517" lon="16.5711817"><ele>7.666666666666666</ele><time>2026-04-19T14:13:53.511Z</time></trkpt><trkpt lat="38.5265717" lon="16.5712683"><ele>8.0</ele><time>2026-04-19T14:13:54.511Z</time></trkpt><trkpt lat="38.5263783" lon="16.5713633"><ele>7.333333333333333</ele><time>2026-04-19T14:13:55.512Z</time></trkpt><trkpt lat="38.5261783" lon="16.571465"><ele>6.666666666666666</ele><time>2026-04-19T14:13:56.511Z</time></trkpt><trkpt lat="38.525965" lon="16.5715533"><ele>6.0</ele><time>2026-04-19T14:13:57.511Z</time></trkpt><trkpt lat="38.5257367" lon="16.5716083"><ele>6.0</ele><time>2026-04-19T14:13:58.511Z</time></trkpt><trkpt lat="38.5255" lon="16.5716417"><ele>6.0</ele><time>2026-04-19T14:13:59.511Z</time></trkpt><trkpt lat="38.5252533" lon="16.571665"><ele>6.5</ele><time>2026-04-19T14:14:00.511Z</time></trkpt><trkpt lat="38.525005" lon="16.57169"><ele>7.0</ele><time>2026-04-19T14:14:01.512Z</time></trkpt><trkpt lat="38.5247567" lon="16.5717283"><ele>9.5</ele><time>2026-04-19T14:14:02.511Z</time></trkpt><trkpt lat="38.5245067" lon="16.571765"><ele>12.0</ele><time>2026-04-19T14:14:03.511Z</time></trkpt><trkpt lat="38.524255" lon="16.571795"><ele>12.0</ele><time>2026-04-19T14:14:04.511Z</time></trkpt><trkpt lat="38.5240017" lon="16.5718283"><ele>12.0</ele><time>2026-04-19T14:14:05.511Z</time></trkpt><trkpt lat="38.5237517" lon="16.57187"><ele>12.5</ele><time>2026-04-19T14:14:06.511Z</time></trkpt><trkpt lat="38.5235" lon="16.5719017"><ele>13.0</ele><time>2026-04-19T14:14:07.511Z</time></trkpt><trkpt lat="38.5232467" lon="16.5719367"><ele>13.0</ele><time>2026-04-19T14:14:08.511Z</time></trkpt><trkpt lat="38.522995" lon="16.5719717"><ele>13.0</ele><time>2026-04-19T14:14:09.511Z</time></trkpt><trkpt lat="38.5227433" lon="16.572015"><ele>11.0</ele><time>2026-04-19T14:14:10.511Z</time></trkpt><trkpt lat="38.5224917" lon="16.5720567"><ele>9.0</ele><time>2026-04-19T14:14:11.511Z</time></trkpt><trkpt lat="38.5222383" lon="16.572085"><ele>8.0</ele><time>2026-04-19T14:14:12.512Z</time></trkpt><trkpt lat="38.52198" lon="16.572115"><ele>7.0</ele><time>2026-04-19T14:14:13.512Z</time></trkpt><trkpt lat="38.5217233" lon="16.572145"><ele>7.0</ele><time>2026-04-19T14:14:14.511Z</time></trkpt><trkpt lat="38.521465" lon="16.57217"><ele>7.0</ele><time>2026-04-19T14:14:15.511Z</time></trkpt><trkpt lat="38.5212067" lon="16.5721867"><ele>8.0</ele><time>2026-04-19T14:14:16.511Z</time></trkpt><trkpt lat="38.5209417" lon="16.57222"><ele>9.0</ele><time>2026-04-19T14:14:17.511Z</time></trkpt><trkpt lat="38.520675" lon="16.57225"><ele>9.0</ele><time>2026-04-19T14:14:18.511Z</time></trkpt><trkpt lat="38.5204133" lon="16.5722683"><ele>9.0</ele><time>2026-04-19T14:14:19.511Z</time></trkpt><trkpt lat="38.5201517" lon="16.5722883"><ele>9.5</ele><time>2026-04-19T14:14:20.512Z</time></trkpt><trkpt lat="38.519885" lon="16.5723183"><ele>10.0</ele><time>2026-04-19T14:14:21.511Z</time></trkpt><trkpt lat="38.5196217" lon="16.5723433"><ele>9.5</ele><time>2026-04-19T14:14:22.511Z</time></trkpt><trkpt lat="38.5193583" lon="16.572375"><ele>9.0</ele><time>2026-04-19T14:14:23.511Z</time></trkpt><trkpt lat="38.5190933" lon="16.5724017"><ele>9.0</ele><time>2026-04-19T14:14:24.511Z</time></trkpt><trkpt lat="38.5188267" lon="16.5724283"><ele>9.0</ele><time>2026-04-19T14:14:25.512Z</time></trkpt><trkpt lat="38.5185617" lon="16.5724517"><ele>9.0</ele><time>2026-04-19T14:14:26.511Z</time></trkpt><trkpt lat="38.518295" lon="16.5724783"><ele>9.0</ele><time>2026-04-19T14:14:27.511Z</time></trkpt><trkpt lat="38.5180233" lon="16.5725017"><ele>9.0</ele><time>2026-04-19T14:14:28.511Z</time></trkpt><trkpt lat="38.5177583" lon="16.5725217"><ele>9.0</ele><time>2026-04-19T14:14:29.511Z</time></trkpt><trkpt lat="38.5174917" lon="16.5725467"><ele>9.0</ele><time>2026-04-19T14:14:30.511Z</time></trkpt><trkpt lat="38.51723" lon="16.572565"><ele>9.0</ele><time>2026-04-19T14:14:31.512Z</time></trkpt><trkpt lat="38.5169667" lon="16.572595"><ele>9.5</ele><time>2026-04-19T14:14:32.511Z</time></trkpt><trkpt lat="38.5166983" lon="16.57262"><ele>10.0</ele><time>2026-04-19T14:14:33.511Z</time></trkpt><trkpt lat="38.51643" lon="16.5726483"><ele>10.5</ele><time>2026-04-19T14:14:34.511Z</time></trkpt><trkpt lat="38.51616" lon="16.5726733"><ele>11.0</ele><time>2026-04-19T14:14:35.512Z</time></trkpt><trkpt lat="38.5159017" lon="16.572705"><ele>11.0</ele><time>2026-04-19T14:14:36.512Z</time></trkpt><trkpt lat="38.51563" lon="16.5727283"><ele>11.0</ele><time>2026-04-19T14:14:37.511Z</time></trkpt><trkpt lat="38.5153667" lon="16.572755"><ele>10.5</ele><time>2026-04-19T14:14:38.511Z</time></trkpt><trkpt lat="38.5151017" lon="16.57279"><ele>10.0</ele><time>2026-04-19T14:14:39.511Z</time></trkpt><trkpt lat="38.5148383" lon="16.5728467"><ele>9.0</ele><time>2026-04-19T14:14:40.511Z</time></trkpt><trkpt lat="38.5145717" lon="16.5729217"><ele>8.0</ele><time>2026-04-19T14:14:41.511Z</time></trkpt><trkpt lat="38.51431" lon="16.573005"><ele>7.5</ele><time>2026-04-19T14:14:42.511Z</time></trkpt><trkpt lat="38.5140483" lon="16.5731117"><ele>7.0</ele><time>2026-04-19T14:14:43.511Z</time></trkpt><trkpt lat="38.5137867" lon="16.5731983"><ele>6.5</ele><time>2026-04-19T14:14:44.511Z</time></trkpt><trkpt lat="38.5135167" lon="16.5732867"><ele>6.0</ele><time>2026-04-19T14:14:45.512Z</time></trkpt><trkpt lat="38.5132533" lon="16.5733733"><ele>6.0</ele><time>2026-04-19T14:14:46.511Z</time></trkpt><trkpt lat="38.5129867" lon="16.5734633"><ele>6.0</ele><time>2026-04-19T14:14:47.511Z</time></trkpt><trkpt lat="38.5127183" lon="16.5735517"><ele>6.0</ele><time>2026-04-19T14:14:48.511Z</time></trkpt><trkpt lat="38.51245" lon="16.57364"><ele>6.0</ele><time>2026-04-19T14:14:49.511Z</time></trkpt><trkpt lat="38.5121817" lon="16.57373"><ele>4.5</ele><time>2026-04-19T14:14:50.511Z</time></trkpt><trkpt lat="38.511915" lon="16.57382"><ele>3.0</ele><time>2026-04-19T14:14:51.511Z</time></trkpt><trkpt lat="38.5116517" lon="16.573905"><ele>3.0</ele><time>2026-04-19T14:14:52.511Z</time></trkpt><trkpt lat="38.51138" lon="16.5739933"><ele>3.0</ele><time>2026-04-19T14:14:53.512Z</time></trkpt><trkpt lat="38.51111" lon="16.574075"><ele>4.0</ele><time>2026-04-19T14:14:54.511Z</time></trkpt><trkpt lat="38.5108483" lon="16.5741583"><ele>5.0</ele><time>2026-04-19T14:14:55.511Z</time></trkpt><trkpt lat="38.5105883" lon="16.5742467"><ele>6.0</ele><time>2026-04-19T14:14:56.511Z</time></trkpt><trkpt lat="38.510325" lon="16.5743317"><ele>7.0</ele><time>2026-04-19T14:14:57.511Z</time></trkpt><trkpt lat="38.5100633" lon="16.574415"><ele>7.0</ele><time>2026-04-19T14:14:58.511Z</time></trkpt><trkpt lat="38.5098" lon="16.5745017"><ele>7.0</ele><time>2026-04-19T14:14:59.511Z</time></trkpt><trkpt lat="38.509535" lon="16.5745917"><ele>6.0</ele><time>2026-04-19T14:15:00.512Z</time></trkpt><trkpt lat="38.5092717" lon="16.5746833"><ele>5.0</ele><time>2026-04-19T14:15:01.511Z</time></trkpt><trkpt lat="38.5090067" lon="16.57477"><ele>5.0</ele><time>2026-04-19T14:15:02.512Z</time></trkpt><trkpt lat="38.5087483" lon="16.574855"><ele>5.0</ele><time>2026-04-19T14:15:03.511Z</time></trkpt><trkpt lat="38.5084833" lon="16.5749333"><ele>5.5</ele><time>2026-04-19T14:15:04.512Z</time></trkpt><trkpt lat="38.50822" lon="16.5750167"><ele>6.0</ele><time>2026-04-19T14:15:05.512Z</time></trkpt><trkpt lat="38.5079533" lon="16.5751083"><ele>6.5</ele><time>2026-04-19T14:15:06.512Z</time></trkpt><trkpt lat="38.5076917" lon="16.5751967"><ele>7.0</ele><time>2026-04-19T14:15:07.512Z</time></trkpt><trkpt lat="38.5074267" lon="16.5752883"><ele>6.0</ele><time>2026-04-19T14:15:08.512Z</time></trkpt><trkpt lat="38.5071617" lon="16.5753733"><ele>5.0</ele><time>2026-04-19T14:15:09.511Z</time></trkpt><trkpt lat="38.506895" lon="16.57546"><ele>5.0</ele><time>2026-04-19T14:15:10.512Z</time></trkpt><trkpt lat="38.5066317" lon="16.5755433"><ele>5.0</ele><time>2026-04-19T14:15:11.511Z</time></trkpt><trkpt lat="38.506375" lon="16.575625"><ele>5.5</ele><time>2026-04-19T14:15:12.511Z</time></trkpt><trkpt lat="38.5061317" lon="16.575705"><ele>6.0</ele><time>2026-04-19T14:15:13.511Z</time></trkpt><trkpt lat="38.5058883" lon="16.5757867"><ele>6.0</ele><time>2026-04-19T14:15:14.511Z</time></trkpt><trkpt lat="38.505645" lon="16.575865"><ele>6.0</ele><time>2026-04-19T14:15:15.511Z</time></trkpt><trkpt lat="38.5054" lon="16.5759483"><ele>7.5</ele><time>2026-04-19T14:15:16.511Z</time></trkpt><trkpt lat="38.5051483" lon="16.5760333"><ele>9.0</ele><time>2026-04-19T14:15:17.511Z</time></trkpt><trkpt lat="38.504895" lon="16.5761167"><ele>7.5</ele><time>2026-04-19T14:15:18.511Z</time></trkpt><trkpt lat="38.5046417" lon="16.5761983"><ele>6.0</ele><time>2026-04-19T14:15:19.512Z</time></trkpt><trkpt lat="38.5043917" lon="16.57628"><ele>6.0</ele><time>2026-04-19T14:15:20.511Z</time></trkpt><trkpt lat="38.5041383" lon="16.5763617"><ele>6.0</ele><time>2026-04-19T14:15:21.511Z</time></trkpt><trkpt lat="38.5038833" lon="16.5764433"><ele>5.5</ele><time>2026-04-19T14:15:22.511Z</time></trkpt><trkpt lat="38.5036267" lon="16.5765333"><ele>5.0</ele><time>2026-04-19T14:15:23.512Z</time></trkpt><trkpt lat="38.5033667" lon="16.5766117"><ele>5.0</ele><time>2026-04-19T14:15:24.511Z</time></trkpt><trkpt lat="38.50311" lon="16.5766867"><ele>5.0</ele><time>2026-04-19T14:15:25.512Z</time></trkpt><trkpt lat="38.5028483" lon="16.576765"><ele>6.0</ele><time>2026-04-19T14:15:26.512Z</time></trkpt><trkpt lat="38.5025883" lon="16.5768517"><ele>7.0</ele><time>2026-04-19T14:15:27.511Z</time></trkpt><trkpt lat="38.5023283" lon="16.57694"><ele>7.0</ele><time>2026-04-19T14:15:28.511Z</time></trkpt><trkpt lat="38.5020683" lon="16.5770283"><ele>7.0</ele><time>2026-04-19T14:15:29.511Z</time></trkpt><trkpt lat="38.50181" lon="16.5771133"><ele>7.0</ele><time>2026-04-19T14:15:30.511Z</time></trkpt><trkpt lat="38.5015517" lon="16.5771967"><ele>7.0</ele><time>2026-04-19T14:15:31.512Z</time></trkpt><trkpt lat="38.5012917" lon="16.57729"><ele>8.0</ele><time>2026-04-19T14:15:32.511Z</time></trkpt><trkpt lat="38.5010317" lon="16.5773767"><ele>9.0</ele><time>2026-04-19T14:15:33.511Z</time></trkpt><trkpt lat="38.5007717" lon="16.5774567"><ele>9.0</ele><time>2026-04-19T14:15:34.512Z</time></trkpt><trkpt lat="38.5005133" lon="16.5775433"><ele>9.0</ele><time>2026-04-19T14:15:35.512Z</time></trkpt><trkpt lat="38.500255" lon="16.57763"><ele>9.0</ele><time>2026-04-19T14:15:36.512Z</time></trkpt><trkpt lat="38.499995" lon="16.577715"><ele>9.0</ele><time>2026-04-19T14:15:37.511Z</time></trkpt><trkpt lat="38.499735" lon="16.5777933"><ele>8.5</ele><time>2026-04-19T14:15:38.512Z</time></trkpt><trkpt lat="38.49948" lon="16.5778567"><ele>8.0</ele><time>2026-04-19T14:15:39.511Z</time></trkpt><trkpt lat="38.49922" lon="16.5778983"><ele>8.0</ele><time>2026-04-19T14:15:40.512Z</time></trkpt><trkpt lat="38.49896" lon="16.57791"><ele>8.0</ele><time>2026-04-19T14:15:41.512Z</time></trkpt><trkpt lat="38.4986967" lon="16.5779083"><ele>8.5</ele><time>2026-04-19T14:15:42.512Z</time></trkpt><trkpt lat="38.4984283" lon="16.5779083"><ele>9.0</ele><time>2026-04-19T14:15:43.511Z</time></trkpt><trkpt lat="38.4981583" lon="16.5779083"><ele>8.5</ele><time>2026-04-19T14:15:44.511Z</time></trkpt><trkpt lat="38.4978917" lon="16.577915"><ele>8.0</ele><time>2026-04-19T14:15:45.511Z</time></trkpt><trkpt lat="38.4976217" lon="16.5779317"><ele>8.0</ele><time>2026-04-19T14:15:46.511Z</time></trkpt><trkpt lat="38.49736" lon="16.577945"><ele>8.0</ele><time>2026-04-19T14:15:47.511Z</time></trkpt><trkpt lat="38.4970867" lon="16.5779583"><ele>8.0</ele><time>2026-04-19T14:15:48.512Z</time></trkpt><trkpt lat="38.4968167" lon="16.5779667"><ele>8.0</ele><time>2026-04-19T14:15:49.511Z</time></trkpt><trkpt lat="38.4965383" lon="16.577975"><ele>8.0</ele><time>2026-04-19T14:15:50.511Z</time></trkpt><trkpt lat="38.4962683" lon="16.57798"><ele>8.0</ele><time>2026-04-19T14:15:51.511Z</time></trkpt><trkpt lat="38.4959967" lon="16.577985"><ele>8.5</ele><time>2026-04-19T14:15:52.511Z</time></trkpt><trkpt lat="38.495725" lon="16.5779933"><ele>9.0</ele><time>2026-04-19T14:15:53.511Z</time></trkpt><trkpt lat="38.4954533" lon="16.5780117"><ele>8.0</ele><time>2026-04-19T14:15:54.512Z</time></trkpt><trkpt lat="38.4951767" lon="16.5780217"><ele>7.0</ele><time>2026-04-19T14:15:55.511Z</time></trkpt><trkpt lat="38.4949" lon="16.578025"><ele>7.0</ele><time>2026-04-19T14:15:56.511Z</time></trkpt><trkpt lat="38.4946267" lon="16.57803"><ele>7.0</ele><time>2026-04-19T14:15:57.511Z</time></trkpt><trkpt lat="38.4943533" lon="16.5780367"><ele>6.5</ele><time>2026-04-19T14:15:58.511Z</time></trkpt><trkpt lat="38.49408" lon="16.5780467"><ele>6.0</ele><time>2026-04-19T14:15:59.511Z</time></trkpt><trkpt lat="38.4938067" lon="16.5780617"><ele>7.0</ele><time>2026-04-19T14:16:00.511Z</time></trkpt><trkpt lat="38.4935333" lon="16.57807"><ele>8.0</ele><time>2026-04-19T14:16:01.511Z</time></trkpt><trkpt lat="38.493255" lon="16.5780767"><ele>8.0</ele><time>2026-04-19T14:16:02.511Z</time></trkpt><trkpt lat="38.49298" lon="16.5780917"><ele>8.0</ele><time>2026-04-19T14:16:03.511Z</time></trkpt><trkpt lat="38.49271" lon="16.578105"><ele>7.5</ele><time>2026-04-19T14:16:04.511Z</time></trkpt><trkpt lat="38.49244" lon="16.578115"><ele>7.0</ele><time>2026-04-19T14:16:05.511Z</time></trkpt><trkpt lat="38.492165" lon="16.57812"><ele>7.0</ele><time>2026-04-19T14:16:06.511Z</time></trkpt><trkpt lat="38.4918933" lon="16.5781217"><ele>7.0</ele><time>2026-04-19T14:16:07.511Z</time></trkpt><trkpt lat="38.4916183" lon="16.5781317"><ele>7.0</ele><time>2026-04-19T14:16:08.511Z</time></trkpt><trkpt lat="38.491345" lon="16.5781383"><ele>7.0</ele><time>2026-04-19T14:16:09.511Z</time></trkpt><trkpt lat="38.4910733" lon="16.5781483"><ele>7.5</ele><time>2026-04-19T14:16:10.511Z</time></trkpt><trkpt lat="38.4908017" lon="16.57815"><ele>8.0</ele><time>2026-04-19T14:16:11.511Z</time></trkpt><trkpt lat="38.4905317" lon="16.5781583"><ele>7.5</ele><time>2026-04-19T14:16:12.511Z</time></trkpt><trkpt lat="38.4902633" lon="16.5781667"><ele>7.0</ele><time>2026-04-19T14:16:13.511Z</time></trkpt><trkpt lat="38.4899917" lon="16.578185"><ele>7.0</ele><time>2026-04-19T14:16:14.511Z</time></trkpt><trkpt lat="38.4897217" lon="16.578185"><ele>7.0</ele><time>2026-04-19T14:16:15.511Z</time></trkpt><trkpt lat="38.48946" lon="16.578195"><ele>7.0</ele><time>2026-04-19T14:16:16.511Z</time></trkpt><trkpt lat="38.48919" lon="16.578205"><ele>7.0</ele><time>2026-04-19T14:16:17.512Z</time></trkpt><trkpt lat="38.4889267" lon="16.5782217"><ele>6.5</ele><time>2026-04-19T14:16:18.511Z</time></trkpt><trkpt lat="38.48866" lon="16.578235"><ele>6.0</ele><time>2026-04-19T14:16:19.511Z</time></trkpt><trkpt lat="38.4883967" lon="16.5782417"><ele>6.0</ele><time>2026-04-19T14:16:20.512Z</time></trkpt><trkpt lat="38.4881333" lon="16.57825"><ele>6.0</ele><time>2026-04-19T14:16:21.511Z</time></trkpt><trkpt lat="38.4878733" lon="16.5782583"><ele>6.5</ele><time>2026-04-19T14:16:22.511Z</time></trkpt><trkpt lat="38.4876117" lon="16.578265"><ele>7.0</ele><time>2026-04-19T14:16:23.511Z</time></trkpt><trkpt lat="38.487355" lon="16.57827"><ele>7.0</ele><time>2026-04-19T14:16:24.511Z</time></trkpt><trkpt lat="38.4871133" lon="16.5782783"><ele>7.0</ele><time>2026-04-19T14:16:25.512Z</time></trkpt><trkpt lat="38.4868783" lon="16.5782917"><ele>7.333333333333334</ele><time>2026-04-19T14:16:26.511Z</time></trkpt><trkpt lat="38.486655" lon="16.5783033"><ele>7.666666666666666</ele><time>2026-04-19T14:16:27.511Z</time></trkpt><trkpt lat="38.4864417" lon="16.5783067"><ele>8.0</ele><time>2026-04-19T14:16:28.511Z</time></trkpt><trkpt lat="38.4862367" lon="16.57832"><ele>8.333333333333332</ele><time>2026-04-19T14:16:29.511Z</time></trkpt><trkpt lat="38.4860367" lon="16.5783183"><ele>8.666666666666666</ele><time>2026-04-19T14:16:30.512Z</time></trkpt><trkpt lat="38.48583" lon="16.57832"><ele>9.0</ele><time>2026-04-19T14:16:31.512Z</time></trkpt><trkpt lat="38.485625" lon="16.57832"><ele>9.333333333333334</ele><time>2026-04-19T14:16:32.511Z</time></trkpt><trkpt lat="38.48542" lon="16.5783217"><ele>9.666666666666668</ele><time>2026-04-19T14:16:33.511Z</time></trkpt><trkpt lat="38.48521" lon="16.578335"><ele>10.0</ele><time>2026-04-19T14:16:34.511Z</time></trkpt><trkpt lat="38.4849867" lon="16.5783333"><ele>10.0</ele><time>2026-04-19T14:16:35.511Z</time></trkpt><trkpt lat="38.48478" lon="16.5783433"><ele>10.0</ele><time>2026-04-19T14:16:36.511Z</time></trkpt><trkpt lat="38.4845633" lon="16.57834"><ele>10.0</ele><time>2026-04-19T14:16:37.511Z</time></trkpt><trkpt lat="38.48435" lon="16.5783367"><ele>10.333333333333334</ele><time>2026-04-19T14:16:38.511Z</time></trkpt><trkpt lat="38.484135" lon="16.5783283"><ele>10.666666666666666</ele><time>2026-04-19T14:16:39.512Z</time></trkpt><trkpt lat="38.4839233" lon="16.5783383"><ele>11.0</ele><time>2026-04-19T14:16:40.511Z</time></trkpt><trkpt lat="38.4837083" lon="16.5783567"><ele>11.0</ele><time>2026-04-19T14:16:41.511Z</time></trkpt><trkpt lat="38.483495" lon="16.578355"><ele>11.0</ele><time>2026-04-19T14:16:42.511Z</time></trkpt><trkpt lat="38.4832833" lon="16.5783633"><ele>11.0</ele><time>2026-04-19T14:16:43.511Z</time></trkpt><trkpt lat="38.4830767" lon="16.5783683"><ele>10.666666666666666</ele><time>2026-04-19T14:16:44.511Z</time></trkpt><trkpt lat="38.48286" lon="16.578365"><ele>10.333333333333334</ele><time>2026-04-19T14:16:45.512Z</time></trkpt><trkpt lat="38.4826333" lon="16.5783783"><ele>10.0</ele><time>2026-04-19T14:16:46.511Z</time></trkpt><trkpt lat="38.4824167" lon="16.5784"><ele>10.0</ele><time>2026-04-19T14:16:47.511Z</time></trkpt><trkpt lat="38.4822067" lon="16.578405"><ele>10.0</ele><time>2026-04-19T14:16:48.511Z</time></trkpt><trkpt lat="38.4820067" lon="16.5784"><ele>10.0</ele><time>2026-04-19T14:16:49.511Z</time></trkpt><trkpt lat="38.481825" lon="16.5784117"><ele>10.333333333333334</ele><time>2026-04-19T14:16:50.511Z</time></trkpt><trkpt lat="38.481635" lon="16.5783867"><ele>10.666666666666666</ele><time>2026-04-19T14:16:51.512Z</time></trkpt><trkpt lat="38.4814583" lon="16.5783983"><ele>11.0</ele><time>2026-04-19T14:16:52.511Z</time></trkpt><trkpt lat="38.4813117" lon="16.5784133"><ele>10.75</ele><time>2026-04-19T14:16:53.511Z</time></trkpt><trkpt lat="38.4811617" lon="16.5784217"><ele>10.5</ele><time>2026-04-19T14:16:54.511Z</time></trkpt><trkpt lat="38.4810217" lon="16.578425"><ele>10.25</ele><time>2026-04-19T14:16:55.512Z</time></trkpt><trkpt lat="38.4808867" lon="16.5784217"><ele>10.0</ele><time>2026-04-19T14:16:56.511Z</time></trkpt><trkpt lat="38.4807667" lon="16.57841"><ele>10.0</ele><time>2026-04-19T14:16:57.511Z</time></trkpt><trkpt lat="38.4806317" lon="16.5784283"><ele>10.0</ele><time>2026-04-19T14:16:58.512Z</time></trkpt><trkpt lat="38.4804883" lon="16.5784367"><ele>10.0</ele><time>2026-04-19T14:16:59.511Z</time></trkpt><trkpt lat="38.4803417" lon="16.57846"><ele>10.0</ele><time>2026-04-19T14:17:00.512Z</time></trkpt><trkpt lat="38.4801883" lon="16.5784833"><ele>10.0</ele><time>2026-04-19T14:17:01.511Z</time></trkpt><trkpt lat="38.480035" lon="16.578495"><ele>10.0</ele><time>2026-04-19T14:17:02.511Z</time></trkpt><trkpt lat="38.4798783" lon="16.5784983"><ele>10.0</ele><time>2026-04-19T14:17:03.511Z</time></trkpt><trkpt lat="38.4797233" lon="16.57852"><ele>10.666666666666668</ele><time>2026-04-19T14:17:04.511Z</time></trkpt><trkpt lat="38.4795617" lon="16.5785233"><ele>11.333333333333334</ele><time>2026-04-19T14:17:05.511Z</time></trkpt><trkpt lat="38.4793883" lon="16.57853"><ele>12.0</ele><time>2026-04-19T14:17:06.511Z</time></trkpt><trkpt lat="38.4791983" lon="16.57854"><ele>12.0</ele><time>2026-04-19T14:17:07.511Z</time></trkpt><trkpt lat="38.4790067" lon="16.5785683"><ele>12.0</ele><time>2026-04-19T14:17:08.511Z</time></trkpt><trkpt lat="38.4788" lon="16.5785917"><ele>12.0</ele><time>2026-04-19T14:17:09.511Z</time></trkpt><trkpt lat="38.478585" lon="16.5786"><ele>12.5</ele><time>2026-04-19T14:17:10.511Z</time></trkpt><trkpt lat="38.4783417" lon="16.5785917"><ele>13.0</ele><time>2026-04-19T14:17:11.511Z</time></trkpt><trkpt lat="38.4780967" lon="16.5786"><ele>13.0</ele><time>2026-04-19T14:17:12.512Z</time></trkpt><trkpt lat="38.47784" lon="16.578605"><ele>13.0</ele><time>2026-04-19T14:17:13.511Z</time></trkpt><trkpt lat="38.477585" lon="16.5786183"><ele>13.0</ele><time>2026-04-19T14:17:14.511Z</time></trkpt><trkpt lat="38.47733" lon="16.5786333"><ele>13.0</ele><time>2026-04-19T14:17:15.511Z</time></trkpt><trkpt lat="38.4770817" lon="16.5786417"><ele>13.0</ele><time>2026-04-19T14:17:16.511Z</time></trkpt><trkpt lat="38.4768167" lon="16.5786583"><ele>13.0</ele><time>2026-04-19T14:17:17.511Z</time></trkpt><trkpt lat="38.4765683" lon="16.5786667"><ele>13.0</ele><time>2026-04-19T14:17:18.511Z</time></trkpt><trkpt lat="38.4763083" lon="16.57868"><ele>13.0</ele><time>2026-04-19T14:17:19.511Z</time></trkpt><trkpt lat="38.4760517" lon="16.5787017"><ele>11.0</ele><time>2026-04-19T14:17:20.511Z</time></trkpt><trkpt lat="38.4757833" lon="16.57873"><ele>9.0</ele><time>2026-04-19T14:17:21.511Z</time></trkpt><trkpt lat="38.4755183" lon="16.5787817"><ele>10.0</ele><time>2026-04-19T14:17:22.511Z</time></trkpt><trkpt lat="38.4752483" lon="16.57884"><ele>11.0</ele><time>2026-04-19T14:17:23.511Z</time></trkpt><trkpt lat="38.474975" lon="16.5789083"><ele>11.0</ele><time>2026-04-19T14:17:24.511Z</time></trkpt><trkpt lat="38.47469" lon="16.5789783"><ele>11.0</ele><time>2026-04-19T14:17:25.511Z</time></trkpt><trkpt lat="38.4744" lon="16.5790517"><ele>11.5</ele><time>2026-04-19T14:17:26.511Z</time></trkpt><trkpt lat="38.474105" lon="16.5791183"><ele>12.0</ele><time>2026-04-19T14:17:27.511Z</time></trkpt><trkpt lat="38.4738017" lon="16.5791917"><ele>11.5</ele><time>2026-04-19T14:17:28.512Z</time></trkpt><trkpt lat="38.4734967" lon="16.57927"><ele>11.0</ele><time>2026-04-19T14:17:29.512Z</time></trkpt><trkpt lat="38.4731817" lon="16.5793467"><ele>11.5</ele><time>2026-04-19T14:17:30.511Z</time></trkpt><trkpt lat="38.472875" lon="16.5794133"><ele>12.0</ele><time>2026-04-19T14:17:31.511Z</time></trkpt><trkpt lat="38.4725783" lon="16.5794833"><ele>10.5</ele><time>2026-04-19T14:17:32.511Z</time></trkpt><trkpt lat="38.4722917" lon="16.579545"><ele>9.0</ele><time>2026-04-19T14:17:33.512Z</time></trkpt><trkpt lat="38.4720083" lon="16.5796017"><ele>9.0</ele><time>2026-04-19T14:17:34.511Z</time></trkpt><trkpt lat="38.471725" lon="16.57965"><ele>9.0</ele><time>2026-04-19T14:17:35.512Z</time></trkpt><trkpt lat="38.4714417" lon="16.5796767"><ele>9.5</ele><time>2026-04-19T14:17:36.511Z</time></trkpt><trkpt lat="38.4711517" lon="16.5796867"><ele>10.0</ele><time>2026-04-19T14:17:37.511Z</time></trkpt><trkpt lat="38.47086" lon="16.5796783"><ele>10.0</ele><time>2026-04-19T14:17:38.511Z</time></trkpt><trkpt lat="38.470565" lon="16.57966"><ele>10.0</ele><time>2026-04-19T14:17:39.511Z</time></trkpt><trkpt lat="38.470265" lon="16.5796517"><ele>10.5</ele><time>2026-04-19T14:17:40.511Z</time></trkpt><trkpt lat="38.46996" lon="16.5796467"><ele>11.0</ele><time>2026-04-19T14:17:41.511Z</time></trkpt><trkpt lat="38.4696667" lon="16.5796467"><ele>9.5</ele><time>2026-04-19T14:17:42.511Z</time></trkpt><trkpt lat="38.46936" lon="16.5796467"><ele>8.0</ele><time>2026-04-19T14:17:43.512Z</time></trkpt><trkpt lat="38.46905" lon="16.5796467"><ele>7.0</ele><time>2026-04-19T14:17:44.512Z</time></trkpt><trkpt lat="38.4687433" lon="16.5796483"><ele>6.0</ele><time>2026-04-19T14:17:45.511Z</time></trkpt><trkpt lat="38.4684317" lon="16.579645"><ele>6.0</ele><time>2026-04-19T14:17:46.511Z</time></trkpt><trkpt lat="38.4681217" lon="16.579645"><ele>6.0</ele><time>2026-04-19T14:17:47.511Z</time></trkpt><trkpt lat="38.4678133" lon="16.579635"><ele>6.0</ele><time>2026-04-19T14:17:48.511Z</time></trkpt><trkpt lat="38.4674983" lon="16.579625"><ele>6.0</ele><time>2026-04-19T14:17:49.511Z</time></trkpt><trkpt lat="38.46718" lon="16.5796183"><ele>6.0</ele><time>2026-04-19T14:17:50.512Z</time></trkpt><trkpt lat="38.466865" lon="16.5796083"><ele>6.0</ele><time>2026-04-19T14:17:51.511Z</time></trkpt><trkpt lat="38.4665567" lon="16.5796067"><ele>6.0</ele><time>2026-04-19T14:17:52.512Z</time></trkpt><trkpt lat="38.4662417" lon="16.5796083"><ele>6.0</ele><time>2026-04-19T14:17:53.511Z</time></trkpt><trkpt lat="38.465925" lon="16.5796083"><ele>6.0</ele><time>2026-04-19T14:17:54.511Z</time></trkpt><trkpt lat="38.4656133" lon="16.5795983"><ele>6.0</ele><time>2026-04-19T14:17:55.511Z</time></trkpt><trkpt lat="38.4653017" lon="16.579595"><ele>6.0</ele><time>2026-04-19T14:17:56.511Z</time></trkpt><trkpt lat="38.464995" lon="16.5795933"><ele>6.0</ele><time>2026-04-19T14:17:57.511Z</time></trkpt><trkpt lat="38.4646883" lon="16.5795883"><ele>7.0</ele><time>2026-04-19T14:17:58.512Z</time></trkpt><trkpt lat="38.464375" lon="16.5795883"><ele>8.0</ele><time>2026-04-19T14:17:59.511Z</time></trkpt><trkpt lat="38.4640683" lon="16.5795817"><ele>8.0</ele><time>2026-04-19T14:18:00.512Z</time></trkpt><trkpt lat="38.4637583" lon="16.5795783"><ele>8.0</ele><time>2026-04-19T14:18:01.511Z</time></trkpt><trkpt lat="38.46345" lon="16.5795717"><ele>8.0</ele><time>2026-04-19T14:18:02.511Z</time></trkpt><trkpt lat="38.4631383" lon="16.5795733"><ele>8.0</ele><time>2026-04-19T14:18:03.511Z</time></trkpt><trkpt lat="38.46283" lon="16.57957"><ele>8.0</ele><time>2026-04-19T14:18:04.511Z</time></trkpt><trkpt lat="38.4625183" lon="16.5795633"><ele>8.0</ele><time>2026-04-19T14:18:05.511Z</time></trkpt><trkpt lat="38.4622083" lon="16.5795583"><ele>9.0</ele><time>2026-04-19T14:18:06.512Z</time></trkpt><trkpt lat="38.4619033" lon="16.57955"><ele>10.0</ele><time>2026-04-19T14:18:07.511Z</time></trkpt><trkpt lat="38.4615983" lon="16.579545"><ele>10.0</ele><time>2026-04-19T14:18:08.511Z</time></trkpt><trkpt lat="38.46129" lon="16.5795333"><ele>10.0</ele><time>2026-04-19T14:18:09.512Z</time></trkpt><trkpt lat="38.4609817" lon="16.5795267"><ele>10.0</ele><time>2026-04-19T14:18:10.511Z</time></trkpt><trkpt lat="38.460675" lon="16.5795267"><ele>10.0</ele><time>2026-04-19T14:18:11.51Z</time></trkpt><trkpt lat="38.4603717" lon="16.5795267"><ele>10.0</ele><time>2026-04-19T14:18:12.511Z</time></trkpt><trkpt lat="38.4600717" lon="16.5795283"><ele>10.0</ele><time>2026-04-19T14:18:13.512Z</time></trkpt><trkpt lat="38.4597717" lon="16.57953"><ele>10.5</ele><time>2026-04-19T14:18:14.511Z</time></trkpt><trkpt lat="38.459465" lon="16.5795233"><ele>11.0</ele><time>2026-04-19T14:18:15.511Z</time></trkpt><trkpt lat="38.4591683" lon="16.5795133"><ele>13.5</ele><time>2026-04-19T14:18:16.512Z</time></trkpt><trkpt lat="38.45887" lon="16.5795017"><ele>16.0</ele><time>2026-04-19T14:18:17.511Z</time></trkpt><trkpt lat="38.458565" lon="16.5795017"><ele>16.5</ele><time>2026-04-19T14:18:18.511Z</time></trkpt><trkpt lat="38.4582633" lon="16.5795167"><ele>17.0</ele><time>2026-04-19T14:18:19.512Z</time></trkpt><trkpt lat="38.4579717" lon="16.5795467"><ele>14.0</ele><time>2026-04-19T14:18:20.512Z</time></trkpt><trkpt lat="38.4576783" lon="16.5795833"><ele>11.0</ele><time>2026-04-19T14:18:21.511Z</time></trkpt><trkpt lat="38.4573833" lon="16.57961"><ele>9.5</ele><time>2026-04-19T14:18:22.512Z</time></trkpt><trkpt lat="38.4570817" lon="16.57964"><ele>8.0</ele><time>2026-04-19T14:18:23.511Z</time></trkpt><trkpt lat="38.4567783" lon="16.5796533"><ele>8.0</ele><time>2026-04-19T14:18:24.512Z</time></trkpt><trkpt lat="38.4564817" lon="16.579655"><ele>8.0</ele><time>2026-04-19T14:18:25.511Z</time></trkpt><trkpt lat="38.456175" lon="16.5796467"><ele>7.0</ele><time>2026-04-19T14:18:26.512Z</time></trkpt><trkpt lat="38.4558783" lon="16.5796333"><ele>6.0</ele><time>2026-04-19T14:18:27.511Z</time></trkpt><trkpt lat="38.455575" lon="16.579625"><ele>6.0</ele><time>2026-04-19T14:18:28.511Z</time></trkpt><trkpt lat="38.4552833" lon="16.579605"><ele>6.0</ele><time>2026-04-19T14:18:29.511Z</time></trkpt><trkpt lat="38.4550117" lon="16.5795733"><ele>6.0</ele><time>2026-04-19T14:18:30.511Z</time></trkpt><trkpt lat="38.45474" lon="16.57953"><ele>6.0</ele><time>2026-04-19T14:18:31.511Z</time></trkpt><trkpt lat="38.4544767" lon="16.5794817"><ele>7.0</ele><time>2026-04-19T14:18:32.511Z</time></trkpt><trkpt lat="38.45421" lon="16.5794533"><ele>8.0</ele><time>2026-04-19T14:18:33.511Z</time></trkpt><trkpt lat="38.453935" lon="16.579435"><ele>8.0</ele><time>2026-04-19T14:18:34.511Z</time></trkpt><trkpt lat="38.453655" lon="16.57943"><ele>8.0</ele><time>2026-04-19T14:18:35.511Z</time></trkpt><trkpt lat="38.453375" lon="16.5794267"><ele>8.0</ele><time>2026-04-19T14:18:36.511Z</time></trkpt><trkpt lat="38.453085" lon="16.57942"><ele>8.0</ele><time>2026-04-19T14:18:37.511Z</time></trkpt><trkpt lat="38.452795" lon="16.5794217"><ele>8.0</ele><time>2026-04-19T14:18:38.511Z</time></trkpt><trkpt lat="38.4525" lon="16.5794183"><ele>8.0</ele><time>2026-04-19T14:18:39.512Z</time></trkpt><trkpt lat="38.4522117" lon="16.5794167"><ele>7.0</ele><time>2026-04-19T14:18:40.512Z</time></trkpt><trkpt lat="38.4519217" lon="16.5794167"><ele>6.0</ele><time>2026-04-19T14:18:41.511Z</time></trkpt><trkpt lat="38.4516333" lon="16.579415"><ele>6.0</ele><time>2026-04-19T14:18:42.512Z</time></trkpt><trkpt lat="38.4513433" lon="16.5794083"><ele>6.0</ele><time>2026-04-19T14:18:43.511Z</time></trkpt><trkpt lat="38.4510533" lon="16.5793983"><ele>6.5</ele><time>2026-04-19T14:18:44.511Z</time></trkpt><trkpt lat="38.4507633" lon="16.5793717"><ele>7.0</ele><time>2026-04-19T14:18:45.511Z</time></trkpt><trkpt lat="38.45047" lon="16.57933"><ele>7.5</ele><time>2026-04-19T14:18:46.512Z</time></trkpt><trkpt lat="38.4501883" lon="16.5792533"><ele>8.0</ele><time>2026-04-19T14:18:47.511Z</time></trkpt><trkpt lat="38.4499133" lon="16.5791633"><ele>8.0</ele><time>2026-04-19T14:18:48.512Z</time></trkpt><trkpt lat="38.4496283" lon="16.5790733"><ele>8.0</ele><time>2026-04-19T14:18:49.512Z</time></trkpt><trkpt lat="38.449345" lon="16.5789817"><ele>8.5</ele><time>2026-04-19T14:18:50.512Z</time></trkpt><trkpt lat="38.4490583" lon="16.5788833"><ele>9.0</ele><time>2026-04-19T14:18:51.511Z</time></trkpt><trkpt lat="38.4487717" lon="16.5787867"><ele>10.0</ele><time>2026-04-19T14:18:52.511Z</time></trkpt><trkpt lat="38.44849" lon="16.578695"><ele>11.0</ele><time>2026-04-19T14:18:53.511Z</time></trkpt><trkpt lat="38.4482033" lon="16.5786067"><ele>16.0</ele><time>2026-04-19T14:18:54.512Z</time></trkpt><trkpt lat="38.447925" lon="16.5785133"><ele>21.0</ele><time>2026-04-19T14:18:55.511Z</time></trkpt><trkpt lat="38.447645" lon="16.578425"><ele>21.0</ele><time>2026-04-19T14:18:56.511Z</time></trkpt><trkpt lat="38.447375" lon="16.5783317"><ele>21.0</ele><time>2026-04-19T14:18:57.511Z</time></trkpt><trkpt lat="38.44712" lon="16.5782483"><ele>18.0</ele><time>2026-04-19T14:18:58.511Z</time></trkpt><trkpt lat="38.4468817" lon="16.5781633"><ele>15.0</ele><time>2026-04-19T14:18:59.511Z</time></trkpt><trkpt lat="38.4466583" lon="16.5780817"><ele>15.0</ele><time>2026-04-19T14:19:00.511Z</time></trkpt><trkpt lat="38.4464583" lon="16.5779767"><ele>15.0</ele><time>2026-04-19T14:19:01.511Z</time></trkpt><trkpt lat="38.4462667" lon="16.577885"><ele>15.0</ele><time>2026-04-19T14:19:02.511Z</time></trkpt><trkpt lat="38.44609" lon="16.5778117"><ele>15.666666666666668</ele><time>2026-04-19T14:19:03.511Z</time></trkpt><trkpt lat="38.4459067" lon="16.5777633"><ele>16.333333333333336</ele><time>2026-04-19T14:19:04.512Z</time></trkpt><trkpt lat="38.445735" lon="16.5777633"><ele>17.0</ele><time>2026-04-19T14:19:05.512Z</time></trkpt><trkpt lat="38.44557" lon="16.5778217"><ele>16.0</ele><time>2026-04-19T14:19:06.511Z</time></trkpt><trkpt lat="38.4454217" lon="16.5779433"><ele>15.0</ele><time>2026-04-19T14:19:07.511Z</time></trkpt><trkpt lat="38.44529" lon="16.5780983"><ele>14.0</ele><time>2026-04-19T14:19:08.512Z</time></trkpt><trkpt lat="38.4451583" lon="16.578255"><ele>14.0</ele><time>2026-04-19T14:19:09.511Z</time></trkpt><trkpt lat="38.445015" lon="16.5783783"><ele>14.0</ele><time>2026-04-19T14:19:10.511Z</time></trkpt><trkpt lat="38.4448583" lon="16.5784683"><ele>14.0</ele><time>2026-04-19T14:19:11.511Z</time></trkpt><trkpt lat="38.44469" lon="16.5785017"><ele>13.666666666666668</ele><time>2026-04-19T14:19:12.511Z</time></trkpt><trkpt lat="38.44451" lon="16.5784667"><ele>13.333333333333332</ele><time>2026-04-19T14:19:13.511Z</time></trkpt><trkpt lat="38.44434" lon="16.5783567"><ele>13.0</ele><time>2026-04-19T14:19:14.511Z</time></trkpt><trkpt lat="38.4441833" lon="16.5782083"><ele>13.0</ele><time>2026-04-19T14:19:15.511Z</time></trkpt><trkpt lat="38.4440233" lon="16.5780533"><ele>13.0</ele><time>2026-04-19T14:19:16.511Z</time></trkpt><trkpt lat="38.4438517" lon="16.57793"><ele>13.0</ele><time>2026-04-19T14:19:17.511Z</time></trkpt><trkpt lat="38.4436533" lon="16.5778217"><ele>13.0</ele><time>2026-04-19T14:19:18.512Z</time></trkpt><trkpt lat="38.443445" lon="16.577715"><ele>13.0</ele><time>2026-04-19T14:19:19.512Z</time></trkpt><trkpt lat="38.44323" lon="16.5775967"><ele>13.0</ele><time>2026-04-19T14:19:20.511Z</time></trkpt><trkpt lat="38.4430133" lon="16.5774783"><ele>13.0</ele><time>2026-04-19T14:19:21.511Z</time></trkpt><trkpt lat="38.44279" lon="16.577365"><ele>12.5</ele><time>2026-04-19T14:19:22.511Z</time></trkpt><trkpt lat="38.442555" lon="16.5772583"><ele>12.0</ele><time>2026-04-19T14:19:23.512Z</time></trkpt><trkpt lat="38.4423267" lon="16.5771367"><ele>12.0</ele><time>2026-04-19T14:19:24.511Z</time></trkpt><trkpt lat="38.4420917" lon="16.5770367"><ele>12.0</ele><time>2026-04-19T14:19:25.511Z</time></trkpt><trkpt lat="38.441865" lon="16.5769217"><ele>11.5</ele><time>2026-04-19T14:19:26.511Z</time></trkpt><trkpt lat="38.4416317" lon="16.5768333"><ele>11.0</ele><time>2026-04-19T14:19:27.511Z</time></trkpt><trkpt lat="38.4414117" lon="16.5767367"><ele>10.0</ele><time>2026-04-19T14:19:28.512Z</time></trkpt><trkpt lat="38.4411917" lon="16.5766383"><ele>9.0</ele><time>2026-04-19T14:19:29.511Z</time></trkpt><trkpt lat="38.44097" lon="16.5765383"><ele>9.0</ele><time>2026-04-19T14:19:30.511Z</time></trkpt><trkpt lat="38.440745" lon="16.5764483"><ele>9.0</ele><time>2026-04-19T14:19:31.511Z</time></trkpt><trkpt lat="38.4405183" lon="16.5763533"><ele>9.333333333333334</ele><time>2026-04-19T14:19:32.512Z</time></trkpt><trkpt lat="38.4403117" lon="16.5762483"><ele>9.666666666666668</ele><time>2026-04-19T14:19:33.511Z</time></trkpt><trkpt lat="38.44012" lon="16.5761433"><ele>10.0</ele><time>2026-04-19T14:19:34.511Z</time></trkpt><trkpt lat="38.4399433" lon="16.5760617"><ele>10.0</ele><time>2026-04-19T14:19:35.511Z</time></trkpt><trkpt lat="38.439775" lon="16.5760117"><ele>10.0</ele><time>2026-04-19T14:19:36.511Z</time></trkpt><trkpt lat="38.4396183" lon="16.575945"><ele>10.0</ele><time>2026-04-19T14:19:37.511Z</time></trkpt><trkpt lat="38.4394717" lon="16.5758633"><ele>9.75</ele><time>2026-04-19T14:19:38.511Z</time></trkpt><trkpt lat="38.439335" lon="16.5757983"><ele>9.5</ele><time>2026-04-19T14:19:39.511Z</time></trkpt><trkpt lat="38.4392" lon="16.5757317"><ele>9.25</ele><time>2026-04-19T14:19:40.511Z</time></trkpt><trkpt lat="38.4390667" lon="16.5756783"><ele>9.0</ele><time>2026-04-19T14:19:41.511Z</time></trkpt><trkpt lat="38.4389283" lon="16.575625"><ele>9.333333333333334</ele><time>2026-04-19T14:19:42.511Z</time></trkpt><trkpt lat="38.4387717" lon="16.57557"><ele>9.666666666666668</ele><time>2026-04-19T14:19:43.511Z</time></trkpt><trkpt lat="38.438605" lon="16.5755033"><ele>10.0</ele><time>2026-04-19T14:19:44.511Z</time></trkpt><trkpt lat="38.4384317" lon="16.5754333"><ele>10.0</ele><time>2026-04-19T14:19:45.511Z</time></trkpt><trkpt lat="38.438255" lon="16.5753633"><ele>10.0</ele><time>2026-04-19T14:19:46.512Z</time></trkpt><trkpt lat="38.4380833" lon="16.5753117"><ele>10.0</ele><time>2026-04-19T14:19:47.511Z</time></trkpt><trkpt lat="38.4379317" lon="16.57526"><ele>10.75</ele><time>2026-04-19T14:19:48.511Z</time></trkpt><trkpt lat="38.43778" lon="16.5752167"><ele>11.5</ele><time>2026-04-19T14:19:49.511Z</time></trkpt><trkpt lat="38.4376367" lon="16.5751667"><ele>12.25</ele><time>2026-04-19T14:19:50.512Z</time></trkpt><trkpt lat="38.437505" lon="16.5751217"><ele>13.0</ele><time>2026-04-19T14:19:51.511Z</time></trkpt><trkpt lat="38.4373917" lon="16.5750883"><ele>13.0</ele><time>2026-04-19T14:19:52.511Z</time></trkpt><trkpt lat="38.4372817" lon="16.5750483"><ele>13.0</ele><time>2026-04-19T14:19:53.511Z</time></trkpt><trkpt lat="38.4371767" lon="16.5749933"><ele>13.0</ele><time>2026-04-19T14:19:54.511Z</time></trkpt><trkpt lat="38.4370833" lon="16.574955"><ele>13.0</ele><time>2026-04-19T14:19:55.511Z</time></trkpt><trkpt lat="38.4369883" lon="16.5749083"><ele>13.0</ele><time>2026-04-19T14:19:56.511Z</time></trkpt><trkpt lat="38.4368917" lon="16.5748683"><ele>12.75</ele><time>2026-04-19T14:19:57.511Z</time></trkpt><trkpt lat="38.4367917" lon="16.574835"><ele>12.5</ele><time>2026-04-19T14:19:58.511Z</time></trkpt><trkpt lat="38.43668" lon="16.5747917"><ele>12.25</ele><time>2026-04-19T14:19:59.512Z</time></trkpt><trkpt lat="38.43654" lon="16.57474"><ele>12.0</ele><time>2026-04-19T14:20:00.511Z</time></trkpt><trkpt lat="38.4363817" lon="16.57468"><ele>12.0</ele><time>2026-04-19T14:20:01.511Z</time></trkpt><trkpt lat="38.4362217" lon="16.5746183"><ele>12.0</ele><time>2026-04-19T14:20:02.512Z</time></trkpt><trkpt lat="38.4360567" lon="16.5745367"><ele>12.0</ele><time>2026-04-19T14:20:03.511Z</time></trkpt><trkpt lat="38.4358667" lon="16.57446"><ele>12.0</ele><time>2026-04-19T14:20:04.512Z</time></trkpt><trkpt lat="38.4356683" lon="16.5743783"><ele>12.0</ele><time>2026-04-19T14:20:05.512Z</time></trkpt><trkpt lat="38.435475" lon="16.57429"><ele>12.0</ele><time>2026-04-19T14:20:06.512Z</time></trkpt><trkpt lat="38.435275" lon="16.5741933"><ele>11.666666666666666</ele><time>2026-04-19T14:20:07.512Z</time></trkpt><trkpt lat="38.4350683" lon="16.5741183"><ele>11.333333333333332</ele><time>2026-04-19T14:20:08.511Z</time></trkpt><trkpt lat="38.4348533" lon="16.5740333"><ele>11.0</ele><time>2026-04-19T14:20:09.511Z</time></trkpt><trkpt lat="38.43464" lon="16.57395"><ele>10.666666666666666</ele><time>2026-04-19T14:20:10.512Z</time></trkpt><trkpt lat="38.4344367" lon="16.5738617"><ele>10.333333333333334</ele><time>2026-04-19T14:20:11.512Z</time></trkpt><trkpt lat="38.4342317" lon="16.5737867"><ele>10.0</ele><time>2026-04-19T14:20:12.511Z</time></trkpt><trkpt lat="38.4340367" lon="16.5737033"><ele>10.0</ele><time>2026-04-19T14:20:13.511Z</time></trkpt><trkpt lat="38.43385" lon="16.5736033"><ele>10.0</ele><time>2026-04-19T14:20:14.511Z</time></trkpt><trkpt lat="38.4336517" lon="16.5735267"><ele>10.0</ele><time>2026-04-19T14:20:15.511Z</time></trkpt><trkpt lat="38.433455" lon="16.5734667"><ele>9.0</ele><time>2026-04-19T14:20:16.512Z</time></trkpt><trkpt lat="38.4332817" lon="16.5733883"><ele>8.0</ele><time>2026-04-19T14:20:17.511Z</time></trkpt><trkpt lat="38.4331017" lon="16.5732883"><ele>7.0</ele><time>2026-04-19T14:20:18.511Z</time></trkpt><trkpt lat="38.4329183" lon="16.5731983"><ele>6.0</ele><time>2026-04-19T14:20:19.511Z</time></trkpt><trkpt lat="38.4327267" lon="16.5731117"><ele>5.0</ele><time>2026-04-19T14:20:20.512Z</time></trkpt><trkpt lat="38.4325283" lon="16.5730217"><ele>4.0</ele><time>2026-04-19T14:20:21.511Z</time></trkpt><trkpt lat="38.4323233" lon="16.5729333"><ele>5.0</ele><time>2026-04-19T14:20:22.511Z</time></trkpt><trkpt lat="38.432115" lon="16.572855"><ele>6.0</ele><time>2026-04-19T14:20:23.511Z</time></trkpt><trkpt lat="38.4319" lon="16.572765"><ele>7.0</ele><time>2026-04-19T14:20:24.511Z</time></trkpt><trkpt lat="38.431685" lon="16.57267"><ele>7.0</ele><time>2026-04-19T14:20:25.511Z</time></trkpt><trkpt lat="38.4314733" lon="16.5725683"><ele>7.0</ele><time>2026-04-19T14:20:26.511Z</time></trkpt><trkpt lat="38.4312583" lon="16.57246"><ele>6.0</ele><time>2026-04-19T14:20:27.511Z</time></trkpt><trkpt lat="38.4310533" lon="16.5723533"><ele>5.0</ele><time>2026-04-19T14:20:28.511Z</time></trkpt><trkpt lat="38.4308417" lon="16.57224"><ele>5.0</ele><time>2026-04-19T14:20:29.511Z</time></trkpt><trkpt lat="38.4306367" lon="16.5721317"><ele>5.0</ele><time>2026-04-19T14:20:30.512Z</time></trkpt><trkpt lat="38.4304333" lon="16.5720183"><ele>5.0</ele><time>2026-04-19T14:20:31.511Z</time></trkpt><trkpt lat="38.4302517" lon="16.5719083"><ele>5.2</ele><time>2026-04-19T14:20:32.512Z</time></trkpt><trkpt lat="38.4301083" lon="16.5718383"><ele>5.4</ele><time>2026-04-19T14:20:33.512Z</time></trkpt><trkpt lat="38.4300217" lon="16.571785"><ele>5.6</ele><time>2026-04-19T14:20:34.511Z</time></trkpt><trkpt lat="38.4299617" lon="16.5717483"><ele>5.8</ele><time>2026-04-19T14:20:35.511Z</time></trkpt><trkpt lat="38.42988" lon="16.5717083"><ele>6.0</ele><time>2026-04-19T14:20:37.511Z</time></trkpt><trkpt lat="38.4297867" lon="16.5716567"><ele>6.0</ele><time>2026-04-19T14:20:39.511Z</time></trkpt><trkpt lat="38.42965" lon="16.5715917"><ele>6.0</ele><time>2026-04-19T14:20:41.512Z</time></trkpt><trkpt lat="38.4295467" lon="16.57155"><ele>6.0</ele><time>2026-04-19T14:20:42.511Z</time></trkpt><trkpt lat="38.429405" lon="16.571485"><ele>6.0</ele><time>2026-04-19T14:20:43.511Z</time></trkpt><trkpt lat="38.42925" lon="16.5714033"><ele>6.333333333333334</ele><time>2026-04-19T14:20:44.511Z</time></trkpt><trkpt lat="38.4290783" lon="16.5713067"><ele>6.666666666666667</ele><time>2026-04-19T14:20:45.511Z</time></trkpt><trkpt lat="38.4289017" lon="16.5711983"><ele>7.0</ele><time>2026-04-19T14:20:46.511Z</time></trkpt><trkpt lat="38.4286983" lon="16.5710833"><ele>8.5</ele><time>2026-04-19T14:20:47.511Z</time></trkpt><trkpt lat="38.4284933" lon="16.570955"><ele>10.0</ele><time>2026-04-19T14:20:48.511Z</time></trkpt><trkpt lat="38.4282783" lon="16.5708167"><ele>10.0</ele><time>2026-04-19T14:20:49.511Z</time></trkpt><trkpt lat="38.4280667" lon="16.5706533"><ele>10.0</ele><time>2026-04-19T14:20:50.511Z</time></trkpt><trkpt lat="38.4278483" lon="16.57049"><ele>9.0</ele><time>2026-04-19T14:20:51.511Z</time></trkpt><trkpt lat="38.42762" lon="16.57033"><ele>8.0</ele><time>2026-04-19T14:20:52.511Z</time></trkpt><trkpt lat="38.42739" lon="16.570155"><ele>8.0</ele><time>2026-04-19T14:20:53.511Z</time></trkpt><trkpt lat="38.4271483" lon="16.5699833"><ele>8.0</ele><time>2026-04-19T14:20:54.511Z</time></trkpt><trkpt lat="38.4269017" lon="16.5698033"><ele>8.5</ele><time>2026-04-19T14:20:55.511Z</time></trkpt><trkpt lat="38.4266583" lon="16.5696167"><ele>9.0</ele><time>2026-04-19T14:20:56.511Z</time></trkpt><trkpt lat="38.4264133" lon="16.5694383"><ele>8.0</ele><time>2026-04-19T14:20:57.511Z</time></trkpt><trkpt lat="38.4261617" lon="16.5692533"><ele>7.0</ele><time>2026-04-19T14:20:58.511Z</time></trkpt><trkpt lat="38.4259083" lon="16.56907"><ele>7.0</ele><time>2026-04-19T14:20:59.511Z</time></trkpt><trkpt lat="38.4256533" lon="16.568875"><ele>7.0</ele><time>2026-04-19T14:21:00.511Z</time></trkpt><trkpt lat="38.4253983" lon="16.5686817"><ele>6.5</ele><time>2026-04-19T14:21:01.511Z</time></trkpt><trkpt lat="38.42515" lon="16.5684683"><ele>6.0</ele><time>2026-04-19T14:21:02.512Z</time></trkpt><trkpt lat="38.4248983" lon="16.5682383"><ele>6.0</ele><time>2026-04-19T14:21:03.511Z</time></trkpt><trkpt lat="38.4246533" lon="16.568"><ele>6.0</ele><time>2026-04-19T14:21:04.511Z</time></trkpt><trkpt lat="38.424415" lon="16.567755"><ele>6.0</ele><time>2026-04-19T14:21:05.511Z</time></trkpt><trkpt lat="38.4241817" lon="16.567515"><ele>6.0</ele><time>2026-04-19T14:21:06.511Z</time></trkpt><trkpt lat="38.423945" lon="16.567275"><ele>6.0</ele><time>2026-04-19T14:21:07.511Z</time></trkpt><trkpt lat="38.42371" lon="16.5670367"><ele>6.0</ele><time>2026-04-19T14:21:08.512Z</time></trkpt><trkpt lat="38.4234733" lon="16.5668017"><ele>6.0</ele><time>2026-04-19T14:21:09.511Z</time></trkpt><trkpt lat="38.4232367" lon="16.56657"><ele>6.0</ele><time>2026-04-19T14:21:10.511Z</time></trkpt><trkpt lat="38.4229983" lon="16.56633"><ele>7.5</ele><time>2026-04-19T14:21:11.511Z</time></trkpt><trkpt lat="38.422765" lon="16.5660833"><ele>9.0</ele><time>2026-04-19T14:21:12.512Z</time></trkpt><trkpt lat="38.4225283" lon="16.56584"><ele>9.0</ele><time>2026-04-19T14:21:13.511Z</time></trkpt><trkpt lat="38.4222883" lon="16.5656"><ele>9.0</ele><time>2026-04-19T14:21:14.511Z</time></trkpt><trkpt lat="38.4220517" lon="16.5653667"><ele>8.5</ele><time>2026-04-19T14:21:15.511Z</time></trkpt><trkpt lat="38.421815" lon="16.5651267"><ele>8.0</ele><time>2026-04-19T14:21:16.511Z</time></trkpt><trkpt lat="38.4215817" lon="16.564895"><ele>8.0</ele><time>2026-04-19T14:21:17.511Z</time></trkpt><trkpt lat="38.4213467" lon="16.5646567"><ele>8.0</ele><time>2026-04-19T14:21:18.511Z</time></trkpt><trkpt lat="38.4211117" lon="16.564415"><ele>8.5</ele><time>2026-04-19T14:21:19.511Z</time></trkpt><trkpt lat="38.420875" lon="16.5641733"><ele>9.0</ele><time>2026-04-19T14:21:20.511Z</time></trkpt><trkpt lat="38.4206417" lon="16.5639333"><ele>7.0</ele><time>2026-04-19T14:21:21.511Z</time></trkpt><trkpt lat="38.4204" lon="16.5636933"><ele>5.0</ele><time>2026-04-19T14:21:22.511Z</time></trkpt><trkpt lat="38.420165" lon="16.56346"><ele>5.0</ele><time>2026-04-19T14:21:23.512Z</time></trkpt><trkpt lat="38.4199233" lon="16.5632233"><ele>5.0</ele><time>2026-04-19T14:21:24.512Z</time></trkpt><trkpt lat="38.41969" lon="16.5629833"><ele>6.0</ele><time>2026-04-19T14:21:25.511Z</time></trkpt><trkpt lat="38.41945" lon="16.5627567"><ele>7.0</ele><time>2026-04-19T14:21:26.511Z</time></trkpt><trkpt lat="38.4192133" lon="16.562525"><ele>7.0</ele><time>2026-04-19T14:21:27.512Z</time></trkpt><trkpt lat="38.41897" lon="16.5622917"><ele>7.0</ele><time>2026-04-19T14:21:28.511Z</time></trkpt><trkpt lat="38.418735" lon="16.5620617"><ele>8.0</ele><time>2026-04-19T14:21:29.511Z</time></trkpt><trkpt lat="38.4185017" lon="16.5618317"><ele>9.0</ele><time>2026-04-19T14:21:30.511Z</time></trkpt><trkpt lat="38.4182767" lon="16.561595"><ele>9.0</ele><time>2026-04-19T14:21:31.512Z</time></trkpt><trkpt lat="38.4180517" lon="16.56136"><ele>9.0</ele><time>2026-04-19T14:21:32.511Z</time></trkpt><trkpt lat="38.41783" lon="16.5611283"><ele>9.0</ele><time>2026-04-19T14:21:33.511Z</time></trkpt><trkpt lat="38.41761" lon="16.5609"><ele>9.0</ele><time>2026-04-19T14:21:34.511Z</time></trkpt><trkpt lat="38.4173883" lon="16.5606817"><ele>9.0</ele><time>2026-04-19T14:21:35.512Z</time></trkpt><trkpt lat="38.4171567" lon="16.5604533"><ele>9.0</ele><time>2026-04-19T14:21:36.511Z</time></trkpt><trkpt lat="38.4169283" lon="16.5602233"><ele>9.5</ele><time>2026-04-19T14:21:37.511Z</time></trkpt><trkpt lat="38.4166983" lon="16.55999"><ele>10.0</ele><time>2026-04-19T14:21:38.512Z</time></trkpt><trkpt lat="38.4164617" lon="16.559755"><ele>9.0</ele><time>2026-04-19T14:21:39.511Z</time></trkpt><trkpt lat="38.4162267" lon="16.5595217"><ele>8.0</ele><time>2026-04-19T14:21:40.511Z</time></trkpt><trkpt lat="38.4159883" lon="16.559285"><ele>8.0</ele><time>2026-04-19T14:21:41.511Z</time></trkpt><trkpt lat="38.415745" lon="16.5590417"><ele>8.0</ele><time>2026-04-19T14:21:42.512Z</time></trkpt><trkpt lat="38.4155033" lon="16.558805"><ele>8.0</ele><time>2026-04-19T14:21:43.512Z</time></trkpt><trkpt lat="38.41527" lon="16.5585667"><ele>8.0</ele><time>2026-04-19T14:21:44.511Z</time></trkpt><trkpt lat="38.4150283" lon="16.5583233"><ele>8.0</ele><time>2026-04-19T14:21:45.512Z</time></trkpt><trkpt lat="38.41479" lon="16.55808"><ele>8.0</ele><time>2026-04-19T14:21:46.511Z</time></trkpt><trkpt lat="38.414545" lon="16.5578417"><ele>7.5</ele><time>2026-04-19T14:21:47.511Z</time></trkpt><trkpt lat="38.4143033" lon="16.5576067"><ele>7.0</ele><time>2026-04-19T14:21:48.511Z</time></trkpt><trkpt lat="38.4140667" lon="16.5573533"><ele>7.0</ele><time>2026-04-19T14:21:49.511Z</time></trkpt><trkpt lat="38.4138333" lon="16.5570983"><ele>7.0</ele><time>2026-04-19T14:21:50.512Z</time></trkpt><trkpt lat="38.4135917" lon="16.5568417"><ele>7.5</ele><time>2026-04-19T14:21:51.511Z</time></trkpt><trkpt lat="38.413355" lon="16.556585"><ele>8.0</ele><time>2026-04-19T14:21:52.512Z</time></trkpt><trkpt lat="38.4131233" lon="16.5563333"><ele>8.0</ele><time>2026-04-19T14:21:53.511Z</time></trkpt><trkpt lat="38.41289" lon="16.5560717"><ele>8.0</ele><time>2026-04-19T14:21:54.511Z</time></trkpt><trkpt lat="38.412655" lon="16.5558217"><ele>8.0</ele><time>2026-04-19T14:21:55.511Z</time></trkpt><trkpt lat="38.4124167" lon="16.5555733"><ele>8.0</ele><time>2026-04-19T14:21:56.511Z</time></trkpt><trkpt lat="38.41218" lon="16.5553233"><ele>7.5</ele><time>2026-04-19T14:21:57.511Z</time></trkpt><trkpt lat="38.4119467" lon="16.5550717"><ele>7.0</ele><time>2026-04-19T14:21:58.511Z</time></trkpt><trkpt lat="38.4117167" lon="16.55482"><ele>7.0</ele><time>2026-04-19T14:21:59.511Z</time></trkpt><trkpt lat="38.41149" lon="16.5545567"><ele>7.0</ele><time>2026-04-19T14:22:00.512Z</time></trkpt><trkpt lat="38.4112583" lon="16.5543017"><ele>6.0</ele><time>2026-04-19T14:22:01.511Z</time></trkpt><trkpt lat="38.4110233" lon="16.554045"><ele>5.0</ele><time>2026-04-19T14:22:02.511Z</time></trkpt><trkpt lat="38.4107917" lon="16.5537833"><ele>5.0</ele><time>2026-04-19T14:22:03.511Z</time></trkpt><trkpt lat="38.4105617" lon="16.5535133"><ele>5.0</ele><time>2026-04-19T14:22:04.512Z</time></trkpt><trkpt lat="38.41033" lon="16.5532567"><ele>5.0</ele><time>2026-04-19T14:22:05.511Z</time></trkpt><trkpt lat="38.4101117" lon="16.5529983"><ele>5.0</ele><time>2026-04-19T14:22:06.511Z</time></trkpt><trkpt lat="38.40989" lon="16.5527367"><ele>5.0</ele><time>2026-04-19T14:22:07.511Z</time></trkpt><trkpt lat="38.4096667" lon="16.5524767"><ele>5.0</ele><time>2026-04-19T14:22:08.511Z</time></trkpt><trkpt lat="38.4094467" lon="16.5522167"><ele>6.5</ele><time>2026-04-19T14:22:09.511Z</time></trkpt><trkpt lat="38.409225" lon="16.5519567"><ele>8.0</ele><time>2026-04-19T14:22:10.511Z</time></trkpt><trkpt lat="38.4090033" lon="16.5516983"><ele>8.0</ele><time>2026-04-19T14:22:11.511Z</time></trkpt><trkpt lat="38.4087833" lon="16.5514467"><ele>8.0</ele><time>2026-04-19T14:22:12.511Z</time></trkpt><trkpt lat="38.4085667" lon="16.5511917"><ele>8.0</ele><time>2026-04-19T14:22:13.511Z</time></trkpt><trkpt lat="38.408355" lon="16.5509333"><ele>8.0</ele><time>2026-04-19T14:22:14.511Z</time></trkpt><trkpt lat="38.4081417" lon="16.5506883"><ele>7.5</ele><time>2026-04-19T14:22:15.512Z</time></trkpt><trkpt lat="38.407935" lon="16.550445"><ele>7.0</ele><time>2026-04-19T14:22:16.511Z</time></trkpt><trkpt lat="38.407725" lon="16.5502"><ele>7.0</ele><time>2026-04-19T14:22:17.511Z</time></trkpt><trkpt lat="38.4075183" lon="16.5499617"><ele>7.0</ele><time>2026-04-19T14:22:18.511Z</time></trkpt><trkpt lat="38.40731" lon="16.5497333"><ele>6.5</ele><time>2026-04-19T14:22:19.511Z</time></trkpt><trkpt lat="38.4070917" lon="16.5495033"><ele>6.0</ele><time>2026-04-19T14:22:20.512Z</time></trkpt><trkpt lat="38.40687" lon="16.549265"><ele>6.0</ele><time>2026-04-19T14:22:21.511Z</time></trkpt><trkpt lat="38.4066433" lon="16.5490167"><ele>6.0</ele><time>2026-04-19T14:22:22.511Z</time></trkpt><trkpt lat="38.40642" lon="16.5487483"><ele>6.5</ele><time>2026-04-19T14:22:23.511Z</time></trkpt><trkpt lat="38.4062033" lon="16.5484767"><ele>7.0</ele><time>2026-04-19T14:22:24.511Z</time></trkpt><trkpt lat="38.4059883" lon="16.54821"><ele>7.0</ele><time>2026-04-19T14:22:25.511Z</time></trkpt><trkpt lat="38.405775" lon="16.5479483"><ele>7.0</ele><time>2026-04-19T14:22:26.511Z</time></trkpt><trkpt lat="38.405565" lon="16.547705"><ele>7.5</ele><time>2026-04-19T14:22:27.511Z</time></trkpt><trkpt lat="38.4053567" lon="16.5474583"><ele>8.0</ele><time>2026-04-19T14:22:28.511Z</time></trkpt><trkpt lat="38.405145" lon="16.547205"><ele>8.5</ele><time>2026-04-19T14:22:29.511Z</time></trkpt><trkpt lat="38.4049333" lon="16.5469583"><ele>9.0</ele><time>2026-04-19T14:22:30.511Z</time></trkpt><trkpt lat="38.4047217" lon="16.54671"><ele>9.0</ele><time>2026-04-19T14:22:31.512Z</time></trkpt><trkpt lat="38.4045133" lon="16.5464633"><ele>9.0</ele><time>2026-04-19T14:22:32.511Z</time></trkpt><trkpt lat="38.4043" lon="16.54621"><ele>9.0</ele><time>2026-04-19T14:22:33.511Z</time></trkpt><trkpt lat="38.4040867" lon="16.54596"><ele>9.0</ele><time>2026-04-19T14:22:34.511Z</time></trkpt><trkpt lat="38.4038683" lon="16.5457117"><ele>8.5</ele><time>2026-04-19T14:22:35.511Z</time></trkpt><trkpt lat="38.4036483" lon="16.545465"><ele>8.0</ele><time>2026-04-19T14:22:36.511Z</time></trkpt><trkpt lat="38.4034117" lon="16.5452283"><ele>8.0</ele><time>2026-04-19T14:22:37.511Z</time></trkpt><trkpt lat="38.4031767" lon="16.54499"><ele>8.0</ele><time>2026-04-19T14:22:38.511Z</time></trkpt><trkpt lat="38.4029467" lon="16.5447517"><ele>8.0</ele><time>2026-04-19T14:22:39.511Z</time></trkpt><trkpt lat="38.40271" lon="16.544515"><ele>8.0</ele><time>2026-04-19T14:22:40.512Z</time></trkpt><trkpt lat="38.4024783" lon="16.5442817"><ele>8.0</ele><time>2026-04-19T14:22:41.511Z</time></trkpt><trkpt lat="38.4022483" lon="16.544045"><ele>8.0</ele><time>2026-04-19T14:22:42.512Z</time></trkpt><trkpt lat="38.4020267" lon="16.5438"><ele>8.5</ele><time>2026-04-19T14:22:43.511Z</time></trkpt><trkpt lat="38.4017933" lon="16.5435583"><ele>9.0</ele><time>2026-04-19T14:22:44.511Z</time></trkpt><trkpt lat="38.4015583" lon="16.5433217"><ele>8.5</ele><time>2026-04-19T14:22:45.512Z</time></trkpt><trkpt lat="38.4013217" lon="16.5430833"><ele>8.0</ele><time>2026-04-19T14:22:46.511Z</time></trkpt><trkpt lat="38.4010833" lon="16.54285"><ele>8.0</ele><time>2026-04-19T14:22:47.511Z</time></trkpt><trkpt lat="38.4008383" lon="16.5426267"><ele>8.0</ele><time>2026-04-19T14:22:48.511Z</time></trkpt><trkpt lat="38.4005983" lon="16.5423917"><ele>7.5</ele><time>2026-04-19T14:22:49.511Z</time></trkpt><trkpt lat="38.4003683" lon="16.542145"><ele>7.0</ele><time>2026-04-19T14:22:50.511Z</time></trkpt><trkpt lat="38.40015" lon="16.5418917"><ele>8.0</ele><time>2026-04-19T14:22:51.512Z</time></trkpt><trkpt lat="38.3999367" lon="16.5416217"><ele>9.0</ele><time>2026-04-19T14:22:52.511Z</time></trkpt><trkpt lat="38.3997283" lon="16.5413467"><ele>8.5</ele><time>2026-04-19T14:22:53.511Z</time></trkpt><trkpt lat="38.39952" lon="16.5410733"><ele>8.0</ele><time>2026-04-19T14:22:54.511Z</time></trkpt><trkpt lat="38.3993067" lon="16.5407983"><ele>8.0</ele><time>2026-04-19T14:22:55.511Z</time></trkpt><trkpt lat="38.3990967" lon="16.5405283"><ele>8.0</ele><time>2026-04-19T14:22:56.511Z</time></trkpt><trkpt lat="38.3988883" lon="16.5402617"><ele>8.5</ele><time>2026-04-19T14:22:57.511Z</time></trkpt><trkpt lat="38.3986833" lon="16.5399817"><ele>9.0</ele><time>2026-04-19T14:22:58.511Z</time></trkpt><trkpt lat="38.39848" lon="16.5396883"><ele>9.5</ele><time>2026-04-19T14:22:59.511Z</time></trkpt><trkpt lat="38.3982717" lon="16.5394133"><ele>10.0</ele><time>2026-04-19T14:23:00.511Z</time></trkpt><trkpt lat="38.39807" lon="16.5391433"><ele>9.0</ele><time>2026-04-19T14:23:01.511Z</time></trkpt><trkpt lat="38.3978633" lon="16.5388633"><ele>8.0</ele><time>2026-04-19T14:23:02.511Z</time></trkpt><trkpt lat="38.3976583" lon="16.5385917"><ele>8.0</ele><time>2026-04-19T14:23:03.511Z</time></trkpt><trkpt lat="38.3974467" lon="16.5383217"><ele>8.0</ele><time>2026-04-19T14:23:04.511Z</time></trkpt><trkpt lat="38.397235" lon="16.53806"><ele>8.5</ele><time>2026-04-19T14:23:05.512Z</time></trkpt><trkpt lat="38.3970217" lon="16.5377983"><ele>9.0</ele><time>2026-04-19T14:23:06.511Z</time></trkpt><trkpt lat="38.3967967" lon="16.53754"><ele>9.0</ele><time>2026-04-19T14:23:07.511Z</time></trkpt><trkpt lat="38.3965767" lon="16.53727"><ele>9.0</ele><time>2026-04-19T14:23:08.511Z</time></trkpt><trkpt lat="38.3963533" lon="16.5370167"><ele>8.5</ele><time>2026-04-19T14:23:09.511Z</time></trkpt><trkpt lat="38.3961317" lon="16.536775"><ele>8.0</ele><time>2026-04-19T14:23:10.511Z</time></trkpt><trkpt lat="38.395915" lon="16.536525"><ele>8.0</ele><time>2026-04-19T14:23:11.511Z</time></trkpt><trkpt lat="38.3957" lon="16.53627"><ele>8.0</ele><time>2026-04-19T14:23:12.511Z</time></trkpt><trkpt lat="38.3954883" lon="16.53602"><ele>7.5</ele><time>2026-04-19T14:23:13.511Z</time></trkpt><trkpt lat="38.3952717" lon="16.5357733"><ele>7.0</ele><time>2026-04-19T14:23:14.511Z</time></trkpt><trkpt lat="38.3950567" lon="16.5355217"><ele>7.0</ele><time>2026-04-19T14:23:15.511Z</time></trkpt><trkpt lat="38.3948417" lon="16.535275"><ele>7.0</ele><time>2026-04-19T14:23:16.512Z</time></trkpt><trkpt lat="38.394635" lon="16.5350333"><ele>7.0</ele><time>2026-04-19T14:23:17.512Z</time></trkpt><trkpt lat="38.3944283" lon="16.53479"><ele>7.0</ele><time>2026-04-19T14:23:18.511Z</time></trkpt><trkpt lat="38.3942183" lon="16.5345483"><ele>7.5</ele><time>2026-04-19T14:23:19.511Z</time></trkpt><trkpt lat="38.3940117" lon="16.5343067"><ele>8.0</ele><time>2026-04-19T14:23:20.511Z</time></trkpt><trkpt lat="38.3938017" lon="16.53407"><ele>7.0</ele><time>2026-04-19T14:23:21.511Z</time></trkpt><trkpt lat="38.39359" lon="16.5338333"><ele>6.0</ele><time>2026-04-19T14:23:22.511Z</time></trkpt><trkpt lat="38.39337" lon="16.5336117"><ele>6.0</ele><time>2026-04-19T14:23:23.512Z</time></trkpt><trkpt lat="38.393165" lon="16.5333883"><ele>6.0</ele><time>2026-04-19T14:23:24.511Z</time></trkpt><trkpt lat="38.3929617" lon="16.5331533"><ele>6.5</ele><time>2026-04-19T14:23:25.511Z</time></trkpt><trkpt lat="38.3927583" lon="16.53293"><ele>7.0</ele><time>2026-04-19T14:23:26.511Z</time></trkpt><trkpt lat="38.3925533" lon="16.5327133"><ele>7.5</ele><time>2026-04-19T14:23:27.511Z</time></trkpt><trkpt lat="38.3923467" lon="16.5324867"><ele>8.0</ele><time>2026-04-19T14:23:28.511Z</time></trkpt><trkpt lat="38.3921433" lon="16.532245"><ele>8.5</ele><time>2026-04-19T14:23:29.511Z</time></trkpt><trkpt lat="38.3919483" lon="16.532015"><ele>9.0</ele><time>2026-04-19T14:23:30.511Z</time></trkpt><trkpt lat="38.3917667" lon="16.531785"><ele>9.0</ele><time>2026-04-19T14:23:31.511Z</time></trkpt><trkpt lat="38.3915917" lon="16.53157"><ele>9.0</ele><time>2026-04-19T14:23:32.511Z</time></trkpt><trkpt lat="38.3914333" lon="16.531355"><ele>8.666666666666666</ele><time>2026-04-19T14:23:33.511Z</time></trkpt><trkpt lat="38.3912833" lon="16.5311483"><ele>8.333333333333332</ele><time>2026-04-19T14:23:34.511Z</time></trkpt><trkpt lat="38.3911317" lon="16.5309583"><ele>8.0</ele><time>2026-04-19T14:23:35.511Z</time></trkpt><trkpt lat="38.390985" lon="16.5307817"><ele>8.0</ele><time>2026-04-19T14:23:36.511Z</time></trkpt><trkpt lat="38.39085" lon="16.5306183"><ele>8.0</ele><time>2026-04-19T14:23:37.511Z</time></trkpt><trkpt lat="38.3907133" lon="16.5304583"><ele>8.0</ele><time>2026-04-19T14:23:38.511Z</time></trkpt><trkpt lat="38.3905783" lon="16.53031"><ele>8.0</ele><time>2026-04-19T14:23:39.511Z</time></trkpt><trkpt lat="38.3904467" lon="16.530155"><ele>8.0</ele><time>2026-04-19T14:23:40.512Z</time></trkpt><trkpt lat="38.390315" lon="16.529985"><ele>8.0</ele><time>2026-04-19T14:23:41.512Z</time></trkpt><trkpt lat="38.3901667" lon="16.52981"><ele>8.0</ele><time>2026-04-19T14:23:42.511Z</time></trkpt><trkpt lat="38.39001" lon="16.5296117"><ele>8.0</ele><time>2026-04-19T14:23:43.512Z</time></trkpt><trkpt lat="38.3898467" lon="16.5294067"><ele>9.0</ele><time>2026-04-19T14:23:44.511Z</time></trkpt><trkpt lat="38.3896817" lon="16.5292067"><ele>10.0</ele><time>2026-04-19T14:23:45.511Z</time></trkpt><trkpt lat="38.3895183" lon="16.529"><ele>10.0</ele><time>2026-04-19T14:23:46.511Z</time></trkpt><trkpt lat="38.3893617" lon="16.5287917"><ele>10.0</ele><time>2026-04-19T14:23:47.511Z</time></trkpt><trkpt lat="38.3892167" lon="16.5285883"><ele>10.0</ele><time>2026-04-19T14:23:48.511Z</time></trkpt><trkpt lat="38.38908" lon="16.5284133"><ele>10.333333333333334</ele><time>2026-04-19T14:23:49.512Z</time></trkpt><trkpt lat="38.388955" lon="16.528255"><ele>10.666666666666666</ele><time>2026-04-19T14:23:50.511Z</time></trkpt><trkpt lat="38.38884" lon="16.5281167"><ele>11.0</ele><time>2026-04-19T14:23:51.511Z</time></trkpt><trkpt lat="38.3887317" lon="16.5279733"><ele>10.5</ele><time>2026-04-19T14:23:52.511Z</time></trkpt><trkpt lat="38.38862" lon="16.52785"><ele>10.0</ele><time>2026-04-19T14:23:53.511Z</time></trkpt><trkpt lat="38.3885067" lon="16.5277267"><ele>9.5</ele><time>2026-04-19T14:23:54.511Z</time></trkpt><trkpt lat="38.388395" lon="16.5276217"><ele>9.0</ele><time>2026-04-19T14:23:55.512Z</time></trkpt><trkpt lat="38.3882733" lon="16.5275217"><ele>9.0</ele><time>2026-04-19T14:23:56.512Z</time></trkpt><trkpt lat="38.3881367" lon="16.52742"><ele>9.0</ele><time>2026-04-19T14:23:57.511Z</time></trkpt><trkpt lat="38.3879867" lon="16.5273067"><ele>9.0</ele><time>2026-04-19T14:23:58.511Z</time></trkpt><trkpt lat="38.3878317" lon="16.5271833"><ele>9.333333333333334</ele><time>2026-04-19T14:23:59.511Z</time></trkpt><trkpt lat="38.3876733" lon="16.5270633"><ele>9.666666666666668</ele><time>2026-04-19T14:24:00.511Z</time></trkpt><trkpt lat="38.387525" lon="16.526965"><ele>10.0</ele><time>2026-04-19T14:24:01.511Z</time></trkpt><trkpt lat="38.38741" lon="16.526875"><ele>10.0</ele><time>2026-04-19T14:24:02.511Z</time></trkpt><trkpt lat="38.3873183" lon="16.5268067"><ele>10.0</ele><time>2026-04-19T14:24:03.511Z</time></trkpt><trkpt lat="38.3872333" lon="16.5267617"><ele>10.0</ele><time>2026-04-19T14:24:04.512Z</time></trkpt><trkpt lat="38.3871583" lon="16.5267183"><ele>10.0</ele><time>2026-04-19T14:24:05.511Z</time></trkpt><trkpt lat="38.3870917" lon="16.5266683"><ele>10.0</ele><time>2026-04-19T14:24:06.511Z</time></trkpt><trkpt lat="38.3870183" lon="16.526615"><ele>10.0</ele><time>2026-04-19T14:24:07.512Z</time></trkpt><trkpt lat="38.3869383" lon="16.5265583"><ele>9.0</ele><time>2026-04-19T14:24:08.511Z</time></trkpt><trkpt lat="38.3868483" lon="16.5265"><ele>8.0</ele><time>2026-04-19T14:24:09.512Z</time></trkpt><trkpt lat="38.38675" lon="16.5264267"><ele>7.0</ele><time>2026-04-19T14:24:10.511Z</time></trkpt><trkpt lat="38.38665" lon="16.5263333"><ele>6.0</ele><time>2026-04-19T14:24:11.512Z</time></trkpt><trkpt lat="38.3865383" lon="16.52623"><ele>6.333333333333334</ele><time>2026-04-19T14:24:12.511Z</time></trkpt><trkpt lat="38.3864133" lon="16.5261217"><ele>6.666666666666667</ele><time>2026-04-19T14:24:13.511Z</time></trkpt><trkpt lat="38.3862817" lon="16.5259933"><ele>7.0</ele><time>2026-04-19T14:24:14.511Z</time></trkpt><trkpt lat="38.3861433" lon="16.525845"><ele>6.333333333333334</ele><time>2026-04-19T14:24:15.512Z</time></trkpt><trkpt lat="38.3860067" lon="16.5256733"><ele>5.666666666666667</ele><time>2026-04-19T14:24:16.511Z</time></trkpt><trkpt lat="38.3858667" lon="16.525495"><ele>5.0</ele><time>2026-04-19T14:24:17.512Z</time></trkpt><trkpt lat="38.3857117" lon="16.52529"><ele>5.0</ele><time>2026-04-19T14:24:18.511Z</time></trkpt><trkpt lat="38.3855533" lon="16.52508"><ele>5.0</ele><time>2026-04-19T14:24:19.512Z</time></trkpt><trkpt lat="38.3853917" lon="16.5248533"><ele>5.0</ele><time>2026-04-19T14:24:20.511Z</time></trkpt><trkpt lat="38.3852283" lon="16.5246117"><ele>5.0</ele><time>2026-04-19T14:24:21.511Z</time></trkpt><trkpt lat="38.3850617" lon="16.524365"><ele>5.0</ele><time>2026-04-19T14:24:22.512Z</time></trkpt><trkpt lat="38.3848883" lon="16.52412"><ele>5.0</ele><time>2026-04-19T14:24:23.511Z</time></trkpt><trkpt lat="38.38471" lon="16.5238817"><ele>4.0</ele><time>2026-04-19T14:24:24.511Z</time></trkpt><trkpt lat="38.38453" lon="16.5236333"><ele>3.0</ele><time>2026-04-19T14:24:25.511Z</time></trkpt><trkpt lat="38.38435" lon="16.5233783"><ele>3.0</ele><time>2026-04-19T14:24:26.511Z</time></trkpt><trkpt lat="38.38417" lon="16.5231167"><ele>3.0</ele><time>2026-04-19T14:24:27.511Z</time></trkpt><trkpt lat="38.383985" lon="16.5228517"><ele>3.0</ele><time>2026-04-19T14:24:28.511Z</time></trkpt><trkpt lat="38.3838017" lon="16.5225783"><ele>3.0</ele><time>2026-04-19T14:24:29.511Z</time></trkpt><trkpt lat="38.383615" lon="16.5223167"><ele>5.5</ele><time>2026-04-19T14:24:30.511Z</time></trkpt><trkpt lat="38.3834283" lon="16.5220567"><ele>8.0</ele><time>2026-04-19T14:24:31.511Z</time></trkpt><trkpt lat="38.38324" lon="16.5217933"><ele>8.0</ele><time>2026-04-19T14:24:32.511Z</time></trkpt><trkpt lat="38.38305" lon="16.521525"><ele>8.0</ele><time>2026-04-19T14:24:33.511Z</time></trkpt><trkpt lat="38.3828583" lon="16.521265"><ele>7.5</ele><time>2026-04-19T14:24:34.511Z</time></trkpt><trkpt lat="38.3826683" lon="16.5210017"><ele>7.0</ele><time>2026-04-19T14:24:35.512Z</time></trkpt><trkpt lat="38.3824783" lon="16.52074"><ele>7.0</ele><time>2026-04-19T14:24:36.511Z</time></trkpt><trkpt lat="38.382295" lon="16.520485"><ele>7.0</ele><time>2026-04-19T14:24:37.512Z</time></trkpt><trkpt lat="38.3821083" lon="16.5202233"><ele>6.5</ele><time>2026-04-19T14:24:38.512Z</time></trkpt><trkpt lat="38.38192" lon="16.5199717"><ele>6.0</ele><time>2026-04-19T14:24:39.511Z</time></trkpt><trkpt lat="38.3817333" lon="16.519715"><ele>7.0</ele><time>2026-04-19T14:24:40.511Z</time></trkpt><trkpt lat="38.381545" lon="16.5194517"><ele>8.0</ele><time>2026-04-19T14:24:41.511Z</time></trkpt><trkpt lat="38.38135" lon="16.51919"><ele>8.0</ele><time>2026-04-19T14:24:42.511Z</time></trkpt><trkpt lat="38.3811467" lon="16.5189183"><ele>8.0</ele><time>2026-04-19T14:24:43.511Z</time></trkpt><trkpt lat="38.38095" lon="16.5186433"><ele>8.0</ele><time>2026-04-19T14:24:44.512Z</time></trkpt><trkpt lat="38.3807433" lon="16.5183767"><ele>8.0</ele><time>2026-04-19T14:24:45.511Z</time></trkpt><trkpt lat="38.380545" lon="16.5181"><ele>7.5</ele><time>2026-04-19T14:24:46.511Z</time></trkpt><trkpt lat="38.3803483" lon="16.5178383"><ele>7.0</ele><time>2026-04-19T14:24:47.511Z</time></trkpt><trkpt lat="38.3801467" lon="16.5175783"><ele>7.0</ele><time>2026-04-19T14:24:48.511Z</time></trkpt><trkpt lat="38.3799433" lon="16.5173133"><ele>7.0</ele><time>2026-04-19T14:24:49.511Z</time></trkpt><trkpt lat="38.3797467" lon="16.51704"><ele>6.5</ele><time>2026-04-19T14:24:50.512Z</time></trkpt><trkpt lat="38.379545" lon="16.5167683"><ele>6.0</ele><time>2026-04-19T14:24:51.511Z</time></trkpt><trkpt lat="38.3793383" lon="16.5164983"><ele>7.0</ele><time>2026-04-19T14:24:52.512Z</time></trkpt><trkpt lat="38.37914" lon="16.5162333"><ele>8.0</ele><time>2026-04-19T14:24:53.511Z</time></trkpt><trkpt lat="38.378935" lon="16.5159617"><ele>7.5</ele><time>2026-04-19T14:24:54.511Z</time></trkpt><trkpt lat="38.3787283" lon="16.5156983"><ele>7.0</ele><time>2026-04-19T14:24:55.511Z</time></trkpt><trkpt lat="38.3785317" lon="16.5154333"><ele>7.0</ele><time>2026-04-19T14:24:56.511Z</time></trkpt><trkpt lat="38.378335" lon="16.5151783"><ele>7.0</ele><time>2026-04-19T14:24:57.511Z</time></trkpt><trkpt lat="38.378145" lon="16.51493"><ele>7.0</ele><time>2026-04-19T14:24:58.511Z</time></trkpt><trkpt lat="38.3779567" lon="16.5146817"><ele>7.0</ele><time>2026-04-19T14:24:59.511Z</time></trkpt><trkpt lat="38.37777" lon="16.514445"><ele>7.0</ele><time>2026-04-19T14:25:00.511Z</time></trkpt><trkpt lat="38.37758" lon="16.5142"><ele>7.0</ele><time>2026-04-19T14:25:01.511Z</time></trkpt><trkpt lat="38.3773917" lon="16.5139533"><ele>6.5</ele><time>2026-04-19T14:25:02.511Z</time></trkpt><trkpt lat="38.3772017" lon="16.5137"><ele>6.0</ele><time>2026-04-19T14:25:03.511Z</time></trkpt><trkpt lat="38.3770033" lon="16.51345"><ele>6.0</ele><time>2026-04-19T14:25:04.511Z</time></trkpt><trkpt lat="38.3768067" lon="16.5131967"><ele>6.0</ele><time>2026-04-19T14:25:05.511Z</time></trkpt><trkpt lat="38.376605" lon="16.5129467"><ele>6.5</ele><time>2026-04-19T14:25:06.512Z</time></trkpt><trkpt lat="38.3764083" lon="16.51269"><ele>7.0</ele><time>2026-04-19T14:25:07.511Z</time></trkpt><trkpt lat="38.3762017" lon="16.512425"><ele>7.0</ele><time>2026-04-19T14:25:08.511Z</time></trkpt><trkpt lat="38.376" lon="16.512155"><ele>7.0</ele><time>2026-04-19T14:25:09.511Z</time></trkpt><trkpt lat="38.3757833" lon="16.51191"><ele>7.5</ele><time>2026-04-19T14:25:10.512Z</time></trkpt><trkpt lat="38.37557" lon="16.51167"><ele>8.0</ele><time>2026-04-19T14:25:11.511Z</time></trkpt><trkpt lat="38.3753367" lon="16.511435"><ele>8.5</ele><time>2026-04-19T14:25:12.511Z</time></trkpt><trkpt lat="38.37509" lon="16.5112117"><ele>9.0</ele><time>2026-04-19T14:25:13.511Z</time></trkpt><trkpt lat="38.3748317" lon="16.5109967"><ele>9.5</ele><time>2026-04-19T14:25:14.512Z</time></trkpt><trkpt lat="38.3745817" lon="16.5107733"><ele>10.0</ele><time>2026-04-19T14:25:15.511Z</time></trkpt><trkpt lat="38.3743417" lon="16.5105367"><ele>9.5</ele><time>2026-04-19T14:25:16.511Z</time></trkpt><trkpt lat="38.3741033" lon="16.510295"><ele>9.0</ele><time>2026-04-19T14:25:17.511Z</time></trkpt><trkpt lat="38.37386" lon="16.5100517"><ele>8.5</ele><time>2026-04-19T14:25:18.511Z</time></trkpt><trkpt lat="38.3736167" lon="16.509825"><ele>8.0</ele><time>2026-04-19T14:25:19.511Z</time></trkpt><trkpt lat="38.3733767" lon="16.5095983"><ele>8.0</ele><time>2026-04-19T14:25:20.511Z</time></trkpt><trkpt lat="38.373135" lon="16.5093733"><ele>8.0</ele><time>2026-04-19T14:25:21.511Z</time></trkpt><trkpt lat="38.372895" lon="16.5091483"><ele>8.0</ele><time>2026-04-19T14:25:22.511Z</time></trkpt><trkpt lat="38.3726567" lon="16.5089233"><ele>8.0</ele><time>2026-04-19T14:25:23.511Z</time></trkpt><trkpt lat="38.372415" lon="16.5086983"><ele>6.5</ele><time>2026-04-19T14:25:24.511Z</time></trkpt><trkpt lat="38.3721817" lon="16.5084817"><ele>5.0</ele><time>2026-04-19T14:25:25.512Z</time></trkpt><trkpt lat="38.37195" lon="16.5082667"><ele>5.0</ele><time>2026-04-19T14:25:26.511Z</time></trkpt><trkpt lat="38.3717233" lon="16.5080467"><ele>5.0</ele><time>2026-04-19T14:25:27.511Z</time></trkpt><trkpt lat="38.3714967" lon="16.5078383"><ele>5.0</ele><time>2026-04-19T14:25:28.512Z</time></trkpt><trkpt lat="38.371295" lon="16.5076233"><ele>5.0</ele><time>2026-04-19T14:25:29.511Z</time></trkpt><trkpt lat="38.3711233" lon="16.50738"><ele>5.0</ele><time>2026-04-19T14:25:30.511Z</time></trkpt><trkpt lat="38.3709817" lon="16.5070983"><ele>5.0</ele><time>2026-04-19T14:25:31.511Z</time></trkpt><trkpt lat="38.37086" lon="16.5067817"><ele>6.5</ele><time>2026-04-19T14:25:32.512Z</time></trkpt><trkpt lat="38.3707817" lon="16.5064483"><ele>8.0</ele><time>2026-04-19T14:25:33.511Z</time></trkpt><trkpt lat="38.3707567" lon="16.5060983"><ele>8.5</ele><time>2026-04-19T14:25:34.511Z</time></trkpt><trkpt lat="38.3707683" lon="16.5057483"><ele>9.0</ele><time>2026-04-19T14:25:35.511Z</time></trkpt><trkpt lat="38.3707917" lon="16.5053967"><ele>10.0</ele><time>2026-04-19T14:25:36.511Z</time></trkpt><trkpt lat="38.3708117" lon="16.50505"><ele>11.0</ele><time>2026-04-19T14:25:37.511Z</time></trkpt><trkpt lat="38.3708033" lon="16.5047133"><ele>14.0</ele><time>2026-04-19T14:25:38.512Z</time></trkpt><trkpt lat="38.370775" lon="16.5043833"><ele>17.0</ele><time>2026-04-19T14:25:39.512Z</time></trkpt><trkpt lat="38.3707217" lon="16.5040517"><ele>18.0</ele><time>2026-04-19T14:25:40.511Z</time></trkpt><trkpt lat="38.3706267" lon="16.5037367"><ele>19.0</ele><time>2026-04-19T14:25:41.511Z</time></trkpt><trkpt lat="38.3705" lon="16.5034467"><ele>16.5</ele><time>2026-04-19T14:25:42.511Z</time></trkpt><trkpt lat="38.370335" lon="16.5031883"><ele>14.0</ele><time>2026-04-19T14:25:43.512Z</time></trkpt><trkpt lat="38.3701267" lon="16.5029717"><ele>14.5</ele><time>2026-04-19T14:25:44.511Z</time></trkpt><trkpt lat="38.3698867" lon="16.5027833"><ele>15.0</ele><time>2026-04-19T14:25:45.512Z</time></trkpt><trkpt lat="38.3696183" lon="16.5026317"><ele>15.0</ele><time>2026-04-19T14:25:46.512Z</time></trkpt><trkpt lat="38.36934" lon="16.5025117"><ele>15.0</ele><time>2026-04-19T14:25:47.511Z</time></trkpt><trkpt lat="38.3690517" lon="16.5023717"><ele>13.5</ele><time>2026-04-19T14:25:48.511Z</time></trkpt><trkpt lat="38.3687633" lon="16.502235"><ele>12.0</ele><time>2026-04-19T14:25:49.511Z</time></trkpt><trkpt lat="38.3684867" lon="16.5020667"><ele>12.0</ele><time>2026-04-19T14:25:50.511Z</time></trkpt><trkpt lat="38.3682167" lon="16.5018667"><ele>12.0</ele><time>2026-04-19T14:25:51.511Z</time></trkpt><trkpt lat="38.36795" lon="16.5016467"><ele>12.0</ele><time>2026-04-19T14:25:52.511Z</time></trkpt><trkpt lat="38.3676933" lon="16.5014117"><ele>12.0</ele><time>2026-04-19T14:25:53.512Z</time></trkpt><trkpt lat="38.3674433" lon="16.501155"><ele>12.0</ele><time>2026-04-19T14:25:54.511Z</time></trkpt><trkpt lat="38.3672083" lon="16.5008767"><ele>12.0</ele><time>2026-04-19T14:25:55.511Z</time></trkpt><trkpt lat="38.3669833" lon="16.5005983"><ele>12.5</ele><time>2026-04-19T14:25:56.512Z</time></trkpt><trkpt lat="38.3667517" lon="16.50032"><ele>13.0</ele><time>2026-04-19T14:25:57.511Z</time></trkpt><trkpt lat="38.3665233" lon="16.50005"><ele>11.5</ele><time>2026-04-19T14:25:58.511Z</time></trkpt><trkpt lat="38.3663067" lon="16.4997883"><ele>10.0</ele><time>2026-04-19T14:25:59.511Z</time></trkpt><trkpt lat="38.3660917" lon="16.4995217"><ele>10.0</ele><time>2026-04-19T14:26:00.512Z</time></trkpt><trkpt lat="38.3658717" lon="16.499265"><ele>10.0</ele><time>2026-04-19T14:26:01.511Z</time></trkpt><trkpt lat="38.3656483" lon="16.4990167"><ele>9.5</ele><time>2026-04-19T14:26:02.511Z</time></trkpt><trkpt lat="38.3654317" lon="16.498765"><ele>9.0</ele><time>2026-04-19T14:26:03.511Z</time></trkpt><trkpt lat="38.3652217" lon="16.4985133"><ele>10.0</ele><time>2026-04-19T14:26:04.511Z</time></trkpt><trkpt lat="38.3650083" lon="16.4982583"><ele>11.0</ele><time>2026-04-19T14:26:05.511Z</time></trkpt><trkpt lat="38.3647967" lon="16.49801"><ele>9.5</ele><time>2026-04-19T14:26:06.511Z</time></trkpt><trkpt lat="38.3645817" lon="16.49776"><ele>8.0</ele><time>2026-04-19T14:26:07.511Z</time></trkpt><trkpt lat="38.3643667" lon="16.4975017"><ele>8.0</ele><time>2026-04-19T14:26:08.511Z</time></trkpt><trkpt lat="38.36415" lon="16.49724"><ele>8.0</ele><time>2026-04-19T14:26:09.511Z</time></trkpt><trkpt lat="38.3639417" lon="16.4969817"><ele>8.0</ele><time>2026-04-19T14:26:10.511Z</time></trkpt><trkpt lat="38.3637267" lon="16.49672"><ele>8.0</ele><time>2026-04-19T14:26:11.511Z</time></trkpt><trkpt lat="38.3635067" lon="16.49645"><ele>8.5</ele><time>2026-04-19T14:26:12.511Z</time></trkpt><trkpt lat="38.3632833" lon="16.4961867"><ele>9.0</ele><time>2026-04-19T14:26:13.511Z</time></trkpt><trkpt lat="38.3630583" lon="16.495925"><ele>8.5</ele><time>2026-04-19T14:26:14.511Z</time></trkpt><trkpt lat="38.3628433" lon="16.4956483"><ele>8.0</ele><time>2026-04-19T14:26:15.511Z</time></trkpt><trkpt lat="38.36263" lon="16.4953717"><ele>8.0</ele><time>2026-04-19T14:26:16.511Z</time></trkpt><trkpt lat="38.362425" lon="16.4951033"><ele>8.0</ele><time>2026-04-19T14:26:17.511Z</time></trkpt><trkpt lat="38.362235" lon="16.4948467"><ele>7.5</ele><time>2026-04-19T14:26:18.511Z</time></trkpt><trkpt lat="38.3620467" lon="16.4945833"><ele>7.0</ele><time>2026-04-19T14:26:19.511Z</time></trkpt><trkpt lat="38.3618617" lon="16.4943433"><ele>7.0</ele><time>2026-04-19T14:26:20.511Z</time></trkpt><trkpt lat="38.3616933" lon="16.494115"><ele>7.0</ele><time>2026-04-19T14:26:21.511Z</time></trkpt><trkpt lat="38.3615433" lon="16.4938933"><ele>6.5</ele><time>2026-04-19T14:26:22.512Z</time></trkpt><trkpt lat="38.36139" lon="16.4936483"><ele>6.0</ele><time>2026-04-19T14:26:23.511Z</time></trkpt><trkpt lat="38.3612383" lon="16.4934"><ele>6.0</ele><time>2026-04-19T14:26:24.512Z</time></trkpt><trkpt lat="38.3610817" lon="16.4931267"><ele>6.0</ele><time>2026-04-19T14:26:25.511Z</time></trkpt><trkpt lat="38.3609417" lon="16.4928583"><ele>9.0</ele><time>2026-04-19T14:26:26.511Z</time></trkpt><trkpt lat="38.3608083" lon="16.4925833"><ele>12.0</ele><time>2026-04-19T14:26:27.511Z</time></trkpt><trkpt lat="38.36068" lon="16.492315"><ele>13.0</ele><time>2026-04-19T14:26:28.511Z</time></trkpt><trkpt lat="38.360545" lon="16.49204"><ele>14.0</ele><time>2026-04-19T14:26:29.511Z</time></trkpt><trkpt lat="38.3604083" lon="16.49175"><ele>12.5</ele><time>2026-04-19T14:26:30.511Z</time></trkpt><trkpt lat="38.3602733" lon="16.4914433"><ele>11.0</ele><time>2026-04-19T14:26:31.512Z</time></trkpt><trkpt lat="38.3601317" lon="16.4911183"><ele>11.0</ele><time>2026-04-19T14:26:32.511Z</time></trkpt><trkpt lat="38.3599933" lon="16.49079"><ele>11.0</ele><time>2026-04-19T14:26:33.511Z</time></trkpt><trkpt lat="38.3598467" lon="16.4904533"><ele>9.5</ele><time>2026-04-19T14:26:34.511Z</time></trkpt><trkpt lat="38.3596883" lon="16.490125"><ele>8.0</ele><time>2026-04-19T14:26:35.511Z</time></trkpt><trkpt lat="38.3595317" lon="16.489795"><ele>7.5</ele><time>2026-04-19T14:26:36.511Z</time></trkpt><trkpt lat="38.3593867" lon="16.48947"><ele>7.0</ele><time>2026-04-19T14:26:37.511Z</time></trkpt><trkpt lat="38.359235" lon="16.489165"><ele>7.0</ele><time>2026-04-19T14:26:38.511Z</time></trkpt><trkpt lat="38.359085" lon="16.4888633"><ele>7.0</ele><time>2026-04-19T14:26:39.511Z</time></trkpt><trkpt lat="38.3589333" lon="16.4885667"><ele>7.5</ele><time>2026-04-19T14:26:40.511Z</time></trkpt><trkpt lat="38.3587767" lon="16.4882833"><ele>8.0</ele><time>2026-04-19T14:26:41.511Z</time></trkpt><trkpt lat="38.3585967" lon="16.488015"><ele>8.5</ele><time>2026-04-19T14:26:42.511Z</time></trkpt><trkpt lat="38.3583983" lon="16.487755"><ele>9.0</ele><time>2026-04-19T14:26:43.512Z</time></trkpt><trkpt lat="38.358195" lon="16.4874833"><ele>8.5</ele><time>2026-04-19T14:26:44.511Z</time></trkpt><trkpt lat="38.358" lon="16.4872067"><ele>8.0</ele><time>2026-04-19T14:26:45.511Z</time></trkpt><trkpt lat="38.357805" lon="16.4869033"><ele>8.0</ele><time>2026-04-19T14:26:46.512Z</time></trkpt><trkpt lat="38.3576183" lon="16.4866017"><ele>8.0</ele><time>2026-04-19T14:26:47.511Z</time></trkpt><trkpt lat="38.35743" lon="16.4863217"><ele>9.0</ele><time>2026-04-19T14:26:48.511Z</time></trkpt><trkpt lat="38.357235" lon="16.4860433"><ele>10.0</ele><time>2026-04-19T14:26:49.511Z</time></trkpt><trkpt lat="38.3570483" lon="16.4857817"><ele>10.0</ele><time>2026-04-19T14:26:50.512Z</time></trkpt><trkpt lat="38.35687" lon="16.48553"><ele>10.0</ele><time>2026-04-19T14:26:51.512Z</time></trkpt><trkpt lat="38.356695" lon="16.4852783"><ele>10.5</ele><time>2026-04-19T14:26:52.511Z</time></trkpt><trkpt lat="38.35652" lon="16.4850417"><ele>11.0</ele><time>2026-04-19T14:26:53.511Z</time></trkpt><trkpt lat="38.356345" lon="16.4848017"><ele>9.5</ele><time>2026-04-19T14:26:54.511Z</time></trkpt><trkpt lat="38.3561883" lon="16.4845633"><ele>8.0</ele><time>2026-04-19T14:26:55.511Z</time></trkpt><trkpt lat="38.3560283" lon="16.484335"><ele>8.0</ele><time>2026-04-19T14:26:56.511Z</time></trkpt><trkpt lat="38.3558683" lon="16.4841133"><ele>8.0</ele><time>2026-04-19T14:26:57.511Z</time></trkpt><trkpt lat="38.3556967" lon="16.4838717"><ele>8.5</ele><time>2026-04-19T14:26:58.511Z</time></trkpt><trkpt lat="38.35552" lon="16.4836383"><ele>9.0</ele><time>2026-04-19T14:26:59.511Z</time></trkpt><trkpt lat="38.3553533" lon="16.48339"><ele>9.0</ele><time>2026-04-19T14:27:00.511Z</time></trkpt><trkpt lat="38.355185" lon="16.4831433"><ele>9.0</ele><time>2026-04-19T14:27:01.511Z</time></trkpt><trkpt lat="38.3550283" lon="16.4829067"><ele>10.0</ele><time>2026-04-19T14:27:02.511Z</time></trkpt><trkpt lat="38.3548633" lon="16.4826833"><ele>11.0</ele><time>2026-04-19T14:27:03.511Z</time></trkpt><trkpt lat="38.3546967" lon="16.4824733"><ele>10.666666666666666</ele><time>2026-04-19T14:27:04.511Z</time></trkpt><trkpt lat="38.3545433" lon="16.482275"><ele>10.333333333333334</ele><time>2026-04-19T14:27:05.511Z</time></trkpt><trkpt lat="38.3544" lon="16.4820817"><ele>10.0</ele><time>2026-04-19T14:27:06.511Z</time></trkpt><trkpt lat="38.3542683" lon="16.4818983"><ele>10.0</ele><time>2026-04-19T14:27:07.511Z</time></trkpt><trkpt lat="38.3541483" lon="16.4817183"><ele>10.0</ele><time>2026-04-19T14:27:08.511Z</time></trkpt><trkpt lat="38.3540333" lon="16.4815517"><ele>10.0</ele><time>2026-04-19T14:27:09.512Z</time></trkpt><trkpt lat="38.3539183" lon="16.4814017"><ele>9.333333333333334</ele><time>2026-04-19T14:27:10.512Z</time></trkpt><trkpt lat="38.3538133" lon="16.481255"><ele>8.666666666666666</ele><time>2026-04-19T14:27:11.511Z</time></trkpt><trkpt lat="38.3537117" lon="16.4811133"><ele>8.0</ele><time>2026-04-19T14:27:12.512Z</time></trkpt><trkpt lat="38.353605" lon="16.480965"><ele>8.0</ele><time>2026-04-19T14:27:13.512Z</time></trkpt><trkpt lat="38.3534983" lon="16.4808167"><ele>8.0</ele><time>2026-04-19T14:27:14.512Z</time></trkpt><trkpt lat="38.353405" lon="16.48068"><ele>8.0</ele><time>2026-04-19T14:27:15.511Z</time></trkpt><trkpt lat="38.3533283" lon="16.4805567"><ele>8.0</ele><time>2026-04-19T14:27:16.511Z</time></trkpt><trkpt lat="38.3532467" lon="16.4804333"><ele>8.166666666666666</ele><time>2026-04-19T14:27:17.511Z</time></trkpt><trkpt lat="38.3531717" lon="16.4803267"><ele>8.333333333333332</ele><time>2026-04-19T14:27:18.511Z</time></trkpt><trkpt lat="38.3531183" lon="16.4802233"><ele>8.5</ele><time>2026-04-19T14:27:19.512Z</time></trkpt><trkpt lat="38.3530617" lon="16.48014"><ele>8.666666666666666</ele><time>2026-04-19T14:27:20.511Z</time></trkpt><trkpt lat="38.35302" lon="16.4800683"><ele>8.833333333333334</ele><time>2026-04-19T14:27:21.511Z</time></trkpt><trkpt lat="38.3529783" lon="16.4799883"><ele>9.0</ele><time>2026-04-19T14:27:24.511Z</time></trkpt><trkpt lat="38.3530533" lon="16.479985"><ele>9.0</ele><time>2026-04-19T14:36:01.511Z</time></trkpt><trkpt lat="38.3529617" lon="16.47993"><ele>9.0</ele><time>2026-04-19T14:36:14.511Z</time></trkpt><trkpt lat="38.3529017" lon="16.4798717"><ele>9.0</ele><time>2026-04-19T14:36:15.512Z</time></trkpt><trkpt lat="38.3528267" lon="16.4797883"><ele>9.0</ele><time>2026-04-19T14:36:16.511Z</time></trkpt><trkpt lat="38.3527383" lon="16.4796817"><ele>9.0</ele><time>2026-04-19T14:36:17.511Z</time></trkpt><trkpt lat="38.3526383" lon="16.4795567"><ele>8.666666666666666</ele><time>2026-04-19T14:36:18.511Z</time></trkpt><trkpt lat="38.3525367" lon="16.479425"><ele>8.333333333333332</ele><time>2026-04-19T14:36:19.511Z</time></trkpt><trkpt lat="38.3524283" lon="16.4792783"><ele>8.0</ele><time>2026-04-19T14:36:20.512Z</time></trkpt><trkpt lat="38.3523183" lon="16.479125"><ele>8.0</ele><time>2026-04-19T14:36:21.512Z</time></trkpt><trkpt lat="38.3522033" lon="16.4789633"><ele>8.0</ele><time>2026-04-19T14:36:22.511Z</time></trkpt><trkpt lat="38.352095" lon="16.4788017"><ele>8.0</ele><time>2026-04-19T14:36:23.511Z</time></trkpt><trkpt lat="38.351985" lon="16.4786267"><ele>8.0</ele><time>2026-04-19T14:36:24.511Z</time></trkpt><trkpt lat="38.35187" lon="16.4784467"><ele>8.0</ele><time>2026-04-19T14:36:25.511Z</time></trkpt><trkpt lat="38.3517483" lon="16.4782683"><ele>8.0</ele><time>2026-04-19T14:36:26.512Z</time></trkpt><trkpt lat="38.3516233" lon="16.4780983"><ele>8.0</ele><time>2026-04-19T14:36:27.511Z</time></trkpt><trkpt lat="38.3515017" lon="16.4779183"><ele>8.0</ele><time>2026-04-19T14:36:28.511Z</time></trkpt><trkpt lat="38.3513683" lon="16.4777317"><ele>8.0</ele><time>2026-04-19T14:36:29.511Z</time></trkpt><trkpt lat="38.3512433" lon="16.47755"><ele>8.0</ele><time>2026-04-19T14:36:30.512Z</time></trkpt><trkpt lat="38.3511183" lon="16.47736"><ele>8.0</ele><time>2026-04-19T14:36:31.511Z</time></trkpt><trkpt lat="38.3509967" lon="16.4771767"><ele>8.0</ele><time>2026-04-19T14:36:32.512Z</time></trkpt><trkpt lat="38.35087" lon="16.476995"><ele>8.666666666666666</ele><time>2026-04-19T14:36:33.512Z</time></trkpt><trkpt lat="38.3507383" lon="16.4768033"><ele>9.333333333333334</ele><time>2026-04-19T14:36:34.511Z</time></trkpt><trkpt lat="38.3506117" lon="16.476605"><ele>10.0</ele><time>2026-04-19T14:36:35.512Z</time></trkpt><trkpt lat="38.3504833" lon="16.476415"><ele>9.0</ele><time>2026-04-19T14:36:36.511Z</time></trkpt><trkpt lat="38.350345" lon="16.47622"><ele>8.0</ele><time>2026-04-19T14:36:37.511Z</time></trkpt><trkpt lat="38.3502017" lon="16.4760417"><ele>7.0</ele><time>2026-04-19T14:36:38.511Z</time></trkpt><trkpt lat="38.3500617" lon="16.475855"><ele>7.0</ele><time>2026-04-19T14:36:39.512Z</time></trkpt><trkpt lat="38.3499267" lon="16.475655"><ele>7.0</ele><time>2026-04-19T14:36:40.511Z</time></trkpt><trkpt lat="38.3497867" lon="16.4754533"><ele>7.0</ele><time>2026-04-19T14:36:41.511Z</time></trkpt><trkpt lat="38.34965" lon="16.4752483"><ele>7.666666666666667</ele><time>2026-04-19T14:36:42.511Z</time></trkpt><trkpt lat="38.3495183" lon="16.4750483"><ele>8.333333333333334</ele><time>2026-04-19T14:36:43.512Z</time></trkpt><trkpt lat="38.3493833" lon="16.4748417"><ele>9.0</ele><time>2026-04-19T14:36:44.512Z</time></trkpt><trkpt lat="38.349245" lon="16.474645"><ele>9.666666666666666</ele><time>2026-04-19T14:36:45.511Z</time></trkpt><trkpt lat="38.3491017" lon="16.4744517"><ele>10.333333333333332</ele><time>2026-04-19T14:36:46.511Z</time></trkpt><trkpt lat="38.34896" lon="16.4742517"><ele>11.0</ele><time>2026-04-19T14:36:47.511Z</time></trkpt><trkpt lat="38.34882" lon="16.474055"><ele>10.333333333333332</ele><time>2026-04-19T14:36:48.511Z</time></trkpt><trkpt lat="38.3486767" lon="16.4738533"><ele>9.666666666666666</ele><time>2026-04-19T14:36:49.511Z</time></trkpt><trkpt lat="38.34854" lon="16.473655"><ele>9.0</ele><time>2026-04-19T14:36:50.511Z</time></trkpt><trkpt lat="38.3484017" lon="16.47345"><ele>9.0</ele><time>2026-04-19T14:36:51.511Z</time></trkpt><trkpt lat="38.3482617" lon="16.4732467"><ele>9.0</ele><time>2026-04-19T14:36:52.511Z</time></trkpt><trkpt lat="38.3481217" lon="16.4730483"><ele>9.0</ele><time>2026-04-19T14:36:53.512Z</time></trkpt><trkpt lat="38.347985" lon="16.47285"><ele>8.333333333333334</ele><time>2026-04-19T14:36:54.511Z</time></trkpt><trkpt lat="38.3478483" lon="16.4726483"><ele>7.666666666666667</ele><time>2026-04-19T14:36:55.511Z</time></trkpt><trkpt lat="38.3477167" lon="16.4724483"><ele>7.0</ele><time>2026-04-19T14:36:56.511Z</time></trkpt><trkpt lat="38.3475783" lon="16.47225"><ele>7.333333333333334</ele><time>2026-04-19T14:36:57.511Z</time></trkpt><trkpt lat="38.347435" lon="16.4720467"><ele>7.666666666666666</ele><time>2026-04-19T14:36:58.511Z</time></trkpt><trkpt lat="38.3472933" lon="16.4718417"><ele>8.0</ele><time>2026-04-19T14:36:59.512Z</time></trkpt><trkpt lat="38.3471483" lon="16.4716333"><ele>8.0</ele><time>2026-04-19T14:37:00.511Z</time></trkpt><trkpt lat="38.3470033" lon="16.4714283"><ele>8.0</ele><time>2026-04-19T14:37:01.512Z</time></trkpt><trkpt lat="38.3468583" lon="16.47122"><ele>8.0</ele><time>2026-04-19T14:37:02.511Z</time></trkpt><trkpt lat="38.3467133" lon="16.4709983"><ele>8.666666666666666</ele><time>2026-04-19T14:37:03.512Z</time></trkpt><trkpt lat="38.346575" lon="16.4707983"><ele>9.333333333333334</ele><time>2026-04-19T14:37:04.511Z</time></trkpt><trkpt lat="38.34644" lon="16.4706017"><ele>10.0</ele><time>2026-04-19T14:37:05.511Z</time></trkpt><trkpt lat="38.346305" lon="16.4704167"><ele>10.0</ele><time>2026-04-19T14:37:06.511Z</time></trkpt><trkpt lat="38.3461817" lon="16.4702333"><ele>10.0</ele><time>2026-04-19T14:37:07.511Z</time></trkpt><trkpt lat="38.3460633" lon="16.47006"><ele>10.0</ele><time>2026-04-19T14:37:08.511Z</time></trkpt><trkpt lat="38.3459417" lon="16.4698933"><ele>10.0</ele><time>2026-04-19T14:37:09.512Z</time></trkpt><trkpt lat="38.3458167" lon="16.469725"><ele>10.0</ele><time>2026-04-19T14:37:10.511Z</time></trkpt><trkpt lat="38.3457083" lon="16.4695467"><ele>10.0</ele><time>2026-04-19T14:37:11.511Z</time></trkpt><trkpt lat="38.3455917" lon="16.469375"><ele>9.666666666666668</ele><time>2026-04-19T14:37:12.512Z</time></trkpt><trkpt lat="38.3454817" lon="16.4692217"><ele>9.333333333333334</ele><time>2026-04-19T14:37:13.512Z</time></trkpt><trkpt lat="38.3453667" lon="16.4690717"><ele>9.0</ele><time>2026-04-19T14:37:14.512Z</time></trkpt><trkpt lat="38.3452617" lon="16.4689383"><ele>9.0</ele><time>2026-04-19T14:37:15.511Z</time></trkpt><trkpt lat="38.345175" lon="16.4687917"><ele>9.0</ele><time>2026-04-19T14:37:16.511Z</time></trkpt><trkpt lat="38.3450933" lon="16.46866"><ele>9.0</ele><time>2026-04-19T14:37:17.511Z</time></trkpt><trkpt lat="38.345025" lon="16.4685283"><ele>9.0</ele><time>2026-04-19T14:37:18.511Z</time></trkpt><trkpt lat="38.344975" lon="16.46842"><ele>9.2</ele><time>2026-04-19T14:37:19.511Z</time></trkpt><trkpt lat="38.344935" lon="16.4683183"><ele>9.4</ele><time>2026-04-19T14:37:20.511Z</time></trkpt><trkpt lat="38.3449033" lon="16.4682333"><ele>9.6</ele><time>2026-04-19T14:37:21.512Z</time></trkpt><trkpt lat="38.344865" lon="16.4680933"><ele>9.8</ele><time>2026-04-19T14:37:23.511Z</time></trkpt><trkpt lat="38.3448567" lon="16.4679583"><ele>10.0</ele><time>2026-04-19T14:37:25.511Z</time></trkpt><trkpt lat="38.344875" lon="16.4678067"><ele>10.166666666666668</ele><time>2026-04-19T14:37:27.512Z</time></trkpt><trkpt lat="38.3448517" lon="16.4676717"><ele>10.333333333333334</ele><time>2026-04-19T14:37:29.511Z</time></trkpt><trkpt lat="38.3447533" lon="16.4675717"><ele>10.5</ele><time>2026-04-19T14:37:31.511Z</time></trkpt><trkpt lat="38.3446867" lon="16.4675367"><ele>10.666666666666666</ele><time>2026-04-19T14:37:32.512Z</time></trkpt><trkpt lat="38.3446267" lon="16.4675033"><ele>10.833333333333332</ele><time>2026-04-19T14:37:33.511Z</time></trkpt><trkpt lat="38.344565" lon="16.4674533"><ele>11.0</ele><time>2026-04-19T14:37:34.511Z</time></trkpt><trkpt lat="38.3445067" lon="16.4673867"><ele>10.8</ele><time>2026-04-19T14:37:35.511Z</time></trkpt><trkpt lat="38.3444517" lon="16.467315"><ele>10.600000000000001</ele><time>2026-04-19T14:37:36.511Z</time></trkpt><trkpt lat="38.3444067" lon="16.4672333"><ele>10.4</ele><time>2026-04-19T14:37:37.511Z</time></trkpt><trkpt lat="38.3443667" lon="16.4671517"><ele>10.2</ele><time>2026-04-19T14:37:38.512Z</time></trkpt><trkpt lat="38.3442917" lon="16.4670217"><ele>10.0</ele><time>2026-04-19T14:37:40.511Z</time></trkpt><trkpt lat="38.3442117" lon="16.4669167"><ele>10.0</ele><time>2026-04-19T14:37:42.511Z</time></trkpt><trkpt lat="38.344125" lon="16.46681"><ele>10.0</ele><time>2026-04-19T14:37:44.512Z</time></trkpt><trkpt lat="38.3440767" lon="16.4667483"><ele>10.0</ele><time>2026-04-19T14:37:45.511Z</time></trkpt><trkpt lat="38.3440233" lon="16.4666883"><ele>10.0</ele><time>2026-04-19T14:37:46.511Z</time></trkpt><trkpt lat="38.3439633" lon="16.4666217"><ele>10.0</ele><time>2026-04-19T14:37:47.511Z</time></trkpt><trkpt lat="38.3438983" lon="16.4665533"><ele>10.0</ele><time>2026-04-19T14:37:48.511Z</time></trkpt><trkpt lat="38.343835" lon="16.4664817"><ele>9.8</ele><time>2026-04-19T14:37:49.511Z</time></trkpt><trkpt lat="38.3437633" lon="16.4664117"><ele>9.6</ele><time>2026-04-19T14:37:50.512Z</time></trkpt><trkpt lat="38.3436967" lon="16.4663233"><ele>9.4</ele><time>2026-04-19T14:37:51.511Z</time></trkpt><trkpt lat="38.3436317" lon="16.4662267"><ele>9.2</ele><time>2026-04-19T14:37:52.511Z</time></trkpt><trkpt lat="38.3435583" lon="16.4661433"><ele>9.0</ele><time>2026-04-19T14:37:53.511Z</time></trkpt><trkpt lat="38.3434867" lon="16.4660533"><ele>8.833333333333334</ele><time>2026-04-19T14:37:54.512Z</time></trkpt><trkpt lat="38.343425" lon="16.465965"><ele>8.666666666666666</ele><time>2026-04-19T14:37:55.512Z</time></trkpt><trkpt lat="38.34337" lon="16.465875"><ele>8.5</ele><time>2026-04-19T14:37:56.511Z</time></trkpt><trkpt lat="38.3433217" lon="16.465785"><ele>8.333333333333332</ele><time>2026-04-19T14:37:57.511Z</time></trkpt><trkpt lat="38.34328" lon="16.4656883"><ele>8.166666666666666</ele><time>2026-04-19T14:37:58.511Z</time></trkpt><trkpt lat="38.3432367" lon="16.4655883"><ele>8.0</ele><time>2026-04-19T14:37:59.511Z</time></trkpt><trkpt lat="38.3431933" lon="16.465485"><ele>7.800000000000001</ele><time>2026-04-19T14:38:00.511Z</time></trkpt><trkpt lat="38.3431467" lon="16.4653667"><ele>7.6000000000000005</ele><time>2026-04-19T14:38:01.511Z</time></trkpt><trkpt lat="38.3430933" lon="16.4652433"><ele>7.3999999999999995</ele><time>2026-04-19T14:38:02.511Z</time></trkpt><trkpt lat="38.34305" lon="16.4651183"><ele>7.199999999999999</ele><time>2026-04-19T14:38:03.511Z</time></trkpt><trkpt lat="38.343" lon="16.465"><ele>7.0</ele><time>2026-04-19T14:38:04.512Z</time></trkpt><trkpt lat="38.3429567" lon="16.4648817"><ele>7.0</ele><time>2026-04-19T14:38:05.511Z</time></trkpt><trkpt lat="38.3429167" lon="16.4647583"><ele>6.999999999999999</ele><time>2026-04-19T14:38:06.512Z</time></trkpt><trkpt lat="38.3428717" lon="16.464645"><ele>6.999999999999999</ele><time>2026-04-19T14:38:07.511Z</time></trkpt><trkpt lat="38.34282" lon="16.4645333"><ele>7.0</ele><time>2026-04-19T14:38:08.511Z</time></trkpt><trkpt lat="38.3427717" lon="16.4644283"><ele>7.0</ele><time>2026-04-19T14:38:09.512Z</time></trkpt><trkpt lat="38.34272" lon="16.464325"><ele>7.0</ele><time>2026-04-19T14:38:10.511Z</time></trkpt><trkpt lat="38.3426667" lon="16.4642117"><ele>7.0</ele><time>2026-04-19T14:38:11.511Z</time></trkpt><trkpt lat="38.3426133" lon="16.464085"><ele>7.0</ele><time>2026-04-19T14:38:12.511Z</time></trkpt><trkpt lat="38.3425633" lon="16.4639333"><ele>7.0</ele><time>2026-04-19T14:38:13.511Z</time></trkpt><trkpt lat="38.342505" lon="16.4637717"><ele>7.0</ele><time>2026-04-19T14:38:14.511Z</time></trkpt><trkpt lat="38.3424433" lon="16.46359"><ele>7.0</ele><time>2026-04-19T14:38:15.512Z</time></trkpt><trkpt lat="38.3423767" lon="16.4634017"><ele>7.0</ele><time>2026-04-19T14:38:16.511Z</time></trkpt><trkpt lat="38.3423017" lon="16.4632"><ele>7.0</ele><time>2026-04-19T14:38:17.511Z</time></trkpt><trkpt lat="38.3422167" lon="16.4629917"><ele>7.0</ele><time>2026-04-19T14:38:18.511Z</time></trkpt><trkpt lat="38.34213" lon="16.4627767"><ele>7.0</ele><time>2026-04-19T14:38:19.511Z</time></trkpt><trkpt lat="38.3420417" lon="16.4625417"><ele>7.333333333333334</ele><time>2026-04-19T14:38:20.511Z</time></trkpt><trkpt lat="38.34196" lon="16.4623033"><ele>7.666666666666666</ele><time>2026-04-19T14:38:21.512Z</time></trkpt><trkpt lat="38.341865" lon="16.4620717"><ele>8.0</ele><time>2026-04-19T14:38:22.511Z</time></trkpt><trkpt lat="38.3417617" lon="16.4618383"><ele>8.0</ele><time>2026-04-19T14:38:23.512Z</time></trkpt><trkpt lat="38.3416667" lon="16.4616"><ele>8.0</ele><time>2026-04-19T14:38:24.511Z</time></trkpt><trkpt lat="38.3415783" lon="16.461355"><ele>8.0</ele><time>2026-04-19T14:38:25.511Z</time></trkpt><trkpt lat="38.34149" lon="16.46111"><ele>7.666666666666666</ele><time>2026-04-19T14:38:26.511Z</time></trkpt><trkpt lat="38.3413917" lon="16.4608767"><ele>7.333333333333334</ele><time>2026-04-19T14:38:27.511Z</time></trkpt><trkpt lat="38.3412983" lon="16.460635"><ele>7.0</ele><time>2026-04-19T14:38:28.512Z</time></trkpt><trkpt lat="38.3412083" lon="16.4603967"><ele>7.666666666666667</ele><time>2026-04-19T14:38:29.512Z</time></trkpt><trkpt lat="38.3411083" lon="16.4601617"><ele>8.333333333333334</ele><time>2026-04-19T14:38:30.511Z</time></trkpt><trkpt lat="38.3410183" lon="16.4599217"><ele>9.0</ele><time>2026-04-19T14:38:31.512Z</time></trkpt><trkpt lat="38.34093" lon="16.4596717"><ele>8.5</ele><time>2026-04-19T14:38:32.511Z</time></trkpt><trkpt lat="38.34083" lon="16.4594117"><ele>8.0</ele><time>2026-04-19T14:38:33.511Z</time></trkpt><trkpt lat="38.34073" lon="16.459155"><ele>8.0</ele><time>2026-04-19T14:38:34.511Z</time></trkpt><trkpt lat="38.3406267" lon="16.458895"><ele>8.0</ele><time>2026-04-19T14:38:35.512Z</time></trkpt><trkpt lat="38.3405267" lon="16.4586367"><ele>7.0</ele><time>2026-04-19T14:38:36.511Z</time></trkpt><trkpt lat="38.3404167" lon="16.4583733"><ele>6.0</ele><time>2026-04-19T14:38:37.511Z</time></trkpt><trkpt lat="38.34031" lon="16.4581133"><ele>6.5</ele><time>2026-04-19T14:38:38.511Z</time></trkpt><trkpt lat="38.34021" lon="16.4578433"><ele>7.0</ele><time>2026-04-19T14:38:39.511Z</time></trkpt><trkpt lat="38.3400983" lon="16.45757"><ele>7.0</ele><time>2026-04-19T14:38:40.512Z</time></trkpt><trkpt lat="38.33999" lon="16.457305"><ele>7.0</ele><time>2026-04-19T14:38:41.511Z</time></trkpt><trkpt lat="38.3398867" lon="16.4570333"><ele>7.0</ele><time>2026-04-19T14:38:42.512Z</time></trkpt><trkpt lat="38.33978" lon="16.45676"><ele>7.0</ele><time>2026-04-19T14:38:43.512Z</time></trkpt><trkpt lat="38.33967" lon="16.4564833"><ele>7.0</ele><time>2026-04-19T14:38:44.511Z</time></trkpt><trkpt lat="38.3395617" lon="16.45621"><ele>7.0</ele><time>2026-04-19T14:38:45.511Z</time></trkpt><trkpt lat="38.3394483" lon="16.4559367"><ele>7.0</ele><time>2026-04-19T14:38:46.511Z</time></trkpt><trkpt lat="38.3393383" lon="16.4556583"><ele>7.0</ele><time>2026-04-19T14:38:47.512Z</time></trkpt><trkpt lat="38.3392317" lon="16.45538"><ele>7.5</ele><time>2026-04-19T14:38:48.512Z</time></trkpt><trkpt lat="38.3391267" lon="16.4551067"><ele>8.0</ele><time>2026-04-19T14:38:49.512Z</time></trkpt><trkpt lat="38.3390183" lon="16.4548333"><ele>7.5</ele><time>2026-04-19T14:38:50.511Z</time></trkpt><trkpt lat="38.33891" lon="16.45456"><ele>7.0</ele><time>2026-04-19T14:38:51.511Z</time></trkpt><trkpt lat="38.3388017" lon="16.4542883"><ele>6.5</ele><time>2026-04-19T14:38:52.511Z</time></trkpt><trkpt lat="38.3386967" lon="16.4540033"><ele>6.0</ele><time>2026-04-19T14:38:53.511Z</time></trkpt><trkpt lat="38.3385917" lon="16.4537283"><ele>6.0</ele><time>2026-04-19T14:38:54.511Z</time></trkpt><trkpt lat="38.3384883" lon="16.4534567"><ele>6.0</ele><time>2026-04-19T14:38:55.511Z</time></trkpt><trkpt lat="38.338385" lon="16.4531817"><ele>6.5</ele><time>2026-04-19T14:38:56.511Z</time></trkpt><trkpt lat="38.3382917" lon="16.4529067"><ele>7.0</ele><time>2026-04-19T14:38:57.511Z</time></trkpt><trkpt lat="38.3381883" lon="16.4526267"><ele>7.0</ele><time>2026-04-19T14:38:58.512Z</time></trkpt><trkpt lat="38.3380917" lon="16.4523517"><ele>7.0</ele><time>2026-04-19T14:38:59.511Z</time></trkpt><trkpt lat="38.3379883" lon="16.4520783"><ele>5.5</ele><time>2026-04-19T14:39:00.511Z</time></trkpt><trkpt lat="38.3378917" lon="16.4518067"><ele>4.0</ele><time>2026-04-19T14:39:01.511Z</time></trkpt><trkpt lat="38.3377933" lon="16.4515333"><ele>5.0</ele><time>2026-04-19T14:39:02.511Z</time></trkpt><trkpt lat="38.3376933" lon="16.4512633"><ele>6.0</ele><time>2026-04-19T14:39:03.511Z</time></trkpt><trkpt lat="38.3375933" lon="16.4509933"><ele>6.0</ele><time>2026-04-19T14:39:04.511Z</time></trkpt><trkpt lat="38.337495" lon="16.4507067"><ele>6.0</ele><time>2026-04-19T14:39:05.511Z</time></trkpt><trkpt lat="38.3373983" lon="16.4504233"><ele>6.5</ele><time>2026-04-19T14:39:06.51Z</time></trkpt><trkpt lat="38.3373" lon="16.4501433"><ele>7.0</ele><time>2026-04-19T14:39:07.51Z</time></trkpt><trkpt lat="38.3372" lon="16.4498633"><ele>7.0</ele><time>2026-04-19T14:39:08.51Z</time></trkpt><trkpt lat="38.3371083" lon="16.4495783"><ele>7.0</ele><time>2026-04-19T14:39:09.511Z</time></trkpt><trkpt lat="38.3370017" lon="16.449295"><ele>7.0</ele><time>2026-04-19T14:39:10.51Z</time></trkpt><trkpt lat="38.3369" lon="16.449015"><ele>7.0</ele><time>2026-04-19T14:39:11.51Z</time></trkpt><trkpt lat="38.3368017" lon="16.4487333"><ele>6.5</ele><time>2026-04-19T14:39:12.51Z</time></trkpt><trkpt lat="38.336705" lon="16.4484533"><ele>6.0</ele><time>2026-04-19T14:39:13.51Z</time></trkpt><trkpt lat="38.33661" lon="16.448175"><ele>6.5</ele><time>2026-04-19T14:39:14.51Z</time></trkpt><trkpt lat="38.3365033" lon="16.4479"><ele>7.0</ele><time>2026-04-19T14:39:15.51Z</time></trkpt><trkpt lat="38.3364017" lon="16.4476233"><ele>7.0</ele><time>2026-04-19T14:39:16.511Z</time></trkpt><trkpt lat="38.3362967" lon="16.44734"><ele>7.0</ele><time>2026-04-19T14:39:17.51Z</time></trkpt><trkpt lat="38.3361967" lon="16.44706"><ele>7.0</ele><time>2026-04-19T14:39:18.51Z</time></trkpt><trkpt lat="38.3360983" lon="16.4467717"><ele>7.0</ele><time>2026-04-19T14:39:19.511Z</time></trkpt><trkpt lat="38.3359933" lon="16.446485"><ele>7.5</ele><time>2026-04-19T14:39:20.51Z</time></trkpt><trkpt lat="38.3358867" lon="16.4462"><ele>8.0</ele><time>2026-04-19T14:39:21.51Z</time></trkpt><trkpt lat="38.33579" lon="16.4459167"><ele>8.0</ele><time>2026-04-19T14:39:22.511Z</time></trkpt><trkpt lat="38.3356867" lon="16.4456317"><ele>8.0</ele><time>2026-04-19T14:39:23.51Z</time></trkpt><trkpt lat="38.33558" lon="16.445345"><ele>6.0</ele><time>2026-04-19T14:39:24.51Z</time></trkpt><trkpt lat="38.335475" lon="16.445055"><ele>4.0</ele><time>2026-04-19T14:39:25.51Z</time></trkpt><trkpt lat="38.3353667" lon="16.4447617"><ele>4.0</ele><time>2026-04-19T14:39:26.511Z</time></trkpt><trkpt lat="38.335265" lon="16.4444767"><ele>4.0</ele><time>2026-04-19T14:39:27.51Z</time></trkpt><trkpt lat="38.33516" lon="16.4441867"><ele>4.0</ele><time>2026-04-19T14:39:28.51Z</time></trkpt><trkpt lat="38.3350517" lon="16.4438933"><ele>4.0</ele><time>2026-04-19T14:39:29.511Z</time></trkpt><trkpt lat="38.3349483" lon="16.4436033"><ele>6.0</ele><time>2026-04-19T14:39:30.51Z</time></trkpt><trkpt lat="38.3348383" lon="16.4433117"><ele>8.0</ele><time>2026-04-19T14:39:31.51Z</time></trkpt><trkpt lat="38.3347317" lon="16.44302"><ele>5.5</ele><time>2026-04-19T14:39:32.51Z</time></trkpt><trkpt lat="38.3346283" lon="16.4427267"><ele>3.0</ele><time>2026-04-19T14:39:33.51Z</time></trkpt><trkpt lat="38.3345267" lon="16.4424233"><ele>4.0</ele><time>2026-04-19T14:39:34.511Z</time></trkpt><trkpt lat="38.3344167" lon="16.442125"><ele>5.0</ele><time>2026-04-19T14:39:35.511Z</time></trkpt><trkpt lat="38.3343067" lon="16.441835"><ele>5.0</ele><time>2026-04-19T14:39:36.511Z</time></trkpt><trkpt lat="38.3341983" lon="16.4415433"><ele>5.0</ele><time>2026-04-19T14:39:37.511Z</time></trkpt><trkpt lat="38.3340933" lon="16.4412567"><ele>5.5</ele><time>2026-04-19T14:39:38.51Z</time></trkpt><trkpt lat="38.3339917" lon="16.4409767"><ele>6.0</ele><time>2026-04-19T14:39:39.51Z</time></trkpt><trkpt lat="38.3338917" lon="16.440695"><ele>5.5</ele><time>2026-04-19T14:39:40.51Z</time></trkpt><trkpt lat="38.3337967" lon="16.4404133"><ele>5.0</ele><time>2026-04-19T14:39:41.511Z</time></trkpt><trkpt lat="38.3336967" lon="16.4401533"><ele>5.0</ele><time>2026-04-19T14:39:42.51Z</time></trkpt><trkpt lat="38.3336" lon="16.4398967"><ele>5.0</ele><time>2026-04-19T14:39:43.51Z</time></trkpt><trkpt lat="38.3335183" lon="16.4396433"><ele>5.0</ele><time>2026-04-19T14:39:44.51Z</time></trkpt><trkpt lat="38.3334383" lon="16.4393967"><ele>5.333333333333334</ele><time>2026-04-19T14:39:45.51Z</time></trkpt><trkpt lat="38.3333767" lon="16.43916"><ele>5.666666666666667</ele><time>2026-04-19T14:39:46.51Z</time></trkpt><trkpt lat="38.3333333" lon="16.43895"><ele>6.0</ele><time>2026-04-19T14:39:47.511Z</time></trkpt><trkpt lat="38.333305" lon="16.4387767"><ele>6.0</ele><time>2026-04-19T14:39:48.51Z</time></trkpt><trkpt lat="38.3332917" lon="16.4386233"><ele>6.0</ele><time>2026-04-19T14:39:49.511Z</time></trkpt><trkpt lat="38.3333017" lon="16.43849"><ele>6.0</ele><time>2026-04-19T14:39:50.51Z</time></trkpt><trkpt lat="38.3333267" lon="16.43838"><ele>6.0</ele><time>2026-04-19T14:39:51.51Z</time></trkpt><trkpt lat="38.3333383" lon="16.4382867"><ele>6.0</ele><time>2026-04-19T14:39:52.511Z</time></trkpt><trkpt lat="38.333315" lon="16.4382017"><ele>6.0</ele><time>2026-04-19T14:39:53.51Z</time></trkpt><trkpt lat="38.33326" lon="16.4381483"><ele>6.0</ele><time>2026-04-19T14:39:54.51Z</time></trkpt><trkpt lat="38.3331833" lon="16.438115"><ele>6.0</ele><time>2026-04-19T14:39:55.51Z</time></trkpt><trkpt lat="38.3330883" lon="16.4380533"><ele>6.0</ele><time>2026-04-19T14:39:56.51Z</time></trkpt><trkpt lat="38.3329933" lon="16.4379517"><ele>6.0</ele><time>2026-04-19T14:39:57.51Z</time></trkpt><trkpt lat="38.332905" lon="16.4378017"><ele>5.666666666666667</ele><time>2026-04-19T14:39:58.51Z</time></trkpt><trkpt lat="38.3328217" lon="16.4376167"><ele>5.333333333333334</ele><time>2026-04-19T14:39:59.51Z</time></trkpt><trkpt lat="38.3327367" lon="16.4374"><ele>5.0</ele><time>2026-04-19T14:40:00.511Z</time></trkpt><trkpt lat="38.3326467" lon="16.4371683"><ele>4.666666666666667</ele><time>2026-04-19T14:40:01.511Z</time></trkpt><trkpt lat="38.3325583" lon="16.436925"><ele>4.333333333333333</ele><time>2026-04-19T14:40:02.51Z</time></trkpt><trkpt lat="38.3324633" lon="16.4366667"><ele>4.0</ele><time>2026-04-19T14:40:03.51Z</time></trkpt><trkpt lat="38.3323667" lon="16.4363967"><ele>4.5</ele><time>2026-04-19T14:40:04.511Z</time></trkpt><trkpt lat="38.33227" lon="16.4361233"><ele>5.0</ele><time>2026-04-19T14:40:05.511Z</time></trkpt><trkpt lat="38.3321683" lon="16.435845"><ele>5.0</ele><time>2026-04-19T14:40:06.51Z</time></trkpt><trkpt lat="38.3320667" lon="16.4355583"><ele>5.0</ele><time>2026-04-19T14:40:07.51Z</time></trkpt><trkpt lat="38.3319617" lon="16.4352633"><ele>5.0</ele><time>2026-04-19T14:40:08.51Z</time></trkpt><trkpt lat="38.33185" lon="16.434955"><ele>5.0</ele><time>2026-04-19T14:40:09.51Z</time></trkpt><trkpt lat="38.3317433" lon="16.434655"><ele>5.5</ele><time>2026-04-19T14:40:10.51Z</time></trkpt><trkpt lat="38.33163" lon="16.4343467"><ele>6.0</ele><time>2026-04-19T14:40:11.51Z</time></trkpt><trkpt lat="38.3315117" lon="16.4340383"><ele>6.0</ele><time>2026-04-19T14:40:12.51Z</time></trkpt><trkpt lat="38.3313983" lon="16.4337217"><ele>6.0</ele><time>2026-04-19T14:40:13.511Z</time></trkpt><trkpt lat="38.33128" lon="16.4334117"><ele>6.0</ele><time>2026-04-19T14:40:14.51Z</time></trkpt><trkpt lat="38.3311617" lon="16.4331"><ele>6.0</ele><time>2026-04-19T14:40:15.511Z</time></trkpt><trkpt lat="38.3310483" lon="16.43279"><ele>6.5</ele><time>2026-04-19T14:40:16.51Z</time></trkpt><trkpt lat="38.3309383" lon="16.432465"><ele>7.0</ele><time>2026-04-19T14:40:17.511Z</time></trkpt><trkpt lat="38.3308283" lon="16.43215"><ele>7.0</ele><time>2026-04-19T14:40:18.511Z</time></trkpt><trkpt lat="38.3307183" lon="16.431835"><ele>7.0</ele><time>2026-04-19T14:40:19.511Z</time></trkpt><trkpt lat="38.3306083" lon="16.4315267"><ele>5.5</ele><time>2026-04-19T14:40:20.511Z</time></trkpt><trkpt lat="38.3305017" lon="16.4312183"><ele>4.0</ele><time>2026-04-19T14:40:21.511Z</time></trkpt><trkpt lat="38.3303933" lon="16.43091"><ele>4.0</ele><time>2026-04-19T14:40:22.51Z</time></trkpt><trkpt lat="38.330285" lon="16.430605"><ele>4.0</ele><time>2026-04-19T14:40:23.51Z</time></trkpt><trkpt lat="38.3301733" lon="16.4302983"><ele>4.0</ele><time>2026-04-19T14:40:24.511Z</time></trkpt><trkpt lat="38.3300667" lon="16.4299967"><ele>4.0</ele><time>2026-04-19T14:40:25.51Z</time></trkpt><trkpt lat="38.3299683" lon="16.4296967"><ele>5.0</ele><time>2026-04-19T14:40:26.51Z</time></trkpt><trkpt lat="38.3298667" lon="16.4294067"><ele>6.0</ele><time>2026-04-19T14:40:27.51Z</time></trkpt><trkpt lat="38.329765" lon="16.4291217"><ele>5.5</ele><time>2026-04-19T14:40:28.511Z</time></trkpt><trkpt lat="38.3296583" lon="16.4288367"><ele>5.0</ele><time>2026-04-19T14:40:29.51Z</time></trkpt><trkpt lat="38.3295483" lon="16.42856"><ele>5.0</ele><time>2026-04-19T14:40:30.51Z</time></trkpt><trkpt lat="38.3294383" lon="16.4282733"><ele>5.0</ele><time>2026-04-19T14:40:31.51Z</time></trkpt><trkpt lat="38.3293367" lon="16.4279783"><ele>5.5</ele><time>2026-04-19T14:40:32.51Z</time></trkpt><trkpt lat="38.32923" lon="16.427665"><ele>6.0</ele><time>2026-04-19T14:40:33.51Z</time></trkpt><trkpt lat="38.329125" lon="16.4273533"><ele>6.0</ele><time>2026-04-19T14:40:34.51Z</time></trkpt><trkpt lat="38.329015" lon="16.4270467"><ele>6.0</ele><time>2026-04-19T14:40:35.51Z</time></trkpt><trkpt lat="38.3289067" lon="16.42673"><ele>5.5</ele><time>2026-04-19T14:40:36.51Z</time></trkpt><trkpt lat="38.32879" lon="16.4264133"><ele>5.0</ele><time>2026-04-19T14:40:37.51Z</time></trkpt><trkpt lat="38.3286817" lon="16.4260883"><ele>5.0</ele><time>2026-04-19T14:40:38.51Z</time></trkpt><trkpt lat="38.3285733" lon="16.4257667"><ele>5.0</ele><time>2026-04-19T14:40:39.511Z</time></trkpt><trkpt lat="38.3284617" lon="16.4254383"><ele>5.0</ele><time>2026-04-19T14:40:40.51Z</time></trkpt><trkpt lat="38.32835" lon="16.4251133"><ele>5.0</ele><time>2026-04-19T14:40:41.51Z</time></trkpt><trkpt lat="38.3282333" lon="16.424785"><ele>5.0</ele><time>2026-04-19T14:40:42.51Z</time></trkpt><trkpt lat="38.32812" lon="16.4244583"><ele>5.0</ele><time>2026-04-19T14:40:43.511Z</time></trkpt><trkpt lat="38.3280117" lon="16.4241283"><ele>5.0</ele><time>2026-04-19T14:40:44.511Z</time></trkpt><trkpt lat="38.3278983" lon="16.4238083"><ele>5.0</ele><time>2026-04-19T14:40:45.51Z</time></trkpt><trkpt lat="38.3277883" lon="16.423495"><ele>5.0</ele><time>2026-04-19T14:40:46.511Z</time></trkpt><trkpt lat="38.3276783" lon="16.42317"><ele>5.0</ele><time>2026-04-19T14:40:47.51Z</time></trkpt><trkpt lat="38.3275717" lon="16.4228517"><ele>5.5</ele><time>2026-04-19T14:40:48.51Z</time></trkpt><trkpt lat="38.32746" lon="16.42253"><ele>6.0</ele><time>2026-04-19T14:40:49.51Z</time></trkpt><trkpt lat="38.3273483" lon="16.4222017"><ele>5.5</ele><time>2026-04-19T14:40:50.51Z</time></trkpt><trkpt lat="38.3272367" lon="16.4218717"><ele>5.0</ele><time>2026-04-19T14:40:51.51Z</time></trkpt><trkpt lat="38.3271283" lon="16.4215417"><ele>5.5</ele><time>2026-04-19T14:40:52.51Z</time></trkpt><trkpt lat="38.3270217" lon="16.4212183"><ele>6.0</ele><time>2026-04-19T14:40:53.51Z</time></trkpt><trkpt lat="38.3269083" lon="16.4208917"><ele>6.0</ele><time>2026-04-19T14:40:54.51Z</time></trkpt><trkpt lat="38.3268" lon="16.420575"><ele>6.0</ele><time>2026-04-19T14:40:55.51Z</time></trkpt><trkpt lat="38.32669" lon="16.4202483"><ele>7.0</ele><time>2026-04-19T14:40:56.51Z</time></trkpt><trkpt lat="38.3265817" lon="16.4199333"><ele>8.0</ele><time>2026-04-19T14:40:57.51Z</time></trkpt><trkpt lat="38.32648" lon="16.4196317"><ele>6.5</ele><time>2026-04-19T14:40:58.511Z</time></trkpt><trkpt lat="38.3263717" lon="16.4193267"><ele>5.0</ele><time>2026-04-19T14:40:59.511Z</time></trkpt><trkpt lat="38.3262733" lon="16.4190383"><ele>5.5</ele><time>2026-04-19T14:41:00.51Z</time></trkpt><trkpt lat="38.32618" lon="16.418765"><ele>6.0</ele><time>2026-04-19T14:41:01.511Z</time></trkpt><trkpt lat="38.3260917" lon="16.4185117"><ele>6.0</ele><time>2026-04-19T14:41:02.51Z</time></trkpt><trkpt lat="38.3260167" lon="16.418285"><ele>6.0</ele><time>2026-04-19T14:41:03.51Z</time></trkpt><trkpt lat="38.32594" lon="16.4180717"><ele>6.0</ele><time>2026-04-19T14:41:04.51Z</time></trkpt><trkpt lat="38.3258433" lon="16.4178417"><ele>6.666666666666666</ele><time>2026-04-19T14:41:05.511Z</time></trkpt><trkpt lat="38.3257533" lon="16.4175983"><ele>7.333333333333333</ele><time>2026-04-19T14:41:06.511Z</time></trkpt><trkpt lat="38.3256667" lon="16.4173333"><ele>8.0</ele><time>2026-04-19T14:41:07.51Z</time></trkpt><trkpt lat="38.32557" lon="16.41705"><ele>6.5</ele><time>2026-04-19T14:41:08.511Z</time></trkpt><trkpt lat="38.325475" lon="16.4167633"><ele>5.0</ele><time>2026-04-19T14:41:09.51Z</time></trkpt><trkpt lat="38.3253783" lon="16.416475"><ele>5.5</ele><time>2026-04-19T14:41:10.51Z</time></trkpt><trkpt lat="38.325285" lon="16.4161917"><ele>6.0</ele><time>2026-04-19T14:41:11.511Z</time></trkpt><trkpt lat="38.3251867" lon="16.4159033"><ele>6.0</ele><time>2026-04-19T14:41:12.51Z</time></trkpt><trkpt lat="38.325075" lon="16.4156233"><ele>6.0</ele><time>2026-04-19T14:41:13.51Z</time></trkpt><trkpt lat="38.3249633" lon="16.4153367"><ele>7.5</ele><time>2026-04-19T14:41:14.51Z</time></trkpt><trkpt lat="38.3248533" lon="16.415055"><ele>9.0</ele><time>2026-04-19T14:41:15.51Z</time></trkpt><trkpt lat="38.3247433" lon="16.4147783"><ele>7.5</ele><time>2026-04-19T14:41:16.51Z</time></trkpt><trkpt lat="38.3246317" lon="16.414515"><ele>6.0</ele><time>2026-04-19T14:41:17.51Z</time></trkpt><trkpt lat="38.324525" lon="16.41426"><ele>6.0</ele><time>2026-04-19T14:41:18.51Z</time></trkpt><trkpt lat="38.324425" lon="16.41401"><ele>6.0</ele><time>2026-04-19T14:41:19.51Z</time></trkpt><trkpt lat="38.32433" lon="16.4137783"><ele>6.0</ele><time>2026-04-19T14:41:20.51Z</time></trkpt><trkpt lat="38.324245" lon="16.4135717"><ele>6.25</ele><time>2026-04-19T14:41:21.511Z</time></trkpt><trkpt lat="38.3241733" lon="16.4134033"><ele>6.5</ele><time>2026-04-19T14:41:22.51Z</time></trkpt><trkpt lat="38.32412" lon="16.4132433"><ele>6.75</ele><time>2026-04-19T14:41:23.51Z</time></trkpt><trkpt lat="38.324065" lon="16.413085"><ele>7.0</ele><time>2026-04-19T14:41:24.51Z</time></trkpt><trkpt lat="38.32401" lon="16.4129317"><ele>7.3999999999999995</ele><time>2026-04-19T14:41:25.51Z</time></trkpt><trkpt lat="38.3239633" lon="16.4127933"><ele>7.799999999999999</ele><time>2026-04-19T14:41:26.51Z</time></trkpt><trkpt lat="38.3239117" lon="16.4126667"><ele>8.2</ele><time>2026-04-19T14:41:27.51Z</time></trkpt><trkpt lat="38.323875" lon="16.4125467"><ele>8.6</ele><time>2026-04-19T14:41:28.51Z</time></trkpt><trkpt lat="38.3238433" lon="16.4124267"><ele>9.0</ele><time>2026-04-19T14:41:29.51Z</time></trkpt><trkpt lat="38.323825" lon="16.4123083"><ele>8.4</ele><time>2026-04-19T14:41:30.51Z</time></trkpt><trkpt lat="38.32381" lon="16.412175"><ele>7.800000000000001</ele><time>2026-04-19T14:41:31.511Z</time></trkpt><trkpt lat="38.3238" lon="16.41204"><ele>7.199999999999999</ele><time>2026-04-19T14:41:32.51Z</time></trkpt><trkpt lat="38.3238017" lon="16.4119083"><ele>6.6</ele><time>2026-04-19T14:41:33.51Z</time></trkpt><trkpt lat="38.3238183" lon="16.411785"><ele>6.0</ele><time>2026-04-19T14:41:34.51Z</time></trkpt><trkpt lat="38.3238183" lon="16.411645"><ele>6.0</ele><time>2026-04-19T14:41:35.51Z</time></trkpt><trkpt lat="38.323815" lon="16.4115"><ele>6.0</ele><time>2026-04-19T14:41:36.51Z</time></trkpt><trkpt lat="38.323815" lon="16.4113617"><ele>6.0</ele><time>2026-04-19T14:41:37.51Z</time></trkpt><trkpt lat="38.3238233" lon="16.4112383"><ele>6.0</ele><time>2026-04-19T14:41:38.51Z</time></trkpt><trkpt lat="38.32383" lon="16.4111267"><ele>6.0</ele><time>2026-04-19T14:41:39.511Z</time></trkpt><trkpt lat="38.3238283" lon="16.4110317"><ele>6.5</ele><time>2026-04-19T14:41:40.511Z</time></trkpt><trkpt lat="38.3238283" lon="16.41094"><ele>7.0</ele><time>2026-04-19T14:41:41.51Z</time></trkpt><trkpt lat="38.323825" lon="16.41084"><ele>7.5</ele><time>2026-04-19T14:41:42.511Z</time></trkpt><trkpt lat="38.32382" lon="16.410735"><ele>8.0</ele><time>2026-04-19T14:41:43.51Z</time></trkpt><trkpt lat="38.32381" lon="16.4106317"><ele>8.5</ele><time>2026-04-19T14:41:44.51Z</time></trkpt><trkpt lat="38.3237983" lon="16.410535"><ele>9.0</ele><time>2026-04-19T14:41:45.51Z</time></trkpt><trkpt lat="38.3237767" lon="16.4104367"><ele>9.6</ele><time>2026-04-19T14:41:46.51Z</time></trkpt><trkpt lat="38.323745" lon="16.4103283"><ele>10.2</ele><time>2026-04-19T14:41:47.51Z</time></trkpt><trkpt lat="38.323715" lon="16.4102183"><ele>10.799999999999999</ele><time>2026-04-19T14:41:48.51Z</time></trkpt><trkpt lat="38.3236733" lon="16.4101117"><ele>11.4</ele><time>2026-04-19T14:41:49.51Z</time></trkpt><trkpt lat="38.323635" lon="16.4099967"><ele>12.0</ele><time>2026-04-19T14:41:50.511Z</time></trkpt><trkpt lat="38.3235917" lon="16.409885"><ele>12.0</ele><time>2026-04-19T14:41:51.51Z</time></trkpt><trkpt lat="38.323545" lon="16.40978"><ele>12.0</ele><time>2026-04-19T14:41:52.51Z</time></trkpt><trkpt lat="38.323495" lon="16.4096733"><ele>12.0</ele><time>2026-04-19T14:41:53.511Z</time></trkpt><trkpt lat="38.323435" lon="16.4095767"><ele>12.0</ele><time>2026-04-19T14:41:54.51Z</time></trkpt><trkpt lat="38.32338" lon="16.4094783"><ele>12.0</ele><time>2026-04-19T14:41:55.51Z</time></trkpt><trkpt lat="38.32332" lon="16.4093867"><ele>12.0</ele><time>2026-04-19T14:41:56.51Z</time></trkpt><trkpt lat="38.3232683" lon="16.409295"><ele>12.0</ele><time>2026-04-19T14:41:57.51Z</time></trkpt><trkpt lat="38.3232233" lon="16.409205"><ele>12.0</ele><time>2026-04-19T14:41:58.51Z</time></trkpt><trkpt lat="38.3231867" lon="16.4091033"><ele>12.0</ele><time>2026-04-19T14:41:59.511Z</time></trkpt><trkpt lat="38.3231517" lon="16.40899"><ele>12.0</ele><time>2026-04-19T14:42:00.51Z</time></trkpt><trkpt lat="38.32312" lon="16.4088733"><ele>12.0</ele><time>2026-04-19T14:42:01.511Z</time></trkpt><trkpt lat="38.3230767" lon="16.4087483"><ele>12.0</ele><time>2026-04-19T14:42:02.51Z</time></trkpt><trkpt lat="38.3230333" lon="16.4086033"><ele>12.0</ele><time>2026-04-19T14:42:03.51Z</time></trkpt><trkpt lat="38.3229867" lon="16.4084333"><ele>12.0</ele><time>2026-04-19T14:42:04.511Z</time></trkpt><trkpt lat="38.3229417" lon="16.408265"><ele>11.0</ele><time>2026-04-19T14:42:05.511Z</time></trkpt><trkpt lat="38.3229" lon="16.4080867"><ele>10.0</ele><time>2026-04-19T14:42:06.51Z</time></trkpt><trkpt lat="38.3228517" lon="16.4078967"><ele>9.0</ele><time>2026-04-19T14:42:07.51Z</time></trkpt><trkpt lat="38.3227967" lon="16.4077267"><ele>8.0</ele><time>2026-04-19T14:42:08.51Z</time></trkpt><trkpt lat="38.32274" lon="16.4075417"><ele>8.0</ele><time>2026-04-19T14:42:09.51Z</time></trkpt><trkpt lat="38.32269" lon="16.407355"><ele>8.0</ele><time>2026-04-19T14:42:10.511Z</time></trkpt><trkpt lat="38.3226367" lon="16.407175"><ele>8.0</ele><time>2026-04-19T14:42:11.51Z</time></trkpt><trkpt lat="38.3225867" lon="16.4070117"><ele>8.0</ele><time>2026-04-19T14:42:12.51Z</time></trkpt><trkpt lat="38.3225333" lon="16.4068267"><ele>9.0</ele><time>2026-04-19T14:42:13.51Z</time></trkpt><trkpt lat="38.3224717" lon="16.4066633"><ele>10.0</ele><time>2026-04-19T14:42:14.51Z</time></trkpt><trkpt lat="38.3224283" lon="16.406485"><ele>11.0</ele><time>2026-04-19T14:42:15.51Z</time></trkpt><trkpt lat="38.32239" lon="16.4063183"><ele>12.0</ele><time>2026-04-19T14:42:16.51Z</time></trkpt><trkpt lat="38.3223533" lon="16.4061633"><ele>12.75</ele><time>2026-04-19T14:42:17.51Z</time></trkpt><trkpt lat="38.322305" lon="16.4060017"><ele>13.5</ele><time>2026-04-19T14:42:18.511Z</time></trkpt><trkpt lat="38.32226" lon="16.4058367"><ele>14.25</ele><time>2026-04-19T14:42:19.511Z</time></trkpt><trkpt lat="38.3222183" lon="16.40568"><ele>15.0</ele><time>2026-04-19T14:42:20.511Z</time></trkpt><trkpt lat="38.322185" lon="16.4055483"><ele>13.8</ele><time>2026-04-19T14:42:21.511Z</time></trkpt><trkpt lat="38.3221467" lon="16.4054133"><ele>12.6</ele><time>2026-04-19T14:42:22.51Z</time></trkpt><trkpt lat="38.3221117" lon="16.4052917"><ele>11.4</ele><time>2026-04-19T14:42:23.51Z</time></trkpt><trkpt lat="38.3220833" lon="16.4051817"><ele>10.2</ele><time>2026-04-19T14:42:24.51Z</time></trkpt><trkpt lat="38.32205" lon="16.40508"><ele>9.0</ele><time>2026-04-19T14:42:25.511Z</time></trkpt><trkpt lat="38.3220183" lon="16.4049833"><ele>9.0</ele><time>2026-04-19T14:42:26.51Z</time></trkpt><trkpt lat="38.3219833" lon="16.404895"><ele>9.0</ele><time>2026-04-19T14:42:27.51Z</time></trkpt><trkpt lat="38.3219433" lon="16.404805"><ele>9.0</ele><time>2026-04-19T14:42:28.51Z</time></trkpt><trkpt lat="38.3219017" lon="16.404705"><ele>9.0</ele><time>2026-04-19T14:42:29.51Z</time></trkpt><trkpt lat="38.3218583" lon="16.404595"><ele>9.0</ele><time>2026-04-19T14:42:30.51Z</time></trkpt><trkpt lat="38.3218183" lon="16.4044917"><ele>9.0</ele><time>2026-04-19T14:42:31.511Z</time></trkpt><trkpt lat="38.321775" lon="16.4043967"><ele>9.6</ele><time>2026-04-19T14:42:32.51Z</time></trkpt><trkpt lat="38.3217217" lon="16.4043"><ele>10.2</ele><time>2026-04-19T14:42:33.511Z</time></trkpt><trkpt lat="38.3216733" lon="16.4042017"><ele>10.799999999999999</ele><time>2026-04-19T14:42:34.51Z</time></trkpt><trkpt lat="38.3216233" lon="16.404105"><ele>11.4</ele><time>2026-04-19T14:42:35.51Z</time></trkpt><trkpt lat="38.3215783" lon="16.4040017"><ele>12.0</ele><time>2026-04-19T14:42:36.51Z</time></trkpt><trkpt lat="38.3215283" lon="16.40389"><ele>12.5</ele><time>2026-04-19T14:42:37.51Z</time></trkpt><trkpt lat="38.3214683" lon="16.4037633"><ele>13.0</ele><time>2026-04-19T14:42:38.51Z</time></trkpt><trkpt lat="38.3214033" lon="16.40364"><ele>13.5</ele><time>2026-04-19T14:42:39.511Z</time></trkpt><trkpt lat="38.32135" lon="16.403505"><ele>14.0</ele><time>2026-04-19T14:42:40.51Z</time></trkpt><trkpt lat="38.321295" lon="16.403365"><ele>13.75</ele><time>2026-04-19T14:42:41.51Z</time></trkpt><trkpt lat="38.3212483" lon="16.4032133"><ele>13.5</ele><time>2026-04-19T14:42:42.51Z</time></trkpt><trkpt lat="38.3211833" lon="16.4030567"><ele>13.25</ele><time>2026-04-19T14:42:43.51Z</time></trkpt><trkpt lat="38.3211317" lon="16.4028833"><ele>13.0</ele><time>2026-04-19T14:42:44.51Z</time></trkpt><trkpt lat="38.3210683" lon="16.4027083"><ele>13.0</ele><time>2026-04-19T14:42:45.51Z</time></trkpt><trkpt lat="38.32101" lon="16.4025433"><ele>13.0</ele><time>2026-04-19T14:42:46.51Z</time></trkpt><trkpt lat="38.3209417" lon="16.40237"><ele>13.0</ele><time>2026-04-19T14:42:47.51Z</time></trkpt><trkpt lat="38.320855" lon="16.4021917"><ele>13.333333333333332</ele><time>2026-04-19T14:42:48.51Z</time></trkpt><trkpt lat="38.3207783" lon="16.4020117"><ele>13.666666666666668</ele><time>2026-04-19T14:42:49.511Z</time></trkpt><trkpt lat="38.3206967" lon="16.4018583"><ele>14.0</ele><time>2026-04-19T14:42:50.51Z</time></trkpt><trkpt lat="38.3206133" lon="16.4017067"><ele>12.75</ele><time>2026-04-19T14:42:51.51Z</time></trkpt><trkpt lat="38.3205483" lon="16.4015383"><ele>11.5</ele><time>2026-04-19T14:42:52.51Z</time></trkpt><trkpt lat="38.3204933" lon="16.4013683"><ele>10.25</ele><time>2026-04-19T14:42:53.51Z</time></trkpt><trkpt lat="38.320425" lon="16.40121"><ele>9.0</ele><time>2026-04-19T14:42:54.511Z</time></trkpt><trkpt lat="38.32035" lon="16.401035"><ele>9.0</ele><time>2026-04-19T14:42:55.51Z</time></trkpt><trkpt lat="38.3202817" lon="16.400845"><ele>9.0</ele><time>2026-04-19T14:42:56.51Z</time></trkpt><trkpt lat="38.3202117" lon="16.400655"><ele>9.0</ele><time>2026-04-19T14:42:57.51Z</time></trkpt><trkpt lat="38.3201467" lon="16.400475"><ele>9.25</ele><time>2026-04-19T14:42:58.51Z</time></trkpt><trkpt lat="38.32007" lon="16.40032"><ele>9.5</ele><time>2026-04-19T14:42:59.511Z</time></trkpt><trkpt lat="38.3200017" lon="16.4001567"><ele>9.75</ele><time>2026-04-19T14:43:00.51Z</time></trkpt><trkpt lat="38.3199433" lon="16.3999967"><ele>10.0</ele><time>2026-04-19T14:43:01.51Z</time></trkpt><trkpt lat="38.3199017" lon="16.3998283"><ele>10.0</ele><time>2026-04-19T14:43:02.51Z</time></trkpt><trkpt lat="38.3198567" lon="16.399685"><ele>10.0</ele><time>2026-04-19T14:43:03.51Z</time></trkpt><trkpt lat="38.3198167" lon="16.3995283"><ele>10.0</ele><time>2026-04-19T14:43:04.51Z</time></trkpt><trkpt lat="38.31976" lon="16.39939"><ele>10.0</ele><time>2026-04-19T14:43:05.51Z</time></trkpt><trkpt lat="38.3197067" lon="16.3992517"><ele>9.5</ele><time>2026-04-19T14:43:06.51Z</time></trkpt><trkpt lat="38.319655" lon="16.39911"><ele>9.0</ele><time>2026-04-19T14:43:07.51Z</time></trkpt><trkpt lat="38.3196" lon="16.3989783"><ele>8.5</ele><time>2026-04-19T14:43:08.51Z</time></trkpt><trkpt lat="38.31955" lon="16.3988517"><ele>8.0</ele><time>2026-04-19T14:43:09.511Z</time></trkpt><trkpt lat="38.319495" lon="16.398725"><ele>8.0</ele><time>2026-04-19T14:43:10.51Z</time></trkpt><trkpt lat="38.3194383" lon="16.398595"><ele>8.0</ele><time>2026-04-19T14:43:11.511Z</time></trkpt><trkpt lat="38.3193833" lon="16.398465"><ele>8.0</ele><time>2026-04-19T14:43:12.511Z</time></trkpt><trkpt lat="38.31933" lon="16.39833"><ele>8.0</ele><time>2026-04-19T14:43:13.511Z</time></trkpt><trkpt lat="38.3192733" lon="16.398195"><ele>8.0</ele><time>2026-04-19T14:43:14.51Z</time></trkpt><trkpt lat="38.3192133" lon="16.3980567"><ele>8.0</ele><time>2026-04-19T14:43:15.51Z</time></trkpt><trkpt lat="38.31915" lon="16.3979233"><ele>8.0</ele><time>2026-04-19T14:43:16.511Z</time></trkpt><trkpt lat="38.319105" lon="16.39777"><ele>8.0</ele><time>2026-04-19T14:43:17.51Z</time></trkpt><trkpt lat="38.3190567" lon="16.3976267"><ele>8.25</ele><time>2026-04-19T14:43:18.51Z</time></trkpt><trkpt lat="38.3190033" lon="16.3974883"><ele>8.5</ele><time>2026-04-19T14:43:19.51Z</time></trkpt><trkpt lat="38.31895" lon="16.397355"><ele>8.75</ele><time>2026-04-19T14:43:20.51Z</time></trkpt><trkpt lat="38.3188983" lon="16.39722"><ele>9.0</ele><time>2026-04-19T14:43:21.51Z</time></trkpt><trkpt lat="38.3188433" lon="16.3970867"><ele>8.0</ele><time>2026-04-19T14:43:22.51Z</time></trkpt><trkpt lat="38.3187833" lon="16.396955"><ele>7.0</ele><time>2026-04-19T14:43:23.51Z</time></trkpt><trkpt lat="38.3187233" lon="16.3968"><ele>6.0</ele><time>2026-04-19T14:43:24.51Z</time></trkpt><trkpt lat="38.31866" lon="16.3966333"><ele>5.0</ele><time>2026-04-19T14:43:25.51Z</time></trkpt><trkpt lat="38.3185867" lon="16.3964583"><ele>7.0</ele><time>2026-04-19T14:43:26.51Z</time></trkpt><trkpt lat="38.3185183" lon="16.3962683"><ele>9.0</ele><time>2026-04-19T14:43:27.51Z</time></trkpt><trkpt lat="38.3184517" lon="16.3960567"><ele>11.0</ele><time>2026-04-19T14:43:28.51Z</time></trkpt><trkpt lat="38.3183833" lon="16.3958433"><ele>11.0</ele><time>2026-04-19T14:43:29.51Z</time></trkpt><trkpt lat="38.318315" lon="16.3956167"><ele>11.0</ele><time>2026-04-19T14:43:30.51Z</time></trkpt><trkpt lat="38.318245" lon="16.395385"><ele>11.0</ele><time>2026-04-19T14:43:31.51Z</time></trkpt><trkpt lat="38.31818" lon="16.3951517"><ele>10.666666666666666</ele><time>2026-04-19T14:43:32.511Z</time></trkpt><trkpt lat="38.3181183" lon="16.3949083"><ele>10.333333333333334</ele><time>2026-04-19T14:43:33.51Z</time></trkpt><trkpt lat="38.318045" lon="16.3946617"><ele>10.0</ele><time>2026-04-19T14:43:34.51Z</time></trkpt><trkpt lat="38.3179717" lon="16.39442"><ele>8.0</ele><time>2026-04-19T14:43:35.51Z</time></trkpt><trkpt lat="38.3178933" lon="16.39417"><ele>6.0</ele><time>2026-04-19T14:43:36.51Z</time></trkpt><trkpt lat="38.3178083" lon="16.393925"><ele>4.0</ele><time>2026-04-19T14:43:37.51Z</time></trkpt><trkpt lat="38.317725" lon="16.3936767"><ele>4.0</ele><time>2026-04-19T14:43:38.51Z</time></trkpt><trkpt lat="38.3176467" lon="16.39343"><ele>4.0</ele><time>2026-04-19T14:43:39.511Z</time></trkpt><trkpt lat="38.31757" lon="16.3931867"><ele>4.0</ele><time>2026-04-19T14:43:40.511Z</time></trkpt><trkpt lat="38.31749" lon="16.3929333"><ele>5.0</ele><time>2026-04-19T14:43:41.51Z</time></trkpt><trkpt lat="38.3174083" lon="16.3926783"><ele>6.0</ele><time>2026-04-19T14:43:42.51Z</time></trkpt><trkpt lat="38.3173283" lon="16.3924333"><ele>7.0</ele><time>2026-04-19T14:43:43.511Z</time></trkpt><trkpt lat="38.3172483" lon="16.392175"><ele>6.333333333333334</ele><time>2026-04-19T14:43:44.51Z</time></trkpt><trkpt lat="38.31717" lon="16.3919133"><ele>5.666666666666667</ele><time>2026-04-19T14:43:45.51Z</time></trkpt><trkpt lat="38.3170933" lon="16.3916517"><ele>5.0</ele><time>2026-04-19T14:43:46.511Z</time></trkpt><trkpt lat="38.3170017" lon="16.3913967"><ele>5.0</ele><time>2026-04-19T14:43:47.51Z</time></trkpt><trkpt lat="38.3169083" lon="16.391135"><ele>5.0</ele><time>2026-04-19T14:43:48.51Z</time></trkpt><trkpt lat="38.3168217" lon="16.3908633"><ele>5.0</ele><time>2026-04-19T14:43:49.51Z</time></trkpt><trkpt lat="38.3167267" lon="16.390595"><ele>5.0</ele><time>2026-04-19T14:43:50.51Z</time></trkpt><trkpt lat="38.3166333" lon="16.39033"><ele>5.5</ele><time>2026-04-19T14:43:51.51Z</time></trkpt><trkpt lat="38.3165383" lon="16.3900533"><ele>6.0</ele><time>2026-04-19T14:43:52.511Z</time></trkpt><trkpt lat="38.3164533" lon="16.389785"><ele>6.0</ele><time>2026-04-19T14:43:53.51Z</time></trkpt><trkpt lat="38.3163617" lon="16.38952"><ele>6.0</ele><time>2026-04-19T14:43:54.51Z</time></trkpt><trkpt lat="38.316275" lon="16.3892483"><ele>6.0</ele><time>2026-04-19T14:43:55.51Z</time></trkpt><trkpt lat="38.3161867" lon="16.3889767"><ele>6.0</ele><time>2026-04-19T14:43:56.51Z</time></trkpt><trkpt lat="38.3160967" lon="16.38871"><ele>6.0</ele><time>2026-04-19T14:43:57.511Z</time></trkpt><trkpt lat="38.3160067" lon="16.3884383"><ele>6.0</ele><time>2026-04-19T14:43:58.51Z</time></trkpt><trkpt lat="38.3159133" lon="16.3881667"><ele>6.0</ele><time>2026-04-19T14:43:59.51Z</time></trkpt><trkpt lat="38.3158317" lon="16.3878933"><ele>6.0</ele><time>2026-04-19T14:44:00.511Z</time></trkpt><trkpt lat="38.3157383" lon="16.3876317"><ele>6.0</ele><time>2026-04-19T14:44:01.51Z</time></trkpt><trkpt lat="38.3156517" lon="16.3873633"><ele>6.0</ele><time>2026-04-19T14:44:02.51Z</time></trkpt><trkpt lat="38.315565" lon="16.3870867"><ele>5.5</ele><time>2026-04-19T14:44:03.51Z</time></trkpt><trkpt lat="38.315475" lon="16.3868083"><ele>5.0</ele><time>2026-04-19T14:44:04.51Z</time></trkpt><trkpt lat="38.31538" lon="16.3865267"><ele>6.0</ele><time>2026-04-19T14:44:05.511Z</time></trkpt><trkpt lat="38.3152867" lon="16.3862417"><ele>7.0</ele><time>2026-04-19T14:44:06.51Z</time></trkpt><trkpt lat="38.315195" lon="16.38596"><ele>7.0</ele><time>2026-04-19T14:44:07.51Z</time></trkpt><trkpt lat="38.3150983" lon="16.38568"><ele>7.0</ele><time>2026-04-19T14:44:08.511Z</time></trkpt><trkpt lat="38.3149983" lon="16.38541"><ele>7.5</ele><time>2026-04-19T14:44:09.51Z</time></trkpt><trkpt lat="38.3149017" lon="16.3851383"><ele>8.0</ele><time>2026-04-19T14:44:10.511Z</time></trkpt><trkpt lat="38.3148167" lon="16.384855"><ele>5.5</ele><time>2026-04-19T14:44:11.51Z</time></trkpt><trkpt lat="38.314725" lon="16.3845717"><ele>3.0</ele><time>2026-04-19T14:44:12.51Z</time></trkpt><trkpt lat="38.31463" lon="16.3842967"><ele>3.0</ele><time>2026-04-19T14:44:13.51Z</time></trkpt><trkpt lat="38.314535" lon="16.38403"><ele>3.0</ele><time>2026-04-19T14:44:14.511Z</time></trkpt><trkpt lat="38.3144333" lon="16.3837633"><ele>4.0</ele><time>2026-04-19T14:44:15.51Z</time></trkpt><trkpt lat="38.3143367" lon="16.3834933"><ele>5.0</ele><time>2026-04-19T14:44:16.51Z</time></trkpt><trkpt lat="38.3142383" lon="16.3832233"><ele>5.5</ele><time>2026-04-19T14:44:17.51Z</time></trkpt><trkpt lat="38.314145" lon="16.382955"><ele>6.0</ele><time>2026-04-19T14:44:18.511Z</time></trkpt><trkpt lat="38.31405" lon="16.382685"><ele>6.0</ele><time>2026-04-19T14:44:19.51Z</time></trkpt><trkpt lat="38.3139517" lon="16.3824067"><ele>6.0</ele><time>2026-04-19T14:44:20.51Z</time></trkpt><trkpt lat="38.3138533" lon="16.3821283"><ele>6.0</ele><time>2026-04-19T14:44:21.51Z</time></trkpt><trkpt lat="38.313755" lon="16.3818533"><ele>6.0</ele><time>2026-04-19T14:44:22.511Z</time></trkpt><trkpt lat="38.3136583" lon="16.3815683"><ele>6.5</ele><time>2026-04-19T14:44:23.51Z</time></trkpt><trkpt lat="38.31356" lon="16.3812833"><ele>7.0</ele><time>2026-04-19T14:44:24.51Z</time></trkpt><trkpt lat="38.3134617" lon="16.3810017"><ele>7.0</ele><time>2026-04-19T14:44:25.51Z</time></trkpt><trkpt lat="38.3133617" lon="16.3807183"><ele>7.0</ele><time>2026-04-19T14:44:26.51Z</time></trkpt><trkpt lat="38.3132633" lon="16.3804333"><ele>7.5</ele><time>2026-04-19T14:44:27.511Z</time></trkpt><trkpt lat="38.313165" lon="16.380145"><ele>8.0</ele><time>2026-04-19T14:44:28.51Z</time></trkpt><trkpt lat="38.3130633" lon="16.3798683"><ele>6.5</ele><time>2026-04-19T14:44:29.511Z</time></trkpt><trkpt lat="38.3129567" lon="16.3795933"><ele>5.0</ele><time>2026-04-19T14:44:30.51Z</time></trkpt><trkpt lat="38.31286" lon="16.3793083"><ele>5.0</ele><time>2026-04-19T14:44:31.51Z</time></trkpt><trkpt lat="38.3127567" lon="16.37902"><ele>5.0</ele><time>2026-04-19T14:44:32.51Z</time></trkpt><trkpt lat="38.312655" lon="16.378735"><ele>5.5</ele><time>2026-04-19T14:44:33.511Z</time></trkpt><trkpt lat="38.312545" lon="16.3784517"><ele>6.0</ele><time>2026-04-19T14:44:34.511Z</time></trkpt><trkpt lat="38.3124417" lon="16.3781667"><ele>6.5</ele><time>2026-04-19T14:44:35.511Z</time></trkpt><trkpt lat="38.3123483" lon="16.3778783"><ele>7.0</ele><time>2026-04-19T14:44:36.51Z</time></trkpt><trkpt lat="38.312255" lon="16.3775867"><ele>6.0</ele><time>2026-04-19T14:44:37.51Z</time></trkpt><trkpt lat="38.3121583" lon="16.3772933"><ele>5.0</ele><time>2026-04-19T14:44:38.51Z</time></trkpt><trkpt lat="38.3120567" lon="16.3770033"><ele>5.0</ele><time>2026-04-19T14:44:39.51Z</time></trkpt><trkpt lat="38.311955" lon="16.3767133"><ele>5.0</ele><time>2026-04-19T14:44:40.51Z</time></trkpt><trkpt lat="38.3118567" lon="16.3764233"><ele>5.5</ele><time>2026-04-19T14:44:41.51Z</time></trkpt><trkpt lat="38.31176" lon="16.3761333"><ele>6.0</ele><time>2026-04-19T14:44:42.511Z</time></trkpt><trkpt lat="38.3116617" lon="16.375845"><ele>6.0</ele><time>2026-04-19T14:44:43.51Z</time></trkpt><trkpt lat="38.311565" lon="16.3755467"><ele>6.0</ele><time>2026-04-19T14:44:44.51Z</time></trkpt><trkpt lat="38.3114767" lon="16.3752467"><ele>6.0</ele><time>2026-04-19T14:44:45.511Z</time></trkpt><trkpt lat="38.3113883" lon="16.37494"><ele>6.0</ele><time>2026-04-19T14:44:46.511Z</time></trkpt><trkpt lat="38.311295" lon="16.3746383"><ele>6.0</ele><time>2026-04-19T14:44:47.51Z</time></trkpt><trkpt lat="38.3111967" lon="16.3743383"><ele>6.0</ele><time>2026-04-19T14:44:48.51Z</time></trkpt><trkpt lat="38.3111017" lon="16.37404"><ele>6.0</ele><time>2026-04-19T14:44:49.51Z</time></trkpt><trkpt lat="38.3110083" lon="16.3737417"><ele>6.0</ele><time>2026-04-19T14:44:50.51Z</time></trkpt><trkpt lat="38.31091" lon="16.3734433"><ele>6.0</ele><time>2026-04-19T14:44:51.51Z</time></trkpt><trkpt lat="38.3108017" lon="16.3731417"><ele>6.0</ele><time>2026-04-19T14:44:52.51Z</time></trkpt><trkpt lat="38.3107017" lon="16.3728367"><ele>6.5</ele><time>2026-04-19T14:44:53.51Z</time></trkpt><trkpt lat="38.3106017" lon="16.3725267"><ele>7.0</ele><time>2026-04-19T14:44:54.51Z</time></trkpt><trkpt lat="38.3105067" lon="16.3722117"><ele>5.5</ele><time>2026-04-19T14:44:55.51Z</time></trkpt><trkpt lat="38.310415" lon="16.3718983"><ele>4.0</ele><time>2026-04-19T14:44:56.51Z</time></trkpt><trkpt lat="38.3103167" lon="16.371585"><ele>4.5</ele><time>2026-04-19T14:44:57.51Z</time></trkpt><trkpt lat="38.3102167" lon="16.3712733"><ele>5.0</ele><time>2026-04-19T14:44:58.51Z</time></trkpt><trkpt lat="38.3101167" lon="16.3709667"><ele>5.0</ele><time>2026-04-19T14:44:59.51Z</time></trkpt><trkpt lat="38.3100167" lon="16.3706583"><ele>5.0</ele><time>2026-04-19T14:45:00.51Z</time></trkpt><trkpt lat="38.3099183" lon="16.3703483"><ele>5.0</ele><time>2026-04-19T14:45:01.51Z</time></trkpt><trkpt lat="38.3098233" lon="16.3700283"><ele>5.0</ele><time>2026-04-19T14:45:02.51Z</time></trkpt><trkpt lat="38.3097233" lon="16.3697117"><ele>5.5</ele><time>2026-04-19T14:45:03.51Z</time></trkpt><trkpt lat="38.3096233" lon="16.369405"><ele>6.0</ele><time>2026-04-19T14:45:04.51Z</time></trkpt><trkpt lat="38.3095267" lon="16.369095"><ele>5.5</ele><time>2026-04-19T14:45:05.51Z</time></trkpt><trkpt lat="38.30943" lon="16.3687867"><ele>5.0</ele><time>2026-04-19T14:45:06.511Z</time></trkpt><trkpt lat="38.3093417" lon="16.36848"><ele>5.0</ele><time>2026-04-19T14:45:07.51Z</time></trkpt><trkpt lat="38.3092517" lon="16.3681717"><ele>5.0</ele><time>2026-04-19T14:45:08.511Z</time></trkpt><trkpt lat="38.3091617" lon="16.3678617"><ele>5.5</ele><time>2026-04-19T14:45:09.51Z</time></trkpt><trkpt lat="38.3090733" lon="16.3675567"><ele>6.0</ele><time>2026-04-19T14:45:10.51Z</time></trkpt><trkpt lat="38.30899" lon="16.3672417"><ele>5.0</ele><time>2026-04-19T14:45:11.511Z</time></trkpt><trkpt lat="38.3088967" lon="16.3669317"><ele>4.0</ele><time>2026-04-19T14:45:12.51Z</time></trkpt><trkpt lat="38.30881" lon="16.3666233"><ele>3.5</ele><time>2026-04-19T14:45:13.51Z</time></trkpt><trkpt lat="38.30872" lon="16.3663117"><ele>3.0</ele><time>2026-04-19T14:45:14.51Z</time></trkpt><trkpt lat="38.308635" lon="16.3660033"><ele>3.0</ele><time>2026-04-19T14:45:15.511Z</time></trkpt><trkpt lat="38.3085467" lon="16.3656933"><ele>3.0</ele><time>2026-04-19T14:45:16.51Z</time></trkpt><trkpt lat="38.3084633" lon="16.3653833"><ele>4.0</ele><time>2026-04-19T14:45:17.511Z</time></trkpt><trkpt lat="38.30838" lon="16.3650667"><ele>5.0</ele><time>2026-04-19T14:45:18.51Z</time></trkpt><trkpt lat="38.3083033" lon="16.36475"><ele>6.0</ele><time>2026-04-19T14:45:19.51Z</time></trkpt><trkpt lat="38.3082317" lon="16.3644333"><ele>7.0</ele><time>2026-04-19T14:45:20.51Z</time></trkpt><trkpt lat="38.308155" lon="16.3641083"><ele>7.0</ele><time>2026-04-19T14:45:21.51Z</time></trkpt><trkpt lat="38.308085" lon="16.3637883"><ele>7.0</ele><time>2026-04-19T14:45:22.51Z</time></trkpt><trkpt lat="38.3080083" lon="16.363465"><ele>6.5</ele><time>2026-04-19T14:45:23.51Z</time></trkpt><trkpt lat="38.30793" lon="16.3631483"><ele>6.0</ele><time>2026-04-19T14:45:24.51Z</time></trkpt><trkpt lat="38.30785" lon="16.3628417"><ele>6.0</ele><time>2026-04-19T14:45:25.511Z</time></trkpt><trkpt lat="38.3077683" lon="16.3625333"><ele>6.0</ele><time>2026-04-19T14:45:26.51Z</time></trkpt><trkpt lat="38.3076867" lon="16.3622267"><ele>6.0</ele><time>2026-04-19T14:45:27.511Z</time></trkpt><trkpt lat="38.3076033" lon="16.36192"><ele>6.0</ele><time>2026-04-19T14:45:28.51Z</time></trkpt><trkpt lat="38.307525" lon="16.36162"><ele>6.0</ele><time>2026-04-19T14:45:29.511Z</time></trkpt><trkpt lat="38.3074417" lon="16.3613283"><ele>6.0</ele><time>2026-04-19T14:45:30.511Z</time></trkpt><trkpt lat="38.3073733" lon="16.3610483"><ele>6.0</ele><time>2026-04-19T14:45:31.51Z</time></trkpt><trkpt lat="38.3073117" lon="16.3607917"><ele>6.0</ele><time>2026-04-19T14:45:32.51Z</time></trkpt><trkpt lat="38.3072583" lon="16.3605567"><ele>6.0</ele><time>2026-04-19T14:45:33.51Z</time></trkpt><trkpt lat="38.3072067" lon="16.3603267"><ele>6.0</ele><time>2026-04-19T14:45:34.51Z</time></trkpt><trkpt lat="38.307145" lon="16.360105"><ele>6.0</ele><time>2026-04-19T14:45:35.511Z</time></trkpt><trkpt lat="38.3070833" lon="16.35989"><ele>6.0</ele><time>2026-04-19T14:45:36.51Z</time></trkpt><trkpt lat="38.3070267" lon="16.3596817"><ele>5.666666666666667</ele><time>2026-04-19T14:45:37.51Z</time></trkpt><trkpt lat="38.3069667" lon="16.35946"><ele>5.333333333333334</ele><time>2026-04-19T14:45:38.51Z</time></trkpt><trkpt lat="38.306905" lon="16.3592283"><ele>5.0</ele><time>2026-04-19T14:45:39.51Z</time></trkpt><trkpt lat="38.30683" lon="16.3589883"><ele>5.333333333333334</ele><time>2026-04-19T14:45:40.51Z</time></trkpt><trkpt lat="38.3067583" lon="16.358735"><ele>5.666666666666667</ele><time>2026-04-19T14:45:41.51Z</time></trkpt><trkpt lat="38.3066817" lon="16.35847"><ele>6.0</ele><time>2026-04-19T14:45:42.51Z</time></trkpt><trkpt lat="38.30661" lon="16.3581967"><ele>6.5</ele><time>2026-04-19T14:45:43.51Z</time></trkpt><trkpt lat="38.3065317" lon="16.3579083"><ele>7.0</ele><time>2026-04-19T14:45:44.51Z</time></trkpt><trkpt lat="38.3064517" lon="16.3576167"><ele>5.0</ele><time>2026-04-19T14:45:45.51Z</time></trkpt><trkpt lat="38.30637" lon="16.3573233"><ele>3.0</ele><time>2026-04-19T14:45:46.51Z</time></trkpt><trkpt lat="38.3062983" lon="16.3570283"><ele>3.0</ele><time>2026-04-19T14:45:47.511Z</time></trkpt><trkpt lat="38.3062383" lon="16.3567383"><ele>3.0</ele><time>2026-04-19T14:45:48.51Z</time></trkpt><trkpt lat="38.306185" lon="16.3564433"><ele>3.5</ele><time>2026-04-19T14:45:49.511Z</time></trkpt><trkpt lat="38.3061533" lon="16.3561383"><ele>4.0</ele><time>2026-04-19T14:45:50.51Z</time></trkpt><trkpt lat="38.3061317" lon="16.35583"><ele>4.5</ele><time>2026-04-19T14:45:51.51Z</time></trkpt><trkpt lat="38.3061267" lon="16.3555233"><ele>5.0</ele><time>2026-04-19T14:45:52.51Z</time></trkpt><trkpt lat="38.3061233" lon="16.355225"><ele>5.0</ele><time>2026-04-19T14:45:53.51Z</time></trkpt><trkpt lat="38.3061333" lon="16.35494"><ele>5.0</ele><time>2026-04-19T14:45:54.51Z</time></trkpt><trkpt lat="38.30614" lon="16.3546683"><ele>5.0</ele><time>2026-04-19T14:45:55.51Z</time></trkpt><trkpt lat="38.3061533" lon="16.3544033"><ele>5.0</ele><time>2026-04-19T14:45:56.511Z</time></trkpt><trkpt lat="38.30617" lon="16.3541567"><ele>5.0</ele><time>2026-04-19T14:45:57.51Z</time></trkpt><trkpt lat="38.3061867" lon="16.353925"><ele>5.0</ele><time>2026-04-19T14:45:58.511Z</time></trkpt><trkpt lat="38.3062017" lon="16.3537117"><ele>5.0</ele><time>2026-04-19T14:45:59.51Z</time></trkpt><trkpt lat="38.30622" lon="16.3535117"><ele>5.0</ele><time>2026-04-19T14:46:00.51Z</time></trkpt><trkpt lat="38.3062433" lon="16.3533317"><ele>5.0</ele><time>2026-04-19T14:46:01.51Z</time></trkpt><trkpt lat="38.3062717" lon="16.35317"><ele>5.0</ele><time>2026-04-19T14:46:02.51Z</time></trkpt><trkpt lat="38.3063" lon="16.353025"><ele>5.0</ele><time>2026-04-19T14:46:03.51Z</time></trkpt><trkpt lat="38.3063167" lon="16.3528817"><ele>5.0</ele><time>2026-04-19T14:46:04.511Z</time></trkpt><trkpt lat="38.3063317" lon="16.35272"><ele>5.0</ele><time>2026-04-19T14:46:05.51Z</time></trkpt><trkpt lat="38.3063233" lon="16.3525333"><ele>5.0</ele><time>2026-04-19T14:46:06.51Z</time></trkpt><trkpt lat="38.3063117" lon="16.352325"><ele>5.0</ele><time>2026-04-19T14:46:07.51Z</time></trkpt><trkpt lat="38.3063133" lon="16.3521"><ele>5.0</ele><time>2026-04-19T14:46:08.511Z</time></trkpt><trkpt lat="38.3063233" lon="16.3518583"><ele>5.0</ele><time>2026-04-19T14:46:09.511Z</time></trkpt><trkpt lat="38.3063333" lon="16.3516017"><ele>5.0</ele><time>2026-04-19T14:46:10.51Z</time></trkpt><trkpt lat="38.3063433" lon="16.3513533"><ele>5.0</ele><time>2026-04-19T14:46:11.511Z</time></trkpt><trkpt lat="38.30636" lon="16.3511167"><ele>5.0</ele><time>2026-04-19T14:46:12.51Z</time></trkpt><trkpt lat="38.3063733" lon="16.3508633"><ele>5.0</ele><time>2026-04-19T14:46:13.51Z</time></trkpt><trkpt lat="38.30639" lon="16.3506033"><ele>5.0</ele><time>2026-04-19T14:46:14.51Z</time></trkpt><trkpt lat="38.3063967" lon="16.35034"><ele>5.0</ele><time>2026-04-19T14:46:15.51Z</time></trkpt><trkpt lat="38.3064167" lon="16.35007"><ele>5.666666666666667</ele><time>2026-04-19T14:46:16.511Z</time></trkpt><trkpt lat="38.3064233" lon="16.3498017"><ele>6.333333333333334</ele><time>2026-04-19T14:46:17.51Z</time></trkpt><trkpt lat="38.30644" lon="16.349525"><ele>7.0</ele><time>2026-04-19T14:46:18.511Z</time></trkpt><trkpt lat="38.306455" lon="16.3492467"><ele>7.0</ele><time>2026-04-19T14:46:19.51Z</time></trkpt><trkpt lat="38.3064717" lon="16.3489567"><ele>7.0</ele><time>2026-04-19T14:46:20.511Z</time></trkpt><trkpt lat="38.3064867" lon="16.348665"><ele>7.0</ele><time>2026-04-19T14:46:21.51Z</time></trkpt><trkpt lat="38.3065033" lon="16.34837"><ele>7.0</ele><time>2026-04-19T14:46:22.51Z</time></trkpt><trkpt lat="38.306525" lon="16.348055"><ele>7.5</ele><time>2026-04-19T14:46:23.511Z</time></trkpt><trkpt lat="38.3065417" lon="16.3477533"><ele>8.0</ele><time>2026-04-19T14:46:24.511Z</time></trkpt><trkpt lat="38.30656" lon="16.3474467"><ele>8.5</ele><time>2026-04-19T14:46:25.511Z</time></trkpt><trkpt lat="38.3065783" lon="16.3471417"><ele>9.0</ele><time>2026-04-19T14:46:26.51Z</time></trkpt><trkpt lat="38.3065917" lon="16.3468333"><ele>9.0</ele><time>2026-04-19T14:46:27.51Z</time></trkpt><trkpt lat="38.3066183" lon="16.3465267"><ele>9.0</ele><time>2026-04-19T14:46:28.51Z</time></trkpt><trkpt lat="38.3066467" lon="16.3462217"><ele>9.5</ele><time>2026-04-19T14:46:29.511Z</time></trkpt><trkpt lat="38.3066717" lon="16.3459183"><ele>10.0</ele><time>2026-04-19T14:46:30.51Z</time></trkpt><trkpt lat="38.3066883" lon="16.3456167"><ele>10.0</ele><time>2026-04-19T14:46:31.51Z</time></trkpt><trkpt lat="38.3067017" lon="16.3453167"><ele>10.0</ele><time>2026-04-19T14:46:32.51Z</time></trkpt><trkpt lat="38.3067117" lon="16.3450133"><ele>10.0</ele><time>2026-04-19T14:46:33.511Z</time></trkpt><trkpt lat="38.3067217" lon="16.344715"><ele>10.0</ele><time>2026-04-19T14:46:34.51Z</time></trkpt><trkpt lat="38.3067217" lon="16.3444133"><ele>10.0</ele><time>2026-04-19T14:46:35.51Z</time></trkpt><trkpt lat="38.3067217" lon="16.3441183"><ele>10.0</ele><time>2026-04-19T14:46:36.51Z</time></trkpt><trkpt lat="38.3067017" lon="16.3438183"><ele>10.0</ele><time>2026-04-19T14:46:37.51Z</time></trkpt><trkpt lat="38.30668" lon="16.343525"><ele>10.0</ele><time>2026-04-19T14:46:38.51Z</time></trkpt><trkpt lat="38.3066533" lon="16.34323"><ele>10.0</ele><time>2026-04-19T14:46:39.51Z</time></trkpt><trkpt lat="38.3066317" lon="16.3429367"><ele>10.0</ele><time>2026-04-19T14:46:40.51Z</time></trkpt><trkpt lat="38.3066067" lon="16.3426417"><ele>10.0</ele><time>2026-04-19T14:46:41.51Z</time></trkpt><trkpt lat="38.3065783" lon="16.3423533"><ele>10.0</ele><time>2026-04-19T14:46:42.51Z</time></trkpt><trkpt lat="38.30655" lon="16.342065"><ele>9.5</ele><time>2026-04-19T14:46:43.511Z</time></trkpt><trkpt lat="38.3065233" lon="16.3417717"><ele>9.0</ele><time>2026-04-19T14:46:44.51Z</time></trkpt><trkpt lat="38.3064783" lon="16.34148"><ele>9.5</ele><time>2026-04-19T14:46:45.51Z</time></trkpt><trkpt lat="38.3064117" lon="16.3411967"><ele>10.0</ele><time>2026-04-19T14:46:46.51Z</time></trkpt><trkpt lat="38.3063283" lon="16.34092"><ele>10.0</ele><time>2026-04-19T14:46:47.511Z</time></trkpt><trkpt lat="38.306225" lon="16.340655"><ele>10.0</ele><time>2026-04-19T14:46:48.51Z</time></trkpt><trkpt lat="38.3061167" lon="16.3403983"><ele>10.0</ele><time>2026-04-19T14:46:49.511Z</time></trkpt><trkpt lat="38.3059933" lon="16.3401417"><ele>10.0</ele><time>2026-04-19T14:46:50.51Z</time></trkpt><trkpt lat="38.3058583" lon="16.3398883"><ele>10.5</ele><time>2026-04-19T14:46:51.51Z</time></trkpt><trkpt lat="38.3057167" lon="16.33964"><ele>11.0</ele><time>2026-04-19T14:46:52.51Z</time></trkpt><trkpt lat="38.3055783" lon="16.3393833"><ele>11.0</ele><time>2026-04-19T14:46:53.511Z</time></trkpt><trkpt lat="38.305445" lon="16.3391317"><ele>11.0</ele><time>2026-04-19T14:46:54.511Z</time></trkpt><trkpt lat="38.30531" lon="16.3388833"><ele>10.5</ele><time>2026-04-19T14:46:55.51Z</time></trkpt><trkpt lat="38.305175" lon="16.338645"><ele>10.0</ele><time>2026-04-19T14:46:56.51Z</time></trkpt><trkpt lat="38.30504" lon="16.3383983"><ele>10.0</ele><time>2026-04-19T14:46:57.51Z</time></trkpt><trkpt lat="38.3049067" lon="16.33816"><ele>10.0</ele><time>2026-04-19T14:46:58.511Z</time></trkpt><trkpt lat="38.3047717" lon="16.3379133"><ele>10.333333333333334</ele><time>2026-04-19T14:46:59.51Z</time></trkpt><trkpt lat="38.3046433" lon="16.33768"><ele>10.666666666666666</ele><time>2026-04-19T14:47:00.51Z</time></trkpt><trkpt lat="38.30451" lon="16.3374533"><ele>11.0</ele><time>2026-04-19T14:47:01.511Z</time></trkpt><trkpt lat="38.30438" lon="16.337235"><ele>10.666666666666666</ele><time>2026-04-19T14:47:02.511Z</time></trkpt><trkpt lat="38.30425" lon="16.3370283"><ele>10.333333333333334</ele><time>2026-04-19T14:47:03.51Z</time></trkpt><trkpt lat="38.3041367" lon="16.33682"><ele>10.0</ele><time>2026-04-19T14:47:04.51Z</time></trkpt><trkpt lat="38.3040333" lon="16.33662"><ele>10.0</ele><time>2026-04-19T14:47:05.511Z</time></trkpt><trkpt lat="38.3039417" lon="16.3364317"><ele>10.0</ele><time>2026-04-19T14:47:06.51Z</time></trkpt><trkpt lat="38.30386" lon="16.3362667"><ele>10.0</ele><time>2026-04-19T14:47:07.51Z</time></trkpt><trkpt lat="38.3037817" lon="16.3361067"><ele>10.0</ele><time>2026-04-19T14:47:08.511Z</time></trkpt><trkpt lat="38.3037" lon="16.3359533"><ele>10.0</ele><time>2026-04-19T14:47:09.51Z</time></trkpt><trkpt lat="38.3036283" lon="16.335805"><ele>10.0</ele><time>2026-04-19T14:47:10.51Z</time></trkpt><trkpt lat="38.3035567" lon="16.3356717"><ele>10.0</ele><time>2026-04-19T14:47:11.51Z</time></trkpt><trkpt lat="38.303485" lon="16.3355333"><ele>10.0</ele><time>2026-04-19T14:47:12.51Z</time></trkpt><trkpt lat="38.3034167" lon="16.335405"><ele>10.0</ele><time>2026-04-19T14:47:13.51Z</time></trkpt><trkpt lat="38.30335" lon="16.3352683"><ele>10.0</ele><time>2026-04-19T14:47:14.51Z</time></trkpt><trkpt lat="38.303285" lon="16.33513"><ele>10.0</ele><time>2026-04-19T14:47:15.51Z</time></trkpt><trkpt lat="38.3032133" lon="16.3350067"><ele>10.0</ele><time>2026-04-19T14:47:16.511Z</time></trkpt><trkpt lat="38.3031417" lon="16.3348833"><ele>10.0</ele><time>2026-04-19T14:47:17.51Z</time></trkpt><trkpt lat="38.3030783" lon="16.3347717"><ele>10.0</ele><time>2026-04-19T14:47:18.51Z</time></trkpt><trkpt lat="38.3030233" lon="16.3346583"><ele>10.0</ele><time>2026-04-19T14:47:19.51Z</time></trkpt><trkpt lat="38.3029717" lon="16.334565"><ele>10.0</ele><time>2026-04-19T14:47:20.51Z</time></trkpt><trkpt lat="38.3029067" lon="16.3344417"><ele>10.0</ele><time>2026-04-19T14:47:22.51Z</time></trkpt><trkpt lat="38.3028783" lon="16.33437"><ele>10.0</ele><time>2026-04-19T14:47:24.511Z</time></trkpt><trkpt lat="38.30283" lon="16.3342783"><ele>10.0</ele><time>2026-04-19T14:47:55.51Z</time></trkpt><trkpt lat="38.302785" lon="16.3342"><ele>10.0</ele><time>2026-04-19T14:47:56.51Z</time></trkpt><trkpt lat="38.302725" lon="16.3341017"><ele>10.0</ele><time>2026-04-19T14:47:57.51Z</time></trkpt><trkpt lat="38.3026483" lon="16.33399"><ele>10.0</ele><time>2026-04-19T14:47:58.51Z</time></trkpt><trkpt lat="38.30256" lon="16.3338517"><ele>10.0</ele><time>2026-04-19T14:47:59.51Z</time></trkpt><trkpt lat="38.30246" lon="16.3336867"><ele>10.0</ele><time>2026-04-19T14:48:00.51Z</time></trkpt><trkpt lat="38.302345" lon="16.3335083"><ele>10.0</ele><time>2026-04-19T14:48:01.51Z</time></trkpt><trkpt lat="38.30223" lon="16.3333267"><ele>10.0</ele><time>2026-04-19T14:48:02.511Z</time></trkpt><trkpt lat="38.30213" lon="16.3331183"><ele>10.0</ele><time>2026-04-19T14:48:03.51Z</time></trkpt><trkpt lat="38.3020283" lon="16.3329067"><ele>10.0</ele><time>2026-04-19T14:48:04.51Z</time></trkpt><trkpt lat="38.3019217" lon="16.33269"><ele>10.666666666666668</ele><time>2026-04-19T14:48:05.51Z</time></trkpt><trkpt lat="38.3018117" lon="16.33248"><ele>11.333333333333334</ele><time>2026-04-19T14:48:06.51Z</time></trkpt><trkpt lat="38.3016967" lon="16.33227"><ele>12.0</ele><time>2026-04-19T14:48:07.51Z</time></trkpt><trkpt lat="38.3015833" lon="16.3320633"><ele>12.0</ele><time>2026-04-19T14:48:08.51Z</time></trkpt><trkpt lat="38.3014733" lon="16.331855"><ele>12.0</ele><time>2026-04-19T14:48:09.51Z</time></trkpt><trkpt lat="38.3013633" lon="16.33165"><ele>12.0</ele><time>2026-04-19T14:48:10.51Z</time></trkpt><trkpt lat="38.3012483" lon="16.3314583"><ele>12.333333333333332</ele><time>2026-04-19T14:48:11.51Z</time></trkpt><trkpt lat="38.3011433" lon="16.331265"><ele>12.666666666666666</ele><time>2026-04-19T14:48:12.51Z</time></trkpt><trkpt lat="38.3010467" lon="16.3310733"><ele>13.0</ele><time>2026-04-19T14:48:13.51Z</time></trkpt><trkpt lat="38.30095" lon="16.3308933"><ele>13.0</ele><time>2026-04-19T14:48:14.51Z</time></trkpt><trkpt lat="38.3008633" lon="16.3307117"><ele>13.0</ele><time>2026-04-19T14:48:15.51Z</time></trkpt><trkpt lat="38.300775" lon="16.3305367"><ele>13.0</ele><time>2026-04-19T14:48:16.511Z</time></trkpt><trkpt lat="38.3006783" lon="16.3303717"><ele>13.0</ele><time>2026-04-19T14:48:17.51Z</time></trkpt><trkpt lat="38.3005833" lon="16.330215"><ele>13.0</ele><time>2026-04-19T14:48:18.51Z</time></trkpt><trkpt lat="38.3004967" lon="16.3300583"><ele>13.0</ele><time>2026-04-19T14:48:19.51Z</time></trkpt><trkpt lat="38.3004183" lon="16.3299083"><ele>13.0</ele><time>2026-04-19T14:48:20.51Z</time></trkpt><trkpt lat="38.3003517" lon="16.329765"><ele>12.600000000000001</ele><time>2026-04-19T14:48:21.511Z</time></trkpt><trkpt lat="38.3002817" lon="16.32964"><ele>12.200000000000001</ele><time>2026-04-19T14:48:22.51Z</time></trkpt><trkpt lat="38.30021" lon="16.3295233"><ele>11.8</ele><time>2026-04-19T14:48:23.51Z</time></trkpt><trkpt lat="38.3001517" lon="16.3294167"><ele>11.4</ele><time>2026-04-19T14:48:24.51Z</time></trkpt><trkpt lat="38.3000967" lon="16.329325"><ele>11.0</ele><time>2026-04-19T14:48:25.511Z</time></trkpt><trkpt lat="38.30005" lon="16.3292433"><ele>11.0</ele><time>2026-04-19T14:48:26.51Z</time></trkpt><trkpt lat="38.3000033" lon="16.3291433"><ele>11.0</ele><time>2026-04-19T14:48:28.51Z</time></trkpt><trkpt lat="38.29996" lon="16.3290683"><ele>11.0</ele><time>2026-04-19T14:48:32.511Z</time></trkpt><trkpt lat="38.2999283" lon="16.3289733"><ele>11.0</ele><time>2026-04-19T14:48:34.51Z</time></trkpt><trkpt lat="38.2998583" lon="16.32886"><ele>11.0</ele><time>2026-04-19T14:48:36.511Z</time></trkpt><trkpt lat="38.2998117" lon="16.3287917"><ele>11.0</ele><time>2026-04-19T14:48:37.51Z</time></trkpt><trkpt lat="38.2997583" lon="16.3287083"><ele>11.0</ele><time>2026-04-19T14:48:38.51Z</time></trkpt><trkpt lat="38.299705" lon="16.328615"><ele>11.0</ele><time>2026-04-19T14:48:39.51Z</time></trkpt><trkpt lat="38.299655" lon="16.328515"><ele>11.0</ele><time>2026-04-19T14:48:40.511Z</time></trkpt><trkpt lat="38.299605" lon="16.3284217"><ele>11.0</ele><time>2026-04-19T14:48:41.51Z</time></trkpt><trkpt lat="38.2995433" lon="16.32832"><ele>11.0</ele><time>2026-04-19T14:48:42.51Z</time></trkpt><trkpt lat="38.29947" lon="16.3282017"><ele>11.0</ele><time>2026-04-19T14:48:43.51Z</time></trkpt><trkpt lat="38.2993967" lon="16.328065"><ele>11.0</ele><time>2026-04-19T14:48:44.51Z</time></trkpt><trkpt lat="38.29931" lon="16.3279167"><ele>11.0</ele><time>2026-04-19T14:48:45.51Z</time></trkpt><trkpt lat="38.2992183" lon="16.327765"><ele>11.0</ele><time>2026-04-19T14:48:46.51Z</time></trkpt><trkpt lat="38.2991333" lon="16.3275967"><ele>12.0</ele><time>2026-04-19T14:48:47.51Z</time></trkpt><trkpt lat="38.2990467" lon="16.3274333"><ele>13.0</ele><time>2026-04-19T14:48:48.51Z</time></trkpt><trkpt lat="38.29895" lon="16.327285"><ele>14.0</ele><time>2026-04-19T14:48:49.51Z</time></trkpt><trkpt lat="38.298855" lon="16.3271417"><ele>14.0</ele><time>2026-04-19T14:48:50.51Z</time></trkpt><trkpt lat="38.298775" lon="16.3270033"><ele>14.0</ele><time>2026-04-19T14:48:51.51Z</time></trkpt><trkpt lat="38.2986967" lon="16.326855"><ele>14.0</ele><time>2026-04-19T14:48:52.511Z</time></trkpt><trkpt lat="38.2986133" lon="16.3267017"><ele>14.0</ele><time>2026-04-19T14:48:53.51Z</time></trkpt><trkpt lat="38.2985267" lon="16.3265433"><ele>13.666666666666668</ele><time>2026-04-19T14:48:54.51Z</time></trkpt><trkpt lat="38.29844" lon="16.326375"><ele>13.333333333333332</ele><time>2026-04-19T14:48:55.51Z</time></trkpt><trkpt lat="38.2983467" lon="16.3262033"><ele>13.0</ele><time>2026-04-19T14:48:56.51Z</time></trkpt><trkpt lat="38.2982467" lon="16.326025"><ele>13.0</ele><time>2026-04-19T14:48:57.51Z</time></trkpt><trkpt lat="38.29816" lon="16.3258417"><ele>13.0</ele><time>2026-04-19T14:48:58.511Z</time></trkpt><trkpt lat="38.2980617" lon="16.3256633"><ele>13.0</ele><time>2026-04-19T14:48:59.51Z</time></trkpt><trkpt lat="38.2979683" lon="16.3254817"><ele>12.0</ele><time>2026-04-19T14:49:00.511Z</time></trkpt><trkpt lat="38.2978533" lon="16.3253"><ele>11.0</ele><time>2026-04-19T14:49:01.51Z</time></trkpt><trkpt lat="38.297725" lon="16.32515"><ele>10.0</ele><time>2026-04-19T14:49:02.51Z</time></trkpt><trkpt lat="38.2975917" lon="16.3249883"><ele>10.0</ele><time>2026-04-19T14:49:03.51Z</time></trkpt><trkpt lat="38.2974567" lon="16.324825"><ele>10.0</ele><time>2026-04-19T14:49:04.51Z</time></trkpt><trkpt lat="38.2973033" lon="16.32467"><ele>10.0</ele><time>2026-04-19T14:49:05.51Z</time></trkpt><trkpt lat="38.2971567" lon="16.32452"><ele>9.333333333333334</ele><time>2026-04-19T14:49:06.51Z</time></trkpt><trkpt lat="38.2970183" lon="16.32436"><ele>8.666666666666666</ele><time>2026-04-19T14:49:07.51Z</time></trkpt><trkpt lat="38.2968733" lon="16.3241967"><ele>8.0</ele><time>2026-04-19T14:49:08.51Z</time></trkpt><trkpt lat="38.2967283" lon="16.32403"><ele>7.666666666666666</ele><time>2026-04-19T14:49:09.511Z</time></trkpt><trkpt lat="38.296585" lon="16.32387"><ele>7.333333333333334</ele><time>2026-04-19T14:49:10.51Z</time></trkpt><trkpt lat="38.296435" lon="16.3237017"><ele>7.0</ele><time>2026-04-19T14:49:11.511Z</time></trkpt><trkpt lat="38.29628" lon="16.3235367"><ele>7.0</ele><time>2026-04-19T14:49:12.511Z</time></trkpt><trkpt lat="38.29612" lon="16.3233733"><ele>7.0</ele><time>2026-04-19T14:49:13.51Z</time></trkpt><trkpt lat="38.29596" lon="16.323205"><ele>7.0</ele><time>2026-04-19T14:49:14.51Z</time></trkpt><trkpt lat="38.2957967" lon="16.323025"><ele>7.0</ele><time>2026-04-19T14:49:15.51Z</time></trkpt><trkpt lat="38.295635" lon="16.322845"><ele>7.0</ele><time>2026-04-19T14:49:16.51Z</time></trkpt><trkpt lat="38.2954767" lon="16.3226617"><ele>7.0</ele><time>2026-04-19T14:49:17.51Z</time></trkpt><trkpt lat="38.29531" lon="16.3224783"><ele>7.333333333333334</ele><time>2026-04-19T14:49:18.51Z</time></trkpt><trkpt lat="38.2951483" lon="16.3222967"><ele>7.666666666666666</ele><time>2026-04-19T14:49:19.511Z</time></trkpt><trkpt lat="38.2949917" lon="16.3221183"><ele>8.0</ele><time>2026-04-19T14:49:20.51Z</time></trkpt><trkpt lat="38.2948317" lon="16.3219567"><ele>8.333333333333332</ele><time>2026-04-19T14:49:21.51Z</time></trkpt><trkpt lat="38.2946583" lon="16.3218067"><ele>8.666666666666666</ele><time>2026-04-19T14:49:22.51Z</time></trkpt><trkpt lat="38.2944833" lon="16.321665"><ele>9.0</ele><time>2026-04-19T14:49:23.51Z</time></trkpt><trkpt lat="38.294325" lon="16.3215383"><ele>9.0</ele><time>2026-04-19T14:49:24.51Z</time></trkpt><trkpt lat="38.2941733" lon="16.321415"><ele>9.0</ele><time>2026-04-19T14:49:25.51Z</time></trkpt><trkpt lat="38.29403" lon="16.3212983"><ele>9.0</ele><time>2026-04-19T14:49:26.51Z</time></trkpt><trkpt lat="38.2938933" lon="16.3211883"><ele>9.333333333333334</ele><time>2026-04-19T14:49:27.51Z</time></trkpt><trkpt lat="38.2937483" lon="16.3210717"><ele>9.666666666666668</ele><time>2026-04-19T14:49:28.511Z</time></trkpt><trkpt lat="38.2936083" lon="16.3209483"><ele>10.0</ele><time>2026-04-19T14:49:29.51Z</time></trkpt><trkpt lat="38.2934633" lon="16.320815"><ele>10.0</ele><time>2026-04-19T14:49:30.511Z</time></trkpt><trkpt lat="38.2933067" lon="16.3206783"><ele>10.0</ele><time>2026-04-19T14:49:31.511Z</time></trkpt><trkpt lat="38.2931517" lon="16.32054"><ele>10.0</ele><time>2026-04-19T14:49:32.51Z</time></trkpt><trkpt lat="38.29299" lon="16.32039"><ele>10.0</ele><time>2026-04-19T14:49:33.51Z</time></trkpt><trkpt lat="38.2928217" lon="16.3202433"><ele>10.0</ele><time>2026-04-19T14:49:34.51Z</time></trkpt><trkpt lat="38.29266" lon="16.320095"><ele>10.0</ele><time>2026-04-19T14:49:35.511Z</time></trkpt><trkpt lat="38.2924967" lon="16.3199517"><ele>10.0</ele><time>2026-04-19T14:49:36.511Z</time></trkpt><trkpt lat="38.2923383" lon="16.3198167"><ele>10.0</ele><time>2026-04-19T14:49:37.51Z</time></trkpt><trkpt lat="38.2922" lon="16.3196967"><ele>10.0</ele><time>2026-04-19T14:49:38.51Z</time></trkpt><trkpt lat="38.29207" lon="16.3195833"><ele>9.666666666666668</ele><time>2026-04-19T14:49:39.51Z</time></trkpt><trkpt lat="38.291945" lon="16.3194767"><ele>9.333333333333334</ele><time>2026-04-19T14:49:40.51Z</time></trkpt><trkpt lat="38.2918167" lon="16.3193733"><ele>9.0</ele><time>2026-04-19T14:49:41.51Z</time></trkpt><trkpt lat="38.2916883" lon="16.3192583"><ele>9.0</ele><time>2026-04-19T14:49:42.51Z</time></trkpt><trkpt lat="38.2915467" lon="16.31913"><ele>9.0</ele><time>2026-04-19T14:49:43.51Z</time></trkpt><trkpt lat="38.291405" lon="16.319005"><ele>9.0</ele><time>2026-04-19T14:49:44.51Z</time></trkpt><trkpt lat="38.2912633" lon="16.31887"><ele>8.333333333333334</ele><time>2026-04-19T14:49:45.51Z</time></trkpt><trkpt lat="38.2911167" lon="16.3187317"><ele>7.666666666666667</ele><time>2026-04-19T14:49:46.51Z</time></trkpt><trkpt lat="38.29096" lon="16.3186"><ele>7.0</ele><time>2026-04-19T14:49:47.51Z</time></trkpt><trkpt lat="38.29081" lon="16.3184583"><ele>7.0</ele><time>2026-04-19T14:49:48.51Z</time></trkpt><trkpt lat="38.2906583" lon="16.3183167"><ele>7.0</ele><time>2026-04-19T14:49:49.51Z</time></trkpt><trkpt lat="38.290505" lon="16.3181667"><ele>7.0</ele><time>2026-04-19T14:49:50.511Z</time></trkpt><trkpt lat="38.29035" lon="16.318025"><ele>7.666666666666667</ele><time>2026-04-19T14:49:51.51Z</time></trkpt><trkpt lat="38.2901983" lon="16.3178833"><ele>8.333333333333334</ele><time>2026-04-19T14:49:52.51Z</time></trkpt><trkpt lat="38.290045" lon="16.3177367"><ele>9.0</ele><time>2026-04-19T14:49:53.51Z</time></trkpt><trkpt lat="38.2898833" lon="16.3175883"><ele>9.0</ele><time>2026-04-19T14:49:54.51Z</time></trkpt><trkpt lat="38.2897133" lon="16.3174467"><ele>9.0</ele><time>2026-04-19T14:49:55.51Z</time></trkpt><trkpt lat="38.28955" lon="16.31729"><ele>9.0</ele><time>2026-04-19T14:49:56.51Z</time></trkpt><trkpt lat="38.289395" lon="16.31714"><ele>8.666666666666666</ele><time>2026-04-19T14:49:57.51Z</time></trkpt><trkpt lat="38.2892517" lon="16.3170017"><ele>8.333333333333332</ele><time>2026-04-19T14:49:58.51Z</time></trkpt><trkpt lat="38.2891033" lon="16.316895"><ele>8.0</ele><time>2026-04-19T14:49:59.511Z</time></trkpt><trkpt lat="38.2889733" lon="16.31678"><ele>8.5</ele><time>2026-04-19T14:50:00.51Z</time></trkpt><trkpt lat="38.288845" lon="16.3166733"><ele>9.0</ele><time>2026-04-19T14:50:01.51Z</time></trkpt><trkpt lat="38.28872" lon="16.316575"><ele>9.5</ele><time>2026-04-19T14:50:02.51Z</time></trkpt><trkpt lat="38.288615" lon="16.3164733"><ele>10.0</ele><time>2026-04-19T14:50:03.511Z</time></trkpt><trkpt lat="38.2885283" lon="16.3164017"><ele>10.0</ele><time>2026-04-19T14:50:04.51Z</time></trkpt><trkpt lat="38.288455" lon="16.3163417"><ele>10.0</ele><time>2026-04-19T14:50:05.51Z</time></trkpt><trkpt lat="38.288375" lon="16.31627"><ele>10.0</ele><time>2026-04-19T14:50:07.511Z</time></trkpt><trkpt lat="38.288275" lon="16.3162067"><ele>10.0</ele><time>2026-04-19T14:50:44.51Z</time></trkpt><trkpt lat="38.2882117" lon="16.3161517"><ele>10.0</ele><time>2026-04-19T14:50:45.51Z</time></trkpt><trkpt lat="38.28812" lon="16.31607"><ele>9.0</ele><time>2026-04-19T14:50:46.51Z</time></trkpt><trkpt lat="38.2879883" lon="16.3159617"><ele>8.0</ele><time>2026-04-19T14:50:47.511Z</time></trkpt><trkpt lat="38.28784" lon="16.3158467"><ele>7.0</ele><time>2026-04-19T14:50:48.51Z</time></trkpt><trkpt lat="38.2876867" lon="16.3157167"><ele>7.0</ele><time>2026-04-19T14:50:49.51Z</time></trkpt><trkpt lat="38.2875067" lon="16.315585"><ele>7.0</ele><time>2026-04-19T14:50:50.51Z</time></trkpt><trkpt lat="38.2873183" lon="16.31544"><ele>7.0</ele><time>2026-04-19T14:50:51.51Z</time></trkpt><trkpt lat="38.28712" lon="16.3152883"><ele>7.5</ele><time>2026-04-19T14:50:52.51Z</time></trkpt><trkpt lat="38.2869183" lon="16.3151367"><ele>8.0</ele><time>2026-04-19T14:50:53.51Z</time></trkpt><trkpt lat="38.2867217" lon="16.3149717"><ele>8.0</ele><time>2026-04-19T14:50:54.51Z</time></trkpt><trkpt lat="38.2865433" lon="16.3148033"><ele>8.0</ele><time>2026-04-19T14:50:55.51Z</time></trkpt><trkpt lat="38.286375" lon="16.3146917"><ele>8.0</ele><time>2026-04-19T14:50:56.51Z</time></trkpt><trkpt lat="38.286215" lon="16.3145533"><ele>7.0</ele><time>2026-04-19T14:50:57.51Z</time></trkpt><trkpt lat="38.2860483" lon="16.31441"><ele>6.0</ele><time>2026-04-19T14:50:58.51Z</time></trkpt><trkpt lat="38.2858733" lon="16.3142667"><ele>5.0</ele><time>2026-04-19T14:50:59.51Z</time></trkpt><trkpt lat="38.285695" lon="16.3141233"><ele>5.333333333333334</ele><time>2026-04-19T14:51:00.51Z</time></trkpt><trkpt lat="38.285515" lon="16.31398"><ele>5.666666666666667</ele><time>2026-04-19T14:51:01.51Z</time></trkpt><trkpt lat="38.2853317" lon="16.3138433"><ele>6.0</ele><time>2026-04-19T14:51:02.51Z</time></trkpt><trkpt lat="38.28515" lon="16.3137033"><ele>5.666666666666667</ele><time>2026-04-19T14:51:03.51Z</time></trkpt><trkpt lat="38.284965" lon="16.31357"><ele>5.333333333333334</ele><time>2026-04-19T14:51:04.51Z</time></trkpt><trkpt lat="38.2847967" lon="16.3134417"><ele>5.0</ele><time>2026-04-19T14:51:05.51Z</time></trkpt><trkpt lat="38.2846317" lon="16.3133133"><ele>5.0</ele><time>2026-04-19T14:51:06.511Z</time></trkpt><trkpt lat="38.284465" lon="16.3131933"><ele>5.0</ele><time>2026-04-19T14:51:07.51Z</time></trkpt><trkpt lat="38.2842967" lon="16.313075"><ele>5.0</ele><time>2026-04-19T14:51:08.511Z</time></trkpt><trkpt lat="38.2841217" lon="16.3129667"><ele>5.333333333333334</ele><time>2026-04-19T14:51:09.511Z</time></trkpt><trkpt lat="38.2839583" lon="16.3128517"><ele>5.666666666666667</ele><time>2026-04-19T14:51:10.51Z</time></trkpt><trkpt lat="38.2837917" lon="16.312745"><ele>6.0</ele><time>2026-04-19T14:51:11.51Z</time></trkpt><trkpt lat="38.283625" lon="16.31263"><ele>6.0</ele><time>2026-04-19T14:51:12.51Z</time></trkpt><trkpt lat="38.2834633" lon="16.3125067"><ele>6.0</ele><time>2026-04-19T14:51:13.51Z</time></trkpt><trkpt lat="38.2832933" lon="16.3123833"><ele>6.0</ele><time>2026-04-19T14:51:14.51Z</time></trkpt><trkpt lat="38.283125" lon="16.31226"><ele>6.0</ele><time>2026-04-19T14:51:15.51Z</time></trkpt><trkpt lat="38.2829617" lon="16.3121233"><ele>6.0</ele><time>2026-04-19T14:51:16.51Z</time></trkpt><trkpt lat="38.28279" lon="16.3119917"><ele>6.0</ele><time>2026-04-19T14:51:17.511Z</time></trkpt><trkpt lat="38.2826183" lon="16.31187"><ele>6.0</ele><time>2026-04-19T14:51:18.511Z</time></trkpt><trkpt lat="38.282445" lon="16.3117417"><ele>6.0</ele><time>2026-04-19T14:51:19.51Z</time></trkpt><trkpt lat="38.2822717" lon="16.3116267"><ele>6.0</ele><time>2026-04-19T14:51:20.511Z</time></trkpt><trkpt lat="38.2821067" lon="16.3114967"><ele>6.666666666666666</ele><time>2026-04-19T14:51:21.51Z</time></trkpt><trkpt lat="38.28193" lon="16.31136"><ele>7.333333333333333</ele><time>2026-04-19T14:51:22.511Z</time></trkpt><trkpt lat="38.2817533" lon="16.311235"><ele>8.0</ele><time>2026-04-19T14:51:23.51Z</time></trkpt><trkpt lat="38.2815817" lon="16.31111"><ele>7.666666666666666</ele><time>2026-04-19T14:51:24.51Z</time></trkpt><trkpt lat="38.2814017" lon="16.3109733"><ele>7.333333333333334</ele><time>2026-04-19T14:51:25.51Z</time></trkpt><trkpt lat="38.281225" lon="16.3108417"><ele>7.0</ele><time>2026-04-19T14:51:26.51Z</time></trkpt><trkpt lat="38.2810467" lon="16.3107033"><ele>7.0</ele><time>2026-04-19T14:51:27.51Z</time></trkpt><trkpt lat="38.2808683" lon="16.310565"><ele>7.0</ele><time>2026-04-19T14:51:28.51Z</time></trkpt><trkpt lat="38.2806933" lon="16.3104317"><ele>7.0</ele><time>2026-04-19T14:51:29.51Z</time></trkpt><trkpt lat="38.28053" lon="16.3102917"><ele>7.666666666666667</ele><time>2026-04-19T14:51:30.511Z</time></trkpt><trkpt lat="38.28036" lon="16.31014"><ele>8.333333333333334</ele><time>2026-04-19T14:51:31.51Z</time></trkpt><trkpt lat="38.280185" lon="16.3100067"><ele>9.0</ele><time>2026-04-19T14:51:32.51Z</time></trkpt><trkpt lat="38.2800067" lon="16.3098817"><ele>9.0</ele><time>2026-04-19T14:51:33.51Z</time></trkpt><trkpt lat="38.2798433" lon="16.30975"><ele>9.0</ele><time>2026-04-19T14:51:34.51Z</time></trkpt><trkpt lat="38.2796783" lon="16.3096233"><ele>9.0</ele><time>2026-04-19T14:51:35.51Z</time></trkpt><trkpt lat="38.2795133" lon="16.3094967"><ele>8.333333333333334</ele><time>2026-04-19T14:51:36.511Z</time></trkpt><trkpt lat="38.2793517" lon="16.30937"><ele>7.666666666666667</ele><time>2026-04-19T14:51:37.511Z</time></trkpt><trkpt lat="38.2791967" lon="16.3092467"><ele>7.0</ele><time>2026-04-19T14:51:38.51Z</time></trkpt><trkpt lat="38.2790433" lon="16.3091233"><ele>7.0</ele><time>2026-04-19T14:51:39.51Z</time></trkpt><trkpt lat="38.2788933" lon="16.3090167"><ele>7.0</ele><time>2026-04-19T14:51:40.51Z</time></trkpt><trkpt lat="38.2787467" lon="16.3089133"><ele>7.0</ele><time>2026-04-19T14:51:41.51Z</time></trkpt><trkpt lat="38.27861" lon="16.3088233"><ele>7.0</ele><time>2026-04-19T14:51:42.511Z</time></trkpt><trkpt lat="38.2784783" lon="16.308745"><ele>7.0</ele><time>2026-04-19T14:51:43.51Z</time></trkpt><trkpt lat="38.2783517" lon="16.3086733"><ele>7.0</ele><time>2026-04-19T14:51:44.51Z</time></trkpt><trkpt lat="38.2782283" lon="16.3086133"><ele>7.0</ele><time>2026-04-19T14:51:45.51Z</time></trkpt><trkpt lat="38.278115" lon="16.30855"><ele>7.0</ele><time>2026-04-19T14:51:46.51Z</time></trkpt><trkpt lat="38.2780083" lon="16.30849"><ele>7.0</ele><time>2026-04-19T14:51:47.51Z</time></trkpt><trkpt lat="38.2779017" lon="16.3084333"><ele>7.0</ele><time>2026-04-19T14:51:48.51Z</time></trkpt><trkpt lat="38.277795" lon="16.3083717"><ele>7.0</ele><time>2026-04-19T14:51:49.51Z</time></trkpt><trkpt lat="38.2776833" lon="16.3082983"><ele>7.0</ele><time>2026-04-19T14:51:50.51Z</time></trkpt><trkpt lat="38.2775617" lon="16.308215"><ele>7.0</ele><time>2026-04-19T14:51:51.51Z</time></trkpt><trkpt lat="38.2774367" lon="16.3081167"><ele>7.0</ele><time>2026-04-19T14:51:52.51Z</time></trkpt><trkpt lat="38.2773067" lon="16.3080083"><ele>7.0</ele><time>2026-04-19T14:51:53.51Z</time></trkpt><trkpt lat="38.2771717" lon="16.3078967"><ele>6.333333333333334</ele><time>2026-04-19T14:51:54.51Z</time></trkpt><trkpt lat="38.2770367" lon="16.3077617"><ele>5.666666666666667</ele><time>2026-04-19T14:51:55.51Z</time></trkpt><trkpt lat="38.276895" lon="16.307645"><ele>5.0</ele><time>2026-04-19T14:51:56.51Z</time></trkpt><trkpt lat="38.27676" lon="16.3075383"><ele>5.0</ele><time>2026-04-19T14:51:57.51Z</time></trkpt><trkpt lat="38.2766317" lon="16.3074167"><ele>5.0</ele><time>2026-04-19T14:51:58.51Z</time></trkpt><trkpt lat="38.2765083" lon="16.3072967"><ele>5.0</ele><time>2026-04-19T14:51:59.51Z</time></trkpt><trkpt lat="38.276385" lon="16.3071733"><ele>6.0</ele><time>2026-04-19T14:52:00.511Z</time></trkpt><trkpt lat="38.2762517" lon="16.3070533"><ele>7.0</ele><time>2026-04-19T14:52:01.51Z</time></trkpt><trkpt lat="38.2761217" lon="16.306925"><ele>8.0</ele><time>2026-04-19T14:52:02.51Z</time></trkpt><trkpt lat="38.2759883" lon="16.306795"><ele>8.0</ele><time>2026-04-19T14:52:03.51Z</time></trkpt><trkpt lat="38.275865" lon="16.3066617"><ele>8.0</ele><time>2026-04-19T14:52:04.51Z</time></trkpt><trkpt lat="38.275735" lon="16.3065317"><ele>8.0</ele><time>2026-04-19T14:52:05.511Z</time></trkpt><trkpt lat="38.2756033" lon="16.306395"><ele>7.333333333333333</ele><time>2026-04-19T14:52:06.51Z</time></trkpt><trkpt lat="38.27549" lon="16.3062483"><ele>6.666666666666666</ele><time>2026-04-19T14:52:07.51Z</time></trkpt><trkpt lat="38.2753767" lon="16.30611"><ele>6.0</ele><time>2026-04-19T14:52:08.511Z</time></trkpt><trkpt lat="38.2752583" lon="16.3060033"><ele>6.0</ele><time>2026-04-19T14:52:09.51Z</time></trkpt><trkpt lat="38.275145" lon="16.3059"><ele>6.0</ele><time>2026-04-19T14:52:10.511Z</time></trkpt><trkpt lat="38.27503" lon="16.3058017"><ele>6.0</ele><time>2026-04-19T14:52:11.51Z</time></trkpt><trkpt lat="38.2749267" lon="16.3057"><ele>6.0</ele><time>2026-04-19T14:52:12.51Z</time></trkpt><trkpt lat="38.2748333" lon="16.3056017"><ele>6.199999999999999</ele><time>2026-04-19T14:52:13.51Z</time></trkpt><trkpt lat="38.2747517" lon="16.3055017"><ele>6.3999999999999995</ele><time>2026-04-19T14:52:14.51Z</time></trkpt><trkpt lat="38.2746683" lon="16.305415"><ele>6.6</ele><time>2026-04-19T14:52:15.51Z</time></trkpt><trkpt lat="38.274585" lon="16.30533"><ele>6.8</ele><time>2026-04-19T14:52:16.51Z</time></trkpt><trkpt lat="38.27451" lon="16.3052617"><ele>7.0</ele><time>2026-04-19T14:52:17.51Z</time></trkpt><trkpt lat="38.2744367" lon="16.3051933"><ele>7.0</ele><time>2026-04-19T14:52:18.51Z</time></trkpt><trkpt lat="38.2743783" lon="16.3051183"><ele>6.999999999999999</ele><time>2026-04-19T14:52:19.51Z</time></trkpt><trkpt lat="38.27433" lon="16.3050483"><ele>6.999999999999999</ele><time>2026-04-19T14:52:20.511Z</time></trkpt><trkpt lat="38.2743217" lon="16.3049217"><ele>7.0</ele><time>2026-04-19T14:52:22.511Z</time></trkpt><trkpt lat="38.2744067" lon="16.3048067"><ele>7.0</ele><time>2026-04-19T14:52:24.51Z</time></trkpt><trkpt lat="38.274465" lon="16.3047483"><ele>7.166666666666667</ele><time>2026-04-19T14:52:25.51Z</time></trkpt><trkpt lat="38.27452" lon="16.30468"><ele>7.333333333333334</ele><time>2026-04-19T14:52:26.51Z</time></trkpt><trkpt lat="38.2745833" lon="16.3046117"><ele>7.5</ele><time>2026-04-19T14:52:27.51Z</time></trkpt><trkpt lat="38.27465" lon="16.304535"><ele>7.666666666666666</ele><time>2026-04-19T14:52:28.51Z</time></trkpt><trkpt lat="38.27471" lon="16.3044633"><ele>7.833333333333333</ele><time>2026-04-19T14:52:29.51Z</time></trkpt><trkpt lat="38.274775" lon="16.3043817"><ele>8.0</ele><time>2026-04-19T14:52:30.51Z</time></trkpt><trkpt lat="38.2748333" lon="16.3042933"><ele>7.999999999999999</ele><time>2026-04-19T14:52:31.51Z</time></trkpt><trkpt lat="38.2748967" lon="16.3042117"><ele>8.0</ele><time>2026-04-19T14:52:32.51Z</time></trkpt><trkpt lat="38.27496" lon="16.3041317"><ele>8.0</ele><time>2026-04-19T14:52:33.511Z</time></trkpt><trkpt lat="38.2750233" lon="16.304045"><ele>8.0</ele><time>2026-04-19T14:52:34.51Z</time></trkpt><trkpt lat="38.275075" lon="16.30396"><ele>7.999999999999999</ele><time>2026-04-19T14:52:35.51Z</time></trkpt><trkpt lat="38.2751283" lon="16.3039"><ele>8.0</ele><time>2026-04-19T14:52:36.51Z</time></trkpt><trkpt lat="38.2751917" lon="16.3037983"><ele>8.200000000000001</ele><time>2026-04-19T14:52:38.51Z</time></trkpt><trkpt lat="38.2751683" lon="16.3036967"><ele>8.4</ele><time>2026-04-19T14:52:40.51Z</time></trkpt><trkpt lat="38.2751083" lon="16.3036383"><ele>8.600000000000001</ele><time>2026-04-19T14:52:41.51Z</time></trkpt><trkpt lat="38.2750283" lon="16.30356"><ele>8.8</ele><time>2026-04-19T14:52:42.51Z</time></trkpt><trkpt lat="38.27492" lon="16.30346"><ele>9.0</ele><time>2026-04-19T14:52:43.511Z</time></trkpt><trkpt lat="38.2748017" lon="16.30334"><ele>8.75</ele><time>2026-04-19T14:52:44.51Z</time></trkpt><trkpt lat="38.27469" lon="16.3032217"><ele>8.5</ele><time>2026-04-19T14:52:45.51Z</time></trkpt><trkpt lat="38.2745733" lon="16.3031"><ele>8.25</ele><time>2026-04-19T14:52:46.51Z</time></trkpt><trkpt lat="38.274455" lon="16.3029767"><ele>8.0</ele><time>2026-04-19T14:52:47.511Z</time></trkpt><trkpt lat="38.274335" lon="16.30284"><ele>7.666666666666666</ele><time>2026-04-19T14:52:48.51Z</time></trkpt><trkpt lat="38.2742367" lon="16.3026867"><ele>7.333333333333334</ele><time>2026-04-19T14:52:49.51Z</time></trkpt><trkpt lat="38.274135" lon="16.3025417"><ele>7.0</ele><time>2026-04-19T14:52:50.511Z</time></trkpt><trkpt lat="38.2740283" lon="16.3023983"><ele>7.25</ele><time>2026-04-19T14:52:51.511Z</time></trkpt><trkpt lat="38.2739317" lon="16.302265"><ele>7.5</ele><time>2026-04-19T14:52:52.51Z</time></trkpt><trkpt lat="38.2738383" lon="16.3021533"><ele>7.75</ele><time>2026-04-19T14:52:53.51Z</time></trkpt><trkpt lat="38.27376" lon="16.3020433"><ele>8.0</ele><time>2026-04-19T14:52:54.509Z</time></trkpt><trkpt lat="38.2736817" lon="16.30195"><ele>8.0</ele><time>2026-04-19T14:52:55.51Z</time></trkpt><trkpt lat="38.2736017" lon="16.3018467"><ele>8.0</ele><time>2026-04-19T14:52:56.51Z</time></trkpt><trkpt lat="38.2735017" lon="16.3017583"><ele>8.0</ele><time>2026-04-19T14:52:57.51Z</time></trkpt><trkpt lat="38.273405" lon="16.3016583"><ele>8.0</ele><time>2026-04-19T14:52:58.51Z</time></trkpt><trkpt lat="38.2733133" lon="16.301555"><ele>8.0</ele><time>2026-04-19T14:52:59.51Z</time></trkpt><trkpt lat="38.2732083" lon="16.301435"><ele>8.0</ele><time>2026-04-19T14:53:00.51Z</time></trkpt><trkpt lat="38.2731083" lon="16.3013167"><ele>8.0</ele><time>2026-04-19T14:53:01.51Z</time></trkpt><trkpt lat="38.2730083" lon="16.30119"><ele>8.0</ele><time>2026-04-19T14:53:02.511Z</time></trkpt><trkpt lat="38.2729067" lon="16.3010633"><ele>8.333333333333332</ele><time>2026-04-19T14:53:03.51Z</time></trkpt><trkpt lat="38.2728" lon="16.3009333"><ele>8.666666666666666</ele><time>2026-04-19T14:53:04.511Z</time></trkpt><trkpt lat="38.27269" lon="16.3007983"><ele>9.0</ele><time>2026-04-19T14:53:05.511Z</time></trkpt><trkpt lat="38.27258" lon="16.3006583"><ele>10.333333333333332</ele><time>2026-04-19T14:53:06.51Z</time></trkpt><trkpt lat="38.272465" lon="16.3005233"><ele>11.666666666666666</ele><time>2026-04-19T14:53:07.51Z</time></trkpt><trkpt lat="38.2723517" lon="16.3003717"><ele>13.0</ele><time>2026-04-19T14:53:08.51Z</time></trkpt><trkpt lat="38.27224" lon="16.3002233"><ele>13.333333333333332</ele><time>2026-04-19T14:53:09.511Z</time></trkpt><trkpt lat="38.2721317" lon="16.30008"><ele>13.666666666666668</ele><time>2026-04-19T14:53:10.51Z</time></trkpt><trkpt lat="38.272015" lon="16.2999467"><ele>14.0</ele><time>2026-04-19T14:53:11.51Z</time></trkpt><trkpt lat="38.2718983" lon="16.2998117"><ele>13.666666666666668</ele><time>2026-04-19T14:53:12.511Z</time></trkpt><trkpt lat="38.2717817" lon="16.2996767"><ele>13.333333333333332</ele><time>2026-04-19T14:53:13.51Z</time></trkpt><trkpt lat="38.2716617" lon="16.2995467"><ele>13.0</ele><time>2026-04-19T14:53:14.511Z</time></trkpt><trkpt lat="38.271545" lon="16.2994167"><ele>13.666666666666666</ele><time>2026-04-19T14:53:15.511Z</time></trkpt><trkpt lat="38.2714333" lon="16.299285"><ele>14.333333333333332</ele><time>2026-04-19T14:53:16.51Z</time></trkpt><trkpt lat="38.2713233" lon="16.29915"><ele>15.0</ele><time>2026-04-19T14:53:17.511Z</time></trkpt><trkpt lat="38.2712117" lon="16.29902"><ele>14.0</ele><time>2026-04-19T14:53:18.51Z</time></trkpt><trkpt lat="38.271095" lon="16.298895"><ele>13.0</ele><time>2026-04-19T14:53:19.511Z</time></trkpt><trkpt lat="38.2709733" lon="16.2987583"><ele>12.0</ele><time>2026-04-19T14:53:20.51Z</time></trkpt><trkpt lat="38.2708567" lon="16.2986333"><ele>12.0</ele><time>2026-04-19T14:53:21.51Z</time></trkpt><trkpt lat="38.270765" lon="16.2984867"><ele>12.0</ele><time>2026-04-19T14:53:22.51Z</time></trkpt><trkpt lat="38.2706567" lon="16.2983617"><ele>12.0</ele><time>2026-04-19T14:53:23.51Z</time></trkpt><trkpt lat="38.2705483" lon="16.2982383"><ele>12.0</ele><time>2026-04-19T14:53:24.511Z</time></trkpt><trkpt lat="38.2704367" lon="16.2981017"><ele>11.666666666666666</ele><time>2026-04-19T14:53:25.51Z</time></trkpt><trkpt lat="38.2703283" lon="16.2979567"><ele>11.333333333333332</ele><time>2026-04-19T14:53:26.511Z</time></trkpt><trkpt lat="38.270215" lon="16.2978133"><ele>11.0</ele><time>2026-04-19T14:53:27.511Z</time></trkpt><trkpt lat="38.270095" lon="16.2976817"><ele>11.0</ele><time>2026-04-19T14:53:28.51Z</time></trkpt><trkpt lat="38.2699833" lon="16.29754"><ele>11.0</ele><time>2026-04-19T14:53:29.511Z</time></trkpt><trkpt lat="38.2698733" lon="16.2974017"><ele>11.0</ele><time>2026-04-19T14:53:30.51Z</time></trkpt><trkpt lat="38.2697683" lon="16.29727"><ele>11.75</ele><time>2026-04-19T14:53:31.511Z</time></trkpt><trkpt lat="38.2696717" lon="16.2971433"><ele>12.5</ele><time>2026-04-19T14:53:32.511Z</time></trkpt><trkpt lat="38.2695817" lon="16.297025"><ele>13.25</ele><time>2026-04-19T14:53:33.51Z</time></trkpt><trkpt lat="38.2694967" lon="16.2969167"><ele>14.0</ele><time>2026-04-19T14:53:34.511Z</time></trkpt><trkpt lat="38.2694183" lon="16.2968183"><ele>14.0</ele><time>2026-04-19T14:53:35.511Z</time></trkpt><trkpt lat="38.26935" lon="16.2967183"><ele>13.999999999999998</ele><time>2026-04-19T14:53:36.511Z</time></trkpt><trkpt lat="38.2692817" lon="16.2966267"><ele>13.999999999999998</ele><time>2026-04-19T14:53:37.511Z</time></trkpt><trkpt lat="38.269215" lon="16.2965483"><ele>14.0</ele><time>2026-04-19T14:53:38.511Z</time></trkpt><trkpt lat="38.2691567" lon="16.296465"><ele>14.0</ele><time>2026-04-19T14:53:39.51Z</time></trkpt><trkpt lat="38.2691" lon="16.2963883"><ele>13.833333333333334</ele><time>2026-04-19T14:53:40.51Z</time></trkpt><trkpt lat="38.2690433" lon="16.29632"><ele>13.666666666666668</ele><time>2026-04-19T14:53:41.51Z</time></trkpt><trkpt lat="38.268985" lon="16.296255"><ele>13.5</ele><time>2026-04-19T14:53:42.51Z</time></trkpt><trkpt lat="38.2689233" lon="16.2961917"><ele>13.333333333333332</ele><time>2026-04-19T14:53:43.51Z</time></trkpt><trkpt lat="38.2688633" lon="16.2961233"><ele>13.166666666666666</ele><time>2026-04-19T14:53:44.51Z</time></trkpt><trkpt lat="38.2688033" lon="16.296055"><ele>13.0</ele><time>2026-04-19T14:53:45.51Z</time></trkpt><trkpt lat="38.2687467" lon="16.295985"><ele>12.999999999999998</ele><time>2026-04-19T14:53:46.51Z</time></trkpt><trkpt lat="38.2686883" lon="16.2959117"><ele>13.0</ele><time>2026-04-19T14:53:47.51Z</time></trkpt><trkpt lat="38.2686333" lon="16.2958417"><ele>13.0</ele><time>2026-04-19T14:53:48.51Z</time></trkpt><trkpt lat="38.268575" lon="16.2957717"><ele>13.0</ele><time>2026-04-19T14:53:49.51Z</time></trkpt><trkpt lat="38.26851" lon="16.2957033"><ele>12.999999999999998</ele><time>2026-04-19T14:53:50.51Z</time></trkpt><trkpt lat="38.268445" lon="16.2956283"><ele>13.0</ele><time>2026-04-19T14:53:51.51Z</time></trkpt><trkpt lat="38.2683817" lon="16.2955517"><ele>12.833333333333332</ele><time>2026-04-19T14:53:52.51Z</time></trkpt><trkpt lat="38.26832" lon="16.29547"><ele>12.666666666666666</ele><time>2026-04-19T14:53:53.51Z</time></trkpt><trkpt lat="38.2682533" lon="16.29539"><ele>12.5</ele><time>2026-04-19T14:53:54.511Z</time></trkpt><trkpt lat="38.268185" lon="16.295315"><ele>12.333333333333332</ele><time>2026-04-19T14:53:55.51Z</time></trkpt><trkpt lat="38.2681233" lon="16.2952383"><ele>12.166666666666666</ele><time>2026-04-19T14:53:56.511Z</time></trkpt><trkpt lat="38.268065" lon="16.2951633"><ele>12.0</ele><time>2026-04-19T14:53:57.51Z</time></trkpt><trkpt lat="38.2680033" lon="16.2950933"><ele>12.0</ele><time>2026-04-19T14:53:58.51Z</time></trkpt><trkpt lat="38.267945" lon="16.2950267"><ele>12.0</ele><time>2026-04-19T14:53:59.51Z</time></trkpt><trkpt lat="38.26789" lon="16.294965"><ele>12.0</ele><time>2026-04-19T14:54:00.51Z</time></trkpt><trkpt lat="38.2678317" lon="16.2949017"><ele>12.0</ele><time>2026-04-19T14:54:01.51Z</time></trkpt><trkpt lat="38.2677783" lon="16.294835"><ele>12.0</ele><time>2026-04-19T14:54:02.51Z</time></trkpt><trkpt lat="38.2677217" lon="16.294765"><ele>12.0</ele><time>2026-04-19T14:54:03.51Z</time></trkpt><trkpt lat="38.267665" lon="16.294695"><ele>11.6</ele><time>2026-04-19T14:54:04.51Z</time></trkpt><trkpt lat="38.26761" lon="16.2946217"><ele>11.2</ele><time>2026-04-19T14:54:05.51Z</time></trkpt><trkpt lat="38.2675517" lon="16.2945383"><ele>10.8</ele><time>2026-04-19T14:54:06.51Z</time></trkpt><trkpt lat="38.26748" lon="16.2944467"><ele>10.4</ele><time>2026-04-19T14:54:07.511Z</time></trkpt><trkpt lat="38.2673967" lon="16.294355"><ele>10.0</ele><time>2026-04-19T14:54:08.51Z</time></trkpt><trkpt lat="38.2673033" lon="16.2942583"><ele>10.0</ele><time>2026-04-19T14:54:09.51Z</time></trkpt><trkpt lat="38.267195" lon="16.2941533"><ele>10.0</ele><time>2026-04-19T14:54:10.51Z</time></trkpt><trkpt lat="38.2671" lon="16.29404"><ele>10.0</ele><time>2026-04-19T14:54:11.51Z</time></trkpt><trkpt lat="38.2670067" lon="16.2939217"><ele>10.0</ele><time>2026-04-19T14:54:12.511Z</time></trkpt><trkpt lat="38.266925" lon="16.2938033"><ele>10.25</ele><time>2026-04-19T14:54:13.51Z</time></trkpt><trkpt lat="38.26683" lon="16.293695"><ele>10.5</ele><time>2026-04-19T14:54:14.51Z</time></trkpt><trkpt lat="38.2667467" lon="16.293585"><ele>10.75</ele><time>2026-04-19T14:54:15.51Z</time></trkpt><trkpt lat="38.26666" lon="16.2934733"><ele>11.0</ele><time>2026-04-19T14:54:16.51Z</time></trkpt><trkpt lat="38.26656" lon="16.2933583"><ele>11.0</ele><time>2026-04-19T14:54:17.51Z</time></trkpt><trkpt lat="38.2664633" lon="16.29324"><ele>11.0</ele><time>2026-04-19T14:54:18.51Z</time></trkpt><trkpt lat="38.2663733" lon="16.29311"><ele>11.0</ele><time>2026-04-19T14:54:19.511Z</time></trkpt><trkpt lat="38.2662717" lon="16.2930033"><ele>11.0</ele><time>2026-04-19T14:54:20.51Z</time></trkpt><trkpt lat="38.2661783" lon="16.292895"><ele>11.200000000000001</ele><time>2026-04-19T14:54:21.51Z</time></trkpt><trkpt lat="38.2660933" lon="16.2927883"><ele>11.4</ele><time>2026-04-19T14:54:22.51Z</time></trkpt><trkpt lat="38.26601" lon="16.2926983"><ele>11.6</ele><time>2026-04-19T14:54:23.51Z</time></trkpt><trkpt lat="38.2659283" lon="16.2926033"><ele>11.8</ele><time>2026-04-19T14:54:24.511Z</time></trkpt><trkpt lat="38.26585" lon="16.292505"><ele>12.0</ele><time>2026-04-19T14:54:25.51Z</time></trkpt><trkpt lat="38.265765" lon="16.29241"><ele>12.0</ele><time>2026-04-19T14:54:26.511Z</time></trkpt><trkpt lat="38.265675" lon="16.29231"><ele>12.0</ele><time>2026-04-19T14:54:27.51Z</time></trkpt><trkpt lat="38.2655867" lon="16.2922067"><ele>12.0</ele><time>2026-04-19T14:54:28.511Z</time></trkpt><trkpt lat="38.2654833" lon="16.2921"><ele>12.0</ele><time>2026-04-19T14:54:29.51Z</time></trkpt><trkpt lat="38.26538" lon="16.29199"><ele>11.25</ele><time>2026-04-19T14:54:30.51Z</time></trkpt><trkpt lat="38.2652767" lon="16.291865"><ele>10.5</ele><time>2026-04-19T14:54:31.51Z</time></trkpt><trkpt lat="38.265175" lon="16.2917383"><ele>9.75</ele><time>2026-04-19T14:54:32.51Z</time></trkpt><trkpt lat="38.2650767" lon="16.2916167"><ele>9.0</ele><time>2026-04-19T14:54:33.51Z</time></trkpt><trkpt lat="38.2649767" lon="16.291505"><ele>9.25</ele><time>2026-04-19T14:54:34.51Z</time></trkpt><trkpt lat="38.2648833" lon="16.2913967"><ele>9.5</ele><time>2026-04-19T14:54:35.51Z</time></trkpt><trkpt lat="38.2647933" lon="16.291275"><ele>9.75</ele><time>2026-04-19T14:54:36.51Z</time></trkpt><trkpt lat="38.2647117" lon="16.29117"><ele>10.0</ele><time>2026-04-19T14:54:37.51Z</time></trkpt><trkpt lat="38.264645" lon="16.2910767"><ele>10.0</ele><time>2026-04-19T14:54:38.51Z</time></trkpt><trkpt lat="38.26458" lon="16.2909883"><ele>10.0</ele><time>2026-04-19T14:54:39.51Z</time></trkpt><trkpt lat="38.264505" lon="16.290905"><ele>10.0</ele><time>2026-04-19T14:54:40.51Z</time></trkpt><trkpt lat="38.2644317" lon="16.2908183"><ele>10.0</ele><time>2026-04-19T14:54:41.511Z</time></trkpt><trkpt lat="38.26436" lon="16.2907283"><ele>10.0</ele><time>2026-04-19T14:54:42.51Z</time></trkpt><trkpt lat="38.2642817" lon="16.2906317"><ele>10.25</ele><time>2026-04-19T14:54:43.51Z</time></trkpt><trkpt lat="38.2642017" lon="16.2905367"><ele>10.5</ele><time>2026-04-19T14:54:44.51Z</time></trkpt><trkpt lat="38.26411" lon="16.290435"><ele>10.75</ele><time>2026-04-19T14:54:45.51Z</time></trkpt><trkpt lat="38.2640233" lon="16.2903283"><ele>11.0</ele><time>2026-04-19T14:54:46.51Z</time></trkpt><trkpt lat="38.2639283" lon="16.2902283"><ele>11.0</ele><time>2026-04-19T14:54:47.51Z</time></trkpt><trkpt lat="38.2638383" lon="16.2901133"><ele>11.0</ele><time>2026-04-19T14:54:48.51Z</time></trkpt><trkpt lat="38.26374" lon="16.29"><ele>11.0</ele><time>2026-04-19T14:54:49.51Z</time></trkpt><trkpt lat="38.2636433" lon="16.2898817"><ele>11.0</ele><time>2026-04-19T14:54:50.51Z</time></trkpt><trkpt lat="38.26355" lon="16.289765"><ele>10.75</ele><time>2026-04-19T14:54:51.51Z</time></trkpt><trkpt lat="38.26346" lon="16.289655"><ele>10.5</ele><time>2026-04-19T14:54:52.51Z</time></trkpt><trkpt lat="38.26337" lon="16.28955"><ele>10.25</ele><time>2026-04-19T14:54:53.51Z</time></trkpt><trkpt lat="38.263285" lon="16.289445"><ele>10.0</ele><time>2026-04-19T14:54:54.511Z</time></trkpt><trkpt lat="38.2632017" lon="16.28934"><ele>10.0</ele><time>2026-04-19T14:54:55.51Z</time></trkpt><trkpt lat="38.263125" lon="16.28925"><ele>10.0</ele><time>2026-04-19T14:54:56.51Z</time></trkpt><trkpt lat="38.2630533" lon="16.289165"><ele>10.0</ele><time>2026-04-19T14:54:57.511Z</time></trkpt><trkpt lat="38.2629783" lon="16.289095"><ele>10.0</ele><time>2026-04-19T14:54:58.511Z</time></trkpt><trkpt lat="38.2629133" lon="16.2890283"><ele>10.0</ele><time>2026-04-19T14:54:59.51Z</time></trkpt><trkpt lat="38.2628583" lon="16.28896"><ele>9.833333333333334</ele><time>2026-04-19T14:55:00.511Z</time></trkpt><trkpt lat="38.2627933" lon="16.2888917"><ele>9.666666666666668</ele><time>2026-04-19T14:55:01.511Z</time></trkpt><trkpt lat="38.26273" lon="16.2888117"><ele>9.5</ele><time>2026-04-19T14:55:02.51Z</time></trkpt><trkpt lat="38.2626683" lon="16.2887333"><ele>9.333333333333334</ele><time>2026-04-19T14:55:03.51Z</time></trkpt><trkpt lat="38.26261" lon="16.2886617"><ele>9.166666666666666</ele><time>2026-04-19T14:55:04.51Z</time></trkpt><trkpt lat="38.262555" lon="16.2885867"><ele>9.0</ele><time>2026-04-19T14:55:05.51Z</time></trkpt><trkpt lat="38.262495" lon="16.2885117"><ele>9.0</ele><time>2026-04-19T14:55:06.51Z</time></trkpt><trkpt lat="38.2624283" lon="16.288435"><ele>9.0</ele><time>2026-04-19T14:55:07.51Z</time></trkpt><trkpt lat="38.26236" lon="16.2883517"><ele>9.0</ele><time>2026-04-19T14:55:08.51Z</time></trkpt><trkpt lat="38.2622933" lon="16.2882667"><ele>9.0</ele><time>2026-04-19T14:55:09.511Z</time></trkpt><trkpt lat="38.2622233" lon="16.2881833"><ele>9.0</ele><time>2026-04-19T14:55:10.51Z</time></trkpt><trkpt lat="38.2621517" lon="16.288105"><ele>8.8</ele><time>2026-04-19T14:55:11.511Z</time></trkpt><trkpt lat="38.262075" lon="16.2880267"><ele>8.600000000000001</ele><time>2026-04-19T14:55:12.511Z</time></trkpt><trkpt lat="38.2619983" lon="16.2879483"><ele>8.4</ele><time>2026-04-19T14:55:13.51Z</time></trkpt><trkpt lat="38.2619233" lon="16.28787"><ele>8.200000000000001</ele><time>2026-04-19T14:55:14.51Z</time></trkpt><trkpt lat="38.261855" lon="16.2877867"><ele>8.0</ele><time>2026-04-19T14:55:15.51Z</time></trkpt><trkpt lat="38.26179" lon="16.2877017"><ele>7.999999999999999</ele><time>2026-04-19T14:55:16.51Z</time></trkpt><trkpt lat="38.2617283" lon="16.287625"><ele>8.0</ele><time>2026-04-19T14:55:17.51Z</time></trkpt><trkpt lat="38.2616733" lon="16.2875533"><ele>8.0</ele><time>2026-04-19T14:55:18.511Z</time></trkpt><trkpt lat="38.2616233" lon="16.28749"><ele>8.0</ele><time>2026-04-19T14:55:19.51Z</time></trkpt><trkpt lat="38.26154" lon="16.2873717"><ele>7.999999999999999</ele><time>2026-04-19T14:55:21.51Z</time></trkpt><trkpt lat="38.261495" lon="16.287315"><ele>8.0</ele><time>2026-04-19T14:55:22.51Z</time></trkpt><trkpt lat="38.2614533" lon="16.2872483"><ele>7.666666666666666</ele><time>2026-04-19T14:55:23.51Z</time></trkpt><trkpt lat="38.2614117" lon="16.28718"><ele>7.333333333333333</ele><time>2026-04-19T14:55:24.51Z</time></trkpt><trkpt lat="38.2613617" lon="16.2871083"><ele>7.0</ele><time>2026-04-19T14:55:25.51Z</time></trkpt><trkpt lat="38.2613033" lon="16.2870317"><ele>6.666666666666666</ele><time>2026-04-19T14:55:26.51Z</time></trkpt><trkpt lat="38.26124" lon="16.2869517"><ele>6.333333333333333</ele><time>2026-04-19T14:55:27.511Z</time></trkpt><trkpt lat="38.26117" lon="16.2868633"><ele>6.0</ele><time>2026-04-19T14:55:28.511Z</time></trkpt><trkpt lat="38.2610933" lon="16.2867717"><ele>6.0</ele><time>2026-04-19T14:55:29.511Z</time></trkpt><trkpt lat="38.2610167" lon="16.286675"><ele>6.0</ele><time>2026-04-19T14:55:30.511Z</time></trkpt><trkpt lat="38.2609367" lon="16.286575"><ele>6.0</ele><time>2026-04-19T14:55:31.51Z</time></trkpt><trkpt lat="38.2608633" lon="16.2864867"><ele>6.0</ele><time>2026-04-19T14:55:32.511Z</time></trkpt><trkpt lat="38.2608" lon="16.2864017"><ele>6.0</ele><time>2026-04-19T14:55:33.511Z</time></trkpt><trkpt lat="38.2607417" lon="16.2863233"><ele>6.0</ele><time>2026-04-19T14:55:34.511Z</time></trkpt><trkpt lat="38.2606833" lon="16.2862517"><ele>6.0</ele><time>2026-04-19T14:55:35.51Z</time></trkpt><trkpt lat="38.26062" lon="16.2861783"><ele>6.0</ele><time>2026-04-19T14:55:36.511Z</time></trkpt><trkpt lat="38.2605633" lon="16.286095"><ele>6.0</ele><time>2026-04-19T14:55:37.511Z</time></trkpt><trkpt lat="38.2604983" lon="16.2860233"><ele>6.0</ele><time>2026-04-19T14:55:38.51Z</time></trkpt><trkpt lat="38.2604367" lon="16.2859517"><ele>6.0</ele><time>2026-04-19T14:55:39.51Z</time></trkpt><trkpt lat="38.2603883" lon="16.2858867"><ele>5.833333333333333</ele><time>2026-04-19T14:55:40.511Z</time></trkpt><trkpt lat="38.2603383" lon="16.285825"><ele>5.666666666666667</ele><time>2026-04-19T14:55:41.51Z</time></trkpt><trkpt lat="38.2602867" lon="16.285765"><ele>5.5</ele><time>2026-04-19T14:55:42.51Z</time></trkpt><trkpt lat="38.26021" lon="16.2856833"><ele>5.333333333333334</ele><time>2026-04-19T14:55:44.51Z</time></trkpt><trkpt lat="38.2601517" lon="16.2856317"><ele>5.166666666666667</ele><time>2026-04-19T14:55:46.511Z</time></trkpt><trkpt lat="38.2600817" lon="16.2856017"><ele>5.0</ele><time>2026-04-19T14:55:49.511Z</time></trkpt><trkpt lat="38.26001" lon="16.285695"><ele>5.0</ele><time>2026-04-19T14:55:52.511Z</time></trkpt><trkpt lat="38.259975" lon="16.2857717"><ele>5.0</ele><time>2026-04-19T14:55:53.51Z</time></trkpt><trkpt lat="38.25993" lon="16.2858667"><ele>5.0</ele><time>2026-04-19T14:55:54.51Z</time></trkpt><trkpt lat="38.25988" lon="16.2859717"><ele>5.0</ele><time>2026-04-19T14:55:55.51Z</time></trkpt><trkpt lat="38.2598217" lon="16.286095"><ele>5.0</ele><time>2026-04-19T14:55:56.51Z</time></trkpt><trkpt lat="38.2597583" lon="16.2862167"><ele>5.0</ele><time>2026-04-19T14:55:57.51Z</time></trkpt><trkpt lat="38.2597033" lon="16.28634"><ele>5.0</ele><time>2026-04-19T14:55:58.511Z</time></trkpt><trkpt lat="38.2596383" lon="16.2864333"><ele>5.0</ele><time>2026-04-19T14:55:59.51Z</time></trkpt><trkpt lat="38.25958" lon="16.2865183"><ele>5.0</ele><time>2026-04-19T14:56:00.51Z</time></trkpt><trkpt lat="38.2595317" lon="16.2866017"><ele>5.0</ele><time>2026-04-19T14:56:01.51Z</time></trkpt><trkpt lat="38.2594917" lon="16.2866667"><ele>5.0</ele><time>2026-04-19T14:56:02.511Z</time></trkpt><trkpt lat="38.259445" lon="16.2867433"><ele>5.0</ele><time>2026-04-19T14:56:04.51Z</time></trkpt><trkpt lat="38.25936" lon="16.286725"><ele>5.0</ele><time>2026-04-19T14:56:07.51Z</time></trkpt><trkpt lat="38.259265" lon="16.286645"><ele>5.0</ele><time>2026-04-19T14:56:09.51Z</time></trkpt><trkpt lat="38.2591967" lon="16.2865767"><ele>5.0</ele><time>2026-04-19T14:56:10.51Z</time></trkpt><trkpt lat="38.2591217" lon="16.2864967"><ele>5.0</ele><time>2026-04-19T14:56:11.51Z</time></trkpt><trkpt lat="38.259035" lon="16.2864067"><ele>5.333333333333334</ele><time>2026-04-19T14:56:12.51Z</time></trkpt><trkpt lat="38.2589367" lon="16.2862967"><ele>5.666666666666667</ele><time>2026-04-19T14:56:13.51Z</time></trkpt><trkpt lat="38.2588183" lon="16.286165"><ele>6.0</ele><time>2026-04-19T14:56:14.51Z</time></trkpt><trkpt lat="38.2586717" lon="16.2860133"><ele>6.0</ele><time>2026-04-19T14:56:15.51Z</time></trkpt><trkpt lat="38.25852" lon="16.2858467"><ele>6.0</ele><time>2026-04-19T14:56:16.51Z</time></trkpt><trkpt lat="38.2583767" lon="16.2856867"><ele>6.0</ele><time>2026-04-19T14:56:17.51Z</time></trkpt><trkpt lat="38.258235" lon="16.285535"><ele>5.5</ele><time>2026-04-19T14:56:18.51Z</time></trkpt><trkpt lat="38.2581133" lon="16.2854083"><ele>5.0</ele><time>2026-04-19T14:56:19.51Z</time></trkpt><trkpt lat="38.2580033" lon="16.2853117"><ele>4.5</ele><time>2026-04-19T14:56:20.51Z</time></trkpt><trkpt lat="38.257935" lon="16.28521"><ele>4.0</ele><time>2026-04-19T14:56:21.51Z</time></trkpt><trkpt lat="38.2578517" lon="16.2851133"><ele>4.0</ele><time>2026-04-19T14:56:22.51Z</time></trkpt><trkpt lat="38.2577567" lon="16.28502"><ele>4.0</ele><time>2026-04-19T14:56:23.511Z</time></trkpt><trkpt lat="38.257655" lon="16.284905"><ele>4.0</ele><time>2026-04-19T14:56:24.511Z</time></trkpt><trkpt lat="38.2575433" lon="16.2847883"><ele>4.0</ele><time>2026-04-19T14:56:25.51Z</time></trkpt><trkpt lat="38.2574217" lon="16.28466"><ele>5.0</ele><time>2026-04-19T14:56:26.51Z</time></trkpt><trkpt lat="38.257285" lon="16.284515"><ele>6.0</ele><time>2026-04-19T14:56:27.51Z</time></trkpt><trkpt lat="38.2571333" lon="16.284375"><ele>7.0</ele><time>2026-04-19T14:56:28.511Z</time></trkpt><trkpt lat="38.2569683" lon="16.284225"><ele>7.0</ele><time>2026-04-19T14:56:29.51Z</time></trkpt><trkpt lat="38.2567683" lon="16.2840833"><ele>7.0</ele><time>2026-04-19T14:56:30.51Z</time></trkpt><trkpt lat="38.2565567" lon="16.2839317"><ele>6.0</ele><time>2026-04-19T14:56:31.51Z</time></trkpt><trkpt lat="38.25634" lon="16.2837767"><ele>5.0</ele><time>2026-04-19T14:56:32.511Z</time></trkpt><trkpt lat="38.2561167" lon="16.2836117"><ele>5.0</ele><time>2026-04-19T14:56:33.511Z</time></trkpt><trkpt lat="38.2558833" lon="16.28345"><ele>5.0</ele><time>2026-04-19T14:56:34.511Z</time></trkpt><trkpt lat="38.255655" lon="16.2832883"><ele>4.5</ele><time>2026-04-19T14:56:35.51Z</time></trkpt><trkpt lat="38.2554167" lon="16.283135"><ele>4.0</ele><time>2026-04-19T14:56:36.51Z</time></trkpt><trkpt lat="38.2551733" lon="16.2829917"><ele>4.0</ele><time>2026-04-19T14:56:37.51Z</time></trkpt><trkpt lat="38.254935" lon="16.2828267"><ele>4.0</ele><time>2026-04-19T14:56:38.51Z</time></trkpt><trkpt lat="38.2547017" lon="16.2826633"><ele>4.0</ele><time>2026-04-19T14:56:39.51Z</time></trkpt><trkpt lat="38.2544617" lon="16.2824933"><ele>4.0</ele><time>2026-04-19T14:56:40.51Z</time></trkpt><trkpt lat="38.254215" lon="16.2823267"><ele>4.0</ele><time>2026-04-19T14:56:41.51Z</time></trkpt><trkpt lat="38.2539717" lon="16.282165"><ele>4.0</ele><time>2026-04-19T14:56:42.51Z</time></trkpt><trkpt lat="38.2537217" lon="16.2820033"><ele>4.0</ele><time>2026-04-19T14:56:43.51Z</time></trkpt><trkpt lat="38.2534783" lon="16.2818317"><ele>4.0</ele><time>2026-04-19T14:56:44.51Z</time></trkpt><trkpt lat="38.2532367" lon="16.281665"><ele>3.5</ele><time>2026-04-19T14:56:45.51Z</time></trkpt><trkpt lat="38.2529917" lon="16.2815033"><ele>3.0</ele><time>2026-04-19T14:56:46.511Z</time></trkpt><trkpt lat="38.2527483" lon="16.2813417"><ele>2.5</ele><time>2026-04-19T14:56:47.51Z</time></trkpt><trkpt lat="38.252495" lon="16.2811717"><ele>2.0</ele><time>2026-04-19T14:56:48.51Z</time></trkpt><trkpt lat="38.2522433" lon="16.2810083"><ele>2.0</ele><time>2026-04-19T14:56:49.51Z</time></trkpt><trkpt lat="38.2519933" lon="16.2808467"><ele>2.0</ele><time>2026-04-19T14:56:50.51Z</time></trkpt><trkpt lat="38.25174" lon="16.280685"><ele>2.5</ele><time>2026-04-19T14:56:51.51Z</time></trkpt><trkpt lat="38.2514983" lon="16.2805133"><ele>3.0</ele><time>2026-04-19T14:56:52.51Z</time></trkpt><trkpt lat="38.2512617" lon="16.2803533"><ele>3.5</ele><time>2026-04-19T14:56:53.51Z</time></trkpt><trkpt lat="38.2510233" lon="16.2801867"><ele>4.0</ele><time>2026-04-19T14:56:54.511Z</time></trkpt><trkpt lat="38.25078" lon="16.28002"><ele>4.5</ele><time>2026-04-19T14:56:55.51Z</time></trkpt><trkpt lat="38.250545" lon="16.2798533"><ele>5.0</ele><time>2026-04-19T14:56:56.51Z</time></trkpt><trkpt lat="38.25031" lon="16.27969"><ele>5.0</ele><time>2026-04-19T14:56:57.511Z</time></trkpt><trkpt lat="38.2500767" lon="16.2795317"><ele>5.0</ele><time>2026-04-19T14:56:58.51Z</time></trkpt><trkpt lat="38.2498383" lon="16.2793667"><ele>5.5</ele><time>2026-04-19T14:56:59.51Z</time></trkpt><trkpt lat="38.249605" lon="16.279205"><ele>6.0</ele><time>2026-04-19T14:57:00.51Z</time></trkpt><trkpt lat="38.2493733" lon="16.27904"><ele>6.0</ele><time>2026-04-19T14:57:01.51Z</time></trkpt><trkpt lat="38.249135" lon="16.27889"><ele>6.0</ele><time>2026-04-19T14:57:02.51Z</time></trkpt><trkpt lat="38.24889" lon="16.278725"><ele>6.0</ele><time>2026-04-19T14:57:03.51Z</time></trkpt><trkpt lat="38.2486467" lon="16.278565"><ele>6.0</ele><time>2026-04-19T14:57:04.51Z</time></trkpt><trkpt lat="38.2484217" lon="16.2783983"><ele>6.0</ele><time>2026-04-19T14:57:05.51Z</time></trkpt><trkpt lat="38.2482017" lon="16.2782217"><ele>6.0</ele><time>2026-04-19T14:57:06.51Z</time></trkpt><trkpt lat="38.2479817" lon="16.27804"><ele>4.5</ele><time>2026-04-19T14:57:07.51Z</time></trkpt><trkpt lat="38.2477733" lon="16.2778333"><ele>3.0</ele><time>2026-04-19T14:57:08.51Z</time></trkpt><trkpt lat="38.2475717" lon="16.2776167"><ele>3.0</ele><time>2026-04-19T14:57:09.51Z</time></trkpt><trkpt lat="38.2473733" lon="16.2774017"><ele>3.0</ele><time>2026-04-19T14:57:10.51Z</time></trkpt><trkpt lat="38.2471767" lon="16.2771833"><ele>5.0</ele><time>2026-04-19T14:57:11.51Z</time></trkpt><trkpt lat="38.24698" lon="16.276955"><ele>7.0</ele><time>2026-04-19T14:57:12.511Z</time></trkpt><trkpt lat="38.2467933" lon="16.276725"><ele>7.0</ele><time>2026-04-19T14:57:13.511Z</time></trkpt><trkpt lat="38.24661" lon="16.2765117"><ele>7.0</ele><time>2026-04-19T14:57:14.51Z</time></trkpt><trkpt lat="38.2464367" lon="16.27631"><ele>8.0</ele><time>2026-04-19T14:57:15.51Z</time></trkpt><trkpt lat="38.2462583" lon="16.2761133"><ele>9.0</ele><time>2026-04-19T14:57:16.51Z</time></trkpt><trkpt lat="38.24608" lon="16.2759167"><ele>9.0</ele><time>2026-04-19T14:57:17.51Z</time></trkpt><trkpt lat="38.2459067" lon="16.275725"><ele>9.0</ele><time>2026-04-19T14:57:18.51Z</time></trkpt><trkpt lat="38.2457417" lon="16.2755333"><ele>9.0</ele><time>2026-04-19T14:57:19.51Z</time></trkpt><trkpt lat="38.2455817" lon="16.2753383"><ele>9.0</ele><time>2026-04-19T14:57:20.51Z</time></trkpt><trkpt lat="38.24542" lon="16.27515"><ele>9.0</ele><time>2026-04-19T14:57:21.51Z</time></trkpt><trkpt lat="38.2452533" lon="16.2749833"><ele>9.0</ele><time>2026-04-19T14:57:22.511Z</time></trkpt><trkpt lat="38.2450683" lon="16.2748233"><ele>9.0</ele><time>2026-04-19T14:57:23.511Z</time></trkpt><trkpt lat="38.2448733" lon="16.2746633"><ele>9.0</ele><time>2026-04-19T14:57:24.51Z</time></trkpt><trkpt lat="38.2446767" lon="16.274495"><ele>9.0</ele><time>2026-04-19T14:57:25.51Z</time></trkpt><trkpt lat="38.2444733" lon="16.27432"><ele>9.0</ele><time>2026-04-19T14:57:26.51Z</time></trkpt><trkpt lat="38.24426" lon="16.274145"><ele>9.0</ele><time>2026-04-19T14:57:27.51Z</time></trkpt><trkpt lat="38.2440517" lon="16.2739633"><ele>8.0</ele><time>2026-04-19T14:57:28.51Z</time></trkpt><trkpt lat="38.2438517" lon="16.273775"><ele>7.0</ele><time>2026-04-19T14:57:29.51Z</time></trkpt><trkpt lat="38.2436483" lon="16.2735967"><ele>7.0</ele><time>2026-04-19T14:57:30.51Z</time></trkpt><trkpt lat="38.2434483" lon="16.2734083"><ele>7.0</ele><time>2026-04-19T14:57:31.51Z</time></trkpt><trkpt lat="38.243245" lon="16.2732267"><ele>8.0</ele><time>2026-04-19T14:57:32.51Z</time></trkpt><trkpt lat="38.24305" lon="16.273045"><ele>9.0</ele><time>2026-04-19T14:57:33.511Z</time></trkpt><trkpt lat="38.24287" lon="16.272865"><ele>9.0</ele><time>2026-04-19T14:57:34.511Z</time></trkpt><trkpt lat="38.2426933" lon="16.2726933"><ele>9.0</ele><time>2026-04-19T14:57:35.51Z</time></trkpt><trkpt lat="38.2425217" lon="16.2725333"><ele>9.0</ele><time>2026-04-19T14:57:36.51Z</time></trkpt><trkpt lat="38.2423517" lon="16.272385"><ele>9.0</ele><time>2026-04-19T14:57:37.511Z</time></trkpt><trkpt lat="38.2422117" lon="16.2722383"><ele>9.0</ele><time>2026-04-19T14:57:38.51Z</time></trkpt><trkpt lat="38.2420633" lon="16.2720733"><ele>9.0</ele><time>2026-04-19T14:57:39.51Z</time></trkpt><trkpt lat="38.2419117" lon="16.2719133"><ele>9.0</ele><time>2026-04-19T14:57:40.51Z</time></trkpt><trkpt lat="38.241755" lon="16.2717567"><ele>9.0</ele><time>2026-04-19T14:57:41.51Z</time></trkpt><trkpt lat="38.241605" lon="16.2716"><ele>9.0</ele><time>2026-04-19T14:57:42.51Z</time></trkpt><trkpt lat="38.241445" lon="16.27146"><ele>9.666666666666666</ele><time>2026-04-19T14:57:43.51Z</time></trkpt><trkpt lat="38.2412867" lon="16.2712783"><ele>10.333333333333332</ele><time>2026-04-19T14:57:44.51Z</time></trkpt><trkpt lat="38.2411317" lon="16.271125"><ele>11.0</ele><time>2026-04-19T14:57:45.51Z</time></trkpt><trkpt lat="38.2409767" lon="16.27096"><ele>11.0</ele><time>2026-04-19T14:57:46.511Z</time></trkpt><trkpt lat="38.2408233" lon="16.270805"><ele>11.0</ele><time>2026-04-19T14:57:47.51Z</time></trkpt><trkpt lat="38.240665" lon="16.2706367"><ele>11.0</ele><time>2026-04-19T14:57:48.511Z</time></trkpt><trkpt lat="38.2405067" lon="16.2704767"><ele>11.333333333333332</ele><time>2026-04-19T14:57:49.51Z</time></trkpt><trkpt lat="38.2403367" lon="16.2703233"><ele>11.666666666666666</ele><time>2026-04-19T14:57:50.51Z</time></trkpt><trkpt lat="38.2401633" lon="16.27019"><ele>12.0</ele><time>2026-04-19T14:57:51.51Z</time></trkpt><trkpt lat="38.24" lon="16.27004"><ele>12.0</ele><time>2026-04-19T14:57:52.51Z</time></trkpt><trkpt lat="38.239845" lon="16.2698883"><ele>12.0</ele><time>2026-04-19T14:57:53.511Z</time></trkpt><trkpt lat="38.2396783" lon="16.26974"><ele>12.0</ele><time>2026-04-19T14:57:54.51Z</time></trkpt><trkpt lat="38.2395267" lon="16.26959"><ele>10.666666666666666</ele><time>2026-04-19T14:57:55.51Z</time></trkpt><trkpt lat="38.2393767" lon="16.2694433"><ele>9.333333333333332</ele><time>2026-04-19T14:57:56.51Z</time></trkpt><trkpt lat="38.239235" lon="16.2692983"><ele>8.0</ele><time>2026-04-19T14:57:57.51Z</time></trkpt><trkpt lat="38.2391" lon="16.269155"><ele>8.0</ele><time>2026-04-19T14:57:58.51Z</time></trkpt><trkpt lat="38.23897" lon="16.2690217"><ele>8.0</ele><time>2026-04-19T14:57:59.511Z</time></trkpt><trkpt lat="38.2388467" lon="16.2689033"><ele>8.0</ele><time>2026-04-19T14:58:00.51Z</time></trkpt><trkpt lat="38.2387317" lon="16.268785"><ele>8.5</ele><time>2026-04-19T14:58:01.51Z</time></trkpt><trkpt lat="38.238615" lon="16.2686767"><ele>9.0</ele><time>2026-04-19T14:58:02.51Z</time></trkpt><trkpt lat="38.238495" lon="16.268565"><ele>9.5</ele><time>2026-04-19T14:58:03.511Z</time></trkpt><trkpt lat="38.238385" lon="16.268465"><ele>10.0</ele><time>2026-04-19T14:58:04.51Z</time></trkpt><trkpt lat="38.2382833" lon="16.2683667"><ele>10.0</ele><time>2026-04-19T14:58:05.51Z</time></trkpt><trkpt lat="38.238185" lon="16.2682783"><ele>10.0</ele><time>2026-04-19T14:58:06.51Z</time></trkpt><trkpt lat="38.2380917" lon="16.26819"><ele>10.0</ele><time>2026-04-19T14:58:07.51Z</time></trkpt><trkpt lat="38.238005" lon="16.2681217"><ele>10.0</ele><time>2026-04-19T14:58:08.51Z</time></trkpt><trkpt lat="38.2379267" lon="16.2680433"><ele>10.0</ele><time>2026-04-19T14:58:09.511Z</time></trkpt><trkpt lat="38.2378467" lon="16.2679617"><ele>10.25</ele><time>2026-04-19T14:58:10.51Z</time></trkpt><trkpt lat="38.23775" lon="16.26788"><ele>10.5</ele><time>2026-04-19T14:58:11.51Z</time></trkpt><trkpt lat="38.2376433" lon="16.267785"><ele>10.75</ele><time>2026-04-19T14:58:12.51Z</time></trkpt><trkpt lat="38.2375383" lon="16.2676817"><ele>11.0</ele><time>2026-04-19T14:58:13.51Z</time></trkpt><trkpt lat="38.2374333" lon="16.267565"><ele>11.0</ele><time>2026-04-19T14:58:14.51Z</time></trkpt><trkpt lat="38.2373183" lon="16.26744"><ele>11.0</ele><time>2026-04-19T14:58:15.511Z</time></trkpt><trkpt lat="38.2372033" lon="16.267305"><ele>11.0</ele><time>2026-04-19T14:58:16.511Z</time></trkpt><trkpt lat="38.2370767" lon="16.2671783"><ele>11.0</ele><time>2026-04-19T14:58:17.51Z</time></trkpt><trkpt lat="38.2369567" lon="16.2670267"><ele>11.0</ele><time>2026-04-19T14:58:18.51Z</time></trkpt><trkpt lat="38.2368283" lon="16.26689"><ele>11.0</ele><time>2026-04-19T14:58:19.51Z</time></trkpt><trkpt lat="38.2366867" lon="16.266775"><ele>11.0</ele><time>2026-04-19T14:58:20.511Z</time></trkpt><trkpt lat="38.236565" lon="16.266635"><ele>11.0</ele><time>2026-04-19T14:58:21.51Z</time></trkpt><trkpt lat="38.2364417" lon="16.2664917"><ele>11.0</ele><time>2026-04-19T14:58:22.51Z</time></trkpt><trkpt lat="38.2363433" lon="16.2663733"><ele>11.0</ele><time>2026-04-19T14:58:23.51Z</time></trkpt><trkpt lat="38.236235" lon="16.2662483"><ele>11.0</ele><time>2026-04-19T14:58:24.51Z</time></trkpt><trkpt lat="38.2361267" lon="16.2661567"><ele>11.0</ele><time>2026-04-19T14:58:25.511Z</time></trkpt><trkpt lat="38.236035" lon="16.2660533"><ele>11.0</ele><time>2026-04-19T14:58:26.51Z</time></trkpt><trkpt lat="38.2359617" lon="16.26597"><ele>11.0</ele><time>2026-04-19T14:58:27.511Z</time></trkpt><trkpt lat="38.2358983" lon="16.2659067"><ele>11.0</ele><time>2026-04-19T14:58:28.51Z</time></trkpt><trkpt lat="38.235845" lon="16.2658517"><ele>11.0</ele><time>2026-04-19T14:58:29.51Z</time></trkpt><trkpt lat="38.235765" lon="16.26575"><ele>11.0</ele><time>2026-04-19T14:58:31.51Z</time></trkpt><trkpt lat="38.23569" lon="16.265705"><ele>11.0</ele><time>2026-04-19T14:58:33.51Z</time></trkpt><trkpt lat="38.23562" lon="16.2656617"><ele>11.0</ele><time>2026-04-19T14:58:35.51Z</time></trkpt><trkpt lat="38.23553" lon="16.2655917"><ele>10.833333333333332</ele><time>2026-04-19T14:58:37.511Z</time></trkpt><trkpt lat="38.235435" lon="16.2654833"><ele>10.666666666666666</ele><time>2026-04-19T14:58:39.51Z</time></trkpt><trkpt lat="38.2353883" lon="16.2654233"><ele>10.5</ele><time>2026-04-19T14:58:40.51Z</time></trkpt><trkpt lat="38.23534" lon="16.2653633"><ele>10.333333333333334</ele><time>2026-04-19T14:58:41.511Z</time></trkpt><trkpt lat="38.2352767" lon="16.2653067"><ele>10.166666666666668</ele><time>2026-04-19T14:58:42.511Z</time></trkpt><trkpt lat="38.2352217" lon="16.2652517"><ele>10.0</ele><time>2026-04-19T14:58:43.51Z</time></trkpt><trkpt lat="38.23517" lon="16.2651917"><ele>10.0</ele><time>2026-04-19T14:58:44.51Z</time></trkpt><trkpt lat="38.2350733" lon="16.26509"><ele>10.0</ele><time>2026-04-19T14:58:46.51Z</time></trkpt><trkpt lat="38.235025" lon="16.2650367"><ele>10.0</ele><time>2026-04-19T14:58:47.511Z</time></trkpt><trkpt lat="38.2349667" lon="16.26499"><ele>10.0</ele><time>2026-04-19T14:58:48.51Z</time></trkpt><trkpt lat="38.2349133" lon="16.26494"><ele>10.0</ele><time>2026-04-19T14:58:49.51Z</time></trkpt><trkpt lat="38.2348183" lon="16.2648367"><ele>10.0</ele><time>2026-04-19T14:58:51.51Z</time></trkpt><trkpt lat="38.234735" lon="16.264735"><ele>10.5</ele><time>2026-04-19T14:58:53.51Z</time></trkpt><trkpt lat="38.2346467" lon="16.26465"><ele>11.0</ele><time>2026-04-19T14:58:55.511Z</time></trkpt><trkpt lat="38.23456" lon="16.2645417"><ele>11.5</ele><time>2026-04-19T14:58:57.51Z</time></trkpt><trkpt lat="38.23451" lon="16.2644833"><ele>12.0</ele><time>2026-04-19T14:58:58.511Z</time></trkpt><trkpt lat="38.2344583" lon="16.2644167"><ele>12.499999999999998</ele><time>2026-04-19T14:58:59.51Z</time></trkpt><trkpt lat="38.2343967" lon="16.26437"><ele>13.0</ele><time>2026-04-19T14:59:00.51Z</time></trkpt><trkpt lat="38.2343367" lon="16.2643133"><ele>13.0</ele><time>2026-04-19T14:59:01.511Z</time></trkpt><trkpt lat="38.2342767" lon="16.264265"><ele>13.0</ele><time>2026-04-19T14:59:02.51Z</time></trkpt><trkpt lat="38.2341817" lon="16.2641767"><ele>13.0</ele><time>2026-04-19T14:59:04.511Z</time></trkpt><trkpt lat="38.2340817" lon="16.2641017"><ele>13.0</ele><time>2026-04-19T14:59:06.51Z</time></trkpt><trkpt lat="38.2339933" lon="16.2640133"><ele>13.0</ele><time>2026-04-19T14:59:08.511Z</time></trkpt><trkpt lat="38.2339167" lon="16.2639517"><ele>12.600000000000001</ele><time>2026-04-19T14:59:10.51Z</time></trkpt><trkpt lat="38.2338583" lon="16.2639167"><ele>12.200000000000001</ele><time>2026-04-19T14:59:12.51Z</time></trkpt><trkpt lat="38.2337783" lon="16.2638583"><ele>11.8</ele><time>2026-04-19T14:59:15.51Z</time></trkpt><trkpt lat="38.233705" lon="16.26379"><ele>11.4</ele><time>2026-04-19T14:59:17.51Z</time></trkpt><trkpt lat="38.233615" lon="16.263685"><ele>11.0</ele><time>2026-04-19T14:59:19.51Z</time></trkpt><trkpt lat="38.2335567" lon="16.263615"><ele>11.0</ele><time>2026-04-19T14:59:20.51Z</time></trkpt><trkpt lat="38.2334883" lon="16.2635367"><ele>11.0</ele><time>2026-04-19T14:59:21.51Z</time></trkpt><trkpt lat="38.2334017" lon="16.2634467"><ele>11.0</ele><time>2026-04-19T14:59:22.51Z</time></trkpt><trkpt lat="38.2333067" lon="16.2633767"><ele>11.0</ele><time>2026-04-19T14:59:23.51Z</time></trkpt><trkpt lat="38.233195" lon="16.26325"><ele>10.333333333333332</ele><time>2026-04-19T14:59:24.51Z</time></trkpt><trkpt lat="38.2330667" lon="16.2630883"><ele>9.666666666666666</ele><time>2026-04-19T14:59:25.51Z</time></trkpt><trkpt lat="38.232915" lon="16.262935"><ele>9.0</ele><time>2026-04-19T14:59:26.51Z</time></trkpt><trkpt lat="38.23274" lon="16.26277"><ele>9.0</ele><time>2026-04-19T14:59:27.51Z</time></trkpt><trkpt lat="38.232535" lon="16.2625967"><ele>9.0</ele><time>2026-04-19T14:59:28.511Z</time></trkpt><trkpt lat="38.2323417" lon="16.2624033"><ele>9.5</ele><time>2026-04-19T14:59:29.51Z</time></trkpt><trkpt lat="38.23215" lon="16.262215"><ele>10.0</ele><time>2026-04-19T14:59:30.511Z</time></trkpt><trkpt lat="38.23197" lon="16.262045"><ele>10.0</ele><time>2026-04-19T14:59:31.51Z</time></trkpt><trkpt lat="38.231805" lon="16.2618967"><ele>10.0</ele><time>2026-04-19T14:59:32.51Z</time></trkpt><trkpt lat="38.2316583" lon="16.2617433"><ele>10.0</ele><time>2026-04-19T14:59:33.51Z</time></trkpt><trkpt lat="38.231515" lon="16.2616"><ele>9.75</ele><time>2026-04-19T14:59:34.51Z</time></trkpt><trkpt lat="38.2313833" lon="16.2614683"><ele>9.5</ele><time>2026-04-19T14:59:35.51Z</time></trkpt><trkpt lat="38.2312717" lon="16.2613533"><ele>9.25</ele><time>2026-04-19T14:59:36.51Z</time></trkpt><trkpt lat="38.2311467" lon="16.2612817"><ele>9.0</ele><time>2026-04-19T14:59:37.51Z</time></trkpt><trkpt lat="38.2310483" lon="16.2612183"><ele>9.0</ele><time>2026-04-19T14:59:38.51Z</time></trkpt><trkpt lat="38.2309417" lon="16.2611733"><ele>9.0</ele><time>2026-04-19T14:59:39.51Z</time></trkpt><trkpt lat="38.2308217" lon="16.26114"><ele>9.0</ele><time>2026-04-19T14:59:40.51Z</time></trkpt><trkpt lat="38.2307" lon="16.261105"><ele>9.0</ele><time>2026-04-19T14:59:41.51Z</time></trkpt><trkpt lat="38.2305733" lon="16.2610783"><ele>8.6</ele><time>2026-04-19T14:59:42.511Z</time></trkpt><trkpt lat="38.2304517" lon="16.26104"><ele>8.2</ele><time>2026-04-19T14:59:43.51Z</time></trkpt><trkpt lat="38.230345" lon="16.26101"><ele>7.799999999999999</ele><time>2026-04-19T14:59:44.51Z</time></trkpt><trkpt lat="38.2302483" lon="16.260985"><ele>7.3999999999999995</ele><time>2026-04-19T14:59:45.51Z</time></trkpt><trkpt lat="38.23016" lon="16.2609583"><ele>7.0</ele><time>2026-04-19T14:59:46.51Z</time></trkpt><trkpt lat="38.2300633" lon="16.2609233"><ele>7.0</ele><time>2026-04-19T14:59:47.51Z</time></trkpt><trkpt lat="38.2299567" lon="16.26089"><ele>6.999999999999999</ele><time>2026-04-19T14:59:48.511Z</time></trkpt><trkpt lat="38.2298533" lon="16.2608617"><ele>6.999999999999999</ele><time>2026-04-19T14:59:49.51Z</time></trkpt><trkpt lat="38.229745" lon="16.26083"><ele>7.0</ele><time>2026-04-19T14:59:50.51Z</time></trkpt><trkpt lat="38.2296417" lon="16.2607917"><ele>7.0</ele><time>2026-04-19T14:59:51.51Z</time></trkpt><trkpt lat="38.2295467" lon="16.26074"><ele>6.8</ele><time>2026-04-19T14:59:52.51Z</time></trkpt><trkpt lat="38.2294567" lon="16.2606717"><ele>6.6</ele><time>2026-04-19T14:59:53.51Z</time></trkpt><trkpt lat="38.2293683" lon="16.2606067"><ele>6.3999999999999995</ele><time>2026-04-19T14:59:54.511Z</time></trkpt><trkpt lat="38.2292867" lon="16.260515"><ele>6.199999999999999</ele><time>2026-04-19T14:59:55.51Z</time></trkpt><trkpt lat="38.2292167" lon="16.2604217"><ele>6.0</ele><time>2026-04-19T14:59:56.51Z</time></trkpt><trkpt lat="38.2291383" lon="16.2603233"><ele>6.0</ele><time>2026-04-19T14:59:57.511Z</time></trkpt><trkpt lat="38.22905" lon="16.2602367"><ele>6.0</ele><time>2026-04-19T14:59:58.51Z</time></trkpt><trkpt lat="38.2289533" lon="16.2601383"><ele>6.0</ele><time>2026-04-19T14:59:59.51Z</time></trkpt><trkpt lat="38.2288517" lon="16.2600317"><ele>6.0</ele><time>2026-04-19T15:00:00.51Z</time></trkpt><trkpt lat="38.228735" lon="16.2599167"><ele>6.333333333333334</ele><time>2026-04-19T15:00:01.511Z</time></trkpt><trkpt lat="38.22861" lon="16.2597967"><ele>6.666666666666667</ele><time>2026-04-19T15:00:02.51Z</time></trkpt><trkpt lat="38.2284783" lon="16.25967"><ele>7.0</ele><time>2026-04-19T15:00:03.51Z</time></trkpt><trkpt lat="38.2283467" lon="16.2595267"><ele>7.0</ele><time>2026-04-19T15:00:04.511Z</time></trkpt><trkpt lat="38.2282083" lon="16.2593833"><ele>7.0</ele><time>2026-04-19T15:00:05.51Z</time></trkpt><trkpt lat="38.22806" lon="16.25925"><ele>7.0</ele><time>2026-04-19T15:00:06.51Z</time></trkpt><trkpt lat="38.2279083" lon="16.2591233"><ele>6.666666666666667</ele><time>2026-04-19T15:00:07.511Z</time></trkpt><trkpt lat="38.2277767" lon="16.25899"><ele>6.333333333333334</ele><time>2026-04-19T15:00:08.51Z</time></trkpt><trkpt lat="38.227645" lon="16.2588633"><ele>6.0</ele><time>2026-04-19T15:00:09.511Z</time></trkpt><trkpt lat="38.227515" lon="16.2587317"><ele>6.0</ele><time>2026-04-19T15:00:10.51Z</time></trkpt><trkpt lat="38.227385" lon="16.2586"><ele>6.0</ele><time>2026-04-19T15:00:11.51Z</time></trkpt><trkpt lat="38.2272533" lon="16.258465"><ele>6.0</ele><time>2026-04-19T15:00:12.51Z</time></trkpt><trkpt lat="38.227125" lon="16.2583317"><ele>6.333333333333334</ele><time>2026-04-19T15:00:13.51Z</time></trkpt><trkpt lat="38.2269917" lon="16.2582033"><ele>6.666666666666667</ele><time>2026-04-19T15:00:14.51Z</time></trkpt><trkpt lat="38.2268533" lon="16.2580767"><ele>7.0</ele><time>2026-04-19T15:00:15.51Z</time></trkpt><trkpt lat="38.2267183" lon="16.2579517"><ele>7.0</ele><time>2026-04-19T15:00:16.51Z</time></trkpt><trkpt lat="38.2265867" lon="16.2578233"><ele>7.0</ele><time>2026-04-19T15:00:17.51Z</time></trkpt><trkpt lat="38.226455" lon="16.2576867"><ele>7.0</ele><time>2026-04-19T15:00:18.511Z</time></trkpt><trkpt lat="38.2263167" lon="16.2575583"><ele>7.0</ele><time>2026-04-19T15:00:19.51Z</time></trkpt><trkpt lat="38.2261817" lon="16.2574233"><ele>7.0</ele><time>2026-04-19T15:00:20.51Z</time></trkpt><trkpt lat="38.2260417" lon="16.257295"><ele>7.0</ele><time>2026-04-19T15:00:21.51Z</time></trkpt><trkpt lat="38.2259067" lon="16.2571683"><ele>7.333333333333334</ele><time>2026-04-19T15:00:22.51Z</time></trkpt><trkpt lat="38.225775" lon="16.257035"><ele>7.666666666666666</ele><time>2026-04-19T15:00:23.511Z</time></trkpt><trkpt lat="38.2256367" lon="16.25688"><ele>8.0</ele><time>2026-04-19T15:00:24.51Z</time></trkpt><trkpt lat="38.2255" lon="16.2567417"><ele>7.0</ele><time>2026-04-19T15:00:25.511Z</time></trkpt><trkpt lat="38.2253667" lon="16.2566017"><ele>6.0</ele><time>2026-04-19T15:00:26.511Z</time></trkpt><trkpt lat="38.225235" lon="16.2564567"><ele>5.0</ele><time>2026-04-19T15:00:27.51Z</time></trkpt><trkpt lat="38.2250983" lon="16.2563183"><ele>5.0</ele><time>2026-04-19T15:00:28.51Z</time></trkpt><trkpt lat="38.2249583" lon="16.2561767"><ele>5.0</ele><time>2026-04-19T15:00:29.511Z</time></trkpt><trkpt lat="38.22482" lon="16.2560383"><ele>5.0</ele><time>2026-04-19T15:00:30.511Z</time></trkpt><trkpt lat="38.2246783" lon="16.2559033"><ele>5.0</ele><time>2026-04-19T15:00:31.51Z</time></trkpt><trkpt lat="38.224535" lon="16.2557617"><ele>5.0</ele><time>2026-04-19T15:00:32.51Z</time></trkpt><trkpt lat="38.22439" lon="16.255615"><ele>5.0</ele><time>2026-04-19T15:00:33.51Z</time></trkpt><trkpt lat="38.2242567" lon="16.2554583"><ele>5.333333333333334</ele><time>2026-04-19T15:00:34.511Z</time></trkpt><trkpt lat="38.2241183" lon="16.2553117"><ele>5.666666666666667</ele><time>2026-04-19T15:00:35.511Z</time></trkpt><trkpt lat="38.223975" lon="16.2551783"><ele>6.0</ele><time>2026-04-19T15:00:36.51Z</time></trkpt><trkpt lat="38.22383" lon="16.2550333"><ele>6.0</ele><time>2026-04-19T15:00:37.51Z</time></trkpt><trkpt lat="38.2236817" lon="16.2548833"><ele>6.0</ele><time>2026-04-19T15:00:38.51Z</time></trkpt><trkpt lat="38.22353" lon="16.2547283"><ele>6.0</ele><time>2026-04-19T15:00:39.511Z</time></trkpt><trkpt lat="38.2233767" lon="16.2545733"><ele>6.0</ele><time>2026-04-19T15:00:40.51Z</time></trkpt><trkpt lat="38.2232167" lon="16.2544217"><ele>6.0</ele><time>2026-04-19T15:00:41.51Z</time></trkpt><trkpt lat="38.2230533" lon="16.2542583"><ele>6.0</ele><time>2026-04-19T15:00:42.51Z</time></trkpt><trkpt lat="38.2228917" lon="16.254085"><ele>5.666666666666667</ele><time>2026-04-19T15:00:43.51Z</time></trkpt><trkpt lat="38.2227233" lon="16.253915"><ele>5.333333333333334</ele><time>2026-04-19T15:00:44.51Z</time></trkpt><trkpt lat="38.222545" lon="16.253745"><ele>5.0</ele><time>2026-04-19T15:00:45.51Z</time></trkpt><trkpt lat="38.2223683" lon="16.2535683"><ele>4.5</ele><time>2026-04-19T15:00:46.51Z</time></trkpt><trkpt lat="38.2221833" lon="16.253385"><ele>4.0</ele><time>2026-04-19T15:00:47.511Z</time></trkpt><trkpt lat="38.2219983" lon="16.25321"><ele>4.5</ele><time>2026-04-19T15:00:48.511Z</time></trkpt><trkpt lat="38.2218033" lon="16.2530317"><ele>5.0</ele><time>2026-04-19T15:00:49.51Z</time></trkpt><trkpt lat="38.2216083" lon="16.2528583"><ele>5.0</ele><time>2026-04-19T15:00:50.511Z</time></trkpt><trkpt lat="38.2214167" lon="16.2526667"><ele>5.0</ele><time>2026-04-19T15:00:51.511Z</time></trkpt><trkpt lat="38.221225" lon="16.25247"><ele>5.5</ele><time>2026-04-19T15:00:52.51Z</time></trkpt><trkpt lat="38.22103" lon="16.2522817"><ele>6.0</ele><time>2026-04-19T15:00:53.51Z</time></trkpt><trkpt lat="38.22083" lon="16.252095"><ele>6.5</ele><time>2026-04-19T15:00:54.51Z</time></trkpt><trkpt lat="38.2206333" lon="16.2519017"><ele>7.0</ele><time>2026-04-19T15:00:55.51Z</time></trkpt><trkpt lat="38.2204417" lon="16.25171"><ele>7.0</ele><time>2026-04-19T15:00:56.51Z</time></trkpt><trkpt lat="38.2202483" lon="16.251515"><ele>7.0</ele><time>2026-04-19T15:00:57.511Z</time></trkpt><trkpt lat="38.220055" lon="16.251325"><ele>7.0</ele><time>2026-04-19T15:00:58.511Z</time></trkpt><trkpt lat="38.219865" lon="16.2511333"><ele>7.0</ele><time>2026-04-19T15:00:59.51Z</time></trkpt><trkpt lat="38.2196667" lon="16.2509417"><ele>8.0</ele><time>2026-04-19T15:01:00.51Z</time></trkpt><trkpt lat="38.2194733" lon="16.2507467"><ele>9.0</ele><time>2026-04-19T15:01:01.51Z</time></trkpt><trkpt lat="38.21928" lon="16.2505533"><ele>7.0</ele><time>2026-04-19T15:01:02.51Z</time></trkpt><trkpt lat="38.21909" lon="16.2503533"><ele>5.0</ele><time>2026-04-19T15:01:03.511Z</time></trkpt><trkpt lat="38.2189" lon="16.2501583"><ele>5.0</ele><time>2026-04-19T15:01:04.51Z</time></trkpt><trkpt lat="38.218705" lon="16.2499633"><ele>5.0</ele><time>2026-04-19T15:01:05.51Z</time></trkpt><trkpt lat="38.2185133" lon="16.2497667"><ele>4.5</ele><time>2026-04-19T15:01:06.51Z</time></trkpt><trkpt lat="38.218315" lon="16.2495783"><ele>4.0</ele><time>2026-04-19T15:01:07.51Z</time></trkpt><trkpt lat="38.2181183" lon="16.2493917"><ele>5.0</ele><time>2026-04-19T15:01:08.51Z</time></trkpt><trkpt lat="38.2179183" lon="16.249195"><ele>6.0</ele><time>2026-04-19T15:01:09.51Z</time></trkpt><trkpt lat="38.217725" lon="16.2489983"><ele>5.5</ele><time>2026-04-19T15:01:10.511Z</time></trkpt><trkpt lat="38.217535" lon="16.2487967"><ele>5.0</ele><time>2026-04-19T15:01:11.511Z</time></trkpt><trkpt lat="38.2173433" lon="16.2486083"><ele>5.5</ele><time>2026-04-19T15:01:12.511Z</time></trkpt><trkpt lat="38.2171483" lon="16.24842"><ele>6.0</ele><time>2026-04-19T15:01:13.51Z</time></trkpt><trkpt lat="38.2169633" lon="16.24824"><ele>6.333333333333334</ele><time>2026-04-19T15:01:14.51Z</time></trkpt><trkpt lat="38.2167917" lon="16.2480533"><ele>6.666666666666667</ele><time>2026-04-19T15:01:15.51Z</time></trkpt><trkpt lat="38.21662" lon="16.247895"><ele>7.0</ele><time>2026-04-19T15:01:16.51Z</time></trkpt><trkpt lat="38.2164667" lon="16.2477367"><ele>6.333333333333334</ele><time>2026-04-19T15:01:17.511Z</time></trkpt><trkpt lat="38.21632" lon="16.247585"><ele>5.666666666666667</ele><time>2026-04-19T15:01:18.511Z</time></trkpt><trkpt lat="38.2161817" lon="16.24745"><ele>5.0</ele><time>2026-04-19T15:01:19.51Z</time></trkpt><trkpt lat="38.2160517" lon="16.247315"><ele>5.0</ele><time>2026-04-19T15:01:20.51Z</time></trkpt><trkpt lat="38.21593" lon="16.247185"><ele>5.0</ele><time>2026-04-19T15:01:21.51Z</time></trkpt><trkpt lat="38.2158167" lon="16.2470683"><ele>5.0</ele><time>2026-04-19T15:01:22.511Z</time></trkpt><trkpt lat="38.215715" lon="16.24697"><ele>5.0</ele><time>2026-04-19T15:01:23.51Z</time></trkpt><trkpt lat="38.215625" lon="16.2468833"><ele>5.0</ele><time>2026-04-19T15:01:24.51Z</time></trkpt><trkpt lat="38.2155383" lon="16.2468"><ele>5.0</ele><time>2026-04-19T15:01:25.51Z</time></trkpt><trkpt lat="38.215465" lon="16.2467217"><ele>5.0</ele><time>2026-04-19T15:01:26.511Z</time></trkpt><trkpt lat="38.2154" lon="16.2466583"><ele>5.0</ele><time>2026-04-19T15:01:27.51Z</time></trkpt><trkpt lat="38.2153483" lon="16.246595"><ele>5.0</ele><time>2026-04-19T15:01:28.51Z</time></trkpt><trkpt lat="38.2153033" lon="16.2465283"><ele>5.0</ele><time>2026-04-19T15:01:29.51Z</time></trkpt><trkpt lat="38.2152733" lon="16.246455"><ele>5.333333333333334</ele><time>2026-04-19T15:01:30.51Z</time></trkpt><trkpt lat="38.2152433" lon="16.2463783"><ele>5.666666666666667</ele><time>2026-04-19T15:01:31.51Z</time></trkpt><trkpt lat="38.2152067" lon="16.24623"><ele>6.0</ele><time>2026-04-19T15:01:33.51Z</time></trkpt><trkpt lat="38.215215" lon="16.24615"><ele>6.333333333333334</ele><time>2026-04-19T15:01:34.51Z</time></trkpt><trkpt lat="38.2152317" lon="16.2460717"><ele>6.666666666666667</ele><time>2026-04-19T15:01:35.51Z</time></trkpt><trkpt lat="38.2152383" lon="16.2459867"><ele>7.0</ele><time>2026-04-19T15:01:36.51Z</time></trkpt><trkpt lat="38.2152167" lon="16.2459033"><ele>7.0</ele><time>2026-04-19T15:01:37.51Z</time></trkpt><trkpt lat="38.2151183" lon="16.2458083"><ele>6.999999999999999</ele><time>2026-04-19T15:01:39.51Z</time></trkpt><trkpt lat="38.2150383" lon="16.2458"><ele>6.999999999999999</ele><time>2026-04-19T15:01:40.51Z</time></trkpt><trkpt lat="38.2149617" lon="16.2458317"><ele>7.0</ele><time>2026-04-19T15:01:41.51Z</time></trkpt><trkpt lat="38.2148867" lon="16.2458583"><ele>7.0</ele><time>2026-04-19T15:01:42.51Z</time></trkpt><trkpt lat="38.2147967" lon="16.2458633"><ele>6.75</ele><time>2026-04-19T15:01:43.51Z</time></trkpt><trkpt lat="38.21469" lon="16.2458383"><ele>6.5</ele><time>2026-04-19T15:01:44.51Z</time></trkpt><trkpt lat="38.2145783" lon="16.2457783"><ele>6.25</ele><time>2026-04-19T15:01:45.51Z</time></trkpt><trkpt lat="38.2144433" lon="16.2457017"><ele>6.0</ele><time>2026-04-19T15:01:46.511Z</time></trkpt><trkpt lat="38.214305" lon="16.245595"><ele>6.0</ele><time>2026-04-19T15:01:47.51Z</time></trkpt><trkpt lat="38.21416" lon="16.24546"><ele>6.0</ele><time>2026-04-19T15:01:48.51Z</time></trkpt><trkpt lat="38.2140033" lon="16.2452933"><ele>6.0</ele><time>2026-04-19T15:01:49.51Z</time></trkpt><trkpt lat="38.2138367" lon="16.2451167"><ele>6.0</ele><time>2026-04-19T15:01:50.51Z</time></trkpt><trkpt lat="38.213665" lon="16.2449367"><ele>6.0</ele><time>2026-04-19T15:01:51.51Z</time></trkpt><trkpt lat="38.2134767" lon="16.2447517"><ele>6.0</ele><time>2026-04-19T15:01:52.51Z</time></trkpt><trkpt lat="38.213285" lon="16.24456"><ele>6.0</ele><time>2026-04-19T15:01:53.51Z</time></trkpt><trkpt lat="38.213085" lon="16.2443617"><ele>6.0</ele><time>2026-04-19T15:01:54.51Z</time></trkpt><trkpt lat="38.2128883" lon="16.24416"><ele>6.0</ele><time>2026-04-19T15:01:55.51Z</time></trkpt><trkpt lat="38.2126833" lon="16.2439483"><ele>6.5</ele><time>2026-04-19T15:01:56.51Z</time></trkpt><trkpt lat="38.2124817" lon="16.2437417"><ele>7.0</ele><time>2026-04-19T15:01:57.51Z</time></trkpt><trkpt lat="38.212275" lon="16.2435417"><ele>7.0</ele><time>2026-04-19T15:01:58.51Z</time></trkpt><trkpt lat="38.2120717" lon="16.24334"><ele>7.0</ele><time>2026-04-19T15:01:59.51Z</time></trkpt><trkpt lat="38.2118683" lon="16.2431483"><ele>7.0</ele><time>2026-04-19T15:02:00.511Z</time></trkpt><trkpt lat="38.2116867" lon="16.24296"><ele>7.0</ele><time>2026-04-19T15:02:01.51Z</time></trkpt><trkpt lat="38.2115033" lon="16.2427733"><ele>7.0</ele><time>2026-04-19T15:02:02.511Z</time></trkpt><trkpt lat="38.21132" lon="16.24259"><ele>7.0</ele><time>2026-04-19T15:02:03.51Z</time></trkpt><trkpt lat="38.211135" lon="16.242395"><ele>7.5</ele><time>2026-04-19T15:02:04.51Z</time></trkpt><trkpt lat="38.2109333" lon="16.242205"><ele>8.0</ele><time>2026-04-19T15:02:05.51Z</time></trkpt><trkpt lat="38.2107433" lon="16.2420033"><ele>7.0</ele><time>2026-04-19T15:02:06.51Z</time></trkpt><trkpt lat="38.210565" lon="16.241785"><ele>6.0</ele><time>2026-04-19T15:02:07.51Z</time></trkpt><trkpt lat="38.2103617" lon="16.2416067"><ele>6.5</ele><time>2026-04-19T15:02:08.51Z</time></trkpt><trkpt lat="38.21016" lon="16.24142"><ele>7.0</ele><time>2026-04-19T15:02:09.51Z</time></trkpt><trkpt lat="38.20996" lon="16.2412133"><ele>6.0</ele><time>2026-04-19T15:02:10.51Z</time></trkpt><trkpt lat="38.2097583" lon="16.2410033"><ele>5.0</ele><time>2026-04-19T15:02:11.51Z</time></trkpt><trkpt lat="38.2095517" lon="16.2407883"><ele>6.0</ele><time>2026-04-19T15:02:12.511Z</time></trkpt><trkpt lat="38.20934" lon="16.2405683"><ele>7.0</ele><time>2026-04-19T15:02:13.51Z</time></trkpt><trkpt lat="38.209125" lon="16.2403417"><ele>6.5</ele><time>2026-04-19T15:02:14.51Z</time></trkpt><trkpt lat="38.20892" lon="16.240115"><ele>6.0</ele><time>2026-04-19T15:02:15.51Z</time></trkpt><trkpt lat="38.20871" lon="16.2398917"><ele>5.5</ele><time>2026-04-19T15:02:16.51Z</time></trkpt><trkpt lat="38.208495" lon="16.239665"><ele>5.0</ele><time>2026-04-19T15:02:17.51Z</time></trkpt><trkpt lat="38.2082833" lon="16.239445"><ele>6.0</ele><time>2026-04-19T15:02:18.51Z</time></trkpt><trkpt lat="38.2080733" lon="16.2392133"><ele>7.0</ele><time>2026-04-19T15:02:19.51Z</time></trkpt><trkpt lat="38.20786" lon="16.2389917"><ele>6.0</ele><time>2026-04-19T15:02:20.51Z</time></trkpt><trkpt lat="38.2076433" lon="16.23876"><ele>5.0</ele><time>2026-04-19T15:02:21.511Z</time></trkpt><trkpt lat="38.2074367" lon="16.2385317"><ele>5.0</ele><time>2026-04-19T15:02:22.511Z</time></trkpt><trkpt lat="38.207235" lon="16.23831"><ele>5.0</ele><time>2026-04-19T15:02:23.51Z</time></trkpt><trkpt lat="38.2070333" lon="16.2380867"><ele>5.0</ele><time>2026-04-19T15:02:24.51Z</time></trkpt><trkpt lat="38.2068367" lon="16.2378533"><ele>5.0</ele><time>2026-04-19T15:02:25.51Z</time></trkpt><trkpt lat="38.206635" lon="16.23762"><ele>5.5</ele><time>2026-04-19T15:02:26.51Z</time></trkpt><trkpt lat="38.20643" lon="16.2373933"><ele>6.0</ele><time>2026-04-19T15:02:27.511Z</time></trkpt><trkpt lat="38.20622" lon="16.237175"><ele>6.5</ele><time>2026-04-19T15:02:28.51Z</time></trkpt><trkpt lat="38.2060167" lon="16.2369517"><ele>7.0</ele><time>2026-04-19T15:02:29.51Z</time></trkpt><trkpt lat="38.20582" lon="16.23674"><ele>6.5</ele><time>2026-04-19T15:02:30.51Z</time></trkpt><trkpt lat="38.20562" lon="16.2365333"><ele>6.0</ele><time>2026-04-19T15:02:31.51Z</time></trkpt><trkpt lat="38.2054367" lon="16.2363183"><ele>7.0</ele><time>2026-04-19T15:02:32.511Z</time></trkpt><trkpt lat="38.2052517" lon="16.2361083"><ele>8.0</ele><time>2026-04-19T15:02:33.51Z</time></trkpt><trkpt lat="38.2050633" lon="16.2359033"><ele>8.0</ele><time>2026-04-19T15:02:34.51Z</time></trkpt><trkpt lat="38.2048817" lon="16.2357167"><ele>8.0</ele><time>2026-04-19T15:02:35.51Z</time></trkpt><trkpt lat="38.2047133" lon="16.2355367"><ele>8.333333333333332</ele><time>2026-04-19T15:02:36.51Z</time></trkpt><trkpt lat="38.204555" lon="16.2353667"><ele>8.666666666666666</ele><time>2026-04-19T15:02:37.51Z</time></trkpt><trkpt lat="38.204405" lon="16.23521"><ele>9.0</ele><time>2026-04-19T15:02:38.511Z</time></trkpt><trkpt lat="38.2042783" lon="16.2350767"><ele>9.0</ele><time>2026-04-19T15:02:39.51Z</time></trkpt><trkpt lat="38.2041567" lon="16.2349467"><ele>9.0</ele><time>2026-04-19T15:02:40.51Z</time></trkpt><trkpt lat="38.2040467" lon="16.23483"><ele>9.0</ele><time>2026-04-19T15:02:41.51Z</time></trkpt><trkpt lat="38.2039533" lon="16.2347117"><ele>9.0</ele><time>2026-04-19T15:02:42.511Z</time></trkpt><trkpt lat="38.2038733" lon="16.234605"><ele>8.75</ele><time>2026-04-19T15:02:43.51Z</time></trkpt><trkpt lat="38.20379" lon="16.2345033"><ele>8.5</ele><time>2026-04-19T15:02:44.511Z</time></trkpt><trkpt lat="38.2036983" lon="16.2344033"><ele>8.25</ele><time>2026-04-19T15:02:45.51Z</time></trkpt><trkpt lat="38.203605" lon="16.2343017"><ele>8.0</ele><time>2026-04-19T15:02:46.51Z</time></trkpt><trkpt lat="38.2035" lon="16.2342017"><ele>8.0</ele><time>2026-04-19T15:02:47.511Z</time></trkpt><trkpt lat="38.2033917" lon="16.2340933"><ele>8.0</ele><time>2026-04-19T15:02:48.51Z</time></trkpt><trkpt lat="38.2032767" lon="16.2339783"><ele>8.0</ele><time>2026-04-19T15:02:49.511Z</time></trkpt><trkpt lat="38.2031483" lon="16.2338517"><ele>8.0</ele><time>2026-04-19T15:02:50.51Z</time></trkpt><trkpt lat="38.2030133" lon="16.2337"><ele>7.666666666666666</ele><time>2026-04-19T15:02:51.511Z</time></trkpt><trkpt lat="38.2028833" lon="16.23354"><ele>7.333333333333334</ele><time>2026-04-19T15:02:52.511Z</time></trkpt><trkpt lat="38.202745" lon="16.23338"><ele>7.0</ele><time>2026-04-19T15:02:53.51Z</time></trkpt><trkpt lat="38.2025967" lon="16.23321"><ele>6.666666666666667</ele><time>2026-04-19T15:02:54.511Z</time></trkpt><trkpt lat="38.202445" lon="16.2330383"><ele>6.333333333333334</ele><time>2026-04-19T15:02:55.51Z</time></trkpt><trkpt lat="38.2023033" lon="16.23287"><ele>6.0</ele><time>2026-04-19T15:02:56.51Z</time></trkpt><trkpt lat="38.2021683" lon="16.2327117"><ele>6.0</ele><time>2026-04-19T15:02:57.51Z</time></trkpt><trkpt lat="38.202025" lon="16.23255"><ele>6.0</ele><time>2026-04-19T15:02:58.51Z</time></trkpt><trkpt lat="38.201875" lon="16.2323783"><ele>6.0</ele><time>2026-04-19T15:02:59.51Z</time></trkpt><trkpt lat="38.20172" lon="16.2322017"><ele>6.333333333333334</ele><time>2026-04-19T15:03:00.51Z</time></trkpt><trkpt lat="38.2015567" lon="16.232025"><ele>6.666666666666667</ele><time>2026-04-19T15:03:01.51Z</time></trkpt><trkpt lat="38.201385" lon="16.23184"><ele>7.0</ele><time>2026-04-19T15:03:02.51Z</time></trkpt><trkpt lat="38.2012133" lon="16.2316417"><ele>6.5</ele><time>2026-04-19T15:03:03.51Z</time></trkpt><trkpt lat="38.2010383" lon="16.23143"><ele>6.0</ele><time>2026-04-19T15:03:04.51Z</time></trkpt><trkpt lat="38.2008583" lon="16.2312233"><ele>6.0</ele><time>2026-04-19T15:03:05.51Z</time></trkpt><trkpt lat="38.2006767" lon="16.2310283"><ele>6.0</ele><time>2026-04-19T15:03:06.51Z</time></trkpt><trkpt lat="38.2004867" lon="16.230835"><ele>6.0</ele><time>2026-04-19T15:03:07.51Z</time></trkpt><trkpt lat="38.2002983" lon="16.2306517"><ele>6.0</ele><time>2026-04-19T15:03:08.51Z</time></trkpt><trkpt lat="38.2001067" lon="16.2304467"><ele>6.0</ele><time>2026-04-19T15:03:09.51Z</time></trkpt><trkpt lat="38.199915" lon="16.23022"><ele>6.0</ele><time>2026-04-19T15:03:10.51Z</time></trkpt><trkpt lat="38.1997233" lon="16.2300133"><ele>6.5</ele><time>2026-04-19T15:03:11.51Z</time></trkpt><trkpt lat="38.199535" lon="16.2297867"><ele>7.0</ele><time>2026-04-19T15:03:12.51Z</time></trkpt><trkpt lat="38.19933" lon="16.22956"><ele>7.0</ele><time>2026-04-19T15:03:13.51Z</time></trkpt><trkpt lat="38.19912" lon="16.22933"><ele>7.0</ele><time>2026-04-19T15:03:14.51Z</time></trkpt><trkpt lat="38.1989117" lon="16.2291167"><ele>7.5</ele><time>2026-04-19T15:03:15.51Z</time></trkpt><trkpt lat="38.1987067" lon="16.2289083"><ele>8.0</ele><time>2026-04-19T15:03:16.511Z</time></trkpt><trkpt lat="38.198495" lon="16.228695"><ele>8.0</ele><time>2026-04-19T15:03:17.51Z</time></trkpt><trkpt lat="38.19829" lon="16.22849"><ele>8.0</ele><time>2026-04-19T15:03:18.511Z</time></trkpt><trkpt lat="38.19808" lon="16.2282967"><ele>7.5</ele><time>2026-04-19T15:03:19.51Z</time></trkpt><trkpt lat="38.1978633" lon="16.2281017"><ele>7.0</ele><time>2026-04-19T15:03:20.511Z</time></trkpt><trkpt lat="38.19766" lon="16.2278983"><ele>7.0</ele><time>2026-04-19T15:03:21.51Z</time></trkpt><trkpt lat="38.1974567" lon="16.2276967"><ele>7.0</ele><time>2026-04-19T15:03:22.51Z</time></trkpt><trkpt lat="38.1972433" lon="16.22752"><ele>7.0</ele><time>2026-04-19T15:03:23.51Z</time></trkpt><trkpt lat="38.197035" lon="16.2273283"><ele>7.0</ele><time>2026-04-19T15:03:24.511Z</time></trkpt><trkpt lat="38.1968233" lon="16.22714"><ele>7.0</ele><time>2026-04-19T15:03:25.51Z</time></trkpt><trkpt lat="38.1966217" lon="16.2269467"><ele>7.0</ele><time>2026-04-19T15:03:26.51Z</time></trkpt><trkpt lat="38.196405" lon="16.2267533"><ele>6.5</ele><time>2026-04-19T15:03:27.51Z</time></trkpt><trkpt lat="38.196195" lon="16.226565"><ele>6.0</ele><time>2026-04-19T15:03:28.51Z</time></trkpt><trkpt lat="38.1959883" lon="16.22638"><ele>6.0</ele><time>2026-04-19T15:03:29.51Z</time></trkpt><trkpt lat="38.195775" lon="16.22619"><ele>6.0</ele><time>2026-04-19T15:03:30.51Z</time></trkpt><trkpt lat="38.1955667" lon="16.22599"><ele>6.0</ele><time>2026-04-19T15:03:31.511Z</time></trkpt><trkpt lat="38.1953533" lon="16.2258067"><ele>6.0</ele><time>2026-04-19T15:03:32.511Z</time></trkpt><trkpt lat="38.1951433" lon="16.2256167"><ele>6.5</ele><time>2026-04-19T15:03:33.51Z</time></trkpt><trkpt lat="38.1949333" lon="16.2254217"><ele>7.0</ele><time>2026-04-19T15:03:34.51Z</time></trkpt><trkpt lat="38.1947167" lon="16.2252283"><ele>5.5</ele><time>2026-04-19T15:03:35.51Z</time></trkpt><trkpt lat="38.1945" lon="16.225035"><ele>4.0</ele><time>2026-04-19T15:03:36.51Z</time></trkpt><trkpt lat="38.1942767" lon="16.224835"><ele>4.5</ele><time>2026-04-19T15:03:37.51Z</time></trkpt><trkpt lat="38.19406" lon="16.2246317"><ele>5.0</ele><time>2026-04-19T15:03:38.51Z</time></trkpt><trkpt lat="38.1938433" lon="16.224435"><ele>5.0</ele><time>2026-04-19T15:03:39.511Z</time></trkpt><trkpt lat="38.19362" lon="16.224235"><ele>5.0</ele><time>2026-04-19T15:03:40.51Z</time></trkpt><trkpt lat="38.1934017" lon="16.2240467"><ele>5.0</ele><time>2026-04-19T15:03:41.51Z</time></trkpt><trkpt lat="38.1931783" lon="16.223855"><ele>5.0</ele><time>2026-04-19T15:03:42.51Z</time></trkpt><trkpt lat="38.1929617" lon="16.2236517"><ele>5.0</ele><time>2026-04-19T15:03:43.51Z</time></trkpt><trkpt lat="38.192755" lon="16.2234383"><ele>5.0</ele><time>2026-04-19T15:03:44.51Z</time></trkpt><trkpt lat="38.192535" lon="16.2232317"><ele>4.5</ele><time>2026-04-19T15:03:45.51Z</time></trkpt><trkpt lat="38.1923183" lon="16.2230183"><ele>4.0</ele><time>2026-04-19T15:03:46.51Z</time></trkpt><trkpt lat="38.1920983" lon="16.2228217"><ele>4.0</ele><time>2026-04-19T15:03:47.51Z</time></trkpt><trkpt lat="38.1918833" lon="16.2226167"><ele>4.0</ele><time>2026-04-19T15:03:48.511Z</time></trkpt><trkpt lat="38.1916683" lon="16.2224217"><ele>4.5</ele><time>2026-04-19T15:03:49.51Z</time></trkpt><trkpt lat="38.1914517" lon="16.2222167"><ele>5.0</ele><time>2026-04-19T15:03:50.51Z</time></trkpt><trkpt lat="38.19124" lon="16.2220133"><ele>5.0</ele><time>2026-04-19T15:03:51.51Z</time></trkpt><trkpt lat="38.191025" lon="16.2218133"><ele>5.0</ele><time>2026-04-19T15:03:52.511Z</time></trkpt><trkpt lat="38.1908017" lon="16.221615"><ele>6.5</ele><time>2026-04-19T15:03:53.51Z</time></trkpt><trkpt lat="38.1905917" lon="16.2214183"><ele>8.0</ele><time>2026-04-19T15:03:54.51Z</time></trkpt><trkpt lat="38.1903783" lon="16.2212183"><ele>8.0</ele><time>2026-04-19T15:03:55.51Z</time></trkpt><trkpt lat="38.19017" lon="16.2210233"><ele>8.0</ele><time>2026-04-19T15:03:56.511Z</time></trkpt><trkpt lat="38.1899633" lon="16.2208133"><ele>6.0</ele><time>2026-04-19T15:03:57.511Z</time></trkpt><trkpt lat="38.1897533" lon="16.220615"><ele>4.0</ele><time>2026-04-19T15:03:58.51Z</time></trkpt><trkpt lat="38.18954" lon="16.22042"><ele>4.0</ele><time>2026-04-19T15:03:59.51Z</time></trkpt><trkpt lat="38.1893217" lon="16.220225"><ele>4.0</ele><time>2026-04-19T15:04:00.51Z</time></trkpt><trkpt lat="38.1891067" lon="16.2200317"><ele>2.5</ele><time>2026-04-19T15:04:01.51Z</time></trkpt><trkpt lat="38.1888933" lon="16.21984"><ele>1.0</ele><time>2026-04-19T15:04:02.511Z</time></trkpt><trkpt lat="38.18868" lon="16.2196533"><ele>4.0</ele><time>2026-04-19T15:04:03.51Z</time></trkpt><trkpt lat="38.18847" lon="16.2194717"><ele>7.0</ele><time>2026-04-19T15:04:04.51Z</time></trkpt><trkpt lat="38.1882533" lon="16.21928"><ele>6.0</ele><time>2026-04-19T15:04:05.51Z</time></trkpt><trkpt lat="38.18804" lon="16.2190917"><ele>5.0</ele><time>2026-04-19T15:04:06.511Z</time></trkpt><trkpt lat="38.1878233" lon="16.2189133"><ele>5.0</ele><time>2026-04-19T15:04:07.51Z</time></trkpt><trkpt lat="38.1875983" lon="16.2187267"><ele>5.0</ele><time>2026-04-19T15:04:08.51Z</time></trkpt><trkpt lat="38.1873783" lon="16.21855"><ele>3.5</ele><time>2026-04-19T15:04:09.51Z</time></trkpt><trkpt lat="38.1871617" lon="16.2183617"><ele>2.0</ele><time>2026-04-19T15:04:10.511Z</time></trkpt><trkpt lat="38.1869483" lon="16.2181683"><ele>3.0</ele><time>2026-04-19T15:04:11.51Z</time></trkpt><trkpt lat="38.1867333" lon="16.2179617"><ele>4.0</ele><time>2026-04-19T15:04:12.51Z</time></trkpt><trkpt lat="38.1865183" lon="16.2177617"><ele>4.5</ele><time>2026-04-19T15:04:13.51Z</time></trkpt><trkpt lat="38.1863067" lon="16.2175483"><ele>5.0</ele><time>2026-04-19T15:04:14.511Z</time></trkpt><trkpt lat="38.1861" lon="16.2173433"><ele>5.5</ele><time>2026-04-19T15:04:15.51Z</time></trkpt><trkpt lat="38.1858967" lon="16.217145"><ele>6.0</ele><time>2026-04-19T15:04:16.51Z</time></trkpt><trkpt lat="38.1857" lon="16.2169433"><ele>4.5</ele><time>2026-04-19T15:04:17.511Z</time></trkpt><trkpt lat="38.1855133" lon="16.2167383"><ele>3.0</ele><time>2026-04-19T15:04:18.51Z</time></trkpt><trkpt lat="38.1853217" lon="16.2165417"><ele>5.0</ele><time>2026-04-19T15:04:19.51Z</time></trkpt><trkpt lat="38.18513" lon="16.2163517"><ele>7.0</ele><time>2026-04-19T15:04:20.51Z</time></trkpt><trkpt lat="38.1849433" lon="16.2161583"><ele>6.0</ele><time>2026-04-19T15:04:21.511Z</time></trkpt><trkpt lat="38.1847533" lon="16.2159717"><ele>5.0</ele><time>2026-04-19T15:04:22.51Z</time></trkpt><trkpt lat="38.184565" lon="16.2157667"><ele>6.0</ele><time>2026-04-19T15:04:23.51Z</time></trkpt><trkpt lat="38.1843733" lon="16.2155717"><ele>7.0</ele><time>2026-04-19T15:04:24.51Z</time></trkpt><trkpt lat="38.18419" lon="16.21538"><ele>6.0</ele><time>2026-04-19T15:04:25.51Z</time></trkpt><trkpt lat="38.1840017" lon="16.2151817"><ele>5.0</ele><time>2026-04-19T15:04:26.51Z</time></trkpt><trkpt lat="38.1838117" lon="16.214995"><ele>6.5</ele><time>2026-04-19T15:04:27.51Z</time></trkpt><trkpt lat="38.1836217" lon="16.2148117"><ele>8.0</ele><time>2026-04-19T15:04:28.511Z</time></trkpt><trkpt lat="38.1834383" lon="16.21462"><ele>8.0</ele><time>2026-04-19T15:04:29.51Z</time></trkpt><trkpt lat="38.1832533" lon="16.21443"><ele>8.0</ele><time>2026-04-19T15:04:30.51Z</time></trkpt><trkpt lat="38.18307" lon="16.21424"><ele>7.5</ele><time>2026-04-19T15:04:31.51Z</time></trkpt><trkpt lat="38.18289" lon="16.2140617"><ele>7.0</ele><time>2026-04-19T15:04:32.51Z</time></trkpt><trkpt lat="38.1827067" lon="16.21388"><ele>7.0</ele><time>2026-04-19T15:04:33.511Z</time></trkpt><trkpt lat="38.182505" lon="16.2136967"><ele>7.0</ele><time>2026-04-19T15:04:34.51Z</time></trkpt><trkpt lat="38.18232" lon="16.2135067"><ele>7.5</ele><time>2026-04-19T15:04:35.51Z</time></trkpt><trkpt lat="38.182135" lon="16.213325"><ele>8.0</ele><time>2026-04-19T15:04:36.51Z</time></trkpt><trkpt lat="38.1819467" lon="16.2131417"><ele>7.0</ele><time>2026-04-19T15:04:37.51Z</time></trkpt><trkpt lat="38.181755" lon="16.2129533"><ele>6.0</ele><time>2026-04-19T15:04:38.51Z</time></trkpt><trkpt lat="38.1815683" lon="16.212765"><ele>6.5</ele><time>2026-04-19T15:04:39.511Z</time></trkpt><trkpt lat="38.181385" lon="16.2125767"><ele>7.0</ele><time>2026-04-19T15:04:40.511Z</time></trkpt><trkpt lat="38.181195" lon="16.2123883"><ele>7.0</ele><time>2026-04-19T15:04:41.51Z</time></trkpt><trkpt lat="38.1810067" lon="16.2122"><ele>7.0</ele><time>2026-04-19T15:04:42.511Z</time></trkpt><trkpt lat="38.1808267" lon="16.2120117"><ele>7.333333333333334</ele><time>2026-04-19T15:04:43.51Z</time></trkpt><trkpt lat="38.1806517" lon="16.2118417"><ele>7.666666666666666</ele><time>2026-04-19T15:04:44.51Z</time></trkpt><trkpt lat="38.1805" lon="16.2116733"><ele>8.0</ele><time>2026-04-19T15:04:45.51Z</time></trkpt><trkpt lat="38.180365" lon="16.2115283"><ele>9.0</ele><time>2026-04-19T15:04:46.51Z</time></trkpt><trkpt lat="38.1802333" lon="16.2114217"><ele>10.0</ele><time>2026-04-19T15:04:47.51Z</time></trkpt><trkpt lat="38.1801117" lon="16.2112883"><ele>11.0</ele><time>2026-04-19T15:04:48.511Z</time></trkpt><trkpt lat="38.1799817" lon="16.2111517"><ele>10.333333333333332</ele><time>2026-04-19T15:04:49.51Z</time></trkpt><trkpt lat="38.17985" lon="16.211015"><ele>9.666666666666666</ele><time>2026-04-19T15:04:50.511Z</time></trkpt><trkpt lat="38.1797117" lon="16.21088"><ele>9.0</ele><time>2026-04-19T15:04:51.51Z</time></trkpt><trkpt lat="38.1795767" lon="16.2107583"><ele>10.0</ele><time>2026-04-19T15:04:52.51Z</time></trkpt><trkpt lat="38.179445" lon="16.210615"><ele>11.0</ele><time>2026-04-19T15:04:53.511Z</time></trkpt><trkpt lat="38.1793117" lon="16.2104717"><ele>12.0</ele><time>2026-04-19T15:04:54.51Z</time></trkpt><trkpt lat="38.1791767" lon="16.2103317"><ele>12.0</ele><time>2026-04-19T15:04:55.51Z</time></trkpt><trkpt lat="38.1790333" lon="16.2101917"><ele>12.0</ele><time>2026-04-19T15:04:56.51Z</time></trkpt><trkpt lat="38.1788917" lon="16.2100467"><ele>12.0</ele><time>2026-04-19T15:04:57.511Z</time></trkpt><trkpt lat="38.1787433" lon="16.209905"><ele>11.0</ele><time>2026-04-19T15:04:58.51Z</time></trkpt><trkpt lat="38.17859" lon="16.209755"><ele>10.0</ele><time>2026-04-19T15:04:59.51Z</time></trkpt><trkpt lat="38.1784383" lon="16.2096033"><ele>9.0</ele><time>2026-04-19T15:05:00.51Z</time></trkpt><trkpt lat="38.1782833" lon="16.2094517"><ele>9.0</ele><time>2026-04-19T15:05:01.511Z</time></trkpt><trkpt lat="38.17813" lon="16.2093067"><ele>9.0</ele><time>2026-04-19T15:05:02.511Z</time></trkpt><trkpt lat="38.177975" lon="16.2091567"><ele>9.0</ele><time>2026-04-19T15:05:03.51Z</time></trkpt><trkpt lat="38.1778117" lon="16.2090033"><ele>9.333333333333334</ele><time>2026-04-19T15:05:04.511Z</time></trkpt><trkpt lat="38.177655" lon="16.2088233"><ele>9.666666666666668</ele><time>2026-04-19T15:05:05.51Z</time></trkpt><trkpt lat="38.1774867" lon="16.2086483"><ele>10.0</ele><time>2026-04-19T15:05:06.51Z</time></trkpt><trkpt lat="38.1773183" lon="16.2084867"><ele>10.333333333333334</ele><time>2026-04-19T15:05:07.51Z</time></trkpt><trkpt lat="38.1771617" lon="16.2083067"><ele>10.666666666666666</ele><time>2026-04-19T15:05:08.51Z</time></trkpt><trkpt lat="38.1770033" lon="16.2081433"><ele>11.0</ele><time>2026-04-19T15:05:09.51Z</time></trkpt><trkpt lat="38.1768467" lon="16.2079767"><ele>11.0</ele><time>2026-04-19T15:05:10.51Z</time></trkpt><trkpt lat="38.17669" lon="16.2078133"><ele>11.0</ele><time>2026-04-19T15:05:11.51Z</time></trkpt><trkpt lat="38.176535" lon="16.2076583"><ele>11.0</ele><time>2026-04-19T15:05:12.51Z</time></trkpt><trkpt lat="38.176385" lon="16.2075083"><ele>11.0</ele><time>2026-04-19T15:05:13.511Z</time></trkpt><trkpt lat="38.1762367" lon="16.2073483"><ele>11.0</ele><time>2026-04-19T15:05:14.51Z</time></trkpt><trkpt lat="38.17609" lon="16.207195"><ele>11.0</ele><time>2026-04-19T15:05:15.511Z</time></trkpt><trkpt lat="38.1759283" lon="16.20704"><ele>11.0</ele><time>2026-04-19T15:05:16.51Z</time></trkpt><trkpt lat="38.17577" lon="16.2068867"><ele>11.0</ele><time>2026-04-19T15:05:17.511Z</time></trkpt><trkpt lat="38.1756117" lon="16.2067433"><ele>11.0</ele><time>2026-04-19T15:05:18.51Z</time></trkpt><trkpt lat="38.1754683" lon="16.2066067"><ele>11.0</ele><time>2026-04-19T15:05:19.51Z</time></trkpt><trkpt lat="38.1753317" lon="16.2064683"><ele>11.0</ele><time>2026-04-19T15:05:20.51Z</time></trkpt><trkpt lat="38.1751967" lon="16.206325"><ele>11.0</ele><time>2026-04-19T15:05:21.51Z</time></trkpt><trkpt lat="38.1750617" lon="16.2061867"><ele>11.0</ele><time>2026-04-19T15:05:22.51Z</time></trkpt><trkpt lat="38.1749383" lon="16.2060567"><ele>11.0</ele><time>2026-04-19T15:05:23.51Z</time></trkpt><trkpt lat="38.1748067" lon="16.2059467"><ele>11.0</ele><time>2026-04-19T15:05:24.51Z</time></trkpt><trkpt lat="38.1746933" lon="16.205835"><ele>10.75</ele><time>2026-04-19T15:05:25.51Z</time></trkpt><trkpt lat="38.1745933" lon="16.2057033"><ele>10.5</ele><time>2026-04-19T15:05:26.51Z</time></trkpt><trkpt lat="38.17449" lon="16.2056"><ele>10.25</ele><time>2026-04-19T15:05:27.51Z</time></trkpt><trkpt lat="38.1743883" lon="16.2055017"><ele>10.0</ele><time>2026-04-19T15:05:28.51Z</time></trkpt><trkpt lat="38.1743" lon="16.2054"><ele>9.8</ele><time>2026-04-19T15:05:29.51Z</time></trkpt><trkpt lat="38.1742117" lon="16.2053217"><ele>9.6</ele><time>2026-04-19T15:05:30.511Z</time></trkpt><trkpt lat="38.1741283" lon="16.20524"><ele>9.4</ele><time>2026-04-19T15:05:31.51Z</time></trkpt><trkpt lat="38.1740533" lon="16.2051533"><ele>9.2</ele><time>2026-04-19T15:05:32.51Z</time></trkpt><trkpt lat="38.1739733" lon="16.2050567"><ele>9.0</ele><time>2026-04-19T15:05:33.51Z</time></trkpt><trkpt lat="38.173885" lon="16.2049583"><ele>9.0</ele><time>2026-04-19T15:05:34.51Z</time></trkpt><trkpt lat="38.1737867" lon="16.2048617"><ele>9.0</ele><time>2026-04-19T15:05:35.51Z</time></trkpt><trkpt lat="38.1736833" lon="16.2047617"><ele>9.0</ele><time>2026-04-19T15:05:36.51Z</time></trkpt><trkpt lat="38.1735767" lon="16.204655"><ele>9.0</ele><time>2026-04-19T15:05:37.51Z</time></trkpt><trkpt lat="38.1734717" lon="16.2045617"><ele>9.0</ele><time>2026-04-19T15:05:38.511Z</time></trkpt><trkpt lat="38.1733683" lon="16.204465"><ele>9.0</ele><time>2026-04-19T15:05:39.51Z</time></trkpt><trkpt lat="38.173275" lon="16.2043667"><ele>9.0</ele><time>2026-04-19T15:05:40.51Z</time></trkpt><trkpt lat="38.1731783" lon="16.2042717"><ele>9.0</ele><time>2026-04-19T15:05:41.511Z</time></trkpt><trkpt lat="38.1730833" lon="16.2041583"><ele>9.0</ele><time>2026-04-19T15:05:42.51Z</time></trkpt><trkpt lat="38.1729833" lon="16.2040617"><ele>9.0</ele><time>2026-04-19T15:05:43.51Z</time></trkpt><trkpt lat="38.1728833" lon="16.2039667"><ele>9.0</ele><time>2026-04-19T15:05:44.51Z</time></trkpt><trkpt lat="38.1727817" lon="16.203875"><ele>9.0</ele><time>2026-04-19T15:05:45.51Z</time></trkpt><trkpt lat="38.172685" lon="16.20378"><ele>8.75</ele><time>2026-04-19T15:05:46.51Z</time></trkpt><trkpt lat="38.17259" lon="16.2036833"><ele>8.5</ele><time>2026-04-19T15:05:47.51Z</time></trkpt><trkpt lat="38.1724883" lon="16.2035767"><ele>8.25</ele><time>2026-04-19T15:05:48.51Z</time></trkpt><trkpt lat="38.1723817" lon="16.2034817"><ele>8.0</ele><time>2026-04-19T15:05:49.51Z</time></trkpt><trkpt lat="38.1722783" lon="16.2033883"><ele>7.75</ele><time>2026-04-19T15:05:50.51Z</time></trkpt><trkpt lat="38.1721733" lon="16.2033"><ele>7.5</ele><time>2026-04-19T15:05:51.51Z</time></trkpt><trkpt lat="38.1720633" lon="16.20321"><ele>7.25</ele><time>2026-04-19T15:05:52.511Z</time></trkpt><trkpt lat="38.17196" lon="16.2031283"><ele>7.0</ele><time>2026-04-19T15:05:53.51Z</time></trkpt><trkpt lat="38.1718583" lon="16.2030333"><ele>6.75</ele><time>2026-04-19T15:05:54.51Z</time></trkpt><trkpt lat="38.1717617" lon="16.2029383"><ele>6.5</ele><time>2026-04-19T15:05:55.51Z</time></trkpt><trkpt lat="38.171665" lon="16.20285"><ele>6.25</ele><time>2026-04-19T15:05:56.51Z</time></trkpt><trkpt lat="38.1715617" lon="16.2027767"><ele>6.0</ele><time>2026-04-19T15:05:57.51Z</time></trkpt><trkpt lat="38.1714667" lon="16.2026917"><ele>6.0</ele><time>2026-04-19T15:05:58.51Z</time></trkpt><trkpt lat="38.17138" lon="16.2026133"><ele>6.0</ele><time>2026-04-19T15:05:59.51Z</time></trkpt><trkpt lat="38.1712917" lon="16.202545"><ele>6.0</ele><time>2026-04-19T15:06:00.51Z</time></trkpt><trkpt lat="38.1712133" lon="16.20248"><ele>6.0</ele><time>2026-04-19T15:06:01.51Z</time></trkpt><trkpt lat="38.1711383" lon="16.2024083"><ele>6.0</ele><time>2026-04-19T15:06:02.511Z</time></trkpt><trkpt lat="38.1710517" lon="16.2023383"><ele>6.0</ele><time>2026-04-19T15:06:03.51Z</time></trkpt><trkpt lat="38.1709617" lon="16.2022667"><ele>6.0</ele><time>2026-04-19T15:06:04.51Z</time></trkpt><trkpt lat="38.1708683" lon="16.2021917"><ele>6.0</ele><time>2026-04-19T15:06:05.51Z</time></trkpt><trkpt lat="38.17077" lon="16.20211"><ele>6.0</ele><time>2026-04-19T15:06:06.51Z</time></trkpt><trkpt lat="38.1706733" lon="16.202015"><ele>6.6</ele><time>2026-04-19T15:06:07.51Z</time></trkpt><trkpt lat="38.1705767" lon="16.2019333"><ele>7.199999999999999</ele><time>2026-04-19T15:06:08.51Z</time></trkpt><trkpt lat="38.170475" lon="16.20185"><ele>7.800000000000001</ele><time>2026-04-19T15:06:09.511Z</time></trkpt><trkpt lat="38.1703817" lon="16.2017667"><ele>8.4</ele><time>2026-04-19T15:06:10.51Z</time></trkpt><trkpt lat="38.1703" lon="16.2017"><ele>9.0</ele><time>2026-04-19T15:06:11.51Z</time></trkpt><trkpt lat="38.17022" lon="16.2016317"><ele>9.0</ele><time>2026-04-19T15:06:12.51Z</time></trkpt><trkpt lat="38.1701583" lon="16.2015767"><ele>9.0</ele><time>2026-04-19T15:06:13.51Z</time></trkpt><trkpt lat="38.1700683" lon="16.2014933"><ele>9.0</ele><time>2026-04-19T15:06:15.51Z</time></trkpt><trkpt lat="38.1699717" lon="16.2013933"><ele>9.0</ele><time>2026-04-19T15:06:17.511Z</time></trkpt><trkpt lat="38.1699033" lon="16.2013433"><ele>9.0</ele><time>2026-04-19T15:06:18.51Z</time></trkpt><trkpt lat="38.1698267" lon="16.201285"><ele>8.8</ele><time>2026-04-19T15:06:19.51Z</time></trkpt><trkpt lat="38.1697433" lon="16.201215"><ele>8.600000000000001</ele><time>2026-04-19T15:06:20.511Z</time></trkpt><trkpt lat="38.16966" lon="16.2011317"><ele>8.4</ele><time>2026-04-19T15:06:21.51Z</time></trkpt><trkpt lat="38.1695717" lon="16.2010467"><ele>8.200000000000001</ele><time>2026-04-19T15:06:22.51Z</time></trkpt><trkpt lat="38.1694633" lon="16.2009633"><ele>8.0</ele><time>2026-04-19T15:06:23.51Z</time></trkpt><trkpt lat="38.1693483" lon="16.2008767"><ele>8.0</ele><time>2026-04-19T15:06:24.511Z</time></trkpt><trkpt lat="38.1692383" lon="16.2007817"><ele>8.0</ele><time>2026-04-19T15:06:25.51Z</time></trkpt><trkpt lat="38.1691233" lon="16.2006833"><ele>8.0</ele><time>2026-04-19T15:06:26.51Z</time></trkpt><trkpt lat="38.169" lon="16.2005833"><ele>8.0</ele><time>2026-04-19T15:06:27.511Z</time></trkpt><trkpt lat="38.1688717" lon="16.2004683"><ele>8.0</ele><time>2026-04-19T15:06:28.51Z</time></trkpt><trkpt lat="38.1687283" lon="16.2003617"><ele>8.0</ele><time>2026-04-19T15:06:29.51Z</time></trkpt><trkpt lat="38.16858" lon="16.2002367"><ele>8.0</ele><time>2026-04-19T15:06:30.51Z</time></trkpt><trkpt lat="38.16843" lon="16.2000967"><ele>8.0</ele><time>2026-04-19T15:06:31.51Z</time></trkpt><trkpt lat="38.1682883" lon="16.1999583"><ele>8.0</ele><time>2026-04-19T15:06:32.51Z</time></trkpt><trkpt lat="38.16814" lon="16.1998033"><ele>8.0</ele><time>2026-04-19T15:06:33.51Z</time></trkpt><trkpt lat="38.167975" lon="16.199665"><ele>7.666666666666666</ele><time>2026-04-19T15:06:34.51Z</time></trkpt><trkpt lat="38.1678017" lon="16.1995367"><ele>7.333333333333334</ele><time>2026-04-19T15:06:35.51Z</time></trkpt><trkpt lat="38.16763" lon="16.1993983"><ele>7.0</ele><time>2026-04-19T15:06:36.51Z</time></trkpt><trkpt lat="38.1674517" lon="16.1992483"><ele>6.666666666666667</ele><time>2026-04-19T15:06:37.51Z</time></trkpt><trkpt lat="38.1672867" lon="16.1990917"><ele>6.333333333333334</ele><time>2026-04-19T15:06:38.51Z</time></trkpt><trkpt lat="38.167115" lon="16.1989367"><ele>6.0</ele><time>2026-04-19T15:06:39.51Z</time></trkpt><trkpt lat="38.16694" lon="16.198775"><ele>6.0</ele><time>2026-04-19T15:06:40.51Z</time></trkpt><trkpt lat="38.1667617" lon="16.19861"><ele>6.0</ele><time>2026-04-19T15:06:41.51Z</time></trkpt><trkpt lat="38.1665867" lon="16.1984517"><ele>6.0</ele><time>2026-04-19T15:06:42.51Z</time></trkpt><trkpt lat="38.1664083" lon="16.1982833"><ele>6.0</ele><time>2026-04-19T15:06:43.51Z</time></trkpt><trkpt lat="38.1662317" lon="16.1981067"><ele>6.0</ele><time>2026-04-19T15:06:44.511Z</time></trkpt><trkpt lat="38.1660533" lon="16.1979317"><ele>6.0</ele><time>2026-04-19T15:06:45.51Z</time></trkpt><trkpt lat="38.1658633" lon="16.197775"><ele>6.0</ele><time>2026-04-19T15:06:46.51Z</time></trkpt><trkpt lat="38.165675" lon="16.19761"><ele>6.0</ele><time>2026-04-19T15:06:47.51Z</time></trkpt><trkpt lat="38.1654917" lon="16.1974467"><ele>6.0</ele><time>2026-04-19T15:06:48.511Z</time></trkpt><trkpt lat="38.165305" lon="16.1972833"><ele>7.5</ele><time>2026-04-19T15:06:49.51Z</time></trkpt><trkpt lat="38.1651183" lon="16.1971067"><ele>9.0</ele><time>2026-04-19T15:06:50.511Z</time></trkpt><trkpt lat="38.164935" lon="16.1969217"><ele>8.0</ele><time>2026-04-19T15:06:51.51Z</time></trkpt><trkpt lat="38.16476" lon="16.1967183"><ele>7.0</ele><time>2026-04-19T15:06:52.51Z</time></trkpt><trkpt lat="38.1645833" lon="16.1965067"><ele>6.5</ele><time>2026-04-19T15:06:53.51Z</time></trkpt><trkpt lat="38.1644067" lon="16.1963017"><ele>6.0</ele><time>2026-04-19T15:06:54.51Z</time></trkpt><trkpt lat="38.164235" lon="16.1960983"><ele>6.0</ele><time>2026-04-19T15:06:55.51Z</time></trkpt><trkpt lat="38.1640583" lon="16.1958867"><ele>6.0</ele><time>2026-04-19T15:06:56.51Z</time></trkpt><trkpt lat="38.16388" lon="16.19567"><ele>7.5</ele><time>2026-04-19T15:06:57.51Z</time></trkpt><trkpt lat="38.1637117" lon="16.1954383"><ele>9.0</ele><time>2026-04-19T15:06:58.51Z</time></trkpt><trkpt lat="38.1635583" lon="16.195195"><ele>9.0</ele><time>2026-04-19T15:06:59.51Z</time></trkpt><trkpt lat="38.1634083" lon="16.194935"><ele>9.0</ele><time>2026-04-19T15:07:00.51Z</time></trkpt><trkpt lat="38.1632667" lon="16.194685"><ele>8.5</ele><time>2026-04-19T15:07:01.511Z</time></trkpt><trkpt lat="38.1631333" lon="16.1944233"><ele>8.0</ele><time>2026-04-19T15:07:02.51Z</time></trkpt><trkpt lat="38.1629917" lon="16.1941717"><ele>8.5</ele><time>2026-04-19T15:07:03.51Z</time></trkpt><trkpt lat="38.1628483" lon="16.1939017"><ele>9.0</ele><time>2026-04-19T15:07:04.51Z</time></trkpt><trkpt lat="38.1627133" lon="16.19365"><ele>9.0</ele><time>2026-04-19T15:07:05.51Z</time></trkpt><trkpt lat="38.1625717" lon="16.19338"><ele>9.0</ele><time>2026-04-19T15:07:06.51Z</time></trkpt><trkpt lat="38.162435" lon="16.19312"><ele>9.0</ele><time>2026-04-19T15:07:07.51Z</time></trkpt><trkpt lat="38.1622983" lon="16.1928617"><ele>9.0</ele><time>2026-04-19T15:07:08.51Z</time></trkpt><trkpt lat="38.1621567" lon="16.1926067"><ele>9.0</ele><time>2026-04-19T15:07:09.51Z</time></trkpt><trkpt lat="38.16201" lon="16.1923433"><ele>9.0</ele><time>2026-04-19T15:07:10.51Z</time></trkpt><trkpt lat="38.1618683" lon="16.1920817"><ele>10.5</ele><time>2026-04-19T15:07:11.511Z</time></trkpt><trkpt lat="38.16173" lon="16.1918183"><ele>12.0</ele><time>2026-04-19T15:07:12.51Z</time></trkpt><trkpt lat="38.1616017" lon="16.19156"><ele>10.0</ele><time>2026-04-19T15:07:13.51Z</time></trkpt><trkpt lat="38.16147" lon="16.1913033"><ele>8.0</ele><time>2026-04-19T15:07:14.51Z</time></trkpt><trkpt lat="38.1613417" lon="16.191035"><ele>8.0</ele><time>2026-04-19T15:07:15.51Z</time></trkpt><trkpt lat="38.1612233" lon="16.1907583"><ele>8.0</ele><time>2026-04-19T15:07:16.51Z</time></trkpt><trkpt lat="38.16112" lon="16.190495"><ele>7.5</ele><time>2026-04-19T15:07:17.51Z</time></trkpt><trkpt lat="38.1610017" lon="16.1902233"><ele>7.0</ele><time>2026-04-19T15:07:18.51Z</time></trkpt><trkpt lat="38.1608883" lon="16.18995"><ele>7.5</ele><time>2026-04-19T15:07:19.51Z</time></trkpt><trkpt lat="38.1607717" lon="16.1896767"><ele>8.0</ele><time>2026-04-19T15:07:20.51Z</time></trkpt><trkpt lat="38.160655" lon="16.1894117"><ele>8.0</ele><time>2026-04-19T15:07:21.51Z</time></trkpt><trkpt lat="38.1605367" lon="16.1891383"><ele>8.0</ele><time>2026-04-19T15:07:22.51Z</time></trkpt><trkpt lat="38.160425" lon="16.18886"><ele>9.0</ele><time>2026-04-19T15:07:23.51Z</time></trkpt><trkpt lat="38.1603083" lon="16.1885817"><ele>10.0</ele><time>2026-04-19T15:07:24.51Z</time></trkpt><trkpt lat="38.1601933" lon="16.1883083"><ele>11.0</ele><time>2026-04-19T15:07:25.51Z</time></trkpt><trkpt lat="38.1600767" lon="16.18803"><ele>12.0</ele><time>2026-04-19T15:07:26.511Z</time></trkpt><trkpt lat="38.15995" lon="16.1877467"><ele>11.5</ele><time>2026-04-19T15:07:27.51Z</time></trkpt><trkpt lat="38.1598333" lon="16.1874683"><ele>11.0</ele><time>2026-04-19T15:07:28.51Z</time></trkpt><trkpt lat="38.159715" lon="16.1871817"><ele>11.0</ele><time>2026-04-19T15:07:29.51Z</time></trkpt><trkpt lat="38.1596033" lon="16.1869133"><ele>11.0</ele><time>2026-04-19T15:07:30.51Z</time></trkpt><trkpt lat="38.1594833" lon="16.1866417"><ele>12.0</ele><time>2026-04-19T15:07:31.51Z</time></trkpt><trkpt lat="38.1593667" lon="16.1863683"><ele>13.0</ele><time>2026-04-19T15:07:32.51Z</time></trkpt><trkpt lat="38.1592517" lon="16.1860933"><ele>13.0</ele><time>2026-04-19T15:07:33.51Z</time></trkpt><trkpt lat="38.15914" lon="16.1858117"><ele>13.0</ele><time>2026-04-19T15:07:34.511Z</time></trkpt><trkpt lat="38.159025" lon="16.1855383"><ele>14.0</ele><time>2026-04-19T15:07:35.511Z</time></trkpt><trkpt lat="38.1589117" lon="16.1852667"><ele>15.0</ele><time>2026-04-19T15:07:36.51Z</time></trkpt><trkpt lat="38.1587983" lon="16.1850017"><ele>15.5</ele><time>2026-04-19T15:07:37.51Z</time></trkpt><trkpt lat="38.1586817" lon="16.18473"><ele>16.0</ele><time>2026-04-19T15:07:38.51Z</time></trkpt><trkpt lat="38.15857" lon="16.184465"><ele>16.0</ele><time>2026-04-19T15:07:39.511Z</time></trkpt><trkpt lat="38.1584517" lon="16.1841967"><ele>16.0</ele><time>2026-04-19T15:07:40.51Z</time></trkpt><trkpt lat="38.1583317" lon="16.183925"><ele>17.0</ele><time>2026-04-19T15:07:41.51Z</time></trkpt><trkpt lat="38.1582167" lon="16.1836533"><ele>18.0</ele><time>2026-04-19T15:07:42.51Z</time></trkpt><trkpt lat="38.1581033" lon="16.1833883"><ele>19.0</ele><time>2026-04-19T15:07:43.51Z</time></trkpt><trkpt lat="38.1579867" lon="16.1831133"><ele>20.0</ele><time>2026-04-19T15:07:44.51Z</time></trkpt><trkpt lat="38.157875" lon="16.1828383"><ele>20.0</ele><time>2026-04-19T15:07:45.51Z</time></trkpt><trkpt lat="38.157755" lon="16.1825633"><ele>20.0</ele><time>2026-04-19T15:07:46.51Z</time></trkpt><trkpt lat="38.1576383" lon="16.1823017"><ele>22.5</ele><time>2026-04-19T15:07:47.51Z</time></trkpt><trkpt lat="38.1575267" lon="16.1820283"><ele>25.0</ele><time>2026-04-19T15:07:48.511Z</time></trkpt><trkpt lat="38.1574033" lon="16.1817633"><ele>24.5</ele><time>2026-04-19T15:07:49.51Z</time></trkpt><trkpt lat="38.157285" lon="16.1814933"><ele>24.0</ele><time>2026-04-19T15:07:50.511Z</time></trkpt><trkpt lat="38.1571567" lon="16.181225"><ele>24.0</ele><time>2026-04-19T15:07:51.51Z</time></trkpt><trkpt lat="38.157025" lon="16.1809483"><ele>24.0</ele><time>2026-04-19T15:07:52.51Z</time></trkpt><trkpt lat="38.1568783" lon="16.1806767"><ele>26.0</ele><time>2026-04-19T15:07:53.511Z</time></trkpt><trkpt lat="38.1567217" lon="16.1804283"><ele>28.0</ele><time>2026-04-19T15:07:54.511Z</time></trkpt><trkpt lat="38.1565717" lon="16.1801783"><ele>28.0</ele><time>2026-04-19T15:07:55.51Z</time></trkpt><trkpt lat="38.156425" lon="16.179935"><ele>28.0</ele><time>2026-04-19T15:07:56.51Z</time></trkpt><trkpt lat="38.1562783" lon="16.1796967"><ele>28.0</ele><time>2026-04-19T15:07:57.51Z</time></trkpt><trkpt lat="38.156135" lon="16.1794533"><ele>28.0</ele><time>2026-04-19T15:07:58.51Z</time></trkpt><trkpt lat="38.155995" lon="16.1792133"><ele>28.0</ele><time>2026-04-19T15:07:59.51Z</time></trkpt><trkpt lat="38.1558533" lon="16.17897"><ele>28.0</ele><time>2026-04-19T15:08:00.51Z</time></trkpt><trkpt lat="38.1557" lon="16.17872"><ele>27.5</ele><time>2026-04-19T15:08:01.51Z</time></trkpt><trkpt lat="38.1555283" lon="16.17846"><ele>27.0</ele><time>2026-04-19T15:08:02.51Z</time></trkpt><trkpt lat="38.1553533" lon="16.17817"><ele>27.0</ele><time>2026-04-19T15:08:03.51Z</time></trkpt><trkpt lat="38.1551683" lon="16.1778667"><ele>27.0</ele><time>2026-04-19T15:08:04.51Z</time></trkpt><trkpt lat="38.154975" lon="16.1775483"><ele>26.0</ele><time>2026-04-19T15:08:05.51Z</time></trkpt><trkpt lat="38.1547717" lon="16.1772117"><ele>25.0</ele><time>2026-04-19T15:08:06.51Z</time></trkpt><trkpt lat="38.15458" lon="16.1768783"><ele>25.0</ele><time>2026-04-19T15:08:07.51Z</time></trkpt><trkpt lat="38.15441" lon="16.1765517"><ele>25.0</ele><time>2026-04-19T15:08:08.511Z</time></trkpt><trkpt lat="38.1542633" lon="16.1762133"><ele>25.0</ele><time>2026-04-19T15:08:09.51Z</time></trkpt><trkpt lat="38.154135" lon="16.1758667"><ele>25.0</ele><time>2026-04-19T15:08:10.51Z</time></trkpt><trkpt lat="38.1540217" lon="16.175515"><ele>25.0</ele><time>2026-04-19T15:08:11.51Z</time></trkpt><trkpt lat="38.1539183" lon="16.1751783"><ele>25.0</ele><time>2026-04-19T15:08:12.51Z</time></trkpt><trkpt lat="38.153815" lon="16.1748567"><ele>26.0</ele><time>2026-04-19T15:08:13.511Z</time></trkpt><trkpt lat="38.153725" lon="16.1745617"><ele>27.0</ele><time>2026-04-19T15:08:14.511Z</time></trkpt><trkpt lat="38.1536317" lon="16.1742683"><ele>28.333333333333336</ele><time>2026-04-19T15:08:15.51Z</time></trkpt><trkpt lat="38.1535483" lon="16.174005"><ele>29.666666666666668</ele><time>2026-04-19T15:08:16.51Z</time></trkpt><trkpt lat="38.1534733" lon="16.1737417"><ele>31.0</ele><time>2026-04-19T15:08:17.51Z</time></trkpt><trkpt lat="38.1534017" lon="16.1734983"><ele>31.0</ele><time>2026-04-19T15:08:18.51Z</time></trkpt><trkpt lat="38.1533183" lon="16.1732333"><ele>31.0</ele><time>2026-04-19T15:08:19.51Z</time></trkpt><trkpt lat="38.1532383" lon="16.172985"><ele>31.0</ele><time>2026-04-19T15:08:20.51Z</time></trkpt><trkpt lat="38.153165" lon="16.1727367"><ele>30.333333333333336</ele><time>2026-04-19T15:08:21.51Z</time></trkpt><trkpt lat="38.1530733" lon="16.1724767"><ele>29.666666666666664</ele><time>2026-04-19T15:08:22.511Z</time></trkpt><trkpt lat="38.15299" lon="16.1722417"><ele>29.0</ele><time>2026-04-19T15:08:23.511Z</time></trkpt><trkpt lat="38.1529133" lon="16.1720133"><ele>30.333333333333332</ele><time>2026-04-19T15:08:24.511Z</time></trkpt><trkpt lat="38.152835" lon="16.1717833"><ele>31.666666666666664</ele><time>2026-04-19T15:08:25.51Z</time></trkpt><trkpt lat="38.1527533" lon="16.1715567"><ele>33.0</ele><time>2026-04-19T15:08:26.511Z</time></trkpt><trkpt lat="38.1526567" lon="16.171335"><ele>33.333333333333336</ele><time>2026-04-19T15:08:27.511Z</time></trkpt><trkpt lat="38.1525583" lon="16.1711233"><ele>33.66666666666667</ele><time>2026-04-19T15:08:28.51Z</time></trkpt><trkpt lat="38.15244" lon="16.1709167"><ele>34.0</ele><time>2026-04-19T15:08:29.51Z</time></trkpt><trkpt lat="38.1523167" lon="16.1707267"><ele>32.333333333333336</ele><time>2026-04-19T15:08:30.511Z</time></trkpt><trkpt lat="38.15219" lon="16.1705417"><ele>30.666666666666664</ele><time>2026-04-19T15:08:31.51Z</time></trkpt><trkpt lat="38.1520633" lon="16.1703717"><ele>29.0</ele><time>2026-04-19T15:08:32.51Z</time></trkpt><trkpt lat="38.1519333" lon="16.1702133"><ele>29.0</ele><time>2026-04-19T15:08:33.51Z</time></trkpt><trkpt lat="38.1518067" lon="16.1700783"><ele>29.0</ele><time>2026-04-19T15:08:34.51Z</time></trkpt><trkpt lat="38.151685" lon="16.1699467"><ele>29.0</ele><time>2026-04-19T15:08:35.51Z</time></trkpt><trkpt lat="38.151525" lon="16.16979"><ele>26.666666666666664</ele><time>2026-04-19T15:08:36.51Z</time></trkpt><trkpt lat="38.1513667" lon="16.16961"><ele>24.333333333333332</ele><time>2026-04-19T15:08:37.51Z</time></trkpt><trkpt lat="38.1512117" lon="16.169445"><ele>22.0</ele><time>2026-04-19T15:08:38.51Z</time></trkpt><trkpt lat="38.15106" lon="16.1692767"><ele>22.0</ele><time>2026-04-19T15:08:39.51Z</time></trkpt><trkpt lat="38.1509117" lon="16.16912"><ele>22.0</ele><time>2026-04-19T15:08:40.511Z</time></trkpt><trkpt lat="38.1507517" lon="16.1689667"><ele>22.0</ele><time>2026-04-19T15:08:41.51Z</time></trkpt><trkpt lat="38.1505967" lon="16.1688167"><ele>21.666666666666664</ele><time>2026-04-19T15:08:42.51Z</time></trkpt><trkpt lat="38.1504383" lon="16.168665"><ele>21.333333333333332</ele><time>2026-04-19T15:08:43.51Z</time></trkpt><trkpt lat="38.1502833" lon="16.1685183"><ele>21.0</ele><time>2026-04-19T15:08:44.511Z</time></trkpt><trkpt lat="38.1501283" lon="16.1683817"><ele>21.0</ele><time>2026-04-19T15:08:45.51Z</time></trkpt><trkpt lat="38.149955" lon="16.168275"><ele>21.0</ele><time>2026-04-19T15:08:46.511Z</time></trkpt><trkpt lat="38.1497767" lon="16.1681817"><ele>21.0</ele><time>2026-04-19T15:08:47.51Z</time></trkpt><trkpt lat="38.1495933" lon="16.1681067"><ele>21.0</ele><time>2026-04-19T15:08:48.51Z</time></trkpt><trkpt lat="38.1494067" lon="16.1680617"><ele>21.0</ele><time>2026-04-19T15:08:49.511Z</time></trkpt><trkpt lat="38.14922" lon="16.1680267"><ele>21.0</ele><time>2026-04-19T15:08:50.51Z</time></trkpt><trkpt lat="38.1490117" lon="16.168015"><ele>20.0</ele><time>2026-04-19T15:08:51.51Z</time></trkpt><trkpt lat="38.14881" lon="16.1680117"><ele>19.0</ele><time>2026-04-19T15:08:52.51Z</time></trkpt><trkpt lat="38.1486117" lon="16.16801"><ele>18.0</ele><time>2026-04-19T15:08:53.511Z</time></trkpt><trkpt lat="38.1484133" lon="16.16802"><ele>18.0</ele><time>2026-04-19T15:08:54.51Z</time></trkpt><trkpt lat="38.148215" lon="16.1680367"><ele>18.0</ele><time>2026-04-19T15:08:55.51Z</time></trkpt><trkpt lat="38.1480133" lon="16.1680433"><ele>18.0</ele><time>2026-04-19T15:08:56.511Z</time></trkpt><trkpt lat="38.14782" lon="16.16805"><ele>18.333333333333332</ele><time>2026-04-19T15:08:57.511Z</time></trkpt><trkpt lat="38.1476267" lon="16.1680483"><ele>18.666666666666664</ele><time>2026-04-19T15:08:58.51Z</time></trkpt><trkpt lat="38.1474283" lon="16.1680467"><ele>19.0</ele><time>2026-04-19T15:08:59.51Z</time></trkpt><trkpt lat="38.1472333" lon="16.1680433"><ele>19.0</ele><time>2026-04-19T15:09:00.51Z</time></trkpt><trkpt lat="38.147045" lon="16.168045"><ele>19.0</ele><time>2026-04-19T15:09:01.51Z</time></trkpt><trkpt lat="38.1468517" lon="16.16805"><ele>19.0</ele><time>2026-04-19T15:09:02.51Z</time></trkpt><trkpt lat="38.1466633" lon="16.1680517"><ele>18.333333333333332</ele><time>2026-04-19T15:09:03.51Z</time></trkpt><trkpt lat="38.1464783" lon="16.16804"><ele>17.666666666666668</ele><time>2026-04-19T15:09:04.511Z</time></trkpt><trkpt lat="38.146295" lon="16.168035"><ele>17.0</ele><time>2026-04-19T15:09:05.511Z</time></trkpt><trkpt lat="38.1461" lon="16.16804"><ele>17.0</ele><time>2026-04-19T15:09:06.51Z</time></trkpt><trkpt lat="38.1459117" lon="16.1680483"><ele>17.0</ele><time>2026-04-19T15:09:07.51Z</time></trkpt><trkpt lat="38.1457183" lon="16.1680467"><ele>17.0</ele><time>2026-04-19T15:09:08.51Z</time></trkpt><trkpt lat="38.1455333" lon="16.168045"><ele>15.666666666666668</ele><time>2026-04-19T15:09:09.51Z</time></trkpt><trkpt lat="38.1453483" lon="16.1680367"><ele>14.333333333333332</ele><time>2026-04-19T15:09:10.51Z</time></trkpt><trkpt lat="38.1451633" lon="16.1680367"><ele>13.0</ele><time>2026-04-19T15:09:11.51Z</time></trkpt><trkpt lat="38.14498" lon="16.1680133"><ele>12.0</ele><time>2026-04-19T15:09:12.51Z</time></trkpt><trkpt lat="38.144805" lon="16.1679883"><ele>11.0</ele><time>2026-04-19T15:09:13.51Z</time></trkpt><trkpt lat="38.1446367" lon="16.16794"><ele>10.0</ele><time>2026-04-19T15:09:14.51Z</time></trkpt><trkpt lat="38.14447" lon="16.167875"><ele>10.0</ele><time>2026-04-19T15:09:15.51Z</time></trkpt><trkpt lat="38.14431" lon="16.1677933"><ele>10.0</ele><time>2026-04-19T15:09:16.51Z</time></trkpt><trkpt lat="38.1441517" lon="16.1676933"><ele>10.0</ele><time>2026-04-19T15:09:17.51Z</time></trkpt><trkpt lat="38.1440033" lon="16.167585"><ele>10.0</ele><time>2026-04-19T15:09:18.51Z</time></trkpt><trkpt lat="38.1438533" lon="16.1674767"><ele>10.0</ele><time>2026-04-19T15:09:19.51Z</time></trkpt><trkpt lat="38.1437167" lon="16.16737"><ele>10.0</ele><time>2026-04-19T15:09:20.51Z</time></trkpt><trkpt lat="38.1435833" lon="16.1672733"><ele>10.0</ele><time>2026-04-19T15:09:21.51Z</time></trkpt><trkpt lat="38.1434583" lon="16.16717"><ele>10.0</ele><time>2026-04-19T15:09:22.51Z</time></trkpt><trkpt lat="38.1433283" lon="16.1670683"><ele>10.0</ele><time>2026-04-19T15:09:23.51Z</time></trkpt><trkpt lat="38.1431917" lon="16.1669717"><ele>9.666666666666668</ele><time>2026-04-19T15:09:24.51Z</time></trkpt><trkpt lat="38.143055" lon="16.166865"><ele>9.333333333333334</ele><time>2026-04-19T15:09:25.51Z</time></trkpt><trkpt lat="38.1429167" lon="16.16676"><ele>9.0</ele><time>2026-04-19T15:09:26.51Z</time></trkpt><trkpt lat="38.1427817" lon="16.1666517"><ele>9.0</ele><time>2026-04-19T15:09:27.51Z</time></trkpt><trkpt lat="38.1426333" lon="16.1665433"><ele>9.0</ele><time>2026-04-19T15:09:28.511Z</time></trkpt><trkpt lat="38.14249" lon="16.1664283"><ele>9.0</ele><time>2026-04-19T15:09:29.51Z</time></trkpt><trkpt lat="38.1423417" lon="16.1663317"><ele>9.0</ele><time>2026-04-19T15:09:30.51Z</time></trkpt><trkpt lat="38.1421917" lon="16.1662467"><ele>9.0</ele><time>2026-04-19T15:09:31.51Z</time></trkpt><trkpt lat="38.142055" lon="16.1661467"><ele>9.0</ele><time>2026-04-19T15:09:32.51Z</time></trkpt><trkpt lat="38.1419233" lon="16.1660483"><ele>9.0</ele><time>2026-04-19T15:09:33.51Z</time></trkpt><trkpt lat="38.1417917" lon="16.1659483"><ele>9.0</ele><time>2026-04-19T15:09:34.51Z</time></trkpt><trkpt lat="38.14166" lon="16.1658567"><ele>9.0</ele><time>2026-04-19T15:09:35.51Z</time></trkpt><trkpt lat="38.1415217" lon="16.1657733"><ele>8.5</ele><time>2026-04-19T15:09:36.51Z</time></trkpt><trkpt lat="38.141385" lon="16.1657017"><ele>8.0</ele><time>2026-04-19T15:09:37.51Z</time></trkpt><trkpt lat="38.1412483" lon="16.1656367"><ele>7.5</ele><time>2026-04-19T15:09:38.51Z</time></trkpt><trkpt lat="38.1410983" lon="16.1656117"><ele>7.0</ele><time>2026-04-19T15:09:39.51Z</time></trkpt><trkpt lat="38.1409583" lon="16.1655783"><ele>7.0</ele><time>2026-04-19T15:09:40.51Z</time></trkpt><trkpt lat="38.1408117" lon="16.16554"><ele>7.0</ele><time>2026-04-19T15:09:41.511Z</time></trkpt><trkpt lat="38.140655" lon="16.1655117"><ele>7.0</ele><time>2026-04-19T15:09:42.511Z</time></trkpt><trkpt lat="38.1405033" lon="16.1654917"><ele>8.0</ele><time>2026-04-19T15:09:43.51Z</time></trkpt><trkpt lat="38.1403467" lon="16.1655017"><ele>9.0</ele><time>2026-04-19T15:09:44.511Z</time></trkpt><trkpt lat="38.1401933" lon="16.1655"><ele>10.0</ele><time>2026-04-19T15:09:45.51Z</time></trkpt><trkpt lat="38.1400367" lon="16.1655117"><ele>10.0</ele><time>2026-04-19T15:09:46.51Z</time></trkpt><trkpt lat="38.139885" lon="16.1655167"><ele>10.0</ele><time>2026-04-19T15:09:47.51Z</time></trkpt><trkpt lat="38.1397367" lon="16.165525"><ele>10.0</ele><time>2026-04-19T15:09:48.51Z</time></trkpt><trkpt lat="38.139585" lon="16.1655333"><ele>9.0</ele><time>2026-04-19T15:09:49.51Z</time></trkpt><trkpt lat="38.1394383" lon="16.16554"><ele>8.0</ele><time>2026-04-19T15:09:50.51Z</time></trkpt><trkpt lat="38.1392917" lon="16.1655433"><ele>7.0</ele><time>2026-04-19T15:09:51.51Z</time></trkpt><trkpt lat="38.139145" lon="16.1655417"><ele>6.0</ele><time>2026-04-19T15:09:52.51Z</time></trkpt><trkpt lat="38.1390017" lon="16.1655333"><ele>6.0</ele><time>2026-04-19T15:09:53.51Z</time></trkpt><trkpt lat="38.1388617" lon="16.1655317"><ele>6.0</ele><time>2026-04-19T15:09:54.51Z</time></trkpt><trkpt lat="38.138725" lon="16.1655367"><ele>6.0</ele><time>2026-04-19T15:09:55.51Z</time></trkpt><trkpt lat="38.13858" lon="16.1655333"><ele>6.0</ele><time>2026-04-19T15:09:56.511Z</time></trkpt><trkpt lat="38.13843" lon="16.1655217"><ele>6.0</ele><time>2026-04-19T15:09:57.51Z</time></trkpt><trkpt lat="38.1382783" lon="16.1654933"><ele>6.0</ele><time>2026-04-19T15:09:58.51Z</time></trkpt><trkpt lat="38.1381317" lon="16.16544"><ele>6.0</ele><time>2026-04-19T15:09:59.51Z</time></trkpt><trkpt lat="38.1379917" lon="16.1653717"><ele>5.333333333333333</ele><time>2026-04-19T15:10:00.511Z</time></trkpt><trkpt lat="38.1378583" lon="16.165295"><ele>4.666666666666666</ele><time>2026-04-19T15:10:01.511Z</time></trkpt><trkpt lat="38.1377267" lon="16.165205"><ele>4.0</ele><time>2026-04-19T15:10:02.51Z</time></trkpt><trkpt lat="38.137595" lon="16.1651033"><ele>4.0</ele><time>2026-04-19T15:10:03.51Z</time></trkpt><trkpt lat="38.137465" lon="16.1650033"><ele>4.0</ele><time>2026-04-19T15:10:04.511Z</time></trkpt><trkpt lat="38.13734" lon="16.164895"><ele>4.0</ele><time>2026-04-19T15:10:05.51Z</time></trkpt><trkpt lat="38.1372083" lon="16.1647867"><ele>3.6666666666666665</ele><time>2026-04-19T15:10:06.51Z</time></trkpt><trkpt lat="38.1370717" lon="16.16468"><ele>3.333333333333333</ele><time>2026-04-19T15:10:07.51Z</time></trkpt><trkpt lat="38.1369283" lon="16.16459"><ele>3.0</ele><time>2026-04-19T15:10:08.511Z</time></trkpt><trkpt lat="38.1367867" lon="16.16449"><ele>3.0</ele><time>2026-04-19T15:10:09.51Z</time></trkpt><trkpt lat="38.136645" lon="16.164395"><ele>3.0</ele><time>2026-04-19T15:10:10.51Z</time></trkpt><trkpt lat="38.1365117" lon="16.1643033"><ele>3.0</ele><time>2026-04-19T15:10:11.51Z</time></trkpt><trkpt lat="38.1363717" lon="16.1642167"><ele>3.666666666666667</ele><time>2026-04-19T15:10:12.511Z</time></trkpt><trkpt lat="38.13623" lon="16.1641233"><ele>4.333333333333334</ele><time>2026-04-19T15:10:13.51Z</time></trkpt><trkpt lat="38.1360967" lon="16.1640217"><ele>5.0</ele><time>2026-04-19T15:10:14.51Z</time></trkpt><trkpt lat="38.1359633" lon="16.163925"><ele>5.0</ele><time>2026-04-19T15:10:15.51Z</time></trkpt><trkpt lat="38.135825" lon="16.1638267"><ele>5.0</ele><time>2026-04-19T15:10:16.51Z</time></trkpt><trkpt lat="38.1356883" lon="16.163725"><ele>5.0</ele><time>2026-04-19T15:10:17.51Z</time></trkpt><trkpt lat="38.1355483" lon="16.1636267"><ele>5.666666666666667</ele><time>2026-04-19T15:10:18.511Z</time></trkpt><trkpt lat="38.1354017" lon="16.1635267"><ele>6.333333333333334</ele><time>2026-04-19T15:10:19.51Z</time></trkpt><trkpt lat="38.1352617" lon="16.16343"><ele>7.0</ele><time>2026-04-19T15:10:20.51Z</time></trkpt><trkpt lat="38.1351233" lon="16.1633317"><ele>7.0</ele><time>2026-04-19T15:10:21.51Z</time></trkpt><trkpt lat="38.134985" lon="16.16323"><ele>7.0</ele><time>2026-04-19T15:10:22.511Z</time></trkpt><trkpt lat="38.1348483" lon="16.16313"><ele>7.0</ele><time>2026-04-19T15:10:23.51Z</time></trkpt><trkpt lat="38.1347117" lon="16.1630283"><ele>7.666666666666667</ele><time>2026-04-19T15:10:24.51Z</time></trkpt><trkpt lat="38.1345767" lon="16.1629283"><ele>8.333333333333334</ele><time>2026-04-19T15:10:25.51Z</time></trkpt><trkpt lat="38.13444" lon="16.16284"><ele>9.0</ele><time>2026-04-19T15:10:26.51Z</time></trkpt><trkpt lat="38.1343017" lon="16.1627433"><ele>9.0</ele><time>2026-04-19T15:10:27.511Z</time></trkpt><trkpt lat="38.1341617" lon="16.16266"><ele>9.0</ele><time>2026-04-19T15:10:28.511Z</time></trkpt><trkpt lat="38.134025" lon="16.1625633"><ele>9.0</ele><time>2026-04-19T15:10:29.51Z</time></trkpt><trkpt lat="38.1338883" lon="16.1624517"><ele>9.666666666666666</ele><time>2026-04-19T15:10:30.51Z</time></trkpt><trkpt lat="38.1337483" lon="16.1623533"><ele>10.333333333333332</ele><time>2026-04-19T15:10:31.51Z</time></trkpt><trkpt lat="38.133615" lon="16.1622467"><ele>11.0</ele><time>2026-04-19T15:10:32.51Z</time></trkpt><trkpt lat="38.1334783" lon="16.1621367"><ele>11.0</ele><time>2026-04-19T15:10:33.511Z</time></trkpt><trkpt lat="38.1333467" lon="16.1620333"><ele>11.0</ele><time>2026-04-19T15:10:34.51Z</time></trkpt><trkpt lat="38.133225" lon="16.1619367"><ele>11.0</ele><time>2026-04-19T15:10:35.51Z</time></trkpt><trkpt lat="38.1331267" lon="16.1618533"><ele>11.0</ele><time>2026-04-19T15:10:36.511Z</time></trkpt><trkpt lat="38.13304" lon="16.1617833"><ele>10.8</ele><time>2026-04-19T15:10:37.51Z</time></trkpt><trkpt lat="38.1329633" lon="16.16173"><ele>10.600000000000001</ele><time>2026-04-19T15:10:38.51Z</time></trkpt><trkpt lat="38.1328717" lon="16.161665"><ele>10.4</ele><time>2026-04-19T15:10:39.51Z</time></trkpt><trkpt lat="38.1327767" lon="16.161595"><ele>10.2</ele><time>2026-04-19T15:10:40.51Z</time></trkpt><trkpt lat="38.1326733" lon="16.16151"><ele>10.0</ele><time>2026-04-19T15:10:41.51Z</time></trkpt><trkpt lat="38.1325617" lon="16.1614083"><ele>9.666666666666668</ele><time>2026-04-19T15:10:42.511Z</time></trkpt><trkpt lat="38.1324433" lon="16.1612983"><ele>9.333333333333334</ele><time>2026-04-19T15:10:43.51Z</time></trkpt><trkpt lat="38.13231" lon="16.1611917"><ele>9.0</ele><time>2026-04-19T15:10:44.511Z</time></trkpt><trkpt lat="38.1321717" lon="16.1610783"><ele>9.0</ele><time>2026-04-19T15:10:45.51Z</time></trkpt><trkpt lat="38.13203" lon="16.1609583"><ele>9.0</ele><time>2026-04-19T15:10:46.51Z</time></trkpt><trkpt lat="38.1318767" lon="16.16084"><ele>9.0</ele><time>2026-04-19T15:10:47.511Z</time></trkpt><trkpt lat="38.13172" lon="16.1607317"><ele>8.666666666666666</ele><time>2026-04-19T15:10:48.51Z</time></trkpt><trkpt lat="38.1315633" lon="16.16062"><ele>8.333333333333332</ele><time>2026-04-19T15:10:49.51Z</time></trkpt><trkpt lat="38.13139" lon="16.1605267"><ele>8.0</ele><time>2026-04-19T15:10:50.51Z</time></trkpt><trkpt lat="38.1312133" lon="16.160435"><ele>8.0</ele><time>2026-04-19T15:10:51.51Z</time></trkpt><trkpt lat="38.13103" lon="16.16034"><ele>8.0</ele><time>2026-04-19T15:10:52.51Z</time></trkpt><trkpt lat="38.130845" lon="16.16025"><ele>8.0</ele><time>2026-04-19T15:10:53.51Z</time></trkpt><trkpt lat="38.1306633" lon="16.1601617"><ele>8.333333333333332</ele><time>2026-04-19T15:10:54.51Z</time></trkpt><trkpt lat="38.1304717" lon="16.1600783"><ele>8.666666666666666</ele><time>2026-04-19T15:10:55.51Z</time></trkpt><trkpt lat="38.1302883" lon="16.1599967"><ele>9.0</ele><time>2026-04-19T15:10:56.511Z</time></trkpt><trkpt lat="38.1300983" lon="16.159915"><ele>8.0</ele><time>2026-04-19T15:10:57.51Z</time></trkpt><trkpt lat="38.12991" lon="16.159845"><ele>7.0</ele><time>2026-04-19T15:10:58.51Z</time></trkpt><trkpt lat="38.129725" lon="16.1597717"><ele>6.0</ele><time>2026-04-19T15:10:59.511Z</time></trkpt><trkpt lat="38.1295283" lon="16.1597133"><ele>6.0</ele><time>2026-04-19T15:11:00.51Z</time></trkpt><trkpt lat="38.12934" lon="16.1596383"><ele>6.0</ele><time>2026-04-19T15:11:01.51Z</time></trkpt><trkpt lat="38.12915" lon="16.1595767"><ele>6.0</ele><time>2026-04-19T15:11:02.51Z</time></trkpt><trkpt lat="38.1289583" lon="16.1595133"><ele>6.333333333333334</ele><time>2026-04-19T15:11:03.51Z</time></trkpt><trkpt lat="38.12877" lon="16.1594617"><ele>6.666666666666667</ele><time>2026-04-19T15:11:04.51Z</time></trkpt><trkpt lat="38.12858" lon="16.159425"><ele>7.0</ele><time>2026-04-19T15:11:05.511Z</time></trkpt><trkpt lat="38.12838" lon="16.1594033"><ele>6.333333333333334</ele><time>2026-04-19T15:11:06.51Z</time></trkpt><trkpt lat="38.128185" lon="16.159385"><ele>5.666666666666667</ele><time>2026-04-19T15:11:07.511Z</time></trkpt><trkpt lat="38.1279883" lon="16.159375"><ele>5.0</ele><time>2026-04-19T15:11:08.511Z</time></trkpt><trkpt lat="38.1277917" lon="16.1593683"><ele>5.0</ele><time>2026-04-19T15:11:09.511Z</time></trkpt><trkpt lat="38.1276017" lon="16.1593633"><ele>5.0</ele><time>2026-04-19T15:11:10.51Z</time></trkpt><trkpt lat="38.1274017" lon="16.1593483"><ele>5.0</ele><time>2026-04-19T15:11:11.51Z</time></trkpt><trkpt lat="38.1272083" lon="16.15933"><ele>6.0</ele><time>2026-04-19T15:11:12.511Z</time></trkpt><trkpt lat="38.1270083" lon="16.1593133"><ele>7.0</ele><time>2026-04-19T15:11:13.51Z</time></trkpt><trkpt lat="38.12681" lon="16.1592917"><ele>8.0</ele><time>2026-04-19T15:11:14.511Z</time></trkpt><trkpt lat="38.1266067" lon="16.1592833"><ele>7.333333333333333</ele><time>2026-04-19T15:11:15.511Z</time></trkpt><trkpt lat="38.126405" lon="16.1592817"><ele>6.666666666666666</ele><time>2026-04-19T15:11:16.51Z</time></trkpt><trkpt lat="38.1262" lon="16.1592917"><ele>6.0</ele><time>2026-04-19T15:11:17.51Z</time></trkpt><trkpt lat="38.1259967" lon="16.159315"><ele>6.0</ele><time>2026-04-19T15:11:18.511Z</time></trkpt><trkpt lat="38.1257967" lon="16.1593467"><ele>6.0</ele><time>2026-04-19T15:11:19.51Z</time></trkpt><trkpt lat="38.1255917" lon="16.1593683"><ele>6.0</ele><time>2026-04-19T15:11:20.51Z</time></trkpt><trkpt lat="38.1253767" lon="16.159385"><ele>6.333333333333334</ele><time>2026-04-19T15:11:21.51Z</time></trkpt><trkpt lat="38.1251717" lon="16.1594"><ele>6.666666666666667</ele><time>2026-04-19T15:11:22.51Z</time></trkpt><trkpt lat="38.1249683" lon="16.1594217"><ele>7.0</ele><time>2026-04-19T15:11:23.51Z</time></trkpt><trkpt lat="38.1247667" lon="16.159445"><ele>7.0</ele><time>2026-04-19T15:11:24.511Z</time></trkpt><trkpt lat="38.1245617" lon="16.159445"><ele>7.0</ele><time>2026-04-19T15:11:25.51Z</time></trkpt><trkpt lat="38.1243517" lon="16.1594317"><ele>7.0</ele><time>2026-04-19T15:11:26.511Z</time></trkpt><trkpt lat="38.1241483" lon="16.1594067"><ele>6.666666666666667</ele><time>2026-04-19T15:11:27.511Z</time></trkpt><trkpt lat="38.123945" lon="16.15938"><ele>6.333333333333334</ele><time>2026-04-19T15:11:28.51Z</time></trkpt><trkpt lat="38.1237433" lon="16.159355"><ele>6.0</ele><time>2026-04-19T15:11:29.51Z</time></trkpt><trkpt lat="38.12354" lon="16.1593267"><ele>6.0</ele><time>2026-04-19T15:11:30.51Z</time></trkpt><trkpt lat="38.1233367" lon="16.1592983"><ele>6.0</ele><time>2026-04-19T15:11:31.51Z</time></trkpt><trkpt lat="38.1231283" lon="16.1592733"><ele>6.0</ele><time>2026-04-19T15:11:32.51Z</time></trkpt><trkpt lat="38.1229233" lon="16.159245"><ele>6.666666666666666</ele><time>2026-04-19T15:11:33.51Z</time></trkpt><trkpt lat="38.1227233" lon="16.1592183"><ele>7.333333333333333</ele><time>2026-04-19T15:11:34.51Z</time></trkpt><trkpt lat="38.12252" lon="16.1591833"><ele>8.0</ele><time>2026-04-19T15:11:35.51Z</time></trkpt><trkpt lat="38.1223333" lon="16.159145"><ele>8.333333333333332</ele><time>2026-04-19T15:11:36.511Z</time></trkpt><trkpt lat="38.12215" lon="16.1591267"><ele>8.666666666666666</ele><time>2026-04-19T15:11:37.51Z</time></trkpt><trkpt lat="38.1219683" lon="16.1591067"><ele>9.0</ele><time>2026-04-19T15:11:38.51Z</time></trkpt><trkpt lat="38.12179" lon="16.1590917"><ele>9.0</ele><time>2026-04-19T15:11:39.51Z</time></trkpt><trkpt lat="38.121605" lon="16.1590733"><ele>9.0</ele><time>2026-04-19T15:11:40.51Z</time></trkpt><trkpt lat="38.1214183" lon="16.1590383"><ele>9.0</ele><time>2026-04-19T15:11:41.511Z</time></trkpt><trkpt lat="38.12123" lon="16.1590083"><ele>10.333333333333332</ele><time>2026-04-19T15:11:42.51Z</time></trkpt><trkpt lat="38.1210333" lon="16.15898"><ele>11.666666666666666</ele><time>2026-04-19T15:11:43.51Z</time></trkpt><trkpt lat="38.1208333" lon="16.15894"><ele>13.0</ele><time>2026-04-19T15:11:44.51Z</time></trkpt><trkpt lat="38.1206267" lon="16.1589183"><ele>13.666666666666666</ele><time>2026-04-19T15:11:45.51Z</time></trkpt><trkpt lat="38.120425" lon="16.1589"><ele>14.333333333333332</ele><time>2026-04-19T15:11:46.51Z</time></trkpt><trkpt lat="38.120215" lon="16.158865"><ele>15.0</ele><time>2026-04-19T15:11:47.511Z</time></trkpt><trkpt lat="38.1200033" lon="16.15883"><ele>14.0</ele><time>2026-04-19T15:11:48.51Z</time></trkpt><trkpt lat="38.1197867" lon="16.1587917"><ele>13.0</ele><time>2026-04-19T15:11:49.51Z</time></trkpt><trkpt lat="38.119575" lon="16.15875"><ele>12.0</ele><time>2026-04-19T15:11:50.51Z</time></trkpt><trkpt lat="38.1193583" lon="16.158715"><ele>12.0</ele><time>2026-04-19T15:11:51.511Z</time></trkpt><trkpt lat="38.1191367" lon="16.1586817"><ele>12.0</ele><time>2026-04-19T15:11:52.511Z</time></trkpt><trkpt lat="38.1189183" lon="16.1586583"><ele>12.0</ele><time>2026-04-19T15:11:53.51Z</time></trkpt><trkpt lat="38.118695" lon="16.158635"><ele>11.0</ele><time>2026-04-19T15:11:54.511Z</time></trkpt><trkpt lat="38.118465" lon="16.1586167"><ele>10.0</ele><time>2026-04-19T15:11:55.511Z</time></trkpt><trkpt lat="38.1182367" lon="16.15859"><ele>9.333333333333334</ele><time>2026-04-19T15:11:56.51Z</time></trkpt><trkpt lat="38.1180183" lon="16.1585633"><ele>8.666666666666666</ele><time>2026-04-19T15:11:57.51Z</time></trkpt><trkpt lat="38.1177983" lon="16.1585433"><ele>8.0</ele><time>2026-04-19T15:11:58.511Z</time></trkpt><trkpt lat="38.1175833" lon="16.1585217"><ele>8.0</ele><time>2026-04-19T15:11:59.511Z</time></trkpt><trkpt lat="38.1173617" lon="16.158495"><ele>8.0</ele><time>2026-04-19T15:12:00.51Z</time></trkpt><trkpt lat="38.11714" lon="16.1584767"><ele>8.0</ele><time>2026-04-19T15:12:01.511Z</time></trkpt><trkpt lat="38.1169233" lon="16.15844"><ele>8.0</ele><time>2026-04-19T15:12:02.51Z</time></trkpt><trkpt lat="38.1167067" lon="16.1584133"><ele>8.0</ele><time>2026-04-19T15:12:03.51Z</time></trkpt><trkpt lat="38.1164917" lon="16.158385"><ele>8.0</ele><time>2026-04-19T15:12:04.511Z</time></trkpt><trkpt lat="38.1162783" lon="16.1583533"><ele>7.666666666666666</ele><time>2026-04-19T15:12:05.511Z</time></trkpt><trkpt lat="38.1160617" lon="16.1583217"><ele>7.333333333333334</ele><time>2026-04-19T15:12:06.51Z</time></trkpt><trkpt lat="38.1158517" lon="16.1582867"><ele>7.0</ele><time>2026-04-19T15:12:07.511Z</time></trkpt><trkpt lat="38.1156417" lon="16.1582567"><ele>7.0</ele><time>2026-04-19T15:12:08.51Z</time></trkpt><trkpt lat="38.1154317" lon="16.1582267"><ele>7.0</ele><time>2026-04-19T15:12:09.51Z</time></trkpt><trkpt lat="38.1152267" lon="16.1582"><ele>7.0</ele><time>2026-04-19T15:12:10.51Z</time></trkpt><trkpt lat="38.11502" lon="16.1581717"><ele>7.333333333333334</ele><time>2026-04-19T15:12:11.51Z</time></trkpt><trkpt lat="38.1148167" lon="16.15815"><ele>7.666666666666666</ele><time>2026-04-19T15:12:12.51Z</time></trkpt><trkpt lat="38.11461" lon="16.1581267"><ele>8.0</ele><time>2026-04-19T15:12:13.51Z</time></trkpt><trkpt lat="38.1143983" lon="16.1581033"><ele>8.0</ele><time>2026-04-19T15:12:14.51Z</time></trkpt><trkpt lat="38.1141867" lon="16.158075"><ele>8.0</ele><time>2026-04-19T15:12:15.511Z</time></trkpt><trkpt lat="38.1139783" lon="16.158055"><ele>8.0</ele><time>2026-04-19T15:12:16.51Z</time></trkpt><trkpt lat="38.113775" lon="16.1580217"><ele>7.666666666666666</ele><time>2026-04-19T15:12:17.51Z</time></trkpt><trkpt lat="38.11357" lon="16.15799"><ele>7.333333333333334</ele><time>2026-04-19T15:12:18.51Z</time></trkpt><trkpt lat="38.11337" lon="16.1579633"><ele>7.0</ele><time>2026-04-19T15:12:19.51Z</time></trkpt><trkpt lat="38.1131667" lon="16.15794"><ele>7.0</ele><time>2026-04-19T15:12:20.511Z</time></trkpt><trkpt lat="38.11296" lon="16.157915"><ele>7.0</ele><time>2026-04-19T15:12:21.51Z</time></trkpt><trkpt lat="38.1127567" lon="16.1578933"><ele>7.0</ele><time>2026-04-19T15:12:22.51Z</time></trkpt><trkpt lat="38.1125483" lon="16.1578667"><ele>7.333333333333334</ele><time>2026-04-19T15:12:23.51Z</time></trkpt><trkpt lat="38.11234" lon="16.157845"><ele>7.666666666666666</ele><time>2026-04-19T15:12:24.511Z</time></trkpt><trkpt lat="38.1121333" lon="16.15782"><ele>8.0</ele><time>2026-04-19T15:12:25.51Z</time></trkpt><trkpt lat="38.1119183" lon="16.157795"><ele>8.0</ele><time>2026-04-19T15:12:26.51Z</time></trkpt><trkpt lat="38.1117067" lon="16.1577533"><ele>8.0</ele><time>2026-04-19T15:12:27.511Z</time></trkpt><trkpt lat="38.111505" lon="16.1577233"><ele>8.0</ele><time>2026-04-19T15:12:28.511Z</time></trkpt><trkpt lat="38.11129" lon="16.1577"><ele>8.0</ele><time>2026-04-19T15:12:29.51Z</time></trkpt><trkpt lat="38.1110683" lon="16.15767"><ele>8.0</ele><time>2026-04-19T15:12:30.511Z</time></trkpt><trkpt lat="38.1108467" lon="16.1576433"><ele>8.0</ele><time>2026-04-19T15:12:31.51Z</time></trkpt><trkpt lat="38.110625" lon="16.1576067"><ele>8.0</ele><time>2026-04-19T15:12:32.51Z</time></trkpt><trkpt lat="38.1103967" lon="16.1575783"><ele>8.0</ele><time>2026-04-19T15:12:33.51Z</time></trkpt><trkpt lat="38.110165" lon="16.1575467"><ele>8.0</ele><time>2026-04-19T15:12:34.511Z</time></trkpt><trkpt lat="38.109935" lon="16.1575133"><ele>8.0</ele><time>2026-04-19T15:12:35.512Z</time></trkpt><trkpt lat="38.1097067" lon="16.1574783"><ele>8.666666666666666</ele><time>2026-04-19T15:12:36.511Z</time></trkpt><trkpt lat="38.1094833" lon="16.1574517"><ele>9.333333333333334</ele><time>2026-04-19T15:12:37.512Z</time></trkpt><trkpt lat="38.1092617" lon="16.1574267"><ele>10.0</ele><time>2026-04-19T15:12:38.512Z</time></trkpt><trkpt lat="38.10904" lon="16.1574133"><ele>10.0</ele><time>2026-04-19T15:12:39.511Z</time></trkpt><trkpt lat="38.108815" lon="16.1573683"><ele>10.0</ele><time>2026-04-19T15:12:40.511Z</time></trkpt><trkpt lat="38.1086" lon="16.1573367"><ele>10.0</ele><time>2026-04-19T15:12:41.511Z</time></trkpt><trkpt lat="38.10838" lon="16.1573067"><ele>9.333333333333334</ele><time>2026-04-19T15:12:42.511Z</time></trkpt><trkpt lat="38.108175" lon="16.1572783"><ele>8.666666666666666</ele><time>2026-04-19T15:12:43.511Z</time></trkpt><trkpt lat="38.107965" lon="16.15726"><ele>8.0</ele><time>2026-04-19T15:12:44.511Z</time></trkpt><trkpt lat="38.1077683" lon="16.1572417"><ele>8.0</ele><time>2026-04-19T15:12:45.511Z</time></trkpt><trkpt lat="38.1075583" lon="16.15721"><ele>8.0</ele><time>2026-04-19T15:12:46.511Z</time></trkpt><trkpt lat="38.10735" lon="16.1571783"><ele>8.0</ele><time>2026-04-19T15:12:47.511Z</time></trkpt><trkpt lat="38.1071433" lon="16.1571583"><ele>8.0</ele><time>2026-04-19T15:12:48.512Z</time></trkpt><trkpt lat="38.10694" lon="16.1571233"><ele>8.0</ele><time>2026-04-19T15:12:49.512Z</time></trkpt><trkpt lat="38.106735" lon="16.157095"><ele>8.0</ele><time>2026-04-19T15:12:50.511Z</time></trkpt><trkpt lat="38.1065233" lon="16.15707"><ele>8.0</ele><time>2026-04-19T15:12:51.511Z</time></trkpt><trkpt lat="38.1063167" lon="16.157045"><ele>8.0</ele><time>2026-04-19T15:12:52.511Z</time></trkpt><trkpt lat="38.1061083" lon="16.1570233"><ele>8.0</ele><time>2026-04-19T15:12:53.512Z</time></trkpt><trkpt lat="38.1058983" lon="16.1569967"><ele>8.0</ele><time>2026-04-19T15:12:54.511Z</time></trkpt><trkpt lat="38.105695" lon="16.156975"><ele>8.0</ele><time>2026-04-19T15:12:55.511Z</time></trkpt><trkpt lat="38.1054817" lon="16.1569433"><ele>8.0</ele><time>2026-04-19T15:12:56.511Z</time></trkpt><trkpt lat="38.10527" lon="16.1569217"><ele>8.0</ele><time>2026-04-19T15:12:57.511Z</time></trkpt><trkpt lat="38.1050567" lon="16.156895"><ele>8.0</ele><time>2026-04-19T15:12:58.511Z</time></trkpt><trkpt lat="38.10485" lon="16.156865"><ele>8.0</ele><time>2026-04-19T15:12:59.512Z</time></trkpt><trkpt lat="38.1046517" lon="16.1568417"><ele>7.666666666666666</ele><time>2026-04-19T15:13:00.511Z</time></trkpt><trkpt lat="38.1044633" lon="16.156825"><ele>7.333333333333334</ele><time>2026-04-19T15:13:01.511Z</time></trkpt><trkpt lat="38.1043017" lon="16.1567933"><ele>7.0</ele><time>2026-04-19T15:13:02.511Z</time></trkpt><trkpt lat="38.1041383" lon="16.1567767"><ele>6.333333333333334</ele><time>2026-04-19T15:13:03.511Z</time></trkpt><trkpt lat="38.10397" lon="16.15676"><ele>5.666666666666667</ele><time>2026-04-19T15:13:04.512Z</time></trkpt><trkpt lat="38.1037983" lon="16.1567467"><ele>5.0</ele><time>2026-04-19T15:13:05.511Z</time></trkpt><trkpt lat="38.1036133" lon="16.1567333"><ele>5.0</ele><time>2026-04-19T15:13:06.512Z</time></trkpt><trkpt lat="38.1034183" lon="16.156715"><ele>5.0</ele><time>2026-04-19T15:13:07.511Z</time></trkpt><trkpt lat="38.1032117" lon="16.156695"><ele>5.0</ele><time>2026-04-19T15:13:08.511Z</time></trkpt><trkpt lat="38.103005" lon="16.1566683"><ele>5.333333333333334</ele><time>2026-04-19T15:13:09.511Z</time></trkpt><trkpt lat="38.102805" lon="16.15664"><ele>5.666666666666667</ele><time>2026-04-19T15:13:10.511Z</time></trkpt><trkpt lat="38.1025983" lon="16.1566167"><ele>6.0</ele><time>2026-04-19T15:13:11.511Z</time></trkpt><trkpt lat="38.1023867" lon="16.1565933"><ele>6.0</ele><time>2026-04-19T15:13:12.511Z</time></trkpt><trkpt lat="38.102175" lon="16.1565767"><ele>6.0</ele><time>2026-04-19T15:13:13.512Z</time></trkpt><trkpt lat="38.1019667" lon="16.156555"><ele>6.0</ele><time>2026-04-19T15:13:14.511Z</time></trkpt><trkpt lat="38.10175" lon="16.1565267"><ele>6.666666666666666</ele><time>2026-04-19T15:13:15.511Z</time></trkpt><trkpt lat="38.10154" lon="16.1564967"><ele>7.333333333333333</ele><time>2026-04-19T15:13:16.511Z</time></trkpt><trkpt lat="38.101325" lon="16.15646"><ele>8.0</ele><time>2026-04-19T15:13:17.511Z</time></trkpt><trkpt lat="38.101115" lon="16.1564283"><ele>8.0</ele><time>2026-04-19T15:13:18.511Z</time></trkpt><trkpt lat="38.1009033" lon="16.1563833"><ele>8.0</ele><time>2026-04-19T15:13:19.511Z</time></trkpt><trkpt lat="38.1006933" lon="16.1563367"><ele>8.0</ele><time>2026-04-19T15:13:20.511Z</time></trkpt><trkpt lat="38.1004833" lon="16.1562633"><ele>7.5</ele><time>2026-04-19T15:13:21.512Z</time></trkpt><trkpt lat="38.100265" lon="16.156205"><ele>7.0</ele><time>2026-04-19T15:13:22.511Z</time></trkpt><trkpt lat="38.100045" lon="16.156125"><ele>6.666666666666667</ele><time>2026-04-19T15:13:23.512Z</time></trkpt><trkpt lat="38.0998217" lon="16.15607"><ele>6.333333333333334</ele><time>2026-04-19T15:13:24.511Z</time></trkpt><trkpt lat="38.0996133" lon="16.1559917"><ele>6.0</ele><time>2026-04-19T15:13:25.512Z</time></trkpt><trkpt lat="38.0994017" lon="16.1559233"><ele>6.0</ele><time>2026-04-19T15:13:26.512Z</time></trkpt><trkpt lat="38.099195" lon="16.1558633"><ele>6.0</ele><time>2026-04-19T15:13:27.511Z</time></trkpt><trkpt lat="38.0989867" lon="16.1558033"><ele>6.0</ele><time>2026-04-19T15:13:28.511Z</time></trkpt><trkpt lat="38.0987933" lon="16.1557467"><ele>6.666666666666666</ele><time>2026-04-19T15:13:29.511Z</time></trkpt><trkpt lat="38.0985983" lon="16.1556917"><ele>7.333333333333333</ele><time>2026-04-19T15:13:30.511Z</time></trkpt><trkpt lat="38.0984167" lon="16.15563"><ele>8.0</ele><time>2026-04-19T15:13:31.512Z</time></trkpt><trkpt lat="38.0982433" lon="16.15558"><ele>8.0</ele><time>2026-04-19T15:13:32.512Z</time></trkpt><trkpt lat="38.0980783" lon="16.1555367"><ele>8.0</ele><time>2026-04-19T15:13:33.511Z</time></trkpt><trkpt lat="38.0979267" lon="16.1554983"><ele>8.0</ele><time>2026-04-19T15:13:34.511Z</time></trkpt><trkpt lat="38.0977767" lon="16.1554517"><ele>8.0</ele><time>2026-04-19T15:13:35.511Z</time></trkpt><trkpt lat="38.09763" lon="16.1553933"><ele>8.0</ele><time>2026-04-19T15:13:36.512Z</time></trkpt><trkpt lat="38.0974733" lon="16.1553433"><ele>8.0</ele><time>2026-04-19T15:13:37.511Z</time></trkpt><trkpt lat="38.0973183" lon="16.1553017"><ele>8.0</ele><time>2026-04-19T15:13:38.511Z</time></trkpt><trkpt lat="38.09717" lon="16.15525"><ele>8.0</ele><time>2026-04-19T15:13:39.511Z</time></trkpt><trkpt lat="38.097015" lon="16.1552183"><ele>8.0</ele><time>2026-04-19T15:13:40.512Z</time></trkpt><trkpt lat="38.0968733" lon="16.1551683"><ele>8.0</ele><time>2026-04-19T15:13:41.511Z</time></trkpt><trkpt lat="38.0967317" lon="16.155135"><ele>8.0</ele><time>2026-04-19T15:13:42.511Z</time></trkpt><trkpt lat="38.096585" lon="16.1550917"><ele>8.0</ele><time>2026-04-19T15:13:43.511Z</time></trkpt><trkpt lat="38.09643" lon="16.1550583"><ele>8.0</ele><time>2026-04-19T15:13:44.511Z</time></trkpt><trkpt lat="38.0962833" lon="16.1550117"><ele>8.0</ele><time>2026-04-19T15:13:45.511Z</time></trkpt><trkpt lat="38.0961383" lon="16.154965"><ele>8.0</ele><time>2026-04-19T15:13:46.511Z</time></trkpt><trkpt lat="38.096005" lon="16.154915"><ele>8.0</ele><time>2026-04-19T15:13:47.511Z</time></trkpt><trkpt lat="38.095875" lon="16.1548667"><ele>8.0</ele><time>2026-04-19T15:13:48.511Z</time></trkpt><trkpt lat="38.09575" lon="16.154815"><ele>8.0</ele><time>2026-04-19T15:13:49.512Z</time></trkpt><trkpt lat="38.0956167" lon="16.1547717"><ele>8.0</ele><time>2026-04-19T15:13:50.511Z</time></trkpt><trkpt lat="38.0954817" lon="16.1547467"><ele>8.0</ele><time>2026-04-19T15:13:51.511Z</time></trkpt><trkpt lat="38.09535" lon="16.1546933"><ele>8.0</ele><time>2026-04-19T15:13:52.511Z</time></trkpt><trkpt lat="38.0952133" lon="16.1546417"><ele>8.0</ele><time>2026-04-19T15:13:53.511Z</time></trkpt><trkpt lat="38.0950867" lon="16.1545933"><ele>8.0</ele><time>2026-04-19T15:13:54.512Z</time></trkpt><trkpt lat="38.0949783" lon="16.1545517"><ele>8.0</ele><time>2026-04-19T15:13:55.511Z</time></trkpt><trkpt lat="38.0948817" lon="16.1545167"><ele>8.0</ele><time>2026-04-19T15:13:56.512Z</time></trkpt><trkpt lat="38.0947867" lon="16.154485"><ele>8.0</ele><time>2026-04-19T15:13:57.511Z</time></trkpt><trkpt lat="38.0946967" lon="16.154465"><ele>8.0</ele><time>2026-04-19T15:13:58.511Z</time></trkpt><trkpt lat="38.09461" lon="16.154445"><ele>8.0</ele><time>2026-04-19T15:13:59.512Z</time></trkpt><trkpt lat="38.094525" lon="16.1544167"><ele>8.0</ele><time>2026-04-19T15:14:00.511Z</time></trkpt><trkpt lat="38.0944433" lon="16.1543917"><ele>7.999999999999999</ele><time>2026-04-19T15:14:01.511Z</time></trkpt><trkpt lat="38.0943683" lon="16.1543583"><ele>8.0</ele><time>2026-04-19T15:14:02.511Z</time></trkpt><trkpt lat="38.094285" lon="16.15434"><ele>8.0</ele><time>2026-04-19T15:14:03.511Z</time></trkpt><trkpt lat="38.0941983" lon="16.1543267"><ele>8.0</ele><time>2026-04-19T15:14:04.511Z</time></trkpt><trkpt lat="38.094115" lon="16.1543017"><ele>7.999999999999999</ele><time>2026-04-19T15:14:05.511Z</time></trkpt><trkpt lat="38.0940233" lon="16.1542667"><ele>8.0</ele><time>2026-04-19T15:14:06.511Z</time></trkpt><trkpt lat="38.0939333" lon="16.1542367"><ele>7.800000000000001</ele><time>2026-04-19T15:14:07.511Z</time></trkpt><trkpt lat="38.093845" lon="16.1542033"><ele>7.6000000000000005</ele><time>2026-04-19T15:14:08.511Z</time></trkpt><trkpt lat="38.0937483" lon="16.1541683"><ele>7.3999999999999995</ele><time>2026-04-19T15:14:09.512Z</time></trkpt><trkpt lat="38.0936533" lon="16.1541283"><ele>7.199999999999999</ele><time>2026-04-19T15:14:10.511Z</time></trkpt><trkpt lat="38.09355" lon="16.154105"><ele>7.0</ele><time>2026-04-19T15:14:11.511Z</time></trkpt><trkpt lat="38.093445" lon="16.15408"><ele>7.0</ele><time>2026-04-19T15:14:12.511Z</time></trkpt><trkpt lat="38.0933333" lon="16.15405"><ele>7.0</ele><time>2026-04-19T15:14:13.511Z</time></trkpt><trkpt lat="38.0932083" lon="16.1540233"><ele>7.0</ele><time>2026-04-19T15:14:14.511Z</time></trkpt><trkpt lat="38.09309" lon="16.15399"><ele>7.0</ele><time>2026-04-19T15:14:15.512Z</time></trkpt><trkpt lat="38.092975" lon="16.153955"><ele>7.5</ele><time>2026-04-19T15:14:16.512Z</time></trkpt><trkpt lat="38.0928583" lon="16.1539217"><ele>8.0</ele><time>2026-04-19T15:14:17.511Z</time></trkpt><trkpt lat="38.092725" lon="16.1539"><ele>8.5</ele><time>2026-04-19T15:14:18.512Z</time></trkpt><trkpt lat="38.0926" lon="16.153855"><ele>9.0</ele><time>2026-04-19T15:14:19.511Z</time></trkpt><trkpt lat="38.0924783" lon="16.1538133"><ele>8.75</ele><time>2026-04-19T15:14:20.511Z</time></trkpt><trkpt lat="38.092355" lon="16.153775"><ele>8.5</ele><time>2026-04-19T15:14:21.511Z</time></trkpt><trkpt lat="38.092235" lon="16.1537333"><ele>8.25</ele><time>2026-04-19T15:14:22.511Z</time></trkpt><trkpt lat="38.092125" lon="16.1536917"><ele>8.0</ele><time>2026-04-19T15:14:23.512Z</time></trkpt><trkpt lat="38.09202" lon="16.1536533"><ele>8.0</ele><time>2026-04-19T15:14:24.511Z</time></trkpt><trkpt lat="38.0919167" lon="16.1536217"><ele>8.0</ele><time>2026-04-19T15:14:25.511Z</time></trkpt><trkpt lat="38.0918133" lon="16.1535983"><ele>8.0</ele><time>2026-04-19T15:14:26.512Z</time></trkpt><trkpt lat="38.09171" lon="16.1535767"><ele>8.0</ele><time>2026-04-19T15:14:27.511Z</time></trkpt><trkpt lat="38.0916017" lon="16.1535483"><ele>8.0</ele><time>2026-04-19T15:14:28.511Z</time></trkpt><trkpt lat="38.09149" lon="16.1535067"><ele>7.6000000000000005</ele><time>2026-04-19T15:14:29.511Z</time></trkpt><trkpt lat="38.0913867" lon="16.1534567"><ele>7.200000000000001</ele><time>2026-04-19T15:14:30.511Z</time></trkpt><trkpt lat="38.091295" lon="16.1534317"><ele>6.8</ele><time>2026-04-19T15:14:31.512Z</time></trkpt><trkpt lat="38.0912017" lon="16.1534017"><ele>6.4</ele><time>2026-04-19T15:14:32.511Z</time></trkpt><trkpt lat="38.0911217" lon="16.15337"><ele>6.0</ele><time>2026-04-19T15:14:33.512Z</time></trkpt><trkpt lat="38.0910583" lon="16.1533467"><ele>6.0</ele><time>2026-04-19T15:14:34.511Z</time></trkpt><trkpt lat="38.0909733" lon="16.1533183"><ele>6.0</ele><time>2026-04-19T15:14:36.511Z</time></trkpt><trkpt lat="38.0908867" lon="16.15329"><ele>6.0</ele><time>2026-04-19T15:14:39.511Z</time></trkpt><trkpt lat="38.090795" lon="16.15329"><ele>6.0</ele><time>2026-04-19T15:14:48.511Z</time></trkpt><trkpt lat="38.090695" lon="16.1532417"><ele>6.0</ele><time>2026-04-19T15:14:50.512Z</time></trkpt><trkpt lat="38.090565" lon="16.15321"><ele>6.4</ele><time>2026-04-19T15:14:52.511Z</time></trkpt><trkpt lat="38.090485" lon="16.153185"><ele>6.8</ele><time>2026-04-19T15:14:53.512Z</time></trkpt><trkpt lat="38.0903933" lon="16.1531483"><ele>7.200000000000001</ele><time>2026-04-19T15:14:54.512Z</time></trkpt><trkpt lat="38.0903" lon="16.15311"><ele>7.6000000000000005</ele><time>2026-04-19T15:14:55.511Z</time></trkpt><trkpt lat="38.0902017" lon="16.1530783"><ele>8.0</ele><time>2026-04-19T15:14:56.511Z</time></trkpt><trkpt lat="38.0901017" lon="16.1530483"><ele>8.0</ele><time>2026-04-19T15:14:57.511Z</time></trkpt><trkpt lat="38.0899967" lon="16.1530217"><ele>8.0</ele><time>2026-04-19T15:14:58.511Z</time></trkpt><trkpt lat="38.08988" lon="16.1529933"><ele>8.0</ele><time>2026-04-19T15:14:59.511Z</time></trkpt><trkpt lat="38.0897617" lon="16.1529583"><ele>8.0</ele><time>2026-04-19T15:15:00.512Z</time></trkpt><trkpt lat="38.0896417" lon="16.1529383"><ele>8.4</ele><time>2026-04-19T15:15:01.512Z</time></trkpt><trkpt lat="38.0895083" lon="16.1529033"><ele>8.8</ele><time>2026-04-19T15:15:02.511Z</time></trkpt><trkpt lat="38.089415" lon="16.1528683"><ele>9.2</ele><time>2026-04-19T15:15:03.511Z</time></trkpt><trkpt lat="38.089325" lon="16.1528333"><ele>9.6</ele><time>2026-04-19T15:15:04.511Z</time></trkpt><trkpt lat="38.089235" lon="16.1528067"><ele>10.0</ele><time>2026-04-19T15:15:05.511Z</time></trkpt><trkpt lat="38.089145" lon="16.1527817"><ele>10.0</ele><time>2026-04-19T15:15:06.512Z</time></trkpt><trkpt lat="38.08906" lon="16.1527517"><ele>10.0</ele><time>2026-04-19T15:15:07.511Z</time></trkpt><trkpt lat="38.0889717" lon="16.15271"><ele>10.0</ele><time>2026-04-19T15:15:08.512Z</time></trkpt><trkpt lat="38.0888833" lon="16.1526733"><ele>10.0</ele><time>2026-04-19T15:15:09.511Z</time></trkpt><trkpt lat="38.0887883" lon="16.1526583"><ele>10.0</ele><time>2026-04-19T15:15:10.511Z</time></trkpt><trkpt lat="38.0887" lon="16.1526267"><ele>10.0</ele><time>2026-04-19T15:15:11.511Z</time></trkpt><trkpt lat="38.0886183" lon="16.1526017"><ele>10.0</ele><time>2026-04-19T15:15:12.512Z</time></trkpt><trkpt lat="38.0885483" lon="16.1525917"><ele>10.0</ele><time>2026-04-19T15:15:13.511Z</time></trkpt><trkpt lat="38.0884317" lon="16.1525617"><ele>10.0</ele><time>2026-04-19T15:15:15.512Z</time></trkpt><trkpt lat="38.0883467" lon="16.1525333"><ele>10.0</ele><time>2026-04-19T15:15:17.511Z</time></trkpt><trkpt lat="38.088275" lon="16.1524967"><ele>10.0</ele><time>2026-04-19T15:15:19.512Z</time></trkpt><trkpt lat="38.0882117" lon="16.1524583"><ele>10.0</ele><time>2026-04-19T15:15:21.511Z</time></trkpt><trkpt lat="38.088145" lon="16.1524333"><ele>10.0</ele><time>2026-04-19T15:15:23.511Z</time></trkpt><trkpt lat="38.0880717" lon="16.1523867"><ele>10.0</ele><time>2026-04-19T15:15:25.511Z</time></trkpt><trkpt lat="38.0879917" lon="16.15235"><ele>10.0</ele><time>2026-04-19T15:15:27.512Z</time></trkpt><trkpt lat="38.0878833" lon="16.1523"><ele>10.0</ele><time>2026-04-19T15:15:29.511Z</time></trkpt><trkpt lat="38.0878183" lon="16.1522683"><ele>10.0</ele><time>2026-04-19T15:15:30.512Z</time></trkpt><trkpt lat="38.0877383" lon="16.1522383"><ele>10.0</ele><time>2026-04-19T15:15:31.511Z</time></trkpt><trkpt lat="38.087655" lon="16.1522033"><ele>10.0</ele><time>2026-04-19T15:15:32.511Z</time></trkpt><trkpt lat="38.0875733" lon="16.1521583"><ele>10.0</ele><time>2026-04-19T15:15:33.511Z</time></trkpt><trkpt lat="38.0874817" lon="16.15211"><ele>10.0</ele><time>2026-04-19T15:15:34.512Z</time></trkpt><trkpt lat="38.087395" lon="16.1520533"><ele>10.0</ele><time>2026-04-19T15:15:35.511Z</time></trkpt><trkpt lat="38.0872933" lon="16.1520133"><ele>10.2</ele><time>2026-04-19T15:15:36.511Z</time></trkpt><trkpt lat="38.0871883" lon="16.15198"><ele>10.4</ele><time>2026-04-19T15:15:37.511Z</time></trkpt><trkpt lat="38.08708" lon="16.15195"><ele>10.600000000000001</ele><time>2026-04-19T15:15:38.511Z</time></trkpt><trkpt lat="38.0869767" lon="16.1519083"><ele>10.8</ele><time>2026-04-19T15:15:39.512Z</time></trkpt><trkpt lat="38.086875" lon="16.151855"><ele>11.0</ele><time>2026-04-19T15:15:40.511Z</time></trkpt><trkpt lat="38.0867783" lon="16.1517967"><ele>11.0</ele><time>2026-04-19T15:15:41.511Z</time></trkpt><trkpt lat="38.0866833" lon="16.1517383"><ele>11.0</ele><time>2026-04-19T15:15:42.512Z</time></trkpt><trkpt lat="38.0865883" lon="16.1516783"><ele>11.0</ele><time>2026-04-19T15:15:43.511Z</time></trkpt><trkpt lat="38.0864917" lon="16.15162"><ele>11.0</ele><time>2026-04-19T15:15:44.511Z</time></trkpt><trkpt lat="38.0863933" lon="16.1515583"><ele>11.0</ele><time>2026-04-19T15:15:45.512Z</time></trkpt><trkpt lat="38.0862917" lon="16.1514983"><ele>10.5</ele><time>2026-04-19T15:15:46.511Z</time></trkpt><trkpt lat="38.0861917" lon="16.1514367"><ele>10.0</ele><time>2026-04-19T15:15:47.511Z</time></trkpt><trkpt lat="38.0860933" lon="16.15137"><ele>9.5</ele><time>2026-04-19T15:15:48.511Z</time></trkpt><trkpt lat="38.0860017" lon="16.1512883"><ele>9.0</ele><time>2026-04-19T15:15:49.511Z</time></trkpt><trkpt lat="38.08591" lon="16.1511983"><ele>9.0</ele><time>2026-04-19T15:15:50.511Z</time></trkpt><trkpt lat="38.0858183" lon="16.1511017"><ele>9.0</ele><time>2026-04-19T15:15:51.512Z</time></trkpt><trkpt lat="38.0857233" lon="16.1510133"><ele>9.0</ele><time>2026-04-19T15:15:52.511Z</time></trkpt><trkpt lat="38.0856283" lon="16.150925"><ele>9.0</ele><time>2026-04-19T15:15:53.511Z</time></trkpt><trkpt lat="38.0855317" lon="16.150835"><ele>9.25</ele><time>2026-04-19T15:15:54.511Z</time></trkpt><trkpt lat="38.0854367" lon="16.15074"><ele>9.5</ele><time>2026-04-19T15:15:55.512Z</time></trkpt><trkpt lat="38.0853417" lon="16.1506467"><ele>9.75</ele><time>2026-04-19T15:15:56.511Z</time></trkpt><trkpt lat="38.0852467" lon="16.1505517"><ele>10.0</ele><time>2026-04-19T15:15:57.511Z</time></trkpt><trkpt lat="38.0851517" lon="16.1504483"><ele>10.0</ele><time>2026-04-19T15:15:58.511Z</time></trkpt><trkpt lat="38.0850583" lon="16.1503467"><ele>10.0</ele><time>2026-04-19T15:15:59.512Z</time></trkpt><trkpt lat="38.0849683" lon="16.150235"><ele>10.0</ele><time>2026-04-19T15:16:00.511Z</time></trkpt><trkpt lat="38.0848767" lon="16.1501333"><ele>10.0</ele><time>2026-04-19T15:16:01.511Z</time></trkpt><trkpt lat="38.0847833" lon="16.150035"><ele>10.0</ele><time>2026-04-19T15:16:02.511Z</time></trkpt><trkpt lat="38.0846867" lon="16.1499417"><ele>10.0</ele><time>2026-04-19T15:16:03.511Z</time></trkpt><trkpt lat="38.0845883" lon="16.1498467"><ele>10.0</ele><time>2026-04-19T15:16:04.511Z</time></trkpt><trkpt lat="38.0844917" lon="16.1497533"><ele>10.0</ele><time>2026-04-19T15:16:05.511Z</time></trkpt><trkpt lat="38.0843967" lon="16.1496583"><ele>10.0</ele><time>2026-04-19T15:16:06.511Z</time></trkpt><trkpt lat="38.0843" lon="16.149565"><ele>10.0</ele><time>2026-04-19T15:16:07.511Z</time></trkpt><trkpt lat="38.084205" lon="16.1494733"><ele>10.0</ele><time>2026-04-19T15:16:08.511Z</time></trkpt><trkpt lat="38.0841117" lon="16.149375"><ele>10.0</ele><time>2026-04-19T15:16:09.511Z</time></trkpt><trkpt lat="38.0840133" lon="16.1492867"><ele>10.0</ele><time>2026-04-19T15:16:10.511Z</time></trkpt><trkpt lat="38.0839033" lon="16.149185"><ele>10.0</ele><time>2026-04-19T15:16:11.511Z</time></trkpt><trkpt lat="38.0838033" lon="16.1490633"><ele>10.0</ele><time>2026-04-19T15:16:12.512Z</time></trkpt><trkpt lat="38.083695" lon="16.1489533"><ele>10.0</ele><time>2026-04-19T15:16:13.512Z</time></trkpt><trkpt lat="38.0835817" lon="16.1488433"><ele>10.0</ele><time>2026-04-19T15:16:14.512Z</time></trkpt><trkpt lat="38.0834683" lon="16.1487233"><ele>10.0</ele><time>2026-04-19T15:16:15.512Z</time></trkpt><trkpt lat="38.0833467" lon="16.148605"><ele>10.0</ele><time>2026-04-19T15:16:16.512Z</time></trkpt><trkpt lat="38.0832233" lon="16.1484817"><ele>10.0</ele><time>2026-04-19T15:16:17.511Z</time></trkpt><trkpt lat="38.083095" lon="16.1483667"><ele>10.0</ele><time>2026-04-19T15:16:18.511Z</time></trkpt><trkpt lat="38.0829617" lon="16.1482417"><ele>10.0</ele><time>2026-04-19T15:16:19.512Z</time></trkpt><trkpt lat="38.0828233" lon="16.1481167"><ele>10.0</ele><time>2026-04-19T15:16:20.512Z</time></trkpt><trkpt lat="38.0826867" lon="16.1479833"><ele>10.0</ele><time>2026-04-19T15:16:21.512Z</time></trkpt><trkpt lat="38.082545" lon="16.1478467"><ele>10.0</ele><time>2026-04-19T15:16:22.511Z</time></trkpt><trkpt lat="38.08241" lon="16.1477033"><ele>10.333333333333334</ele><time>2026-04-19T15:16:23.511Z</time></trkpt><trkpt lat="38.0822617" lon="16.14756"><ele>10.666666666666666</ele><time>2026-04-19T15:16:24.511Z</time></trkpt><trkpt lat="38.08212" lon="16.1474167"><ele>11.0</ele><time>2026-04-19T15:16:25.512Z</time></trkpt><trkpt lat="38.08197" lon="16.14727"><ele>10.333333333333332</ele><time>2026-04-19T15:16:26.511Z</time></trkpt><trkpt lat="38.0818217" lon="16.1471183"><ele>9.666666666666666</ele><time>2026-04-19T15:16:27.511Z</time></trkpt><trkpt lat="38.0816567" lon="16.1469683"><ele>9.0</ele><time>2026-04-19T15:16:28.512Z</time></trkpt><trkpt lat="38.0814983" lon="16.1468183"><ele>9.0</ele><time>2026-04-19T15:16:29.511Z</time></trkpt><trkpt lat="38.0813383" lon="16.1466583"><ele>9.0</ele><time>2026-04-19T15:16:30.512Z</time></trkpt><trkpt lat="38.0811733" lon="16.1465067"><ele>9.0</ele><time>2026-04-19T15:16:31.512Z</time></trkpt><trkpt lat="38.081005" lon="16.1463483"><ele>9.0</ele><time>2026-04-19T15:16:32.512Z</time></trkpt><trkpt lat="38.08084" lon="16.14619"><ele>9.0</ele><time>2026-04-19T15:16:33.511Z</time></trkpt><trkpt lat="38.0806733" lon="16.1460183"><ele>9.0</ele><time>2026-04-19T15:16:34.511Z</time></trkpt><trkpt lat="38.0805117" lon="16.14585"><ele>12.666666666666668</ele><time>2026-04-19T15:16:35.511Z</time></trkpt><trkpt lat="38.0803567" lon="16.1456883"><ele>16.333333333333336</ele><time>2026-04-19T15:16:36.512Z</time></trkpt><trkpt lat="38.0801967" lon="16.145525"><ele>20.0</ele><time>2026-04-19T15:16:37.511Z</time></trkpt><trkpt lat="38.0800283" lon="16.1453633"><ele>18.333333333333336</ele><time>2026-04-19T15:16:38.511Z</time></trkpt><trkpt lat="38.0798467" lon="16.1452167"><ele>16.666666666666668</ele><time>2026-04-19T15:16:39.511Z</time></trkpt><trkpt lat="38.0796733" lon="16.1450767"><ele>15.0</ele><time>2026-04-19T15:16:40.511Z</time></trkpt><trkpt lat="38.0794917" lon="16.14494"><ele>17.666666666666668</ele><time>2026-04-19T15:16:41.511Z</time></trkpt><trkpt lat="38.07932" lon="16.1448"><ele>20.333333333333336</ele><time>2026-04-19T15:16:42.511Z</time></trkpt><trkpt lat="38.0791433" lon="16.144665"><ele>23.0</ele><time>2026-04-19T15:16:43.511Z</time></trkpt><trkpt lat="38.0789667" lon="16.1445283"><ele>23.0</ele><time>2026-04-19T15:16:44.511Z</time></trkpt><trkpt lat="38.0787817" lon="16.1444017"><ele>23.0</ele><time>2026-04-19T15:16:45.511Z</time></trkpt><trkpt lat="38.0786033" lon="16.1443033"><ele>23.0</ele><time>2026-04-19T15:16:46.511Z</time></trkpt><trkpt lat="38.0784333" lon="16.1442317"><ele>22.333333333333336</ele><time>2026-04-19T15:16:47.511Z</time></trkpt><trkpt lat="38.0782567" lon="16.1441833"><ele>21.666666666666668</ele><time>2026-04-19T15:16:48.511Z</time></trkpt><trkpt lat="38.0780883" lon="16.1441417"><ele>21.0</ele><time>2026-04-19T15:16:49.512Z</time></trkpt><trkpt lat="38.077915" lon="16.1441033"><ele>21.0</ele><time>2026-04-19T15:16:50.511Z</time></trkpt><trkpt lat="38.07774" lon="16.1440683"><ele>21.0</ele><time>2026-04-19T15:16:51.511Z</time></trkpt><trkpt lat="38.0775533" lon="16.1440317"><ele>21.0</ele><time>2026-04-19T15:16:52.511Z</time></trkpt><trkpt lat="38.0773733" lon="16.1439967"><ele>22.0</ele><time>2026-04-19T15:16:53.512Z</time></trkpt><trkpt lat="38.077185" lon="16.143945"><ele>23.0</ele><time>2026-04-19T15:16:54.512Z</time></trkpt><trkpt lat="38.0769933" lon="16.1438933"><ele>24.0</ele><time>2026-04-19T15:16:55.511Z</time></trkpt><trkpt lat="38.0767983" lon="16.14384"><ele>24.333333333333336</ele><time>2026-04-19T15:16:56.512Z</time></trkpt><trkpt lat="38.0766" lon="16.143785"><ele>24.666666666666668</ele><time>2026-04-19T15:16:57.512Z</time></trkpt><trkpt lat="38.0763917" lon="16.1437333"><ele>25.0</ele><time>2026-04-19T15:16:58.511Z</time></trkpt><trkpt lat="38.0761883" lon="16.143675"><ele>25.0</ele><time>2026-04-19T15:16:59.511Z</time></trkpt><trkpt lat="38.075975" lon="16.1436267"><ele>25.0</ele><time>2026-04-19T15:17:00.512Z</time></trkpt><trkpt lat="38.0757633" lon="16.1435783"><ele>25.0</ele><time>2026-04-19T15:17:01.512Z</time></trkpt><trkpt lat="38.0755517" lon="16.1435267"><ele>24.0</ele><time>2026-04-19T15:17:02.511Z</time></trkpt><trkpt lat="38.0753417" lon="16.14348"><ele>23.0</ele><time>2026-04-19T15:17:03.511Z</time></trkpt><trkpt lat="38.0751183" lon="16.1434267"><ele>22.0</ele><time>2026-04-19T15:17:04.511Z</time></trkpt><trkpt lat="38.0748983" lon="16.1433733"><ele>21.666666666666664</ele><time>2026-04-19T15:17:05.511Z</time></trkpt><trkpt lat="38.0746783" lon="16.1433133"><ele>21.333333333333332</ele><time>2026-04-19T15:17:06.511Z</time></trkpt><trkpt lat="38.0744633" lon="16.14325"><ele>21.0</ele><time>2026-04-19T15:17:07.511Z</time></trkpt><trkpt lat="38.07425" lon="16.1432"><ele>23.0</ele><time>2026-04-19T15:17:08.511Z</time></trkpt><trkpt lat="38.0740333" lon="16.1431467"><ele>25.0</ele><time>2026-04-19T15:17:09.512Z</time></trkpt><trkpt lat="38.0738133" lon="16.1430917"><ele>27.0</ele><time>2026-04-19T15:17:10.511Z</time></trkpt><trkpt lat="38.073595" lon="16.1430317"><ele>27.0</ele><time>2026-04-19T15:17:11.511Z</time></trkpt><trkpt lat="38.0733867" lon="16.1429717"><ele>27.0</ele><time>2026-04-19T15:17:12.512Z</time></trkpt><trkpt lat="38.0731683" lon="16.1429133"><ele>27.0</ele><time>2026-04-19T15:17:13.511Z</time></trkpt><trkpt lat="38.0729567" lon="16.1428683"><ele>25.0</ele><time>2026-04-19T15:17:14.512Z</time></trkpt><trkpt lat="38.0727317" lon="16.1428033"><ele>23.0</ele><time>2026-04-19T15:17:15.512Z</time></trkpt><trkpt lat="38.0725233" lon="16.14275"><ele>21.0</ele><time>2026-04-19T15:17:16.511Z</time></trkpt><trkpt lat="38.072315" lon="16.1426983"><ele>20.0</ele><time>2026-04-19T15:17:17.511Z</time></trkpt><trkpt lat="38.0721" lon="16.1426383"><ele>19.0</ele><time>2026-04-19T15:17:18.511Z</time></trkpt><trkpt lat="38.0718917" lon="16.1425817"><ele>18.0</ele><time>2026-04-19T15:17:19.512Z</time></trkpt><trkpt lat="38.0716767" lon="16.1425367"><ele>19.0</ele><time>2026-04-19T15:17:20.511Z</time></trkpt><trkpt lat="38.07147" lon="16.1424883"><ele>20.0</ele><time>2026-04-19T15:17:21.511Z</time></trkpt><trkpt lat="38.071265" lon="16.142435"><ele>21.0</ele><time>2026-04-19T15:17:22.512Z</time></trkpt><trkpt lat="38.0710683" lon="16.14238"><ele>21.666666666666668</ele><time>2026-04-19T15:17:23.512Z</time></trkpt><trkpt lat="38.0708667" lon="16.1423283"><ele>22.333333333333336</ele><time>2026-04-19T15:17:24.511Z</time></trkpt><trkpt lat="38.0706667" lon="16.1422683"><ele>23.0</ele><time>2026-04-19T15:17:25.512Z</time></trkpt><trkpt lat="38.070465" lon="16.1422183"><ele>23.0</ele><time>2026-04-19T15:17:26.511Z</time></trkpt><trkpt lat="38.0702633" lon="16.1421567"><ele>23.0</ele><time>2026-04-19T15:17:27.512Z</time></trkpt><trkpt lat="38.0700717" lon="16.1421117"><ele>23.0</ele><time>2026-04-19T15:17:28.512Z</time></trkpt><trkpt lat="38.0698683" lon="16.1420667"><ele>22.0</ele><time>2026-04-19T15:17:29.511Z</time></trkpt><trkpt lat="38.069665" lon="16.1420183"><ele>21.0</ele><time>2026-04-19T15:17:30.512Z</time></trkpt><trkpt lat="38.069465" lon="16.1419583"><ele>20.0</ele><time>2026-04-19T15:17:31.511Z</time></trkpt><trkpt lat="38.06927" lon="16.1418983"><ele>19.666666666666668</ele><time>2026-04-19T15:17:32.511Z</time></trkpt><trkpt lat="38.06908" lon="16.1418283"><ele>19.333333333333332</ele><time>2026-04-19T15:17:33.511Z</time></trkpt><trkpt lat="38.068885" lon="16.1417767"><ele>19.0</ele><time>2026-04-19T15:17:34.511Z</time></trkpt><trkpt lat="38.0686917" lon="16.14172"><ele>19.0</ele><time>2026-04-19T15:17:35.511Z</time></trkpt><trkpt lat="38.0685033" lon="16.1416567"><ele>19.0</ele><time>2026-04-19T15:17:36.511Z</time></trkpt><trkpt lat="38.0683067" lon="16.141595"><ele>19.0</ele><time>2026-04-19T15:17:37.511Z</time></trkpt><trkpt lat="38.0681133" lon="16.1415483"><ele>20.0</ele><time>2026-04-19T15:17:38.511Z</time></trkpt><trkpt lat="38.06792" lon="16.141485"><ele>21.0</ele><time>2026-04-19T15:17:39.511Z</time></trkpt><trkpt lat="38.0677283" lon="16.1414183"><ele>22.0</ele><time>2026-04-19T15:17:40.511Z</time></trkpt><trkpt lat="38.0675317" lon="16.1413583"><ele>19.333333333333332</ele><time>2026-04-19T15:17:41.511Z</time></trkpt><trkpt lat="38.0673483" lon="16.1412917"><ele>16.666666666666668</ele><time>2026-04-19T15:17:42.511Z</time></trkpt><trkpt lat="38.0671617" lon="16.1412283"><ele>14.0</ele><time>2026-04-19T15:17:43.512Z</time></trkpt><trkpt lat="38.0669717" lon="16.1411733"><ele>14.0</ele><time>2026-04-19T15:17:44.511Z</time></trkpt><trkpt lat="38.0667767" lon="16.1411167"><ele>14.0</ele><time>2026-04-19T15:17:45.511Z</time></trkpt><trkpt lat="38.06659" lon="16.1410583"><ele>14.0</ele><time>2026-04-19T15:17:46.511Z</time></trkpt><trkpt lat="38.06639" lon="16.141"><ele>13.333333333333334</ele><time>2026-04-19T15:17:47.512Z</time></trkpt><trkpt lat="38.0661917" lon="16.140955"><ele>12.666666666666668</ele><time>2026-04-19T15:17:48.512Z</time></trkpt><trkpt lat="38.066" lon="16.1408933"><ele>12.0</ele><time>2026-04-19T15:17:49.511Z</time></trkpt><trkpt lat="38.0658117" lon="16.1408383"><ele>12.333333333333332</ele><time>2026-04-19T15:17:50.511Z</time></trkpt><trkpt lat="38.0656233" lon="16.1407867"><ele>12.666666666666666</ele><time>2026-04-19T15:17:51.511Z</time></trkpt><trkpt lat="38.0654467" lon="16.140735"><ele>13.0</ele><time>2026-04-19T15:17:52.511Z</time></trkpt><trkpt lat="38.0652683" lon="16.140675"><ele>13.0</ele><time>2026-04-19T15:17:53.511Z</time></trkpt><trkpt lat="38.0650917" lon="16.1406183"><ele>13.0</ele><time>2026-04-19T15:17:54.511Z</time></trkpt><trkpt lat="38.0649267" lon="16.1405633"><ele>13.0</ele><time>2026-04-19T15:17:55.511Z</time></trkpt><trkpt lat="38.0647483" lon="16.1405183"><ele>12.333333333333332</ele><time>2026-04-19T15:17:56.511Z</time></trkpt><trkpt lat="38.0645667" lon="16.1404683"><ele>11.666666666666666</ele><time>2026-04-19T15:17:57.511Z</time></trkpt><trkpt lat="38.0643883" lon="16.14043"><ele>11.0</ele><time>2026-04-19T15:17:58.511Z</time></trkpt><trkpt lat="38.0642183" lon="16.1403833"><ele>10.333333333333332</ele><time>2026-04-19T15:17:59.511Z</time></trkpt><trkpt lat="38.0640433" lon="16.1403483"><ele>9.666666666666666</ele><time>2026-04-19T15:18:00.511Z</time></trkpt><trkpt lat="38.063865" lon="16.14032"><ele>9.0</ele><time>2026-04-19T15:18:01.511Z</time></trkpt><trkpt lat="38.0636867" lon="16.1402883"><ele>9.0</ele><time>2026-04-19T15:18:02.511Z</time></trkpt><trkpt lat="38.063515" lon="16.14026"><ele>9.0</ele><time>2026-04-19T15:18:03.511Z</time></trkpt><trkpt lat="38.0633367" lon="16.1402383"><ele>9.0</ele><time>2026-04-19T15:18:04.511Z</time></trkpt><trkpt lat="38.0631517" lon="16.1402017"><ele>9.666666666666666</ele><time>2026-04-19T15:18:05.512Z</time></trkpt><trkpt lat="38.0629733" lon="16.1401617"><ele>10.333333333333332</ele><time>2026-04-19T15:18:06.511Z</time></trkpt><trkpt lat="38.0627817" lon="16.1401333"><ele>11.0</ele><time>2026-04-19T15:18:07.511Z</time></trkpt><trkpt lat="38.0625883" lon="16.1401017"><ele>10.333333333333332</ele><time>2026-04-19T15:18:08.511Z</time></trkpt><trkpt lat="38.0623867" lon="16.140075"><ele>9.666666666666666</ele><time>2026-04-19T15:18:09.511Z</time></trkpt><trkpt lat="38.0621817" lon="16.14004"><ele>9.0</ele><time>2026-04-19T15:18:10.511Z</time></trkpt><trkpt lat="38.0619683" lon="16.1399917"><ele>9.0</ele><time>2026-04-19T15:18:11.511Z</time></trkpt><trkpt lat="38.061745" lon="16.13995"><ele>9.0</ele><time>2026-04-19T15:18:12.511Z</time></trkpt><trkpt lat="38.0615267" lon="16.1399017"><ele>9.0</ele><time>2026-04-19T15:18:13.511Z</time></trkpt><trkpt lat="38.06131" lon="16.139855"><ele>10.0</ele><time>2026-04-19T15:18:14.511Z</time></trkpt><trkpt lat="38.0610933" lon="16.1398183"><ele>11.0</ele><time>2026-04-19T15:18:15.511Z</time></trkpt><trkpt lat="38.0608783" lon="16.1397833"><ele>12.0</ele><time>2026-04-19T15:18:16.511Z</time></trkpt><trkpt lat="38.06066" lon="16.13978"><ele>12.333333333333332</ele><time>2026-04-19T15:18:17.511Z</time></trkpt><trkpt lat="38.0604483" lon="16.1397717"><ele>12.666666666666666</ele><time>2026-04-19T15:18:18.511Z</time></trkpt><trkpt lat="38.0602317" lon="16.1397817"><ele>13.0</ele><time>2026-04-19T15:18:19.511Z</time></trkpt><trkpt lat="38.0600133" lon="16.13978"><ele>11.333333333333332</ele><time>2026-04-19T15:18:20.511Z</time></trkpt><trkpt lat="38.05979" lon="16.1397817"><ele>9.666666666666666</ele><time>2026-04-19T15:18:21.511Z</time></trkpt><trkpt lat="38.05958" lon="16.1397733"><ele>8.0</ele><time>2026-04-19T15:18:22.511Z</time></trkpt><trkpt lat="38.0593717" lon="16.139745"><ele>8.0</ele><time>2026-04-19T15:18:23.511Z</time></trkpt><trkpt lat="38.0591617" lon="16.1397117"><ele>8.0</ele><time>2026-04-19T15:18:24.511Z</time></trkpt><trkpt lat="38.0589517" lon="16.139665"><ele>8.0</ele><time>2026-04-19T15:18:25.512Z</time></trkpt><trkpt lat="38.05874" lon="16.1396217"><ele>9.333333333333332</ele><time>2026-04-19T15:18:26.511Z</time></trkpt><trkpt lat="38.0585283" lon="16.1395833"><ele>10.666666666666666</ele><time>2026-04-19T15:18:27.512Z</time></trkpt><trkpt lat="38.058315" lon="16.139535"><ele>12.0</ele><time>2026-04-19T15:18:28.511Z</time></trkpt><trkpt lat="38.058105" lon="16.139495"><ele>12.333333333333332</ele><time>2026-04-19T15:18:29.511Z</time></trkpt><trkpt lat="38.0578983" lon="16.1394567"><ele>12.666666666666666</ele><time>2026-04-19T15:18:30.511Z</time></trkpt><trkpt lat="38.0577033" lon="16.13942"><ele>13.0</ele><time>2026-04-19T15:18:31.511Z</time></trkpt><trkpt lat="38.0575133" lon="16.139405"><ele>14.333333333333332</ele><time>2026-04-19T15:18:32.511Z</time></trkpt><trkpt lat="38.0573167" lon="16.1394133"><ele>15.666666666666668</ele><time>2026-04-19T15:18:33.511Z</time></trkpt><trkpt lat="38.0571233" lon="16.1394467"><ele>17.0</ele><time>2026-04-19T15:18:34.511Z</time></trkpt><trkpt lat="38.0569267" lon="16.1394983"><ele>17.0</ele><time>2026-04-19T15:18:35.511Z</time></trkpt><trkpt lat="38.0567317" lon="16.1395567"><ele>17.0</ele><time>2026-04-19T15:18:36.512Z</time></trkpt><trkpt lat="38.0565317" lon="16.1396083"><ele>17.0</ele><time>2026-04-19T15:18:37.511Z</time></trkpt><trkpt lat="38.0563333" lon="16.139645"><ele>17.0</ele><time>2026-04-19T15:18:38.511Z</time></trkpt><trkpt lat="38.0561233" lon="16.1396767"><ele>17.0</ele><time>2026-04-19T15:18:39.512Z</time></trkpt><trkpt lat="38.0559183" lon="16.1396617"><ele>17.0</ele><time>2026-04-19T15:18:40.511Z</time></trkpt><trkpt lat="38.055715" lon="16.13961"><ele>17.0</ele><time>2026-04-19T15:18:41.511Z</time></trkpt><trkpt lat="38.0555167" lon="16.1395417"><ele>17.0</ele><time>2026-04-19T15:18:42.511Z</time></trkpt><trkpt lat="38.0553317" lon="16.13948"><ele>17.0</ele><time>2026-04-19T15:18:43.512Z</time></trkpt><trkpt lat="38.0551317" lon="16.13945"><ele>16.666666666666668</ele><time>2026-04-19T15:18:44.511Z</time></trkpt><trkpt lat="38.05495" lon="16.13941"><ele>16.333333333333332</ele><time>2026-04-19T15:18:45.511Z</time></trkpt><trkpt lat="38.0547683" lon="16.1393667"><ele>16.0</ele><time>2026-04-19T15:18:46.511Z</time></trkpt><trkpt lat="38.0546" lon="16.13933"><ele>16.0</ele><time>2026-04-19T15:18:47.511Z</time></trkpt><trkpt lat="38.054455" lon="16.1392917"><ele>16.0</ele><time>2026-04-19T15:18:48.511Z</time></trkpt><trkpt lat="38.05431" lon="16.1392617"><ele>16.0</ele><time>2026-04-19T15:18:49.512Z</time></trkpt><trkpt lat="38.054175" lon="16.1392333"><ele>16.0</ele><time>2026-04-19T15:18:50.511Z</time></trkpt><trkpt lat="38.0540583" lon="16.1391917"><ele>16.400000000000002</ele><time>2026-04-19T15:18:51.511Z</time></trkpt><trkpt lat="38.0539667" lon="16.139135"><ele>16.8</ele><time>2026-04-19T15:18:52.511Z</time></trkpt><trkpt lat="38.05388" lon="16.1390717"><ele>17.200000000000003</ele><time>2026-04-19T15:18:53.511Z</time></trkpt><trkpt lat="38.0538083" lon="16.13902"><ele>17.6</ele><time>2026-04-19T15:18:54.511Z</time></trkpt><trkpt lat="38.053745" lon="16.1389817"><ele>18.0</ele><time>2026-04-19T15:18:55.511Z</time></trkpt><trkpt lat="38.0536467" lon="16.139005"><ele>17.0</ele><time>2026-04-19T15:18:57.511Z</time></trkpt><trkpt lat="38.0535967" lon="16.1391017"><ele>16.0</ele><time>2026-04-19T15:18:59.511Z</time></trkpt><trkpt lat="38.0535433" lon="16.1391917"><ele>15.0</ele><time>2026-04-19T15:19:01.512Z</time></trkpt><trkpt lat="38.0534817" lon="16.1392217"><ele>14.0</ele><time>2026-04-19T15:19:02.511Z</time></trkpt><trkpt lat="38.0533917" lon="16.1392333"><ele>13.0</ele><time>2026-04-19T15:19:03.511Z</time></trkpt><trkpt lat="38.0532867" lon="16.13924"><ele>12.0</ele><time>2026-04-19T15:19:04.512Z</time></trkpt><trkpt lat="38.05317" lon="16.139235"><ele>11.75</ele><time>2026-04-19T15:19:05.511Z</time></trkpt><trkpt lat="38.0530383" lon="16.1392333"><ele>11.5</ele><time>2026-04-19T15:19:06.511Z</time></trkpt><trkpt lat="38.05289" lon="16.139235"><ele>11.25</ele><time>2026-04-19T15:19:07.511Z</time></trkpt><trkpt lat="38.052735" lon="16.1392383"><ele>11.0</ele><time>2026-04-19T15:19:08.511Z</time></trkpt><trkpt lat="38.0525733" lon="16.13923"><ele>10.0</ele><time>2026-04-19T15:19:09.511Z</time></trkpt><trkpt lat="38.0524067" lon="16.1392283"><ele>9.0</ele><time>2026-04-19T15:19:10.511Z</time></trkpt><trkpt lat="38.0522317" lon="16.139235"><ele>8.0</ele><time>2026-04-19T15:19:11.512Z</time></trkpt><trkpt lat="38.0520483" lon="16.1392317"><ele>8.0</ele><time>2026-04-19T15:19:12.511Z</time></trkpt><trkpt lat="38.05186" lon="16.1392333"><ele>8.0</ele><time>2026-04-19T15:19:13.511Z</time></trkpt><trkpt lat="38.05166" lon="16.139265"><ele>8.0</ele><time>2026-04-19T15:19:14.511Z</time></trkpt><trkpt lat="38.0514633" lon="16.1392917"><ele>7.666666666666666</ele><time>2026-04-19T15:19:15.512Z</time></trkpt><trkpt lat="38.05127" lon="16.1392967"><ele>7.333333333333334</ele><time>2026-04-19T15:19:16.511Z</time></trkpt><trkpt lat="38.0510867" lon="16.1393033"><ele>7.0</ele><time>2026-04-19T15:19:17.511Z</time></trkpt><trkpt lat="38.0508917" lon="16.1393033"><ele>6.666666666666667</ele><time>2026-04-19T15:19:18.511Z</time></trkpt><trkpt lat="38.0507083" lon="16.1393067"><ele>6.333333333333334</ele><time>2026-04-19T15:19:19.511Z</time></trkpt><trkpt lat="38.0505233" lon="16.139315"><ele>6.0</ele><time>2026-04-19T15:19:20.512Z</time></trkpt><trkpt lat="38.050335" lon="16.139335"><ele>6.0</ele><time>2026-04-19T15:19:21.511Z</time></trkpt><trkpt lat="38.0501517" lon="16.139345"><ele>6.0</ele><time>2026-04-19T15:19:22.512Z</time></trkpt><trkpt lat="38.0499667" lon="16.139355"><ele>6.0</ele><time>2026-04-19T15:19:23.512Z</time></trkpt><trkpt lat="38.0497783" lon="16.1393633"><ele>5.666666666666667</ele><time>2026-04-19T15:19:24.511Z</time></trkpt><trkpt lat="38.0495933" lon="16.1393517"><ele>5.333333333333334</ele><time>2026-04-19T15:19:25.511Z</time></trkpt><trkpt lat="38.0494183" lon="16.1393433"><ele>5.0</ele><time>2026-04-19T15:19:26.511Z</time></trkpt><trkpt lat="38.04923" lon="16.139345"><ele>5.333333333333334</ele><time>2026-04-19T15:19:27.512Z</time></trkpt><trkpt lat="38.0490367" lon="16.1393533"><ele>5.666666666666667</ele><time>2026-04-19T15:19:28.511Z</time></trkpt><trkpt lat="38.0488467" lon="16.13936"><ele>6.0</ele><time>2026-04-19T15:19:29.512Z</time></trkpt><trkpt lat="38.0486567" lon="16.1393583"><ele>6.0</ele><time>2026-04-19T15:19:30.511Z</time></trkpt><trkpt lat="38.0484667" lon="16.1393567"><ele>6.0</ele><time>2026-04-19T15:19:31.511Z</time></trkpt><trkpt lat="38.04828" lon="16.1393683"><ele>6.0</ele><time>2026-04-19T15:19:32.512Z</time></trkpt><trkpt lat="38.04809" lon="16.1393683"><ele>6.333333333333334</ele><time>2026-04-19T15:19:33.511Z</time></trkpt><trkpt lat="38.0478983" lon="16.139375"><ele>6.666666666666667</ele><time>2026-04-19T15:19:34.512Z</time></trkpt><trkpt lat="38.0477033" lon="16.1393917"><ele>7.0</ele><time>2026-04-19T15:19:35.511Z</time></trkpt><trkpt lat="38.0475083" lon="16.1393967"><ele>7.333333333333334</ele><time>2026-04-19T15:19:36.511Z</time></trkpt><trkpt lat="38.047315" lon="16.1393983"><ele>7.666666666666666</ele><time>2026-04-19T15:19:37.511Z</time></trkpt><trkpt lat="38.0471183" lon="16.1394133"><ele>8.0</ele><time>2026-04-19T15:19:38.511Z</time></trkpt><trkpt lat="38.0469267" lon="16.1394167"><ele>8.0</ele><time>2026-04-19T15:19:39.512Z</time></trkpt><trkpt lat="38.04674" lon="16.1394133"><ele>8.0</ele><time>2026-04-19T15:19:40.512Z</time></trkpt><trkpt lat="38.0465483" lon="16.1394267"><ele>8.0</ele><time>2026-04-19T15:19:41.511Z</time></trkpt><trkpt lat="38.046355" lon="16.1394617"><ele>8.333333333333332</ele><time>2026-04-19T15:19:42.511Z</time></trkpt><trkpt lat="38.04616" lon="16.1395133"><ele>8.666666666666666</ele><time>2026-04-19T15:19:43.511Z</time></trkpt><trkpt lat="38.0459717" lon="16.1395767"><ele>9.0</ele><time>2026-04-19T15:19:44.511Z</time></trkpt><trkpt lat="38.0457833" lon="16.1396467"><ele>9.0</ele><time>2026-04-19T15:19:45.512Z</time></trkpt><trkpt lat="38.045595" lon="16.1397367"><ele>9.0</ele><time>2026-04-19T15:19:46.511Z</time></trkpt><trkpt lat="38.0454017" lon="16.1398167"><ele>9.0</ele><time>2026-04-19T15:19:47.511Z</time></trkpt><trkpt lat="38.045215" lon="16.1399083"><ele>9.0</ele><time>2026-04-19T15:19:48.511Z</time></trkpt><trkpt lat="38.0450283" lon="16.13999"><ele>9.0</ele><time>2026-04-19T15:19:49.512Z</time></trkpt><trkpt lat="38.0448383" lon="16.1400633"><ele>9.0</ele><time>2026-04-19T15:19:50.511Z</time></trkpt><trkpt lat="38.0446483" lon="16.1401483"><ele>10.666666666666668</ele><time>2026-04-19T15:19:51.511Z</time></trkpt><trkpt lat="38.0444567" lon="16.140235"><ele>12.333333333333334</ele><time>2026-04-19T15:19:52.511Z</time></trkpt><trkpt lat="38.0442717" lon="16.1403267"><ele>14.0</ele><time>2026-04-19T15:19:53.512Z</time></trkpt><trkpt lat="38.0440783" lon="16.1404017"><ele>17.333333333333336</ele><time>2026-04-19T15:19:54.511Z</time></trkpt><trkpt lat="38.0438867" lon="16.1404883"><ele>20.666666666666668</ele><time>2026-04-19T15:19:55.511Z</time></trkpt><trkpt lat="38.0437" lon="16.1405733"><ele>24.0</ele><time>2026-04-19T15:19:56.512Z</time></trkpt><trkpt lat="38.04351" lon="16.1406433"><ele>24.0</ele><time>2026-04-19T15:19:57.512Z</time></trkpt><trkpt lat="38.0433267" lon="16.140695"><ele>24.0</ele><time>2026-04-19T15:19:58.511Z</time></trkpt><trkpt lat="38.0431367" lon="16.1407317"><ele>24.0</ele><time>2026-04-19T15:19:59.511Z</time></trkpt><trkpt lat="38.0429483" lon="16.1407533"><ele>22.0</ele><time>2026-04-19T15:20:00.511Z</time></trkpt><trkpt lat="38.0427667" lon="16.140775"><ele>20.0</ele><time>2026-04-19T15:20:01.511Z</time></trkpt><trkpt lat="38.0425767" lon="16.1408417"><ele>18.0</ele><time>2026-04-19T15:20:02.511Z</time></trkpt><trkpt lat="38.0424017" lon="16.140935"><ele>24.333333333333336</ele><time>2026-04-19T15:20:03.511Z</time></trkpt><trkpt lat="38.0422283" lon="16.1410483"><ele>30.666666666666668</ele><time>2026-04-19T15:20:04.512Z</time></trkpt><trkpt lat="38.0420683" lon="16.1411683"><ele>37.0</ele><time>2026-04-19T15:20:05.511Z</time></trkpt><trkpt lat="38.0419133" lon="16.1413083"><ele>37.0</ele><time>2026-04-19T15:20:06.512Z</time></trkpt><trkpt lat="38.0417667" lon="16.1414483"><ele>37.0</ele><time>2026-04-19T15:20:07.512Z</time></trkpt><trkpt lat="38.0416217" lon="16.1415967"><ele>37.0</ele><time>2026-04-19T15:20:08.511Z</time></trkpt><trkpt lat="38.041485" lon="16.1417367"><ele>41.66666666666667</ele><time>2026-04-19T15:20:09.511Z</time></trkpt><trkpt lat="38.0413483" lon="16.1418667"><ele>46.333333333333336</ele><time>2026-04-19T15:20:10.511Z</time></trkpt><trkpt lat="38.0412133" lon="16.141985"><ele>51.0</ele><time>2026-04-19T15:20:11.511Z</time></trkpt><trkpt lat="38.041105" lon="16.1420983"><ele>51.0</ele><time>2026-04-19T15:20:12.511Z</time></trkpt><trkpt lat="38.0409967" lon="16.1422167"><ele>51.0</ele><time>2026-04-19T15:20:13.511Z</time></trkpt><trkpt lat="38.0408983" lon="16.142325"><ele>51.0</ele><time>2026-04-19T15:20:14.512Z</time></trkpt><trkpt lat="38.040815" lon="16.1424267"><ele>51.0</ele><time>2026-04-19T15:20:15.511Z</time></trkpt><trkpt lat="38.0407133" lon="16.142535"><ele>55.0</ele><time>2026-04-19T15:20:16.511Z</time></trkpt><trkpt lat="38.040615" lon="16.1426817"><ele>59.0</ele><time>2026-04-19T15:20:17.512Z</time></trkpt><trkpt lat="38.0405217" lon="16.1428533"><ele>63.0</ele><time>2026-04-19T15:20:18.511Z</time></trkpt><trkpt lat="38.0404467" lon="16.143045"><ele>58.33333333333333</ele><time>2026-04-19T15:20:19.511Z</time></trkpt><trkpt lat="38.0403917" lon="16.1432617"><ele>53.666666666666664</ele><time>2026-04-19T15:20:20.512Z</time></trkpt><trkpt lat="38.04033" lon="16.14347"><ele>49.0</ele><time>2026-04-19T15:20:21.512Z</time></trkpt><trkpt lat="38.040285" lon="16.1436733"><ele>49.0</ele><time>2026-04-19T15:20:22.511Z</time></trkpt><trkpt lat="38.0402583" lon="16.1438733"><ele>49.0</ele><time>2026-04-19T15:20:23.512Z</time></trkpt><trkpt lat="38.0402083" lon="16.1440533"><ele>49.0</ele><time>2026-04-19T15:20:24.511Z</time></trkpt><trkpt lat="38.040145" lon="16.144225"><ele>47.0</ele><time>2026-04-19T15:20:25.511Z</time></trkpt><trkpt lat="38.0400683" lon="16.1443783"><ele>45.0</ele><time>2026-04-19T15:20:26.511Z</time></trkpt><trkpt lat="38.0399917" lon="16.144525"><ele>43.0</ele><time>2026-04-19T15:20:27.511Z</time></trkpt><trkpt lat="38.0399067" lon="16.1446533"><ele>41.0</ele><time>2026-04-19T15:20:28.512Z</time></trkpt><trkpt lat="38.0398017" lon="16.1447583"><ele>41.0</ele><time>2026-04-19T15:20:29.511Z</time></trkpt><trkpt lat="38.0396833" lon="16.1448333"><ele>41.0</ele><time>2026-04-19T15:20:30.511Z</time></trkpt><trkpt lat="38.0395583" lon="16.1448533"><ele>41.0</ele><time>2026-04-19T15:20:31.511Z</time></trkpt><trkpt lat="38.0394183" lon="16.14484"><ele>41.0</ele><time>2026-04-19T15:20:32.511Z</time></trkpt><trkpt lat="38.0392717" lon="16.14478"><ele>30.333333333333332</ele><time>2026-04-19T15:20:33.511Z</time></trkpt><trkpt lat="38.0391317" lon="16.1446717"><ele>19.666666666666664</ele><time>2026-04-19T15:20:34.512Z</time></trkpt><trkpt lat="38.039025" lon="16.144515"><ele>9.0</ele><time>2026-04-19T15:20:35.511Z</time></trkpt><trkpt lat="38.0389217" lon="16.1443333"><ele>9.0</ele><time>2026-04-19T15:20:36.511Z</time></trkpt><trkpt lat="38.03881" lon="16.1441333"><ele>9.0</ele><time>2026-04-19T15:20:37.511Z</time></trkpt><trkpt lat="38.0386933" lon="16.143925"><ele>9.0</ele><time>2026-04-19T15:20:38.511Z</time></trkpt><trkpt lat="38.0385667" lon="16.1437117"><ele>16.0</ele><time>2026-04-19T15:20:39.511Z</time></trkpt><trkpt lat="38.0384383" lon="16.1435033"><ele>23.0</ele><time>2026-04-19T15:20:40.511Z</time></trkpt><trkpt lat="38.0383133" lon="16.1433117"><ele>30.0</ele><time>2026-04-19T15:20:41.511Z</time></trkpt><trkpt lat="38.038185" lon="16.143135"><ele>30.0</ele><time>2026-04-19T15:20:42.511Z</time></trkpt><trkpt lat="38.0380467" lon="16.1429417"><ele>30.0</ele><time>2026-04-19T15:20:43.511Z</time></trkpt><trkpt lat="38.037885" lon="16.1428083"><ele>30.0</ele><time>2026-04-19T15:20:44.511Z</time></trkpt><trkpt lat="38.0376967" lon="16.1427333"><ele>30.0</ele><time>2026-04-19T15:20:45.511Z</time></trkpt><trkpt lat="38.0374933" lon="16.1426933"><ele>30.0</ele><time>2026-04-19T15:20:46.511Z</time></trkpt><trkpt lat="38.0372817" lon="16.1426733"><ele>30.0</ele><time>2026-04-19T15:20:47.511Z</time></trkpt><trkpt lat="38.0370717" lon="16.142655"><ele>29.0</ele><time>2026-04-19T15:20:48.511Z</time></trkpt><trkpt lat="38.0368517" lon="16.1426317"><ele>28.0</ele><time>2026-04-19T15:20:49.511Z</time></trkpt><trkpt lat="38.0366333" lon="16.1426083"><ele>27.0</ele><time>2026-04-19T15:20:50.511Z</time></trkpt><trkpt lat="38.0364117" lon="16.1425833"><ele>28.333333333333336</ele><time>2026-04-19T15:20:51.511Z</time></trkpt><trkpt lat="38.0361883" lon="16.1425417"><ele>29.666666666666668</ele><time>2026-04-19T15:20:52.512Z</time></trkpt><trkpt lat="38.0359683" lon="16.1425167"><ele>31.0</ele><time>2026-04-19T15:20:53.511Z</time></trkpt><trkpt lat="38.035745" lon="16.1425017"><ele>31.0</ele><time>2026-04-19T15:20:54.511Z</time></trkpt><trkpt lat="38.03552" lon="16.1425167"><ele>31.0</ele><time>2026-04-19T15:20:55.511Z</time></trkpt><trkpt lat="38.0352933" lon="16.1425633"><ele>31.0</ele><time>2026-04-19T15:20:56.511Z</time></trkpt><trkpt lat="38.0350733" lon="16.14261"><ele>31.0</ele><time>2026-04-19T15:20:57.511Z</time></trkpt><trkpt lat="38.0348467" lon="16.1426583"><ele>37.0</ele><time>2026-04-19T15:20:58.512Z</time></trkpt><trkpt lat="38.0346233" lon="16.1426983"><ele>43.0</ele><time>2026-04-19T15:20:59.512Z</time></trkpt><trkpt lat="38.0343967" lon="16.1427367"><ele>43.0</ele><time>2026-04-19T15:21:00.512Z</time></trkpt><trkpt lat="38.0341717" lon="16.142775"><ele>43.0</ele><time>2026-04-19T15:21:01.511Z</time></trkpt><trkpt lat="38.03396" lon="16.142815"><ele>43.0</ele><time>2026-04-19T15:21:02.511Z</time></trkpt><trkpt lat="38.0337467" lon="16.1428733"><ele>47.0</ele><time>2026-04-19T15:21:03.512Z</time></trkpt><trkpt lat="38.033535" lon="16.14295"><ele>51.0</ele><time>2026-04-19T15:21:04.512Z</time></trkpt><trkpt lat="38.0333183" lon="16.1430383"><ele>55.0</ele><time>2026-04-19T15:21:05.511Z</time></trkpt><trkpt lat="38.03311" lon="16.1431233"><ele>57.5</ele><time>2026-04-19T15:21:06.511Z</time></trkpt><trkpt lat="38.0328883" lon="16.1431933"><ele>60.0</ele><time>2026-04-19T15:21:07.511Z</time></trkpt><trkpt lat="38.032665" lon="16.1432383"><ele>54.666666666666664</ele><time>2026-04-19T15:21:08.511Z</time></trkpt><trkpt lat="38.03245" lon="16.1432317"><ele>49.33333333333333</ele><time>2026-04-19T15:21:09.511Z</time></trkpt><trkpt lat="38.0322333" lon="16.1432017"><ele>44.0</ele><time>2026-04-19T15:21:10.511Z</time></trkpt><trkpt lat="38.0320217" lon="16.1431633"><ele>44.0</ele><time>2026-04-19T15:21:11.511Z</time></trkpt><trkpt lat="38.0318067" lon="16.1431017"><ele>44.0</ele><time>2026-04-19T15:21:12.511Z</time></trkpt><trkpt lat="38.0315933" lon="16.1430167"><ele>44.0</ele><time>2026-04-19T15:21:13.511Z</time></trkpt><trkpt lat="38.0313867" lon="16.142915"><ele>39.0</ele><time>2026-04-19T15:21:14.511Z</time></trkpt><trkpt lat="38.031185" lon="16.1428"><ele>34.0</ele><time>2026-04-19T15:21:15.511Z</time></trkpt><trkpt lat="38.0310017" lon="16.1426617"><ele>29.0</ele><time>2026-04-19T15:21:16.511Z</time></trkpt><trkpt lat="38.0308083" lon="16.14254"><ele>27.0</ele><time>2026-04-19T15:21:17.511Z</time></trkpt><trkpt lat="38.0306017" lon="16.1424433"><ele>25.0</ele><time>2026-04-19T15:21:18.511Z</time></trkpt><trkpt lat="38.0303967" lon="16.1423717"><ele>23.0</ele><time>2026-04-19T15:21:19.511Z</time></trkpt><trkpt lat="38.0302" lon="16.1423283"><ele>34.25</ele><time>2026-04-19T15:21:20.511Z</time></trkpt><trkpt lat="38.0300367" lon="16.142295"><ele>45.5</ele><time>2026-04-19T15:21:21.511Z</time></trkpt><trkpt lat="38.0299067" lon="16.1422733"><ele>56.75</ele><time>2026-04-19T15:21:22.511Z</time></trkpt><trkpt lat="38.0298217" lon="16.1422317"><ele>68.0</ele><time>2026-04-19T15:21:23.512Z</time></trkpt><trkpt lat="38.0297567" lon="16.14223"><ele>68.0</ele><time>2026-04-19T15:21:24.511Z</time></trkpt><trkpt lat="38.0296917" lon="16.1422417"><ele>68.0</ele><time>2026-04-19T15:21:26.511Z</time></trkpt><trkpt lat="38.0296367" lon="16.1423233"><ele>68.0</ele><time>2026-04-19T15:22:19.512Z</time></trkpt><trkpt lat="38.0294983" lon="16.1423283"><ele>68.0</ele><time>2026-04-19T15:22:21.511Z</time></trkpt><trkpt lat="38.0294017" lon="16.14231"><ele>68.0</ele><time>2026-04-19T15:22:22.511Z</time></trkpt><trkpt lat="38.0292767" lon="16.142295"><ele>58.25</ele><time>2026-04-19T15:22:23.511Z</time></trkpt><trkpt lat="38.0291367" lon="16.142265"><ele>48.5</ele><time>2026-04-19T15:22:24.511Z</time></trkpt><trkpt lat="38.0290067" lon="16.1421817"><ele>38.75</ele><time>2026-04-19T15:22:25.511Z</time></trkpt><trkpt lat="38.0288667" lon="16.1420833"><ele>29.0</ele><time>2026-04-19T15:22:26.511Z</time></trkpt><trkpt lat="38.02872" lon="16.1419717"><ele>29.0</ele><time>2026-04-19T15:22:27.512Z</time></trkpt><trkpt lat="38.028565" lon="16.14184"><ele>29.0</ele><time>2026-04-19T15:22:28.511Z</time></trkpt><trkpt lat="38.0284" lon="16.1416983"><ele>29.0</ele><time>2026-04-19T15:22:29.511Z</time></trkpt><trkpt lat="38.02824" lon="16.141535"><ele>26.666666666666664</ele><time>2026-04-19T15:22:30.512Z</time></trkpt><trkpt lat="38.02808" lon="16.14136"><ele>24.333333333333332</ele><time>2026-04-19T15:22:31.511Z</time></trkpt><trkpt lat="38.0279233" lon="16.1411667"><ele>22.0</ele><time>2026-04-19T15:22:32.512Z</time></trkpt><trkpt lat="38.02777" lon="16.1409833"><ele>22.0</ele><time>2026-04-19T15:22:33.511Z</time></trkpt><trkpt lat="38.0276083" lon="16.1408033"><ele>22.0</ele><time>2026-04-19T15:22:34.512Z</time></trkpt><trkpt lat="38.027435" lon="16.1406383"><ele>22.0</ele><time>2026-04-19T15:22:35.511Z</time></trkpt><trkpt lat="38.0272667" lon="16.1404783"><ele>21.333333333333332</ele><time>2026-04-19T15:22:36.511Z</time></trkpt><trkpt lat="38.0271017" lon="16.14031"><ele>20.666666666666668</ele><time>2026-04-19T15:22:37.511Z</time></trkpt><trkpt lat="38.0269317" lon="16.140155"><ele>20.0</ele><time>2026-04-19T15:22:38.511Z</time></trkpt><trkpt lat="38.026765" lon="16.1399917"><ele>19.666666666666668</ele><time>2026-04-19T15:22:39.511Z</time></trkpt><trkpt lat="38.0265833" lon="16.1398467"><ele>19.333333333333332</ele><time>2026-04-19T15:22:40.511Z</time></trkpt><trkpt lat="38.0263983" lon="16.13971"><ele>19.0</ele><time>2026-04-19T15:22:41.511Z</time></trkpt><trkpt lat="38.026205" lon="16.1395767"><ele>19.0</ele><time>2026-04-19T15:22:42.511Z</time></trkpt><trkpt lat="38.0260167" lon="16.1394517"><ele>19.0</ele><time>2026-04-19T15:22:43.511Z</time></trkpt><trkpt lat="38.0258183" lon="16.139355"><ele>19.0</ele><time>2026-04-19T15:22:44.511Z</time></trkpt><trkpt lat="38.025615" lon="16.13927"><ele>19.333333333333332</ele><time>2026-04-19T15:22:45.511Z</time></trkpt><trkpt lat="38.0254017" lon="16.1391783"><ele>19.666666666666668</ele><time>2026-04-19T15:22:46.511Z</time></trkpt><trkpt lat="38.0251917" lon="16.139095"><ele>20.0</ele><time>2026-04-19T15:22:47.512Z</time></trkpt><trkpt lat="38.024975" lon="16.1390083"><ele>20.0</ele><time>2026-04-19T15:22:48.511Z</time></trkpt><trkpt lat="38.0247633" lon="16.1389167"><ele>20.0</ele><time>2026-04-19T15:22:49.512Z</time></trkpt><trkpt lat="38.0245533" lon="16.1388283"><ele>20.0</ele><time>2026-04-19T15:22:50.511Z</time></trkpt><trkpt lat="38.0243433" lon="16.1387383"><ele>17.333333333333336</ele><time>2026-04-19T15:22:51.512Z</time></trkpt><trkpt lat="38.0241333" lon="16.1386367"><ele>14.666666666666668</ele><time>2026-04-19T15:22:52.511Z</time></trkpt><trkpt lat="38.0239283" lon="16.1385367"><ele>12.0</ele><time>2026-04-19T15:22:53.511Z</time></trkpt><trkpt lat="38.0237233" lon="16.1384417"><ele>12.0</ele><time>2026-04-19T15:22:54.512Z</time></trkpt><trkpt lat="38.0235217" lon="16.1383433"><ele>12.0</ele><time>2026-04-19T15:22:55.511Z</time></trkpt><trkpt lat="38.0233233" lon="16.1382383"><ele>12.0</ele><time>2026-04-19T15:22:56.511Z</time></trkpt><trkpt lat="38.0231267" lon="16.138135"><ele>13.666666666666668</ele><time>2026-04-19T15:22:57.511Z</time></trkpt><trkpt lat="38.0229467" lon="16.13803"><ele>15.333333333333334</ele><time>2026-04-19T15:22:58.511Z</time></trkpt><trkpt lat="38.0227733" lon="16.137915"><ele>17.0</ele><time>2026-04-19T15:22:59.511Z</time></trkpt><trkpt lat="38.0225967" lon="16.1377883"><ele>17.333333333333336</ele><time>2026-04-19T15:23:00.511Z</time></trkpt><trkpt lat="38.0224267" lon="16.1376217"><ele>17.666666666666668</ele><time>2026-04-19T15:23:01.511Z</time></trkpt><trkpt lat="38.0222567" lon="16.1374583"><ele>18.0</ele><time>2026-04-19T15:23:02.511Z</time></trkpt><trkpt lat="38.02211" lon="16.1372733"><ele>18.0</ele><time>2026-04-19T15:23:03.511Z</time></trkpt><trkpt lat="38.0219567" lon="16.1370833"><ele>18.0</ele><time>2026-04-19T15:23:04.512Z</time></trkpt><trkpt lat="38.0218017" lon="16.1368917"><ele>18.0</ele><time>2026-04-19T15:23:05.511Z</time></trkpt><trkpt lat="38.021645" lon="16.1367033"><ele>17.0</ele><time>2026-04-19T15:23:06.511Z</time></trkpt><trkpt lat="38.0214817" lon="16.136525"><ele>16.0</ele><time>2026-04-19T15:23:07.511Z</time></trkpt><trkpt lat="38.0213217" lon="16.1363333"><ele>15.0</ele><time>2026-04-19T15:23:08.512Z</time></trkpt><trkpt lat="38.0211667" lon="16.1361517"><ele>15.0</ele><time>2026-04-19T15:23:09.511Z</time></trkpt><trkpt lat="38.0210083" lon="16.1359683"><ele>15.0</ele><time>2026-04-19T15:23:10.511Z</time></trkpt><trkpt lat="38.0208633" lon="16.13579"><ele>15.0</ele><time>2026-04-19T15:23:11.512Z</time></trkpt><trkpt lat="38.0207283" lon="16.13559"><ele>13.666666666666666</ele><time>2026-04-19T15:23:12.512Z</time></trkpt><trkpt lat="38.02059" lon="16.1353833"><ele>12.333333333333332</ele><time>2026-04-19T15:23:13.512Z</time></trkpt><trkpt lat="38.02045" lon="16.135155"><ele>11.0</ele><time>2026-04-19T15:23:14.511Z</time></trkpt><trkpt lat="38.0203267" lon="16.1349267"><ele>11.666666666666666</ele><time>2026-04-19T15:23:15.511Z</time></trkpt><trkpt lat="38.0201933" lon="16.1346917"><ele>12.333333333333332</ele><time>2026-04-19T15:23:16.511Z</time></trkpt><trkpt lat="38.0200417" lon="16.1344933"><ele>13.0</ele><time>2026-04-19T15:23:17.512Z</time></trkpt><trkpt lat="38.0198817" lon="16.134315"><ele>11.0</ele><time>2026-04-19T15:23:18.511Z</time></trkpt><trkpt lat="38.019705" lon="16.13417"><ele>9.0</ele><time>2026-04-19T15:23:19.511Z</time></trkpt><trkpt lat="38.0194867" lon="16.1340417"><ele>8.5</ele><time>2026-04-19T15:23:20.511Z</time></trkpt><trkpt lat="38.01925" lon="16.13395"><ele>8.0</ele><time>2026-04-19T15:23:21.511Z</time></trkpt><trkpt lat="38.0190033" lon="16.13385"><ele>8.0</ele><time>2026-04-19T15:23:22.511Z</time></trkpt><trkpt lat="38.0187567" lon="16.1337383"><ele>8.0</ele><time>2026-04-19T15:23:23.511Z</time></trkpt><trkpt lat="38.0185083" lon="16.133635"><ele>10.0</ele><time>2026-04-19T15:23:24.512Z</time></trkpt><trkpt lat="38.0182733" lon="16.1335367"><ele>12.0</ele><time>2026-04-19T15:23:25.511Z</time></trkpt><trkpt lat="38.0180517" lon="16.13345"><ele>12.0</ele><time>2026-04-19T15:23:26.511Z</time></trkpt><trkpt lat="38.0178467" lon="16.1333883"><ele>12.0</ele><time>2026-04-19T15:23:27.511Z</time></trkpt><trkpt lat="38.0176433" lon="16.1333533"><ele>12.0</ele><time>2026-04-19T15:23:28.512Z</time></trkpt><trkpt lat="38.01743" lon="16.133365"><ele>14.666666666666668</ele><time>2026-04-19T15:23:29.511Z</time></trkpt><trkpt lat="38.01723" lon="16.133445"><ele>17.333333333333336</ele><time>2026-04-19T15:23:30.511Z</time></trkpt><trkpt lat="38.017025" lon="16.1335717"><ele>20.0</ele><time>2026-04-19T15:23:31.511Z</time></trkpt><trkpt lat="38.0168217" lon="16.133685"><ele>21.0</ele><time>2026-04-19T15:23:32.511Z</time></trkpt><trkpt lat="38.0166183" lon="16.1337833"><ele>22.0</ele><time>2026-04-19T15:23:33.511Z</time></trkpt><trkpt lat="38.0163933" lon="16.1338283"><ele>23.0</ele><time>2026-04-19T15:23:34.512Z</time></trkpt><trkpt lat="38.0161667" lon="16.13381"><ele>23.0</ele><time>2026-04-19T15:23:35.512Z</time></trkpt><trkpt lat="38.0159383" lon="16.13372"><ele>23.0</ele><time>2026-04-19T15:23:36.511Z</time></trkpt><trkpt lat="38.0157117" lon="16.1335783"><ele>19.0</ele><time>2026-04-19T15:23:37.511Z</time></trkpt><trkpt lat="38.01548" lon="16.1334267"><ele>15.0</ele><time>2026-04-19T15:23:38.511Z</time></trkpt><trkpt lat="38.0152283" lon="16.13328"><ele>17.0</ele><time>2026-04-19T15:23:39.511Z</time></trkpt><trkpt lat="38.0150017" lon="16.13314"><ele>19.0</ele><time>2026-04-19T15:23:40.511Z</time></trkpt><trkpt lat="38.0147683" lon="16.132985"><ele>19.0</ele><time>2026-04-19T15:23:41.512Z</time></trkpt><trkpt lat="38.0145317" lon="16.1328317"><ele>19.0</ele><time>2026-04-19T15:23:42.511Z</time></trkpt><trkpt lat="38.0142917" lon="16.1326783"><ele>19.0</ele><time>2026-04-19T15:23:43.512Z</time></trkpt><trkpt lat="38.0140467" lon="16.132535"><ele>19.0</ele><time>2026-04-19T15:23:44.511Z</time></trkpt><trkpt lat="38.0137983" lon="16.132375"><ele>19.0</ele><time>2026-04-19T15:23:45.511Z</time></trkpt><trkpt lat="38.01354" lon="16.1322117"><ele>19.0</ele><time>2026-04-19T15:23:46.511Z</time></trkpt><trkpt lat="38.0132683" lon="16.1320683"><ele>17.0</ele><time>2026-04-19T15:23:47.511Z</time></trkpt><trkpt lat="38.0129967" lon="16.1319117"><ele>15.0</ele><time>2026-04-19T15:23:48.511Z</time></trkpt><trkpt lat="38.0127183" lon="16.1317533"><ele>17.0</ele><time>2026-04-19T15:23:49.511Z</time></trkpt><trkpt lat="38.0124467" lon="16.1316"><ele>19.0</ele><time>2026-04-19T15:23:50.511Z</time></trkpt><trkpt lat="38.012165" lon="16.1314467"><ele>19.0</ele><time>2026-04-19T15:23:51.512Z</time></trkpt><trkpt lat="38.0118833" lon="16.1312717"><ele>19.0</ele><time>2026-04-19T15:23:52.511Z</time></trkpt><trkpt lat="38.011605" lon="16.1310883"><ele>17.5</ele><time>2026-04-19T15:23:53.511Z</time></trkpt><trkpt lat="38.0113217" lon="16.1308983"><ele>16.0</ele><time>2026-04-19T15:23:54.512Z</time></trkpt><trkpt lat="38.01103" lon="16.130715"><ele>12.5</ele><time>2026-04-19T15:23:55.511Z</time></trkpt><trkpt lat="38.0107317" lon="16.1305417"><ele>9.0</ele><time>2026-04-19T15:23:56.511Z</time></trkpt><trkpt lat="38.01043" lon="16.1303517"><ele>9.0</ele><time>2026-04-19T15:23:57.511Z</time></trkpt><trkpt lat="38.0101267" lon="16.1301733"><ele>9.0</ele><time>2026-04-19T15:23:58.511Z</time></trkpt><trkpt lat="38.0098267" lon="16.1299933"><ele>10.0</ele><time>2026-04-19T15:23:59.512Z</time></trkpt><trkpt lat="38.00953" lon="16.1298033"><ele>11.0</ele><time>2026-04-19T15:24:00.511Z</time></trkpt><trkpt lat="38.0092233" lon="16.1296133"><ele>10.5</ele><time>2026-04-19T15:24:01.511Z</time></trkpt><trkpt lat="38.008915" lon="16.1294217"><ele>10.0</ele><time>2026-04-19T15:24:02.511Z</time></trkpt><trkpt lat="38.0086167" lon="16.129235"><ele>13.0</ele><time>2026-04-19T15:24:03.511Z</time></trkpt><trkpt lat="38.0083067" lon="16.1290517"><ele>16.0</ele><time>2026-04-19T15:24:04.512Z</time></trkpt><trkpt lat="38.0079967" lon="16.1288583"><ele>16.0</ele><time>2026-04-19T15:24:05.511Z</time></trkpt><trkpt lat="38.00769" lon="16.1286717"><ele>16.0</ele><time>2026-04-19T15:24:06.512Z</time></trkpt><trkpt lat="38.0073833" lon="16.1284933"><ele>15.5</ele><time>2026-04-19T15:24:07.511Z</time></trkpt><trkpt lat="38.0070717" lon="16.1283233"><ele>15.0</ele><time>2026-04-19T15:24:08.512Z</time></trkpt><trkpt lat="38.0067817" lon="16.1281517"><ele>13.0</ele><time>2026-04-19T15:24:09.512Z</time></trkpt><trkpt lat="38.00649" lon="16.128"><ele>11.0</ele><time>2026-04-19T15:24:10.512Z</time></trkpt><trkpt lat="38.0061933" lon="16.1278517"><ele>11.0</ele><time>2026-04-19T15:24:11.511Z</time></trkpt><trkpt lat="38.0058917" lon="16.1277267"><ele>11.0</ele><time>2026-04-19T15:24:12.511Z</time></trkpt><trkpt lat="38.0055883" lon="16.127605"><ele>11.0</ele><time>2026-04-19T15:24:13.512Z</time></trkpt><trkpt lat="38.00528" lon="16.127475"><ele>11.0</ele><time>2026-04-19T15:24:14.511Z</time></trkpt><trkpt lat="38.004985" lon="16.12735"><ele>15.0</ele><time>2026-04-19T15:24:15.512Z</time></trkpt><trkpt lat="38.0047" lon="16.1272167"><ele>19.0</ele><time>2026-04-19T15:24:16.511Z</time></trkpt><trkpt lat="38.004405" lon="16.1270817"><ele>13.5</ele><time>2026-04-19T15:24:17.511Z</time></trkpt><trkpt lat="38.0041183" lon="16.12695"><ele>8.0</ele><time>2026-04-19T15:24:18.511Z</time></trkpt><trkpt lat="38.0038367" lon="16.1268017"><ele>8.0</ele><time>2026-04-19T15:24:19.512Z</time></trkpt><trkpt lat="38.0035617" lon="16.1266417"><ele>8.0</ele><time>2026-04-19T15:24:20.511Z</time></trkpt><trkpt lat="38.0032867" lon="16.1264833"><ele>9.5</ele><time>2026-04-19T15:24:21.511Z</time></trkpt><trkpt lat="38.003015" lon="16.1263233"><ele>11.0</ele><time>2026-04-19T15:24:22.511Z</time></trkpt><trkpt lat="38.0027383" lon="16.1261683"><ele>7.5</ele><time>2026-04-19T15:24:23.511Z</time></trkpt><trkpt lat="38.0024717" lon="16.1259933"><ele>4.0</ele><time>2026-04-19T15:24:24.512Z</time></trkpt><trkpt lat="38.0022133" lon="16.1257983"><ele>7.0</ele><time>2026-04-19T15:24:25.511Z</time></trkpt><trkpt lat="38.0019833" lon="16.1256"><ele>10.0</ele><time>2026-04-19T15:24:26.511Z</time></trkpt><trkpt lat="38.001785" lon="16.1253633"><ele>9.0</ele><time>2026-04-19T15:24:27.511Z</time></trkpt><trkpt lat="38.0016067" lon="16.1250917"><ele>8.0</ele><time>2026-04-19T15:24:28.511Z</time></trkpt><trkpt lat="38.0014267" lon="16.1248333"><ele>8.0</ele><time>2026-04-19T15:24:29.511Z</time></trkpt><trkpt lat="38.0012367" lon="16.1245717"><ele>8.0</ele><time>2026-04-19T15:24:30.512Z</time></trkpt><trkpt lat="38.0010417" lon="16.1243067"><ele>7.5</ele><time>2026-04-19T15:24:31.511Z</time></trkpt><trkpt lat="38.0008467" lon="16.1240567"><ele>7.0</ele><time>2026-04-19T15:24:32.511Z</time></trkpt><trkpt lat="38.0006583" lon="16.1237967"><ele>7.0</ele><time>2026-04-19T15:24:33.511Z</time></trkpt><trkpt lat="38.000485" lon="16.1235383"><ele>7.0</ele><time>2026-04-19T15:24:34.511Z</time></trkpt><trkpt lat="38.0003033" lon="16.123305"><ele>8.0</ele><time>2026-04-19T15:24:35.511Z</time></trkpt><trkpt lat="38.0001067" lon="16.1231333"><ele>9.0</ele><time>2026-04-19T15:24:36.511Z</time></trkpt><trkpt lat="37.999905" lon="16.1230033"><ele>9.0</ele><time>2026-04-19T15:24:37.511Z</time></trkpt><trkpt lat="37.999695" lon="16.1228933"><ele>9.0</ele><time>2026-04-19T15:24:38.511Z</time></trkpt><trkpt lat="37.9994683" lon="16.1228267"><ele>9.0</ele><time>2026-04-19T15:24:39.511Z</time></trkpt><trkpt lat="37.999245" lon="16.1227883"><ele>9.0</ele><time>2026-04-19T15:24:40.512Z</time></trkpt><trkpt lat="37.999025" lon="16.1227867"><ele>9.0</ele><time>2026-04-19T15:24:41.511Z</time></trkpt><trkpt lat="37.9987983" lon="16.1228033"><ele>9.5</ele><time>2026-04-19T15:24:42.512Z</time></trkpt><trkpt lat="37.9985583" lon="16.1228283"><ele>10.0</ele><time>2026-04-19T15:24:43.511Z</time></trkpt><trkpt lat="37.9983117" lon="16.1228517"><ele>10.0</ele><time>2026-04-19T15:24:44.511Z</time></trkpt><trkpt lat="37.9980583" lon="16.1228667"><ele>10.0</ele><time>2026-04-19T15:24:45.511Z</time></trkpt><trkpt lat="37.997805" lon="16.1228467"><ele>10.0</ele><time>2026-04-19T15:24:46.511Z</time></trkpt><trkpt lat="37.9975467" lon="16.1227867"><ele>10.0</ele><time>2026-04-19T15:24:47.512Z</time></trkpt><trkpt lat="37.9972933" lon="16.122685"><ele>11.0</ele><time>2026-04-19T15:24:48.511Z</time></trkpt><trkpt lat="37.9970267" lon="16.122565"><ele>12.0</ele><time>2026-04-19T15:24:49.512Z</time></trkpt><trkpt lat="37.9967383" lon="16.1224633"><ele>18.5</ele><time>2026-04-19T15:24:50.511Z</time></trkpt><trkpt lat="37.9964383" lon="16.1223467"><ele>25.0</ele><time>2026-04-19T15:24:51.511Z</time></trkpt><trkpt lat="37.9961217" lon="16.1222283"><ele>20.0</ele><time>2026-04-19T15:24:52.512Z</time></trkpt><trkpt lat="37.995795" lon="16.12211"><ele>15.0</ele><time>2026-04-19T15:24:53.511Z</time></trkpt><trkpt lat="37.9954583" lon="16.121995"><ele>15.0</ele><time>2026-04-19T15:24:54.512Z</time></trkpt><trkpt lat="37.9951133" lon="16.121875"><ele>15.0</ele><time>2026-04-19T15:24:55.512Z</time></trkpt><trkpt lat="37.9947633" lon="16.1217517"><ele>16.5</ele><time>2026-04-19T15:24:56.511Z</time></trkpt><trkpt lat="37.99441" lon="16.1216283"><ele>18.0</ele><time>2026-04-19T15:24:57.511Z</time></trkpt><trkpt lat="37.994055" lon="16.1215067"><ele>18.0</ele><time>2026-04-19T15:24:58.511Z</time></trkpt><trkpt lat="37.99369" lon="16.1213883"><ele>18.0</ele><time>2026-04-19T15:24:59.512Z</time></trkpt><trkpt lat="37.99333" lon="16.1212667"><ele>15.5</ele><time>2026-04-19T15:25:00.511Z</time></trkpt><trkpt lat="37.992965" lon="16.1211383"><ele>13.0</ele><time>2026-04-19T15:25:01.511Z</time></trkpt><trkpt lat="37.9926067" lon="16.1210067"><ele>11.5</ele><time>2026-04-19T15:25:02.511Z</time></trkpt><trkpt lat="37.9922467" lon="16.12087"><ele>10.0</ele><time>2026-04-19T15:25:03.511Z</time></trkpt><trkpt lat="37.99189" lon="16.1207267"><ele>10.5</ele><time>2026-04-19T15:25:04.511Z</time></trkpt><trkpt lat="37.9915317" lon="16.12058"><ele>11.0</ele><time>2026-04-19T15:25:05.511Z</time></trkpt><trkpt lat="37.9911767" lon="16.120435"><ele>9.0</ele><time>2026-04-19T15:25:06.512Z</time></trkpt><trkpt lat="37.99082" lon="16.1202733"><ele>7.0</ele><time>2026-04-19T15:25:07.511Z</time></trkpt><trkpt lat="37.9904783" lon="16.1200883"><ele>8.5</ele><time>2026-04-19T15:25:08.511Z</time></trkpt><trkpt lat="37.9901483" lon="16.1198933"><ele>10.0</ele><time>2026-04-19T15:25:09.511Z</time></trkpt><trkpt lat="37.98982" lon="16.1196967"><ele>10.0</ele><time>2026-04-19T15:25:10.511Z</time></trkpt><trkpt lat="37.989495" lon="16.1195"><ele>10.0</ele><time>2026-04-19T15:25:11.511Z</time></trkpt><trkpt lat="37.9891633" lon="16.119305"><ele>10.0</ele><time>2026-04-19T15:25:12.511Z</time></trkpt><trkpt lat="37.9888417" lon="16.1191117"><ele>10.0</ele><time>2026-04-19T15:25:13.512Z</time></trkpt><trkpt lat="37.9885083" lon="16.11892"><ele>9.0</ele><time>2026-04-19T15:25:14.511Z</time></trkpt><trkpt lat="37.9881733" lon="16.1187267"><ele>8.0</ele><time>2026-04-19T15:25:15.511Z</time></trkpt><trkpt lat="37.9878367" lon="16.1185233"><ele>7.5</ele><time>2026-04-19T15:25:16.511Z</time></trkpt><trkpt lat="37.9875" lon="16.1183167"><ele>7.0</ele><time>2026-04-19T15:25:17.511Z</time></trkpt><trkpt lat="37.9871733" lon="16.1181217"><ele>6.5</ele><time>2026-04-19T15:25:18.511Z</time></trkpt><trkpt lat="37.9868467" lon="16.1179133"><ele>6.0</ele><time>2026-04-19T15:25:19.511Z</time></trkpt><trkpt lat="37.986515" lon="16.1177017"><ele>6.0</ele><time>2026-04-19T15:25:20.512Z</time></trkpt><trkpt lat="37.9861867" lon="16.11749"><ele>6.0</ele><time>2026-04-19T15:25:21.512Z</time></trkpt><trkpt lat="37.9858467" lon="16.117285"><ele>5.5</ele><time>2026-04-19T15:25:22.512Z</time></trkpt><trkpt lat="37.9855217" lon="16.1170967"><ele>5.0</ele><time>2026-04-19T15:25:23.512Z</time></trkpt><trkpt lat="37.98518" lon="16.1169283"><ele>5.0</ele><time>2026-04-19T15:25:24.511Z</time></trkpt><trkpt lat="37.984835" lon="16.116755"><ele>5.0</ele><time>2026-04-19T15:25:25.511Z</time></trkpt><trkpt lat="37.9844883" lon="16.1165667"><ele>5.0</ele><time>2026-04-19T15:25:26.511Z</time></trkpt><trkpt lat="37.9841433" lon="16.116375"><ele>5.0</ele><time>2026-04-19T15:25:27.512Z</time></trkpt><trkpt lat="37.9838" lon="16.1161767"><ele>5.0</ele><time>2026-04-19T15:25:28.511Z</time></trkpt><trkpt lat="37.983455" lon="16.115975"><ele>5.0</ele><time>2026-04-19T15:25:29.511Z</time></trkpt><trkpt lat="37.983105" lon="16.1157717"><ele>5.0</ele><time>2026-04-19T15:25:30.511Z</time></trkpt><trkpt lat="37.9827583" lon="16.1155617"><ele>5.0</ele><time>2026-04-19T15:25:31.511Z</time></trkpt><trkpt lat="37.9824083" lon="16.1153567"><ele>4.5</ele><time>2026-04-19T15:25:32.512Z</time></trkpt><trkpt lat="37.98206" lon="16.1151517"><ele>4.0</ele><time>2026-04-19T15:25:33.512Z</time></trkpt><trkpt lat="37.9817117" lon="16.11495"><ele>5.0</ele><time>2026-04-19T15:25:34.511Z</time></trkpt><trkpt lat="37.9813667" lon="16.1147467"><ele>6.0</ele><time>2026-04-19T15:25:35.512Z</time></trkpt><trkpt lat="37.98103" lon="16.1145567"><ele>6.5</ele><time>2026-04-19T15:25:36.511Z</time></trkpt><trkpt lat="37.9807033" lon="16.1143667"><ele>7.0</ele><time>2026-04-19T15:25:37.511Z</time></trkpt><trkpt lat="37.98038" lon="16.11418"><ele>8.0</ele><time>2026-04-19T15:25:38.511Z</time></trkpt><trkpt lat="37.9800633" lon="16.1139917"><ele>9.0</ele><time>2026-04-19T15:25:39.511Z</time></trkpt><trkpt lat="37.9797533" lon="16.1138133"><ele>9.0</ele><time>2026-04-19T15:25:40.511Z</time></trkpt><trkpt lat="37.9794483" lon="16.1136283"><ele>9.0</ele><time>2026-04-19T15:25:41.511Z</time></trkpt><trkpt lat="37.9791417" lon="16.1134517"><ele>9.0</ele><time>2026-04-19T15:25:42.512Z</time></trkpt><trkpt lat="37.97884" lon="16.1132717"><ele>9.0</ele><time>2026-04-19T15:25:43.512Z</time></trkpt><trkpt lat="37.978545" lon="16.1131033"><ele>9.0</ele><time>2026-04-19T15:25:44.511Z</time></trkpt><trkpt lat="37.9782567" lon="16.1129417"><ele>9.0</ele><time>2026-04-19T15:25:45.511Z</time></trkpt><trkpt lat="37.9779733" lon="16.1127717"><ele>9.0</ele><time>2026-04-19T15:25:46.511Z</time></trkpt><trkpt lat="37.9776817" lon="16.1126017"><ele>9.0</ele><time>2026-04-19T15:25:47.511Z</time></trkpt><trkpt lat="37.9774" lon="16.1124217"><ele>10.0</ele><time>2026-04-19T15:25:48.511Z</time></trkpt><trkpt lat="37.9771283" lon="16.112215"><ele>11.0</ele><time>2026-04-19T15:25:49.511Z</time></trkpt><trkpt lat="37.9768583" lon="16.111985"><ele>11.5</ele><time>2026-04-19T15:25:50.511Z</time></trkpt><trkpt lat="37.9765783" lon="16.1117533"><ele>12.0</ele><time>2026-04-19T15:25:51.511Z</time></trkpt><trkpt lat="37.9763033" lon="16.111505"><ele>12.0</ele><time>2026-04-19T15:25:52.511Z</time></trkpt><trkpt lat="37.976035" lon="16.1112517"><ele>12.0</ele><time>2026-04-19T15:25:53.511Z</time></trkpt><trkpt lat="37.9757767" lon="16.110975"><ele>12.0</ele><time>2026-04-19T15:25:54.511Z</time></trkpt><trkpt lat="37.97552" lon="16.1106917"><ele>12.0</ele><time>2026-04-19T15:25:55.511Z</time></trkpt><trkpt lat="37.9752617" lon="16.1104133"><ele>10.5</ele><time>2026-04-19T15:25:56.511Z</time></trkpt><trkpt lat="37.9749983" lon="16.1101367"><ele>9.0</ele><time>2026-04-19T15:25:57.512Z</time></trkpt><trkpt lat="37.9747317" lon="16.109865"><ele>9.0</ele><time>2026-04-19T15:25:58.512Z</time></trkpt><trkpt lat="37.9744667" lon="16.10959"><ele>9.0</ele><time>2026-04-19T15:25:59.512Z</time></trkpt><trkpt lat="37.9742067" lon="16.1093167"><ele>9.5</ele><time>2026-04-19T15:26:00.512Z</time></trkpt><trkpt lat="37.9739483" lon="16.1090483"><ele>10.0</ele><time>2026-04-19T15:26:01.511Z</time></trkpt><trkpt lat="37.9736933" lon="16.1087833"><ele>10.0</ele><time>2026-04-19T15:26:02.512Z</time></trkpt><trkpt lat="37.9734333" lon="16.1085233"><ele>10.0</ele><time>2026-04-19T15:26:03.511Z</time></trkpt><trkpt lat="37.9731717" lon="16.1082733"><ele>10.5</ele><time>2026-04-19T15:26:04.511Z</time></trkpt><trkpt lat="37.9729017" lon="16.1080583"><ele>11.0</ele><time>2026-04-19T15:26:05.511Z</time></trkpt><trkpt lat="37.9726333" lon="16.1078583"><ele>9.5</ele><time>2026-04-19T15:26:06.511Z</time></trkpt><trkpt lat="37.9723833" lon="16.1076683"><ele>8.0</ele><time>2026-04-19T15:26:07.511Z</time></trkpt><trkpt lat="37.9721517" lon="16.10749"><ele>9.5</ele><time>2026-04-19T15:26:08.511Z</time></trkpt><trkpt lat="37.97194" lon="16.1073333"><ele>11.0</ele><time>2026-04-19T15:26:09.512Z</time></trkpt><trkpt lat="37.9717467" lon="16.1071917"><ele>10.0</ele><time>2026-04-19T15:26:10.511Z</time></trkpt><trkpt lat="37.9715767" lon="16.1070667"><ele>9.0</ele><time>2026-04-19T15:26:11.511Z</time></trkpt><trkpt lat="37.97141" lon="16.1069483"><ele>8.0</ele><time>2026-04-19T15:26:12.511Z</time></trkpt><trkpt lat="37.971245" lon="16.1068517"><ele>8.0</ele><time>2026-04-19T15:26:13.511Z</time></trkpt><trkpt lat="37.9710917" lon="16.1067517"><ele>8.0</ele><time>2026-04-19T15:26:14.511Z</time></trkpt><trkpt lat="37.9709467" lon="16.1066467"><ele>8.0</ele><time>2026-04-19T15:26:15.512Z</time></trkpt><trkpt lat="37.9708067" lon="16.1065517"><ele>7.75</ele><time>2026-04-19T15:26:16.511Z</time></trkpt><trkpt lat="37.970685" lon="16.106455"><ele>7.5</ele><time>2026-04-19T15:26:17.511Z</time></trkpt><trkpt lat="37.97057" lon="16.10637"><ele>7.25</ele><time>2026-04-19T15:26:18.512Z</time></trkpt><trkpt lat="37.9704683" lon="16.106285"><ele>7.0</ele><time>2026-04-19T15:26:19.511Z</time></trkpt><trkpt lat="37.970375" lon="16.1062133"><ele>7.000000000000001</ele><time>2026-04-19T15:26:20.512Z</time></trkpt><trkpt lat="37.9702933" lon="16.1061567"><ele>7.0</ele><time>2026-04-19T15:26:21.512Z</time></trkpt><trkpt lat="37.9702283" lon="16.1061067"><ele>7.0</ele><time>2026-04-19T15:26:22.512Z</time></trkpt><trkpt lat="37.970165" lon="16.1060567"><ele>7.0</ele><time>2026-04-19T15:26:24.512Z</time></trkpt><trkpt lat="37.9700867" lon="16.1060183"><ele>7.000000000000001</ele><time>2026-04-19T15:26:27.511Z</time></trkpt><trkpt lat="37.9700167" lon="16.1059583"><ele>7.0</ele><time>2026-04-19T15:26:29.511Z</time></trkpt><trkpt lat="37.9699583" lon="16.1059083"><ele>6.75</ele><time>2026-04-19T15:26:32.512Z</time></trkpt><trkpt lat="37.9698467" lon="16.1058117"><ele>6.5</ele><time>2026-04-19T15:26:47.511Z</time></trkpt><trkpt lat="37.9697567" lon="16.1057467"><ele>6.25</ele><time>2026-04-19T15:26:48.511Z</time></trkpt><trkpt lat="37.9696433" lon="16.1056517"><ele>6.0</ele><time>2026-04-19T15:26:49.511Z</time></trkpt><trkpt lat="37.9694983" lon="16.1055383"><ele>6.333333333333334</ele><time>2026-04-19T15:26:50.511Z</time></trkpt><trkpt lat="37.9693483" lon="16.1054283"><ele>6.666666666666667</ele><time>2026-04-19T15:26:51.511Z</time></trkpt><trkpt lat="37.969195" lon="16.1053367"><ele>7.0</ele><time>2026-04-19T15:26:52.511Z</time></trkpt><trkpt lat="37.9690533" lon="16.10523"><ele>7.0</ele><time>2026-04-19T15:26:53.512Z</time></trkpt><trkpt lat="37.968905" lon="16.105135"><ele>7.0</ele><time>2026-04-19T15:26:54.512Z</time></trkpt><trkpt lat="37.9687617" lon="16.1050217"><ele>7.0</ele><time>2026-04-19T15:26:55.512Z</time></trkpt><trkpt lat="37.9686217" lon="16.1049217"><ele>7.25</ele><time>2026-04-19T15:26:56.511Z</time></trkpt><trkpt lat="37.968485" lon="16.10482"><ele>7.5</ele><time>2026-04-19T15:26:57.511Z</time></trkpt><trkpt lat="37.9683567" lon="16.1047233"><ele>7.75</ele><time>2026-04-19T15:26:58.511Z</time></trkpt><trkpt lat="37.9682483" lon="16.1046383"><ele>8.0</ele><time>2026-04-19T15:26:59.511Z</time></trkpt><trkpt lat="37.9681433" lon="16.1045483"><ele>8.666666666666666</ele><time>2026-04-19T15:27:00.511Z</time></trkpt><trkpt lat="37.9680533" lon="16.10448"><ele>9.333333333333332</ele><time>2026-04-19T15:27:01.511Z</time></trkpt><trkpt lat="37.9679717" lon="16.1044383"><ele>10.0</ele><time>2026-04-19T15:27:02.511Z</time></trkpt><trkpt lat="37.9679033" lon="16.1043817"><ele>10.666666666666666</ele><time>2026-04-19T15:27:03.511Z</time></trkpt><trkpt lat="37.967845" lon="16.1043283"><ele>11.333333333333334</ele><time>2026-04-19T15:27:04.511Z</time></trkpt><trkpt lat="37.96779" lon="16.10428"><ele>12.0</ele><time>2026-04-19T15:27:05.511Z</time></trkpt><trkpt lat="37.9677367" lon="16.1042283"><ele>12.0</ele><time>2026-04-19T15:27:06.512Z</time></trkpt><trkpt lat="37.9676483" lon="16.1041383"><ele>12.0</ele><time>2026-04-19T15:27:08.511Z</time></trkpt><trkpt lat="37.9675533" lon="16.1040667"><ele>12.0</ele><time>2026-04-19T15:27:10.511Z</time></trkpt><trkpt lat="37.9674583" lon="16.1040133"><ele>12.0</ele><time>2026-04-19T15:27:12.511Z</time></trkpt><trkpt lat="37.96736" lon="16.1039583"><ele>12.0</ele><time>2026-04-19T15:27:14.512Z</time></trkpt><trkpt lat="37.967265" lon="16.103915"><ele>13.2</ele><time>2026-04-19T15:27:16.511Z</time></trkpt><trkpt lat="37.96715" lon="16.1038467"><ele>14.399999999999999</ele><time>2026-04-19T15:27:18.511Z</time></trkpt><trkpt lat="37.96708" lon="16.1037983"><ele>15.600000000000001</ele><time>2026-04-19T15:27:19.511Z</time></trkpt><trkpt lat="37.967" lon="16.1037367"><ele>16.8</ele><time>2026-04-19T15:27:20.511Z</time></trkpt><trkpt lat="37.966915" lon="16.1036767"><ele>18.0</ele><time>2026-04-19T15:27:21.511Z</time></trkpt><trkpt lat="37.96683" lon="16.10362"><ele>18.000000000000004</ele><time>2026-04-19T15:27:22.511Z</time></trkpt><trkpt lat="37.9667567" lon="16.10356"><ele>18.0</ele><time>2026-04-19T15:27:23.512Z</time></trkpt><trkpt lat="37.9666883" lon="16.1035133"><ele>18.0</ele><time>2026-04-19T15:27:24.512Z</time></trkpt><trkpt lat="37.9666267" lon="16.1034683"><ele>18.0</ele><time>2026-04-19T15:27:25.512Z</time></trkpt><trkpt lat="37.9665667" lon="16.1034317"><ele>18.0</ele><time>2026-04-19T15:27:26.512Z</time></trkpt><trkpt lat="37.9665033" lon="16.103395"><ele>18.000000000000004</ele><time>2026-04-19T15:27:27.511Z</time></trkpt><trkpt lat="37.9664433" lon="16.1033517"><ele>18.0</ele><time>2026-04-19T15:27:28.511Z</time></trkpt><trkpt lat="37.9663833" lon="16.1033067"><ele>18.0</ele><time>2026-04-19T15:27:29.512Z</time></trkpt><trkpt lat="37.9663267" lon="16.1032667"><ele>18.0</ele><time>2026-04-19T15:27:30.511Z</time></trkpt><trkpt lat="37.96623" lon="16.1032"><ele>18.0</ele><time>2026-04-19T15:27:32.511Z</time></trkpt><trkpt lat="37.9661517" lon="16.1031367"><ele>18.0</ele><time>2026-04-19T15:27:34.511Z</time></trkpt><trkpt lat="37.966065" lon="16.1030867"><ele>18.0</ele><time>2026-04-19T15:27:36.511Z</time></trkpt><trkpt lat="37.9660083" lon="16.1030483"><ele>18.0</ele><time>2026-04-19T15:27:37.511Z</time></trkpt><trkpt lat="37.96593" lon="16.103005"><ele>16.5</ele><time>2026-04-19T15:27:38.511Z</time></trkpt><trkpt lat="37.9658333" lon="16.1029417"><ele>15.0</ele><time>2026-04-19T15:27:39.511Z</time></trkpt><trkpt lat="37.9657083" lon="16.1028533"><ele>13.5</ele><time>2026-04-19T15:27:40.511Z</time></trkpt><trkpt lat="37.9655533" lon="16.1027467"><ele>12.0</ele><time>2026-04-19T15:27:41.511Z</time></trkpt><trkpt lat="37.9654" lon="16.10263"><ele>12.0</ele><time>2026-04-19T15:27:42.512Z</time></trkpt><trkpt lat="37.965265" lon="16.1025317"><ele>12.0</ele><time>2026-04-19T15:27:43.511Z</time></trkpt><trkpt lat="37.965145" lon="16.10243"><ele>12.0</ele><time>2026-04-19T15:27:44.511Z</time></trkpt><trkpt lat="37.9650133" lon="16.102335"><ele>12.333333333333332</ele><time>2026-04-19T15:27:45.512Z</time></trkpt><trkpt lat="37.9648567" lon="16.1022317"><ele>12.666666666666666</ele><time>2026-04-19T15:27:46.511Z</time></trkpt><trkpt lat="37.9646983" lon="16.1021117"><ele>13.0</ele><time>2026-04-19T15:27:47.511Z</time></trkpt><trkpt lat="37.9645267" lon="16.10198"><ele>13.0</ele><time>2026-04-19T15:27:48.511Z</time></trkpt><trkpt lat="37.9643233" lon="16.1018383"><ele>13.0</ele><time>2026-04-19T15:27:49.511Z</time></trkpt><trkpt lat="37.9641233" lon="16.101715"><ele>16.5</ele><time>2026-04-19T15:27:50.511Z</time></trkpt><trkpt lat="37.9639233" lon="16.1015683"><ele>20.0</ele><time>2026-04-19T15:27:51.511Z</time></trkpt><trkpt lat="37.9637183" lon="16.1014283"><ele>20.0</ele><time>2026-04-19T15:27:52.511Z</time></trkpt><trkpt lat="37.96353" lon="16.1012867"><ele>20.0</ele><time>2026-04-19T15:27:53.511Z</time></trkpt><trkpt lat="37.9633633" lon="16.101135"><ele>20.0</ele><time>2026-04-19T15:27:54.512Z</time></trkpt><trkpt lat="37.9632033" lon="16.1010033"><ele>18.333333333333336</ele><time>2026-04-19T15:27:55.512Z</time></trkpt><trkpt lat="37.96304" lon="16.10088"><ele>16.666666666666668</ele><time>2026-04-19T15:27:56.511Z</time></trkpt><trkpt lat="37.96288" lon="16.1007633"><ele>15.0</ele><time>2026-04-19T15:27:57.511Z</time></trkpt><trkpt lat="37.9627183" lon="16.1006483"><ele>16.333333333333332</ele><time>2026-04-19T15:27:58.511Z</time></trkpt><trkpt lat="37.9625583" lon="16.1005383"><ele>17.666666666666664</ele><time>2026-04-19T15:27:59.512Z</time></trkpt><trkpt lat="37.9624083" lon="16.1004083"><ele>19.0</ele><time>2026-04-19T15:28:00.511Z</time></trkpt><trkpt lat="37.9622883" lon="16.1002717"><ele>19.0</ele><time>2026-04-19T15:28:01.511Z</time></trkpt><trkpt lat="37.9621333" lon="16.100145"><ele>19.0</ele><time>2026-04-19T15:28:02.511Z</time></trkpt><trkpt lat="37.961975" lon="16.1000033"><ele>19.0</ele><time>2026-04-19T15:28:03.511Z</time></trkpt><trkpt lat="37.9618217" lon="16.0998683"><ele>18.666666666666664</ele><time>2026-04-19T15:28:04.511Z</time></trkpt><trkpt lat="37.9616483" lon="16.0997317"><ele>18.333333333333332</ele><time>2026-04-19T15:28:05.511Z</time></trkpt><trkpt lat="37.96151" lon="16.099605"><ele>18.0</ele><time>2026-04-19T15:28:06.511Z</time></trkpt><trkpt lat="37.9613833" lon="16.0995067"><ele>18.0</ele><time>2026-04-19T15:28:07.511Z</time></trkpt><trkpt lat="37.9612967" lon="16.099435"><ele>18.0</ele><time>2026-04-19T15:28:08.511Z</time></trkpt><trkpt lat="37.9612267" lon="16.0994"><ele>18.0</ele><time>2026-04-19T15:28:10.511Z</time></trkpt><trkpt lat="37.9611683" lon="16.099335"><ele>18.0</ele><time>2026-04-19T15:28:13.511Z</time></trkpt><trkpt lat="37.9611033" lon="16.099275"><ele>18.0</ele><time>2026-04-19T15:28:16.511Z</time></trkpt><trkpt lat="37.9610333" lon="16.0991967"><ele>18.0</ele><time>2026-04-19T15:28:18.512Z</time></trkpt><trkpt lat="37.9609133" lon="16.0990933"><ele>17.25</ele><time>2026-04-19T15:28:20.511Z</time></trkpt><trkpt lat="37.9608267" lon="16.0990217"><ele>16.5</ele><time>2026-04-19T15:28:21.511Z</time></trkpt><trkpt lat="37.9607267" lon="16.0989283"><ele>15.75</ele><time>2026-04-19T15:28:22.511Z</time></trkpt><trkpt lat="37.9606183" lon="16.0988383"><ele>15.0</ele><time>2026-04-19T15:28:23.511Z</time></trkpt><trkpt lat="37.9604933" lon="16.098735"><ele>15.0</ele><time>2026-04-19T15:28:24.511Z</time></trkpt><trkpt lat="37.9603517" lon="16.0986183"><ele>15.0</ele><time>2026-04-19T15:28:25.511Z</time></trkpt><trkpt lat="37.9602" lon="16.0985017"><ele>15.0</ele><time>2026-04-19T15:28:26.511Z</time></trkpt><trkpt lat="37.96006" lon="16.0983983"><ele>14.0</ele><time>2026-04-19T15:28:27.512Z</time></trkpt><trkpt lat="37.9599217" lon="16.0982867"><ele>13.0</ele><time>2026-04-19T15:28:28.511Z</time></trkpt><trkpt lat="37.9597767" lon="16.09818"><ele>12.0</ele><time>2026-04-19T15:28:29.511Z</time></trkpt><trkpt lat="37.9596417" lon="16.0980683"><ele>12.0</ele><time>2026-04-19T15:28:30.511Z</time></trkpt><trkpt lat="37.9595117" lon="16.0979467"><ele>12.0</ele><time>2026-04-19T15:28:31.511Z</time></trkpt><trkpt lat="37.95938" lon="16.0978133"><ele>12.0</ele><time>2026-04-19T15:28:32.511Z</time></trkpt><trkpt lat="37.9592433" lon="16.0976633"><ele>11.666666666666666</ele><time>2026-04-19T15:28:33.511Z</time></trkpt><trkpt lat="37.9590917" lon="16.097495"><ele>11.333333333333332</ele><time>2026-04-19T15:28:34.511Z</time></trkpt><trkpt lat="37.9589467" lon="16.097305"><ele>11.0</ele><time>2026-04-19T15:28:35.512Z</time></trkpt><trkpt lat="37.958795" lon="16.0971333"><ele>11.0</ele><time>2026-04-19T15:28:36.512Z</time></trkpt><trkpt lat="37.958635" lon="16.0969633"><ele>11.0</ele><time>2026-04-19T15:28:37.512Z</time></trkpt><trkpt lat="37.958465" lon="16.0967917"><ele>11.0</ele><time>2026-04-19T15:28:38.511Z</time></trkpt><trkpt lat="37.958305" lon="16.0966283"><ele>13.0</ele><time>2026-04-19T15:28:39.511Z</time></trkpt><trkpt lat="37.9581383" lon="16.0964533"><ele>15.0</ele><time>2026-04-19T15:28:40.511Z</time></trkpt><trkpt lat="37.9579783" lon="16.0962583"><ele>17.0</ele><time>2026-04-19T15:28:41.511Z</time></trkpt><trkpt lat="37.9578167" lon="16.0960517"><ele>17.0</ele><time>2026-04-19T15:28:42.511Z</time></trkpt><trkpt lat="37.9576517" lon="16.0958517"><ele>17.0</ele><time>2026-04-19T15:28:43.511Z</time></trkpt><trkpt lat="37.9574833" lon="16.0956683"><ele>17.0</ele><time>2026-04-19T15:28:44.512Z</time></trkpt><trkpt lat="37.95731" lon="16.09547"><ele>17.0</ele><time>2026-04-19T15:28:45.511Z</time></trkpt><trkpt lat="37.9571467" lon="16.0952733"><ele>17.0</ele><time>2026-04-19T15:28:46.511Z</time></trkpt><trkpt lat="37.956985" lon="16.0950683"><ele>17.0</ele><time>2026-04-19T15:28:47.511Z</time></trkpt><trkpt lat="37.9568233" lon="16.0948633"><ele>15.666666666666668</ele><time>2026-04-19T15:28:48.511Z</time></trkpt><trkpt lat="37.9566633" lon="16.0946767"><ele>14.333333333333332</ele><time>2026-04-19T15:28:49.512Z</time></trkpt><trkpt lat="37.9564967" lon="16.094485"><ele>13.0</ele><time>2026-04-19T15:28:50.511Z</time></trkpt><trkpt lat="37.9563333" lon="16.0942967"><ele>13.0</ele><time>2026-04-19T15:28:51.511Z</time></trkpt><trkpt lat="37.95617" lon="16.0941"><ele>13.0</ele><time>2026-04-19T15:28:52.511Z</time></trkpt><trkpt lat="37.956" lon="16.0939033"><ele>11.5</ele><time>2026-04-19T15:28:53.511Z</time></trkpt><trkpt lat="37.9558233" lon="16.0937067"><ele>10.0</ele><time>2026-04-19T15:28:54.512Z</time></trkpt><trkpt lat="37.9556467" lon="16.0935067"><ele>10.0</ele><time>2026-04-19T15:28:55.511Z</time></trkpt><trkpt lat="37.9554717" lon="16.093305"><ele>10.0</ele><time>2026-04-19T15:28:56.511Z</time></trkpt><trkpt lat="37.9552967" lon="16.0930983"><ele>10.0</ele><time>2026-04-19T15:28:57.511Z</time></trkpt><trkpt lat="37.9551217" lon="16.092895"><ele>10.0</ele><time>2026-04-19T15:28:58.511Z</time></trkpt><trkpt lat="37.9549467" lon="16.0926933"><ele>10.0</ele><time>2026-04-19T15:28:59.512Z</time></trkpt><trkpt lat="37.9547767" lon="16.0924883"><ele>10.0</ele><time>2026-04-19T15:29:00.512Z</time></trkpt><trkpt lat="37.954605" lon="16.092285"><ele>11.5</ele><time>2026-04-19T15:29:01.511Z</time></trkpt><trkpt lat="37.9544367" lon="16.0920833"><ele>13.0</ele><time>2026-04-19T15:29:02.511Z</time></trkpt><trkpt lat="37.9542583" lon="16.09188"><ele>13.5</ele><time>2026-04-19T15:29:03.511Z</time></trkpt><trkpt lat="37.9540833" lon="16.0916817"><ele>14.0</ele><time>2026-04-19T15:29:04.511Z</time></trkpt><trkpt lat="37.95391" lon="16.0914783"><ele>14.0</ele><time>2026-04-19T15:29:05.511Z</time></trkpt><trkpt lat="37.953725" lon="16.0912767"><ele>14.0</ele><time>2026-04-19T15:29:06.511Z</time></trkpt><trkpt lat="37.9535433" lon="16.0910833"><ele>12.5</ele><time>2026-04-19T15:29:07.511Z</time></trkpt><trkpt lat="37.95337" lon="16.0908783"><ele>11.0</ele><time>2026-04-19T15:29:08.511Z</time></trkpt><trkpt lat="37.9531917" lon="16.0906783"><ele>14.0</ele><time>2026-04-19T15:29:09.511Z</time></trkpt><trkpt lat="37.9530067" lon="16.0904817"><ele>17.0</ele><time>2026-04-19T15:29:10.512Z</time></trkpt><trkpt lat="37.95284" lon="16.0902683"><ele>17.0</ele><time>2026-04-19T15:29:11.511Z</time></trkpt><trkpt lat="37.95266" lon="16.09006"><ele>17.0</ele><time>2026-04-19T15:29:12.511Z</time></trkpt><trkpt lat="37.9524733" lon="16.0898733"><ele>16.0</ele><time>2026-04-19T15:29:13.511Z</time></trkpt><trkpt lat="37.9522833" lon="16.0896817"><ele>15.0</ele><time>2026-04-19T15:29:14.512Z</time></trkpt><trkpt lat="37.9520917" lon="16.089495"><ele>15.0</ele><time>2026-04-19T15:29:15.511Z</time></trkpt><trkpt lat="37.951895" lon="16.0893133"><ele>15.0</ele><time>2026-04-19T15:29:16.512Z</time></trkpt><trkpt lat="37.951695" lon="16.0891367"><ele>13.5</ele><time>2026-04-19T15:29:17.511Z</time></trkpt><trkpt lat="37.951495" lon="16.088965"><ele>12.0</ele><time>2026-04-19T15:29:18.511Z</time></trkpt><trkpt lat="37.9512917" lon="16.08879"><ele>12.0</ele><time>2026-04-19T15:29:19.512Z</time></trkpt><trkpt lat="37.9510933" lon="16.0886267"><ele>12.0</ele><time>2026-04-19T15:29:20.512Z</time></trkpt><trkpt lat="37.9508917" lon="16.088465"><ele>12.0</ele><time>2026-04-19T15:29:21.511Z</time></trkpt><trkpt lat="37.950685" lon="16.0882983"><ele>12.0</ele><time>2026-04-19T15:29:22.511Z</time></trkpt><trkpt lat="37.9504817" lon="16.08813"><ele>15.5</ele><time>2026-04-19T15:29:23.511Z</time></trkpt><trkpt lat="37.9502833" lon="16.0879617"><ele>19.0</ele><time>2026-04-19T15:29:24.511Z</time></trkpt><trkpt lat="37.950075" lon="16.0877967"><ele>14.0</ele><time>2026-04-19T15:29:25.511Z</time></trkpt><trkpt lat="37.9498717" lon="16.0876333"><ele>9.0</ele><time>2026-04-19T15:29:26.511Z</time></trkpt><trkpt lat="37.9496683" lon="16.087475"><ele>9.5</ele><time>2026-04-19T15:29:27.512Z</time></trkpt><trkpt lat="37.9494667" lon="16.0873083"><ele>10.0</ele><time>2026-04-19T15:29:28.512Z</time></trkpt><trkpt lat="37.9492633" lon="16.0871417"><ele>8.5</ele><time>2026-04-19T15:29:29.511Z</time></trkpt><trkpt lat="37.949055" lon="16.08698"><ele>7.0</ele><time>2026-04-19T15:29:30.511Z</time></trkpt><trkpt lat="37.948855" lon="16.0868117"><ele>7.0</ele><time>2026-04-19T15:29:31.512Z</time></trkpt><trkpt lat="37.94866" lon="16.086645"><ele>7.0</ele><time>2026-04-19T15:29:32.511Z</time></trkpt><trkpt lat="37.9484633" lon="16.08648"><ele>8.0</ele><time>2026-04-19T15:29:33.511Z</time></trkpt><trkpt lat="37.9482717" lon="16.0863183"><ele>9.0</ele><time>2026-04-19T15:29:34.511Z</time></trkpt><trkpt lat="37.9480733" lon="16.0861617"><ele>9.0</ele><time>2026-04-19T15:29:35.511Z</time></trkpt><trkpt lat="37.9478767" lon="16.086005"><ele>9.0</ele><time>2026-04-19T15:29:36.511Z</time></trkpt><trkpt lat="37.9476833" lon="16.0858433"><ele>9.0</ele><time>2026-04-19T15:29:37.512Z</time></trkpt><trkpt lat="37.9474883" lon="16.0856867"><ele>9.0</ele><time>2026-04-19T15:29:38.511Z</time></trkpt><trkpt lat="37.9472917" lon="16.0855267"><ele>9.0</ele><time>2026-04-19T15:29:39.511Z</time></trkpt><trkpt lat="37.947095" lon="16.0853667"><ele>9.0</ele><time>2026-04-19T15:29:40.511Z</time></trkpt><trkpt lat="37.9469" lon="16.0852"><ele>9.0</ele><time>2026-04-19T15:29:41.512Z</time></trkpt><trkpt lat="37.946705" lon="16.08504"><ele>9.0</ele><time>2026-04-19T15:29:42.511Z</time></trkpt><trkpt lat="37.9465067" lon="16.084885"><ele>9.0</ele><time>2026-04-19T15:29:43.512Z</time></trkpt><trkpt lat="37.9463117" lon="16.08473"><ele>9.0</ele><time>2026-04-19T15:29:44.512Z</time></trkpt><trkpt lat="37.9461133" lon="16.0845667"><ele>9.0</ele><time>2026-04-19T15:29:45.511Z</time></trkpt><trkpt lat="37.9459217" lon="16.0844067"><ele>9.0</ele><time>2026-04-19T15:29:46.511Z</time></trkpt><trkpt lat="37.9457267" lon="16.0842567"><ele>9.0</ele><time>2026-04-19T15:29:47.511Z</time></trkpt><trkpt lat="37.9455317" lon="16.0840983"><ele>9.0</ele><time>2026-04-19T15:29:48.512Z</time></trkpt><trkpt lat="37.9453367" lon="16.08394"><ele>9.0</ele><time>2026-04-19T15:29:49.512Z</time></trkpt><trkpt lat="37.945145" lon="16.0837733"><ele>9.0</ele><time>2026-04-19T15:29:50.511Z</time></trkpt><trkpt lat="37.944955" lon="16.0836167"><ele>8.5</ele><time>2026-04-19T15:29:51.511Z</time></trkpt><trkpt lat="37.94476" lon="16.0834633"><ele>8.0</ele><time>2026-04-19T15:29:52.511Z</time></trkpt><trkpt lat="37.94456" lon="16.0833017"><ele>9.0</ele><time>2026-04-19T15:29:53.511Z</time></trkpt><trkpt lat="37.9443517" lon="16.083135"><ele>10.0</ele><time>2026-04-19T15:29:54.511Z</time></trkpt><trkpt lat="37.94416" lon="16.082955"><ele>10.0</ele><time>2026-04-19T15:29:55.511Z</time></trkpt><trkpt lat="37.9439717" lon="16.08276"><ele>10.0</ele><time>2026-04-19T15:29:56.512Z</time></trkpt><trkpt lat="37.9438" lon="16.08257"><ele>11.0</ele><time>2026-04-19T15:29:57.512Z</time></trkpt><trkpt lat="37.9436383" lon="16.082375"><ele>12.0</ele><time>2026-04-19T15:29:58.512Z</time></trkpt><trkpt lat="37.94348" lon="16.08217"><ele>13.0</ele><time>2026-04-19T15:29:59.511Z</time></trkpt><trkpt lat="37.94333" lon="16.081985"><ele>12.666666666666666</ele><time>2026-04-19T15:30:00.511Z</time></trkpt><trkpt lat="37.9431717" lon="16.081795"><ele>12.333333333333332</ele><time>2026-04-19T15:30:01.511Z</time></trkpt><trkpt lat="37.943025" lon="16.08159"><ele>12.0</ele><time>2026-04-19T15:30:02.511Z</time></trkpt><trkpt lat="37.9428717" lon="16.0813833"><ele>12.0</ele><time>2026-04-19T15:30:03.511Z</time></trkpt><trkpt lat="37.9427117" lon="16.0811833"><ele>12.0</ele><time>2026-04-19T15:30:04.512Z</time></trkpt><trkpt lat="37.94255" lon="16.08098"><ele>11.333333333333334</ele><time>2026-04-19T15:30:05.511Z</time></trkpt><trkpt lat="37.94239" lon="16.0807867"><ele>10.666666666666668</ele><time>2026-04-19T15:30:06.512Z</time></trkpt><trkpt lat="37.9422333" lon="16.0805867"><ele>10.0</ele><time>2026-04-19T15:30:07.512Z</time></trkpt><trkpt lat="37.9420667" lon="16.0803967"><ele>10.0</ele><time>2026-04-19T15:30:08.511Z</time></trkpt><trkpt lat="37.9419067" lon="16.0802033"><ele>10.0</ele><time>2026-04-19T15:30:09.512Z</time></trkpt><trkpt lat="37.9417383" lon="16.0800167"><ele>10.0</ele><time>2026-04-19T15:30:10.511Z</time></trkpt><trkpt lat="37.9415633" lon="16.079825"><ele>10.0</ele><time>2026-04-19T15:30:11.511Z</time></trkpt><trkpt lat="37.94139" lon="16.0796267"><ele>10.0</ele><time>2026-04-19T15:30:12.511Z</time></trkpt><trkpt lat="37.9412167" lon="16.0794167"><ele>10.0</ele><time>2026-04-19T15:30:13.511Z</time></trkpt><trkpt lat="37.9410283" lon="16.0792217"><ele>10.0</ele><time>2026-04-19T15:30:14.512Z</time></trkpt><trkpt lat="37.9408367" lon="16.0790367"><ele>9.5</ele><time>2026-04-19T15:30:15.511Z</time></trkpt><trkpt lat="37.9406383" lon="16.0788483"><ele>9.0</ele><time>2026-04-19T15:30:16.512Z</time></trkpt><trkpt lat="37.9404467" lon="16.07866"><ele>9.0</ele><time>2026-04-19T15:30:17.511Z</time></trkpt><trkpt lat="37.9402433" lon="16.078475"><ele>9.0</ele><time>2026-04-19T15:30:18.512Z</time></trkpt><trkpt lat="37.9400383" lon="16.07828"><ele>10.0</ele><time>2026-04-19T15:30:19.512Z</time></trkpt><trkpt lat="37.9398367" lon="16.0780883"><ele>11.0</ele><time>2026-04-19T15:30:20.511Z</time></trkpt><trkpt lat="37.939635" lon="16.077895"><ele>11.0</ele><time>2026-04-19T15:30:21.511Z</time></trkpt><trkpt lat="37.9394383" lon="16.0776983"><ele>11.0</ele><time>2026-04-19T15:30:22.511Z</time></trkpt><trkpt lat="37.9392417" lon="16.0775117"><ele>14.0</ele><time>2026-04-19T15:30:23.511Z</time></trkpt><trkpt lat="37.9390483" lon="16.0773217"><ele>17.0</ele><time>2026-04-19T15:30:24.511Z</time></trkpt><trkpt lat="37.9388567" lon="16.077125"><ele>17.0</ele><time>2026-04-19T15:30:25.511Z</time></trkpt><trkpt lat="37.938665" lon="16.0769217"><ele>17.0</ele><time>2026-04-19T15:30:26.511Z</time></trkpt><trkpt lat="37.938485" lon="16.0767233"><ele>15.0</ele><time>2026-04-19T15:30:27.512Z</time></trkpt><trkpt lat="37.938315" lon="16.076495"><ele>13.0</ele><time>2026-04-19T15:30:28.512Z</time></trkpt><trkpt lat="37.9381417" lon="16.07627"><ele>13.0</ele><time>2026-04-19T15:30:29.511Z</time></trkpt><trkpt lat="37.9379717" lon="16.07605"><ele>13.0</ele><time>2026-04-19T15:30:30.511Z</time></trkpt><trkpt lat="37.9378033" lon="16.0758283"><ele>14.0</ele><time>2026-04-19T15:30:31.511Z</time></trkpt><trkpt lat="37.93764" lon="16.0756083"><ele>15.0</ele><time>2026-04-19T15:30:32.512Z</time></trkpt><trkpt lat="37.93747" lon="16.0753983"><ele>11.5</ele><time>2026-04-19T15:30:33.511Z</time></trkpt><trkpt lat="37.9373017" lon="16.0751717"><ele>8.0</ele><time>2026-04-19T15:30:34.512Z</time></trkpt><trkpt lat="37.9371317" lon="16.0749567"><ele>11.5</ele><time>2026-04-19T15:30:35.511Z</time></trkpt><trkpt lat="37.93696" lon="16.07474"><ele>15.0</ele><time>2026-04-19T15:30:36.511Z</time></trkpt><trkpt lat="37.936795" lon="16.07453"><ele>13.5</ele><time>2026-04-19T15:30:37.512Z</time></trkpt><trkpt lat="37.936635" lon="16.0743167"><ele>12.0</ele><time>2026-04-19T15:30:38.512Z</time></trkpt><trkpt lat="37.936475" lon="16.0740983"><ele>12.0</ele><time>2026-04-19T15:30:39.511Z</time></trkpt><trkpt lat="37.9363117" lon="16.0738883"><ele>12.0</ele><time>2026-04-19T15:30:40.512Z</time></trkpt><trkpt lat="37.93615" lon="16.0736767"><ele>12.0</ele><time>2026-04-19T15:30:41.511Z</time></trkpt><trkpt lat="37.93598" lon="16.0734683"><ele>12.0</ele><time>2026-04-19T15:30:42.511Z</time></trkpt><trkpt lat="37.93581" lon="16.0732517"><ele>11.0</ele><time>2026-04-19T15:30:43.511Z</time></trkpt><trkpt lat="37.93565" lon="16.07303"><ele>10.0</ele><time>2026-04-19T15:30:44.511Z</time></trkpt><trkpt lat="37.93549" lon="16.072815"><ele>10.0</ele><time>2026-04-19T15:30:45.511Z</time></trkpt><trkpt lat="37.9353217" lon="16.07259"><ele>10.0</ele><time>2026-04-19T15:30:46.512Z</time></trkpt><trkpt lat="37.9351483" lon="16.07238"><ele>10.0</ele><time>2026-04-19T15:30:47.511Z</time></trkpt><trkpt lat="37.9349717" lon="16.07217"><ele>10.0</ele><time>2026-04-19T15:30:48.512Z</time></trkpt><trkpt lat="37.9347933" lon="16.07195"><ele>10.0</ele><time>2026-04-19T15:30:49.511Z</time></trkpt><trkpt lat="37.934625" lon="16.0717233"><ele>10.0</ele><time>2026-04-19T15:30:50.511Z</time></trkpt><trkpt lat="37.9344517" lon="16.0715017"><ele>10.5</ele><time>2026-04-19T15:30:51.511Z</time></trkpt><trkpt lat="37.934285" lon="16.0712833"><ele>11.0</ele><time>2026-04-19T15:30:52.511Z</time></trkpt><trkpt lat="37.93412" lon="16.0710633"><ele>11.5</ele><time>2026-04-19T15:30:53.511Z</time></trkpt><trkpt lat="37.9339483" lon="16.0708417"><ele>12.0</ele><time>2026-04-19T15:30:54.511Z</time></trkpt><trkpt lat="37.93378" lon="16.0706217"><ele>12.0</ele><time>2026-04-19T15:30:55.511Z</time></trkpt><trkpt lat="37.9336117" lon="16.0703983"><ele>12.0</ele><time>2026-04-19T15:30:56.511Z</time></trkpt><trkpt lat="37.9334367" lon="16.0701783"><ele>11.0</ele><time>2026-04-19T15:30:57.512Z</time></trkpt><trkpt lat="37.9332683" lon="16.0699633"><ele>10.0</ele><time>2026-04-19T15:30:58.511Z</time></trkpt><trkpt lat="37.9330983" lon="16.069745"><ele>10.0</ele><time>2026-04-19T15:30:59.512Z</time></trkpt><trkpt lat="37.9329283" lon="16.0695283"><ele>10.0</ele><time>2026-04-19T15:31:00.511Z</time></trkpt><trkpt lat="37.93276" lon="16.06931"><ele>10.5</ele><time>2026-04-19T15:31:01.512Z</time></trkpt><trkpt lat="37.9325917" lon="16.0690917"><ele>11.0</ele><time>2026-04-19T15:31:02.511Z</time></trkpt><trkpt lat="37.9324383" lon="16.0688817"><ele>11.0</ele><time>2026-04-19T15:31:03.511Z</time></trkpt><trkpt lat="37.9322967" lon="16.0687033"><ele>11.0</ele><time>2026-04-19T15:31:04.511Z</time></trkpt><trkpt lat="37.9321717" lon="16.0685183"><ele>11.0</ele><time>2026-04-19T15:31:05.511Z</time></trkpt><trkpt lat="37.932045" lon="16.0683567"><ele>11.333333333333332</ele><time>2026-04-19T15:31:06.512Z</time></trkpt><trkpt lat="37.9318983" lon="16.0681783"><ele>11.666666666666666</ele><time>2026-04-19T15:31:07.512Z</time></trkpt><trkpt lat="37.93176" lon="16.0679967"><ele>12.0</ele><time>2026-04-19T15:31:08.511Z</time></trkpt><trkpt lat="37.9315983" lon="16.0678283"><ele>12.0</ele><time>2026-04-19T15:31:09.512Z</time></trkpt><trkpt lat="37.9314217" lon="16.067675"><ele>12.0</ele><time>2026-04-19T15:31:10.512Z</time></trkpt><trkpt lat="37.9312367" lon="16.0675183"><ele>12.0</ele><time>2026-04-19T15:31:11.511Z</time></trkpt><trkpt lat="37.931035" lon="16.0673667"><ele>14.5</ele><time>2026-04-19T15:31:12.512Z</time></trkpt><trkpt lat="37.9308267" lon="16.0672383"><ele>17.0</ele><time>2026-04-19T15:31:13.511Z</time></trkpt><trkpt lat="37.930615" lon="16.0670967"><ele>17.0</ele><time>2026-04-19T15:31:14.511Z</time></trkpt><trkpt lat="37.9304117" lon="16.0669517"><ele>17.0</ele><time>2026-04-19T15:31:15.511Z</time></trkpt><trkpt lat="37.9302133" lon="16.06681"><ele>20.0</ele><time>2026-04-19T15:31:16.512Z</time></trkpt><trkpt lat="37.930005" lon="16.06668"><ele>23.0</ele><time>2026-04-19T15:31:17.511Z</time></trkpt><trkpt lat="37.9298067" lon="16.0665383"><ele>23.0</ele><time>2026-04-19T15:31:18.511Z</time></trkpt><trkpt lat="37.929595" lon="16.0664033"><ele>23.0</ele><time>2026-04-19T15:31:19.511Z</time></trkpt><trkpt lat="37.92938" lon="16.0662733"><ele>19.0</ele><time>2026-04-19T15:31:20.511Z</time></trkpt><trkpt lat="37.9291683" lon="16.0661383"><ele>15.0</ele><time>2026-04-19T15:31:21.511Z</time></trkpt><trkpt lat="37.9289683" lon="16.0659983"><ele>15.0</ele><time>2026-04-19T15:31:22.511Z</time></trkpt><trkpt lat="37.9287667" lon="16.0658633"><ele>15.0</ele><time>2026-04-19T15:31:23.512Z</time></trkpt><trkpt lat="37.9285583" lon="16.0657417"><ele>17.333333333333332</ele><time>2026-04-19T15:31:24.511Z</time></trkpt><trkpt lat="37.9283617" lon="16.0656017"><ele>19.666666666666664</ele><time>2026-04-19T15:31:25.511Z</time></trkpt><trkpt lat="37.9281817" lon="16.0654617"><ele>22.0</ele><time>2026-04-19T15:31:26.512Z</time></trkpt><trkpt lat="37.9279967" lon="16.0653267"><ele>22.0</ele><time>2026-04-19T15:31:27.511Z</time></trkpt><trkpt lat="37.9278217" lon="16.0651983"><ele>22.0</ele><time>2026-04-19T15:31:28.511Z</time></trkpt><trkpt lat="37.9276533" lon="16.0650667"><ele>22.0</ele><time>2026-04-19T15:31:29.511Z</time></trkpt><trkpt lat="37.9274917" lon="16.064945"><ele>18.666666666666664</ele><time>2026-04-19T15:31:30.512Z</time></trkpt><trkpt lat="37.9273433" lon="16.0648067"><ele>15.333333333333332</ele><time>2026-04-19T15:31:31.511Z</time></trkpt><trkpt lat="37.9272083" lon="16.064645"><ele>12.0</ele><time>2026-04-19T15:31:32.511Z</time></trkpt><trkpt lat="37.9270983" lon="16.06442"><ele>12.0</ele><time>2026-04-19T15:31:33.511Z</time></trkpt><trkpt lat="37.9269633" lon="16.0642367"><ele>12.0</ele><time>2026-04-19T15:31:34.511Z</time></trkpt><trkpt lat="37.9268083" lon="16.0640467"><ele>12.0</ele><time>2026-04-19T15:31:35.511Z</time></trkpt><trkpt lat="37.9266317" lon="16.063865"><ele>8.5</ele><time>2026-04-19T15:31:36.511Z</time></trkpt><trkpt lat="37.9264583" lon="16.0636833"><ele>5.0</ele><time>2026-04-19T15:31:37.511Z</time></trkpt><trkpt lat="37.9262817" lon="16.0635017"><ele>5.0</ele><time>2026-04-19T15:31:38.512Z</time></trkpt><trkpt lat="37.9261033" lon="16.0633083"><ele>5.0</ele><time>2026-04-19T15:31:39.511Z</time></trkpt><trkpt lat="37.92595" lon="16.0630983"><ele>6.0</ele><time>2026-04-19T15:31:40.512Z</time></trkpt><trkpt lat="37.9257933" lon="16.062865"><ele>7.0</ele><time>2026-04-19T15:31:41.512Z</time></trkpt><trkpt lat="37.92566" lon="16.0626017"><ele>11.5</ele><time>2026-04-19T15:31:42.511Z</time></trkpt><trkpt lat="37.92554" lon="16.0623217"><ele>16.0</ele><time>2026-04-19T15:31:43.511Z</time></trkpt><trkpt lat="37.9254383" lon="16.062035"><ele>16.0</ele><time>2026-04-19T15:31:44.511Z</time></trkpt><trkpt lat="37.9253467" lon="16.0617483"><ele>16.0</ele><time>2026-04-19T15:31:45.511Z</time></trkpt><trkpt lat="37.9252633" lon="16.0614517"><ele>24.0</ele><time>2026-04-19T15:31:46.511Z</time></trkpt><trkpt lat="37.9252" lon="16.06116"><ele>32.0</ele><time>2026-04-19T15:31:47.512Z</time></trkpt><trkpt lat="37.9251567" lon="16.06086"><ele>34.5</ele><time>2026-04-19T15:31:48.511Z</time></trkpt><trkpt lat="37.925135" lon="16.0605617"><ele>37.0</ele><time>2026-04-19T15:31:49.512Z</time></trkpt><trkpt lat="37.9251283" lon="16.0602483"><ele>41.5</ele><time>2026-04-19T15:31:50.512Z</time></trkpt><trkpt lat="37.9251367" lon="16.0599367"><ele>46.0</ele><time>2026-04-19T15:31:51.511Z</time></trkpt><trkpt lat="37.9251383" lon="16.059625"><ele>46.0</ele><time>2026-04-19T15:31:52.511Z</time></trkpt><trkpt lat="37.92513" lon="16.0593067"><ele>46.0</ele><time>2026-04-19T15:31:53.511Z</time></trkpt><trkpt lat="37.9251133" lon="16.0589883"><ele>47.5</ele><time>2026-04-19T15:31:54.511Z</time></trkpt><trkpt lat="37.9250867" lon="16.0586717"><ele>49.0</ele><time>2026-04-19T15:31:55.511Z</time></trkpt><trkpt lat="37.9250633" lon="16.058355"><ele>34.0</ele><time>2026-04-19T15:31:56.511Z</time></trkpt><trkpt lat="37.9250367" lon="16.0580383"><ele>19.0</ele><time>2026-04-19T15:31:57.511Z</time></trkpt><trkpt lat="37.9250033" lon="16.0577267"><ele>21.0</ele><time>2026-04-19T15:31:58.511Z</time></trkpt><trkpt lat="37.9249683" lon="16.0574167"><ele>23.0</ele><time>2026-04-19T15:31:59.511Z</time></trkpt><trkpt lat="37.9249283" lon="16.0571033"><ele>23.0</ele><time>2026-04-19T15:32:00.511Z</time></trkpt><trkpt lat="37.9248883" lon="16.0567917"><ele>23.0</ele><time>2026-04-19T15:32:01.511Z</time></trkpt><trkpt lat="37.9248433" lon="16.05647"><ele>26.5</ele><time>2026-04-19T15:32:02.512Z</time></trkpt><trkpt lat="37.924805" lon="16.0561533"><ele>30.0</ele><time>2026-04-19T15:32:03.511Z</time></trkpt><trkpt lat="37.9247617" lon="16.0558517"><ele>30.0</ele><time>2026-04-19T15:32:04.511Z</time></trkpt><trkpt lat="37.92473" lon="16.05554"><ele>30.0</ele><time>2026-04-19T15:32:05.512Z</time></trkpt><trkpt lat="37.9247067" lon="16.05522"><ele>24.5</ele><time>2026-04-19T15:32:06.512Z</time></trkpt><trkpt lat="37.9246917" lon="16.05491"><ele>19.0</ele><time>2026-04-19T15:32:07.511Z</time></trkpt><trkpt lat="37.9246733" lon="16.0545967"><ele>19.0</ele><time>2026-04-19T15:32:08.511Z</time></trkpt><trkpt lat="37.924655" lon="16.0542683"><ele>19.0</ele><time>2026-04-19T15:32:09.511Z</time></trkpt><trkpt lat="37.92463" lon="16.0539567"><ele>15.5</ele><time>2026-04-19T15:32:10.511Z</time></trkpt><trkpt lat="37.92459" lon="16.0536383"><ele>12.0</ele><time>2026-04-19T15:32:11.511Z</time></trkpt><trkpt lat="37.9245517" lon="16.0533267"><ele>15.0</ele><time>2026-04-19T15:32:12.511Z</time></trkpt><trkpt lat="37.92452" lon="16.05301"><ele>18.0</ele><time>2026-04-19T15:32:13.511Z</time></trkpt><trkpt lat="37.9244817" lon="16.052685"><ele>20.5</ele><time>2026-04-19T15:32:14.511Z</time></trkpt><trkpt lat="37.924445" lon="16.0523633"><ele>23.0</ele><time>2026-04-19T15:32:15.511Z</time></trkpt><trkpt lat="37.924415" lon="16.0520333"><ele>23.0</ele><time>2026-04-19T15:32:16.511Z</time></trkpt><trkpt lat="37.9243883" lon="16.0517117"><ele>23.0</ele><time>2026-04-19T15:32:17.511Z</time></trkpt><trkpt lat="37.924365" lon="16.0513917"><ele>22.5</ele><time>2026-04-19T15:32:18.511Z</time></trkpt><trkpt lat="37.9243617" lon="16.051075"><ele>22.0</ele><time>2026-04-19T15:32:19.512Z</time></trkpt><trkpt lat="37.9243617" lon="16.0507517"><ele>20.5</ele><time>2026-04-19T15:32:20.511Z</time></trkpt><trkpt lat="37.9243533" lon="16.0504267"><ele>19.0</ele><time>2026-04-19T15:32:21.512Z</time></trkpt><trkpt lat="37.9243333" lon="16.050105"><ele>19.0</ele><time>2026-04-19T15:32:22.511Z</time></trkpt><trkpt lat="37.9242967" lon="16.0497767"><ele>19.0</ele><time>2026-04-19T15:32:23.512Z</time></trkpt><trkpt lat="37.9242483" lon="16.0494533"><ele>15.0</ele><time>2026-04-19T15:32:24.511Z</time></trkpt><trkpt lat="37.9241967" lon="16.04914"><ele>11.0</ele><time>2026-04-19T15:32:25.511Z</time></trkpt><trkpt lat="37.92413" lon="16.0488183"><ele>11.0</ele><time>2026-04-19T15:32:26.511Z</time></trkpt><trkpt lat="37.9240733" lon="16.0485167"><ele>11.0</ele><time>2026-04-19T15:32:27.511Z</time></trkpt><trkpt lat="37.9240117" lon="16.04821"><ele>13.0</ele><time>2026-04-19T15:32:28.511Z</time></trkpt><trkpt lat="37.9239533" lon="16.047905"><ele>15.0</ele><time>2026-04-19T15:32:29.511Z</time></trkpt><trkpt lat="37.9239" lon="16.0475933"><ele>16.5</ele><time>2026-04-19T15:32:30.511Z</time></trkpt><trkpt lat="37.9238383" lon="16.047285"><ele>18.0</ele><time>2026-04-19T15:32:31.511Z</time></trkpt><trkpt lat="37.9237683" lon="16.0469783"><ele>18.0</ele><time>2026-04-19T15:32:32.511Z</time></trkpt><trkpt lat="37.9236817" lon="16.0466883"><ele>18.0</ele><time>2026-04-19T15:32:33.511Z</time></trkpt><trkpt lat="37.923595" lon="16.0464033"><ele>18.5</ele><time>2026-04-19T15:32:34.511Z</time></trkpt><trkpt lat="37.9235033" lon="16.0461283"><ele>19.0</ele><time>2026-04-19T15:32:35.512Z</time></trkpt><trkpt lat="37.9234117" lon="16.0458533"><ele>16.0</ele><time>2026-04-19T15:32:36.511Z</time></trkpt><trkpt lat="37.9233267" lon="16.0455867"><ele>13.0</ele><time>2026-04-19T15:32:37.511Z</time></trkpt><trkpt lat="37.923235" lon="16.0453233"><ele>13.0</ele><time>2026-04-19T15:32:38.511Z</time></trkpt><trkpt lat="37.923155" lon="16.0450567"><ele>13.0</ele><time>2026-04-19T15:32:39.511Z</time></trkpt><trkpt lat="37.9231233" lon="16.0447783"><ele>13.0</ele><time>2026-04-19T15:32:40.511Z</time></trkpt><trkpt lat="37.9231367" lon="16.044485"><ele>11.0</ele><time>2026-04-19T15:32:41.512Z</time></trkpt><trkpt lat="37.9231683" lon="16.044165"><ele>9.0</ele><time>2026-04-19T15:32:42.511Z</time></trkpt><trkpt lat="37.9232017" lon="16.0438517"><ele>9.0</ele><time>2026-04-19T15:32:43.511Z</time></trkpt><trkpt lat="37.923225" lon="16.04354"><ele>9.0</ele><time>2026-04-19T15:32:44.511Z</time></trkpt><trkpt lat="37.92325" lon="16.0432217"><ele>9.5</ele><time>2026-04-19T15:32:45.511Z</time></trkpt><trkpt lat="37.9232767" lon="16.04292"><ele>10.0</ele><time>2026-04-19T15:32:46.512Z</time></trkpt><trkpt lat="37.923315" lon="16.042625"><ele>9.5</ele><time>2026-04-19T15:32:47.511Z</time></trkpt><trkpt lat="37.9233717" lon="16.042345"><ele>9.0</ele><time>2026-04-19T15:32:48.511Z</time></trkpt><trkpt lat="37.9234767" lon="16.0420783"><ele>11.0</ele><time>2026-04-19T15:32:49.512Z</time></trkpt><trkpt lat="37.92361" lon="16.0418083"><ele>13.0</ele><time>2026-04-19T15:32:50.512Z</time></trkpt><trkpt lat="37.923735" lon="16.0415317"><ele>13.0</ele><time>2026-04-19T15:32:51.512Z</time></trkpt><trkpt lat="37.92385" lon="16.0412683"><ele>13.0</ele><time>2026-04-19T15:32:52.511Z</time></trkpt><trkpt lat="37.92397" lon="16.0410183"><ele>12.666666666666666</ele><time>2026-04-19T15:32:53.512Z</time></trkpt><trkpt lat="37.9240867" lon="16.0407867"><ele>12.333333333333332</ele><time>2026-04-19T15:32:54.511Z</time></trkpt><trkpt lat="37.924195" lon="16.0405817"><ele>12.0</ele><time>2026-04-19T15:32:55.512Z</time></trkpt><trkpt lat="37.9243" lon="16.0403833"><ele>14.0</ele><time>2026-04-19T15:32:56.511Z</time></trkpt><trkpt lat="37.9244017" lon="16.0401883"><ele>16.0</ele><time>2026-04-19T15:32:57.511Z</time></trkpt><trkpt lat="37.9244767" lon="16.039985"><ele>18.0</ele><time>2026-04-19T15:32:58.511Z</time></trkpt><trkpt lat="37.9245317" lon="16.0397583"><ele>18.0</ele><time>2026-04-19T15:32:59.511Z</time></trkpt><trkpt lat="37.9245567" lon="16.0395167"><ele>18.0</ele><time>2026-04-19T15:33:00.512Z</time></trkpt><trkpt lat="37.9245667" lon="16.0392617"><ele>18.0</ele><time>2026-04-19T15:33:01.511Z</time></trkpt><trkpt lat="37.9245833" lon="16.0390067"><ele>16.666666666666668</ele><time>2026-04-19T15:33:02.511Z</time></trkpt><trkpt lat="37.9246183" lon="16.038755"><ele>15.333333333333334</ele><time>2026-04-19T15:33:03.512Z</time></trkpt><trkpt lat="37.92464" lon="16.038515"><ele>14.0</ele><time>2026-04-19T15:33:04.511Z</time></trkpt><trkpt lat="37.9246533" lon="16.0382667"><ele>14.0</ele><time>2026-04-19T15:33:05.511Z</time></trkpt><trkpt lat="37.9246783" lon="16.0380267"><ele>14.0</ele><time>2026-04-19T15:33:06.511Z</time></trkpt><trkpt lat="37.9247067" lon="16.037785"><ele>14.0</ele><time>2026-04-19T15:33:07.512Z</time></trkpt><trkpt lat="37.9247267" lon="16.0375667"><ele>13.666666666666668</ele><time>2026-04-19T15:33:08.512Z</time></trkpt><trkpt lat="37.92474" lon="16.03734"><ele>13.333333333333332</ele><time>2026-04-19T15:33:09.511Z</time></trkpt><trkpt lat="37.924755" lon="16.0371217"><ele>13.0</ele><time>2026-04-19T15:33:10.512Z</time></trkpt><trkpt lat="37.92477" lon="16.0369133"><ele>13.0</ele><time>2026-04-19T15:33:11.511Z</time></trkpt><trkpt lat="37.9247883" lon="16.036725"><ele>13.0</ele><time>2026-04-19T15:33:12.511Z</time></trkpt><trkpt lat="37.924805" lon="16.03657"><ele>13.0</ele><time>2026-04-19T15:33:13.512Z</time></trkpt><trkpt lat="37.924815" lon="16.036405"><ele>13.0</ele><time>2026-04-19T15:33:14.511Z</time></trkpt><trkpt lat="37.9248367" lon="16.0362667"><ele>13.25</ele><time>2026-04-19T15:33:15.511Z</time></trkpt><trkpt lat="37.924855" lon="16.03612"><ele>13.5</ele><time>2026-04-19T15:33:16.511Z</time></trkpt><trkpt lat="37.9248517" lon="16.035975"><ele>13.75</ele><time>2026-04-19T15:33:17.512Z</time></trkpt><trkpt lat="37.9248317" lon="16.0358317"><ele>14.0</ele><time>2026-04-19T15:33:18.511Z</time></trkpt><trkpt lat="37.9248" lon="16.0356917"><ele>16.5</ele><time>2026-04-19T15:33:19.512Z</time></trkpt><trkpt lat="37.9247617" lon="16.0355567"><ele>19.0</ele><time>2026-04-19T15:33:20.511Z</time></trkpt><trkpt lat="37.9247217" lon="16.0354217"><ele>21.5</ele><time>2026-04-19T15:33:21.511Z</time></trkpt><trkpt lat="37.9246817" lon="16.0352867"><ele>24.0</ele><time>2026-04-19T15:33:22.511Z</time></trkpt><trkpt lat="37.92464" lon="16.0351417"><ele>24.0</ele><time>2026-04-19T15:33:23.511Z</time></trkpt><trkpt lat="37.9246017" lon="16.035"><ele>24.0</ele><time>2026-04-19T15:33:24.511Z</time></trkpt><trkpt lat="37.9245533" lon="16.034845"><ele>24.0</ele><time>2026-04-19T15:33:25.512Z</time></trkpt><trkpt lat="37.924505" lon="16.0346833"><ele>24.0</ele><time>2026-04-19T15:33:26.512Z</time></trkpt><trkpt lat="37.9244583" lon="16.034515"><ele>25.0</ele><time>2026-04-19T15:33:27.511Z</time></trkpt><trkpt lat="37.9244183" lon="16.0343467"><ele>26.0</ele><time>2026-04-19T15:33:28.511Z</time></trkpt><trkpt lat="37.9243867" lon="16.0341767"><ele>27.0</ele><time>2026-04-19T15:33:29.511Z</time></trkpt><trkpt lat="37.92436" lon="16.034005"><ele>28.0</ele><time>2026-04-19T15:33:30.511Z</time></trkpt><trkpt lat="37.9243217" lon="16.03384"><ele>28.0</ele><time>2026-04-19T15:33:31.511Z</time></trkpt><trkpt lat="37.9242867" lon="16.03368"><ele>28.0</ele><time>2026-04-19T15:33:32.511Z</time></trkpt><trkpt lat="37.9242633" lon="16.03354"><ele>28.0</ele><time>2026-04-19T15:33:33.511Z</time></trkpt><trkpt lat="37.9242533" lon="16.033405"><ele>28.0</ele><time>2026-04-19T15:33:34.512Z</time></trkpt><trkpt lat="37.924255" lon="16.033265"><ele>26.4</ele><time>2026-04-19T15:33:35.511Z</time></trkpt><trkpt lat="37.9242533" lon="16.03314"><ele>24.799999999999997</ele><time>2026-04-19T15:33:36.511Z</time></trkpt><trkpt lat="37.924255" lon="16.033015"><ele>23.2</ele><time>2026-04-19T15:33:37.512Z</time></trkpt><trkpt lat="37.92426" lon="16.0328933"><ele>21.6</ele><time>2026-04-19T15:33:38.511Z</time></trkpt><trkpt lat="37.9242717" lon="16.0327733"><ele>20.0</ele><time>2026-04-19T15:33:39.511Z</time></trkpt><trkpt lat="37.924275" lon="16.0326467"><ele>20.0</ele><time>2026-04-19T15:33:40.512Z</time></trkpt><trkpt lat="37.9242783" lon="16.03251"><ele>20.0</ele><time>2026-04-19T15:33:41.511Z</time></trkpt><trkpt lat="37.9242683" lon="16.032365"><ele>20.0</ele><time>2026-04-19T15:33:42.512Z</time></trkpt><trkpt lat="37.9242467" lon="16.0322133"><ele>20.0</ele><time>2026-04-19T15:33:43.512Z</time></trkpt><trkpt lat="37.92422" lon="16.0320717"><ele>18.25</ele><time>2026-04-19T15:33:44.512Z</time></trkpt><trkpt lat="37.92419" lon="16.0319183"><ele>16.5</ele><time>2026-04-19T15:33:45.511Z</time></trkpt><trkpt lat="37.9241567" lon="16.031755"><ele>14.75</ele><time>2026-04-19T15:33:46.511Z</time></trkpt><trkpt lat="37.9241167" lon="16.0316"><ele>13.0</ele><time>2026-04-19T15:33:47.511Z</time></trkpt><trkpt lat="37.924085" lon="16.0314433"><ele>13.0</ele><time>2026-04-19T15:33:48.511Z</time></trkpt><trkpt lat="37.924075" lon="16.03127"><ele>13.0</ele><time>2026-04-19T15:33:49.512Z</time></trkpt><trkpt lat="37.9240617" lon="16.0310917"><ele>13.0</ele><time>2026-04-19T15:33:50.511Z</time></trkpt><trkpt lat="37.924055" lon="16.0309167"><ele>13.0</ele><time>2026-04-19T15:33:51.511Z</time></trkpt><trkpt lat="37.92404" lon="16.0307467"><ele>13.0</ele><time>2026-04-19T15:33:52.511Z</time></trkpt><trkpt lat="37.9240283" lon="16.0305783"><ele>13.0</ele><time>2026-04-19T15:33:53.511Z</time></trkpt><trkpt lat="37.9240233" lon="16.03041"><ele>13.0</ele><time>2026-04-19T15:33:54.512Z</time></trkpt><trkpt lat="37.92402" lon="16.0302333"><ele>13.0</ele><time>2026-04-19T15:33:55.511Z</time></trkpt><trkpt lat="37.9240067" lon="16.0300617"><ele>13.25</ele><time>2026-04-19T15:33:56.511Z</time></trkpt><trkpt lat="37.924005" lon="16.0298983"><ele>13.5</ele><time>2026-04-19T15:33:57.511Z</time></trkpt><trkpt lat="37.9239967" lon="16.0297417"><ele>13.75</ele><time>2026-04-19T15:33:58.511Z</time></trkpt><trkpt lat="37.923985" lon="16.029585"><ele>14.0</ele><time>2026-04-19T15:33:59.512Z</time></trkpt><trkpt lat="37.9239883" lon="16.02945"><ele>14.0</ele><time>2026-04-19T15:34:00.511Z</time></trkpt><trkpt lat="37.9239933" lon="16.0293067"><ele>14.0</ele><time>2026-04-19T15:34:01.512Z</time></trkpt><trkpt lat="37.9239983" lon="16.0291367"><ele>14.0</ele><time>2026-04-19T15:34:02.511Z</time></trkpt><trkpt lat="37.924005" lon="16.028965"><ele>14.0</ele><time>2026-04-19T15:34:03.511Z</time></trkpt><trkpt lat="37.9240317" lon="16.0287767"><ele>14.0</ele><time>2026-04-19T15:34:04.511Z</time></trkpt><trkpt lat="37.9240533" lon="16.0285767"><ele>14.0</ele><time>2026-04-19T15:34:05.511Z</time></trkpt><trkpt lat="37.9240833" lon="16.0283767"><ele>14.0</ele><time>2026-04-19T15:34:06.512Z</time></trkpt><trkpt lat="37.924115" lon="16.0281433"><ele>14.0</ele><time>2026-04-19T15:34:07.511Z</time></trkpt><trkpt lat="37.9241417" lon="16.027895"><ele>14.0</ele><time>2026-04-19T15:34:08.512Z</time></trkpt><trkpt lat="37.9241517" lon="16.027625"><ele>14.0</ele><time>2026-04-19T15:34:09.511Z</time></trkpt><trkpt lat="37.9241533" lon="16.0273483"><ele>14.0</ele><time>2026-04-19T15:34:10.511Z</time></trkpt><trkpt lat="37.9241567" lon="16.0270633"><ele>14.0</ele><time>2026-04-19T15:34:11.512Z</time></trkpt><trkpt lat="37.9241617" lon="16.02677"><ele>13.0</ele><time>2026-04-19T15:34:12.512Z</time></trkpt><trkpt lat="37.9241683" lon="16.0264717"><ele>12.0</ele><time>2026-04-19T15:34:13.511Z</time></trkpt><trkpt lat="37.924175" lon="16.026175"><ele>12.0</ele><time>2026-04-19T15:34:14.511Z</time></trkpt><trkpt lat="37.9241833" lon="16.0258633"><ele>12.0</ele><time>2026-04-19T15:34:15.511Z</time></trkpt><trkpt lat="37.924195" lon="16.0255317"><ele>11.5</ele><time>2026-04-19T15:34:16.511Z</time></trkpt><trkpt lat="37.9241917" lon="16.0252017"><ele>11.0</ele><time>2026-04-19T15:34:17.512Z</time></trkpt><trkpt lat="37.9241633" lon="16.0248683"><ele>11.0</ele><time>2026-04-19T15:34:18.512Z</time></trkpt><trkpt lat="37.9240933" lon="16.0245383"><ele>11.0</ele><time>2026-04-19T15:34:19.511Z</time></trkpt><trkpt lat="37.9240183" lon="16.024205"><ele>13.0</ele><time>2026-04-19T15:34:20.511Z</time></trkpt><trkpt lat="37.9239367" lon="16.02386"><ele>15.0</ele><time>2026-04-19T15:34:21.511Z</time></trkpt><trkpt lat="37.923865" lon="16.0235167"><ele>16.0</ele><time>2026-04-19T15:34:22.512Z</time></trkpt><trkpt lat="37.9238" lon="16.0231667"><ele>17.0</ele><time>2026-04-19T15:34:23.512Z</time></trkpt><trkpt lat="37.92373" lon="16.0228167"><ele>16.5</ele><time>2026-04-19T15:34:24.511Z</time></trkpt><trkpt lat="37.9236667" lon="16.02247"><ele>16.0</ele><time>2026-04-19T15:34:25.511Z</time></trkpt><trkpt lat="37.9236017" lon="16.022125"><ele>16.0</ele><time>2026-04-19T15:34:26.511Z</time></trkpt><trkpt lat="37.92354" lon="16.02177"><ele>16.0</ele><time>2026-04-19T15:34:27.512Z</time></trkpt><trkpt lat="37.9234917" lon="16.021425"><ele>14.0</ele><time>2026-04-19T15:34:28.511Z</time></trkpt><trkpt lat="37.923435" lon="16.0210667"><ele>12.0</ele><time>2026-04-19T15:34:29.511Z</time></trkpt><trkpt lat="37.9233833" lon="16.020715"><ele>11.0</ele><time>2026-04-19T15:34:30.512Z</time></trkpt><trkpt lat="37.923325" lon="16.0203633"><ele>10.0</ele><time>2026-04-19T15:34:31.511Z</time></trkpt><trkpt lat="37.9232633" lon="16.0200167"><ele>10.0</ele><time>2026-04-19T15:34:32.511Z</time></trkpt><trkpt lat="37.9232017" lon="16.01968"><ele>10.0</ele><time>2026-04-19T15:34:33.511Z</time></trkpt><trkpt lat="37.9231383" lon="16.0193333"><ele>12.0</ele><time>2026-04-19T15:34:34.511Z</time></trkpt><trkpt lat="37.9230733" lon="16.018995"><ele>14.0</ele><time>2026-04-19T15:34:35.512Z</time></trkpt><trkpt lat="37.923015" lon="16.0186683"><ele>14.0</ele><time>2026-04-19T15:34:36.512Z</time></trkpt><trkpt lat="37.9229517" lon="16.0183383"><ele>14.0</ele><time>2026-04-19T15:34:37.511Z</time></trkpt><trkpt lat="37.9228933" lon="16.0180033"><ele>15.0</ele><time>2026-04-19T15:34:38.511Z</time></trkpt><trkpt lat="37.9228317" lon="16.017675"><ele>16.0</ele><time>2026-04-19T15:34:39.512Z</time></trkpt><trkpt lat="37.9227617" lon="16.0173383"><ele>16.0</ele><time>2026-04-19T15:34:40.511Z</time></trkpt><trkpt lat="37.9226967" lon="16.0170033"><ele>16.0</ele><time>2026-04-19T15:34:41.511Z</time></trkpt><trkpt lat="37.9226333" lon="16.0166717"><ele>18.5</ele><time>2026-04-19T15:34:42.511Z</time></trkpt><trkpt lat="37.92257" lon="16.0163417"><ele>21.0</ele><time>2026-04-19T15:34:43.511Z</time></trkpt><trkpt lat="37.9225083" lon="16.0160233"><ele>16.0</ele><time>2026-04-19T15:34:44.511Z</time></trkpt><trkpt lat="37.922445" lon="16.0157133"><ele>11.0</ele><time>2026-04-19T15:34:45.511Z</time></trkpt><trkpt lat="37.9223733" lon="16.0154217"><ele>11.0</ele><time>2026-04-19T15:34:46.511Z</time></trkpt><trkpt lat="37.9223033" lon="16.015155"><ele>11.0</ele><time>2026-04-19T15:34:47.512Z</time></trkpt><trkpt lat="37.92224" lon="16.0149017"><ele>11.0</ele><time>2026-04-19T15:34:48.511Z</time></trkpt><trkpt lat="37.92218" lon="16.0146583"><ele>11.666666666666666</ele><time>2026-04-19T15:34:49.511Z</time></trkpt><trkpt lat="37.9221333" lon="16.0144317"><ele>12.333333333333332</ele><time>2026-04-19T15:34:50.511Z</time></trkpt><trkpt lat="37.9220933" lon="16.014215"><ele>13.0</ele><time>2026-04-19T15:34:51.512Z</time></trkpt><trkpt lat="37.9220617" lon="16.0140033"><ele>13.0</ele><time>2026-04-19T15:34:52.511Z</time></trkpt><trkpt lat="37.9220333" lon="16.0138233"><ele>13.0</ele><time>2026-04-19T15:34:53.511Z</time></trkpt><trkpt lat="37.9220033" lon="16.013675"><ele>13.0</ele><time>2026-04-19T15:34:54.511Z</time></trkpt><trkpt lat="37.9219833" lon="16.013545"><ele>13.0</ele><time>2026-04-19T15:34:55.511Z</time></trkpt><trkpt lat="37.9219717" lon="16.0134383"><ele>12.999999999999998</ele><time>2026-04-19T15:34:56.511Z</time></trkpt><trkpt lat="37.921965" lon="16.01335"><ele>13.0</ele><time>2026-04-19T15:34:57.511Z</time></trkpt><trkpt lat="37.92197" lon="16.01324"><ele>13.0</ele><time>2026-04-19T15:34:59.512Z</time></trkpt><trkpt lat="37.92199" lon="16.0131533"><ele>13.0</ele><time>2026-04-19T15:35:01.511Z</time></trkpt><trkpt lat="37.9220267" lon="16.0130433"><ele>12.999999999999998</ele><time>2026-04-19T15:35:03.511Z</time></trkpt><trkpt lat="37.9220333" lon="16.0128983"><ele>13.0</ele><time>2026-04-19T15:35:05.511Z</time></trkpt><trkpt lat="37.9219733" lon="16.0128033"><ele>13.166666666666666</ele><time>2026-04-19T15:35:07.511Z</time></trkpt><trkpt lat="37.9218583" lon="16.0127683"><ele>13.333333333333332</ele><time>2026-04-19T15:35:09.511Z</time></trkpt><trkpt lat="37.9217917" lon="16.0127483"><ele>13.5</ele><time>2026-04-19T15:35:10.512Z</time></trkpt><trkpt lat="37.9217283" lon="16.0127"><ele>13.666666666666668</ele><time>2026-04-19T15:35:11.511Z</time></trkpt><trkpt lat="37.92167" lon="16.0126333"><ele>13.833333333333334</ele><time>2026-04-19T15:35:12.511Z</time></trkpt><trkpt lat="37.921605" lon="16.0125583"><ele>14.0</ele><time>2026-04-19T15:35:13.511Z</time></trkpt><trkpt lat="37.921545" lon="16.0124633"><ele>13.2</ele><time>2026-04-19T15:35:14.511Z</time></trkpt><trkpt lat="37.92148" lon="16.01236"><ele>12.399999999999999</ele><time>2026-04-19T15:35:15.509Z</time></trkpt><trkpt lat="37.9214133" lon="16.0122567"><ele>11.6</ele><time>2026-04-19T15:35:16.512Z</time></trkpt><trkpt lat="37.9213533" lon="16.0121433"><ele>10.8</ele><time>2026-04-19T15:35:17.512Z</time></trkpt><trkpt lat="37.92129" lon="16.0120383"><ele>10.0</ele><time>2026-04-19T15:35:18.511Z</time></trkpt><trkpt lat="37.9212117" lon="16.01193"><ele>10.0</ele><time>2026-04-19T15:35:19.511Z</time></trkpt><trkpt lat="37.9211283" lon="16.0118483"><ele>10.0</ele><time>2026-04-19T15:35:20.511Z</time></trkpt><trkpt lat="37.921045" lon="16.01176"><ele>10.0</ele><time>2026-04-19T15:35:21.512Z</time></trkpt><trkpt lat="37.92096" lon="16.01167"><ele>10.0</ele><time>2026-04-19T15:35:22.511Z</time></trkpt><trkpt lat="37.92088" lon="16.0115783"><ele>10.0</ele><time>2026-04-19T15:35:23.511Z</time></trkpt><trkpt lat="37.9207983" lon="16.01148"><ele>9.4</ele><time>2026-04-19T15:35:24.511Z</time></trkpt><trkpt lat="37.92072" lon="16.0113733"><ele>8.8</ele><time>2026-04-19T15:35:25.512Z</time></trkpt><trkpt lat="37.92065" lon="16.0112617"><ele>8.2</ele><time>2026-04-19T15:35:26.511Z</time></trkpt><trkpt lat="37.9205917" lon="16.0111417"><ele>7.6</ele><time>2026-04-19T15:35:27.511Z</time></trkpt><trkpt lat="37.9205433" lon="16.01102"><ele>7.0</ele><time>2026-04-19T15:35:28.511Z</time></trkpt><trkpt lat="37.9205017" lon="16.0109"><ele>7.6</ele><time>2026-04-19T15:35:29.511Z</time></trkpt><trkpt lat="37.920465" lon="16.0107767"><ele>8.2</ele><time>2026-04-19T15:35:30.511Z</time></trkpt><trkpt lat="37.9204217" lon="16.01065"><ele>8.8</ele><time>2026-04-19T15:35:31.511Z</time></trkpt><trkpt lat="37.9203817" lon="16.0105233"><ele>9.4</ele><time>2026-04-19T15:35:32.511Z</time></trkpt><trkpt lat="37.9203417" lon="16.010395"><ele>10.0</ele><time>2026-04-19T15:35:33.511Z</time></trkpt><trkpt lat="37.9203083" lon="16.0102517"><ele>10.0</ele><time>2026-04-19T15:35:34.511Z</time></trkpt><trkpt lat="37.9202717" lon="16.0101067"><ele>10.0</ele><time>2026-04-19T15:35:35.512Z</time></trkpt><trkpt lat="37.920235" lon="16.009955"><ele>10.0</ele><time>2026-04-19T15:35:36.511Z</time></trkpt><trkpt lat="37.920185" lon="16.0098083"><ele>10.0</ele><time>2026-04-19T15:35:37.512Z</time></trkpt><trkpt lat="37.9201433" lon="16.0096567"><ele>9.75</ele><time>2026-04-19T15:35:38.511Z</time></trkpt><trkpt lat="37.9201167" lon="16.0095233"><ele>9.5</ele><time>2026-04-19T15:35:39.511Z</time></trkpt><trkpt lat="37.9200833" lon="16.0093667"><ele>9.25</ele><time>2026-04-19T15:35:40.511Z</time></trkpt><trkpt lat="37.9200517" lon="16.0092033"><ele>9.0</ele><time>2026-04-19T15:35:41.511Z</time></trkpt><trkpt lat="37.92002" lon="16.009045"><ele>10.333333333333332</ele><time>2026-04-19T15:35:42.511Z</time></trkpt><trkpt lat="37.9199983" lon="16.0088567"><ele>11.666666666666666</ele><time>2026-04-19T15:35:43.511Z</time></trkpt><trkpt lat="37.9199683" lon="16.008655"><ele>13.0</ele><time>2026-04-19T15:35:44.511Z</time></trkpt><trkpt lat="37.919935" lon="16.0084067"><ele>13.333333333333332</ele><time>2026-04-19T15:35:45.511Z</time></trkpt><trkpt lat="37.9199017" lon="16.0081617"><ele>13.666666666666668</ele><time>2026-04-19T15:35:46.512Z</time></trkpt><trkpt lat="37.91985" lon="16.007905"><ele>14.0</ele><time>2026-04-19T15:35:47.512Z</time></trkpt><trkpt lat="37.9198167" lon="16.0076267"><ele>14.5</ele><time>2026-04-19T15:35:48.511Z</time></trkpt><trkpt lat="37.9197733" lon="16.0073383"><ele>15.0</ele><time>2026-04-19T15:35:49.511Z</time></trkpt><trkpt lat="37.9197317" lon="16.0070417"><ele>15.0</ele><time>2026-04-19T15:35:50.511Z</time></trkpt><trkpt lat="37.9196767" lon="16.0067517"><ele>15.0</ele><time>2026-04-19T15:35:51.511Z</time></trkpt><trkpt lat="37.9196333" lon="16.0064433"><ele>15.5</ele><time>2026-04-19T15:35:52.511Z</time></trkpt><trkpt lat="37.9195983" lon="16.00613"><ele>16.0</ele><time>2026-04-19T15:35:53.511Z</time></trkpt><trkpt lat="37.919555" lon="16.0058183"><ele>17.0</ele><time>2026-04-19T15:35:54.511Z</time></trkpt><trkpt lat="37.9194967" lon="16.0055"><ele>18.0</ele><time>2026-04-19T15:35:55.511Z</time></trkpt><trkpt lat="37.9194467" lon="16.0051833"><ele>21.5</ele><time>2026-04-19T15:35:56.511Z</time></trkpt><trkpt lat="37.9193883" lon="16.00487"><ele>25.0</ele><time>2026-04-19T15:35:57.512Z</time></trkpt><trkpt lat="37.919325" lon="16.0045583"><ele>25.0</ele><time>2026-04-19T15:35:58.511Z</time></trkpt><trkpt lat="37.9192633" lon="16.00425"><ele>25.0</ele><time>2026-04-19T15:35:59.511Z</time></trkpt><trkpt lat="37.919195" lon="16.0039417"><ele>19.5</ele><time>2026-04-19T15:36:00.511Z</time></trkpt><trkpt lat="37.9191333" lon="16.0036367"><ele>14.0</ele><time>2026-04-19T15:36:01.511Z</time></trkpt><trkpt lat="37.9190717" lon="16.0033333"><ele>19.0</ele><time>2026-04-19T15:36:02.511Z</time></trkpt><trkpt lat="37.9190083" lon="16.00302"><ele>24.0</ele><time>2026-04-19T15:36:03.511Z</time></trkpt><trkpt lat="37.9189317" lon="16.0027133"><ele>33.5</ele><time>2026-04-19T15:36:04.511Z</time></trkpt><trkpt lat="37.918835" lon="16.0024267"><ele>43.0</ele><time>2026-04-19T15:36:05.512Z</time></trkpt><trkpt lat="37.9187133" lon="16.0021717"><ele>43.0</ele><time>2026-04-19T15:36:06.512Z</time></trkpt><trkpt lat="37.9185767" lon="16.0019167"><ele>43.0</ele><time>2026-04-19T15:36:07.511Z</time></trkpt><trkpt lat="37.9184333" lon="16.0016533"><ele>33.5</ele><time>2026-04-19T15:36:08.511Z</time></trkpt><trkpt lat="37.9183" lon="16.0013933"><ele>24.0</ele><time>2026-04-19T15:36:09.511Z</time></trkpt><trkpt lat="37.9181617" lon="16.00113"><ele>24.0</ele><time>2026-04-19T15:36:10.511Z</time></trkpt><trkpt lat="37.91803" lon="16.0008717"><ele>24.0</ele><time>2026-04-19T15:36:11.511Z</time></trkpt><trkpt lat="37.9179" lon="16.0006067"><ele>30.0</ele><time>2026-04-19T15:36:12.511Z</time></trkpt><trkpt lat="37.9177767" lon="16.0003533"><ele>36.0</ele><time>2026-04-19T15:36:13.511Z</time></trkpt><trkpt lat="37.9176583" lon="16.00011"><ele>29.333333333333332</ele><time>2026-04-19T15:36:14.512Z</time></trkpt><trkpt lat="37.91755" lon="15.999895"><ele>22.666666666666664</ele><time>2026-04-19T15:36:15.511Z</time></trkpt><trkpt lat="37.9174233" lon="15.9997083"><ele>16.0</ele><time>2026-04-19T15:36:16.511Z</time></trkpt><trkpt lat="37.9172933" lon="15.99955"><ele>16.0</ele><time>2026-04-19T15:36:17.511Z</time></trkpt><trkpt lat="37.917185" lon="15.9993883"><ele>16.0</ele><time>2026-04-19T15:36:18.512Z</time></trkpt><trkpt lat="37.9170917" lon="15.99923"><ele>16.0</ele><time>2026-04-19T15:36:19.51Z</time></trkpt><trkpt lat="37.9170267" lon="15.9990717"><ele>14.75</ele><time>2026-04-19T15:36:20.511Z</time></trkpt><trkpt lat="37.9169367" lon="15.99895"><ele>13.5</ele><time>2026-04-19T15:36:21.511Z</time></trkpt><trkpt lat="37.9168183" lon="15.9988533"><ele>12.25</ele><time>2026-04-19T15:36:22.511Z</time></trkpt><trkpt lat="37.9166883" lon="15.998765"><ele>11.0</ele><time>2026-04-19T15:36:23.511Z</time></trkpt><trkpt lat="37.9165767" lon="15.99864"><ele>11.0</ele><time>2026-04-19T15:36:24.511Z</time></trkpt><trkpt lat="37.9164867" lon="15.9984633"><ele>11.0</ele><time>2026-04-19T15:36:25.511Z</time></trkpt><trkpt lat="37.916415" lon="15.998275"><ele>11.0</ele><time>2026-04-19T15:36:26.511Z</time></trkpt><trkpt lat="37.91637" lon="15.998105"><ele>11.25</ele><time>2026-04-19T15:36:27.512Z</time></trkpt><trkpt lat="37.9163583" lon="15.99793"><ele>11.5</ele><time>2026-04-19T15:36:28.511Z</time></trkpt><trkpt lat="37.9163933" lon="15.997745"><ele>11.75</ele><time>2026-04-19T15:36:29.512Z</time></trkpt><trkpt lat="37.91647" lon="15.9975933"><ele>12.0</ele><time>2026-04-19T15:36:30.511Z</time></trkpt><trkpt lat="37.9165667" lon="15.9974483"><ele>12.0</ele><time>2026-04-19T15:36:31.511Z</time></trkpt><trkpt lat="37.9166933" lon="15.997345"><ele>12.0</ele><time>2026-04-19T15:36:32.511Z</time></trkpt><trkpt lat="37.916875" lon="15.9973083"><ele>12.0</ele><time>2026-04-19T15:36:33.511Z</time></trkpt><trkpt lat="37.91708" lon="15.9973583"><ele>14.0</ele><time>2026-04-19T15:36:34.511Z</time></trkpt><trkpt lat="37.9172633" lon="15.99739"><ele>16.0</ele><time>2026-04-19T15:36:35.511Z</time></trkpt><trkpt lat="37.91742" lon="15.9973717"><ele>18.0</ele><time>2026-04-19T15:36:36.511Z</time></trkpt><trkpt lat="37.91755" lon="15.997285"><ele>19.0</ele><time>2026-04-19T15:36:37.511Z</time></trkpt><trkpt lat="37.917655" lon="15.9971467"><ele>20.0</ele><time>2026-04-19T15:36:38.511Z</time></trkpt><trkpt lat="37.917755" lon="15.9969733"><ele>21.0</ele><time>2026-04-19T15:36:39.511Z</time></trkpt><trkpt lat="37.91786" lon="15.99679"><ele>18.333333333333332</ele><time>2026-04-19T15:36:40.511Z</time></trkpt><trkpt lat="37.9179517" lon="15.9965933"><ele>15.666666666666666</ele><time>2026-04-19T15:36:41.511Z</time></trkpt><trkpt lat="37.9180117" lon="15.9963817"><ele>13.0</ele><time>2026-04-19T15:36:42.511Z</time></trkpt><trkpt lat="37.9180367" lon="15.9961433"><ele>13.0</ele><time>2026-04-19T15:36:43.511Z</time></trkpt><trkpt lat="37.9180283" lon="15.9958783"><ele>13.0</ele><time>2026-04-19T15:36:44.512Z</time></trkpt><trkpt lat="37.918005" lon="15.9955933"><ele>13.0</ele><time>2026-04-19T15:36:45.511Z</time></trkpt><trkpt lat="37.9179733" lon="15.9953167"><ele>12.333333333333332</ele><time>2026-04-19T15:36:46.511Z</time></trkpt><trkpt lat="37.91794" lon="15.9950567"><ele>11.666666666666666</ele><time>2026-04-19T15:36:47.511Z</time></trkpt><trkpt lat="37.917915" lon="15.9948117"><ele>11.0</ele><time>2026-04-19T15:36:48.511Z</time></trkpt><trkpt lat="37.9179217" lon="15.9945733"><ele>10.333333333333332</ele><time>2026-04-19T15:36:49.511Z</time></trkpt><trkpt lat="37.917975" lon="15.9943283"><ele>9.666666666666666</ele><time>2026-04-19T15:36:50.511Z</time></trkpt><trkpt lat="37.9180717" lon="15.9940767"><ele>9.0</ele><time>2026-04-19T15:36:51.511Z</time></trkpt><trkpt lat="37.9181633" lon="15.99382"><ele>8.333333333333334</ele><time>2026-04-19T15:36:52.511Z</time></trkpt><trkpt lat="37.9182483" lon="15.9935617"><ele>7.666666666666667</ele><time>2026-04-19T15:36:53.511Z</time></trkpt><trkpt lat="37.9183317" lon="15.993305"><ele>7.0</ele><time>2026-04-19T15:36:54.512Z</time></trkpt><trkpt lat="37.9184017" lon="15.9930583"><ele>8.666666666666668</ele><time>2026-04-19T15:36:55.511Z</time></trkpt><trkpt lat="37.9184567" lon="15.9928017"><ele>10.333333333333334</ele><time>2026-04-19T15:36:56.512Z</time></trkpt><trkpt lat="37.9185083" lon="15.9925517"><ele>12.0</ele><time>2026-04-19T15:36:57.511Z</time></trkpt><trkpt lat="37.9185417" lon="15.9922883"><ele>14.0</ele><time>2026-04-19T15:36:58.511Z</time></trkpt><trkpt lat="37.918565" lon="15.99202"><ele>16.0</ele><time>2026-04-19T15:36:59.511Z</time></trkpt><trkpt lat="37.91858" lon="15.9917517"><ele>18.0</ele><time>2026-04-19T15:37:00.511Z</time></trkpt><trkpt lat="37.9185933" lon="15.99148"><ele>18.0</ele><time>2026-04-19T15:37:01.511Z</time></trkpt><trkpt lat="37.9186167" lon="15.991195"><ele>18.0</ele><time>2026-04-19T15:37:02.511Z</time></trkpt><trkpt lat="37.9186383" lon="15.9909133"><ele>18.0</ele><time>2026-04-19T15:37:03.511Z</time></trkpt><trkpt lat="37.9186517" lon="15.9906233"><ele>15.0</ele><time>2026-04-19T15:37:04.511Z</time></trkpt><trkpt lat="37.9186733" lon="15.990335"><ele>12.0</ele><time>2026-04-19T15:37:05.511Z</time></trkpt><trkpt lat="37.9186967" lon="15.9900433"><ele>11.5</ele><time>2026-04-19T15:37:06.511Z</time></trkpt><trkpt lat="37.9187183" lon="15.98975"><ele>11.0</ele><time>2026-04-19T15:37:07.511Z</time></trkpt><trkpt lat="37.9187383" lon="15.989475"><ele>11.0</ele><time>2026-04-19T15:37:08.511Z</time></trkpt><trkpt lat="37.9187417" lon="15.9892167"><ele>11.0</ele><time>2026-04-19T15:37:09.511Z</time></trkpt><trkpt lat="37.91877" lon="15.98895"><ele>11.0</ele><time>2026-04-19T15:37:10.511Z</time></trkpt><trkpt lat="37.9187917" lon="15.9886883"><ele>10.666666666666666</ele><time>2026-04-19T15:37:11.512Z</time></trkpt><trkpt lat="37.9188133" lon="15.9884283"><ele>10.333333333333334</ele><time>2026-04-19T15:37:12.511Z</time></trkpt><trkpt lat="37.918825" lon="15.988185"><ele>10.0</ele><time>2026-04-19T15:37:13.511Z</time></trkpt><trkpt lat="37.91884" lon="15.987955"><ele>10.0</ele><time>2026-04-19T15:37:14.512Z</time></trkpt><trkpt lat="37.91888" lon="15.98775"><ele>10.0</ele><time>2026-04-19T15:37:15.511Z</time></trkpt><trkpt lat="37.9189283" lon="15.9875683"><ele>10.0</ele><time>2026-04-19T15:37:16.511Z</time></trkpt><trkpt lat="37.9189783" lon="15.98739"><ele>10.5</ele><time>2026-04-19T15:37:17.511Z</time></trkpt><trkpt lat="37.9190183" lon="15.98722"><ele>11.0</ele><time>2026-04-19T15:37:18.512Z</time></trkpt><trkpt lat="37.9190567" lon="15.9870667"><ele>11.5</ele><time>2026-04-19T15:37:19.511Z</time></trkpt><trkpt lat="37.9190933" lon="15.986925"><ele>12.0</ele><time>2026-04-19T15:37:20.511Z</time></trkpt><trkpt lat="37.9191117" lon="15.9868083"><ele>11.999999999999998</ele><time>2026-04-19T15:37:21.511Z</time></trkpt><trkpt lat="37.9191267" lon="15.9867233"><ele>12.0</ele><time>2026-04-19T15:37:22.511Z</time></trkpt><trkpt lat="37.9191833" lon="15.98667"><ele>12.0</ele><time>2026-04-19T15:37:25.512Z</time></trkpt><trkpt lat="37.9192667" lon="15.9867"><ele>12.0</ele><time>2026-04-19T15:37:28.512Z</time></trkpt><trkpt lat="37.919335" lon="15.9867417"><ele>12.0</ele><time>2026-04-19T15:37:30.511Z</time></trkpt><trkpt lat="37.9193967" lon="15.9867767"><ele>11.999999999999998</ele><time>2026-04-19T15:37:32.511Z</time></trkpt><trkpt lat="37.9194683" lon="15.9867883"><ele>12.0</ele><time>2026-04-19T15:37:34.512Z</time></trkpt><trkpt lat="37.919545" lon="15.986785"><ele>13.75</ele><time>2026-04-19T15:37:36.512Z</time></trkpt><trkpt lat="37.9197183" lon="15.9868417"><ele>15.5</ele><time>2026-04-19T15:37:41.511Z</time></trkpt><trkpt lat="37.9197317" lon="15.986965"><ele>17.25</ele><time>2026-04-19T15:37:44.511Z</time></trkpt><trkpt lat="37.9197233" lon="15.987105"><ele>19.0</ele><time>2026-04-19T15:37:46.511Z</time></trkpt><trkpt lat="37.9197167" lon="15.9872533"><ele>19.0</ele><time>2026-04-19T15:37:48.512Z</time></trkpt><trkpt lat="37.9197033" lon="15.9873367"><ele>19.0</ele><time>2026-04-19T15:37:49.511Z</time></trkpt><trkpt lat="37.919695" lon="15.9874317"><ele>19.0</ele><time>2026-04-19T15:37:50.512Z</time></trkpt><trkpt lat="37.9196933" lon="15.9875283"><ele>19.0</ele><time>2026-04-19T15:37:51.511Z</time></trkpt><trkpt lat="37.9196917" lon="15.9876417"><ele>19.0</ele><time>2026-04-19T15:37:52.512Z</time></trkpt><trkpt lat="37.9196833" lon="15.98775"><ele>19.0</ele><time>2026-04-19T15:37:53.511Z</time></trkpt><trkpt lat="37.919675" lon="15.9878717"><ele>18.599999999999998</ele><time>2026-04-19T15:37:54.511Z</time></trkpt><trkpt lat="37.9196733" lon="15.9879967"><ele>18.2</ele><time>2026-04-19T15:37:55.511Z</time></trkpt><trkpt lat="37.9196683" lon="15.988125"><ele>17.799999999999997</ele><time>2026-04-19T15:37:56.511Z</time></trkpt><trkpt lat="37.9196633" lon="15.98827"><ele>17.4</ele><time>2026-04-19T15:37:57.512Z</time></trkpt><trkpt lat="37.9196733" lon="15.9884033"><ele>17.0</ele><time>2026-04-19T15:37:58.511Z</time></trkpt><trkpt lat="37.9196733" lon="15.9885267"><ele>16.833333333333336</ele><time>2026-04-19T15:37:59.511Z</time></trkpt><trkpt lat="37.9196733" lon="15.9886367"><ele>16.666666666666668</ele><time>2026-04-19T15:38:00.511Z</time></trkpt><trkpt lat="37.9196733" lon="15.9887433"><ele>16.5</ele><time>2026-04-19T15:38:01.511Z</time></trkpt><trkpt lat="37.9196633" lon="15.98885"><ele>16.333333333333332</ele><time>2026-04-19T15:38:02.511Z</time></trkpt><trkpt lat="37.9196583" lon="15.9889567"><ele>16.166666666666664</ele><time>2026-04-19T15:38:03.511Z</time></trkpt><trkpt lat="37.9196483" lon="15.9890567"><ele>16.0</ele><time>2026-04-19T15:38:04.511Z</time></trkpt><trkpt lat="37.9196433" lon="15.9891483"><ele>16.2</ele><time>2026-04-19T15:38:05.511Z</time></trkpt><trkpt lat="37.91964" lon="15.9893017"><ele>16.400000000000002</ele><time>2026-04-19T15:38:07.511Z</time></trkpt><trkpt lat="37.9196317" lon="15.989395"><ele>16.6</ele><time>2026-04-19T15:38:08.512Z</time></trkpt><trkpt lat="37.9196033" lon="15.9895167"><ele>16.8</ele><time>2026-04-19T15:38:10.511Z</time></trkpt><trkpt lat="37.91959" lon="15.989665"><ele>17.0</ele><time>2026-04-19T15:38:12.511Z</time></trkpt><trkpt lat="37.91958" lon="15.9898067"><ele>17.0</ele><time>2026-04-19T15:38:14.511Z</time></trkpt><trkpt lat="37.9195817" lon="15.9899183"><ele>17.0</ele><time>2026-04-19T15:38:16.511Z</time></trkpt><trkpt lat="37.9195733" lon="15.9900083"><ele>17.0</ele><time>2026-04-19T15:38:18.512Z</time></trkpt><trkpt lat="37.9195067" lon="15.9900483"><ele>17.0</ele><time>2026-04-19T15:38:20.511Z</time></trkpt><trkpt lat="37.91942" lon="15.990015"><ele>17.0</ele><time>2026-04-19T15:38:22.511Z</time></trkpt><trkpt lat="37.9193183" lon="15.9899967"><ele>17.0</ele><time>2026-04-19T15:38:24.511Z</time></trkpt><trkpt lat="37.919235" lon="15.9899833"><ele>16.0</ele><time>2026-04-19T15:38:26.511Z</time></trkpt><trkpt lat="37.919165" lon="15.98997"><ele>15.0</ele><time>2026-04-19T15:38:28.512Z</time></trkpt><trkpt lat="37.919095" lon="15.989965"><ele>14.0</ele><time>2026-04-19T15:38:31.511Z</time></trkpt><trkpt lat="37.9190117" lon="15.989945"><ele>13.0</ele><time>2026-04-19T15:38:35.512Z</time></trkpt><trkpt lat="37.9189167" lon="15.9899517"><ele>12.0</ele><time>2026-04-19T15:38:37.511Z</time></trkpt><trkpt lat="37.9188533" lon="15.9899533"><ele>11.0</ele><time>2026-04-19T15:38:38.511Z</time></trkpt><trkpt lat="37.9187483" lon="15.9899217"><ele>11.0</ele><time>2026-04-19T15:38:40.511Z</time></trkpt><trkpt lat="37.9186667" lon="15.98994"><ele>11.0</ele><time>2026-04-19T15:38:44.511Z</time></trkpt><trkpt lat="37.9186333" lon="15.9900617"><ele>11.0</ele><time>2026-04-19T15:38:46.511Z</time></trkpt><trkpt lat="37.9186283" lon="15.9901667"><ele>11.0</ele><time>2026-04-19T15:38:47.511Z</time></trkpt><trkpt lat="37.9186217" lon="15.990305"><ele>11.0</ele><time>2026-04-19T15:38:48.511Z</time></trkpt><trkpt lat="37.9186117" lon="15.9904767"><ele>11.333333333333332</ele><time>2026-04-19T15:38:49.511Z</time></trkpt><trkpt lat="37.9186" lon="15.9906583"><ele>11.666666666666666</ele><time>2026-04-19T15:38:50.511Z</time></trkpt><trkpt lat="37.9185767" lon="15.9908567"><ele>12.0</ele><time>2026-04-19T15:38:51.511Z</time></trkpt><trkpt lat="37.9185667" lon="15.991075"><ele>14.0</ele><time>2026-04-19T15:38:52.511Z</time></trkpt><trkpt lat="37.918555" lon="15.9913167"><ele>16.0</ele><time>2026-04-19T15:38:53.511Z</time></trkpt><trkpt lat="37.9185317" lon="15.9915733"><ele>18.0</ele><time>2026-04-19T15:38:54.511Z</time></trkpt><trkpt lat="37.918505" lon="15.9918183"><ele>18.0</ele><time>2026-04-19T15:38:55.512Z</time></trkpt><trkpt lat="37.91849" lon="15.9920517"><ele>18.0</ele><time>2026-04-19T15:38:56.512Z</time></trkpt><trkpt lat="37.9184717" lon="15.99227"><ele>18.0</ele><time>2026-04-19T15:38:57.511Z</time></trkpt><trkpt lat="37.91845" lon="15.992475"><ele>16.5</ele><time>2026-04-19T15:38:58.511Z</time></trkpt><trkpt lat="37.9184267" lon="15.992655"><ele>15.0</ele><time>2026-04-19T15:38:59.511Z</time></trkpt><trkpt lat="37.9184017" lon="15.992805"><ele>13.5</ele><time>2026-04-19T15:39:00.511Z</time></trkpt><trkpt lat="37.918365" lon="15.9929367"><ele>12.0</ele><time>2026-04-19T15:39:01.511Z</time></trkpt><trkpt lat="37.9183367" lon="15.9930317"><ele>11.166666666666666</ele><time>2026-04-19T15:39:02.512Z</time></trkpt><trkpt lat="37.9183117" lon="15.993105"><ele>10.333333333333334</ele><time>2026-04-19T15:39:03.512Z</time></trkpt><trkpt lat="37.9182917" lon="15.99321"><ele>9.5</ele><time>2026-04-19T15:39:05.511Z</time></trkpt><trkpt lat="37.9182583" lon="15.9932783"><ele>8.666666666666668</ele><time>2026-04-19T15:39:09.511Z</time></trkpt><trkpt lat="37.9181817" lon="15.99324"><ele>7.833333333333334</ele><time>2026-04-19T15:39:13.511Z</time></trkpt><trkpt lat="37.918115" lon="15.9932917"><ele>7.0</ele><time>2026-04-19T15:39:16.511Z</time></trkpt><trkpt lat="37.9180683" lon="15.9933767"><ele>7.0</ele><time>2026-04-19T15:39:18.511Z</time></trkpt><trkpt lat="37.9180283" lon="15.99348"><ele>7.0</ele><time>2026-04-19T15:39:20.512Z</time></trkpt><trkpt lat="37.9179967" lon="15.9935517"><ele>7.0</ele><time>2026-04-19T15:39:22.511Z</time></trkpt><trkpt lat="37.9179667" lon="15.9936367"><ele>7.0</ele><time>2026-04-19T15:39:25.511Z</time></trkpt></trkseg></trk></gpx>